﻿<?xml version="1.0" encoding="utf-8"?><gpx creator="Garmin Desktop App" version="1.1" xsi:schemaLocation="http://www.topografix.com/GPX/1/1 http://www.topografix.com/GPX/1/1/gpx.xsd http://www.garmin.com/xmlschemas/WaypointExtension/v1 http://www8.garmin.com/xmlschemas/WaypointExtensionv1.xsd http://www.garmin.com/xmlschemas/TrackPointExtension/v1 http://www.garmin.com/xmlschemas/TrackPointExtensionv1.xsd http://www.garmin.com/xmlschemas/GpxExtensions/v3 http://www8.garmin.com/xmlschemas/GpxExtensionsv3.xsd http://www.garmin.com/xmlschemas/ActivityExtension/v1 http://www8.garmin.com/xmlschemas/ActivityExtensionv1.xsd http://www.garmin.com/xmlschemas/AdventuresExtensions/v1 http://www8.garmin.com/xmlschemas/AdventuresExtensionv1.xsd http://www.garmin.com/xmlschemas/PressureExtension/v1 http://www.garmin.com/xmlschemas/PressureExtensionv1.xsd http://www.garmin.com/xmlschemas/TripExtensions/v1 http://www.garmin.com/xmlschemas/TripExtensionsv1.xsd http://www.garmin.com/xmlschemas/TripMetaDataExtensions/v1 http://www.garmin.com/xmlschemas/TripMetaDataExtensionsv1.xsd http://www.garmin.com/xmlschemas/ViaPointTransportationModeExtensions/v1 http://www.garmin.com/xmlschemas/ViaPointTransportationModeExtensionsv1.xsd http://www.garmin.com/xmlschemas/CreationTimeExtension/v1 http://www.garmin.com/xmlschemas/CreationTimeExtensionsv1.xsd http://www.garmin.com/xmlschemas/AccelerationExtension/v1 http://www.garmin.com/xmlschemas/AccelerationExtensionv1.xsd http://www.garmin.com/xmlschemas/PowerExtension/v1 http://www.garmin.com/xmlschemas/PowerExtensionv1.xsd http://www.garmin.com/xmlschemas/VideoExtension/v1 http://www.garmin.com/xmlschemas/VideoExtensionv1.xsd" xmlns="http://www.topografix.com/GPX/1/1" xmlns:xsi="http://www.w3.org/2001/XMLSchema-instance" xmlns:wptx1="http://www.garmin.com/xmlschemas/WaypointExtension/v1" xmlns:gpxtrx="http://www.garmin.com/xmlschemas/GpxExtensions/v3" xmlns:gpxtpx="http://www.garmin.com/xmlschemas/TrackPointExtension/v1" xmlns:gpxx="http://www.garmin.com/xmlschemas/GpxExtensions/v3" xmlns:trp="http://www.garmin.com/xmlschemas/TripExtensions/v1" xmlns:adv="http://www.garmin.com/xmlschemas/AdventuresExtensions/v1" xmlns:prs="http://www.garmin.com/xmlschemas/PressureExtension/v1" xmlns:tmd="http://www.garmin.com/xmlschemas/TripMetaDataExtensions/v1" xmlns:vptm="http://www.garmin.com/xmlschemas/ViaPointTransportationModeExtensions/v1" xmlns:ctx="http://www.garmin.com/xmlschemas/CreationTimeExtension/v1" xmlns:gpxacc="http://www.garmin.com/xmlschemas/AccelerationExtension/v1" xmlns:gpxpx="http://www.garmin.com/xmlschemas/PowerExtension/v1" xmlns:vidx1="http://www.garmin.com/xmlschemas/VideoExtension/v1">

  <metadata>
    <link href="http://www.garmin.com">
      <text>Garmin International</text>
    </link>
    <time>2023-08-15T22:11:44Z</time>
    <bounds maxlat="52.235493008047342" maxlon="8.482563039287925" minlat="49.923412995412946" minlon="-0.033410014584661" />
  </metadata>

  <trk>
    <name>Track vom: 2023-08-11 20:35</name>
    <extensions>
      <gpxx:TrackExtension>
        <gpxx:DisplayColor>DarkGray</gpxx:DisplayColor>
      </gpxx:TrackExtension>
    </extensions>
    <trkseg>
      <trkpt lat="50.068202996626496" lon="8.478135969489813">
        <ele>143.84999999999999</ele>
        <time>2023-08-11T19:35:48Z</time>
      </trkpt>
      <trkpt lat="50.067914994433522" lon="8.478536959737539">
        <ele>107.31999999999999</ele>
        <time>2023-08-11T19:36:26Z</time>
      </trkpt>
      <trkpt lat="50.068537015467882" lon="8.478423971682787">
        <ele>140.00999999999999</ele>
        <time>2023-08-11T19:37:00Z</time>
      </trkpt>
      <trkpt lat="50.068542966619134" lon="8.478448027744889">
        <ele>138.56999999999999</ele>
        <time>2023-08-11T19:37:06Z</time>
      </trkpt>
      <trkpt lat="50.068397959694266" lon="8.478283993899822">
        <ele>137.13</ele>
        <time>2023-08-11T19:37:08Z</time>
      </trkpt>
      <trkpt lat="50.068645980209112" lon="8.478483986109495">
        <ele>136.63999999999999</ele>
        <time>2023-08-11T19:37:09Z</time>
      </trkpt>
      <trkpt lat="50.068668024614453" lon="8.478698981925845">
        <ele>135.68000000000001</ele>
        <time>2023-08-11T19:37:10Z</time>
      </trkpt>
      <trkpt lat="50.068315984681249" lon="8.478415003046393">
        <ele>134.72</ele>
        <time>2023-08-11T19:37:11Z</time>
      </trkpt>
      <trkpt lat="50.068277008831501" lon="8.478479040786624">
        <ele>134.24000000000001</ele>
        <time>2023-08-11T19:37:12Z</time>
      </trkpt>
      <trkpt lat="50.068228980526328" lon="8.478823034092784">
        <ele>129.43000000000001</ele>
        <time>2023-08-11T19:37:18Z</time>
      </trkpt>
      <trkpt lat="50.068247001618147" lon="8.478856980800629">
        <ele>128.94999999999999</ele>
        <time>2023-08-11T19:37:19Z</time>
      </trkpt>
      <trkpt lat="50.068277008831501" lon="8.478911966085434">
        <ele>128.47</ele>
        <time>2023-08-11T19:37:20Z</time>
      </trkpt>
      <trkpt lat="50.068311961367726" lon="8.478980027139187">
        <ele>127.51000000000001</ele>
        <time>2023-08-11T19:37:21Z</time>
      </trkpt>
      <trkpt lat="50.068350015208125" lon="8.47905202768743">
        <ele>127.03</ele>
        <time>2023-08-11T19:37:22Z</time>
      </trkpt>
      <trkpt lat="50.068464009091258" lon="8.479268029332161">
        <ele>126.06999999999999</ele>
        <time>2023-08-11T19:37:25Z</time>
      </trkpt>
      <trkpt lat="50.068641034886241" lon="8.479615962132812">
        <ele>124.63</ele>
        <time>2023-08-11T19:37:30Z</time>
      </trkpt>
      <trkpt lat="50.06874899379909" lon="8.479841016232967">
        <ele>123.67</ele>
        <time>2023-08-11T19:37:33Z</time>
      </trkpt>
      <trkpt lat="50.068781012669206" lon="8.479906981810927">
        <ele>123.67</ele>
        <time>2023-08-11T19:37:34Z</time>
      </trkpt>
      <trkpt lat="50.068873967975378" lon="8.480096999555826">
        <ele>123.67</ele>
        <time>2023-08-11T19:37:37Z</time>
      </trkpt>
      <trkpt lat="50.068911015987396" lon="8.480166988447309">
        <ele>123.19</ele>
        <time>2023-08-11T19:37:38Z</time>
      </trkpt>
      <trkpt lat="50.069366991519928" lon="8.481075000017881">
        <ele>120.3</ele>
        <time>2023-08-11T19:37:49Z</time>
      </trkpt>
      <trkpt lat="50.069839982315898" lon="8.482045959681273">
        <ele>115.01000000000001</ele>
        <time>2023-08-11T19:38:01Z</time>
      </trkpt>
      <trkpt lat="50.069981971755624" lon="8.482302026823163">
        <ele>111.17</ele>
        <time>2023-08-11T19:38:10Z</time>
      </trkpt>
      <trkpt lat="50.070085991173983" lon="8.482491038739681">
        <ele>111.17</ele>
        <time>2023-08-11T19:38:29Z</time>
      </trkpt>
      <trkpt lat="50.07012496702373" lon="8.482563039287925">
        <ele>111.17</ele>
        <time>2023-08-11T19:38:30Z</time>
      </trkpt>
      <trkpt lat="50.070194033905864" lon="8.482528002932668">
        <ele>111.17</ele>
        <time>2023-08-11T19:38:31Z</time>
      </trkpt>
      <trkpt lat="50.070233009755611" lon="8.482462959364057">
        <ele>110.69</ele>
        <time>2023-08-11T19:38:32Z</time>
      </trkpt>
      <trkpt lat="50.070280032232404" lon="8.482384001836181">
        <ele>110.20999999999999</ele>
        <time>2023-08-11T19:38:33Z</time>
      </trkpt>
      <trkpt lat="50.070332000032067" lon="8.482298003509641">
        <ele>109.73</ele>
        <time>2023-08-11T19:38:34Z</time>
      </trkpt>
      <trkpt lat="50.070385979488492" lon="8.482204964384437">
        <ele>109.25</ele>
        <time>2023-08-11T19:38:35Z</time>
      </trkpt>
      <trkpt lat="50.07098201662302" lon="8.481067037209868">
        <ele>108.77</ele>
        <time>2023-08-11T19:38:48Z</time>
      </trkpt>
      <trkpt lat="50.071161976084113" lon="8.480714997276664">
        <ele>108.77</ele>
        <time>2023-08-11T19:38:52Z</time>
      </trkpt>
      <trkpt lat="50.071215033531189" lon="8.480611983686686">
        <ele>108.77</ele>
        <time>2023-08-11T19:38:53Z</time>
      </trkpt>
      <trkpt lat="50.071265995502472" lon="8.48051299341023">
        <ele>108.77</ele>
        <time>2023-08-11T19:38:54Z</time>
      </trkpt>
      <trkpt lat="50.071313017979264" lon="8.480420038104057">
        <ele>108.77</ele>
        <time>2023-08-11T19:38:55Z</time>
      </trkpt>
      <trkpt lat="50.071359034627676" lon="8.480330016463995">
        <ele>108.77</ele>
        <time>2023-08-11T19:38:56Z</time>
      </trkpt>
      <trkpt lat="50.071937972679734" lon="8.479206003248692">
        <ele>112.61</ele>
        <time>2023-08-11T19:39:09Z</time>
      </trkpt>
      <trkpt lat="50.072326976805925" lon="8.478478034958243">
        <ele>115.01000000000001</ele>
        <time>2023-08-11T19:39:21Z</time>
      </trkpt>
      <trkpt lat="50.072353966534138" lon="8.478427994996309">
        <ele>115.98</ele>
        <time>2023-08-11T19:39:24Z</time>
      </trkpt>
      <trkpt lat="50.072366036474705" lon="8.478401005268097">
        <ele>116.45999999999999</ele>
        <time>2023-08-11T19:39:25Z</time>
      </trkpt>
      <trkpt lat="50.072297975420952" lon="8.478339985013008">
        <ele>116.45999999999999</ele>
        <time>2023-08-11T19:39:26Z</time>
      </trkpt>
      <trkpt lat="50.072267968207598" lon="8.47830000333488">
        <ele>116.45999999999999</ele>
        <time>2023-08-11T19:39:27Z</time>
      </trkpt>
      <trkpt lat="50.072227986529469" lon="8.478246023878455">
        <ele>116.45999999999999</ele>
        <time>2023-08-11T19:39:28Z</time>
      </trkpt>
      <trkpt lat="50.072165038436651" lon="8.478162037208676">
        <ele>115.98</ele>
        <time>2023-08-11T19:39:29Z</time>
      </trkpt>
      <trkpt lat="50.07186496630311" lon="8.477798011153936">
        <ele>114.53</ele>
        <time>2023-08-11T19:39:35Z</time>
      </trkpt>
      <trkpt lat="50.071769999340177" lon="8.477630959823728">
        <ele>114.05</ele>
        <time>2023-08-11T19:39:37Z</time>
      </trkpt>
      <trkpt lat="50.071637984365225" lon="8.477395009249449">
        <ele>113.09</ele>
        <time>2023-08-11T19:39:40Z</time>
      </trkpt>
      <trkpt lat="50.071484008803964" lon="8.477123016491532">
        <ele>112.13</ele>
        <time>2023-08-11T19:39:44Z</time>
      </trkpt>
      <trkpt lat="50.071463976055384" lon="8.477086974307895">
        <ele>112.13</ele>
        <time>2023-08-11T19:39:45Z</time>
      </trkpt>
      <trkpt lat="50.071392981335521" lon="8.476960994303227">
        <ele>111.65000000000001</ele>
        <time>2023-08-11T19:39:46Z</time>
      </trkpt>
      <trkpt lat="50.071392981335521" lon="8.476960994303227">
        <ele>111.17</ele>
        <time>2023-08-11T19:39:47Z</time>
      </trkpt>
      <trkpt lat="50.071505969390273" lon="8.47716199234128">
        <ele>110.20999999999999</ele>
        <time>2023-08-11T19:39:50Z</time>
      </trkpt>
      <trkpt lat="50.071537988260388" lon="8.477218989282847">
        <ele>109.73</ele>
        <time>2023-08-11T19:39:51Z</time>
      </trkpt>
      <trkpt lat="50.071575958281755" lon="8.477285960689187">
        <ele>109.25</ele>
        <time>2023-08-11T19:39:52Z</time>
      </trkpt>
      <trkpt lat="50.071753989905119" lon="8.477601958438754">
        <ele>106.84</ele>
        <time>2023-08-11T19:40:00Z</time>
      </trkpt>
      <trkpt lat="50.071766981855035" lon="8.477625008672476">
        <ele>105.40000000000001</ele>
        <time>2023-08-11T19:40:15Z</time>
      </trkpt>
    </trkseg>
  </trk>

  <trk>
    <name>Track vom: 2023-08-15 06:12</name>
    <extensions>
      <gpxx:TrackExtension>
        <gpxx:DisplayColor>DarkGray</gpxx:DisplayColor>
      </gpxx:TrackExtension>
    </extensions>
    <trkseg>
      <trkpt lat="50.068323025479913" lon="8.478088025003672">
        <ele>117.42</ele>
        <time>2023-08-15T05:12:51Z</time>
      </trkpt>
      <trkpt lat="50.068385973572731" lon="8.478304026648402">
        <ele>118.86</ele>
        <time>2023-08-15T05:12:58Z</time>
      </trkpt>
      <trkpt lat="50.06836200132966" lon="8.478341996669769">
        <ele>117.90000000000001</ele>
        <time>2023-08-15T05:12:59Z</time>
      </trkpt>
      <trkpt lat="50.068329982459545" lon="8.478392958641052">
        <ele>117.42</ele>
        <time>2023-08-15T05:13:00Z</time>
      </trkpt>
      <trkpt lat="50.06829796358943" lon="8.478444004431367">
        <ele>116.94</ele>
        <time>2023-08-15T05:13:01Z</time>
      </trkpt>
      <trkpt lat="50.068268040195107" lon="8.47849303856492">
        <ele>116.94</ele>
        <time>2023-08-15T05:13:02Z</time>
      </trkpt>
      <trkpt lat="50.068242978304625" lon="8.478532014414668">
        <ele>116.45999999999999</ele>
        <time>2023-08-15T05:13:03Z</time>
      </trkpt>
      <trkpt lat="50.068153040483594" lon="8.478677021339536">
        <ele>115.98</ele>
        <time>2023-08-15T05:13:04Z</time>
      </trkpt>
      <trkpt lat="50.068206014111638" lon="8.478592028841376">
        <ele>115.5</ele>
        <time>2023-08-15T05:13:05Z</time>
      </trkpt>
      <trkpt lat="50.068128984421492" lon="8.478619018569589">
        <ele>115.01000000000001</ele>
        <time>2023-08-15T05:13:06Z</time>
      </trkpt>
      <trkpt lat="50.068107023835182" lon="8.478565961122513">
        <ele>114.53</ele>
        <time>2023-08-15T05:13:07Z</time>
      </trkpt>
      <trkpt lat="50.068078022450209" lon="8.478493960574269">
        <ele>113.56999999999999</ele>
        <time>2023-08-15T05:13:08Z</time>
      </trkpt>
      <trkpt lat="50.068041980266571" lon="8.47840603441">
        <ele>112.13</ele>
        <time>2023-08-15T05:13:09Z</time>
      </trkpt>
      <trkpt lat="50.06799797527492" lon="8.47830000333488">
        <ele>111.65000000000001</ele>
        <time>2023-08-15T05:13:10Z</time>
      </trkpt>
      <trkpt lat="50.067434040829539" lon="8.47690399736166">
        <ele>102.52</ele>
        <time>2023-08-15T05:13:20Z</time>
      </trkpt>
      <trkpt lat="50.067103961482644" lon="8.476154990494251">
        <ele>101.08</ele>
        <time>2023-08-15T05:13:25Z</time>
      </trkpt>
      <trkpt lat="50.067035984247923" lon="8.47602004185319">
        <ele>100.59999999999999</ele>
        <time>2023-08-15T05:13:26Z</time>
      </trkpt>
      <trkpt lat="50.066681010648608" lon="8.475396009162068">
        <ele>100.11</ele>
        <time>2023-08-15T05:13:31Z</time>
      </trkpt>
      <trkpt lat="50.066522005945444" lon="8.474857974797487">
        <ele>99.629999999999995</ele>
        <time>2023-08-15T05:13:35Z</time>
      </trkpt>
      <trkpt lat="50.066378004848957" lon="8.474768958985806">
        <ele>99.629999999999995</ele>
        <time>2023-08-15T05:13:36Z</time>
      </trkpt>
      <trkpt lat="50.066341962665319" lon="8.474618000909686">
        <ele>99.150000000000006</ele>
        <time>2023-08-15T05:13:37Z</time>
      </trkpt>
      <trkpt lat="50.066287983208895" lon="8.47445203922689">
        <ele>99.629999999999995</ele>
        <time>2023-08-15T05:13:38Z</time>
      </trkpt>
      <trkpt lat="50.066230986267328" lon="8.474275013431907">
        <ele>99.150000000000006</ele>
        <time>2023-08-15T05:13:39Z</time>
      </trkpt>
      <trkpt lat="50.065579963847995" lon="8.472123965620995">
        <ele>98.189999999999998</ele>
        <time>2023-08-15T05:13:50Z</time>
      </trkpt>
      <trkpt lat="50.06535298191011" lon="8.471247972920537">
        <ele>99.150000000000006</ele>
        <time>2023-08-15T05:13:57Z</time>
      </trkpt>
      <trkpt lat="50.065099010244012" lon="8.470262009650469">
        <ele>99.629999999999995</ele>
        <time>2023-08-15T05:14:04Z</time>
      </trkpt>
      <trkpt lat="50.064779995009303" lon="8.4691690094769">
        <ele>100.59999999999999</ele>
        <time>2023-08-15T05:14:09Z</time>
      </trkpt>
      <trkpt lat="50.064701959490776" lon="8.468925012275577">
        <ele>100.59999999999999</ele>
        <time>2023-08-15T05:14:10Z</time>
      </trkpt>
      <trkpt lat="50.063963010907173" lon="8.466873038560152">
        <ele>101.08</ele>
        <time>2023-08-15T05:14:18Z</time>
      </trkpt>
      <trkpt lat="50.06249500438571" lon="8.462745035067201">
        <ele>106.36</ele>
        <time>2023-08-15T05:14:33Z</time>
      </trkpt>
      <trkpt lat="50.06107896566391" lon="8.458356019109488">
        <ele>111.65000000000001</ele>
        <time>2023-08-15T05:14:48Z</time>
      </trkpt>
      <trkpt lat="50.060296012088656" lon="8.456210000440478">
        <ele>114.05</ele>
        <time>2023-08-15T05:14:56Z</time>
      </trkpt>
      <trkpt lat="50.05929303355515" lon="8.454381991177797">
        <ele>115.01000000000001</ele>
        <time>2023-08-15T05:15:05Z</time>
      </trkpt>
      <trkpt lat="50.057741040363908" lon="8.452580971643329">
        <ele>113.56999999999999</ele>
        <time>2023-08-15T05:15:16Z</time>
      </trkpt>
      <trkpt lat="50.056508984416723" lon="8.45069102011621">
        <ele>112.61</ele>
        <time>2023-08-15T05:15:27Z</time>
      </trkpt>
      <trkpt lat="50.05551103502512" lon="8.448178041726351">
        <ele>115.01000000000001</ele>
        <time>2023-08-15T05:15:39Z</time>
      </trkpt>
      <trkpt lat="50.054390961304307" lon="8.446204019710422">
        <ele>117.42</ele>
        <time>2023-08-15T05:15:49Z</time>
      </trkpt>
      <trkpt lat="50.053301984444261" lon="8.444498972967267">
        <ele>116.94</ele>
        <time>2023-08-15T05:15:58Z</time>
      </trkpt>
      <trkpt lat="50.051977979019284" lon="8.44280599616468">
        <ele>117.42</ele>
        <time>2023-08-15T05:16:08Z</time>
      </trkpt>
      <trkpt lat="50.04994997754693" lon="8.440299974754453">
        <ele>115.01000000000001</ele>
        <time>2023-08-15T05:16:23Z</time>
      </trkpt>
      <trkpt lat="50.048262029886246" lon="8.438366018235683">
        <ele>116.45999999999999</ele>
        <time>2023-08-15T05:16:36Z</time>
      </trkpt>
      <trkpt lat="50.047414032742381" lon="8.437510980293155">
        <ele>116.45999999999999</ele>
        <time>2023-08-15T05:16:45Z</time>
      </trkpt>
      <trkpt lat="50.046606017276645" lon="8.436720985919237">
        <ele>114.05</ele>
        <time>2023-08-15T05:16:56Z</time>
      </trkpt>
      <trkpt lat="50.046348022297025" lon="8.436451004818082">
        <ele>113.56999999999999</ele>
        <time>2023-08-15T05:17:00Z</time>
      </trkpt>
      <trkpt lat="50.046017020940781" lon="8.436069963499904">
        <ele>112.13</ele>
        <time>2023-08-15T05:17:08Z</time>
      </trkpt>
      <trkpt lat="50.046017020940781" lon="8.436069963499904">
        <ele>111.65000000000001</ele>
        <time>2023-08-15T05:17:21Z</time>
      </trkpt>
      <trkpt lat="50.045993970707059" lon="8.436042973771691">
        <ele>111.65000000000001</ele>
        <time>2023-08-15T05:17:27Z</time>
      </trkpt>
      <trkpt lat="50.045965975150466" lon="8.436010032892227">
        <ele>112.61</ele>
        <time>2023-08-15T05:17:28Z</time>
      </trkpt>
      <trkpt lat="50.045562973245978" lon="8.43554500490427">
        <ele>113.56999999999999</ele>
        <time>2023-08-15T05:17:35Z</time>
      </trkpt>
      <trkpt lat="50.045100962743163" lon="8.434966988861561">
        <ele>112.13</ele>
        <time>2023-08-15T05:17:42Z</time>
      </trkpt>
      <trkpt lat="50.044611040502787" lon="8.434283025562763">
        <ele>111.65000000000001</ele>
        <time>2023-08-15T05:17:51Z</time>
      </trkpt>
      <trkpt lat="50.044498974457383" lon="8.434141958132386">
        <ele>111.65000000000001</ele>
        <time>2023-08-15T05:17:53Z</time>
      </trkpt>
      <trkpt lat="50.044443989172578" lon="8.434059983119369">
        <ele>111.65000000000001</ele>
        <time>2023-08-15T05:17:54Z</time>
      </trkpt>
      <trkpt lat="50.044335024431348" lon="8.433895027264953">
        <ele>111.17</ele>
        <time>2023-08-15T05:17:55Z</time>
      </trkpt>
      <trkpt lat="50.044331001117826" lon="8.433888992294669">
        <ele>111.17</ele>
        <time>2023-08-15T05:17:56Z</time>
      </trkpt>
      <trkpt lat="50.044280961155891" lon="8.433806011453271">
        <ele>111.17</ele>
        <time>2023-08-15T05:17:57Z</time>
      </trkpt>
      <trkpt lat="50.044173002243042" lon="8.433669973164797">
        <ele>110.69</ele>
        <time>2023-08-15T05:17:59Z</time>
      </trkpt>
      <trkpt lat="50.044114999473095" lon="8.433600990101695">
        <ele>110.69</ele>
        <time>2023-08-15T05:18:00Z</time>
      </trkpt>
      <trkpt lat="50.043783998116851" lon="8.433201005682349">
        <ele>111.17</ele>
        <time>2023-08-15T05:18:06Z</time>
      </trkpt>
      <trkpt lat="50.043733036145568" lon="8.433133028447628">
        <ele>111.65000000000001</ele>
        <time>2023-08-15T05:18:07Z</time>
      </trkpt>
      <trkpt lat="50.043638991191983" lon="8.432991961017251">
        <ele>112.61</ele>
        <time>2023-08-15T05:18:09Z</time>
      </trkpt>
      <trkpt lat="50.043084025382996" lon="8.432114962488413">
        <ele>116.94</ele>
        <time>2023-08-15T05:18:18Z</time>
      </trkpt>
      <trkpt lat="50.043037002906203" lon="8.431970961391926">
        <ele>116.94</ele>
        <time>2023-08-15T05:18:19Z</time>
      </trkpt>
      <trkpt lat="50.042989980429411" lon="8.431825032457709">
        <ele>117.42</ele>
        <time>2023-08-15T05:18:20Z</time>
      </trkpt>
      <trkpt lat="50.042477007955313" lon="8.430233979597688">
        <ele>120.3</ele>
        <time>2023-08-15T05:18:30Z</time>
      </trkpt>
      <trkpt lat="50.042267963290215" lon="8.429582035169005">
        <ele>121.73999999999999</ele>
        <time>2023-08-15T05:18:34Z</time>
      </trkpt>
      <trkpt lat="50.042215995490551" lon="8.429423030465841">
        <ele>121.73999999999999</ele>
        <time>2023-08-15T05:18:35Z</time>
      </trkpt>
      <trkpt lat="50.041909972205758" lon="8.428423991426826">
        <ele>122.70999999999999</ele>
        <time>2023-08-15T05:18:40Z</time>
      </trkpt>
      <trkpt lat="50.04186999052763" lon="8.42830304056406">
        <ele>122.22</ele>
        <time>2023-08-15T05:18:41Z</time>
      </trkpt>
      <trkpt lat="50.041780974715948" lon="8.428036998957396">
        <ele>122.22</ele>
        <time>2023-08-15T05:18:42Z</time>
      </trkpt>
      <trkpt lat="50.041749961674213" lon="8.427945971488953">
        <ele>122.22</ele>
        <time>2023-08-15T05:18:43Z</time>
      </trkpt>
      <trkpt lat="50.04167896695435" lon="8.427739022299647">
        <ele>121.73999999999999</ele>
        <time>2023-08-15T05:18:44Z</time>
      </trkpt>
      <trkpt lat="50.041601015254855" lon="8.427507011219859">
        <ele>121.73999999999999</ele>
        <time>2023-08-15T05:18:45Z</time>
      </trkpt>
      <trkpt lat="50.041515016928315" lon="8.427254967391491">
        <ele>121.73999999999999</ele>
        <time>2023-08-15T05:18:46Z</time>
      </trkpt>
      <trkpt lat="50.040757041424513" lon="8.425589986145496">
        <ele>120.3</ele>
        <time>2023-08-15T05:18:53Z</time>
      </trkpt>
      <trkpt lat="50.039434041827917" lon="8.423668015748262">
        <ele>119.81999999999999</ele>
        <time>2023-08-15T05:19:01Z</time>
      </trkpt>
      <trkpt lat="50.03795899450779" lon="8.421618975698948">
        <ele>121.73999999999999</ele>
        <time>2023-08-15T05:19:10Z</time>
      </trkpt>
      <trkpt lat="50.036174990236759" lon="8.419276988133788">
        <ele>129.91999999999999</ele>
        <time>2023-08-15T05:19:20Z</time>
      </trkpt>
      <trkpt lat="50.034228963777423" lon="8.415828002616763">
        <ele>136.63999999999999</ele>
        <time>2023-08-15T05:19:33Z</time>
      </trkpt>
      <trkpt lat="50.032746037468314" lon="8.413196001201868">
        <ele>141.44999999999999</ele>
        <time>2023-08-15T05:19:44Z</time>
      </trkpt>
      <trkpt lat="50.031807012856007" lon="8.411519033834338">
        <ele>143.84999999999999</ele>
        <time>2023-08-15T05:19:53Z</time>
      </trkpt>
      <trkpt lat="50.031160013750196" lon="8.410335006192327">
        <ele>145.78</ele>
        <time>2023-08-15T05:20:02Z</time>
      </trkpt>
      <trkpt lat="50.030748965218663" lon="8.409593962132931">
        <ele>145.30000000000001</ele>
        <time>2023-08-15T05:20:12Z</time>
      </trkpt>
      <trkpt lat="50.030628014355898" lon="8.409379972144961">
        <ele>144.34</ele>
        <time>2023-08-15T05:20:20Z</time>
      </trkpt>
      <trkpt lat="50.030489964410663" lon="8.40913999825716">
        <ele>145.30000000000001</ele>
        <time>2023-08-15T05:20:38Z</time>
      </trkpt>
      <trkpt lat="50.030241021886468" lon="8.408716963604093">
        <ele>144.34</ele>
        <time>2023-08-15T05:20:42Z</time>
      </trkpt>
      <trkpt lat="50.029785968363285" lon="8.407996036112309">
        <ele>142.41</ele>
        <time>2023-08-15T05:20:48Z</time>
      </trkpt>
      <trkpt lat="50.029704999178648" lon="8.407888999208808">
        <ele>141.93000000000001</ele>
        <time>2023-08-15T05:20:49Z</time>
      </trkpt>
      <trkpt lat="50.029621012508869" lon="8.407778022810817">
        <ele>141.44999999999999</ele>
        <time>2023-08-15T05:20:50Z</time>
      </trkpt>
      <trkpt lat="50.029371986165643" lon="8.407449033111334">
        <ele>140.49000000000001</ele>
        <time>2023-08-15T05:20:53Z</time>
      </trkpt>
      <trkpt lat="50.029287999495864" lon="8.407337972894311">
        <ele>140.49000000000001</ele>
        <time>2023-08-15T05:20:54Z</time>
      </trkpt>
      <trkpt lat="50.029062023386359" lon="8.407085007056594">
        <ele>140.00999999999999</ele>
        <time>2023-08-15T05:20:57Z</time>
      </trkpt>
      <trkpt lat="50.029006032273173" lon="8.407024992629886">
        <ele>139.53</ele>
        <time>2023-08-15T05:20:58Z</time>
      </trkpt>
      <trkpt lat="50.02893503755331" lon="8.406942011788487">
        <ele>138.56999999999999</ele>
        <time>2023-08-15T05:21:04Z</time>
      </trkpt>
      <trkpt lat="50.028884997591376" lon="8.406879985705018">
        <ele>138.56999999999999</ele>
        <time>2023-08-15T05:21:07Z</time>
      </trkpt>
      <trkpt lat="50.028845015913248" lon="8.406633976846933">
        <ele>138.56999999999999</ele>
        <time>2023-08-15T05:21:09Z</time>
      </trkpt>
      <trkpt lat="50.028820959851146" lon="8.406601035967469">
        <ele>138.56999999999999</ele>
        <time>2023-08-15T05:21:10Z</time>
      </trkpt>
      <trkpt lat="50.028713000938296" lon="8.406661972403526">
        <ele>138.56999999999999</ele>
        <time>2023-08-15T05:21:11Z</time>
      </trkpt>
      <trkpt lat="50.02857101149857" lon="8.406627019867301">
        <ele>138.09</ele>
        <time>2023-08-15T05:21:13Z</time>
      </trkpt>
      <trkpt lat="50.028376970440149" lon="8.406472960487008">
        <ele>137.61000000000001</ele>
        <time>2023-08-15T05:21:16Z</time>
      </trkpt>
      <trkpt lat="50.027639027684927" lon="8.40593702159822">
        <ele>138.56999999999999</ele>
        <time>2023-08-15T05:21:26Z</time>
      </trkpt>
      <trkpt lat="50.027513969689608" lon="8.405842976644635">
        <ele>139.05000000000001</ele>
        <time>2023-08-15T05:21:28Z</time>
      </trkpt>
      <trkpt lat="50.02745496109128" lon="8.405796037986875">
        <ele>139.05000000000001</ele>
        <time>2023-08-15T05:21:29Z</time>
      </trkpt>
      <trkpt lat="50.027269972488284" lon="8.405648013576865">
        <ele>139.53</ele>
        <time>2023-08-15T05:21:32Z</time>
      </trkpt>
      <trkpt lat="50.027203001081944" lon="8.405591016635299">
        <ele>140.00999999999999</ele>
        <time>2023-08-15T05:21:33Z</time>
      </trkpt>
      <trkpt lat="50.02700200304389" lon="8.405426982790232">
        <ele>140.49000000000001</ele>
        <time>2023-08-15T05:21:36Z</time>
      </trkpt>
      <trkpt lat="50.026936959475279" lon="8.405377026647329">
        <ele>140.97</ele>
        <time>2023-08-15T05:21:37Z</time>
      </trkpt>
      <trkpt lat="50.026812991127372" lon="8.405216010287404">
        <ele>141.44999999999999</ele>
        <time>2023-08-15T05:21:39Z</time>
      </trkpt>
      <trkpt lat="50.026709977537394" lon="8.405033033341169">
        <ele>142.41</ele>
        <time>2023-08-15T05:21:41Z</time>
      </trkpt>
      <trkpt lat="50.026663960888982" lon="8.404934965074062">
        <ele>142.41</ele>
        <time>2023-08-15T05:21:42Z</time>
      </trkpt>
      <trkpt lat="50.026609981432557" lon="8.404819965362549">
        <ele>142.41</ele>
        <time>2023-08-15T05:21:43Z</time>
      </trkpt>
      <trkpt lat="50.026549967005849" lon="8.404617961496115">
        <ele>142.88999999999999</ele>
        <time>2023-08-15T05:21:45Z</time>
      </trkpt>
      <trkpt lat="50.026517026126385" lon="8.404510002583265">
        <ele>143.37</ele>
        <time>2023-08-15T05:21:46Z</time>
      </trkpt>
      <trkpt lat="50.026403032243252" lon="8.404076993465424">
        <ele>144.34</ele>
        <time>2023-08-15T05:21:50Z</time>
      </trkpt>
      <trkpt lat="50.026386016979814" lon="8.403953025117517">
        <ele>144.81999999999999</ele>
        <time>2023-08-15T05:21:51Z</time>
      </trkpt>
      <trkpt lat="50.026370007544756" lon="8.403823021799326">
        <ele>144.81999999999999</ele>
        <time>2023-08-15T05:21:52Z</time>
      </trkpt>
      <trkpt lat="50.026359027251601" lon="8.403684971854091">
        <ele>145.78</ele>
        <time>2023-08-15T05:21:53Z</time>
      </trkpt>
      <trkpt lat="50.026352992281318" lon="8.403528984636068">
        <ele>146.25999999999999</ele>
        <time>2023-08-15T05:21:54Z</time>
      </trkpt>
      <trkpt lat="50.026416024193168" lon="8.402626002207398">
        <ele>145.30000000000001</ele>
        <time>2023-08-15T05:21:59Z</time>
      </trkpt>
      <trkpt lat="50.026532029733062" lon="8.402282008901238">
        <ele>144.34</ele>
        <time>2023-08-15T05:22:01Z</time>
      </trkpt>
      <trkpt lat="50.026611993089318" lon="8.402148988097906">
        <ele>143.84999999999999</ele>
        <time>2023-08-15T05:22:02Z</time>
      </trkpt>
      <trkpt lat="50.026696985587478" lon="8.402008004486561">
        <ele>143.37</ele>
        <time>2023-08-15T05:22:03Z</time>
      </trkpt>
      <trkpt lat="50.027321018278599" lon="8.400791035965085">
        <ele>136.16</ele>
        <time>2023-08-15T05:22:11Z</time>
      </trkpt>
      <trkpt lat="50.02736896276474" lon="8.400618033483625">
        <ele>134.72</ele>
        <time>2023-08-15T05:22:12Z</time>
      </trkpt>
      <trkpt lat="50.027407016605139" lon="8.400432039052248">
        <ele>133.28</ele>
        <time>2023-08-15T05:22:13Z</time>
      </trkpt>
      <trkpt lat="50.027443980798125" lon="8.40024696663022">
        <ele>131.84</ele>
        <time>2023-08-15T05:22:14Z</time>
      </trkpt>
      <trkpt lat="50.027468958869576" lon="8.400058960542083">
        <ele>130.40000000000001</ele>
        <time>2023-08-15T05:22:15Z</time>
      </trkpt>
      <trkpt lat="50.027468958869576" lon="8.399871038272977">
        <ele>129.43000000000001</ele>
        <time>2023-08-15T05:22:16Z</time>
      </trkpt>
      <trkpt lat="50.027468958869576" lon="8.399692000821233">
        <ele>128.47</ele>
        <time>2023-08-15T05:22:17Z</time>
      </trkpt>
      <trkpt lat="50.027422020211816" lon="8.39951204136014">
        <ele>127.03</ele>
        <time>2023-08-15T05:22:18Z</time>
      </trkpt>
      <trkpt lat="50.027377009391785" lon="8.399334009736776">
        <ele>126.06999999999999</ele>
        <time>2023-08-15T05:22:19Z</time>
      </trkpt>
      <trkpt lat="50.027330992743373" lon="8.399156983941793">
        <ele>124.63</ele>
        <time>2023-08-15T05:22:20Z</time>
      </trkpt>
      <trkpt lat="50.026681981980801" lon="8.397312965244055">
        <ele>114.05</ele>
        <time>2023-08-15T05:22:30Z</time>
      </trkpt>
      <trkpt lat="50.026223994791508" lon="8.395626023411751">
        <ele>112.61</ele>
        <time>2023-08-15T05:22:38Z</time>
      </trkpt>
      <trkpt lat="50.025744969025254" lon="8.393829027190805">
        <ele>114.05</ele>
        <time>2023-08-15T05:22:46Z</time>
      </trkpt>
      <trkpt lat="50.024820026010275" lon="8.391466001048684">
        <ele>117.42</ele>
        <time>2023-08-15T05:22:56Z</time>
      </trkpt>
      <trkpt lat="50.023647984489799" lon="8.388477014377713">
        <ele>124.15000000000001</ele>
        <time>2023-08-15T05:23:08Z</time>
      </trkpt>
      <trkpt lat="50.022976007312536" lon="8.385831015184522">
        <ele>127.51000000000001</ele>
        <time>2023-08-15T05:23:18Z</time>
      </trkpt>
      <trkpt lat="50.022180983796716" lon="8.383177975192666">
        <ele>127.98999999999999</ele>
        <time>2023-08-15T05:23:28Z</time>
      </trkpt>
      <trkpt lat="50.02197596244514" lon="8.381363963708282">
        <ele>129.43000000000001</ele>
        <time>2023-08-15T05:23:35Z</time>
      </trkpt>
      <trkpt lat="50.022110994905233" lon="8.378476984798908">
        <ele>132.31999999999999</ele>
        <time>2023-08-15T05:23:47Z</time>
      </trkpt>
      <trkpt lat="50.022258013486862" lon="8.376098033040762">
        <ele>132.31999999999999</ele>
        <time>2023-08-15T05:23:56Z</time>
      </trkpt>
      <trkpt lat="50.022427998483181" lon="8.373563010245562">
        <ele>132.80000000000001</ele>
        <time>2023-08-15T05:24:04Z</time>
      </trkpt>
      <trkpt lat="50.022613992914557" lon="8.371168971061707">
        <ele>133.75999999999999</ele>
        <time>2023-08-15T05:24:12Z</time>
      </trkpt>
      <trkpt lat="50.022906018421054" lon="8.368615005165339">
        <ele>136.16</ele>
        <time>2023-08-15T05:24:20Z</time>
      </trkpt>
      <trkpt lat="50.02326300367713" lon="8.366272011771798">
        <ele>140.49000000000001</ele>
        <time>2023-08-15T05:24:27Z</time>
      </trkpt>
      <trkpt lat="50.023896005004644" lon="8.36270903237164">
        <ele>146.25999999999999</ele>
        <time>2023-08-15T05:24:38Z</time>
      </trkpt>
      <trkpt lat="50.024675019085407" lon="8.358857966959477">
        <ele>151.06</ele>
        <time>2023-08-15T05:24:50Z</time>
      </trkpt>
      <trkpt lat="50.025076009333134" lon="8.35654397495091">
        <ele>149.62</ele>
        <time>2023-08-15T05:25:03Z</time>
      </trkpt>
      <trkpt lat="50.025495020672679" lon="8.352055968716741">
        <ele>148.18000000000001</ele>
        <time>2023-08-15T05:25:11Z</time>
      </trkpt>
      <trkpt lat="50.025495020672679" lon="8.351676017045975">
        <ele>148.18000000000001</ele>
        <time>2023-08-15T05:25:12Z</time>
      </trkpt>
      <trkpt lat="50.02549896016717" lon="8.351382985711098">
        <ele>148.18000000000001</ele>
        <time>2023-08-15T05:25:13Z</time>
      </trkpt>
      <trkpt lat="50.025408016517758" lon="8.34803600795567">
        <ele>142.41</ele>
        <time>2023-08-15T05:25:24Z</time>
      </trkpt>
      <trkpt lat="50.025048013776541" lon="8.344894973561168">
        <ele>136.63999999999999</ele>
        <time>2023-08-15T05:25:35Z</time>
      </trkpt>
      <trkpt lat="50.024747019633651" lon="8.34313896484673">
        <ele>132.80000000000001</ele>
        <time>2023-08-15T05:25:41Z</time>
      </trkpt>
      <trkpt lat="50.024679964408278" lon="8.342850962653756">
        <ele>127.98999999999999</ele>
        <time>2023-08-15T05:25:48Z</time>
      </trkpt>
      <trkpt lat="50.023271972313523" lon="8.337630964815617">
        <ele>125.11</ele>
        <time>2023-08-15T05:26:00Z</time>
      </trkpt>
      <trkpt lat="50.022937031462789" lon="8.33621702156961">
        <ele>122.22</ele>
        <time>2023-08-15T05:26:05Z</time>
      </trkpt>
      <trkpt lat="50.022872993722558" lon="8.333976035937667">
        <ele>117.90000000000001</ele>
        <time>2023-08-15T05:26:12Z</time>
      </trkpt>
      <trkpt lat="50.022976007312536" lon="8.332411972805858">
        <ele>115.01000000000001</ele>
        <time>2023-08-15T05:26:17Z</time>
      </trkpt>
      <trkpt lat="50.022980030626059" lon="8.332113996148109">
        <ele>114.53</ele>
        <time>2023-08-15T05:26:18Z</time>
      </trkpt>
      <trkpt lat="50.022969972342253" lon="8.331820964813232">
        <ele>114.05</ele>
        <time>2023-08-15T05:26:19Z</time>
      </trkpt>
      <trkpt lat="50.022951029241085" lon="8.331533968448639">
        <ele>113.56999999999999</ele>
        <time>2023-08-15T05:26:20Z</time>
      </trkpt>
      <trkpt lat="50.022890008985996" lon="8.331272033974528">
        <ele>113.56999999999999</ele>
        <time>2023-08-15T05:26:21Z</time>
      </trkpt>
      <trkpt lat="50.022831000387669" lon="8.33101999014616">
        <ele>113.09</ele>
        <time>2023-08-15T05:26:22Z</time>
      </trkpt>
      <trkpt lat="50.022742990404367" lon="8.330801976844668">
        <ele>113.09</ele>
        <time>2023-08-15T05:26:23Z</time>
      </trkpt>
      <trkpt lat="50.022639976814389" lon="8.330596033483744">
        <ele>112.61</ele>
        <time>2023-08-15T05:26:24Z</time>
      </trkpt>
      <trkpt lat="50.02253302372992" lon="8.330382965505123">
        <ele>112.13</ele>
        <time>2023-08-15T05:26:25Z</time>
      </trkpt>
      <trkpt lat="50.022387010976672" lon="8.33022203296423">
        <ele>112.13</ele>
        <time>2023-08-15T05:26:26Z</time>
      </trkpt>
      <trkpt lat="50.022246027365327" lon="8.33009697496891">
        <ele>111.65000000000001</ele>
        <time>2023-08-15T05:26:27Z</time>
      </trkpt>
      <trkpt lat="50.022101020440459" lon="8.32996697165072">
        <ele>111.17</ele>
        <time>2023-08-15T05:26:28Z</time>
      </trkpt>
      <trkpt lat="50.021926006302238" lon="8.329888014122844">
        <ele>110.69</ele>
        <time>2023-08-15T05:26:29Z</time>
      </trkpt>
      <trkpt lat="50.021770019084215" lon="8.329835962504149">
        <ele>110.20999999999999</ele>
        <time>2023-08-15T05:26:30Z</time>
      </trkpt>
      <trkpt lat="50.021614031866193" lon="8.329783994704485">
        <ele>109.73</ele>
        <time>2023-08-15T05:26:31Z</time>
      </trkpt>
      <trkpt lat="50.021452009677887" lon="8.3298350404948">
        <ele>109.25</ele>
        <time>2023-08-15T05:26:32Z</time>
      </trkpt>
      <trkpt lat="50.021300967782736" lon="8.329886002466083">
        <ele>109.25</ele>
        <time>2023-08-15T05:26:33Z</time>
      </trkpt>
      <trkpt lat="50.021147998049855" lon="8.329936964437366">
        <ele>108.77</ele>
        <time>2023-08-15T05:26:34Z</time>
      </trkpt>
      <trkpt lat="50.021002991124988" lon="8.330006031319499">
        <ele>108.29000000000001</ele>
        <time>2023-08-15T05:26:35Z</time>
      </trkpt>
      <trkpt lat="50.020871981978416" lon="8.330145003274083">
        <ele>108.29000000000001</ele>
        <time>2023-08-15T05:26:36Z</time>
      </trkpt>
      <trkpt lat="50.020739967003465" lon="8.330284981057048">
        <ele>108.29000000000001</ele>
        <time>2023-08-15T05:26:37Z</time>
      </trkpt>
      <trkpt lat="50.020623039454222" lon="8.33044096827507">
        <ele>107.81</ele>
        <time>2023-08-15T05:26:38Z</time>
      </trkpt>
      <trkpt lat="50.020509967580438" lon="8.330616988241673">
        <ele>108.29000000000001</ele>
        <time>2023-08-15T05:26:39Z</time>
      </trkpt>
      <trkpt lat="50.020426986739039" lon="8.330823015421629">
        <ele>108.29000000000001</ele>
        <time>2023-08-15T05:26:40Z</time>
      </trkpt>
      <trkpt lat="50.020347023382783" lon="8.331041028723121">
        <ele>108.29000000000001</ele>
        <time>2023-08-15T05:26:41Z</time>
      </trkpt>
      <trkpt lat="50.02027602866292" lon="8.331259964033961">
        <ele>108.77</ele>
        <time>2023-08-15T05:26:42Z</time>
      </trkpt>
      <trkpt lat="50.020246021449566" lon="8.331503039225936">
        <ele>108.77</ele>
        <time>2023-08-15T05:26:43Z</time>
      </trkpt>
      <trkpt lat="50.020217020064592" lon="8.331747036427259">
        <ele>108.77</ele>
        <time>2023-08-15T05:26:44Z</time>
      </trkpt>
      <trkpt lat="50.020195981487632" lon="8.331995978951454">
        <ele>108.77</ele>
        <time>2023-08-15T05:26:45Z</time>
      </trkpt>
      <trkpt lat="50.020201010629535" lon="8.332252968102694">
        <ele>108.77</ele>
        <time>2023-08-15T05:26:46Z</time>
      </trkpt>
      <trkpt lat="50.020205033943057" lon="8.332507023587823">
        <ele>108.77</ele>
        <time>2023-08-15T05:26:47Z</time>
      </trkpt>
      <trkpt lat="50.020214002579451" lon="8.332990994676948">
        <ele>108.77</ele>
        <time>2023-08-15T05:26:49Z</time>
      </trkpt>
      <trkpt lat="50.020186007022858" lon="8.333244966343045">
        <ele>108.77</ele>
        <time>2023-08-15T05:26:50Z</time>
      </trkpt>
      <trkpt lat="50.020138984546065" lon="8.33349097520113">
        <ele>108.77</ele>
        <time>2023-08-15T05:26:51Z</time>
      </trkpt>
      <trkpt lat="50.020022979006171" lon="8.333731032907963">
        <ele>109.25</ele>
        <time>2023-08-15T05:26:52Z</time>
      </trkpt>
      <trkpt lat="50.019924994558096" lon="8.333911998197436">
        <ele>109.73</ele>
        <time>2023-08-15T05:26:53Z</time>
      </trkpt>
      <trkpt lat="50.019814018160105" lon="8.334115007892251">
        <ele>109.73</ele>
        <time>2023-08-15T05:26:54Z</time>
      </trkpt>
      <trkpt lat="50.019700024276972" lon="8.334325980395079">
        <ele>110.20999999999999</ele>
        <time>2023-08-15T05:26:55Z</time>
      </trkpt>
      <trkpt lat="50.019557029008865" lon="8.334546005353332">
        <ele>110.20999999999999</ele>
        <time>2023-08-15T05:26:56Z</time>
      </trkpt>
      <trkpt lat="50.018224976956844" lon="8.335947040468454">
        <ele>112.13</ele>
        <time>2023-08-15T05:27:03Z</time>
      </trkpt>
      <trkpt lat="50.015629017725587" lon="8.338133962824941">
        <ele>115.5</ele>
        <time>2023-08-15T05:27:14Z</time>
      </trkpt>
      <trkpt lat="50.012240968644619" lon="8.340405039489269">
        <ele>116.94</ele>
        <time>2023-08-15T05:27:27Z</time>
      </trkpt>
      <trkpt lat="50.00788195990026" lon="8.34274803288281">
        <ele>111.17</ele>
        <time>2023-08-15T05:27:43Z</time>
      </trkpt>
      <trkpt lat="50.004938989877701" lon="8.34397598169744">
        <ele>107.31999999999999</ele>
        <time>2023-08-15T05:27:54Z</time>
      </trkpt>
      <trkpt lat="50.002117976546288" lon="8.344889022409916">
        <ele>107.31999999999999</ele>
        <time>2023-08-15T05:28:05Z</time>
      </trkpt>
      <trkpt lat="49.999384973198175" lon="8.345370981842279">
        <ele>107.31999999999999</ele>
        <time>2023-08-15T05:28:16Z</time>
      </trkpt>
      <trkpt lat="49.996684994548559" lon="8.345340974628925">
        <ele>105.88</ele>
        <time>2023-08-15T05:28:27Z</time>
      </trkpt>
      <trkpt lat="49.994985982775688" lon="8.344708979129791">
        <ele>97.709999999999994</ele>
        <time>2023-08-15T05:28:40Z</time>
      </trkpt>
      <trkpt lat="49.992198999971151" lon="8.342011012136936">
        <ele>93.870000000000005</ele>
        <time>2023-08-15T05:28:53Z</time>
      </trkpt>
      <trkpt lat="49.988799970597029" lon="8.339042980223894">
        <ele>95.790000000000006</ele>
        <time>2023-08-15T05:29:04Z</time>
      </trkpt>
      <trkpt lat="49.988571982830763" lon="8.338906019926071">
        <ele>95.790000000000006</ele>
        <time>2023-08-15T05:29:05Z</time>
      </trkpt>
      <trkpt lat="49.98628699220717" lon="8.337755016982555">
        <ele>99.150000000000006</ele>
        <time>2023-08-15T05:29:15Z</time>
      </trkpt>
      <trkpt lat="49.984342977404594" lon="8.337581008672714">
        <ele>99.150000000000006</ele>
        <time>2023-08-15T05:29:23Z</time>
      </trkpt>
      <trkpt lat="49.982712026685476" lon="8.336952030658722">
        <ele>98.189999999999998</ele>
        <time>2023-08-15T05:29:30Z</time>
      </trkpt>
      <trkpt lat="49.981781970709562" lon="8.335813013836741">
        <ele>97.709999999999994</ele>
        <time>2023-08-15T05:29:35Z</time>
      </trkpt>
      <trkpt lat="49.98070296831429" lon="8.333571022376418">
        <ele>95.790000000000006</ele>
        <time>2023-08-15T05:29:43Z</time>
      </trkpt>
      <trkpt lat="49.979567974805832" lon="8.33123398013413">
        <ele>96.75</ele>
        <time>2023-08-15T05:29:52Z</time>
      </trkpt>
      <trkpt lat="49.978181021288037" lon="8.328541964292526">
        <ele>100.59999999999999</ele>
        <time>2023-08-15T05:30:02Z</time>
      </trkpt>
      <trkpt lat="49.976501958444715" lon="8.325309986248612">
        <ele>106.36</ele>
        <time>2023-08-15T05:30:14Z</time>
      </trkpt>
      <trkpt lat="49.974756008014083" lon="8.321943981572986">
        <ele>108.77</ele>
        <time>2023-08-15T05:30:26Z</time>
      </trkpt>
      <trkpt lat="49.973081974312663" lon="8.318700017407537">
        <ele>106.84</ele>
        <time>2023-08-15T05:30:37Z</time>
      </trkpt>
      <trkpt lat="49.97191596776247" lon="8.316221991553903">
        <ele>102.04000000000001</ele>
        <time>2023-08-15T05:30:45Z</time>
      </trkpt>
      <trkpt lat="49.970971997827291" lon="8.313516983762384">
        <ele>99.150000000000006</ele>
        <time>2023-08-15T05:30:53Z</time>
      </trkpt>
      <trkpt lat="49.970398005098104" lon="8.310466976836324">
        <ele>102.52</ele>
        <time>2023-08-15T05:31:01Z</time>
      </trkpt>
      <trkpt lat="49.970219973474741" lon="8.30646101385355">
        <ele>107.81</ele>
        <time>2023-08-15T05:31:11Z</time>
      </trkpt>
      <trkpt lat="49.970500012859702" lon="8.303313022479415">
        <ele>115.5</ele>
        <time>2023-08-15T05:31:19Z</time>
      </trkpt>
      <trkpt lat="49.971164027228951" lon="8.300293022766709">
        <ele>123.67</ele>
        <time>2023-08-15T05:31:27Z</time>
      </trkpt>
      <trkpt lat="49.972390970215201" lon="8.296764995902777">
        <ele>134.72</ele>
        <time>2023-08-15T05:31:37Z</time>
      </trkpt>
      <trkpt lat="49.973564017564058" lon="8.293387005105615">
        <ele>141.93000000000001</ele>
        <time>2023-08-15T05:31:47Z</time>
      </trkpt>
      <trkpt lat="49.974367003887892" lon="8.289829976856709">
        <ele>147.22</ele>
        <time>2023-08-15T05:31:58Z</time>
      </trkpt>
      <trkpt lat="49.974724994972348" lon="8.286919025704265">
        <ele>147.69999999999999</ele>
        <time>2023-08-15T05:32:07Z</time>
      </trkpt>
      <trkpt lat="49.974853992462158" lon="8.284189961850643">
        <ele>145.30000000000001</ele>
        <time>2023-08-15T05:32:16Z</time>
      </trkpt>
      <trkpt lat="49.974768999963999" lon="8.281073989346623">
        <ele>139.05000000000001</ele>
        <time>2023-08-15T05:32:27Z</time>
      </trkpt>
      <trkpt lat="49.974289974197745" lon="8.277502041310072">
        <ele>137.13</ele>
        <time>2023-08-15T05:32:39Z</time>
      </trkpt>
      <trkpt lat="49.973465027287602" lon="8.274039980024099">
        <ele>137.61000000000001</ele>
        <time>2023-08-15T05:32:51Z</time>
      </trkpt>
      <trkpt lat="49.971631988883018" lon="8.267763024196029">
        <ele>137.61000000000001</ele>
        <time>2023-08-15T05:33:11Z</time>
      </trkpt>
      <trkpt lat="49.970460031181574" lon="8.263937020674348">
        <ele>140.49000000000001</ele>
        <time>2023-08-15T05:33:23Z</time>
      </trkpt>
      <trkpt lat="49.969034017995" lon="8.259303001686931">
        <ele>146.74000000000001</ele>
        <time>2023-08-15T05:33:37Z</time>
      </trkpt>
      <trkpt lat="49.96772401034832" lon="8.254943992942572">
        <ele>154.91</ele>
        <time>2023-08-15T05:33:50Z</time>
      </trkpt>
      <trkpt lat="49.966644002124667" lon="8.2514179777354">
        <ele>159.24000000000001</ele>
        <time>2023-08-15T05:34:01Z</time>
      </trkpt>
      <trkpt lat="49.965578997507691" lon="8.24769901111722">
        <ele>164.03999999999999</ele>
        <time>2023-08-15T05:34:14Z</time>
      </trkpt>
      <trkpt lat="49.965085973963141" lon="8.245466994121671">
        <ele>165.47999999999999</ele>
        <time>2023-08-15T05:34:23Z</time>
      </trkpt>
      <trkpt lat="49.96469596400857" lon="8.242862988263369">
        <ele>164.52000000000001</ele>
        <time>2023-08-15T05:34:36Z</time>
      </trkpt>
      <trkpt lat="49.964499995112419" lon="8.240365013480187">
        <ele>162.12</ele>
        <time>2023-08-15T05:34:48Z</time>
      </trkpt>
      <trkpt lat="49.964448027312756" lon="8.237884975969791">
        <ele>160.19999999999999</ele>
        <time>2023-08-15T05:34:59Z</time>
      </trkpt>
      <trkpt lat="49.964553974568844" lon="8.235340984538198">
        <ele>158.75</ele>
        <time>2023-08-15T05:35:08Z</time>
      </trkpt>
      <trkpt lat="49.964896040037274" lon="8.232394997030497">
        <ele>158.75</ele>
        <time>2023-08-15T05:35:17Z</time>
      </trkpt>
      <trkpt lat="49.965650998055935" lon="8.228737972676754">
        <ele>159.24000000000001</ele>
        <time>2023-08-15T05:35:28Z</time>
      </trkpt>
      <trkpt lat="49.966847011819482" lon="8.224983969703317">
        <ele>165.96000000000001</ele>
        <time>2023-08-15T05:35:40Z</time>
      </trkpt>
      <trkpt lat="49.968401016667485" lon="8.221553005278111">
        <ele>172.69</ele>
        <time>2023-08-15T05:35:52Z</time>
      </trkpt>
      <trkpt lat="49.97026196680963" lon="8.218577010557056">
        <ele>174.13999999999999</ele>
        <time>2023-08-15T05:36:03Z</time>
      </trkpt>
      <trkpt lat="49.972163988277316" lon="8.216322027146816">
        <ele>169.33000000000001</ele>
        <time>2023-08-15T05:36:12Z</time>
      </trkpt>
      <trkpt lat="49.974488960579038" lon="8.214324032887816">
        <ele>162.12</ele>
        <time>2023-08-15T05:36:22Z</time>
      </trkpt>
      <trkpt lat="49.97724300250411" lon="8.212215984240174">
        <ele>158.75</ele>
        <time>2023-08-15T05:36:35Z</time>
      </trkpt>
      <trkpt lat="49.980169963091612" lon="8.209862010553479">
        <ele>160.68000000000001</ele>
        <time>2023-08-15T05:36:48Z</time>
      </trkpt>
      <trkpt lat="49.981995960697532" lon="8.207706017419696">
        <ele>161.16</ele>
        <time>2023-08-15T05:36:57Z</time>
      </trkpt>
      <trkpt lat="49.983476037159562" lon="8.205011989921331">
        <ele>164.03999999999999</ele>
        <time>2023-08-15T05:37:06Z</time>
      </trkpt>
      <trkpt lat="49.985131965950131" lon="8.201107028871775">
        <ele>167.41</ele>
        <time>2023-08-15T05:37:18Z</time>
      </trkpt>
      <trkpt lat="49.98658899217844" lon="8.197501972317696">
        <ele>175.09999999999999</ele>
        <time>2023-08-15T05:37:30Z</time>
      </trkpt>
      <trkpt lat="49.987909980118275" lon="8.194403015077114">
        <ele>178.46000000000001</ele>
        <time>2023-08-15T05:37:39Z</time>
      </trkpt>
      <trkpt lat="49.989568004384637" lon="8.191588958725333">
        <ele>177.5</ele>
        <time>2023-08-15T05:37:49Z</time>
      </trkpt>
      <trkpt lat="49.99144303612411" lon="8.18956003524363">
        <ele>177.02000000000001</ele>
        <time>2023-08-15T05:37:58Z</time>
      </trkpt>
      <trkpt lat="49.993079015985131" lon="8.188398974016309">
        <ele>178.46000000000001</ele>
        <time>2023-08-15T05:38:06Z</time>
      </trkpt>
      <trkpt lat="49.995758961886168" lon="8.187061976641417">
        <ele>181.83000000000001</ele>
        <time>2023-08-15T05:38:18Z</time>
      </trkpt>
      <trkpt lat="49.997901963070035" lon="8.185706036165357">
        <ele>185.19</ele>
        <time>2023-08-15T05:38:28Z</time>
      </trkpt>
      <trkpt lat="49.999066963791847" lon="8.18403703160584">
        <ele>185.19</ele>
        <time>2023-08-15T05:38:35Z</time>
      </trkpt>
      <trkpt lat="49.999803984537721" lon="8.181767966598272">
        <ele>186.63</ele>
        <time>2023-08-15T05:38:42Z</time>
      </trkpt>
      <trkpt lat="50.000014035031199" lon="8.179473001509905">
        <ele>188.56</ele>
        <time>2023-08-15T05:38:48Z</time>
      </trkpt>
      <trkpt lat="49.999940022826195" lon="8.176289973780513">
        <ele>191.91999999999999</ele>
        <time>2023-08-15T05:38:56Z</time>
      </trkpt>
      <trkpt lat="49.999996013939381" lon="8.172275964170694">
        <ele>193.84</ele>
        <time>2023-08-15T05:39:06Z</time>
      </trkpt>
      <trkpt lat="50.000702021643519" lon="8.168026003986597">
        <ele>192.40000000000001</ele>
        <time>2023-08-15T05:39:17Z</time>
      </trkpt>
      <trkpt lat="50.001588994637132" lon="8.164373002946377">
        <ele>188.56</ele>
        <time>2023-08-15T05:39:27Z</time>
      </trkpt>
      <trkpt lat="50.001916978508234" lon="8.161287037655711">
        <ele>183.27000000000001</ele>
        <time>2023-08-15T05:39:35Z</time>
      </trkpt>
      <trkpt lat="50.001871967688203" lon="8.158570965752006">
        <ele>177.02000000000001</ele>
        <time>2023-08-15T05:39:42Z</time>
      </trkpt>
      <trkpt lat="50.001342985779047" lon="8.154739011079073">
        <ele>167.88999999999999</ele>
        <time>2023-08-15T05:39:52Z</time>
      </trkpt>
      <trkpt lat="50.000841999426484" lon="8.150496007874608">
        <ele>160.68000000000001</ele>
        <time>2023-08-15T05:40:03Z</time>
      </trkpt>
      <trkpt lat="50.000366996973753" lon="8.145842039957643">
        <ele>150.09999999999999</ele>
        <time>2023-08-15T05:40:15Z</time>
      </trkpt>
      <trkpt lat="49.999730978161097" lon="8.142071021720767">
        <ele>140.49000000000001</ele>
        <time>2023-08-15T05:40:25Z</time>
      </trkpt>
      <trkpt lat="49.999067969620228" lon="8.138315007090569">
        <ele>131.84</ele>
        <time>2023-08-15T05:40:35Z</time>
      </trkpt>
      <trkpt lat="49.998878035694361" lon="8.135204985737801">
        <ele>124.63</ele>
        <time>2023-08-15T05:40:43Z</time>
      </trkpt>
      <trkpt lat="49.999123038724065" lon="8.132498972117901">
        <ele>119.34</ele>
        <time>2023-08-15T05:40:50Z</time>
      </trkpt>
      <trkpt lat="49.999798033386469" lon="8.12957301735878">
        <ele>114.53</ele>
        <time>2023-08-15T05:40:58Z</time>
      </trkpt>
      <trkpt lat="50.000993963330984" lon="8.126375991851091">
        <ele>110.20999999999999</ele>
        <time>2023-08-15T05:41:07Z</time>
      </trkpt>
      <trkpt lat="50.002085035666823" lon="8.12325700186193">
        <ele>104.44</ele>
        <time>2023-08-15T05:41:16Z</time>
      </trkpt>
      <trkpt lat="50.002762963995337" lon="8.120136000216007">
        <ele>96.75</ele>
        <time>2023-08-15T05:41:25Z</time>
      </trkpt>
      <trkpt lat="50.002983994781971" lon="8.117150031030178">
        <ele>91.939999999999998</ele>
        <time>2023-08-15T05:41:33Z</time>
      </trkpt>
      <trkpt lat="50.002792971208692" lon="8.113797018304467">
        <ele>87.140000000000001</ele>
        <time>2023-08-15T05:41:42Z</time>
      </trkpt>
      <trkpt lat="50.00220799818635" lon="8.110764026641846">
        <ele>88.579999999999998</ele>
        <time>2023-08-15T05:41:50Z</time>
      </trkpt>
      <trkpt lat="50.00102698802948" lon="8.107583010569215">
        <ele>90.980000000000004</ele>
        <time>2023-08-15T05:41:58Z</time>
      </trkpt>
      <trkpt lat="49.999343985691667" lon="8.103580987080932">
        <ele>93.870000000000005</ele>
        <time>2023-08-15T05:42:08Z</time>
      </trkpt>
      <trkpt lat="49.997730972245336" lon="8.099464969709516">
        <ele>95.310000000000002</ele>
        <time>2023-08-15T05:42:18Z</time>
      </trkpt>
      <trkpt lat="49.99668700620532" lon="8.096214970573783">
        <ele>95.310000000000002</ele>
        <time>2023-08-15T05:42:26Z</time>
      </trkpt>
      <trkpt lat="49.995424021035433" lon="8.091491013765335">
        <ele>92.900000000000006</ele>
        <time>2023-08-15T05:42:38Z</time>
      </trkpt>
      <trkpt lat="49.9943239800632" lon="8.086448963731527">
        <ele>92.420000000000002</ele>
        <time>2023-08-15T05:42:49Z</time>
      </trkpt>
      <trkpt lat="49.993031993508339" lon="8.080454980954528">
        <ele>93.390000000000001</ele>
        <time>2023-08-15T05:43:02Z</time>
      </trkpt>
      <trkpt lat="49.992295978590846" lon="8.077024016529322">
        <ele>91.939999999999998</ele>
        <time>2023-08-15T05:43:10Z</time>
      </trkpt>
      <trkpt lat="49.991254024207592" lon="8.072178019210696">
        <ele>92.900000000000006</ele>
        <time>2023-08-15T05:43:23Z</time>
      </trkpt>
      <trkpt lat="49.990137973800302" lon="8.067004960030317">
        <ele>92.900000000000006</ele>
        <time>2023-08-15T05:43:35Z</time>
      </trkpt>
      <trkpt lat="49.989281008020043" lon="8.063407028093934">
        <ele>92.900000000000006</ele>
        <time>2023-08-15T05:43:43Z</time>
      </trkpt>
      <trkpt lat="49.988274006173015" lon="8.059363011270762">
        <ele>93.870000000000005</ele>
        <time>2023-08-15T05:43:52Z</time>
      </trkpt>
      <trkpt lat="49.987193997949362" lon="8.055358976125717">
        <ele>94.349999999999994</ele>
        <time>2023-08-15T05:44:01Z</time>
      </trkpt>
      <trkpt lat="49.985736971721053" lon="8.050005035474896">
        <ele>96.269999999999996</ele>
        <time>2023-08-15T05:44:13Z</time>
      </trkpt>
      <trkpt lat="49.984522014856339" lon="8.04558701813221">
        <ele>97.230000000000004</ele>
        <time>2023-08-15T05:44:23Z</time>
      </trkpt>
      <trkpt lat="49.983318038284779" lon="8.04116103798151">
        <ele>100.11</ele>
        <time>2023-08-15T05:44:33Z</time>
      </trkpt>
      <trkpt lat="49.982234006747603" lon="8.037171000614762">
        <ele>99.629999999999995</ele>
        <time>2023-08-15T05:44:42Z</time>
      </trkpt>
      <trkpt lat="49.980667009949684" lon="8.031381033360958">
        <ele>97.230000000000004</ele>
        <time>2023-08-15T05:44:55Z</time>
      </trkpt>
      <trkpt lat="49.979725973680615" lon="8.027292005717754">
        <ele>95.310000000000002</ele>
        <time>2023-08-15T05:45:04Z</time>
      </trkpt>
      <trkpt lat="49.979254994541407" lon="8.023026036098599">
        <ele>90.980000000000004</ele>
        <time>2023-08-15T05:45:13Z</time>
      </trkpt>
      <trkpt lat="49.979277960956097" lon="8.018714971840382">
        <ele>90.5</ele>
        <time>2023-08-15T05:45:22Z</time>
      </trkpt>
      <trkpt lat="49.979619020596147" lon="8.012510016560555">
        <ele>89.060000000000002</ele>
        <time>2023-08-15T05:45:35Z</time>
      </trkpt>
      <trkpt lat="49.979689009487629" lon="8.00865400582552">
        <ele>90.019999999999996</ele>
        <time>2023-08-15T05:45:43Z</time>
      </trkpt>
      <trkpt lat="49.979359013959765" lon="8.004348976537585">
        <ele>90.980000000000004</ele>
        <time>2023-08-15T05:45:52Z</time>
      </trkpt>
      <trkpt lat="49.978547981008887" lon="8.000214016065002">
        <ele>93.390000000000001</ele>
        <time>2023-08-15T05:46:01Z</time>
      </trkpt>
      <trkpt lat="49.977330006659031" lon="7.99632296897471">
        <ele>93.870000000000005</ele>
        <time>2023-08-15T05:46:10Z</time>
      </trkpt>
      <trkpt lat="49.975297981873155" lon="7.991471020504832">
        <ele>91.939999999999998</ele>
        <time>2023-08-15T05:46:22Z</time>
      </trkpt>
      <trkpt lat="49.973356984555721" lon="7.987108994275332">
        <ele>92.900000000000006</ele>
        <time>2023-08-15T05:46:33Z</time>
      </trkpt>
      <trkpt lat="49.972624992951751" lon="7.985463961958885">
        <ele>93.870000000000005</ele>
        <time>2023-08-15T05:46:38Z</time>
      </trkpt>
      <trkpt lat="49.972262978553772" lon="7.984649995341897">
        <ele>94.349999999999994</ele>
        <time>2023-08-15T05:46:44Z</time>
      </trkpt>
      <trkpt lat="49.972099028527737" lon="7.984281023964286">
        <ele>93.870000000000005</ele>
        <time>2023-08-15T05:46:51Z</time>
      </trkpt>
      <trkpt lat="49.97202099300921" lon="7.984107015654445">
        <ele>93.390000000000001</ele>
        <time>2023-08-15T05:47:03Z</time>
      </trkpt>
      <trkpt lat="49.971908004954457" lon="7.983852960169315">
        <ele>93.870000000000005</ele>
        <time>2023-08-15T05:47:17Z</time>
      </trkpt>
      <trkpt lat="49.971603993326426" lon="7.983168996870518">
        <ele>94.349999999999994</ele>
        <time>2023-08-15T05:47:28Z</time>
      </trkpt>
      <trkpt lat="49.971512965857983" lon="7.982963975518942">
        <ele>94.349999999999994</ele>
        <time>2023-08-15T05:47:30Z</time>
      </trkpt>
      <trkpt lat="49.971460998058319" lon="7.982848975807428">
        <ele>93.870000000000005</ele>
        <time>2023-08-15T05:47:31Z</time>
      </trkpt>
      <trkpt lat="49.971404001116753" lon="7.982716960832477">
        <ele>93.870000000000005</ele>
        <time>2023-08-15T05:47:32Z</time>
      </trkpt>
      <trkpt lat="49.970749961212277" lon="7.981235962361097">
        <ele>93.390000000000001</ele>
        <time>2023-08-15T05:47:41Z</time>
      </trkpt>
      <trkpt lat="49.969947980716825" lon="7.979421028867364">
        <ele>93.870000000000005</ele>
        <time>2023-08-15T05:47:52Z</time>
      </trkpt>
      <trkpt lat="49.969638017937541" lon="7.978718038648367">
        <ele>93.870000000000005</ele>
        <time>2023-08-15T05:47:58Z</time>
      </trkpt>
      <trkpt lat="49.969598036259413" lon="7.978629022836685">
        <ele>93.870000000000005</ele>
        <time>2023-08-15T05:47:59Z</time>
      </trkpt>
      <trkpt lat="49.969408018514514" lon="7.978198025375605">
        <ele>94.829999999999998</ele>
        <time>2023-08-15T05:48:07Z</time>
      </trkpt>
      <trkpt lat="49.969218000769615" lon="7.977769039571285">
        <ele>95.790000000000006</ele>
        <time>2023-08-15T05:48:18Z</time>
      </trkpt>
      <trkpt lat="49.969195034354925" lon="7.977715982124209">
        <ele>95.790000000000006</ele>
        <time>2023-08-15T05:48:20Z</time>
      </trkpt>
      <trkpt lat="49.969183970242739" lon="7.977691004052758">
        <ele>95.310000000000002</ele>
        <time>2023-08-15T05:48:21Z</time>
      </trkpt>
      <trkpt lat="49.969165027141571" lon="7.977648004889488">
        <ele>95.310000000000002</ele>
        <time>2023-08-15T05:48:23Z</time>
      </trkpt>
      <trkpt lat="49.969155974686146" lon="7.977626966312528">
        <ele>95.310000000000002</ele>
        <time>2023-08-15T05:48:24Z</time>
      </trkpt>
      <trkpt lat="49.96914298273623" lon="7.977598970755935">
        <ele>95.310000000000002</ele>
        <time>2023-08-15T05:48:25Z</time>
      </trkpt>
      <trkpt lat="49.968885993584991" lon="7.977016009390354">
        <ele>97.230000000000004</ele>
        <time>2023-08-15T05:48:39Z</time>
      </trkpt>
      <trkpt lat="49.968835031613708" lon="7.976902015507221">
        <ele>97.709999999999994</ele>
        <time>2023-08-15T05:48:53Z</time>
      </trkpt>
      <trkpt lat="49.968609977513552" lon="7.976392982527614">
        <ele>98.670000000000002</ele>
        <time>2023-08-15T05:49:03Z</time>
      </trkpt>
      <trkpt lat="49.968162970617414" lon="7.975381035357714">
        <ele>100.11</ele>
        <time>2023-08-15T05:49:15Z</time>
      </trkpt>
      <trkpt lat="49.967820988968015" lon="7.974606966599822">
        <ele>101.08</ele>
        <time>2023-08-15T05:49:25Z</time>
      </trkpt>
      <trkpt lat="49.967711018398404" lon="7.974359029904008">
        <ele>101.08</ele>
        <time>2023-08-15T05:49:29Z</time>
      </trkpt>
      <trkpt lat="49.967685034498572" lon="7.97430002130568">
        <ele>101.56</ele>
        <time>2023-08-15T05:49:30Z</time>
      </trkpt>
      <trkpt lat="49.967459980398417" lon="7.973803980275989">
        <ele>101.08</ele>
        <time>2023-08-15T05:49:42Z</time>
      </trkpt>
      <trkpt lat="49.967193016782403" lon="7.973231999203563">
        <ele>101.08</ele>
        <time>2023-08-15T05:49:54Z</time>
      </trkpt>
      <trkpt lat="49.967168960720301" lon="7.973180031403899">
        <ele>101.08</ele>
        <time>2023-08-15T05:49:55Z</time>
      </trkpt>
      <trkpt lat="49.967140965163708" lon="7.973121022805572">
        <ele>101.08</ele>
        <time>2023-08-15T05:49:56Z</time>
      </trkpt>
      <trkpt lat="49.966790014877915" lon="7.972370004281402">
        <ele>99.629999999999995</ele>
        <time>2023-08-15T05:50:08Z</time>
      </trkpt>
      <trkpt lat="49.966573007404804" lon="7.971915034577251">
        <ele>99.150000000000006</ele>
        <time>2023-08-15T05:50:18Z</time>
      </trkpt>
      <trkpt lat="49.966353988274932" lon="7.971456963568926">
        <ele>99.150000000000006</ele>
        <time>2023-08-15T05:50:28Z</time>
      </trkpt>
      <trkpt lat="49.96632699854672" lon="7.97140097245574">
        <ele>99.150000000000006</ele>
        <time>2023-08-15T05:50:29Z</time>
      </trkpt>
      <trkpt lat="49.966086018830538" lon="7.970895040780306">
        <ele>99.629999999999995</ele>
        <time>2023-08-15T05:50:41Z</time>
      </trkpt>
      <trkpt lat="49.965978981927037" lon="7.970671998336911">
        <ele>100.59999999999999</ele>
        <time>2023-08-15T05:50:52Z</time>
      </trkpt>
      <trkpt lat="49.965586038306355" lon="7.969855014234781">
        <ele>102.04000000000001</ele>
        <time>2023-08-15T05:51:09Z</time>
      </trkpt>
      <trkpt lat="49.96518898755312" lon="7.96892998740077">
        <ele>101.08</ele>
        <time>2023-08-15T05:51:23Z</time>
      </trkpt>
      <trkpt lat="49.964832002297044" lon="7.968136975541711">
        <ele>97.709999999999994</ele>
        <time>2023-08-15T05:51:35Z</time>
      </trkpt>
      <trkpt lat="49.964742986485362" lon="7.967938994988799">
        <ele>97.230000000000004</ele>
        <time>2023-08-15T05:51:38Z</time>
      </trkpt>
      <trkpt lat="49.964709961786866" lon="7.967865988612175">
        <ele>97.230000000000004</ele>
        <time>2023-08-15T05:51:39Z</time>
      </trkpt>
      <trkpt lat="49.964249040931463" lon="7.96682202257216">
        <ele>97.230000000000004</ele>
        <time>2023-08-15T05:51:51Z</time>
      </trkpt>
      <trkpt lat="49.96368401683867" lon="7.965489970520139">
        <ele>96.75</ele>
        <time>2023-08-15T05:52:03Z</time>
      </trkpt>
      <trkpt lat="49.963271040469408" lon="7.964504007250071">
        <ele>95.790000000000006</ele>
        <time>2023-08-15T05:52:14Z</time>
      </trkpt>
      <trkpt lat="49.96284800581634" lon="7.9634939879179">
        <ele>94.349999999999994</ele>
        <time>2023-08-15T05:52:26Z</time>
      </trkpt>
      <trkpt lat="49.962365040555596" lon="7.962389001622796">
        <ele>93.870000000000005</ele>
        <time>2023-08-15T05:52:37Z</time>
      </trkpt>
      <trkpt lat="49.961781995370984" lon="7.961082011461258">
        <ele>90.980000000000004</ele>
        <time>2023-08-15T05:52:48Z</time>
      </trkpt>
      <trkpt lat="49.961202973499894" lon="7.959783989936113">
        <ele>90.980000000000004</ele>
        <time>2023-08-15T05:52:59Z</time>
      </trkpt>
      <trkpt lat="49.960893010720611" lon="7.959085023030639">
        <ele>91.939999999999998</ele>
        <time>2023-08-15T05:53:08Z</time>
      </trkpt>
      <trkpt lat="49.960688995197415" lon="7.958627035841346">
        <ele>92.420000000000002</ele>
        <time>2023-08-15T05:53:15Z</time>
      </trkpt>
      <trkpt lat="49.960404010489583" lon="7.957985987886787">
        <ele>92.420000000000002</ele>
        <time>2023-08-15T05:53:25Z</time>
      </trkpt>
      <trkpt lat="49.960277024656534" lon="7.957698991522193">
        <ele>91.939999999999998</ele>
        <time>2023-08-15T05:53:29Z</time>
      </trkpt>
      <trkpt lat="49.960206029936671" lon="7.957537975162268">
        <ele>91.939999999999998</ele>
        <time>2023-08-15T05:53:31Z</time>
      </trkpt>
      <trkpt lat="49.960093041881919" lon="7.95728299766779">
        <ele>91.459999999999994</ele>
        <time>2023-08-15T05:53:34Z</time>
      </trkpt>
      <trkpt lat="49.959984999150038" lon="7.957035982981324">
        <ele>91.459999999999994</ele>
        <time>2023-08-15T05:53:38Z</time>
      </trkpt>
      <trkpt lat="49.959819037467241" lon="7.95666198246181">
        <ele>91.939999999999998</ele>
        <time>2023-08-15T05:53:49Z</time>
      </trkpt>
      <trkpt lat="49.959694985300303" lon="7.956379009410739">
        <ele>92.900000000000006</ele>
        <time>2023-08-15T05:54:03Z</time>
      </trkpt>
      <trkpt lat="49.95951795950532" lon="7.955978019163013">
        <ele>93.390000000000001</ele>
        <time>2023-08-15T05:54:20Z</time>
      </trkpt>
      <trkpt lat="49.959302041679621" lon="7.955486001446843">
        <ele>93.870000000000005</ele>
        <time>2023-08-15T05:54:32Z</time>
      </trkpt>
      <trkpt lat="49.958900967612863" lon="7.954574972391129">
        <ele>93.390000000000001</ele>
        <time>2023-08-15T05:54:43Z</time>
      </trkpt>
      <trkpt lat="49.958708016201854" lon="7.954138023778796">
        <ele>93.390000000000001</ele>
        <time>2023-08-15T05:54:50Z</time>
      </trkpt>
      <trkpt lat="49.958684965968132" lon="7.954085972160101">
        <ele>93.390000000000001</ele>
        <time>2023-08-15T05:54:51Z</time>
      </trkpt>
      <trkpt lat="49.958424959331751" lon="7.953493958339095">
        <ele>93.390000000000001</ele>
        <time>2023-08-15T05:55:05Z</time>
      </trkpt>
      <trkpt lat="49.958203006535769" lon="7.952990038320422">
        <ele>94.349999999999994</ele>
        <time>2023-08-15T05:55:16Z</time>
      </trkpt>
      <trkpt lat="49.957909975200891" lon="7.952326023951173">
        <ele>93.390000000000001</ele>
        <time>2023-08-15T05:55:29Z</time>
      </trkpt>
      <trkpt lat="49.957844009622931" lon="7.952174982056022">
        <ele>93.390000000000001</ele>
        <time>2023-08-15T05:55:32Z</time>
      </trkpt>
      <trkpt lat="49.957768991589546" lon="7.952006002888084">
        <ele>93.390000000000001</ele>
        <time>2023-08-15T05:55:35Z</time>
      </trkpt>
      <trkpt lat="49.957448970526457" lon="7.951278034597635">
        <ele>92.900000000000006</ele>
        <time>2023-08-15T05:55:49Z</time>
      </trkpt>
      <trkpt lat="49.957426004111767" lon="7.951226988807321">
        <ele>93.390000000000001</ele>
        <time>2023-08-15T05:55:50Z</time>
      </trkpt>
      <trkpt lat="49.957016967236996" lon="7.950347978621721">
        <ele>95.310000000000002</ele>
        <time>2023-08-15T05:56:01Z</time>
      </trkpt>
      <trkpt lat="49.956520004197955" lon="7.949341982603073">
        <ele>95.790000000000006</ele>
        <time>2023-08-15T05:56:10Z</time>
      </trkpt>
      <trkpt lat="49.955876022577286" lon="7.948162984102964">
        <ele>94.349999999999994</ele>
        <time>2023-08-15T05:56:17Z</time>
      </trkpt>
      <trkpt lat="49.954521004110575" lon="7.946222992613912">
        <ele>99.150000000000006</ele>
        <time>2023-08-15T05:56:26Z</time>
      </trkpt>
      <trkpt lat="49.953146958723664" lon="7.944689020514488">
        <ele>104.44</ele>
        <time>2023-08-15T05:56:33Z</time>
      </trkpt>
      <trkpt lat="49.951542997732759" lon="7.943412959575653">
        <ele>108.77</ele>
        <time>2023-08-15T05:56:39Z</time>
      </trkpt>
      <trkpt lat="49.949192041531205" lon="7.942122984677553">
        <ele>112.13</ele>
        <time>2023-08-15T05:56:47Z</time>
      </trkpt>
      <trkpt lat="49.946129964664578" lon="7.941282028332353">
        <ele>111.65000000000001</ele>
        <time>2023-08-15T05:56:57Z</time>
      </trkpt>
      <trkpt lat="49.943021032959223" lon="7.94104197062552">
        <ele>111.65000000000001</ele>
        <time>2023-08-15T05:57:07Z</time>
      </trkpt>
      <trkpt lat="49.938045032322407" lon="7.94117197394371">
        <ele>111.17</ele>
        <time>2023-08-15T05:57:23Z</time>
      </trkpt>
      <trkpt lat="49.935254026204348" lon="7.941140960901976">
        <ele>110.20999999999999</ele>
        <time>2023-08-15T05:57:32Z</time>
      </trkpt>
      <trkpt lat="49.933640006929636" lon="7.940588006749749">
        <ele>109.25</ele>
        <time>2023-08-15T05:57:38Z</time>
      </trkpt>
      <trkpt lat="49.932261016219854" lon="7.939444966614246">
        <ele>111.65000000000001</ele>
        <time>2023-08-15T05:57:44Z</time>
      </trkpt>
      <trkpt lat="49.931243034079671" lon="7.937659034505487">
        <ele>114.05</ele>
        <time>2023-08-15T05:57:50Z</time>
      </trkpt>
      <trkpt lat="49.930638028308749" lon="7.935342025011778">
        <ele>115.98</ele>
        <time>2023-08-15T05:57:56Z</time>
      </trkpt>
      <trkpt lat="49.930548006668687" lon="7.933675032109022">
        <ele>116.45999999999999</ele>
        <time>2023-08-15T05:58:00Z</time>
      </trkpt>
      <trkpt lat="49.9305559694767" lon="7.933253003284335">
        <ele>115.98</ele>
        <time>2023-08-15T05:58:01Z</time>
      </trkpt>
      <trkpt lat="49.930597962811589" lon="7.932838015258312">
        <ele>115.98</ele>
        <time>2023-08-15T05:58:02Z</time>
      </trkpt>
      <trkpt lat="49.930947991088033" lon="7.930712029337883">
        <ele>114.05</ele>
        <time>2023-08-15T05:58:08Z</time>
      </trkpt>
      <trkpt lat="49.931422993540764" lon="7.927788002416492">
        <ele>109.25</ele>
        <time>2023-08-15T05:58:18Z</time>
      </trkpt>
      <trkpt lat="49.931701021268964" lon="7.924864981323481">
        <ele>104.92</ele>
        <time>2023-08-15T05:58:26Z</time>
      </trkpt>
      <trkpt lat="49.931932026520371" lon="7.920667994767427">
        <ele>98.670000000000002</ele>
        <time>2023-08-15T05:58:36Z</time>
      </trkpt>
      <trkpt lat="49.932051971554756" lon="7.917474992573261">
        <ele>94.829999999999998</ele>
        <time>2023-08-15T05:58:43Z</time>
      </trkpt>
      <trkpt lat="49.932308038696647" lon="7.911721989512444">
        <ele>90.5</ele>
        <time>2023-08-15T05:58:55Z</time>
      </trkpt>
      <trkpt lat="49.93250803090632" lon="7.907408997416496">
        <ele>92.900000000000006</ele>
        <time>2023-08-15T05:59:04Z</time>
      </trkpt>
      <trkpt lat="49.932756973430514" lon="7.901657000184059">
        <ele>96.75</ele>
        <time>2023-08-15T05:59:16Z</time>
      </trkpt>
      <trkpt lat="49.933055033907294" lon="7.894490975886583">
        <ele>107.81</ele>
        <time>2023-08-15T05:59:31Z</time>
      </trkpt>
      <trkpt lat="49.932904997840524" lon="7.890681987628341">
        <ele>116.45999999999999</ele>
        <time>2023-08-15T05:59:39Z</time>
      </trkpt>
      <trkpt lat="49.932267973199487" lon="7.887498959898949">
        <ele>126.06999999999999</ele>
        <time>2023-08-15T05:59:46Z</time>
      </trkpt>
      <trkpt lat="49.931173967197537" lon="7.88462002761662">
        <ele>136.63999999999999</ele>
        <time>2023-08-15T05:59:53Z</time>
      </trkpt>
      <trkpt lat="49.93019001558423" lon="7.881627017632127">
        <ele>146.25999999999999</ele>
        <time>2023-08-15T06:00:00Z</time>
      </trkpt>
      <trkpt lat="49.929816015064716" lon="7.878314992412925">
        <ele>154.43000000000001</ele>
        <time>2023-08-15T06:00:07Z</time>
      </trkpt>
      <trkpt lat="49.929950041696429" lon="7.874497035518289">
        <ele>165.47999999999999</ele>
        <time>2023-08-15T06:00:15Z</time>
      </trkpt>
      <trkpt lat="49.929857002571225" lon="7.871874002739787">
        <ele>174.13999999999999</ele>
        <time>2023-08-15T06:00:21Z</time>
      </trkpt>
      <trkpt lat="49.92924302816391" lon="7.86840196698904">
        <ele>183.27000000000001</ele>
        <time>2023-08-15T06:00:29Z</time>
      </trkpt>
      <trkpt lat="49.928229991346598" lon="7.865487998351455">
        <ele>190</ele>
        <time>2023-08-15T06:00:36Z</time>
      </trkpt>
      <trkpt lat="49.92655604146421" lon="7.861415985971689">
        <ele>198.65000000000001</ele>
        <time>2023-08-15T06:00:46Z</time>
      </trkpt>
      <trkpt lat="49.925566976889968" lon="7.85787396132946">
        <ele>203.46000000000001</ele>
        <time>2023-08-15T06:00:54Z</time>
      </trkpt>
      <trkpt lat="49.924784023314714" lon="7.853236002847552">
        <ele>208.25999999999999</ele>
        <time>2023-08-15T06:01:04Z</time>
      </trkpt>
      <trkpt lat="49.924278007820249" lon="7.848175009712577">
        <ele>211.63</ele>
        <time>2023-08-15T06:01:15Z</time>
      </trkpt>
      <trkpt lat="49.923962010070682" lon="7.844824008643627">
        <ele>213.55000000000001</ele>
        <time>2023-08-15T06:01:23Z</time>
      </trkpt>
      <trkpt lat="49.923490025103092" lon="7.839718004688621">
        <ele>217.40000000000001</ele>
        <time>2023-08-15T06:01:34Z</time>
      </trkpt>
      <trkpt lat="49.923412995412946" lon="7.834918024018407">
        <ele>220.28</ele>
        <time>2023-08-15T06:01:44Z</time>
      </trkpt>
      <trkpt lat="49.923791019245982" lon="7.831636006012559">
        <ele>224.12</ele>
        <time>2023-08-15T06:01:51Z</time>
      </trkpt>
      <trkpt lat="49.924713028594851" lon="7.828102027997375">
        <ele>230.84999999999999</ele>
        <time>2023-08-15T06:01:59Z</time>
      </trkpt>
      <trkpt lat="49.925933014601469" lon="7.82532200217247">
        <ele>236.62</ele>
        <time>2023-08-15T06:02:06Z</time>
      </trkpt>
      <trkpt lat="49.92771802470088" lon="7.822649013251066">
        <ele>243.83000000000001</ele>
        <time>2023-08-15T06:02:14Z</time>
      </trkpt>
      <trkpt lat="49.929998992010951" lon="7.820129999890924">
        <ele>252.96000000000001</ele>
        <time>2023-08-15T06:02:23Z</time>
      </trkpt>
      <trkpt lat="49.93311102502048" lon="7.816996006295085">
        <ele>262.10000000000002</ele>
        <time>2023-08-15T06:02:35Z</time>
      </trkpt>
      <trkpt lat="49.935660967603326" lon="7.814260991290212">
        <ele>273.63</ele>
        <time>2023-08-15T06:02:45Z</time>
      </trkpt>
      <trkpt lat="49.937481014057994" lon="7.811690010130405">
        <ele>283.73000000000002</ele>
        <time>2023-08-15T06:02:53Z</time>
      </trkpt>
      <trkpt lat="49.938613995909691" lon="7.808844018727541">
        <ele>291.42000000000002</ele>
        <time>2023-08-15T06:03:00Z</time>
      </trkpt>
      <trkpt lat="49.939317991957068" lon="7.805690998211503">
        <ele>300.06999999999999</ele>
        <time>2023-08-15T06:03:07Z</time>
      </trkpt>
      <trkpt lat="49.940321976318955" lon="7.800134969875217">
        <ele>315.93000000000001</ele>
        <time>2023-08-15T06:03:19Z</time>
      </trkpt>
      <trkpt lat="49.941326966509223" lon="7.797719975933433">
        <ele>320.25999999999999</ele>
        <time>2023-08-15T06:03:25Z</time>
      </trkpt>
      <trkpt lat="49.94269497692585" lon="7.795775961130858">
        <ele>324.10000000000002</ele>
        <time>2023-08-15T06:03:31Z</time>
      </trkpt>
      <trkpt lat="49.943503998219967" lon="7.79502896592021">
        <ele>325.06</ele>
        <time>2023-08-15T06:03:34Z</time>
      </trkpt>
      <trkpt lat="49.945183983072639" lon="7.793791964650154">
        <ele>327.47000000000003</ele>
        <time>2023-08-15T06:03:40Z</time>
      </trkpt>
      <trkpt lat="49.948297021910548" lon="7.791671007871628">
        <ele>330.82999999999998</ele>
        <time>2023-08-15T06:03:51Z</time>
      </trkpt>
      <trkpt lat="49.950265008956194" lon="7.790277013555169">
        <ele>330.82999999999998</ele>
        <time>2023-08-15T06:03:58Z</time>
      </trkpt>
      <trkpt lat="49.952615965157747" lon="7.788284970447421">
        <ele>330.35000000000002</ele>
        <time>2023-08-15T06:04:07Z</time>
      </trkpt>
      <trkpt lat="49.954019011929631" lon="7.786609008908272">
        <ele>330.35000000000002</ele>
        <time>2023-08-15T06:04:14Z</time>
      </trkpt>
      <trkpt lat="49.955934025347233" lon="7.78310302644968">
        <ele>332.26999999999998</ele>
        <time>2023-08-15T06:04:23Z</time>
      </trkpt>
      <trkpt lat="49.957148982211947" lon="7.779400991275907">
        <ele>337.56</ele>
        <time>2023-08-15T06:04:32Z</time>
      </trkpt>
      <trkpt lat="49.958132011815906" lon="7.775903977453709">
        <ele>342.85000000000002</ele>
        <time>2023-08-15T06:04:41Z</time>
      </trkpt>
      <trkpt lat="49.959186036139727" lon="7.773160999640822">
        <ele>349.57999999999998</ele>
        <time>2023-08-15T06:04:50Z</time>
      </trkpt>
      <trkpt lat="49.960358999669552" lon="7.771134003996849">
        <ele>356.31</ele>
        <time>2023-08-15T06:04:59Z</time>
      </trkpt>
      <trkpt lat="49.961405983194709" lon="7.769858026877046">
        <ele>362.55000000000001</ele>
        <time>2023-08-15T06:05:08Z</time>
      </trkpt>
      <trkpt lat="49.962658993899822" lon="7.768496973440051">
        <ele>369.27999999999997</ele>
        <time>2023-08-15T06:05:20Z</time>
      </trkpt>
      <trkpt lat="49.964006971567869" lon="7.767022009938955">
        <ele>374.56999999999999</ele>
        <time>2023-08-15T06:05:31Z</time>
      </trkpt>
      <trkpt lat="49.965319996699691" lon="7.765331966802478">
        <ele>378.89999999999998</ele>
        <time>2023-08-15T06:05:41Z</time>
      </trkpt>
      <trkpt lat="49.966852962970734" lon="7.762701977044344">
        <ele>386.11000000000001</ele>
        <time>2023-08-15T06:05:54Z</time>
      </trkpt>
      <trkpt lat="49.968072026968002" lon="7.759719025343657">
        <ele>393.31999999999999</ele>
        <time>2023-08-15T06:06:06Z</time>
      </trkpt>
      <trkpt lat="49.968875013291836" lon="7.756823999807239">
        <ele>399.56999999999999</ele>
        <time>2023-08-15T06:06:17Z</time>
      </trkpt>
      <trkpt lat="49.969517989084125" lon="7.75321701541543">
        <ele>408.69999999999999</ele>
        <time>2023-08-15T06:06:32Z</time>
      </trkpt>
      <trkpt lat="49.969930965453386" lon="7.749733999371529">
        <ele>413.5</ele>
        <time>2023-08-15T06:06:46Z</time>
      </trkpt>
      <trkpt lat="49.970336984843016" lon="7.746453993022442">
        <ele>415.91000000000003</ele>
        <time>2023-08-15T06:06:59Z</time>
      </trkpt>
      <trkpt lat="49.970565978437662" lon="7.744934018701315">
        <ele>417.35000000000002</ele>
        <time>2023-08-15T06:07:05Z</time>
      </trkpt>
      <trkpt lat="49.970878958702087" lon="7.743353024125099">
        <ele>419.75</ele>
        <time>2023-08-15T06:07:13Z</time>
      </trkpt>
      <trkpt lat="49.971414981409907" lon="7.74129300378263">
        <ele>424.07999999999998</ele>
        <time>2023-08-15T06:07:23Z</time>
      </trkpt>
      <trkpt lat="49.97229902073741" lon="7.738723028451204">
        <ele>428.39999999999998</ele>
        <time>2023-08-15T06:07:35Z</time>
      </trkpt>
      <trkpt lat="49.973521018400788" lon="7.736238967627287">
        <ele>433.20999999999998</ele>
        <time>2023-08-15T06:07:48Z</time>
      </trkpt>
      <trkpt lat="49.974759025499225" lon="7.734077023342252">
        <ele>435.13</ele>
        <time>2023-08-15T06:08:00Z</time>
      </trkpt>
      <trkpt lat="49.975865017622709" lon="7.732297964394093">
        <ele>437.06</ele>
        <time>2023-08-15T06:08:10Z</time>
      </trkpt>
      <trkpt lat="49.977080980315804" lon="7.730359984561801">
        <ele>438.98000000000002</ele>
        <time>2023-08-15T06:08:22Z</time>
      </trkpt>
      <trkpt lat="49.978173980489373" lon="7.728569023311138">
        <ele>440.89999999999998</ele>
        <time>2023-08-15T06:08:34Z</time>
      </trkpt>
      <trkpt lat="49.979148963466287" lon="7.726701032370329">
        <ele>441.38</ele>
        <time>2023-08-15T06:08:44Z</time>
      </trkpt>
      <trkpt lat="49.979795040562749" lon="7.724820971488953">
        <ele>442.33999999999997</ele>
        <time>2023-08-15T06:08:52Z</time>
      </trkpt>
      <trkpt lat="49.980338020250201" lon="7.722264993935823">
        <ele>444.26999999999998</ele>
        <time>2023-08-15T06:09:02Z</time>
      </trkpt>
      <trkpt lat="49.980489984154701" lon="7.720034988597035">
        <ele>446.67000000000002</ele>
        <time>2023-08-15T06:09:10Z</time>
      </trkpt>
      <trkpt lat="49.980393005535007" lon="7.717571966350079">
        <ele>448.11000000000001</ele>
        <time>2023-08-15T06:09:19Z</time>
      </trkpt>
      <trkpt lat="49.980274988338351" lon="7.714367983862758">
        <ele>448.58999999999997</ele>
        <time>2023-08-15T06:09:29Z</time>
      </trkpt>
      <trkpt lat="49.980604983866215" lon="7.711544036865234">
        <ele>449.06999999999999</ele>
        <time>2023-08-15T06:09:39Z</time>
      </trkpt>
      <trkpt lat="49.98117595911026" lon="7.709540007635951">
        <ele>446.67000000000002</ele>
        <time>2023-08-15T06:09:47Z</time>
      </trkpt>
      <trkpt lat="49.982231995090842" lon="7.707354007288814">
        <ele>443.31</ele>
        <time>2023-08-15T06:09:57Z</time>
      </trkpt>
      <trkpt lat="49.98364401049912" lon="7.7055190410465">
        <ele>439.45999999999998</ele>
        <time>2023-08-15T06:10:07Z</time>
      </trkpt>
      <trkpt lat="49.985403036698699" lon="7.703935028985143">
        <ele>435.61000000000001</ele>
        <time>2023-08-15T06:10:18Z</time>
      </trkpt>
      <trkpt lat="49.986701980233192" lon="7.702406002208591">
        <ele>432.73000000000002</ele>
        <time>2023-08-15T06:10:27Z</time>
      </trkpt>
      <trkpt lat="49.987955996766686" lon="7.700389986857772">
        <ele>427.44</ele>
        <time>2023-08-15T06:10:37Z</time>
      </trkpt>
      <trkpt lat="49.989563981071115" lon="7.698314962908626">
        <ele>420.70999999999998</ele>
        <time>2023-08-15T06:10:48Z</time>
      </trkpt>
      <trkpt lat="49.991357959806919" lon="7.696781996637583">
        <ele>413.01999999999998</ele>
        <time>2023-08-15T06:10:59Z</time>
      </trkpt>
      <trkpt lat="49.993023024871945" lon="7.694863965734839">
        <ele>407.25999999999999</ele>
        <time>2023-08-15T06:11:10Z</time>
      </trkpt>
      <trkpt lat="49.993983004242182" lon="7.693291017785668">
        <ele>402.93000000000001</ele>
        <time>2023-08-15T06:11:19Z</time>
      </trkpt>
      <trkpt lat="49.995078016072512" lon="7.691183974966407">
        <ele>396.68000000000001</ele>
        <time>2023-08-15T06:11:30Z</time>
      </trkpt>
      <trkpt lat="49.996311999857426" lon="7.688722964376211">
        <ele>392.36000000000001</ele>
        <time>2023-08-15T06:11:42Z</time>
      </trkpt>
      <trkpt lat="49.997857036069036" lon="7.685774965211749">
        <ele>391.38999999999999</ele>
        <time>2023-08-15T06:11:55Z</time>
      </trkpt>
      <trkpt lat="49.999398970976472" lon="7.68369197845459">
        <ele>391.87</ele>
        <time>2023-08-15T06:12:06Z</time>
      </trkpt>
      <trkpt lat="50.000477973371744" lon="7.682589003816247">
        <ele>393.31999999999999</ele>
        <time>2023-08-15T06:12:13Z</time>
      </trkpt>
      <trkpt lat="50.0018410384655" lon="7.681592982262373">
        <ele>398.12</ele>
        <time>2023-08-15T06:12:20Z</time>
      </trkpt>
      <trkpt lat="50.003857975825667" lon="7.680744985118508">
        <ele>404.85000000000002</ele>
        <time>2023-08-15T06:12:28Z</time>
      </trkpt>
      <trkpt lat="50.006199041381478" lon="7.680455977097154">
        <ele>413.98000000000002</ele>
        <time>2023-08-15T06:12:36Z</time>
      </trkpt>
      <trkpt lat="50.009159026667476" lon="7.680865013971925">
        <ele>425.04000000000002</ele>
        <time>2023-08-15T06:12:46Z</time>
      </trkpt>
      <trkpt lat="50.012997016310692" lon="7.681686021387577">
        <ele>436.10000000000002</ele>
        <time>2023-08-15T06:12:59Z</time>
      </trkpt>
      <trkpt lat="50.015675034373999" lon="7.681770008057356">
        <ele>438.5</ele>
        <time>2023-08-15T06:13:08Z</time>
      </trkpt>
      <trkpt lat="50.018023978918791" lon="7.681171959266067">
        <ele>438.01999999999998</ele>
        <time>2023-08-15T06:13:16Z</time>
      </trkpt>
      <trkpt lat="50.019931029528379" lon="7.67988801933825">
        <ele>436.10000000000002</ele>
        <time>2023-08-15T06:13:23Z</time>
      </trkpt>
      <trkpt lat="50.021878983825445" lon="7.677735965698957">
        <ele>434.17000000000002</ele>
        <time>2023-08-15T06:13:31Z</time>
      </trkpt>
      <trkpt lat="50.023741023615003" lon="7.674726024270058">
        <ele>433.20999999999998</ele>
        <time>2023-08-15T06:13:40Z</time>
      </trkpt>
      <trkpt lat="50.025417990982533" lon="7.670891974121332">
        <ele>432.25</ele>
        <time>2023-08-15T06:13:50Z</time>
      </trkpt>
      <trkpt lat="50.02715396694839" lon="7.666047988459468">
        <ele>432.73000000000002</ele>
        <time>2023-08-15T06:14:02Z</time>
      </trkpt>
      <trkpt lat="50.029298979789019" lon="7.659959960728884">
        <ele>438.5</ele>
        <time>2023-08-15T06:14:17Z</time>
      </trkpt>
      <trkpt lat="50.031540971249342" lon="7.654519015923142">
        <ele>445.70999999999998</ele>
        <time>2023-08-15T06:14:31Z</time>
      </trkpt>
      <trkpt lat="50.033721020445228" lon="7.650129999965429">
        <ele>454.36000000000001</ele>
        <time>2023-08-15T06:14:43Z</time>
      </trkpt>
      <trkpt lat="50.035757990553975" lon="7.646798025816679">
        <ele>461.08999999999997</ele>
        <time>2023-08-15T06:14:53Z</time>
      </trkpt>
      <trkpt lat="50.038505997508764" lon="7.643221970647574">
        <ele>469.74000000000001</ele>
        <time>2023-08-15T06:15:05Z</time>
      </trkpt>
      <trkpt lat="50.04075201228261" lon="7.640965981408954">
        <ele>476.47000000000003</ele>
        <time>2023-08-15T06:15:14Z</time>
      </trkpt>
      <trkpt lat="50.043142028152943" lon="7.6390450168401">
        <ele>481.27999999999997</ele>
        <time>2023-08-15T06:15:23Z</time>
      </trkpt>
      <trkpt lat="50.046199997887015" lon="7.637237962335348">
        <ele>483.68000000000001</ele>
        <time>2023-08-15T06:15:34Z</time>
      </trkpt>
      <trkpt lat="50.049655018374324" lon="7.635886967182159">
        <ele>484.16000000000003</ele>
        <time>2023-08-15T06:15:46Z</time>
      </trkpt>
      <trkpt lat="50.052877021953464" lon="7.635023966431618">
        <ele>483.19999999999999</ele>
        <time>2023-08-15T06:15:57Z</time>
      </trkpt>
      <trkpt lat="50.05641502328217" lon="7.63423003256321">
        <ele>481.75999999999999</ele>
        <time>2023-08-15T06:16:09Z</time>
      </trkpt>
      <trkpt lat="50.0599380210042" lon="7.633440038189292">
        <ele>481.27999999999997</ele>
        <time>2023-08-15T06:16:21Z</time>
      </trkpt>
      <trkpt lat="50.063489014282823" lon="7.63264300301671">
        <ele>479.83999999999997</ele>
        <time>2023-08-15T06:16:33Z</time>
      </trkpt>
      <trkpt lat="50.066412035375834" lon="7.631745971739292">
        <ele>478.38999999999999</ele>
        <time>2023-08-15T06:16:43Z</time>
      </trkpt>
      <trkpt lat="50.068967007100582" lon="7.630425989627838">
        <ele>475.99000000000001</ele>
        <time>2023-08-15T06:16:52Z</time>
      </trkpt>
      <trkpt lat="50.071614012122154" lon="7.628287011757493">
        <ele>475.02999999999997</ele>
        <time>2023-08-15T06:17:02Z</time>
      </trkpt>
      <trkpt lat="50.073982989415526" lon="7.62546700425446">
        <ele>473.58999999999997</ele>
        <time>2023-08-15T06:17:12Z</time>
      </trkpt>
      <trkpt lat="50.076579032465816" lon="7.621650975197554">
        <ele>479.83999999999997</ele>
        <time>2023-08-15T06:17:24Z</time>
      </trkpt>
      <trkpt lat="50.080033969134092" lon="7.615940971300006">
        <ele>494.74000000000001</ele>
        <time>2023-08-15T06:17:41Z</time>
      </trkpt>
      <trkpt lat="50.082181999459863" lon="7.612763978540897">
        <ele>504.35000000000002</ele>
        <time>2023-08-15T06:17:51Z</time>
      </trkpt>
      <trkpt lat="50.084330029785633" lon="7.610249994322658">
        <ele>512.51999999999998</ele>
        <time>2023-08-15T06:18:00Z</time>
      </trkpt>
      <trkpt lat="50.086887013167143" lon="7.607853021472693">
        <ele>522.13</ele>
        <time>2023-08-15T06:18:10Z</time>
      </trkpt>
      <trkpt lat="50.089893015101552" lon="7.60582996532321">
        <ele>531.26999999999998</ele>
        <time>2023-08-15T06:18:21Z</time>
      </trkpt>
      <trkpt lat="50.093033965677023" lon="7.604419039562345">
        <ele>537.99000000000001</ele>
        <time>2023-08-15T06:18:32Z</time>
      </trkpt>
      <trkpt lat="50.096274996176362" lon="7.603661986067891">
        <ele>541.84000000000003</ele>
        <time>2023-08-15T06:18:43Z</time>
      </trkpt>
      <trkpt lat="50.099245961755514" lon="7.603538017719984">
        <ele>544.24000000000001</ele>
        <time>2023-08-15T06:18:53Z</time>
      </trkpt>
      <trkpt lat="50.102231008931994" lon="7.603746978566051">
        <ele>546.16999999999996</ele>
        <time>2023-08-15T06:19:03Z</time>
      </trkpt>
      <trkpt lat="50.106718009337783" lon="7.604148974642158">
        <ele>540.39999999999998</ele>
        <time>2023-08-15T06:19:18Z</time>
      </trkpt>
      <trkpt lat="50.110296998172998" lon="7.604049984365702">
        <ele>527.89999999999998</ele>
        <time>2023-08-15T06:19:30Z</time>
      </trkpt>
      <trkpt lat="50.11384597979486" lon="7.603479009121656">
        <ele>514.44000000000005</ele>
        <time>2023-08-15T06:19:42Z</time>
      </trkpt>
      <trkpt lat="50.117336958646774" lon="7.602302022278309">
        <ele>503.38999999999999</ele>
        <time>2023-08-15T06:19:54Z</time>
      </trkpt>
      <trkpt lat="50.120739005506039" lon="7.600610973313451">
        <ele>495.22000000000003</ele>
        <time>2023-08-15T06:20:07Z</time>
      </trkpt>
      <trkpt lat="50.124022029340267" lon="7.598389014601708">
        <ele>492.32999999999998</ele>
        <time>2023-08-15T06:20:18Z</time>
      </trkpt>
      <trkpt lat="50.126902973279357" lon="7.595949964597821">
        <ele>493.29000000000002</ele>
        <time>2023-08-15T06:20:29Z</time>
      </trkpt>
      <trkpt lat="50.129111018031836" lon="7.594136958941817">
        <ele>494.74000000000001</ele>
        <time>2023-08-15T06:20:38Z</time>
      </trkpt>
      <trkpt lat="50.130930980667472" lon="7.593031972646713">
        <ele>496.18000000000001</ele>
        <time>2023-08-15T06:20:46Z</time>
      </trkpt>
      <trkpt lat="50.133427027612925" lon="7.592327976599336">
        <ele>497.13999999999999</ele>
        <time>2023-08-15T06:20:56Z</time>
      </trkpt>
      <trkpt lat="50.135224023833871" lon="7.592330994084477">
        <ele>497.62</ele>
        <time>2023-08-15T06:21:04Z</time>
      </trkpt>
      <trkpt lat="50.13780296780169" lon="7.5930430367589">
        <ele>496.66000000000003</ele>
        <time>2023-08-15T06:21:16Z</time>
      </trkpt>
      <trkpt lat="50.140431029722095" lon="7.594249024987221">
        <ele>491.37</ele>
        <time>2023-08-15T06:21:29Z</time>
      </trkpt>
      <trkpt lat="50.143339969217777" lon="7.595544029027224">
        <ele>488.00999999999999</ele>
        <time>2023-08-15T06:21:43Z</time>
      </trkpt>
      <trkpt lat="50.145456986501813" lon="7.596173007041216">
        <ele>485.60000000000002</ele>
        <time>2023-08-15T06:21:53Z</time>
      </trkpt>
      <trkpt lat="50.148011036217213" lon="7.59639797732234">
        <ele>484.16000000000003</ele>
        <time>2023-08-15T06:22:05Z</time>
      </trkpt>
      <trkpt lat="50.150602972134948" lon="7.596112992614508">
        <ele>484.16000000000003</ele>
        <time>2023-08-15T06:22:17Z</time>
      </trkpt>
      <trkpt lat="50.153559017926455" lon="7.595396004617214">
        <ele>488.49000000000001</ele>
        <time>2023-08-15T06:22:31Z</time>
      </trkpt>
      <trkpt lat="50.156464017927647" lon="7.594709023833275">
        <ele>497.62</ele>
        <time>2023-08-15T06:22:45Z</time>
      </trkpt>
      <trkpt lat="50.159054026007652" lon="7.594380034133792">
        <ele>506.75</ele>
        <time>2023-08-15T06:22:57Z</time>
      </trkpt>
      <trkpt lat="50.161026958376169" lon="7.594403000548482">
        <ele>513.48000000000002</ele>
        <time>2023-08-15T06:23:06Z</time>
      </trkpt>
      <trkpt lat="50.164525983855128" lon="7.594809019938111">
        <ele>517.80999999999995</ele>
        <time>2023-08-15T06:23:22Z</time>
      </trkpt>
      <trkpt lat="50.166881969198585" lon="7.595145972445607">
        <ele>516.85000000000002</ele>
        <time>2023-08-15T06:23:33Z</time>
      </trkpt>
      <trkpt lat="50.170421982184052" lon="7.595309000462294">
        <ele>514.44000000000005</ele>
        <time>2023-08-15T06:23:49Z</time>
      </trkpt>
      <trkpt lat="50.17305800691247" lon="7.594999959692359">
        <ele>506.75</ele>
        <time>2023-08-15T06:24:01Z</time>
      </trkpt>
      <trkpt lat="50.175998965278268" lon="7.59444197639823">
        <ele>499.54000000000002</ele>
        <time>2023-08-15T06:24:14Z</time>
      </trkpt>
      <trkpt lat="50.179003961384296" lon="7.5936059653759">
        <ele>497.13999999999999</ele>
        <time>2023-08-15T06:24:28Z</time>
      </trkpt>
      <trkpt lat="50.181984985247254" lon="7.592560993507505">
        <ele>499.54000000000002</ele>
        <time>2023-08-15T06:24:42Z</time>
      </trkpt>
      <trkpt lat="50.18427399918437" lon="7.591591961681843">
        <ele>499.06</ele>
        <time>2023-08-15T06:24:53Z</time>
      </trkpt>
      <trkpt lat="50.187185034155846" lon="7.590170977637172">
        <ele>498.10000000000002</ele>
        <time>2023-08-15T06:25:07Z</time>
      </trkpt>
      <trkpt lat="50.189534984529018" lon="7.588809002190828">
        <ele>498.10000000000002</ele>
        <time>2023-08-15T06:25:18Z</time>
      </trkpt>
      <trkpt lat="50.191660970449448" lon="7.58743797428906">
        <ele>491.37</ele>
        <time>2023-08-15T06:25:27Z</time>
      </trkpt>
      <trkpt lat="50.19424301572144" lon="7.585593033581972">
        <ele>480.80000000000001</ele>
        <time>2023-08-15T06:25:37Z</time>
      </trkpt>
      <trkpt lat="50.196618027985096" lon="7.583672991022468">
        <ele>470.22000000000003</ele>
        <time>2023-08-15T06:25:46Z</time>
      </trkpt>
      <trkpt lat="50.199202001094818" lon="7.581362016499043">
        <ele>458.69</ele>
        <time>2023-08-15T06:25:56Z</time>
      </trkpt>
      <trkpt lat="50.20215000025928" lon="7.578200027346611">
        <ele>445.23000000000002</ele>
        <time>2023-08-15T06:26:08Z</time>
      </trkpt>
      <trkpt lat="50.205103028565645" lon="7.574278973042965">
        <ele>429.85000000000002</ele>
        <time>2023-08-15T06:26:21Z</time>
      </trkpt>
      <trkpt lat="50.207591028884053" lon="7.570273010060191">
        <ele>417.35000000000002</ele>
        <time>2023-08-15T06:26:33Z</time>
      </trkpt>
      <trkpt lat="50.209158025681973" lon="7.567224008962512">
        <ele>412.06</ele>
        <time>2023-08-15T06:26:42Z</time>
      </trkpt>
      <trkpt lat="50.210470966994762" lon="7.564316997304559">
        <ele>408.69999999999999</ele>
        <time>2023-08-15T06:26:50Z</time>
      </trkpt>
      <trkpt lat="50.212000999599695" lon="7.560349004343152">
        <ele>405.32999999999998</ele>
        <time>2023-08-15T06:27:00Z</time>
      </trkpt>
      <trkpt lat="50.213651983067393" lon="7.555060023441911">
        <ele>401.97000000000003</ele>
        <time>2023-08-15T06:27:13Z</time>
      </trkpt>
      <trkpt lat="50.215013958513737" lon="7.550106989219785">
        <ele>400.05000000000001</ele>
        <time>2023-08-15T06:27:25Z</time>
      </trkpt>
      <trkpt lat="50.216418011114001" lon="7.545111961662769">
        <ele>399.07999999999998</ele>
        <time>2023-08-15T06:27:37Z</time>
      </trkpt>
      <trkpt lat="50.218264041468501" lon="7.539276983588934">
        <ele>396.68000000000001</ele>
        <time>2023-08-15T06:27:51Z</time>
      </trkpt>
      <trkpt lat="50.220612986013293" lon="7.533339997753501">
        <ele>393.31999999999999</ele>
        <time>2023-08-15T06:28:06Z</time>
      </trkpt>
      <trkpt lat="50.222733020782471" lon="7.528880992904306">
        <ele>391.87</ele>
        <time>2023-08-15T06:28:18Z</time>
      </trkpt>
      <trkpt lat="50.224907035008073" lon="7.525076027959585">
        <ele>395.72000000000003</ele>
        <time>2023-08-15T06:28:29Z</time>
      </trkpt>
      <trkpt lat="50.227542975917459" lon="7.521319007501006">
        <ele>405.32999999999998</ele>
        <time>2023-08-15T06:28:41Z</time>
      </trkpt>
      <trkpt lat="50.230428026989102" lon="7.518058028072119">
        <ele>417.35000000000002</ele>
        <time>2023-08-15T06:28:53Z</time>
      </trkpt>
      <trkpt lat="50.232800021767616" lon="7.516133962199092">
        <ele>425.51999999999998</ele>
        <time>2023-08-15T06:29:02Z</time>
      </trkpt>
      <trkpt lat="50.235359016805887" lon="7.514789002016187">
        <ele>429.37</ele>
        <time>2023-08-15T06:29:11Z</time>
      </trkpt>
      <trkpt lat="50.238326964899898" lon="7.514096992090344">
        <ele>431.29000000000002</ele>
        <time>2023-08-15T06:29:21Z</time>
      </trkpt>
      <trkpt lat="50.240695020183921" lon="7.514174021780491">
        <ele>429.85000000000002</ele>
        <time>2023-08-15T06:29:29Z</time>
      </trkpt>
      <trkpt lat="50.243331966921687" lon="7.514910958707333">
        <ele>427.92000000000002</ele>
        <time>2023-08-15T06:29:38Z</time>
      </trkpt>
      <trkpt lat="50.24649596773088" lon="7.516294978559017">
        <ele>423.12</ele>
        <time>2023-08-15T06:29:49Z</time>
      </trkpt>
      <trkpt lat="50.249972026795149" lon="7.517519993707538">
        <ele>418.79000000000002</ele>
        <time>2023-08-15T06:30:01Z</time>
      </trkpt>
      <trkpt lat="50.25264099240303" lon="7.517920983955264">
        <ele>413.98000000000002</ele>
        <time>2023-08-15T06:30:10Z</time>
      </trkpt>
      <trkpt lat="50.255916975438595" lon="7.517732977867127">
        <ele>407.74000000000001</ele>
        <time>2023-08-15T06:30:21Z</time>
      </trkpt>
      <trkpt lat="50.259136967360973" lon="7.51679202541709">
        <ele>400.05000000000001</ele>
        <time>2023-08-15T06:30:32Z</time>
      </trkpt>
      <trkpt lat="50.262228967621922" lon="7.515123020857573">
        <ele>393.80000000000001</ele>
        <time>2023-08-15T06:30:43Z</time>
      </trkpt>
      <trkpt lat="50.265438985079527" lon="7.512644995003939">
        <ele>388.02999999999997</ele>
        <time>2023-08-15T06:30:55Z</time>
      </trkpt>
      <trkpt lat="50.268525034189224" lon="7.509822975844145">
        <ele>380.33999999999997</ele>
        <time>2023-08-15T06:31:07Z</time>
      </trkpt>
      <trkpt lat="50.272011989727616" lon="7.50712601467967">
        <ele>369.75999999999999</ele>
        <time>2023-08-15T06:31:20Z</time>
      </trkpt>
      <trkpt lat="50.274301003664732" lon="7.506146002560854">
        <ele>363.51999999999998</ele>
        <time>2023-08-15T06:31:28Z</time>
      </trkpt>
      <trkpt lat="50.276967035606503" lon="7.505831010639668">
        <ele>353.89999999999998</ele>
        <time>2023-08-15T06:31:37Z</time>
      </trkpt>
      <trkpt lat="50.279614040628076" lon="7.506415983662009">
        <ele>343.81</ele>
        <time>2023-08-15T06:31:46Z</time>
      </trkpt>
      <trkpt lat="50.282148979604244" lon="7.507820036262274">
        <ele>334.19999999999999</ele>
        <time>2023-08-15T06:31:55Z</time>
      </trkpt>
      <trkpt lat="50.284838983789086" lon="7.509861029684544">
        <ele>321.22000000000003</ele>
        <time>2023-08-15T06:32:05Z</time>
      </trkpt>
      <trkpt lat="50.287323966622353" lon="7.511405982077122">
        <ele>309.68000000000001</ele>
        <time>2023-08-15T06:32:14Z</time>
      </trkpt>
      <trkpt lat="50.289368983358145" lon="7.511937981471419">
        <ele>301.02999999999997</ele>
        <time>2023-08-15T06:32:21Z</time>
      </trkpt>
      <trkpt lat="50.291433027014136" lon="7.511621983721852">
        <ele>291.42000000000002</ele>
        <time>2023-08-15T06:32:28Z</time>
      </trkpt>
      <trkpt lat="50.293665966019034" lon="7.510309964418411">
        <ele>280.36000000000001</ele>
        <time>2023-08-15T06:32:36Z</time>
      </trkpt>
      <trkpt lat="50.295334970578551" lon="7.508351029828191">
        <ele>271.23000000000002</ele>
        <time>2023-08-15T06:32:43Z</time>
      </trkpt>
      <trkpt lat="50.296655958518386" lon="7.505821958184242">
        <ele>261.62</ele>
        <time>2023-08-15T06:32:50Z</time>
      </trkpt>
      <trkpt lat="50.297528011724353" lon="7.502861972898245">
        <ele>252</ele>
        <time>2023-08-15T06:32:57Z</time>
      </trkpt>
      <trkpt lat="50.298347007483244" lon="7.498386958613992">
        <ele>239.02000000000001</ele>
        <time>2023-08-15T06:33:07Z</time>
      </trkpt>
      <trkpt lat="50.2995649818331" lon="7.492202036082745">
        <ele>224.12</ele>
        <time>2023-08-15T06:33:21Z</time>
      </trkpt>
      <trkpt lat="50.300581036135554" lon="7.489439025521278">
        <ele>218.36000000000001</ele>
        <time>2023-08-15T06:33:28Z</time>
      </trkpt>
      <trkpt lat="50.302075026556849" lon="7.487293006852269">
        <ele>214.03</ele>
        <time>2023-08-15T06:33:35Z</time>
      </trkpt>
      <trkpt lat="50.303907981142402" lon="7.485843021422625">
        <ele>210.66999999999999</ele>
        <time>2023-08-15T06:33:42Z</time>
      </trkpt>
      <trkpt lat="50.305672036483884" lon="7.485288977622986">
        <ele>210.19</ele>
        <time>2023-08-15T06:33:48Z</time>
      </trkpt>
      <trkpt lat="50.307756029069424" lon="7.485578991472721">
        <ele>209.69999999999999</ele>
        <time>2023-08-15T06:33:55Z</time>
      </trkpt>
      <trkpt lat="50.308873001486063" lon="7.486123982816935">
        <ele>208.74000000000001</ele>
        <time>2023-08-15T06:34:00Z</time>
      </trkpt>
      <trkpt lat="50.310477968305349" lon="7.487555025145412">
        <ele>207.30000000000001</ele>
        <time>2023-08-15T06:34:09Z</time>
      </trkpt>
      <trkpt lat="50.312163988128304" lon="7.48997999355197">
        <ele>206.34</ele>
        <time>2023-08-15T06:34:20Z</time>
      </trkpt>
      <trkpt lat="50.314011024311185" lon="7.493124967440963">
        <ele>206.34</ele>
        <time>2023-08-15T06:34:33Z</time>
      </trkpt>
      <trkpt lat="50.316402968019247" lon="7.497210977599025">
        <ele>205.38</ele>
        <time>2023-08-15T06:34:49Z</time>
      </trkpt>
      <trkpt lat="50.317471995949745" lon="7.499042004346848">
        <ele>204.41999999999999</ele>
        <time>2023-08-15T06:34:55Z</time>
      </trkpt>
      <trkpt lat="50.319691020995378" lon="7.502838000655174">
        <ele>202.49000000000001</ele>
        <time>2023-08-15T06:35:06Z</time>
      </trkpt>
      <trkpt lat="50.321935024112463" lon="7.506547998636961">
        <ele>206.81999999999999</ele>
        <time>2023-08-15T06:35:17Z</time>
      </trkpt>
      <trkpt lat="50.324177015572786" lon="7.50961996614933">
        <ele>213.06999999999999</ele>
        <time>2023-08-15T06:35:27Z</time>
      </trkpt>
      <trkpt lat="50.326209962368011" lon="7.511535985395312">
        <ele>218.36000000000001</ele>
        <time>2023-08-15T06:35:35Z</time>
      </trkpt>
      <trkpt lat="50.328426975756884" lon="7.512860996648669">
        <ele>224.61000000000001</ele>
        <time>2023-08-15T06:35:43Z</time>
      </trkpt>
      <trkpt lat="50.331056965515018" lon="7.513616038486362">
        <ele>230.37</ele>
        <time>2023-08-15T06:35:52Z</time>
      </trkpt>
      <trkpt lat="50.333740012720227" lon="7.513557029888034">
        <ele>234.22</ele>
        <time>2023-08-15T06:36:01Z</time>
      </trkpt>
      <trkpt lat="50.336374025791883" lon="7.512630997225642">
        <ele>236.13999999999999</ele>
        <time>2023-08-15T06:36:10Z</time>
      </trkpt>
      <trkpt lat="50.338563965633512" lon="7.511136000975967">
        <ele>237.58000000000001</ele>
        <time>2023-08-15T06:36:18Z</time>
      </trkpt>
      <trkpt lat="50.341054983437061" lon="7.508568037301302">
        <ele>236.13999999999999</ele>
        <time>2023-08-15T06:36:28Z</time>
      </trkpt>
      <trkpt lat="50.343583971261978" lon="7.505310997366905">
        <ele>231.81</ele>
        <time>2023-08-15T06:36:39Z</time>
      </trkpt>
      <trkpt lat="50.346748977899551" lon="7.501089032739401">
        <ele>223.63999999999999</ele>
        <time>2023-08-15T06:36:53Z</time>
      </trkpt>
      <trkpt lat="50.349690020084381" lon="7.497146017849445">
        <ele>219.31999999999999</ele>
        <time>2023-08-15T06:37:06Z</time>
      </trkpt>
      <trkpt lat="50.35239796154201" lon="7.493509026244283">
        <ele>216.43000000000001</ele>
        <time>2023-08-15T06:37:18Z</time>
      </trkpt>
      <trkpt lat="50.355758015066385" lon="7.488872995600104">
        <ele>214.03</ele>
        <time>2023-08-15T06:37:33Z</time>
      </trkpt>
      <trkpt lat="50.35892503336072" lon="7.484049964696169">
        <ele>210.66999999999999</ele>
        <time>2023-08-15T06:37:48Z</time>
      </trkpt>
      <trkpt lat="50.360724041238427" lon="7.480882024392486">
        <ele>208.74000000000001</ele>
        <time>2023-08-15T06:37:57Z</time>
      </trkpt>
      <trkpt lat="50.362418023869395" lon="7.477637976408005">
        <ele>207.78</ele>
        <time>2023-08-15T06:38:06Z</time>
      </trkpt>
      <trkpt lat="50.363789973780513" lon="7.474700035527349">
        <ele>207.78</ele>
        <time>2023-08-15T06:38:14Z</time>
      </trkpt>
      <trkpt lat="50.365272983908653" lon="7.470649983733892">
        <ele>208.25999999999999</ele>
        <time>2023-08-15T06:38:24Z</time>
      </trkpt>
      <trkpt lat="50.366303035989404" lon="7.466293992474675">
        <ele>210.19</ele>
        <time>2023-08-15T06:38:34Z</time>
      </trkpt>
      <trkpt lat="50.366850038990378" lon="7.462217034772039">
        <ele>212.59</ele>
        <time>2023-08-15T06:38:43Z</time>
      </trkpt>
      <trkpt lat="50.366974007338285" lon="7.45803396217525">
        <ele>218.84</ele>
        <time>2023-08-15T06:38:52Z</time>
      </trkpt>
      <trkpt lat="50.366796981543303" lon="7.45483199134469">
        <ele>224.61000000000001</ele>
        <time>2023-08-15T06:38:59Z</time>
      </trkpt>
      <trkpt lat="50.366260036826134" lon="7.4507059995085">
        <ele>230.84999999999999</ele>
        <time>2023-08-15T06:39:08Z</time>
      </trkpt>
      <trkpt lat="50.365316988900304" lon="7.446783017367125">
        <ele>235.18000000000001</ele>
        <time>2023-08-15T06:39:17Z</time>
      </trkpt>
      <trkpt lat="50.363959958776832" lon="7.441507028415799">
        <ele>237.09999999999999</ele>
        <time>2023-08-15T06:39:29Z</time>
      </trkpt>
      <trkpt lat="50.363356964662671" lon="7.43740601465106">
        <ele>235.66</ele>
        <time>2023-08-15T06:39:38Z</time>
      </trkpt>
      <trkpt lat="50.363302985206246" lon="7.433709008619189">
        <ele>230.37</ele>
        <time>2023-08-15T06:39:46Z</time>
      </trkpt>
      <trkpt lat="50.36369701847434" lon="7.430518018081784">
        <ele>223.63999999999999</ele>
        <time>2023-08-15T06:39:54Z</time>
      </trkpt>
      <trkpt lat="50.364737967029214" lon="7.426708023995161">
        <ele>216.43000000000001</ele>
        <time>2023-08-15T06:40:02Z</time>
      </trkpt>
      <trkpt lat="50.366113018244505" lon="7.423705961555243">
        <ele>209.22</ele>
        <time>2023-08-15T06:40:10Z</time>
      </trkpt>
      <trkpt lat="50.367858968675137" lon="7.421183008700609">
        <ele>202.00999999999999</ele>
        <time>2023-08-15T06:40:18Z</time>
      </trkpt>
      <trkpt lat="50.370748965069652" lon="7.41785597987473">
        <ele>191.44</ele>
        <time>2023-08-15T06:40:30Z</time>
      </trkpt>
      <trkpt lat="50.373066980391741" lon="7.414879985153675">
        <ele>184.22999999999999</ele>
        <time>2023-08-15T06:40:40Z</time>
      </trkpt>
      <trkpt lat="50.374626014381647" lon="7.41203198209405">
        <ele>178.46000000000001</ele>
        <time>2023-08-15T06:40:48Z</time>
      </trkpt>
      <trkpt lat="50.375944990664721" lon="7.408381998538971">
        <ele>173.66</ele>
        <time>2023-08-15T06:40:57Z</time>
      </trkpt>
      <trkpt lat="50.376714030280709" lon="7.404874004423618">
        <ele>169.33000000000001</ele>
        <time>2023-08-15T06:41:05Z</time>
      </trkpt>
      <trkpt lat="50.377144021913409" lon="7.400725968182087">
        <ele>165</ele>
        <time>2023-08-15T06:41:14Z</time>
      </trkpt>
      <trkpt lat="50.377545012161136" lon="7.393776029348373">
        <ele>156.34999999999999</ele>
        <time>2023-08-15T06:41:29Z</time>
      </trkpt>
      <trkpt lat="50.37798497825861" lon="7.390595013275743">
        <ele>155.87</ele>
        <time>2023-08-15T06:41:36Z</time>
      </trkpt>
      <trkpt lat="50.378915034234524" lon="7.387189026921988">
        <ele>155.87</ele>
        <time>2023-08-15T06:41:44Z</time>
      </trkpt>
      <trkpt lat="50.380269968882203" lon="7.384148994460702">
        <ele>154.43000000000001</ele>
        <time>2023-08-15T06:41:52Z</time>
      </trkpt>
      <trkpt lat="50.381993958726525" lon="7.381595028564334">
        <ele>150.09999999999999</ele>
        <time>2023-08-15T06:42:00Z</time>
      </trkpt>
      <trkpt lat="50.384683040902019" lon="7.37866303883493">
        <ele>146.74000000000001</ele>
        <time>2023-08-15T06:42:11Z</time>
      </trkpt>
      <trkpt lat="50.387323005124927" lon="7.375601967796683">
        <ele>144.81999999999999</ele>
        <time>2023-08-15T06:42:22Z</time>
      </trkpt>
      <trkpt lat="50.388901988044381" lon="7.37280098721385">
        <ele>144.34</ele>
        <time>2023-08-15T06:42:30Z</time>
      </trkpt>
      <trkpt lat="50.390114011242986" lon="7.369592981413007">
        <ele>143.84999999999999</ele>
        <time>2023-08-15T06:42:38Z</time>
      </trkpt>
      <trkpt lat="50.39085203781724" lon="7.366065960377455">
        <ele>144.34</ele>
        <time>2023-08-15T06:42:46Z</time>
      </trkpt>
      <trkpt lat="50.391303990036249" lon="7.361006978899241">
        <ele>143.84999999999999</ele>
        <time>2023-08-15T06:42:57Z</time>
      </trkpt>
      <trkpt lat="50.39192701689899" lon="7.354059973731637">
        <ele>141.44999999999999</ele>
        <time>2023-08-15T06:43:12Z</time>
      </trkpt>
      <trkpt lat="50.392838967964053" lon="7.348197000101209">
        <ele>140.49000000000001</ele>
        <time>2023-08-15T06:43:25Z</time>
      </trkpt>
      <trkpt lat="50.393921993672848" lon="7.343400036916137">
        <ele>146.25999999999999</ele>
        <time>2023-08-15T06:43:36Z</time>
      </trkpt>
      <trkpt lat="50.394895970821381" lon="7.339478982612491">
        <ele>159.24000000000001</ele>
        <time>2023-08-15T06:43:45Z</time>
      </trkpt>
      <trkpt lat="50.396120985969901" lon="7.333246031776071">
        <ele>178.46000000000001</ele>
        <time>2023-08-15T06:43:59Z</time>
      </trkpt>
      <trkpt lat="50.39648300036788" lon="7.329118028283119">
        <ele>190</ele>
        <time>2023-08-15T06:44:08Z</time>
      </trkpt>
      <trkpt lat="50.396300023421645" lon="7.324994970113039">
        <ele>200.56999999999999</ele>
        <time>2023-08-15T06:44:17Z</time>
      </trkpt>
      <trkpt lat="50.395697029307485" lon="7.321395026519895">
        <ele>208.74000000000001</ele>
        <time>2023-08-15T06:44:25Z</time>
      </trkpt>
      <trkpt lat="50.394480982795358" lon="7.31715302914381">
        <ele>214.50999999999999</ele>
        <time>2023-08-15T06:44:35Z</time>
      </trkpt>
      <trkpt lat="50.392525987699628" lon="7.311879973858595">
        <ele>222.19999999999999</ele>
        <time>2023-08-15T06:44:48Z</time>
      </trkpt>
      <trkpt lat="50.390675012022257" lon="7.307057026773691">
        <ele>230.37</ele>
        <time>2023-08-15T06:45:00Z</time>
      </trkpt>
      <trkpt lat="50.389216979965568" lon="7.302986020222306">
        <ele>236.13999999999999</ele>
        <time>2023-08-15T06:45:10Z</time>
      </trkpt>
      <trkpt lat="50.387828014791012" lon="7.298331968486309">
        <ele>239.99000000000001</ele>
        <time>2023-08-15T06:45:21Z</time>
      </trkpt>
      <trkpt lat="50.386558994650841" lon="7.293114988133311">
        <ele>242.87</ele>
        <time>2023-08-15T06:45:33Z</time>
      </trkpt>
      <trkpt lat="50.385744022205472" lon="7.288638968020678">
        <ele>245.27000000000001</ele>
        <time>2023-08-15T06:45:43Z</time>
      </trkpt>
      <trkpt lat="50.38528704084456" lon="7.284524040296674">
        <ele>250.08000000000001</ele>
        <time>2023-08-15T06:45:52Z</time>
      </trkpt>
      <trkpt lat="50.385062992572784" lon="7.28034800849855">
        <ele>252.96000000000001</ele>
        <time>2023-08-15T06:46:01Z</time>
      </trkpt>
      <trkpt lat="50.385131975635886" lon="7.27570996619761">
        <ele>258.25</ele>
        <time>2023-08-15T06:46:11Z</time>
      </trkpt>
      <trkpt lat="50.385449985042214" lon="7.271542986854911">
        <ele>268.35000000000002</ele>
        <time>2023-08-15T06:46:20Z</time>
      </trkpt>
      <trkpt lat="50.386418011039495" lon="7.26569602265954">
        <ele>284.20999999999998</ele>
        <time>2023-08-15T06:46:33Z</time>
      </trkpt>
      <trkpt lat="50.387530038133264" lon="7.261370960623026">
        <ele>296.22000000000003</ele>
        <time>2023-08-15T06:46:43Z</time>
      </trkpt>
      <trkpt lat="50.388939036056399" lon="7.257243040949106">
        <ele>310.16000000000003</ele>
        <time>2023-08-15T06:46:53Z</time>
      </trkpt>
      <trkpt lat="50.390419028699398" lon="7.253744015470147">
        <ele>321.69999999999999</ele>
        <time>2023-08-15T06:47:02Z</time>
      </trkpt>
      <trkpt lat="50.392549959942698" lon="7.249838970601559">
        <ele>334.19999999999999</ele>
        <time>2023-08-15T06:47:13Z</time>
      </trkpt>
      <trkpt lat="50.394705031067133" lon="7.246692990884185">
        <ele>344.29000000000002</ele>
        <time>2023-08-15T06:47:23Z</time>
      </trkpt>
      <trkpt lat="50.39710602723062" lon="7.243935009464622">
        <ele>355.33999999999997</ele>
        <time>2023-08-15T06:47:33Z</time>
      </trkpt>
      <trkpt lat="50.400205990299582" lon="7.241189014166594">
        <ele>368.80000000000001</ele>
        <time>2023-08-15T06:47:45Z</time>
      </trkpt>
      <trkpt lat="50.402961038053036" lon="7.239367039874196">
        <ele>377.94</ele>
        <time>2023-08-15T06:47:55Z</time>
      </trkpt>
      <trkpt lat="50.406055971980095" lon="7.237974973395467">
        <ele>383.22000000000003</ele>
        <time>2023-08-15T06:48:06Z</time>
      </trkpt>
      <trkpt lat="50.407847017049789" lon="7.237349012866616">
        <ele>383.22000000000003</ele>
        <time>2023-08-15T06:48:14Z</time>
      </trkpt>
      <trkpt lat="50.410053972154856" lon="7.2366280015558">
        <ele>376.97000000000003</ele>
        <time>2023-08-15T06:48:24Z</time>
      </trkpt>
      <trkpt lat="50.413488037884235" lon="7.235537013038993">
        <ele>364.95999999999998</ele>
        <time>2023-08-15T06:48:39Z</time>
      </trkpt>
      <trkpt lat="50.416206959635019" lon="7.234449964016676">
        <ele>358.70999999999998</ele>
        <time>2023-08-15T06:48:50Z</time>
      </trkpt>
      <trkpt lat="50.418424978852272" lon="7.233354030176997">
        <ele>353.89999999999998</ele>
        <time>2023-08-15T06:49:00Z</time>
      </trkpt>
      <trkpt lat="50.420634029433131" lon="7.231983002275229">
        <ele>348.62</ele>
        <time>2023-08-15T06:49:10Z</time>
      </trkpt>
      <trkpt lat="50.422752974554896" lon="7.230521030724049">
        <ele>344.76999999999998</ele>
        <time>2023-08-15T06:49:20Z</time>
      </trkpt>
      <trkpt lat="50.425096973776817" lon="7.228813972324133">
        <ele>339</ele>
        <time>2023-08-15T06:49:31Z</time>
      </trkpt>
      <trkpt lat="50.427659992128611" lon="7.22708797082305">
        <ele>333.23000000000002</ele>
        <time>2023-08-15T06:49:43Z</time>
      </trkpt>
      <trkpt lat="50.430492991581559" lon="7.225413015112281">
        <ele>328.91000000000003</ele>
        <time>2023-08-15T06:49:56Z</time>
      </trkpt>
      <trkpt lat="50.432744035497308" lon="7.224550014361739">
        <ele>325.54000000000002</ele>
        <time>2023-08-15T06:50:06Z</time>
      </trkpt>
      <trkpt lat="50.435342006385326" lon="7.224114993587136">
        <ele>322.66000000000003</ele>
        <time>2023-08-15T06:50:18Z</time>
      </trkpt>
      <trkpt lat="50.437623979523778" lon="7.224280033260584">
        <ele>320.74000000000001</ele>
        <time>2023-08-15T06:50:28Z</time>
      </trkpt>
      <trkpt lat="50.439766980707645" lon="7.224826030433178">
        <ele>318.32999999999998</ele>
        <time>2023-08-15T06:50:37Z</time>
      </trkpt>
      <trkpt lat="50.442249029874802" lon="7.225865973159671">
        <ele>307.27999999999997</ele>
        <time>2023-08-15T06:50:48Z</time>
      </trkpt>
      <trkpt lat="50.44452496804297" lon="7.227034997195005">
        <ele>296.69999999999999</ele>
        <time>2023-08-15T06:50:59Z</time>
      </trkpt>
      <trkpt lat="50.447416976094246" lon="7.228735014796257">
        <ele>285.17000000000002</ele>
        <time>2023-08-15T06:51:13Z</time>
      </trkpt>
      <trkpt lat="50.450373021885753" lon="7.230463027954102">
        <ele>273.63</ele>
        <time>2023-08-15T06:51:27Z</time>
      </trkpt>
      <trkpt lat="50.452074967324734" lon="7.231422001495957">
        <ele>272.19</ele>
        <time>2023-08-15T06:51:35Z</time>
      </trkpt>
      <trkpt lat="50.453992998227477" lon="7.232379969209433">
        <ele>268.82999999999998</ele>
        <time>2023-08-15T06:51:44Z</time>
      </trkpt>
      <trkpt lat="50.456529026851058" lon="7.233389988541603">
        <ele>258.73000000000002</ele>
        <time>2023-08-15T06:51:56Z</time>
      </trkpt>
      <trkpt lat="50.459138983860612" lon="7.233979990705848">
        <ele>255.37</ele>
        <time>2023-08-15T06:52:08Z</time>
      </trkpt>
      <trkpt lat="50.462030991911888" lon="7.234063977375627">
        <ele>254.41</ele>
        <time>2023-08-15T06:52:21Z</time>
      </trkpt>
      <trkpt lat="50.464973039925098" lon="7.23342401906848">
        <ele>253.93000000000001</ele>
        <time>2023-08-15T06:52:34Z</time>
      </trkpt>
      <trkpt lat="50.467220982536674" lon="7.232467979192734">
        <ele>252</ele>
        <time>2023-08-15T06:52:44Z</time>
      </trkpt>
      <trkpt lat="50.469174971804023" lon="7.231216980144382">
        <ele>250.56</ele>
        <time>2023-08-15T06:52:52Z</time>
      </trkpt>
      <trkpt lat="50.471818037331104" lon="7.228942969813943">
        <ele>246.72</ele>
        <time>2023-08-15T06:53:02Z</time>
      </trkpt>
      <trkpt lat="50.473365001380444" lon="7.227384019643068">
        <ele>242.87</ele>
        <time>2023-08-15T06:53:09Z</time>
      </trkpt>
      <trkpt lat="50.475777983665466" lon="7.224837010726333">
        <ele>233.74000000000001</ele>
        <time>2023-08-15T06:53:21Z</time>
      </trkpt>
      <trkpt lat="50.478418031707406" lon="7.222116999328136">
        <ele>225.09</ele>
        <time>2023-08-15T06:53:33Z</time>
      </trkpt>
      <trkpt lat="50.480962023139" lon="7.219935022294521">
        <ele>220.28</ele>
        <time>2023-08-15T06:53:44Z</time>
      </trkpt>
      <trkpt lat="50.483248019590974" lon="7.218842022120953">
        <ele>217.40000000000001</ele>
        <time>2023-08-15T06:53:53Z</time>
      </trkpt>
      <trkpt lat="50.485396971926093" lon="7.218544967472553">
        <ele>216.43000000000001</ele>
        <time>2023-08-15T06:54:01Z</time>
      </trkpt>
      <trkpt lat="50.48783803358674" lon="7.219099011272192">
        <ele>216.91</ele>
        <time>2023-08-15T06:54:10Z</time>
      </trkpt>
      <trkpt lat="50.489875003695488" lon="7.220246996730566">
        <ele>219.31999999999999</ele>
        <time>2023-08-15T06:54:18Z</time>
      </trkpt>
      <trkpt lat="50.491879032924771" lon="7.222031001001597">
        <ele>225.56999999999999</ele>
        <time>2023-08-15T06:54:27Z</time>
      </trkpt>
      <trkpt lat="50.493908962234855" lon="7.223704028874636">
        <ele>231.33000000000001</ele>
        <time>2023-08-15T06:54:36Z</time>
      </trkpt>
      <trkpt lat="50.495266998186707" lon="7.224478013813496">
        <ele>235.18000000000001</ele>
        <time>2023-08-15T06:54:43Z</time>
      </trkpt>
      <trkpt lat="50.496565019711852" lon="7.224941030144692">
        <ele>237.09999999999999</ele>
        <time>2023-08-15T06:54:52Z</time>
      </trkpt>
      <trkpt lat="50.498467041179538" lon="7.225216962397099">
        <ele>242.38999999999999</ele>
        <time>2023-08-15T06:55:05Z</time>
      </trkpt>
      <trkpt lat="50.499686021357775" lon="7.225136999040842">
        <ele>242.38999999999999</ele>
        <time>2023-08-15T06:55:15Z</time>
      </trkpt>
      <trkpt lat="50.500769969075918" lon="7.224872969090939">
        <ele>241.43000000000001</ele>
        <time>2023-08-15T06:55:23Z</time>
      </trkpt>
      <trkpt lat="50.501628024503589" lon="7.224586978554726">
        <ele>240.47</ele>
        <time>2023-08-15T06:55:30Z</time>
      </trkpt>
      <trkpt lat="50.502101015299559" lon="7.224341975525022">
        <ele>238.53999999999999</ele>
        <time>2023-08-15T06:55:38Z</time>
      </trkpt>
      <trkpt lat="50.50227602943778" lon="7.224241979420185">
        <ele>236.62</ele>
        <time>2023-08-15T06:55:46Z</time>
      </trkpt>
      <trkpt lat="50.502680959179997" lon="7.224009968340397">
        <ele>232.78</ele>
        <time>2023-08-15T06:56:04Z</time>
      </trkpt>
      <trkpt lat="50.503180017694831" lon="7.223724983632565">
        <ele>231.81</ele>
        <time>2023-08-15T06:56:24Z</time>
      </trkpt>
      <trkpt lat="50.503696007654071" lon="7.223336985334754">
        <ele>231.33000000000001</ele>
        <time>2023-08-15T06:56:38Z</time>
      </trkpt>
      <trkpt lat="50.504377959296107" lon="7.222787970677018">
        <ele>230.37</ele>
        <time>2023-08-15T06:56:48Z</time>
      </trkpt>
      <trkpt lat="50.505302986130118" lon="7.22184500657022">
        <ele>230.37</ele>
        <time>2023-08-15T06:56:59Z</time>
      </trkpt>
      <trkpt lat="50.506390035152435" lon="7.220484958961606">
        <ele>228.93000000000001</ele>
        <time>2023-08-15T06:57:13Z</time>
      </trkpt>
      <trkpt lat="50.506996968761086" lon="7.21961097791791">
        <ele>227.49000000000001</ele>
        <time>2023-08-15T06:57:24Z</time>
      </trkpt>
      <trkpt lat="50.507682021707296" lon="7.218475984409452">
        <ele>226.05000000000001</ele>
        <time>2023-08-15T06:57:36Z</time>
      </trkpt>
      <trkpt lat="50.508208991959691" lon="7.217508964240551">
        <ele>225.56999999999999</ele>
        <time>2023-08-15T06:57:47Z</time>
      </trkpt>
      <trkpt lat="50.508825983852148" lon="7.216271040961146">
        <ele>225.09</ele>
        <time>2023-08-15T06:57:58Z</time>
      </trkpt>
      <trkpt lat="50.509286988526583" lon="7.215293040499091">
        <ele>224.61000000000001</ele>
        <time>2023-08-15T06:58:10Z</time>
      </trkpt>
      <trkpt lat="50.509352032095194" lon="7.215153984725475">
        <ele>225.09</ele>
        <time>2023-08-15T06:58:12Z</time>
      </trkpt>
      <trkpt lat="50.509515982121229" lon="7.214806973934174">
        <ele>225.56999999999999</ele>
        <time>2023-08-15T06:58:19Z</time>
      </trkpt>
      <trkpt lat="50.509528974071145" lon="7.214778978377581">
        <ele>225.56999999999999</ele>
        <time>2023-08-15T06:58:20Z</time>
      </trkpt>
      <trkpt lat="50.50954096019268" lon="7.214752994477749">
        <ele>225.09</ele>
        <time>2023-08-15T06:58:21Z</time>
      </trkpt>
      <trkpt lat="50.509554035961628" lon="7.214723993092775">
        <ele>225.09</ele>
        <time>2023-08-15T06:58:22Z</time>
      </trkpt>
      <trkpt lat="50.50958001986146" lon="7.214670013636351">
        <ele>225.56999999999999</ele>
        <time>2023-08-15T06:58:23Z</time>
      </trkpt>
      <trkpt lat="50.50958001986146" lon="7.214670013636351">
        <ele>225.56999999999999</ele>
        <time>2023-08-15T06:58:24Z</time>
      </trkpt>
      <trkpt lat="50.50960298627615" lon="7.214618967846036">
        <ele>225.56999999999999</ele>
        <time>2023-08-15T06:58:25Z</time>
      </trkpt>
      <trkpt lat="50.509620001539588" lon="7.21458200365305">
        <ele>226.05000000000001</ele>
        <time>2023-08-15T06:58:26Z</time>
      </trkpt>
      <trkpt lat="50.509637016803026" lon="7.214544033631682">
        <ele>226.05000000000001</ele>
        <time>2023-08-15T06:58:27Z</time>
      </trkpt>
      <trkpt lat="50.509654032066464" lon="7.214503968134522">
        <ele>226.05000000000001</ele>
        <time>2023-08-15T06:58:28Z</time>
      </trkpt>
      <trkpt lat="50.509918984025717" lon="7.213913965970278">
        <ele>224.61000000000001</ele>
        <time>2023-08-15T06:58:37Z</time>
      </trkpt>
      <trkpt lat="50.510388035327196" lon="7.212868994101882">
        <ele>225.09</ele>
        <time>2023-08-15T06:58:49Z</time>
      </trkpt>
      <trkpt lat="50.51076496951282" lon="7.21202502027154">
        <ele>225.56999999999999</ele>
        <time>2023-08-15T06:58:58Z</time>
      </trkpt>
      <trkpt lat="50.511229997500777" lon="7.210985999554396">
        <ele>226.53</ele>
        <time>2023-08-15T06:59:10Z</time>
      </trkpt>
      <trkpt lat="50.51130099222064" lon="7.210828000679612">
        <ele>226.05000000000001</ele>
        <time>2023-08-15T06:59:13Z</time>
      </trkpt>
      <trkpt lat="50.51142898388207" lon="7.210542010143399">
        <ele>226.53</ele>
        <time>2023-08-15T06:59:21Z</time>
      </trkpt>
      <trkpt lat="50.511550018563867" lon="7.210271023213863">
        <ele>225.56999999999999</ele>
        <time>2023-08-15T06:59:26Z</time>
      </trkpt>
      <trkpt lat="50.511628976091743" lon="7.210093997418881">
        <ele>226.05000000000001</ele>
        <time>2023-08-15T06:59:29Z</time>
      </trkpt>
      <trkpt lat="50.511657977476716" lon="7.21002995967865">
        <ele>226.05000000000001</ele>
        <time>2023-08-15T06:59:30Z</time>
      </trkpt>
      <trkpt lat="50.511982021853328" lon="7.209325041621923">
        <ele>225.56999999999999</ele>
        <time>2023-08-15T06:59:44Z</time>
      </trkpt>
      <trkpt lat="50.512132979929447" lon="7.208999991416931">
        <ele>227.00999999999999</ele>
        <time>2023-08-15T06:59:52Z</time>
      </trkpt>
      <trkpt lat="50.51215996965766" lon="7.208942994475365">
        <ele>227.00999999999999</ele>
        <time>2023-08-15T06:59:53Z</time>
      </trkpt>
      <trkpt lat="50.512183019891381" lon="7.208893960341811">
        <ele>227.49000000000001</ele>
        <time>2023-08-15T06:59:54Z</time>
      </trkpt>
      <trkpt lat="50.512201962992549" lon="7.208852972835302">
        <ele>227.97</ele>
        <time>2023-08-15T06:59:55Z</time>
      </trkpt>
      <trkpt lat="50.512219984084368" lon="7.208815002813935">
        <ele>227.97</ele>
        <time>2023-08-15T06:59:56Z</time>
      </trkpt>
      <trkpt lat="50.512234987691045" lon="7.208781978115439">
        <ele>227.97</ele>
        <time>2023-08-15T06:59:57Z</time>
      </trkpt>
      <trkpt lat="50.512250997126102" lon="7.208749037235975">
        <ele>227.97</ele>
        <time>2023-08-15T06:59:58Z</time>
      </trkpt>
      <trkpt lat="50.512264994904399" lon="7.20871701836586">
        <ele>228.44999999999999</ele>
        <time>2023-08-15T06:59:59Z</time>
      </trkpt>
      <trkpt lat="50.512420982122421" lon="7.208385011181235">
        <ele>230.37</ele>
        <time>2023-08-15T07:00:13Z</time>
      </trkpt>
      <trkpt lat="50.512601025402546" lon="7.207998018711805">
        <ele>231.33000000000001</ele>
        <time>2023-08-15T07:00:27Z</time>
      </trkpt>
      <trkpt lat="50.512866983190179" lon="7.20742997713387">
        <ele>232.78</ele>
        <time>2023-08-15T07:00:44Z</time>
      </trkpt>
      <trkpt lat="50.513111986219883" lon="7.206914993003011">
        <ele>232.78</ele>
        <time>2023-08-15T07:00:55Z</time>
      </trkpt>
      <trkpt lat="50.513253975659609" lon="7.206622967496514">
        <ele>232.78</ele>
        <time>2023-08-15T07:01:00Z</time>
      </trkpt>
      <trkpt lat="50.513281971216202" lon="7.206563958898187">
        <ele>232.78</ele>
        <time>2023-08-15T07:01:01Z</time>
      </trkpt>
      <trkpt lat="50.513310972601175" lon="7.206505034118891">
        <ele>232.78</ele>
        <time>2023-08-15T07:01:02Z</time>
      </trkpt>
      <trkpt lat="50.51334198564291" lon="7.206443008035421">
        <ele>232.78</ele>
        <time>2023-08-15T07:01:03Z</time>
      </trkpt>
      <trkpt lat="50.513372998684645" lon="7.20637796446681">
        <ele>232.78</ele>
        <time>2023-08-15T07:01:04Z</time>
      </trkpt>
      <trkpt lat="50.513826962560415" lon="7.205470036715269">
        <ele>232.30000000000001</ele>
        <time>2023-08-15T07:01:15Z</time>
      </trkpt>
      <trkpt lat="50.514571024104953" lon="7.204119963571429">
        <ele>232.78</ele>
        <time>2023-08-15T07:01:28Z</time>
      </trkpt>
      <trkpt lat="50.515011996030807" lon="7.203345978632569">
        <ele>234.22</ele>
        <time>2023-08-15T07:01:37Z</time>
      </trkpt>
      <trkpt lat="50.515434024855494" lon="7.202603006735444">
        <ele>233.74000000000001</ele>
        <time>2023-08-15T07:01:48Z</time>
      </trkpt>
      <trkpt lat="50.515465959906578" lon="7.202546009793878">
        <ele>233.74000000000001</ele>
        <time>2023-08-15T07:01:49Z</time>
      </trkpt>
      <trkpt lat="50.515497978776693" lon="7.202490018680692">
        <ele>234.22</ele>
        <time>2023-08-15T07:01:50Z</time>
      </trkpt>
      <trkpt lat="50.515730995684862" lon="7.202091962099075">
        <ele>233.74000000000001</ele>
        <time>2023-08-15T07:02:00Z</time>
      </trkpt>
      <trkpt lat="50.515967030078173" lon="7.201725002378225">
        <ele>234.22</ele>
        <time>2023-08-15T07:02:13Z</time>
      </trkpt>
      <trkpt lat="50.51632602699101" lon="7.201167019084096">
        <ele>234.69999999999999</ele>
        <time>2023-08-15T07:02:23Z</time>
      </trkpt>
      <trkpt lat="50.516515960916877" lon="7.200871976092458">
        <ele>235.66</ele>
        <time>2023-08-15T07:02:27Z</time>
      </trkpt>
      <trkpt lat="50.517132030799985" lon="7.199954995885491">
        <ele>237.09999999999999</ele>
        <time>2023-08-15T07:02:40Z</time>
      </trkpt>
      <trkpt lat="50.517806019634008" lon="7.198996022343636">
        <ele>240.94999999999999</ele>
        <time>2023-08-15T07:02:52Z</time>
      </trkpt>
      <trkpt lat="50.518371965736151" lon="7.198219019919634">
        <ele>238.53999999999999</ele>
        <time>2023-08-15T07:03:02Z</time>
      </trkpt>
      <trkpt lat="50.518812015652657" lon="7.19763002358377">
        <ele>234.22</ele>
        <time>2023-08-15T07:03:13Z</time>
      </trkpt>
      <trkpt lat="50.519054001197219" lon="7.197315031662583">
        <ele>232.30000000000001</ele>
        <time>2023-08-15T07:03:20Z</time>
      </trkpt>
      <trkpt lat="50.519081996753812" lon="7.197281001135707">
        <ele>232.78</ele>
        <time>2023-08-15T07:03:21Z</time>
      </trkpt>
      <trkpt lat="50.519113009795547" lon="7.19724403694272">
        <ele>232.78</ele>
        <time>2023-08-15T07:03:22Z</time>
      </trkpt>
      <trkpt lat="50.519221974536777" lon="7.197113027796149">
        <ele>233.74000000000001</ele>
        <time>2023-08-15T07:03:25Z</time>
      </trkpt>
      <trkpt lat="50.519579965621233" lon="7.196684964001179">
        <ele>234.69999999999999</ele>
        <time>2023-08-15T07:03:34Z</time>
      </trkpt>
      <trkpt lat="50.520244985818863" lon="7.195889018476009">
        <ele>221.72</ele>
        <time>2023-08-15T07:03:49Z</time>
      </trkpt>
      <trkpt lat="50.520919980481267" lon="7.195110004395247">
        <ele>218.84</ele>
        <time>2023-08-15T07:03:59Z</time>
      </trkpt>
      <trkpt lat="50.522009041160345" lon="7.193890018388629">
        <ele>217.88</ele>
        <time>2023-08-15T07:04:13Z</time>
      </trkpt>
      <trkpt lat="50.523015037178993" lon="7.192749995738268">
        <ele>216.43000000000001</ele>
        <time>2023-08-15T07:04:27Z</time>
      </trkpt>
      <trkpt lat="50.524369971826673" lon="7.191174030303955">
        <ele>214.99000000000001</ele>
        <time>2023-08-15T07:04:42Z</time>
      </trkpt>
      <trkpt lat="50.524798035621643" lon="7.19067002646625">
        <ele>213.06999999999999</ele>
        <time>2023-08-15T07:04:49Z</time>
      </trkpt>
      <trkpt lat="50.525290975347161" lon="7.190068038180471">
        <ele>212.59</ele>
        <time>2023-08-15T07:05:02Z</time>
      </trkpt>
      <trkpt lat="50.525748040527105" lon="7.189476024359465">
        <ele>213.55000000000001</ele>
        <time>2023-08-15T07:05:16Z</time>
      </trkpt>
      <trkpt lat="50.526263024657965" lon="7.188784014433622">
        <ele>213.06999999999999</ele>
        <time>2023-08-15T07:05:30Z</time>
      </trkpt>
      <trkpt lat="50.526812961325049" lon="7.188046993687749">
        <ele>211.63</ele>
        <time>2023-08-15T07:05:39Z</time>
      </trkpt>
      <trkpt lat="50.527151003479958" lon="7.187580959871411">
        <ele>209.69999999999999</ele>
        <time>2023-08-15T07:05:47Z</time>
      </trkpt>
      <trkpt lat="50.527200037613511" lon="7.18751298263669">
        <ele>209.69999999999999</ele>
        <time>2023-08-15T07:05:48Z</time>
      </trkpt>
      <trkpt lat="50.527778975665569" lon="7.186642019078136">
        <ele>207.30000000000001</ele>
        <time>2023-08-15T07:05:56Z</time>
      </trkpt>
      <trkpt lat="50.528046023100615" lon="7.186231976374984">
        <ele>205.86000000000001</ele>
        <time>2023-08-15T07:05:59Z</time>
      </trkpt>
      <trkpt lat="50.52814501337707" lon="7.18607003800571">
        <ele>205.38</ele>
        <time>2023-08-15T07:06:00Z</time>
      </trkpt>
      <trkpt lat="50.529042966663837" lon="7.18458803370595">
        <ele>202.00999999999999</ele>
        <time>2023-08-15T07:06:07Z</time>
      </trkpt>
      <trkpt lat="50.530450036749244" lon="7.182102967053652">
        <ele>195.77000000000001</ele>
        <time>2023-08-15T07:06:16Z</time>
      </trkpt>
      <trkpt lat="50.531683014705777" lon="7.179757039994001">
        <ele>190.47999999999999</ele>
        <time>2023-08-15T07:06:25Z</time>
      </trkpt>
      <trkpt lat="50.533598028123379" lon="7.176237981766462">
        <ele>181.83000000000001</ele>
        <time>2023-08-15T07:06:39Z</time>
      </trkpt>
      <trkpt lat="50.535700041800737" lon="7.17296602204442">
        <ele>172.69</ele>
        <time>2023-08-15T07:06:53Z</time>
      </trkpt>
      <trkpt lat="50.537818986922503" lon="7.170204017311335">
        <ele>166.44999999999999</ele>
        <time>2023-08-15T07:07:06Z</time>
      </trkpt>
      <trkpt lat="50.539873978123069" lon="7.167894970625639">
        <ele>159.72</ele>
        <time>2023-08-15T07:07:18Z</time>
      </trkpt>
      <trkpt lat="50.542403971776366" lon="7.165191974490881">
        <ele>152.03</ele>
        <time>2023-08-15T07:07:33Z</time>
      </trkpt>
      <trkpt lat="50.545713985338807" lon="7.161641987040639">
        <ele>147.69999999999999</ele>
        <time>2023-08-15T07:07:52Z</time>
      </trkpt>
      <trkpt lat="50.547936027869582" lon="7.159274015575647">
        <ele>145.78</ele>
        <time>2023-08-15T07:08:05Z</time>
      </trkpt>
      <trkpt lat="50.550000993534923" lon="7.157065970823169">
        <ele>147.22</ele>
        <time>2023-08-15T07:08:18Z</time>
      </trkpt>
      <trkpt lat="50.552280033007264" lon="7.154647959396243">
        <ele>152.03</ele>
        <time>2023-08-15T07:08:32Z</time>
      </trkpt>
      <trkpt lat="50.554210972040892" lon="7.152585005387664">
        <ele>155.38999999999999</ele>
        <time>2023-08-15T07:08:43Z</time>
      </trkpt>
      <trkpt lat="50.555876959115267" lon="7.150919018313289">
        <ele>159.24000000000001</ele>
        <time>2023-08-15T07:08:51Z</time>
      </trkpt>
      <trkpt lat="50.558212995529175" lon="7.149034012109041">
        <ele>162.59999999999999</ele>
        <time>2023-08-15T07:09:00Z</time>
      </trkpt>
      <trkpt lat="50.559990964829922" lon="7.147946041077375">
        <ele>166.93000000000001</ele>
        <time>2023-08-15T07:09:07Z</time>
      </trkpt>
      <trkpt lat="50.56208903901279" lon="7.1468620095402">
        <ele>170.77000000000001</ele>
        <time>2023-08-15T07:09:17Z</time>
      </trkpt>
      <trkpt lat="50.564199015498161" lon="7.145640011876822">
        <ele>174.13999999999999</ele>
        <time>2023-08-15T07:09:28Z</time>
      </trkpt>
      <trkpt lat="50.566057031974196" lon="7.144258003681898">
        <ele>176.53999999999999</ele>
        <time>2023-08-15T07:09:39Z</time>
      </trkpt>
      <trkpt lat="50.567945977672935" lon="7.142463019117713">
        <ele>179.90000000000001</ele>
        <time>2023-08-15T07:09:51Z</time>
      </trkpt>
      <trkpt lat="50.569800976663828" lon="7.140108039602637">
        <ele>184.22999999999999</ele>
        <time>2023-08-15T07:10:04Z</time>
      </trkpt>
      <trkpt lat="50.571284992620349" lon="7.137680975720286">
        <ele>186.63</ele>
        <time>2023-08-15T07:10:15Z</time>
      </trkpt>
      <trkpt lat="50.572310015559196" lon="7.1356460172683">
        <ele>189.52000000000001</ele>
        <time>2023-08-15T07:10:23Z</time>
      </trkpt>
      <trkpt lat="50.572793986648321" lon="7.135028019547463">
        <ele>191.44</ele>
        <time>2023-08-15T07:10:28Z</time>
      </trkpt>
      <trkpt lat="50.573022980242968" lon="7.134557040408254">
        <ele>191.44</ele>
        <time>2023-08-15T07:10:35Z</time>
      </trkpt>
      <trkpt lat="50.573081988841295" lon="7.134397029876709">
        <ele>191.44</ele>
        <time>2023-08-15T07:10:43Z</time>
      </trkpt>
      <trkpt lat="50.573193971067667" lon="7.13448696769774">
        <ele>192.88</ele>
        <time>2023-08-15T07:22:05Z</time>
      </trkpt>
      <trkpt lat="50.573175027966499" lon="7.134343972429633">
        <ele>195.77000000000001</ele>
        <time>2023-08-15T07:22:34Z</time>
      </trkpt>
      <trkpt lat="50.573122976347804" lon="7.134356964379549">
        <ele>195.77000000000001</ele>
        <time>2023-08-15T07:23:12Z</time>
      </trkpt>
      <trkpt lat="50.573125993832946" lon="7.134280018508434">
        <ele>194.31999999999999</ele>
        <time>2023-08-15T07:23:15Z</time>
      </trkpt>
      <trkpt lat="50.573309976607561" lon="7.133703008294106">
        <ele>192.88</ele>
        <time>2023-08-15T07:23:24Z</time>
      </trkpt>
      <trkpt lat="50.573579035699368" lon="7.132477993145585">
        <ele>191.44</ele>
        <time>2023-08-15T07:23:30Z</time>
      </trkpt>
      <trkpt lat="50.574160991236567" lon="7.130378996953368">
        <ele>189.52000000000001</ele>
        <time>2023-08-15T07:23:37Z</time>
      </trkpt>
      <trkpt lat="50.574915027245879" lon="7.12709303945303">
        <ele>189.52000000000001</ele>
        <time>2023-08-15T07:23:46Z</time>
      </trkpt>
      <trkpt lat="50.575425988063216" lon="7.123339036479592">
        <ele>190.47999999999999</ele>
        <time>2023-08-15T07:23:56Z</time>
      </trkpt>
      <trkpt lat="50.575640983879566" lon="7.120015025138855">
        <ele>190.96000000000001</ele>
        <time>2023-08-15T07:24:05Z</time>
      </trkpt>
      <trkpt lat="50.57564802467823" lon="7.116103023290634">
        <ele>191.91999999999999</ele>
        <time>2023-08-15T07:24:15Z</time>
      </trkpt>
      <trkpt lat="50.575538976117969" lon="7.112031010910869">
        <ele>194.31999999999999</ele>
        <time>2023-08-15T07:24:24Z</time>
      </trkpt>
      <trkpt lat="50.575338983908296" lon="7.104774964973331">
        <ele>199.61000000000001</ele>
        <time>2023-08-15T07:24:39Z</time>
      </trkpt>
      <trkpt lat="50.575145026668906" lon="7.098791962489486">
        <ele>204.41999999999999</ele>
        <time>2023-08-15T07:24:51Z</time>
      </trkpt>
      <trkpt lat="50.575033966451883" lon="7.09467401728034">
        <ele>205.86000000000001</ele>
        <time>2023-08-15T07:25:00Z</time>
      </trkpt>
      <trkpt lat="50.57500303722918" lon="7.089317981153727">
        <ele>206.81999999999999</ele>
        <time>2023-08-15T07:25:12Z</time>
      </trkpt>
      <trkpt lat="50.575173022225499" lon="7.085819039493799">
        <ele>205.86000000000001</ele>
        <time>2023-08-15T07:25:20Z</time>
      </trkpt>
      <trkpt lat="50.575703009963036" lon="7.080979999154806">
        <ele>206.81999999999999</ele>
        <time>2023-08-15T07:25:30Z</time>
      </trkpt>
      <trkpt lat="50.576408011838794" lon="7.077133962884545">
        <ele>207.78</ele>
        <time>2023-08-15T07:25:38Z</time>
      </trkpt>
      <trkpt lat="50.577670997008681" lon="7.072220994159579">
        <ele>213.06999999999999</ele>
        <time>2023-08-15T07:25:48Z</time>
      </trkpt>
      <trkpt lat="50.579406972974539" lon="7.067063022404909">
        <ele>215.94999999999999</ele>
        <time>2023-08-15T07:25:59Z</time>
      </trkpt>
      <trkpt lat="50.581157030537724" lon="7.062393967062235">
        <ele>216.91</ele>
        <time>2023-08-15T07:26:09Z</time>
      </trkpt>
      <trkpt lat="50.583343030884862" lon="7.056436026468873">
        <ele>215.94999999999999</ele>
        <time>2023-08-15T07:26:22Z</time>
      </trkpt>
      <trkpt lat="50.585545040667057" lon="7.050453023985028">
        <ele>213.55000000000001</ele>
        <time>2023-08-15T07:26:35Z</time>
      </trkpt>
      <trkpt lat="50.587260983884335" lon="7.045867033302784">
        <ele>214.03</ele>
        <time>2023-08-15T07:26:45Z</time>
      </trkpt>
      <trkpt lat="50.589331984519958" lon="7.040348974987865">
        <ele>212.11000000000001</ele>
        <time>2023-08-15T07:26:57Z</time>
      </trkpt>
      <trkpt lat="50.590867968276143" lon="7.036223988980055">
        <ele>211.15000000000001</ele>
        <time>2023-08-15T07:27:06Z</time>
      </trkpt>
      <trkpt lat="50.592152997851372" lon="7.032597977668047">
        <ele>211.15000000000001</ele>
        <time>2023-08-15T07:27:15Z</time>
      </trkpt>
      <trkpt lat="50.593498963862658" lon="7.028998034074903">
        <ele>213.55000000000001</ele>
        <time>2023-08-15T07:27:24Z</time>
      </trkpt>
      <trkpt lat="50.595881016924977" lon="7.022573975846171">
        <ele>213.06999999999999</ele>
        <time>2023-08-15T07:27:38Z</time>
      </trkpt>
      <trkpt lat="50.597930978983641" lon="7.017050972208381">
        <ele>214.99000000000001</ele>
        <time>2023-08-15T07:27:50Z</time>
      </trkpt>
      <trkpt lat="50.599710959941149" lon="7.012473028153181">
        <ele>218.36000000000001</ele>
        <time>2023-08-15T07:28:00Z</time>
      </trkpt>
      <trkpt lat="50.602174988016486" lon="7.006755983456969">
        <ele>218.36000000000001</ele>
        <time>2023-08-15T07:28:13Z</time>
      </trkpt>
      <trkpt lat="50.603854972869158" lon="7.003463990986347">
        <ele>216.43000000000001</ele>
        <time>2023-08-15T07:28:22Z</time>
      </trkpt>
      <trkpt lat="50.605104966089129" lon="7.001216970384121">
        <ele>214.03</ele>
        <time>2023-08-15T07:28:30Z</time>
      </trkpt>
      <trkpt lat="50.606303997337818" lon="6.999148987233639">
        <ele>211.63</ele>
        <time>2023-08-15T07:28:37Z</time>
      </trkpt>
      <trkpt lat="50.6081129796803" lon="6.99605799280107">
        <ele>207.78</ele>
        <time>2023-08-15T07:28:45Z</time>
      </trkpt>
      <trkpt lat="50.611096015200019" lon="6.990909995511174">
        <ele>203.46000000000001</ele>
        <time>2023-08-15T07:28:58Z</time>
      </trkpt>
      <trkpt lat="50.613445965573192" lon="6.9870559964329">
        <ele>201.53</ele>
        <time>2023-08-15T07:29:08Z</time>
      </trkpt>
      <trkpt lat="50.616289023309946" lon="6.983206020668149">
        <ele>198.65000000000001</ele>
        <time>2023-08-15T07:29:19Z</time>
      </trkpt>
      <trkpt lat="50.61963097192347" lon="6.97955503128469">
        <ele>195.77000000000001</ele>
        <time>2023-08-15T07:29:31Z</time>
      </trkpt>
      <trkpt lat="50.622906032949686" lon="6.976727982982993">
        <ele>191.44</ele>
        <time>2023-08-15T07:29:42Z</time>
      </trkpt>
      <trkpt lat="50.625941036269069" lon="6.974341990426183">
        <ele>187.59</ele>
        <time>2023-08-15T07:29:52Z</time>
      </trkpt>
      <trkpt lat="50.629466967657208" lon="6.97113398462534">
        <ele>182.31</ele>
        <time>2023-08-15T07:30:04Z</time>
      </trkpt>
      <trkpt lat="50.632170969620347" lon="6.967864036560059">
        <ele>177.5</ele>
        <time>2023-08-15T07:30:14Z</time>
      </trkpt>
      <trkpt lat="50.63434699550271" lon="6.964490991085768">
        <ele>171.72999999999999</ele>
        <time>2023-08-15T07:30:23Z</time>
      </trkpt>
      <trkpt lat="50.636462001129985" lon="6.960328035056591">
        <ele>166.93000000000001</ele>
        <time>2023-08-15T07:30:33Z</time>
      </trkpt>
      <trkpt lat="50.638704998418689" lon="6.954963030293584">
        <ele>162.12</ele>
        <time>2023-08-15T07:30:45Z</time>
      </trkpt>
      <trkpt lat="50.641272962093353" lon="6.948631005361676">
        <ele>160.68000000000001</ele>
        <time>2023-08-15T07:30:59Z</time>
      </trkpt>
      <trkpt lat="50.642692018300295" lon="6.945148995146155">
        <ele>160.19999999999999</ele>
        <time>2023-08-15T07:31:07Z</time>
      </trkpt>
      <trkpt lat="50.6444669701159" lon="6.940956031903625">
        <ele>158.27000000000001</ele>
        <time>2023-08-15T07:31:18Z</time>
      </trkpt>
      <trkpt lat="50.646170005202293" lon="6.937532024458051">
        <ele>156.83000000000001</ele>
        <time>2023-08-15T07:31:27Z</time>
      </trkpt>
      <trkpt lat="50.647789975628257" lon="6.934876972809434">
        <ele>154.91</ele>
        <time>2023-08-15T07:31:35Z</time>
      </trkpt>
      <trkpt lat="50.649913027882576" lon="6.931998040527105">
        <ele>153.94999999999999</ele>
        <time>2023-08-15T07:31:45Z</time>
      </trkpt>
      <trkpt lat="50.652808975428343" lon="6.928933029994369">
        <ele>153.47</ele>
        <time>2023-08-15T07:31:57Z</time>
      </trkpt>
      <trkpt lat="50.654474962502718" lon="6.927526965737343">
        <ele>152.03</ele>
        <time>2023-08-15T07:32:04Z</time>
      </trkpt>
      <trkpt lat="50.657660001888871" lon="6.925440961495042">
        <ele>153.47</ele>
        <time>2023-08-15T07:32:17Z</time>
      </trkpt>
      <trkpt lat="50.660540023818612" lon="6.924142017960548">
        <ele>154.43000000000001</ele>
        <time>2023-08-15T07:32:27Z</time>
      </trkpt>
      <trkpt lat="50.664120018482208" lon="6.923169968649745">
        <ele>156.34999999999999</ele>
        <time>2023-08-15T07:32:38Z</time>
      </trkpt>
      <trkpt lat="50.668841963633895" lon="6.922001028433442">
        <ele>159.24000000000001</ele>
        <time>2023-08-15T07:32:52Z</time>
      </trkpt>
      <trkpt lat="50.671723997220397" lon="6.920892018824816">
        <ele>159.24000000000001</ele>
        <time>2023-08-15T07:33:01Z</time>
      </trkpt>
      <trkpt lat="50.674464041367173" lon="6.919219996780157">
        <ele>157.31</ele>
        <time>2023-08-15T07:33:11Z</time>
      </trkpt>
      <trkpt lat="50.677254963666201" lon="6.916850013658404">
        <ele>155.38999999999999</ele>
        <time>2023-08-15T07:33:22Z</time>
      </trkpt>
      <trkpt lat="50.680135991424322" lon="6.91430501639843">
        <ele>151.06</ele>
        <time>2023-08-15T07:33:33Z</time>
      </trkpt>
      <trkpt lat="50.683391019701958" lon="6.911693969741464">
        <ele>147.69999999999999</ele>
        <time>2023-08-15T07:33:45Z</time>
      </trkpt>
      <trkpt lat="50.687590017914772" lon="6.908839009702206">
        <ele>149.13999999999999</ele>
        <time>2023-08-15T07:34:00Z</time>
      </trkpt>
      <trkpt lat="50.691144028678536" lon="6.906890971586108">
        <ele>146.74000000000001</ele>
        <time>2023-08-15T07:34:12Z</time>
      </trkpt>
      <trkpt lat="50.69487196393311" lon="6.90521702170372">
        <ele>146.25999999999999</ele>
        <time>2023-08-15T07:34:24Z</time>
      </trkpt>
      <trkpt lat="50.699007008224726" lon="6.903823027387261">
        <ele>145.78</ele>
        <time>2023-08-15T07:34:37Z</time>
      </trkpt>
      <trkpt lat="50.703475987538695" lon="6.90259600058198">
        <ele>145.30000000000001</ele>
        <time>2023-08-15T07:34:51Z</time>
      </trkpt>
      <trkpt lat="50.70801998488605" lon="6.90134902484715">
        <ele>144.81999999999999</ele>
        <time>2023-08-15T07:35:06Z</time>
      </trkpt>
      <trkpt lat="50.711334021762013" lon="6.900401031598449">
        <ele>147.22</ele>
        <time>2023-08-15T07:35:17Z</time>
      </trkpt>
      <trkpt lat="50.714090997353196" lon="6.89907300285995">
        <ele>148.66</ele>
        <time>2023-08-15T07:35:26Z</time>
      </trkpt>
      <trkpt lat="50.716438014060259" lon="6.89735596999526">
        <ele>148.18000000000001</ele>
        <time>2023-08-15T07:35:34Z</time>
      </trkpt>
      <trkpt lat="50.718963984400034" lon="6.894714999943972">
        <ele>146.25999999999999</ele>
        <time>2023-08-15T07:35:44Z</time>
      </trkpt>
      <trkpt lat="50.721098016947508" lon="6.892315009608865">
        <ele>144.81999999999999</ele>
        <time>2023-08-15T07:35:54Z</time>
      </trkpt>
      <trkpt lat="50.723589034751058" lon="6.889519980177283">
        <ele>140.97</ele>
        <time>2023-08-15T07:36:06Z</time>
      </trkpt>
      <trkpt lat="50.725309001281857" lon="6.887583006173372">
        <ele>139.53</ele>
        <time>2023-08-15T07:36:14Z</time>
      </trkpt>
      <trkpt lat="50.72787000797689" lon="6.884698960930109">
        <ele>139.05000000000001</ele>
        <time>2023-08-15T07:36:26Z</time>
      </trkpt>
      <trkpt lat="50.72988904081285" lon="6.882452024146915">
        <ele>137.61000000000001</ele>
        <time>2023-08-15T07:36:36Z</time>
      </trkpt>
      <trkpt lat="50.732752969488502" lon="6.879234965890646">
        <ele>135.68000000000001</ele>
        <time>2023-08-15T07:36:50Z</time>
      </trkpt>
      <trkpt lat="50.735463006421924" lon="6.876175990328193">
        <ele>132.31999999999999</ele>
        <time>2023-08-15T07:37:03Z</time>
      </trkpt>
      <trkpt lat="50.738204978406429" lon="6.873087007552385">
        <ele>130.88</ele>
        <time>2023-08-15T07:37:16Z</time>
      </trkpt>
      <trkpt lat="50.740815019235015" lon="6.8701540119946">
        <ele>128.47</ele>
        <time>2023-08-15T07:37:28Z</time>
      </trkpt>
      <trkpt lat="50.742618972435594" lon="6.868115030229092">
        <ele>127.51000000000001</ele>
        <time>2023-08-15T07:37:37Z</time>
      </trkpt>
      <trkpt lat="50.745817003771663" lon="6.864523971453309">
        <ele>126.55</ele>
        <time>2023-08-15T07:37:53Z</time>
      </trkpt>
      <trkpt lat="50.748745976015925" lon="6.861491985619068">
        <ele>126.06999999999999</ele>
        <time>2023-08-15T07:38:07Z</time>
      </trkpt>
      <trkpt lat="50.751868989318609" lon="6.85833896510303">
        <ele>122.70999999999999</ele>
        <time>2023-08-15T07:38:22Z</time>
      </trkpt>
      <trkpt lat="50.754605010151863" lon="6.85573797672987">
        <ele>122.70999999999999</ele>
        <time>2023-08-15T07:38:35Z</time>
      </trkpt>
      <trkpt lat="50.757746966555715" lon="6.852806992828846">
        <ele>118.38</ele>
        <time>2023-08-15T07:38:50Z</time>
      </trkpt>
      <trkpt lat="50.759695004671812" lon="6.850845962762833">
        <ele>115.98</ele>
        <time>2023-08-15T07:38:59Z</time>
      </trkpt>
      <trkpt lat="50.761724011972547" lon="6.848341031000018">
        <ele>116.45999999999999</ele>
        <time>2023-08-15T07:39:09Z</time>
      </trkpt>
      <trkpt lat="50.763259995728731" lon="6.845645997673273">
        <ele>118.38</ele>
        <time>2023-08-15T07:39:18Z</time>
      </trkpt>
      <trkpt lat="50.764518035575747" lon="6.842559026554227">
        <ele>117.42</ele>
        <time>2023-08-15T07:39:27Z</time>
      </trkpt>
      <trkpt lat="50.765559989959002" lon="6.839014990255237">
        <ele>111.17</ele>
        <time>2023-08-15T07:39:37Z</time>
      </trkpt>
      <trkpt lat="50.766422990709543" lon="6.835500039160252">
        <ele>106.84</ele>
        <time>2023-08-15T07:39:46Z</time>
      </trkpt>
      <trkpt lat="50.76751196756959" lon="6.831621984019876">
        <ele>107.31999999999999</ele>
        <time>2023-08-15T07:39:55Z</time>
      </trkpt>
      <trkpt lat="50.769021967425942" lon="6.827478976920247">
        <ele>110.20999999999999</ele>
        <time>2023-08-15T07:40:05Z</time>
      </trkpt>
      <trkpt lat="50.77084100805223" lon="6.823642998933792">
        <ele>113.09</ele>
        <time>2023-08-15T07:40:15Z</time>
      </trkpt>
      <trkpt lat="50.77271000482142" lon="6.820409009233117">
        <ele>114.53</ele>
        <time>2023-08-15T07:40:24Z</time>
      </trkpt>
      <trkpt lat="50.775239998474717" lon="6.81697896681726">
        <ele>114.05</ele>
        <time>2023-08-15T07:40:35Z</time>
      </trkpt>
      <trkpt lat="50.778307020664215" lon="6.813771966844797">
        <ele>114.05</ele>
        <time>2023-08-15T07:40:47Z</time>
      </trkpt>
      <trkpt lat="50.781344035640359" lon="6.811402989551425">
        <ele>111.65000000000001</ele>
        <time>2023-08-15T07:40:58Z</time>
      </trkpt>
      <trkpt lat="50.784102017059922" lon="6.809496022760868">
        <ele>104.44</ele>
        <time>2023-08-15T07:41:07Z</time>
      </trkpt>
      <trkpt lat="50.787818972021341" lon="6.806908026337624">
        <ele>102.52</ele>
        <time>2023-08-15T07:41:19Z</time>
      </trkpt>
      <trkpt lat="50.790927987545729" lon="6.804747004061937">
        <ele>98.189999999999998</ele>
        <time>2023-08-15T07:41:29Z</time>
      </trkpt>
      <trkpt lat="50.794988013803959" lon="6.801931019872427">
        <ele>96.269999999999996</ele>
        <time>2023-08-15T07:41:42Z</time>
      </trkpt>
      <trkpt lat="50.7987280189991" lon="6.799346962943673">
        <ele>98.189999999999998</ele>
        <time>2023-08-15T07:41:54Z</time>
      </trkpt>
      <trkpt lat="50.803695973008871" lon="6.795890014618635">
        <ele>97.230000000000004</ele>
        <time>2023-08-15T07:42:10Z</time>
      </trkpt>
      <trkpt lat="50.806101998314261" lon="6.794108022004366">
        <ele>95.310000000000002</ele>
        <time>2023-08-15T07:42:18Z</time>
      </trkpt>
      <trkpt lat="50.808036038652062" lon="6.792630041018128">
        <ele>94.349999999999994</ele>
        <time>2023-08-15T07:42:26Z</time>
      </trkpt>
      <trkpt lat="50.809840997681022" lon="6.791161028668284">
        <ele>93.870000000000005</ele>
        <time>2023-08-15T07:42:36Z</time>
      </trkpt>
      <trkpt lat="50.811543026939034" lon="6.789739038795233">
        <ele>93.870000000000005</ele>
        <time>2023-08-15T07:42:44Z</time>
      </trkpt>
      <trkpt lat="50.813912004232407" lon="6.788180004805327">
        <ele>100.59999999999999</ele>
        <time>2023-08-15T07:42:55Z</time>
      </trkpt>
      <trkpt lat="50.816032961010933" lon="6.786851976066828">
        <ele>106.84</ele>
        <time>2023-08-15T07:43:03Z</time>
      </trkpt>
      <trkpt lat="50.817398959770799" lon="6.784981973469257">
        <ele>112.61</ele>
        <time>2023-08-15T07:43:10Z</time>
      </trkpt>
      <trkpt lat="50.818922035396099" lon="6.782716009765863">
        <ele>113.09</ele>
        <time>2023-08-15T07:43:17Z</time>
      </trkpt>
      <trkpt lat="50.821359995752573" lon="6.77998099476099">
        <ele>107.81</ele>
        <time>2023-08-15T07:43:26Z</time>
      </trkpt>
      <trkpt lat="50.823829974979162" lon="6.777171967551112">
        <ele>105.40000000000001</ele>
        <time>2023-08-15T07:43:35Z</time>
      </trkpt>
      <trkpt lat="50.82678803242743" lon="6.773600019514561">
        <ele>103.95999999999999</ele>
        <time>2023-08-15T07:43:46Z</time>
      </trkpt>
      <trkpt lat="50.829484993591905" lon="6.770339040085673">
        <ele>101.08</ele>
        <time>2023-08-15T07:43:56Z</time>
      </trkpt>
      <trkpt lat="50.832974966615438" lon="6.766096958890557">
        <ele>97.709999999999994</ele>
        <time>2023-08-15T07:44:09Z</time>
      </trkpt>
      <trkpt lat="50.835939981043339" lon="6.76249198615551">
        <ele>95.790000000000006</ele>
        <time>2023-08-15T07:44:20Z</time>
      </trkpt>
      <trkpt lat="50.837550982832909" lon="6.760560041293502">
        <ele>94.829999999999998</ele>
        <time>2023-08-15T07:44:26Z</time>
      </trkpt>
      <trkpt lat="50.840744990855455" lon="6.756564974784851">
        <ele>92.420000000000002</ele>
        <time>2023-08-15T07:44:38Z</time>
      </trkpt>
      <trkpt lat="50.843167025595903" lon="6.752742994576693">
        <ele>91.939999999999998</ele>
        <time>2023-08-15T07:44:48Z</time>
      </trkpt>
      <trkpt lat="50.844972990453243" lon="6.748899975791574">
        <ele>91.939999999999998</ele>
        <time>2023-08-15T07:44:57Z</time>
      </trkpt>
      <trkpt lat="50.846178978681564" lon="6.745632961392403">
        <ele>92.420000000000002</ele>
        <time>2023-08-15T07:45:04Z</time>
      </trkpt>
      <trkpt lat="50.847541037946939" lon="6.740674981847405">
        <ele>88.579999999999998</ele>
        <time>2023-08-15T07:45:14Z</time>
      </trkpt>
      <trkpt lat="50.849380027502775" lon="6.734344968572259">
        <ele>84.730000000000004</ele>
        <time>2023-08-15T07:45:27Z</time>
      </trkpt>
      <trkpt lat="50.851281965151429" lon="6.729905996471643">
        <ele>83.769999999999996</ele>
        <time>2023-08-15T07:45:37Z</time>
      </trkpt>
      <trkpt lat="50.853076027706265" lon="6.726704025641084">
        <ele>84.730000000000004</ele>
        <time>2023-08-15T07:45:45Z</time>
      </trkpt>
      <trkpt lat="50.856248997151852" lon="6.72188300639391">
        <ele>85.209999999999994</ele>
        <time>2023-08-15T07:45:58Z</time>
      </trkpt>
      <trkpt lat="50.859951032325625" lon="6.716360002756119">
        <ele>89.540000000000006</ele>
        <time>2023-08-15T07:46:13Z</time>
      </trkpt>
      <trkpt lat="50.862109959125519" lon="6.713666981086135">
        <ele>89.540000000000006</ele>
        <time>2023-08-15T07:46:21Z</time>
      </trkpt>
      <trkpt lat="50.864772973582149" lon="6.71133697964251">
        <ele>85.209999999999994</ele>
        <time>2023-08-15T07:46:30Z</time>
      </trkpt>
      <trkpt lat="50.867318976670504" lon="6.709885988384485">
        <ele>83.769999999999996</ele>
        <time>2023-08-15T07:46:38Z</time>
      </trkpt>
      <trkpt lat="50.869956007227302" lon="6.709009995684028">
        <ele>81.849999999999994</ele>
        <time>2023-08-15T07:46:46Z</time>
      </trkpt>
      <trkpt lat="50.873633986338973" lon="6.707993019372225">
        <ele>77.040000000000006</ele>
        <time>2023-08-15T07:46:57Z</time>
      </trkpt>
      <trkpt lat="50.876599000766873" lon="6.707018036395311">
        <ele>73.680000000000007</ele>
        <time>2023-08-15T07:47:06Z</time>
      </trkpt>
      <trkpt lat="50.879521016031504" lon="6.705775000154972">
        <ele>72.239999999999995</ele>
        <time>2023-08-15T07:47:15Z</time>
      </trkpt>
      <trkpt lat="50.882117981091142" lon="6.704490976408124">
        <ele>75.120000000000005</ele>
        <time>2023-08-15T07:47:24Z</time>
      </trkpt>
      <trkpt lat="50.883870972320437" lon="6.703546000644565">
        <ele>76.079999999999998</ele>
        <time>2023-08-15T07:47:31Z</time>
      </trkpt>
      <trkpt lat="50.88413399644196" lon="6.703384984284639">
        <ele>75.120000000000005</ele>
        <time>2023-08-15T07:47:32Z</time>
      </trkpt>
      <trkpt lat="50.886261994019151" lon="6.702028037980199">
        <ele>71.760000000000005</ele>
        <time>2023-08-15T07:47:41Z</time>
      </trkpt>
      <trkpt lat="50.888818977400661" lon="6.700247973203659">
        <ele>70.310000000000002</ele>
        <time>2023-08-15T07:47:52Z</time>
      </trkpt>
      <trkpt lat="50.890653021633625" lon="6.698819026350975">
        <ele>67.430000000000007</ele>
        <time>2023-08-15T07:48:01Z</time>
      </trkpt>
      <trkpt lat="50.892995009198785" lon="6.697056982666254">
        <ele>64.069999999999993</ele>
        <time>2023-08-15T07:48:12Z</time>
      </trkpt>
      <trkpt lat="50.894701983779669" lon="6.69563096947968">
        <ele>64.549999999999997</ele>
        <time>2023-08-15T07:48:21Z</time>
      </trkpt>
      <trkpt lat="50.894808014854789" lon="6.695540025830269">
        <ele>64.549999999999997</ele>
        <time>2023-08-15T07:48:22Z</time>
      </trkpt>
      <trkpt lat="50.89562801644206" lon="6.694969972595573">
        <ele>65.510000000000005</ele>
        <time>2023-08-15T07:48:28Z</time>
      </trkpt>
      <trkpt lat="50.895761037245393" lon="6.694943988695741">
        <ele>65.989999999999995</ele>
        <time>2023-08-15T07:48:30Z</time>
      </trkpt>
      <trkpt lat="50.89601400308311" lon="6.69502797536552">
        <ele>66.469999999999999</ele>
        <time>2023-08-15T07:48:31Z</time>
      </trkpt>
      <trkpt lat="50.896136965602636" lon="6.695112967863679">
        <ele>66.950000000000003</ele>
        <time>2023-08-15T07:48:32Z</time>
      </trkpt>
      <trkpt lat="50.896216006949544" lon="6.69528303667903">
        <ele>67.909999999999997</ele>
        <time>2023-08-15T07:48:33Z</time>
      </trkpt>
      <trkpt lat="50.896280966699123" lon="6.695470958948135">
        <ele>67.909999999999997</ele>
        <time>2023-08-15T07:48:34Z</time>
      </trkpt>
      <trkpt lat="50.896304016932845" lon="6.695699030533433">
        <ele>68.390000000000001</ele>
        <time>2023-08-15T07:48:35Z</time>
      </trkpt>
      <trkpt lat="50.89627300389111" lon="6.695883013308048">
        <ele>68.870000000000005</ele>
        <time>2023-08-15T07:48:36Z</time>
      </trkpt>
      <trkpt lat="50.896212989464402" lon="6.696061966940761">
        <ele>69.349999999999994</ele>
        <time>2023-08-15T07:48:37Z</time>
      </trkpt>
      <trkpt lat="50.896132020279765" lon="6.696220971643925">
        <ele>70.310000000000002</ele>
        <time>2023-08-15T07:48:38Z</time>
      </trkpt>
      <trkpt lat="50.896030012518167" lon="6.696356004104018">
        <ele>70.790000000000006</ele>
        <time>2023-08-15T07:48:39Z</time>
      </trkpt>
      <trkpt lat="50.895913001149893" lon="6.696440996602178">
        <ele>71.269999999999996</ele>
        <time>2023-08-15T07:48:40Z</time>
      </trkpt>
      <trkpt lat="50.895818034186959" lon="6.696509979665279">
        <ele>71.760000000000005</ele>
        <time>2023-08-15T07:48:41Z</time>
      </trkpt>
      <trkpt lat="50.895673027262092" lon="6.696533029899001">
        <ele>72.719999999999999</ele>
        <time>2023-08-15T07:48:42Z</time>
      </trkpt>
      <trkpt lat="50.895556015893817" lon="6.696549961343408">
        <ele>72.719999999999999</ele>
        <time>2023-08-15T07:48:43Z</time>
      </trkpt>
      <trkpt lat="50.895444033667445" lon="6.696472009643912">
        <ele>73.200000000000003</ele>
        <time>2023-08-15T07:48:44Z</time>
      </trkpt>
      <trkpt lat="50.895344959571958" lon="6.696354998275638">
        <ele>73.680000000000007</ele>
        <time>2023-08-15T07:48:45Z</time>
      </trkpt>
      <trkpt lat="50.895246975123882" lon="6.696201022714376">
        <ele>74.159999999999997</ele>
        <time>2023-08-15T07:48:46Z</time>
      </trkpt>
      <trkpt lat="50.895142033696175" lon="6.696033971384168">
        <ele>74.159999999999997</ele>
        <time>2023-08-15T07:48:47Z</time>
      </trkpt>
      <trkpt lat="50.894175013527274" lon="6.694175032898784">
        <ele>73.680000000000007</ele>
        <time>2023-08-15T07:48:55Z</time>
      </trkpt>
      <trkpt lat="50.893173040822148" lon="6.691877972334623">
        <ele>72.719999999999999</ele>
        <time>2023-08-15T07:49:02Z</time>
      </trkpt>
      <trkpt lat="50.892059002071619" lon="6.688766023144126">
        <ele>76.079999999999998</ele>
        <time>2023-08-15T07:49:10Z</time>
      </trkpt>
      <trkpt lat="50.891258027404547" lon="6.685765972360969">
        <ele>80.890000000000001</ele>
        <time>2023-08-15T07:49:17Z</time>
      </trkpt>
      <trkpt lat="50.890399971976876" lon="6.681316019967198">
        <ele>81.370000000000005</ele>
        <time>2023-08-15T07:49:27Z</time>
      </trkpt>
      <trkpt lat="50.890015996992588" lon="6.678636996075511">
        <ele>81.370000000000005</ele>
        <time>2023-08-15T07:49:34Z</time>
      </trkpt>
      <trkpt lat="50.889831008389592" lon="6.675130007788539">
        <ele>80.890000000000001</ele>
        <time>2023-08-15T07:49:44Z</time>
      </trkpt>
      <trkpt lat="50.889981966465712" lon="6.670851968228817">
        <ele>81.849999999999994</ele>
        <time>2023-08-15T07:49:56Z</time>
      </trkpt>
      <trkpt lat="50.890340963378549" lon="6.667441036552191">
        <ele>81.849999999999994</ele>
        <time>2023-08-15T07:50:04Z</time>
      </trkpt>
      <trkpt lat="50.890912022441626" lon="6.663618972525001">
        <ele>82.810000000000002</ele>
        <time>2023-08-15T07:50:12Z</time>
      </trkpt>
      <trkpt lat="50.892051961272955" lon="6.656337026506662">
        <ele>88.099999999999994</ele>
        <time>2023-08-15T07:50:27Z</time>
      </trkpt>
      <trkpt lat="50.89298696257174" lon="6.650238018482924">
        <ele>92.420000000000002</ele>
        <time>2023-08-15T07:50:40Z</time>
      </trkpt>
      <trkpt lat="50.893329028040171" lon="6.646731030195952">
        <ele>91.939999999999998</ele>
        <time>2023-08-15T07:50:48Z</time>
      </trkpt>
      <trkpt lat="50.893210005015135" lon="6.643104013055563">
        <ele>89.540000000000006</ele>
        <time>2023-08-15T07:50:56Z</time>
      </trkpt>
      <trkpt lat="50.892643975093961" lon="6.639753011986613">
        <ele>87.140000000000001</ele>
        <time>2023-08-15T07:51:03Z</time>
      </trkpt>
      <trkpt lat="50.891636973246932" lon="6.636485997587442">
        <ele>86.180000000000007</ele>
        <time>2023-08-15T07:51:10Z</time>
      </trkpt>
      <trkpt lat="50.890199979767203" lon="6.633722987025976">
        <ele>87.140000000000001</ele>
        <time>2023-08-15T07:51:17Z</time>
      </trkpt>
      <trkpt lat="50.888274991884828" lon="6.631065001711249">
        <ele>87.620000000000005</ele>
        <time>2023-08-15T07:51:25Z</time>
      </trkpt>
      <trkpt lat="50.88537996634841" lon="6.62724201567471">
        <ele>90.019999999999996</ele>
        <time>2023-08-15T07:51:37Z</time>
      </trkpt>
      <trkpt lat="50.883111990988255" lon="6.623577028512955">
        <ele>93.870000000000005</ele>
        <time>2023-08-15T07:51:48Z</time>
      </trkpt>
      <trkpt lat="50.881192032247782" lon="6.619493030011654">
        <ele>93.390000000000001</ele>
        <time>2023-08-15T07:51:58Z</time>
      </trkpt>
      <trkpt lat="50.878577968105674" lon="6.6130839753896">
        <ele>86.180000000000007</ele>
        <time>2023-08-15T07:52:13Z</time>
      </trkpt>
      <trkpt lat="50.876330025494099" lon="6.607550997287035">
        <ele>80.409999999999997</ele>
        <time>2023-08-15T07:52:26Z</time>
      </trkpt>
      <trkpt lat="50.874769985675812" lon="6.603713007643819">
        <ele>83.290000000000006</ele>
        <time>2023-08-15T07:52:35Z</time>
      </trkpt>
      <trkpt lat="50.872922027483582" lon="6.599141014739871">
        <ele>82.329999999999998</ele>
        <time>2023-08-15T07:52:46Z</time>
      </trkpt>
      <trkpt lat="50.871660970151424" lon="6.5960449911654">
        <ele>83.769999999999996</ele>
        <time>2023-08-15T07:52:54Z</time>
      </trkpt>
      <trkpt lat="50.869815023615956" lon="6.591353975236416">
        <ele>86.180000000000007</ele>
        <time>2023-08-15T07:53:07Z</time>
      </trkpt>
      <trkpt lat="50.86806396022439" lon="6.586793968454003">
        <ele>87.620000000000005</ele>
        <time>2023-08-15T07:53:20Z</time>
      </trkpt>
      <trkpt lat="50.866434015333652" lon="6.582566974684596">
        <ele>89.060000000000002</ele>
        <time>2023-08-15T07:53:32Z</time>
      </trkpt>
      <trkpt lat="50.864309035241604" lon="6.577070960775018">
        <ele>89.540000000000006</ele>
        <time>2023-08-15T07:53:48Z</time>
      </trkpt>
      <trkpt lat="50.863402029499412" lon="6.574726961553097">
        <ele>90.5</ele>
        <time>2023-08-15T07:53:55Z</time>
      </trkpt>
      <trkpt lat="50.86256300099194" lon="6.572545990347862">
        <ele>91.939999999999998</ele>
        <time>2023-08-15T07:54:02Z</time>
      </trkpt>
      <trkpt lat="50.861766971647739" lon="6.570475995540619">
        <ele>94.349999999999994</ele>
        <time>2023-08-15T07:54:10Z</time>
      </trkpt>
      <trkpt lat="50.8604980353266" lon="6.567179979756475">
        <ele>101.08</ele>
        <time>2023-08-15T07:54:22Z</time>
      </trkpt>
      <trkpt lat="50.85908099077642" lon="6.563498983159661">
        <ele>106.36</ele>
        <time>2023-08-15T07:54:34Z</time>
      </trkpt>
      <trkpt lat="50.857742987573147" lon="6.560024013742805">
        <ele>108.77</ele>
        <time>2023-08-15T07:54:44Z</time>
      </trkpt>
      <trkpt lat="50.855928976088762" lon="6.555355964228511">
        <ele>111.65000000000001</ele>
        <time>2023-08-15T07:54:55Z</time>
      </trkpt>
      <trkpt lat="50.853998959064484" lon="6.550374012440443">
        <ele>115.98</ele>
        <time>2023-08-15T07:55:07Z</time>
      </trkpt>
      <trkpt lat="50.851960983127356" lon="6.545112021267414">
        <ele>116.94</ele>
        <time>2023-08-15T07:55:20Z</time>
      </trkpt>
      <trkpt lat="50.849766014143825" lon="6.539443004876375">
        <ele>117.90000000000001</ele>
        <time>2023-08-15T07:55:34Z</time>
      </trkpt>
      <trkpt lat="50.847468031570315" lon="6.533356988802552">
        <ele>122.70999999999999</ele>
        <time>2023-08-15T07:55:49Z</time>
      </trkpt>
      <trkpt lat="50.846562031656504" lon="6.530148983001709">
        <ele>124.63</ele>
        <time>2023-08-15T07:55:56Z</time>
      </trkpt>
      <trkpt lat="50.846092980355024" lon="6.526602013036609">
        <ele>125.59</ele>
        <time>2023-08-15T07:56:03Z</time>
      </trkpt>
      <trkpt lat="50.846093986183405" lon="6.52297499589622">
        <ele>126.06999999999999</ele>
        <time>2023-08-15T07:56:10Z</time>
      </trkpt>
      <trkpt lat="50.846505034714937" lon="6.519949967041612">
        <ele>126.06999999999999</ele>
        <time>2023-08-15T07:56:16Z</time>
      </trkpt>
      <trkpt lat="50.847397036850452" lon="6.516645988449454">
        <ele>123.67</ele>
        <time>2023-08-15T07:56:23Z</time>
      </trkpt>
      <trkpt lat="50.849301991984248" lon="6.511837039142847">
        <ele>119.34</ele>
        <time>2023-08-15T07:56:34Z</time>
      </trkpt>
      <trkpt lat="50.850932020694017" lon="6.507249036803842">
        <ele>119.81999999999999</ele>
        <time>2023-08-15T07:56:44Z</time>
      </trkpt>
      <trkpt lat="50.85158203728497" lon="6.503630988299847">
        <ele>120.78</ele>
        <time>2023-08-15T07:56:51Z</time>
      </trkpt>
      <trkpt lat="50.851723020896316" lon="6.499343980103731">
        <ele>121.26000000000001</ele>
        <time>2023-08-15T07:56:59Z</time>
      </trkpt>
      <trkpt lat="50.85128297097981" lon="6.49564697407186">
        <ele>120.3</ele>
        <time>2023-08-15T07:57:06Z</time>
      </trkpt>
      <trkpt lat="50.850360039621592" lon="6.492191031575203">
        <ele>117.90000000000001</ele>
        <time>2023-08-15T07:57:13Z</time>
      </trkpt>
      <trkpt lat="50.848234975710511" lon="6.485424991697073">
        <ele>115.98</ele>
        <time>2023-08-15T07:57:27Z</time>
      </trkpt>
      <trkpt lat="50.846418030560017" lon="6.479641981422901">
        <ele>119.34</ele>
        <time>2023-08-15T07:57:39Z</time>
      </trkpt>
      <trkpt lat="50.843846965581179" lon="6.47143098525703">
        <ele>118.86</ele>
        <time>2023-08-15T07:57:56Z</time>
      </trkpt>
      <trkpt lat="50.841743024066091" lon="6.464677015319467">
        <ele>112.61</ele>
        <time>2023-08-15T07:58:10Z</time>
      </trkpt>
      <trkpt lat="50.840644994750619" lon="6.460793009027839">
        <ele>112.13</ele>
        <time>2023-08-15T07:58:18Z</time>
      </trkpt>
      <trkpt lat="50.839387038722634" lon="6.45520999096334">
        <ele>107.81</ele>
        <time>2023-08-15T07:58:29Z</time>
      </trkpt>
      <trkpt lat="50.838536024093628" lon="6.451163040474057">
        <ele>107.81</ele>
        <time>2023-08-15T07:58:37Z</time>
      </trkpt>
      <trkpt lat="50.837830016389489" lon="6.447825031355023">
        <ele>110.20999999999999</ele>
        <time>2023-08-15T07:58:44Z</time>
      </trkpt>
      <trkpt lat="50.836657974869013" lon="6.442293981090188">
        <ele>112.61</ele>
        <time>2023-08-15T07:58:55Z</time>
      </trkpt>
      <trkpt lat="50.835688021034002" lon="6.436590012162924">
        <ele>116.94</ele>
        <time>2023-08-15T07:59:06Z</time>
      </trkpt>
      <trkpt lat="50.835449974983931" lon="6.431752983480692">
        <ele>114.53</ele>
        <time>2023-08-15T07:59:15Z</time>
      </trkpt>
      <trkpt lat="50.835444023832679" lon="6.424773037433624">
        <ele>113.56999999999999</ele>
        <time>2023-08-15T07:59:28Z</time>
      </trkpt>
      <trkpt lat="50.835500014945865" lon="6.416728002950549">
        <ele>115.98</ele>
        <time>2023-08-15T07:59:43Z</time>
      </trkpt>
      <trkpt lat="50.835517030209303" lon="6.41028500162065">
        <ele>115.98</ele>
        <time>2023-08-15T07:59:55Z</time>
      </trkpt>
      <trkpt lat="50.835544019937515" lon="6.405459037050605">
        <ele>118.38</ele>
        <time>2023-08-15T08:00:04Z</time>
      </trkpt>
      <trkpt lat="50.835541002452374" lon="6.399014024063945">
        <ele>120.78</ele>
        <time>2023-08-15T08:00:16Z</time>
      </trkpt>
      <trkpt lat="50.835496997460723" lon="6.393098998814821">
        <ele>123.67</ele>
        <time>2023-08-15T08:00:27Z</time>
      </trkpt>
      <trkpt lat="50.835457015782595" lon="6.386096002534032">
        <ele>122.70999999999999</ele>
        <time>2023-08-15T08:00:40Z</time>
      </trkpt>
      <trkpt lat="50.835457015782595" lon="6.378569975495338">
        <ele>121.26000000000001</ele>
        <time>2023-08-15T08:00:54Z</time>
      </trkpt>
      <trkpt lat="50.835403958335519" lon="6.370492000132799">
        <ele>115.98</ele>
        <time>2023-08-15T08:01:09Z</time>
      </trkpt>
      <trkpt lat="50.835271021351218" lon="6.363006038591266">
        <ele>105.88</ele>
        <time>2023-08-15T08:01:23Z</time>
      </trkpt>
      <trkpt lat="50.834843041375279" lon="6.358243022114039">
        <ele>103.95999999999999</ele>
        <time>2023-08-15T08:01:32Z</time>
      </trkpt>
      <trkpt lat="50.834371978417039" lon="6.353459972888231">
        <ele>104.92</ele>
        <time>2023-08-15T08:01:41Z</time>
      </trkpt>
      <trkpt lat="50.833593970164657" lon="6.345504960045219">
        <ele>107.81</ele>
        <time>2023-08-15T08:01:56Z</time>
      </trkpt>
      <trkpt lat="50.833174958825111" lon="6.33908299729228">
        <ele>112.61</ele>
        <time>2023-08-15T08:02:08Z</time>
      </trkpt>
      <trkpt lat="50.833287024870515" lon="6.334260972216725">
        <ele>111.65000000000001</ele>
        <time>2023-08-15T08:02:17Z</time>
      </trkpt>
      <trkpt lat="50.833481987938285" lon="6.327304998412728">
        <ele>121.73999999999999</ele>
        <time>2023-08-15T08:02:30Z</time>
      </trkpt>
      <trkpt lat="50.833266992121935" lon="6.323028970509768">
        <ele>127.51000000000001</ele>
        <time>2023-08-15T08:02:38Z</time>
      </trkpt>
      <trkpt lat="50.83254799246788" lon="6.31832898594439">
        <ele>127.98999999999999</ele>
        <time>2023-08-15T08:02:47Z</time>
      </trkpt>
      <trkpt lat="50.831563035026193" lon="6.313196998089552">
        <ele>126.06999999999999</ele>
        <time>2023-08-15T08:02:57Z</time>
      </trkpt>
      <trkpt lat="50.831049978733063" lon="6.30842300131917">
        <ele>125.11</ele>
        <time>2023-08-15T08:03:06Z</time>
      </trkpt>
      <trkpt lat="50.83074102178216" lon="6.302538989111781">
        <ele>126.06999999999999</ele>
        <time>2023-08-15T08:03:17Z</time>
      </trkpt>
      <trkpt lat="50.830302983522415" lon="6.297226035967469">
        <ele>133.28</ele>
        <time>2023-08-15T08:03:27Z</time>
      </trkpt>
      <trkpt lat="50.829437971115112" lon="6.290911026299">
        <ele>144.34</ele>
        <time>2023-08-15T08:03:39Z</time>
      </trkpt>
      <trkpt lat="50.828975960612297" lon="6.285593966022134">
        <ele>150.58000000000001</ele>
        <time>2023-08-15T08:03:49Z</time>
      </trkpt>
      <trkpt lat="50.828443039208651" lon="6.278230967000127">
        <ele>159.24000000000001</ele>
        <time>2023-08-15T08:04:03Z</time>
      </trkpt>
      <trkpt lat="50.827980022877455" lon="6.271586967632175">
        <ele>165.47999999999999</ele>
        <time>2023-08-15T08:04:16Z</time>
      </trkpt>
      <trkpt lat="50.827623037621379" lon="6.266488004475832">
        <ele>165.96000000000001</ele>
        <time>2023-08-15T08:04:26Z</time>
      </trkpt>
      <trkpt lat="50.82713202573359" lon="6.259546028450131">
        <ele>162.12</ele>
        <time>2023-08-15T08:04:40Z</time>
      </trkpt>
      <trkpt lat="50.826822984963655" lon="6.255884980782867">
        <ele>163.56</ele>
        <time>2023-08-15T08:04:48Z</time>
      </trkpt>
      <trkpt lat="50.826112031936646" lon="6.249826038256288">
        <ele>162.59999999999999</ele>
        <time>2023-08-15T08:05:01Z</time>
      </trkpt>
      <trkpt lat="50.825700983405113" lon="6.244236985221505">
        <ele>164.03999999999999</ele>
        <time>2023-08-15T08:05:13Z</time>
      </trkpt>
      <trkpt lat="50.825474001467228" lon="6.240976005792618">
        <ele>169.33000000000001</ele>
        <time>2023-08-15T08:05:20Z</time>
      </trkpt>
      <trkpt lat="50.824909983202815" lon="6.234451029449701">
        <ele>184.22999999999999</ele>
        <time>2023-08-15T08:05:34Z</time>
      </trkpt>
      <trkpt lat="50.824272958561778" lon="6.230812026187778">
        <ele>190.47999999999999</ele>
        <time>2023-08-15T08:05:42Z</time>
      </trkpt>
      <trkpt lat="50.823151962831616" lon="6.22695098631084">
        <ele>193.84</ele>
        <time>2023-08-15T08:05:51Z</time>
      </trkpt>
      <trkpt lat="50.821647997945547" lon="6.223432011902332">
        <ele>197.69</ele>
        <time>2023-08-15T08:06:00Z</time>
      </trkpt>
      <trkpt lat="50.821467032656074" lon="6.22306396253407">
        <ele>198.16999999999999</ele>
        <time>2023-08-15T08:06:01Z</time>
      </trkpt>
      <trkpt lat="50.818522972986102" lon="6.217178022488952">
        <ele>208.74000000000001</ele>
        <time>2023-08-15T08:06:17Z</time>
      </trkpt>
      <trkpt lat="50.815745964646339" lon="6.211604978889227">
        <ele>211.15000000000001</ele>
        <time>2023-08-15T08:06:32Z</time>
      </trkpt>
      <trkpt lat="50.812794025987387" lon="6.205688025802374">
        <ele>207.30000000000001</ele>
        <time>2023-08-15T08:06:48Z</time>
      </trkpt>
      <trkpt lat="50.810072002932429" lon="6.200068965554237">
        <ele>206.34</ele>
        <time>2023-08-15T08:07:03Z</time>
      </trkpt>
      <trkpt lat="50.808464018628001" lon="6.196083035320044">
        <ele>202.49000000000001</ele>
        <time>2023-08-15T08:07:13Z</time>
      </trkpt>
      <trkpt lat="50.807510996237397" lon="6.192758018150926">
        <ele>195.28</ele>
        <time>2023-08-15T08:07:21Z</time>
      </trkpt>
      <trkpt lat="50.806734999641776" lon="6.188674019649625">
        <ele>184.71000000000001</ele>
        <time>2023-08-15T08:07:31Z</time>
      </trkpt>
      <trkpt lat="50.80609898082912" lon="6.184561019763351">
        <ele>177.97999999999999</ele>
        <time>2023-08-15T08:07:41Z</time>
      </trkpt>
      <trkpt lat="50.80556396394968" lon="6.180980019271374">
        <ele>176.06</ele>
        <time>2023-08-15T08:07:50Z</time>
      </trkpt>
      <trkpt lat="50.804965998977423" lon="6.176771968603134">
        <ele>177.5</ele>
        <time>2023-08-15T08:08:01Z</time>
      </trkpt>
      <trkpt lat="50.804726025089622" lon="6.173322983086109">
        <ele>179.90000000000001</ele>
        <time>2023-08-15T08:08:11Z</time>
      </trkpt>
      <trkpt lat="50.804686965420842" lon="6.17109096609056">
        <ele>182.78999999999999</ele>
        <time>2023-08-15T08:08:20Z</time>
      </trkpt>
      <trkpt lat="50.804686965420842" lon="6.170926010236144">
        <ele>183.75</ele>
        <time>2023-08-15T08:08:21Z</time>
      </trkpt>
      <trkpt lat="50.804686965420842" lon="6.170755019411445">
        <ele>184.71000000000001</ele>
        <time>2023-08-15T08:08:22Z</time>
      </trkpt>
      <trkpt lat="50.804751003161073" lon="6.169335041195154">
        <ele>192.88</ele>
        <time>2023-08-15T08:08:28Z</time>
      </trkpt>
      <trkpt lat="50.804769024252892" lon="6.169152986258268">
        <ele>193.84</ele>
        <time>2023-08-15T08:08:30Z</time>
      </trkpt>
      <trkpt lat="50.804952001199126" lon="6.168946959078312">
        <ele>193.84</ele>
        <time>2023-08-15T08:08:32Z</time>
      </trkpt>
      <trkpt lat="50.805100025609136" lon="6.168793989345431">
        <ele>193.36000000000001</ele>
        <time>2023-08-15T08:08:33Z</time>
      </trkpt>
      <trkpt lat="50.805178983137012" lon="6.168786026537418">
        <ele>193.84</ele>
        <time>2023-08-15T08:08:34Z</time>
      </trkpt>
      <trkpt lat="50.805331030860543" lon="6.168802035972476">
        <ele>194.31999999999999</ele>
        <time>2023-08-15T08:08:35Z</time>
      </trkpt>
      <trkpt lat="50.805403031408787" lon="6.168849980458617">
        <ele>194.80000000000001</ele>
        <time>2023-08-15T08:08:36Z</time>
      </trkpt>
      <trkpt lat="50.805506967008114" lon="6.16896104067564">
        <ele>195.28</ele>
        <time>2023-08-15T08:08:37Z</time>
      </trkpt>
      <trkpt lat="50.805592965334654" lon="6.169094983488321">
        <ele>196.25</ele>
        <time>2023-08-15T08:08:38Z</time>
      </trkpt>
      <trkpt lat="50.805666977539659" lon="6.169246025383472">
        <ele>196.72999999999999</ele>
        <time>2023-08-15T08:08:39Z</time>
      </trkpt>
      <trkpt lat="50.805705031380057" lon="6.169405030086637">
        <ele>197.69</ele>
        <time>2023-08-15T08:08:40Z</time>
      </trkpt>
      <trkpt lat="50.805741995573044" lon="6.169561017304659">
        <ele>198.16999999999999</ele>
        <time>2023-08-15T08:08:41Z</time>
      </trkpt>
      <trkpt lat="50.805780971422791" lon="6.169724967330694">
        <ele>198.65000000000001</ele>
        <time>2023-08-15T08:08:42Z</time>
      </trkpt>
      <trkpt lat="50.805780971422791" lon="6.169881038367748">
        <ele>199.13</ele>
        <time>2023-08-15T08:08:43Z</time>
      </trkpt>
      <trkpt lat="50.805734032765031" lon="6.170052029192448">
        <ele>199.61000000000001</ele>
        <time>2023-08-15T08:08:44Z</time>
      </trkpt>
      <trkpt lat="50.805674018338323" lon="6.170197036117315">
        <ele>199.61000000000001</ele>
        <time>2023-08-15T08:08:45Z</time>
      </trkpt>
      <trkpt lat="50.805578967556357" lon="6.170283034443855">
        <ele>200.09</ele>
        <time>2023-08-15T08:08:46Z</time>
      </trkpt>
      <trkpt lat="50.805488023906946" lon="6.170367021113634">
        <ele>200.09</ele>
        <time>2023-08-15T08:08:47Z</time>
      </trkpt>
      <trkpt lat="50.805398002266884" lon="6.170432986691594">
        <ele>200.56999999999999</ele>
        <time>2023-08-15T08:08:48Z</time>
      </trkpt>
      <trkpt lat="50.805287025868893" lon="6.170439021661878">
        <ele>200.56999999999999</ele>
        <time>2023-08-15T08:08:49Z</time>
      </trkpt>
      <trkpt lat="50.805168002843857" lon="6.170443966984749">
        <ele>200.56999999999999</ele>
        <time>2023-08-15T08:08:50Z</time>
      </trkpt>
      <trkpt lat="50.805037999525666" lon="6.170450001955032">
        <ele>200.56999999999999</ele>
        <time>2023-08-15T08:08:51Z</time>
      </trkpt>
      <trkpt lat="50.80369203351438" lon="6.170236011967063">
        <ele>198.65000000000001</ele>
        <time>2023-08-15T08:09:00Z</time>
      </trkpt>
      <trkpt lat="50.802056975662708" lon="6.170055968686938">
        <ele>197.21000000000001</ele>
        <time>2023-08-15T08:09:09Z</time>
      </trkpt>
      <trkpt lat="50.799205033108592" lon="6.169512988999486">
        <ele>195.28</ele>
        <time>2023-08-15T08:09:22Z</time>
      </trkpt>
      <trkpt lat="50.796710997819901" lon="6.169222975149751">
        <ele>191.91999999999999</ele>
        <time>2023-08-15T08:09:31Z</time>
      </trkpt>
      <trkpt lat="50.79421897418797" lon="6.169402012601495">
        <ele>193.36000000000001</ele>
        <time>2023-08-15T08:09:40Z</time>
      </trkpt>
      <trkpt lat="50.792184015735984" lon="6.169967036694288">
        <ele>193.36000000000001</ele>
        <time>2023-08-15T08:09:48Z</time>
      </trkpt>
      <trkpt lat="50.789964990690351" lon="6.171034974977374">
        <ele>194.80000000000001</ele>
        <time>2023-08-15T08:09:56Z</time>
      </trkpt>
      <trkpt lat="50.787638006731868" lon="6.17274303920567">
        <ele>197.69</ele>
        <time>2023-08-15T08:10:05Z</time>
      </trkpt>
      <trkpt lat="50.784615995362401" lon="6.175211006775498">
        <ele>204.90000000000001</ele>
        <time>2023-08-15T08:10:15Z</time>
      </trkpt>
      <trkpt lat="50.781664978712797" lon="6.176738021895289">
        <ele>211.63</ele>
        <time>2023-08-15T08:10:25Z</time>
      </trkpt>
      <trkpt lat="50.779183013364673" lon="6.177409999072552">
        <ele>223.16</ele>
        <time>2023-08-15T08:10:33Z</time>
      </trkpt>
      <trkpt lat="50.776225961744785" lon="6.177450986579061">
        <ele>227.97</ele>
        <time>2023-08-15T08:10:42Z</time>
      </trkpt>
      <trkpt lat="50.773532018065453" lon="6.176762999966741">
        <ele>226.53</ele>
        <time>2023-08-15T08:10:50Z</time>
      </trkpt>
      <trkpt lat="50.770597010850906" lon="6.17514998652041">
        <ele>224.12</ele>
        <time>2023-08-15T08:10:59Z</time>
      </trkpt>
      <trkpt lat="50.768182016909122" lon="6.173058031126857">
        <ele>221.24000000000001</ele>
        <time>2023-08-15T08:11:07Z</time>
      </trkpt>
      <trkpt lat="50.766107998788357" lon="6.170508004724979">
        <ele>221.72</ele>
        <time>2023-08-15T08:11:15Z</time>
      </trkpt>
      <trkpt lat="50.76454603113234" lon="6.167885977774859">
        <ele>224.61000000000001</ele>
        <time>2023-08-15T08:11:23Z</time>
      </trkpt>
      <trkpt lat="50.763024967163801" lon="6.164660034701228">
        <ele>229.41</ele>
        <time>2023-08-15T08:11:32Z</time>
      </trkpt>
      <trkpt lat="50.76160398311913" lon="6.161501985043287">
        <ele>233.74000000000001</ele>
        <time>2023-08-15T08:11:41Z</time>
      </trkpt>
      <trkpt lat="50.75979801826179" lon="6.15802600979805">
        <ele>239.50999999999999</ele>
        <time>2023-08-15T08:11:52Z</time>
      </trkpt>
      <trkpt lat="50.758291035890579" lon="6.15549098700285">
        <ele>243.83000000000001</ele>
        <time>2023-08-15T08:12:01Z</time>
      </trkpt>
      <trkpt lat="50.756352972239256" lon="6.152691012248397">
        <ele>245.27000000000001</ele>
        <time>2023-08-15T08:12:11Z</time>
      </trkpt>
      <trkpt lat="50.754069993272424" lon="6.14983999170363">
        <ele>250.08000000000001</ele>
        <time>2023-08-15T08:12:21Z</time>
      </trkpt>
      <trkpt lat="50.751231964677572" lon="6.146880006417632">
        <ele>258.25</ele>
        <time>2023-08-15T08:12:33Z</time>
      </trkpt>
      <trkpt lat="50.748858964070678" lon="6.144852004945278">
        <ele>260.64999999999998</ele>
        <time>2023-08-15T08:12:42Z</time>
      </trkpt>
      <trkpt lat="50.746481018140912" lon="6.143161039799452">
        <ele>262.57999999999998</ele>
        <time>2023-08-15T08:12:51Z</time>
      </trkpt>
      <trkpt lat="50.744038028642535" lon="6.141683980822563">
        <ele>263.54000000000002</ele>
        <time>2023-08-15T08:13:01Z</time>
      </trkpt>
      <trkpt lat="50.741285998374224" lon="6.140207005664706">
        <ele>268.35000000000002</ele>
        <time>2023-08-15T08:13:11Z</time>
      </trkpt>
      <trkpt lat="50.738001968711615" lon="6.138495001941919">
        <ele>270.26999999999998</ele>
        <time>2023-08-15T08:13:22Z</time>
      </trkpt>
      <trkpt lat="50.735928034409881" lon="6.137410970404744">
        <ele>272.19</ele>
        <time>2023-08-15T08:13:29Z</time>
      </trkpt>
      <trkpt lat="50.733331991359591" lon="6.136074978858233">
        <ele>273.63</ele>
        <time>2023-08-15T08:13:38Z</time>
      </trkpt>
      <trkpt lat="50.731581011787057" lon="6.13516797311604">
        <ele>274.58999999999997</ele>
        <time>2023-08-15T08:13:44Z</time>
      </trkpt>
      <trkpt lat="50.728183994069695" lon="6.133342981338501">
        <ele>277.48000000000002</ele>
        <time>2023-08-15T08:13:56Z</time>
      </trkpt>
      <trkpt lat="50.725841000676155" lon="6.131683029234409">
        <ele>280.83999999999997</ele>
        <time>2023-08-15T08:14:05Z</time>
      </trkpt>
      <trkpt lat="50.723690036684275" lon="6.12951697781682">
        <ele>284.69</ele>
        <time>2023-08-15T08:14:14Z</time>
      </trkpt>
      <trkpt lat="50.722304005175829" lon="6.127735991030932">
        <ele>286.61000000000001</ele>
        <time>2023-08-15T08:14:21Z</time>
      </trkpt>
      <trkpt lat="50.720481025055051" lon="6.124678021296859">
        <ele>288.05000000000001</ele>
        <time>2023-08-15T08:14:32Z</time>
      </trkpt>
      <trkpt lat="50.71968499571085" lon="6.123098032549024">
        <ele>289.00999999999999</ele>
        <time>2023-08-15T08:14:39Z</time>
      </trkpt>
      <trkpt lat="50.719588017091155" lon="6.122707016766071">
        <ele>289.49000000000001</ele>
        <time>2023-08-15T08:14:41Z</time>
      </trkpt>
      <trkpt lat="50.719543006271124" lon="6.12255304120481">
        <ele>289.97000000000003</ele>
        <time>2023-08-15T08:14:42Z</time>
      </trkpt>
      <trkpt lat="50.719500007107854" lon="6.122409962117672">
        <ele>289.97000000000003</ele>
        <time>2023-08-15T08:14:43Z</time>
      </trkpt>
      <trkpt lat="50.719503024592996" lon="6.122333016246557">
        <ele>289.97000000000003</ele>
        <time>2023-08-15T08:14:44Z</time>
      </trkpt>
      <trkpt lat="50.719445021823049" lon="6.122306026518345">
        <ele>289.49000000000001</ele>
        <time>2023-08-15T08:14:45Z</time>
      </trkpt>
      <trkpt lat="50.719415014609694" lon="6.122249029576778">
        <ele>289.49000000000001</ele>
        <time>2023-08-15T08:14:46Z</time>
      </trkpt>
      <trkpt lat="50.71938500739634" lon="6.122192032635212">
        <ele>289.49000000000001</ele>
        <time>2023-08-15T08:14:47Z</time>
      </trkpt>
      <trkpt lat="50.719253998249769" lon="6.121946023777127">
        <ele>289.97000000000003</ele>
        <time>2023-08-15T08:14:50Z</time>
      </trkpt>
      <trkpt lat="50.718743037432432" lon="6.120856963098049">
        <ele>289.00999999999999</ele>
        <time>2023-08-15T08:14:59Z</time>
      </trkpt>
      <trkpt lat="50.718643041327596" lon="6.120603997260332">
        <ele>289.00999999999999</ele>
        <time>2023-08-15T08:15:01Z</time>
      </trkpt>
      <trkpt lat="50.718647986650467" lon="6.120486985892057">
        <ele>289.00999999999999</ele>
        <time>2023-08-15T08:15:02Z</time>
      </trkpt>
      <trkpt lat="50.718658966943622" lon="6.120252963155508">
        <ele>288.52999999999997</ele>
        <time>2023-08-15T08:15:04Z</time>
      </trkpt>
      <trkpt lat="50.718655027449131" lon="6.120140980929136">
        <ele>288.05000000000001</ele>
        <time>2023-08-15T08:15:05Z</time>
      </trkpt>
      <trkpt lat="50.718612028285861" lon="6.12006202340126">
        <ele>288.05000000000001</ele>
        <time>2023-08-15T08:15:07Z</time>
      </trkpt>
      <trkpt lat="50.718277003616095" lon="6.119319973513484">
        <ele>288.05000000000001</ele>
        <time>2023-08-15T08:15:18Z</time>
      </trkpt>
      <trkpt lat="50.718130990862846" lon="6.119043035432696">
        <ele>286.61000000000001</ele>
        <time>2023-08-15T08:15:29Z</time>
      </trkpt>
      <trkpt lat="50.718130990862846" lon="6.119043035432696">
        <ele>286.61000000000001</ele>
        <time>2023-08-15T08:16:05Z</time>
      </trkpt>
      <trkpt lat="50.718135014176369" lon="6.119010010734201">
        <ele>286.13</ele>
        <time>2023-08-15T08:16:18Z</time>
      </trkpt>
      <trkpt lat="50.718144988641143" lon="6.118917977437377">
        <ele>283.73000000000002</ele>
        <time>2023-08-15T08:16:19Z</time>
      </trkpt>
      <trkpt lat="50.718148006126285" lon="6.118890987709165">
        <ele>283.73000000000002</ele>
        <time>2023-08-15T08:16:20Z</time>
      </trkpt>
      <trkpt lat="50.718187987804413" lon="6.118825022131205">
        <ele>283.73000000000002</ele>
        <time>2023-08-15T08:16:21Z</time>
      </trkpt>
      <trkpt lat="50.718215983361006" lon="6.118777999654412">
        <ele>283.73000000000002</ele>
        <time>2023-08-15T08:16:22Z</time>
      </trkpt>
      <trkpt lat="50.718277003616095" lon="6.118676997721195">
        <ele>283.25</ele>
        <time>2023-08-15T08:16:23Z</time>
      </trkpt>
      <trkpt lat="50.718287983909249" lon="6.118646990507841">
        <ele>282.76999999999998</ele>
        <time>2023-08-15T08:16:24Z</time>
      </trkpt>
      <trkpt lat="50.718313967809081" lon="6.118580019101501">
        <ele>281.80000000000001</ele>
        <time>2023-08-15T08:16:25Z</time>
      </trkpt>
      <trkpt lat="50.718339029699564" lon="6.118512963876128">
        <ele>280.83999999999997</ele>
        <time>2023-08-15T08:16:26Z</time>
      </trkpt>
      <trkpt lat="50.718269040808082" lon="6.118351025506854">
        <ele>280.36000000000001</ele>
        <time>2023-08-15T08:16:27Z</time>
      </trkpt>
      <trkpt lat="50.718241967260838" lon="6.118292016908526">
        <ele>279.39999999999998</ele>
        <time>2023-08-15T08:16:28Z</time>
      </trkpt>
      <trkpt lat="50.718211960047483" lon="6.118227979168296">
        <ele>278.92000000000002</ele>
        <time>2023-08-15T08:16:29Z</time>
      </trkpt>
      <trkpt lat="50.7181800249964" lon="6.118158996105194">
        <ele>277.48000000000002</ele>
        <time>2023-08-15T08:16:30Z</time>
      </trkpt>
      <trkpt lat="50.718149011954665" lon="6.118092024698854">
        <ele>276.51999999999998</ele>
        <time>2023-08-15T08:16:31Z</time>
      </trkpt>
      <trkpt lat="50.71811699308455" lon="6.118023963645101">
        <ele>275.56</ele>
        <time>2023-08-15T08:16:32Z</time>
      </trkpt>
      <trkpt lat="50.718085980042815" lon="6.117959003895521">
        <ele>274.58999999999997</ele>
        <time>2023-08-15T08:16:33Z</time>
      </trkpt>
      <trkpt lat="50.718004005029798" lon="6.117852972820401">
        <ele>271.70999999999998</ele>
        <time>2023-08-15T08:16:36Z</time>
      </trkpt>
      <trkpt lat="50.717749027535319" lon="6.117620961740613">
        <ele>268.82999999999998</ele>
        <time>2023-08-15T08:16:40Z</time>
      </trkpt>
      <trkpt lat="50.717712985351682" lon="6.11754896119237">
        <ele>267.86000000000001</ele>
        <time>2023-08-15T08:16:41Z</time>
      </trkpt>
      <trkpt lat="50.717611983418465" lon="6.117346035316587">
        <ele>266.42000000000002</ele>
        <time>2023-08-15T08:16:43Z</time>
      </trkpt>
      <trkpt lat="50.717559009790421" lon="6.117302030324936">
        <ele>265.45999999999998</ele>
        <time>2023-08-15T08:16:44Z</time>
      </trkpt>
      <trkpt lat="50.717503018677235" lon="6.117256013676524">
        <ele>264.98000000000002</ele>
        <time>2023-08-15T08:16:45Z</time>
      </trkpt>
      <trkpt lat="50.717482985928655" lon="6.117238998413086">
        <ele>264.01999999999998</ele>
        <time>2023-08-15T08:16:46Z</time>
      </trkpt>
      <trkpt lat="50.717362035065889" lon="6.117217037826777">
        <ele>263.54000000000002</ele>
        <time>2023-08-15T08:16:47Z</time>
      </trkpt>
      <trkpt lat="50.717297997325659" lon="6.11720496788621">
        <ele>263.06</ele>
        <time>2023-08-15T08:16:48Z</time>
      </trkpt>
      <trkpt lat="50.717247035354376" lon="6.117195999249816">
        <ele>262.57999999999998</ele>
        <time>2023-08-15T08:16:49Z</time>
      </trkpt>
      <trkpt lat="50.717205964028835" lon="6.117189964279532">
        <ele>262.57999999999998</ele>
        <time>2023-08-15T08:16:50Z</time>
      </trkpt>
      <trkpt lat="50.717149972915649" lon="6.11718200147152">
        <ele>261.62</ele>
        <time>2023-08-15T08:16:51Z</time>
      </trkpt>
      <trkpt lat="50.717071015387774" lon="6.117143025621772">
        <ele>261.13999999999999</ele>
        <time>2023-08-15T08:16:52Z</time>
      </trkpt>
      <trkpt lat="50.717009995132685" lon="6.117069013416767">
        <ele>260.64999999999998</ele>
        <time>2023-08-15T08:16:53Z</time>
      </trkpt>
      <trkpt lat="50.716941012069583" lon="6.116985026746988">
        <ele>260.64999999999998</ele>
        <time>2023-08-15T08:16:54Z</time>
      </trkpt>
      <trkpt lat="50.716862976551056" lon="6.116888970136643">
        <ele>260.64999999999998</ele>
        <time>2023-08-15T08:16:55Z</time>
      </trkpt>
      <trkpt lat="50.716774966567755" lon="6.116782017052174">
        <ele>260.64999999999998</ele>
        <time>2023-08-15T08:16:56Z</time>
      </trkpt>
      <trkpt lat="50.716673964634538" lon="6.11662401817739">
        <ele>260.64999999999998</ele>
        <time>2023-08-15T08:16:57Z</time>
      </trkpt>
      <trkpt lat="50.716587966307998" lon="6.116438023746014">
        <ele>260.17000000000002</ele>
        <time>2023-08-15T08:16:58Z</time>
      </trkpt>
      <trkpt lat="50.715795960277319" lon="6.114728031679988">
        <ele>260.17000000000002</ele>
        <time>2023-08-15T08:17:05Z</time>
      </trkpt>
      <trkpt lat="50.715393964201212" lon="6.113860001787543">
        <ele>260.17000000000002</ele>
        <time>2023-08-15T08:17:08Z</time>
      </trkpt>
      <trkpt lat="50.715257003903389" lon="6.113567976281047">
        <ele>259.69</ele>
        <time>2023-08-15T08:17:09Z</time>
      </trkpt>
      <trkpt lat="50.71341298520565" lon="6.109607024118304">
        <ele>259.20999999999998</ele>
        <time>2023-08-15T08:17:22Z</time>
      </trkpt>
      <trkpt lat="50.711676003411412" lon="6.105872970074415">
        <ele>257.76999999999998</ele>
        <time>2023-08-15T08:17:34Z</time>
      </trkpt>
      <trkpt lat="50.709696030244231" lon="6.10158403404057">
        <ele>256.81</ele>
        <time>2023-08-15T08:17:48Z</time>
      </trkpt>
      <trkpt lat="50.707776993513107" lon="6.097448989748955">
        <ele>254.41</ele>
        <time>2023-08-15T08:18:01Z</time>
      </trkpt>
      <trkpt lat="50.706262970343232" lon="6.094190021976829">
        <ele>253.93000000000001</ele>
        <time>2023-08-15T08:18:11Z</time>
      </trkpt>
      <trkpt lat="50.704505033791065" lon="6.090399976819754">
        <ele>251.03999999999999</ele>
        <time>2023-08-15T08:18:22Z</time>
      </trkpt>
      <trkpt lat="50.702971983700991" lon="6.087098009884358">
        <ele>249.59999999999999</ele>
        <time>2023-08-15T08:18:32Z</time>
      </trkpt>
      <trkpt lat="50.70254098623991" lon="6.086186980828643">
        <ele>249.59999999999999</ele>
        <time>2023-08-15T08:18:35Z</time>
      </trkpt>
      <trkpt lat="50.702404025942087" lon="6.085886992514134">
        <ele>249.59999999999999</ele>
        <time>2023-08-15T08:18:36Z</time>
      </trkpt>
      <trkpt lat="50.700666960328817" lon="6.082124020904303">
        <ele>251.52000000000001</ele>
        <time>2023-08-15T08:18:48Z</time>
      </trkpt>
      <trkpt lat="50.698614986613393" lon="6.077741039916873">
        <ele>261.13999999999999</ele>
        <time>2023-08-15T08:19:02Z</time>
      </trkpt>
      <trkpt lat="50.696356985718012" lon="6.072877021506429">
        <ele>272.67000000000002</ele>
        <time>2023-08-15T08:19:17Z</time>
      </trkpt>
      <trkpt lat="50.69497698917985" lon="6.069878982380033">
        <ele>275.06999999999999</ele>
        <time>2023-08-15T08:19:26Z</time>
      </trkpt>
      <trkpt lat="50.692910011857748" lon="6.065474040806294">
        <ele>279.39999999999998</ele>
        <time>2023-08-15T08:19:39Z</time>
      </trkpt>
      <trkpt lat="50.691756997257471" lon="6.063187960535288">
        <ele>279.39999999999998</ele>
        <time>2023-08-15T08:19:46Z</time>
      </trkpt>
      <trkpt lat="50.690023032948375" lon="6.060031000524759">
        <ele>278.44</ele>
        <time>2023-08-15T08:19:56Z</time>
      </trkpt>
      <trkpt lat="50.687829991802573" lon="6.05644597671926">
        <ele>277</ele>
        <time>2023-08-15T08:20:08Z</time>
      </trkpt>
      <trkpt lat="50.685449028387666" lon="6.052918033674359">
        <ele>275.06999999999999</ele>
        <time>2023-08-15T08:20:20Z</time>
      </trkpt>
      <trkpt lat="50.683125983923674" lon="6.049658982083201">
        <ele>272.67000000000002</ele>
        <time>2023-08-15T08:20:31Z</time>
      </trkpt>
      <trkpt lat="50.681319013237953" lon="6.047185985371471">
        <ele>270.26999999999998</ele>
        <time>2023-08-15T08:20:40Z</time>
      </trkpt>
      <trkpt lat="50.678706038743258" lon="6.043611019849777">
        <ele>268.82999999999998</ele>
        <time>2023-08-15T08:20:53Z</time>
      </trkpt>
      <trkpt lat="50.676058027893305" lon="6.039981991052628">
        <ele>269.79000000000002</ele>
        <time>2023-08-15T08:21:06Z</time>
      </trkpt>
      <trkpt lat="50.67405198700726" lon="6.037230966612697">
        <ele>268.35000000000002</ele>
        <time>2023-08-15T08:21:16Z</time>
      </trkpt>
      <trkpt lat="50.672065978869796" lon="6.034506009891629">
        <ele>267.38</ele>
        <time>2023-08-15T08:21:26Z</time>
      </trkpt>
      <trkpt lat="50.669585019350052" lon="6.031090971082449">
        <ele>268.35000000000002</ele>
        <time>2023-08-15T08:21:38Z</time>
      </trkpt>
      <trkpt lat="50.667602028697729" lon="6.028351010754705">
        <ele>271.23000000000002</ele>
        <time>2023-08-15T08:21:48Z</time>
      </trkpt>
      <trkpt lat="50.664744973182678" lon="6.024419981986284">
        <ele>273.14999999999998</ele>
        <time>2023-08-15T08:22:02Z</time>
      </trkpt>
      <trkpt lat="50.662334002554417" lon="6.021109968423843">
        <ele>274.11000000000001</ele>
        <time>2023-08-15T08:22:14Z</time>
      </trkpt>
      <trkpt lat="50.660308012738824" lon="6.018327008932829">
        <ele>276.04000000000002</ele>
        <time>2023-08-15T08:22:24Z</time>
      </trkpt>
      <trkpt lat="50.657529998570681" lon="6.014511985704303">
        <ele>277.95999999999998</ele>
        <time>2023-08-15T08:22:38Z</time>
      </trkpt>
      <trkpt lat="50.655341986566782" lon="6.011416967958212">
        <ele>277</ele>
        <time>2023-08-15T08:22:49Z</time>
      </trkpt>
      <trkpt lat="50.653465026989579" lon="6.008331002667546">
        <ele>276.04000000000002</ele>
        <time>2023-08-15T08:22:59Z</time>
      </trkpt>
      <trkpt lat="50.65177196636796" lon="6.005001962184906">
        <ele>274.11000000000001</ele>
        <time>2023-08-15T08:23:09Z</time>
      </trkpt>
      <trkpt lat="50.651171989738941" lon="6.003087032586336">
        <ele>273.14999999999998</ele>
        <time>2023-08-15T08:23:15Z</time>
      </trkpt>
      <trkpt lat="50.650733029469848" lon="6.001408975571394">
        <ele>275.06999999999999</ele>
        <time>2023-08-15T08:23:21Z</time>
      </trkpt>
      <trkpt lat="50.650410996749997" lon="5.99983099848032">
        <ele>277.48000000000002</ele>
        <time>2023-08-15T08:23:28Z</time>
      </trkpt>
      <trkpt lat="50.650396998971701" lon="5.999741982668638">
        <ele>277.48000000000002</ele>
        <time>2023-08-15T08:23:29Z</time>
      </trkpt>
      <trkpt lat="50.650387024506927" lon="5.999676017090678">
        <ele>277.48000000000002</ele>
        <time>2023-08-15T08:23:30Z</time>
      </trkpt>
      <trkpt lat="50.650384007021785" lon="5.999495973810554">
        <ele>277.95999999999998</ele>
        <time>2023-08-15T08:23:31Z</time>
      </trkpt>
      <trkpt lat="50.650426000356674" lon="5.999441994354129">
        <ele>277.95999999999998</ele>
        <time>2023-08-15T08:23:32Z</time>
      </trkpt>
      <trkpt lat="50.650482997298241" lon="5.999368987977505">
        <ele>277.48000000000002</ele>
        <time>2023-08-15T08:23:33Z</time>
      </trkpt>
      <trkpt lat="50.650538988411427" lon="5.999291036278009">
        <ele>277.48000000000002</ele>
        <time>2023-08-15T08:23:34Z</time>
      </trkpt>
      <trkpt lat="50.650597997009754" lon="5.999203026294708">
        <ele>277.48000000000002</ele>
        <time>2023-08-15T08:23:35Z</time>
      </trkpt>
      <trkpt lat="50.651215994730592" lon="5.9982830286026">
        <ele>275.56</ele>
        <time>2023-08-15T08:23:45Z</time>
      </trkpt>
      <trkpt lat="50.651257988065481" lon="5.998223014175892">
        <ele>275.56</ele>
        <time>2023-08-15T08:23:46Z</time>
      </trkpt>
      <trkpt lat="50.651292018592358" lon="5.998173980042338">
        <ele>275.56</ele>
        <time>2023-08-15T08:23:47Z</time>
      </trkpt>
      <trkpt lat="50.651315990835428" lon="5.998140033334494">
        <ele>275.06999999999999</ele>
        <time>2023-08-15T08:23:48Z</time>
      </trkpt>
      <trkpt lat="50.651332000270486" lon="5.998117988929153">
        <ele>275.06999999999999</ele>
        <time>2023-08-15T08:23:49Z</time>
      </trkpt>
      <trkpt lat="50.651342980563641" lon="5.998101979494095">
        <ele>274.58999999999997</ele>
        <time>2023-08-15T08:23:50Z</time>
      </trkpt>
      <trkpt lat="50.651498967781663" lon="5.998355029150844">
        <ele>273.63</ele>
        <time>2023-08-15T08:23:53Z</time>
      </trkpt>
      <trkpt lat="50.651543978601694" lon="5.998538006097078">
        <ele>272.67000000000002</ele>
        <time>2023-08-15T08:23:56Z</time>
      </trkpt>
      <trkpt lat="50.651583960279822" lon="5.998576981946826">
        <ele>272.19</ele>
        <time>2023-08-15T08:24:00Z</time>
      </trkpt>
      <trkpt lat="50.651589995250106" lon="5.99843398667872">
        <ele>270.26999999999998</ele>
        <time>2023-08-15T08:24:06Z</time>
      </trkpt>
      <trkpt lat="50.651583960279822" lon="5.998406996950507">
        <ele>269.31</ele>
        <time>2023-08-15T08:24:25Z</time>
      </trkpt>
      <trkpt lat="50.65157700330019" lon="5.998404985293746">
        <ele>269.31</ele>
        <time>2023-08-15T08:25:02Z</time>
      </trkpt>
      <trkpt lat="50.65157700330019" lon="5.998399034142494">
        <ele>268.82999999999998</ele>
        <time>2023-08-15T08:25:32Z</time>
      </trkpt>
      <trkpt lat="50.65157700330019" lon="5.998399034142494">
        <ele>268.82999999999998</ele>
        <time>2023-08-15T08:26:00Z</time>
      </trkpt>
      <trkpt lat="50.651583038270473" lon="5.998342959210277">
        <ele>268.82999999999998</ele>
        <time>2023-08-15T08:26:05Z</time>
      </trkpt>
      <trkpt lat="50.651612039655447" lon="5.998270958662033">
        <ele>267.38</ele>
        <time>2023-08-15T08:26:18Z</time>
      </trkpt>
      <trkpt lat="50.651612039655447" lon="5.998270958662033">
        <ele>267.38</ele>
        <time>2023-08-15T08:26:37Z</time>
      </trkpt>
      <trkpt lat="50.651614973321557" lon="5.998276993632317">
        <ele>267.38</ele>
        <time>2023-08-15T08:27:03Z</time>
      </trkpt>
      <trkpt lat="50.651438031345606" lon="5.998401967808604">
        <ele>263.06</ele>
        <time>2023-08-15T08:31:09Z</time>
      </trkpt>
      <trkpt lat="50.651497039943933" lon="5.998370032757521">
        <ele>282.27999999999997</ele>
        <time>2023-08-15T08:31:31Z</time>
      </trkpt>
      <trkpt lat="50.651588989421725" lon="5.998345976695418">
        <ele>267.86000000000001</ele>
        <time>2023-08-15T08:32:29Z</time>
      </trkpt>
      <trkpt lat="50.651497039943933" lon="5.998319992795587">
        <ele>266.42000000000002</ele>
        <time>2023-08-15T08:33:09Z</time>
      </trkpt>
      <trkpt lat="50.651321019977331" lon="5.99813299253583">
        <ele>276.04000000000002</ele>
        <time>2023-08-15T08:33:19Z</time>
      </trkpt>
      <trkpt lat="50.651281960308552" lon="5.998188983649015">
        <ele>276.51999999999998</ele>
        <time>2023-08-15T08:33:20Z</time>
      </trkpt>
      <trkpt lat="50.651225969195366" lon="5.998269030824304">
        <ele>276.51999999999998</ele>
        <time>2023-08-15T08:33:21Z</time>
      </trkpt>
      <trkpt lat="50.651051960885525" lon="5.998461982235313">
        <ele>277</ele>
        <time>2023-08-15T08:33:24Z</time>
      </trkpt>
      <trkpt lat="50.650998987257481" lon="5.998490983620286">
        <ele>276.51999999999998</ele>
        <time>2023-08-15T08:33:25Z</time>
      </trkpt>
      <trkpt lat="50.650946013629436" lon="5.99851998500526">
        <ele>276.51999999999998</ele>
        <time>2023-08-15T08:33:26Z</time>
      </trkpt>
      <trkpt lat="50.650894967839122" lon="5.998546974733472">
        <ele>276.51999999999998</ele>
        <time>2023-08-15T08:33:27Z</time>
      </trkpt>
      <trkpt lat="50.650840988382697" lon="5.998553009703755">
        <ele>276.51999999999998</ele>
        <time>2023-08-15T08:33:28Z</time>
      </trkpt>
      <trkpt lat="50.650777034461498" lon="5.998546974733472">
        <ele>276.04000000000002</ele>
        <time>2023-08-15T08:33:29Z</time>
      </trkpt>
      <trkpt lat="50.650104973465204" lon="5.998289985582233">
        <ele>274.58999999999997</ele>
        <time>2023-08-15T08:33:36Z</time>
      </trkpt>
      <trkpt lat="50.649779001250863" lon="5.997958984225988">
        <ele>273.14999999999998</ele>
        <time>2023-08-15T08:33:39Z</time>
      </trkpt>
      <trkpt lat="50.64966400153935" lon="5.997838033363223">
        <ele>273.14999999999998</ele>
        <time>2023-08-15T08:33:40Z</time>
      </trkpt>
      <trkpt lat="50.649553025141358" lon="5.997667964547873">
        <ele>272.67000000000002</ele>
        <time>2023-08-15T08:33:41Z</time>
      </trkpt>
      <trkpt lat="50.648850034922361" lon="5.996067021042109">
        <ele>268.35000000000002</ele>
        <time>2023-08-15T08:33:48Z</time>
      </trkpt>
      <trkpt lat="50.648174034431577" lon="5.993616990745068">
        <ele>266.89999999999998</ele>
        <time>2023-08-15T08:33:56Z</time>
      </trkpt>
      <trkpt lat="50.647609010338783" lon="5.990510992705822">
        <ele>265.94</ele>
        <time>2023-08-15T08:34:04Z</time>
      </trkpt>
      <trkpt lat="50.647099977359176" lon="5.986191965639591">
        <ele>267.38</ele>
        <time>2023-08-15T08:34:14Z</time>
      </trkpt>
      <trkpt lat="50.646887999027967" lon="5.980944978073239">
        <ele>274.11000000000001</ele>
        <time>2023-08-15T08:34:26Z</time>
      </trkpt>
      <trkpt lat="50.646962011232972" lon="5.977748958393931">
        <ele>277.95999999999998</ele>
        <time>2023-08-15T08:34:34Z</time>
      </trkpt>
      <trkpt lat="50.64721598289907" lon="5.973750958219171">
        <ele>282.27999999999997</ele>
        <time>2023-08-15T08:34:45Z</time>
      </trkpt>
      <trkpt lat="50.647582020610571" lon="5.969134038314223">
        <ele>282.27999999999997</ele>
        <time>2023-08-15T08:34:58Z</time>
      </trkpt>
      <trkpt lat="50.647970018908381" lon="5.964427012950182">
        <ele>276.04000000000002</ele>
        <time>2023-08-15T08:35:12Z</time>
      </trkpt>
      <trkpt lat="50.648399004712701" lon="5.959110958501697">
        <ele>269.79000000000002</ele>
        <time>2023-08-15T08:35:27Z</time>
      </trkpt>
      <trkpt lat="50.648792032152414" lon="5.954378033056855">
        <ele>267.38</ele>
        <time>2023-08-15T08:35:39Z</time>
      </trkpt>
      <trkpt lat="50.649185981601477" lon="5.949611999094486">
        <ele>270.26999999999998</ele>
        <time>2023-08-15T08:35:50Z</time>
      </trkpt>
      <trkpt lat="50.64959904178977" lon="5.944389989599586">
        <ele>277.48000000000002</ele>
        <time>2023-08-15T08:36:02Z</time>
      </trkpt>
      <trkpt lat="50.64994303509593" lon="5.938707981258631">
        <ele>286.13</ele>
        <time>2023-08-15T08:36:15Z</time>
      </trkpt>
      <trkpt lat="50.649959966540337" lon="5.933450013399124">
        <ele>292.38</ele>
        <time>2023-08-15T08:36:27Z</time>
      </trkpt>
      <trkpt lat="50.649776989594102" lon="5.929943025112152">
        <ele>292.86000000000001</ele>
        <time>2023-08-15T08:36:35Z</time>
      </trkpt>
      <trkpt lat="50.649270974099636" lon="5.924739958718419">
        <ele>288.52999999999997</ele>
        <time>2023-08-15T08:36:47Z</time>
      </trkpt>
      <trkpt lat="50.648529008030891" lon="5.919168004766107">
        <ele>281.31999999999999</ele>
        <time>2023-08-15T08:37:00Z</time>
      </trkpt>
      <trkpt lat="50.647738007828593" lon="5.913633015006781">
        <ele>279.39999999999998</ele>
        <time>2023-08-15T08:37:13Z</time>
      </trkpt>
      <trkpt lat="50.647429972887039" lon="5.911396974697709">
        <ele>280.83999999999997</ele>
        <time>2023-08-15T08:37:19Z</time>
      </trkpt>
      <trkpt lat="50.647244984284043" lon="5.910100964829326">
        <ele>283.25</ele>
        <time>2023-08-15T08:37:25Z</time>
      </trkpt>
      <trkpt lat="50.647313967347145" lon="5.909749008715153">
        <ele>284.20999999999998</ele>
        <time>2023-08-15T08:37:27Z</time>
      </trkpt>
      <trkpt lat="50.647336011752486" lon="5.908885002136231">
        <ele>285.17000000000002</ele>
        <time>2023-08-15T08:37:33Z</time>
      </trkpt>
      <trkpt lat="50.647226041182876" lon="5.908086039125919">
        <ele>287.08999999999997</ele>
        <time>2023-08-15T08:37:40Z</time>
      </trkpt>
      <trkpt lat="50.647142976522446" lon="5.907537024468184">
        <ele>288.52999999999997</ele>
        <time>2023-08-15T08:37:45Z</time>
      </trkpt>
      <trkpt lat="50.647124033421278" lon="5.907411966472864">
        <ele>288.52999999999997</ele>
        <time>2023-08-15T08:37:46Z</time>
      </trkpt>
      <trkpt lat="50.647102994844317" lon="5.907275006175041">
        <ele>289.00999999999999</ele>
        <time>2023-08-15T08:37:47Z</time>
      </trkpt>
      <trkpt lat="50.646774005144835" lon="5.906035993248224">
        <ele>290.94</ele>
        <time>2023-08-15T08:37:54Z</time>
      </trkpt>
      <trkpt lat="50.646673003211617" lon="5.905624022707343">
        <ele>291.42000000000002</ele>
        <time>2023-08-15T08:37:56Z</time>
      </trkpt>
      <trkpt lat="50.646300008520484" lon="5.90340499766171">
        <ele>294.30000000000001</ele>
        <time>2023-08-15T08:38:03Z</time>
      </trkpt>
      <trkpt lat="50.645813019946218" lon="5.899917036294937">
        <ele>297.67000000000002</ele>
        <time>2023-08-15T08:38:12Z</time>
      </trkpt>
      <trkpt lat="50.645210025832057" lon="5.895675960928202">
        <ele>300.55000000000001</ele>
        <time>2023-08-15T08:38:22Z</time>
      </trkpt>
      <trkpt lat="50.644600996747613" lon="5.891381995752454">
        <ele>302.47000000000003</ele>
        <time>2023-08-15T08:38:32Z</time>
      </trkpt>
      <trkpt lat="50.643697008490562" lon="5.884973024949431">
        <ele>302.47000000000003</ele>
        <time>2023-08-15T08:38:47Z</time>
      </trkpt>
      <trkpt lat="50.643169032409787" lon="5.881126988679171">
        <ele>300.55000000000001</ele>
        <time>2023-08-15T08:38:56Z</time>
      </trkpt>
      <trkpt lat="50.642540976405144" lon="5.876394985243678">
        <ele>298.14999999999998</ele>
        <time>2023-08-15T08:39:07Z</time>
      </trkpt>
      <trkpt lat="50.64180102199316" lon="5.870814984664321">
        <ele>295.74000000000001</ele>
        <time>2023-08-15T08:39:20Z</time>
      </trkpt>
      <trkpt lat="50.641172965988517" lon="5.866079963743687">
        <ele>293.81999999999999</ele>
        <time>2023-08-15T08:39:31Z</time>
      </trkpt>
      <trkpt lat="50.6404900085181" lon="5.8609280269593">
        <ele>293.33999999999997</ele>
        <time>2023-08-15T08:39:43Z</time>
      </trkpt>
      <trkpt lat="50.639748964458704" lon="5.855348026379943">
        <ele>289.49000000000001</ele>
        <time>2023-08-15T08:39:56Z</time>
      </trkpt>
      <trkpt lat="50.639010015875101" lon="5.849742963910103">
        <ele>279.88</ele>
        <time>2023-08-15T08:40:09Z</time>
      </trkpt>
      <trkpt lat="50.63810502178967" lon="5.842866031453013">
        <ele>268.82999999999998</ele>
        <time>2023-08-15T08:40:25Z</time>
      </trkpt>
      <trkpt lat="50.637434972450137" lon="5.837733037769795">
        <ele>265.45999999999998</ele>
        <time>2023-08-15T08:40:37Z</time>
      </trkpt>
      <trkpt lat="50.63673198223114" lon="5.832601971924305">
        <ele>269.79000000000002</ele>
        <time>2023-08-15T08:40:49Z</time>
      </trkpt>
      <trkpt lat="50.636186990886927" lon="5.828300965949893">
        <ele>278.44</ele>
        <time>2023-08-15T08:40:59Z</time>
      </trkpt>
      <trkpt lat="50.635510990396142" lon="5.822708979249001">
        <ele>292.38</ele>
        <time>2023-08-15T08:41:12Z</time>
      </trkpt>
      <trkpt lat="50.635093990713358" lon="5.818376960232854">
        <ele>297.67000000000002</ele>
        <time>2023-08-15T08:41:22Z</time>
      </trkpt>
      <trkpt lat="50.634671039879322" lon="5.811352003365755">
        <ele>296.22000000000003</ele>
        <time>2023-08-15T08:41:38Z</time>
      </trkpt>
      <trkpt lat="50.634527960792184" lon="5.804321011528373">
        <ele>283.25</ele>
        <time>2023-08-15T08:41:54Z</time>
      </trkpt>
      <trkpt lat="50.63449501991272" lon="5.795997027307749">
        <ele>274.58999999999997</ele>
        <time>2023-08-15T08:42:13Z</time>
      </trkpt>
      <trkpt lat="50.634463001042604" lon="5.789440032094717">
        <ele>278.92000000000002</ele>
        <time>2023-08-15T08:42:28Z</time>
      </trkpt>
      <trkpt lat="50.634438022971153" lon="5.784158008173108">
        <ele>283.73000000000002</ele>
        <time>2023-08-15T08:42:40Z</time>
      </trkpt>
      <trkpt lat="50.634394017979503" lon="5.778032010421157">
        <ele>287.08999999999997</ele>
        <time>2023-08-15T08:42:54Z</time>
      </trkpt>
      <trkpt lat="50.634349007159472" lon="5.771457999944687">
        <ele>291.89999999999998</ele>
        <time>2023-08-15T08:43:09Z</time>
      </trkpt>
      <trkpt lat="50.63432302325964" lon="5.765753025189042">
        <ele>297.18000000000001</ele>
        <time>2023-08-15T08:43:22Z</time>
      </trkpt>
      <trkpt lat="50.634373985230923" lon="5.759161999449134">
        <ele>299.11000000000001</ele>
        <time>2023-08-15T08:43:37Z</time>
      </trkpt>
      <trkpt lat="50.634777992963791" lon="5.753916017711163">
        <ele>295.25999999999999</ele>
        <time>2023-08-15T08:43:49Z</time>
      </trkpt>
      <trkpt lat="50.63548400066793" lon="5.748782018199563">
        <ele>290.94</ele>
        <time>2023-08-15T08:44:01Z</time>
      </trkpt>
      <trkpt lat="50.636872965842485" lon="5.742569016292691">
        <ele>285.17000000000002</ele>
        <time>2023-08-15T08:44:16Z</time>
      </trkpt>
    </trkseg>
  </trk>

  <trk>
    <name>Track vom: 2023-08-15 09:44</name>
    <extensions>
      <gpxx:TrackExtension>
        <gpxx:DisplayColor>DarkGray</gpxx:DisplayColor>
      </gpxx:TrackExtension>
    </extensions>
    <trkseg>
      <trkpt lat="50.637831017374992" lon="5.739409038797021">
        <ele>280.36000000000001</ele>
        <time>2023-08-15T08:44:24Z</time>
      </trkpt>
      <trkpt lat="50.639359038323164" lon="5.735225966200233">
        <ele>275.06999999999999</ele>
        <time>2023-08-15T08:44:35Z</time>
      </trkpt>
      <trkpt lat="50.640953024849296" lon="5.731623005121946">
        <ele>268.35000000000002</ele>
        <time>2023-08-15T08:44:45Z</time>
      </trkpt>
      <trkpt lat="50.643109017983079" lon="5.727590974420309">
        <ele>257.76999999999998</ele>
        <time>2023-08-15T08:44:57Z</time>
      </trkpt>
      <trkpt lat="50.64508899115026" lon="5.724494028836489">
        <ele>251.52000000000001</ele>
        <time>2023-08-15T08:45:07Z</time>
      </trkpt>
      <trkpt lat="50.646698987111449" lon="5.722066964954138">
        <ele>246.22999999999999</ele>
        <time>2023-08-15T08:45:15Z</time>
      </trkpt>
      <trkpt lat="50.648708967491984" lon="5.719037996605039">
        <ele>239.02000000000001</ele>
        <time>2023-08-15T08:45:25Z</time>
      </trkpt>
      <trkpt lat="50.650519039481878" lon="5.71631002239883">
        <ele>233.25999999999999</ele>
        <time>2023-08-15T08:45:34Z</time>
      </trkpt>
      <trkpt lat="50.6518579646945" lon="5.714285038411617">
        <ele>231.33000000000001</ele>
        <time>2023-08-15T08:45:41Z</time>
      </trkpt>
      <trkpt lat="50.652405973523855" lon="5.713452966883779">
        <ele>232.78</ele>
        <time>2023-08-15T08:45:45Z</time>
      </trkpt>
      <trkpt lat="50.653078034520149" lon="5.712455017492175">
        <ele>234.69999999999999</ele>
        <time>2023-08-15T08:45:52Z</time>
      </trkpt>
      <trkpt lat="50.654024016112089" lon="5.711840959265828">
        <ele>233.25999999999999</ele>
        <time>2023-08-15T08:46:01Z</time>
      </trkpt>
      <trkpt lat="50.654096016660333" lon="5.711754960939288">
        <ele>233.25999999999999</ele>
        <time>2023-08-15T08:46:02Z</time>
      </trkpt>
      <trkpt lat="50.654147984459996" lon="5.711676003411412">
        <ele>232.78</ele>
        <time>2023-08-15T08:46:03Z</time>
      </trkpt>
      <trkpt lat="50.65441302023828" lon="5.711187003180385">
        <ele>231.81</ele>
        <time>2023-08-15T08:46:10Z</time>
      </trkpt>
      <trkpt lat="50.654461970552802" lon="5.711088012903929">
        <ele>231.81</ele>
        <time>2023-08-15T08:46:11Z</time>
      </trkpt>
      <trkpt lat="50.654590968042612" lon="5.710680987685919">
        <ele>230.84999999999999</ele>
        <time>2023-08-15T08:46:19Z</time>
      </trkpt>
      <trkpt lat="50.654590968042612" lon="5.710680987685919">
        <ele>230.37</ele>
        <time>2023-08-15T08:46:20Z</time>
      </trkpt>
      <trkpt lat="50.65467000938952" lon="5.710613010451198">
        <ele>229.88999999999999</ele>
        <time>2023-08-15T08:46:21Z</time>
      </trkpt>
      <trkpt lat="50.654755001887679" lon="5.710527012124658">
        <ele>229.88999999999999</ele>
        <time>2023-08-15T08:46:23Z</time>
      </trkpt>
      <trkpt lat="50.65488601103425" lon="5.710303969681263">
        <ele>229.41</ele>
        <time>2023-08-15T08:46:26Z</time>
      </trkpt>
      <trkpt lat="50.654937978833914" lon="5.710213026031852">
        <ele>229.41</ele>
        <time>2023-08-15T08:46:27Z</time>
      </trkpt>
      <trkpt lat="50.654985001310706" lon="5.710132978856564">
        <ele>228.93000000000001</ele>
        <time>2023-08-15T08:46:28Z</time>
      </trkpt>
      <trkpt lat="50.655040992423892" lon="5.710037006065249">
        <ele>228.93000000000001</ele>
        <time>2023-08-15T08:46:29Z</time>
      </trkpt>
      <trkpt lat="50.655063036829233" lon="5.710001969709992">
        <ele>228.44999999999999</ele>
        <time>2023-08-15T08:46:30Z</time>
      </trkpt>
      <trkpt lat="50.655129002407193" lon="5.710086962208152">
        <ele>227.97</ele>
        <time>2023-08-15T08:46:31Z</time>
      </trkpt>
      <trkpt lat="50.655170995742083" lon="5.710111018270254">
        <ele>227.49000000000001</ele>
        <time>2023-08-15T08:46:32Z</time>
      </trkpt>
      <trkpt lat="50.655201002955437" lon="5.710130967199802">
        <ele>226.53</ele>
        <time>2023-08-15T08:46:33Z</time>
      </trkpt>
      <trkpt lat="50.655233021825552" lon="5.710159968584776">
        <ele>226.05000000000001</ele>
        <time>2023-08-15T08:46:34Z</time>
      </trkpt>
      <trkpt lat="50.655268980190158" lon="5.710192993283272">
        <ele>225.56999999999999</ele>
        <time>2023-08-15T08:46:35Z</time>
      </trkpt>
      <trkpt lat="50.655407030135393" lon="5.710388962179422">
        <ele>223.63999999999999</ele>
        <time>2023-08-15T08:46:40Z</time>
      </trkpt>
      <trkpt lat="50.655398983508348" lon="5.710408994928002">
        <ele>223.63999999999999</ele>
        <time>2023-08-15T08:46:41Z</time>
      </trkpt>
      <trkpt lat="50.655398983508348" lon="5.710408994928002">
        <ele>223.16</ele>
        <time>2023-08-15T08:46:54Z</time>
      </trkpt>
      <trkpt lat="50.655398983508348" lon="5.710408994928002">
        <ele>223.16</ele>
        <time>2023-08-15T08:47:12Z</time>
      </trkpt>
      <trkpt lat="50.655398983508348" lon="5.710408994928002">
        <ele>223.16</ele>
        <time>2023-08-15T08:47:36Z</time>
      </trkpt>
      <trkpt lat="50.655398983508348" lon="5.710408994928002">
        <ele>222.68000000000001</ele>
        <time>2023-08-15T08:48:24Z</time>
      </trkpt>
      <trkpt lat="50.655326982960105" lon="5.710451994091272">
        <ele>238.53999999999999</ele>
        <time>2023-08-15T09:05:09Z</time>
      </trkpt>
      <trkpt lat="50.655412981286645" lon="5.710393991321325">
        <ele>230.84999999999999</ele>
        <time>2023-08-15T09:05:48Z</time>
      </trkpt>
      <trkpt lat="50.65540200099349" lon="5.71040497161448">
        <ele>233.74000000000001</ele>
        <time>2023-08-15T09:06:39Z</time>
      </trkpt>
      <trkpt lat="50.655415998771787" lon="5.710464986041188">
        <ele>234.69999999999999</ele>
        <time>2023-08-15T09:07:33Z</time>
      </trkpt>
      <trkpt lat="50.655411975458264" lon="5.710451994091272">
        <ele>234.22</ele>
        <time>2023-08-15T09:08:27Z</time>
      </trkpt>
      <trkpt lat="50.655410969629884" lon="5.710454005748034">
        <ele>233.74000000000001</ele>
        <time>2023-08-15T09:09:16Z</time>
      </trkpt>
    </trkseg>
  </trk>

  <trk>
    <name>Track vom: 2023-08-15 10:11</name>
    <extensions>
      <gpxx:TrackExtension>
        <gpxx:DisplayColor>DarkGray</gpxx:DisplayColor>
      </gpxx:TrackExtension>
    </extensions>
    <trkseg>
      <trkpt lat="50.65540099516511" lon="5.710442019626498">
        <ele>233.74000000000001</ele>
        <time>2023-08-15T09:11:15Z</time>
      </trkpt>
      <trkpt lat="50.655395966023207" lon="5.710449982434511">
        <ele>234.22</ele>
        <time>2023-08-15T09:12:01Z</time>
      </trkpt>
      <trkpt lat="50.655393032357097" lon="5.710457023233175">
        <ele>234.69999999999999</ele>
        <time>2023-08-15T09:12:52Z</time>
      </trkpt>
      <trkpt lat="50.655393032357097" lon="5.71044797077775">
        <ele>235.18000000000001</ele>
        <time>2023-08-15T09:13:38Z</time>
      </trkpt>
      <trkpt lat="50.655391020700336" lon="5.71044503711164">
        <ele>235.18000000000001</ele>
        <time>2023-08-15T09:14:21Z</time>
      </trkpt>
      <trkpt lat="50.655391020700336" lon="5.710457023233175">
        <ele>235.66</ele>
        <time>2023-08-15T09:15:06Z</time>
      </trkpt>
      <trkpt lat="50.655386997386813" lon="5.710455011576414">
        <ele>236.13999999999999</ele>
        <time>2023-08-15T09:15:53Z</time>
      </trkpt>
      <trkpt lat="50.655383979901671" lon="5.710456017404795">
        <ele>236.13999999999999</ele>
        <time>2023-08-15T09:16:38Z</time>
      </trkpt>
      <trkpt lat="50.655382974073291" lon="5.71044797077775">
        <ele>236.13999999999999</ele>
        <time>2023-08-15T09:17:28Z</time>
      </trkpt>
      <trkpt lat="50.655385991558433" lon="5.710419975221157">
        <ele>235.66</ele>
        <time>2023-08-15T09:18:26Z</time>
      </trkpt>
      <trkpt lat="50.65538096241653" lon="5.710413018241525">
        <ele>235.66</ele>
        <time>2023-08-15T09:19:13Z</time>
      </trkpt>
      <trkpt lat="50.655380040407181" lon="5.710416035726667">
        <ele>235.66</ele>
        <time>2023-08-15T09:19:46Z</time>
      </trkpt>
      <trkpt lat="50.6553790345788" lon="5.710414024069905">
        <ele>235.66</ele>
        <time>2023-08-15T09:20:31Z</time>
      </trkpt>
      <trkpt lat="50.655374005436897" lon="5.71040203794837">
        <ele>235.66</ele>
        <time>2023-08-15T09:20:52Z</time>
      </trkpt>
      <trkpt lat="50.655398983508348" lon="5.710311010479927">
        <ele>235.18000000000001</ele>
        <time>2023-08-15T09:20:54Z</time>
      </trkpt>
      <trkpt lat="50.655435025691986" lon="5.710329031571746">
        <ele>234.69999999999999</ele>
        <time>2023-08-15T09:20:55Z</time>
      </trkpt>
      <trkpt lat="50.655482970178127" lon="5.710278991609812">
        <ele>234.22</ele>
        <time>2023-08-15T09:20:56Z</time>
      </trkpt>
      <trkpt lat="50.655541978776455" lon="5.710216965526342">
        <ele>233.25999999999999</ele>
        <time>2023-08-15T09:20:57Z</time>
      </trkpt>
      <trkpt lat="50.655606016516685" lon="5.710149994120002">
        <ele>232.78</ele>
        <time>2023-08-15T09:20:58Z</time>
      </trkpt>
      <trkpt lat="50.655670976266265" lon="5.710082016885281">
        <ele>232.30000000000001</ele>
        <time>2023-08-15T09:20:59Z</time>
      </trkpt>
      <trkpt lat="50.655734008178115" lon="5.710014961659908">
        <ele>231.33000000000001</ele>
        <time>2023-08-15T09:21:00Z</time>
      </trkpt>
      <trkpt lat="50.655796034261584" lon="5.709950001910329">
        <ele>230.84999999999999</ele>
        <time>2023-08-15T09:21:01Z</time>
      </trkpt>
      <trkpt lat="50.655865017324686" lon="5.709884958341718">
        <ele>230.37</ele>
        <time>2023-08-15T09:21:02Z</time>
      </trkpt>
      <trkpt lat="50.655928971245885" lon="5.709870960563421">
        <ele>229.88999999999999</ele>
        <time>2023-08-15T09:21:03Z</time>
      </trkpt>
      <trkpt lat="50.655985968187451" lon="5.709857968613505">
        <ele>229.41</ele>
        <time>2023-08-15T09:21:04Z</time>
      </trkpt>
      <trkpt lat="50.656061992049217" lon="5.709852017462254">
        <ele>228.93000000000001</ele>
        <time>2023-08-15T09:21:05Z</time>
      </trkpt>
      <trkpt lat="50.65610901452601" lon="5.709883030503988">
        <ele>228.44999999999999</ele>
        <time>2023-08-15T09:21:06Z</time>
      </trkpt>
      <trkpt lat="50.656160982325673" lon="5.709969028830528">
        <ele>228.44999999999999</ele>
        <time>2023-08-15T09:21:07Z</time>
      </trkpt>
      <trkpt lat="50.656193001195788" lon="5.710025019943714">
        <ele>227.97</ele>
        <time>2023-08-15T09:21:08Z</time>
      </trkpt>
      <trkpt lat="50.656223008409142" lon="5.710000963881612">
        <ele>227.49000000000001</ele>
        <time>2023-08-15T09:21:09Z</time>
      </trkpt>
      <trkpt lat="50.65626198425889" lon="5.709936004132032">
        <ele>227.00999999999999</ele>
        <time>2023-08-15T09:21:10Z</time>
      </trkpt>
      <trkpt lat="50.656308000907302" lon="5.709862997755408">
        <ele>227.00999999999999</ele>
        <time>2023-08-15T09:21:11Z</time>
      </trkpt>
      <trkpt lat="50.656353011727333" lon="5.709789991378784">
        <ele>227.00999999999999</ele>
        <time>2023-08-15T09:21:12Z</time>
      </trkpt>
      <trkpt lat="50.656391987577081" lon="5.709726037457585">
        <ele>226.53</ele>
        <time>2023-08-15T09:21:13Z</time>
      </trkpt>
      <trkpt lat="50.656460970640182" lon="5.709614977240562">
        <ele>226.05000000000001</ele>
        <time>2023-08-15T09:21:15Z</time>
      </trkpt>
      <trkpt lat="50.656478991732001" lon="5.709585975855589">
        <ele>226.05000000000001</ele>
        <time>2023-08-15T09:21:16Z</time>
      </trkpt>
      <trkpt lat="50.656443033367395" lon="5.709467036649585">
        <ele>225.56999999999999</ele>
        <time>2023-08-15T09:21:17Z</time>
      </trkpt>
      <trkpt lat="50.656415959820151" lon="5.709377015009522">
        <ele>225.09</ele>
        <time>2023-08-15T09:21:18Z</time>
      </trkpt>
      <trkpt lat="50.656384024769068" lon="5.709272995591164">
        <ele>224.61000000000001</ele>
        <time>2023-08-15T09:21:19Z</time>
      </trkpt>
      <trkpt lat="50.656349994242191" lon="5.709159001708031">
        <ele>224.12</ele>
        <time>2023-08-15T09:21:20Z</time>
      </trkpt>
      <trkpt lat="50.656313030049205" lon="5.709039978682995">
        <ele>224.12</ele>
        <time>2023-08-15T09:21:21Z</time>
      </trkpt>
      <trkpt lat="50.65628101117909" lon="5.708821965381503">
        <ele>223.63999999999999</ele>
        <time>2023-08-15T09:21:22Z</time>
      </trkpt>
      <trkpt lat="50.656310012564063" lon="5.708719035610557">
        <ele>223.63999999999999</ele>
        <time>2023-08-15T09:21:23Z</time>
      </trkpt>
      <trkpt lat="50.656337002292275" lon="5.708623984828591">
        <ele>223.16</ele>
        <time>2023-08-15T09:21:24Z</time>
      </trkpt>
      <trkpt lat="50.656314035877585" lon="5.708541003987193">
        <ele>223.16</ele>
        <time>2023-08-15T09:21:25Z</time>
      </trkpt>
      <trkpt lat="50.65626198425889" lon="5.708489958196878">
        <ele>223.16</ele>
        <time>2023-08-15T09:21:26Z</time>
      </trkpt>
      <trkpt lat="50.656249998137355" lon="5.708207990974188">
        <ele>222.68000000000001</ele>
        <time>2023-08-15T09:21:28Z</time>
      </trkpt>
      <trkpt lat="50.656262990087271" lon="5.708099026232958">
        <ele>222.68000000000001</ele>
        <time>2023-08-15T09:21:29Z</time>
      </trkpt>
      <trkpt lat="50.656278999522328" lon="5.707967011258006">
        <ele>222.19999999999999</ele>
        <time>2023-08-15T09:21:30Z</time>
      </trkpt>
      <trkpt lat="50.656386958435178" lon="5.707646990194917">
        <ele>222.19999999999999</ele>
        <time>2023-08-15T09:21:32Z</time>
      </trkpt>
      <trkpt lat="50.656564990058541" lon="5.70718296803534">
        <ele>222.19999999999999</ele>
        <time>2023-08-15T09:21:34Z</time>
      </trkpt>
      <trkpt lat="50.657288013026118" lon="5.706122992560267">
        <ele>222.19999999999999</ele>
        <time>2023-08-15T09:21:39Z</time>
      </trkpt>
      <trkpt lat="50.659003034234047" lon="5.703499959781766">
        <ele>215.47</ele>
        <time>2023-08-15T09:21:49Z</time>
      </trkpt>
      <trkpt lat="50.661194985732436" lon="5.70017502643168">
        <ele>199.61000000000001</ele>
        <time>2023-08-15T09:22:01Z</time>
      </trkpt>
      <trkpt lat="50.663474025204778" lon="5.696732997894287">
        <ele>186.15000000000001</ele>
        <time>2023-08-15T09:22:13Z</time>
      </trkpt>
      <trkpt lat="50.665654996410012" lon="5.693461960181594">
        <ele>178.94</ele>
        <time>2023-08-15T09:22:24Z</time>
      </trkpt>
      <trkpt lat="50.667339004576206" lon="5.690927021205425">
        <ele>178.46000000000001</ele>
        <time>2023-08-15T09:22:32Z</time>
      </trkpt>
      <trkpt lat="50.67007795907557" lon="5.686788959428668">
        <ele>165.96000000000001</ele>
        <time>2023-08-15T09:22:45Z</time>
      </trkpt>
      <trkpt lat="50.673134000971913" lon="5.681929970160127">
        <ele>140.49000000000001</ele>
        <time>2023-08-15T09:23:00Z</time>
      </trkpt>
      <trkpt lat="50.674163969233632" lon="5.679795015603304">
        <ele>129.91999999999999</ele>
        <time>2023-08-15T09:23:07Z</time>
      </trkpt>
      <trkpt lat="50.675437012687325" lon="5.676372013986111">
        <ele>115.98</ele>
        <time>2023-08-15T09:23:18Z</time>
      </trkpt>
      <trkpt lat="50.676563959568739" lon="5.67271800711751">
        <ele>99.629999999999995</ele>
        <time>2023-08-15T09:23:29Z</time>
      </trkpt>
      <trkpt lat="50.677739018574357" lon="5.668813968077302">
        <ele>83.290000000000006</ele>
        <time>2023-08-15T09:23:41Z</time>
      </trkpt>
      <trkpt lat="50.678784996271133" lon="5.665245959535241">
        <ele>73.200000000000003</ele>
        <time>2023-08-15T09:23:52Z</time>
      </trkpt>
      <trkpt lat="50.679819993674755" lon="5.661808960139751">
        <ele>69.829999999999998</ele>
        <time>2023-08-15T09:24:03Z</time>
      </trkpt>
      <trkpt lat="50.68105498328805" lon="5.657684979960322">
        <ele>70.310000000000002</ele>
        <time>2023-08-15T09:24:16Z</time>
      </trkpt>
      <trkpt lat="50.682437997311354" lon="5.653095971792936">
        <ele>70.310000000000002</ele>
        <time>2023-08-15T09:24:31Z</time>
      </trkpt>
      <trkpt lat="50.683812964707613" lon="5.648451978340745">
        <ele>70.310000000000002</ele>
        <time>2023-08-15T09:24:46Z</time>
      </trkpt>
      <trkpt lat="50.685385996475816" lon="5.643258970230818">
        <ele>73.680000000000007</ele>
        <time>2023-08-15T09:25:03Z</time>
      </trkpt>
      <trkpt lat="50.686381012201309" lon="5.639904029667378">
        <ele>82.810000000000002</ele>
        <time>2023-08-15T09:25:13Z</time>
      </trkpt>
      <trkpt lat="50.687663024291396" lon="5.635600006207824">
        <ele>98.670000000000002</ele>
        <time>2023-08-15T09:25:24Z</time>
      </trkpt>
      <trkpt lat="50.688734985888004" lon="5.630614031106234">
        <ele>115.5</ele>
        <time>2023-08-15T09:25:36Z</time>
      </trkpt>
      <trkpt lat="50.689143016934395" lon="5.626771012321115">
        <ele>127.98999999999999</ele>
        <time>2023-08-15T09:25:45Z</time>
      </trkpt>
      <trkpt lat="50.689232032746077" lon="5.62433497980237">
        <ele>136.16</ele>
        <time>2023-08-15T09:25:51Z</time>
      </trkpt>
      <trkpt lat="50.68913396447897" lon="5.620904015377164">
        <ele>143.84999999999999</ele>
        <time>2023-08-15T09:25:59Z</time>
      </trkpt>
      <trkpt lat="50.688614035025239" lon="5.616592029109597">
        <ele>149.62</ele>
        <time>2023-08-15T09:26:09Z</time>
      </trkpt>
      <trkpt lat="50.687891012057662" lon="5.613233987241983">
        <ele>151.53999999999999</ele>
        <time>2023-08-15T09:26:17Z</time>
      </trkpt>
      <trkpt lat="50.686673959717155" lon="5.609237998723984">
        <ele>149.13999999999999</ele>
        <time>2023-08-15T09:26:27Z</time>
      </trkpt>
      <trkpt lat="50.685348026454449" lon="5.605242010205984">
        <ele>146.25999999999999</ele>
        <time>2023-08-15T09:26:37Z</time>
      </trkpt>
      <trkpt lat="50.683613978326321" lon="5.599995022639632">
        <ele>145.78</ele>
        <time>2023-08-15T09:26:50Z</time>
      </trkpt>
      <trkpt lat="50.682138008996844" lon="5.595560995861888">
        <ele>153.94999999999999</ele>
        <time>2023-08-15T09:27:01Z</time>
      </trkpt>
      <trkpt lat="50.6805170327425" lon="5.590706029906869">
        <ele>169.81</ele>
        <time>2023-08-15T09:27:13Z</time>
      </trkpt>
      <trkpt lat="50.679165031760931" lon="5.586649021133781">
        <ele>180.38</ele>
        <time>2023-08-15T09:27:23Z</time>
      </trkpt>
      <trkpt lat="50.678227012977004" lon="5.583814010024071">
        <ele>184.71000000000001</ele>
        <time>2023-08-15T09:27:30Z</time>
      </trkpt>
      <trkpt lat="50.678101032972336" lon="5.583417965099216">
        <ele>186.15000000000001</ele>
        <time>2023-08-15T09:27:31Z</time>
      </trkpt>
      <trkpt lat="50.676908958703279" lon="5.579228019341826">
        <ele>194.31999999999999</ele>
        <time>2023-08-15T09:27:41Z</time>
      </trkpt>
      <trkpt lat="50.67680099979043" lon="5.578824011608958">
        <ele>194.80000000000001</ele>
        <time>2023-08-15T09:27:42Z</time>
      </trkpt>
      <trkpt lat="50.676157018169761" lon="5.575775010511279">
        <ele>198.16999999999999</ele>
        <time>2023-08-15T09:27:49Z</time>
      </trkpt>
      <trkpt lat="50.675297034904361" lon="5.57036298327148">
        <ele>196.25</ele>
        <time>2023-08-15T09:28:01Z</time>
      </trkpt>
      <trkpt lat="50.675035016611218" lon="5.568100037053227">
        <ele>194.80000000000001</ele>
        <time>2023-08-15T09:28:06Z</time>
      </trkpt>
      <trkpt lat="50.674383994191885" lon="5.562267992645502">
        <ele>192.88</ele>
        <time>2023-08-15T09:28:19Z</time>
      </trkpt>
      <trkpt lat="50.673810001462698" lon="5.557065010070801">
        <ele>192.88</ele>
        <time>2023-08-15T09:28:31Z</time>
      </trkpt>
      <trkpt lat="50.673054959625006" lon="5.550143988803029">
        <ele>191.91999999999999</ele>
        <time>2023-08-15T09:28:47Z</time>
      </trkpt>
      <trkpt lat="50.672631002962589" lon="5.546264005824924">
        <ele>190.96000000000001</ele>
        <time>2023-08-15T09:28:56Z</time>
      </trkpt>
      <trkpt lat="50.672219032421708" lon="5.541045013815165">
        <ele>188.56</ele>
        <time>2023-08-15T09:29:08Z</time>
      </trkpt>
      <trkpt lat="50.67181795835495" lon="5.535838007926941">
        <ele>186.63</ele>
        <time>2023-08-15T09:29:20Z</time>
      </trkpt>
      <trkpt lat="50.671503972262144" lon="5.531488973647356">
        <ele>184.22999999999999</ele>
        <time>2023-08-15T09:29:30Z</time>
      </trkpt>
      <trkpt lat="50.671313032507896" lon="5.528791006654501">
        <ele>183.75</ele>
        <time>2023-08-15T09:29:37Z</time>
      </trkpt>
      <trkpt lat="50.671014972031116" lon="5.524910017848015">
        <ele>180.87</ele>
        <time>2023-08-15T09:29:48Z</time>
      </trkpt>
      <trkpt lat="50.670597972348332" lon="5.519320964813232">
        <ele>180.38</ele>
        <time>2023-08-15T09:30:04Z</time>
      </trkpt>
      <trkpt lat="50.670360010117292" lon="5.516386963427067">
        <ele>181.34999999999999</ele>
        <time>2023-08-15T09:30:13Z</time>
      </trkpt>
      <trkpt lat="50.670131016522646" lon="5.513037974014878">
        <ele>182.31</ele>
        <time>2023-08-15T09:30:23Z</time>
      </trkpt>
      <trkpt lat="50.669853994622827" lon="5.509249018505216">
        <ele>182.78999999999999</ele>
        <time>2023-08-15T09:30:34Z</time>
      </trkpt>
      <trkpt lat="50.669586025178432" lon="5.504810968413949">
        <ele>180.38</ele>
        <time>2023-08-15T09:30:47Z</time>
      </trkpt>
      <trkpt lat="50.669578984379768" lon="5.500115007162094">
        <ele>175.58000000000001</ele>
        <time>2023-08-15T09:31:00Z</time>
      </trkpt>
      <trkpt lat="50.66975399851799" lon="5.495786005631089">
        <ele>174.13999999999999</ele>
        <time>2023-08-15T09:31:12Z</time>
      </trkpt>
      <trkpt lat="50.669975029304624" lon="5.493107987567782">
        <ele>172.21000000000001</ele>
        <time>2023-08-15T09:31:20Z</time>
      </trkpt>
      <trkpt lat="50.670534018427134" lon="5.488624004647136">
        <ele>168.37</ele>
        <time>2023-08-15T09:31:33Z</time>
      </trkpt>
      <trkpt lat="50.671068029478192" lon="5.485584978014231">
        <ele>165.47999999999999</ele>
        <time>2023-08-15T09:31:42Z</time>
      </trkpt>
      <trkpt lat="50.67194502800703" lon="5.481609022244811">
        <ele>164.52000000000001</ele>
        <time>2023-08-15T09:31:54Z</time>
      </trkpt>
      <trkpt lat="50.672938032075763" lon="5.47769601456821">
        <ele>162.12</ele>
        <time>2023-08-15T09:32:06Z</time>
      </trkpt>
      <trkpt lat="50.673711011186242" lon="5.47475203871727">
        <ele>159.72</ele>
        <time>2023-08-15T09:32:15Z</time>
      </trkpt>
      <trkpt lat="50.674360021948814" lon="5.472177034243941">
        <ele>155.87</ele>
        <time>2023-08-15T09:32:23Z</time>
      </trkpt>
      <trkpt lat="50.675265016034245" lon="5.46858798712492">
        <ele>153.94999999999999</ele>
        <time>2023-08-15T09:32:34Z</time>
      </trkpt>
      <trkpt lat="50.676030032336712" lon="5.465684998780489">
        <ele>154.91</ele>
        <time>2023-08-15T09:32:42Z</time>
      </trkpt>
      <trkpt lat="50.677012978121638" lon="5.462016994133592">
        <ele>155.87</ele>
        <time>2023-08-15T09:32:51Z</time>
      </trkpt>
      <trkpt lat="50.678190970793366" lon="5.457517001777887">
        <ele>149.62</ele>
        <time>2023-08-15T09:33:02Z</time>
      </trkpt>
      <trkpt lat="50.679227979853749" lon="5.453385980799794">
        <ele>145.78</ele>
        <time>2023-08-15T09:33:12Z</time>
      </trkpt>
      <trkpt lat="50.679511036723852" lon="5.452135987579823">
        <ele>145.78</ele>
        <time>2023-08-15T09:33:15Z</time>
      </trkpt>
      <trkpt lat="50.679620001465082" lon="5.451730974018574">
        <ele>145.78</ele>
        <time>2023-08-15T09:33:16Z</time>
      </trkpt>
      <trkpt lat="50.680735968053341" lon="5.446710968390107">
        <ele>149.13999999999999</ele>
        <time>2023-08-15T09:33:28Z</time>
      </trkpt>
      <trkpt lat="50.68178303539753" lon="5.442124977707863">
        <ele>150.09999999999999</ele>
        <time>2023-08-15T09:33:39Z</time>
      </trkpt>
      <trkpt lat="50.683023976162076" lon="5.436711022630334">
        <ele>151.53999999999999</ele>
        <time>2023-08-15T09:33:52Z</time>
      </trkpt>
      <trkpt lat="50.684398021548986" lon="5.430702958256006">
        <ele>152.50999999999999</ele>
        <time>2023-08-15T09:34:06Z</time>
      </trkpt>
      <trkpt lat="50.685679027810693" lon="5.425106026232243">
        <ele>150.58000000000001</ele>
        <time>2023-08-15T09:34:19Z</time>
      </trkpt>
      <trkpt lat="50.686847968026996" lon="5.41992399841547">
        <ele>151.53999999999999</ele>
        <time>2023-08-15T09:34:31Z</time>
      </trkpt>
      <trkpt lat="50.688121011480689" lon="5.414333017542958">
        <ele>150.58000000000001</ele>
        <time>2023-08-15T09:34:44Z</time>
      </trkpt>
      <trkpt lat="50.689502013847232" lon="5.408288994804025">
        <ele>149.13999999999999</ele>
        <time>2023-08-15T09:34:58Z</time>
      </trkpt>
      <trkpt lat="50.690782014280558" lon="5.402663983404636">
        <ele>146.74000000000001</ele>
        <time>2023-08-15T09:35:11Z</time>
      </trkpt>
      <trkpt lat="50.692061008885503" lon="5.397078031674027">
        <ele>145.30000000000001</ele>
        <time>2023-08-15T09:35:24Z</time>
      </trkpt>
      <trkpt lat="50.693126013502479" lon="5.392343010753393">
        <ele>142.41</ele>
        <time>2023-08-15T09:35:35Z</time>
      </trkpt>
      <trkpt lat="50.694479020312428" lon="5.386371994391084">
        <ele>140.49000000000001</ele>
        <time>2023-08-15T09:35:49Z</time>
      </trkpt>
      <trkpt lat="50.6959000043571" lon="5.380125967785716">
        <ele>138.56999999999999</ele>
        <time>2023-08-15T09:36:04Z</time>
      </trkpt>
      <trkpt lat="50.697126025334001" lon="5.374712012708187">
        <ele>136.63999999999999</ele>
        <time>2023-08-15T09:36:17Z</time>
      </trkpt>
      <trkpt lat="50.698609035462141" lon="5.368025014176965">
        <ele>135.19999999999999</ele>
        <time>2023-08-15T09:36:33Z</time>
      </trkpt>
      <trkpt lat="50.699856011196971" lon="5.361222010105848">
        <ele>131.84</ele>
        <time>2023-08-15T09:36:49Z</time>
      </trkpt>
      <trkpt lat="50.700602000579238" lon="5.356042999774218">
        <ele>130.40000000000001</ele>
        <time>2023-08-15T09:37:01Z</time>
      </trkpt>
      <trkpt lat="50.701322006061673" lon="5.349494973197579">
        <ele>127.98999999999999</ele>
        <time>2023-08-15T09:37:16Z</time>
      </trkpt>
      <trkpt lat="50.701815029606223" lon="5.342447971925139">
        <ele>127.51000000000001</ele>
        <time>2023-08-15T09:37:32Z</time>
      </trkpt>
      <trkpt lat="50.702149970456958" lon="5.336515009403229">
        <ele>129.43000000000001</ele>
        <time>2023-08-15T09:37:45Z</time>
      </trkpt>
      <trkpt lat="50.702403020113707" lon="5.332418018952012">
        <ele>130.40000000000001</ele>
        <time>2023-08-15T09:37:54Z</time>
      </trkpt>
      <trkpt lat="50.702731003984809" lon="5.326945977285504">
        <ele>130.40000000000001</ele>
        <time>2023-08-15T09:38:06Z</time>
      </trkpt>
      <trkpt lat="50.703120008111" lon="5.320117995142937">
        <ele>133.28</ele>
        <time>2023-08-15T09:38:21Z</time>
      </trkpt>
      <trkpt lat="50.703540025278926" lon="5.312817022204399">
        <ele>133.75999999999999</ele>
        <time>2023-08-15T09:38:37Z</time>
      </trkpt>
      <trkpt lat="50.703963981941342" lon="5.30551303178072">
        <ele>132.31999999999999</ele>
        <time>2023-08-15T09:38:53Z</time>
      </trkpt>
      <trkpt lat="50.704388022422791" lon="5.298229996114969">
        <ele>128.94999999999999</ele>
        <time>2023-08-15T09:39:09Z</time>
      </trkpt>
      <trkpt lat="50.704781971871853" lon="5.291380975395441">
        <ele>127.98999999999999</ele>
        <time>2023-08-15T09:39:24Z</time>
      </trkpt>
      <trkpt lat="50.705158989876509" lon="5.284992959350348">
        <ele>125.11</ele>
        <time>2023-08-15T09:39:38Z</time>
      </trkpt>
      <trkpt lat="50.705555034801364" lon="5.278152991086245">
        <ele>122.22</ele>
        <time>2023-08-15T09:39:53Z</time>
      </trkpt>
      <trkpt lat="50.705930963158607" lon="5.271767992526293">
        <ele>118.38</ele>
        <time>2023-08-15T09:40:07Z</time>
      </trkpt>
      <trkpt lat="50.706505039706826" lon="5.264041973277926">
        <ele>115.98</ele>
        <time>2023-08-15T09:40:24Z</time>
      </trkpt>
      <trkpt lat="50.706840986385942" lon="5.25857001543045">
        <ele>115.5</ele>
        <time>2023-08-15T09:40:36Z</time>
      </trkpt>
      <trkpt lat="50.706971995532513" lon="5.254131965339184">
        <ele>115.01000000000001</ele>
        <time>2023-08-15T09:40:46Z</time>
      </trkpt>
      <trkpt lat="50.706941988319159" lon="5.2461720071733">
        <ele>117.42</ele>
        <time>2023-08-15T09:41:04Z</time>
      </trkpt>
      <trkpt lat="50.706683993339539" lon="5.240885959938169">
        <ele>118.38</ele>
        <time>2023-08-15T09:41:16Z</time>
      </trkpt>
      <trkpt lat="50.706254001706839" lon="5.235634027048945">
        <ele>118.86</ele>
        <time>2023-08-15T09:41:28Z</time>
      </trkpt>
      <trkpt lat="50.705644972622395" lon="5.230403970927">
        <ele>120.78</ele>
        <time>2023-08-15T09:41:40Z</time>
      </trkpt>
      <trkpt lat="50.704744001850486" lon="5.223029991611838">
        <ele>127.51000000000001</ele>
        <time>2023-08-15T09:41:57Z</time>
      </trkpt>
      <trkpt lat="50.704216025769711" lon="5.218683974817395">
        <ele>130.88</ele>
        <time>2023-08-15T09:42:07Z</time>
      </trkpt>
      <trkpt lat="50.703501971438527" lon="5.213040020316839">
        <ele>132.31999999999999</ele>
        <time>2023-08-15T09:42:20Z</time>
      </trkpt>
      <trkpt lat="50.702742990106344" lon="5.20687404088676">
        <ele>130.40000000000001</ele>
        <time>2023-08-15T09:42:34Z</time>
      </trkpt>
      <trkpt lat="50.701863979920745" lon="5.199670968577266">
        <ele>127.51000000000001</ele>
        <time>2023-08-15T09:42:50Z</time>
      </trkpt>
      <trkpt lat="50.701131988316774" lon="5.193847976624966">
        <ele>128.47</ele>
        <time>2023-08-15T09:43:03Z</time>
      </trkpt>
      <trkpt lat="50.700322967022657" lon="5.186626967042685">
        <ele>130.40000000000001</ele>
        <time>2023-08-15T09:43:19Z</time>
      </trkpt>
      <trkpt lat="50.699945027008653" lon="5.181618025526404">
        <ele>130.40000000000001</ele>
        <time>2023-08-15T09:43:30Z</time>
      </trkpt>
      <trkpt lat="50.699650989845395" lon="5.174791971221566">
        <ele>127.03</ele>
        <time>2023-08-15T09:43:45Z</time>
      </trkpt>
      <trkpt lat="50.699613019824028" lon="5.168879963457584">
        <ele>128.47</ele>
        <time>2023-08-15T09:43:58Z</time>
      </trkpt>
      <trkpt lat="50.699829021468759" lon="5.161590976640582">
        <ele>132.80000000000001</ele>
        <time>2023-08-15T09:44:14Z</time>
      </trkpt>
      <trkpt lat="50.70017896592617" lon="5.156122958287597">
        <ele>136.63999999999999</ele>
        <time>2023-08-15T09:44:26Z</time>
      </trkpt>
      <trkpt lat="50.700700990855694" lon="5.150701962411404">
        <ele>137.13</ele>
        <time>2023-08-15T09:44:38Z</time>
      </trkpt>
      <trkpt lat="50.701328963041306" lon="5.145777007564902">
        <ele>135.68000000000001</ele>
        <time>2023-08-15T09:44:49Z</time>
      </trkpt>
      <trkpt lat="50.702320961281657" lon="5.139557970687747">
        <ele>136.16</ele>
        <time>2023-08-15T09:45:03Z</time>
      </trkpt>
      <trkpt lat="50.703500965610147" lon="5.132940039038658">
        <ele>136.63999999999999</ele>
        <time>2023-08-15T09:45:18Z</time>
      </trkpt>
      <trkpt lat="50.704747019335628" lon="5.125896977260709">
        <ele>133.28</ele>
        <time>2023-08-15T09:45:34Z</time>
      </trkpt>
      <trkpt lat="50.70561395958066" lon="5.121019966900349">
        <ele>133.75999999999999</ele>
        <time>2023-08-15T09:45:45Z</time>
      </trkpt>
      <trkpt lat="50.706243021413684" lon="5.117492023855448">
        <ele>127.51000000000001</ele>
        <time>2023-08-15T09:45:53Z</time>
      </trkpt>
      <trkpt lat="50.707328980788589" lon="5.111393015831709">
        <ele>121.73999999999999</ele>
        <time>2023-08-15T09:46:07Z</time>
      </trkpt>
      <trkpt lat="50.708270017057657" lon="5.106111997738481">
        <ele>124.15000000000001</ele>
        <time>2023-08-15T09:46:19Z</time>
      </trkpt>
      <trkpt lat="50.708968983963132" lon="5.102142998948693">
        <ele>123.67</ele>
        <time>2023-08-15T09:46:28Z</time>
      </trkpt>
      <trkpt lat="50.70963098667562" lon="5.098433000966907">
        <ele>122.22</ele>
        <time>2023-08-15T09:46:37Z</time>
      </trkpt>
      <trkpt lat="50.710374964401126" lon="5.094265015795827">
        <ele>119.81999999999999</ele>
        <time>2023-08-15T09:46:49Z</time>
      </trkpt>
      <trkpt lat="50.71124198846519" lon="5.089399991557002">
        <ele>118.86</ele>
        <time>2023-08-15T09:47:04Z</time>
      </trkpt>
      <trkpt lat="50.711592016741633" lon="5.087429992854595">
        <ele>116.94</ele>
        <time>2023-08-15T09:47:12Z</time>
      </trkpt>
      <trkpt lat="50.712232980877161" lon="5.083826025947928">
        <ele>118.86</ele>
        <time>2023-08-15T09:47:26Z</time>
      </trkpt>
      <trkpt lat="50.713120959699154" lon="5.078815994784236">
        <ele>123.19</ele>
        <time>2023-08-15T09:47:46Z</time>
      </trkpt>
      <trkpt lat="50.713747004047036" lon="5.075273970142007">
        <ele>123.19</ele>
        <time>2023-08-15T09:48:00Z</time>
      </trkpt>
      <trkpt lat="50.714092003181577" lon="5.073331966996193">
        <ele>120.78</ele>
        <time>2023-08-15T09:48:09Z</time>
      </trkpt>
      <trkpt lat="50.714462986215949" lon="5.071011018007994">
        <ele>115.98</ele>
        <time>2023-08-15T09:48:21Z</time>
      </trkpt>
      <trkpt lat="50.714860958978534" lon="5.068429978564382">
        <ele>115.01000000000001</ele>
        <time>2023-08-15T09:48:30Z</time>
      </trkpt>
      <trkpt lat="50.715504018589854" lon="5.06380601786077">
        <ele>111.17</ele>
        <time>2023-08-15T09:48:44Z</time>
      </trkpt>
      <trkpt lat="50.716069964691997" lon="5.05877603776753">
        <ele>107.81</ele>
        <time>2023-08-15T09:48:59Z</time>
      </trkpt>
      <trkpt lat="50.71654899045825" lon="5.053383959457278">
        <ele>106.36</ele>
        <time>2023-08-15T09:49:15Z</time>
      </trkpt>
      <trkpt lat="50.716802040114999" lon="5.049309013411403">
        <ele>108.77</ele>
        <time>2023-08-15T09:49:27Z</time>
      </trkpt>
      <trkpt lat="50.717043019831181" lon="5.044219018891454">
        <ele>110.69</ele>
        <time>2023-08-15T09:49:42Z</time>
      </trkpt>
      <trkpt lat="50.717172017320991" lon="5.039449967443943">
        <ele>112.61</ele>
        <time>2023-08-15T09:49:56Z</time>
      </trkpt>
      <trkpt lat="50.717271007597446" lon="5.033992007374764">
        <ele>110.69</ele>
        <time>2023-08-15T09:50:12Z</time>
      </trkpt>
      <trkpt lat="50.717330016195774" lon="5.03016198053956">
        <ele>106.36</ele>
        <time>2023-08-15T09:50:24Z</time>
      </trkpt>
      <trkpt lat="50.717392964288592" lon="5.025791991502047">
        <ele>101.56</ele>
        <time>2023-08-15T09:50:37Z</time>
      </trkpt>
      <trkpt lat="50.717491032555699" lon="5.021847970783711">
        <ele>99.150000000000006</ele>
        <time>2023-08-15T09:50:49Z</time>
      </trkpt>
      <trkpt lat="50.717717008665204" lon="5.017273966223002">
        <ele>98.670000000000002</ele>
        <time>2023-08-15T09:51:04Z</time>
      </trkpt>
      <trkpt lat="50.71818295866251" lon="5.012315986678004">
        <ele>96.269999999999996</ele>
        <time>2023-08-15T09:51:19Z</time>
      </trkpt>
      <trkpt lat="50.718945963308215" lon="5.006964979693294">
        <ele>89.540000000000006</ele>
        <time>2023-08-15T09:51:34Z</time>
      </trkpt>
      <trkpt lat="50.71949397213757" lon="5.003993008285761">
        <ele>83.290000000000006</ele>
        <time>2023-08-15T09:51:43Z</time>
      </trkpt>
      <trkpt lat="50.720321014523506" lon="5.000417036935687">
        <ele>75.599999999999994</ele>
        <time>2023-08-15T09:51:55Z</time>
      </trkpt>
      <trkpt lat="50.721387024968863" lon="4.996559014543891">
        <ele>73.680000000000007</ele>
        <time>2023-08-15T09:52:07Z</time>
      </trkpt>
      <trkpt lat="50.722329989075661" lon="4.993621995672584">
        <ele>77.040000000000006</ele>
        <time>2023-08-15T09:52:17Z</time>
      </trkpt>
      <trkpt lat="50.724084991961718" lon="4.988918993622065">
        <ele>81.370000000000005</ele>
        <time>2023-08-15T09:52:33Z</time>
      </trkpt>
      <trkpt lat="50.726113999262452" lon="4.984511034563184">
        <ele>78.969999999999999</ele>
        <time>2023-08-15T09:52:49Z</time>
      </trkpt>
      <trkpt lat="50.72819396853447" lon="4.980632979422808">
        <ele>78.969999999999999</ele>
        <time>2023-08-15T09:53:04Z</time>
      </trkpt>
      <trkpt lat="50.730484994128346" lon="4.97704703360796">
        <ele>82.329999999999998</ele>
        <time>2023-08-15T09:53:19Z</time>
      </trkpt>
      <trkpt lat="50.732615003362298" lon="4.974132981151342">
        <ele>83.290000000000006</ele>
        <time>2023-08-15T09:53:32Z</time>
      </trkpt>
      <trkpt lat="50.734860012307763" lon="4.971453035250306">
        <ele>76.560000000000002</ele>
        <time>2023-08-15T09:53:45Z</time>
      </trkpt>
      <trkpt lat="50.737548004835844" lon="4.968544011935592">
        <ele>68.390000000000001</ele>
        <time>2023-08-15T09:54:00Z</time>
      </trkpt>
      <trkpt lat="50.740578984841704" lon="4.965396020561457">
        <ele>68.390000000000001</ele>
        <time>2023-08-15T09:54:17Z</time>
      </trkpt>
      <trkpt lat="50.741844987496734" lon="4.964067991822958">
        <ele>71.269999999999996</ele>
        <time>2023-08-15T09:54:24Z</time>
      </trkpt>
      <trkpt lat="50.743892015889287" lon="4.961946029216051">
        <ele>76.079999999999998</ele>
        <time>2023-08-15T09:54:36Z</time>
      </trkpt>
      <trkpt lat="50.745687000453472" lon="4.960073009133339">
        <ele>80.409999999999997</ele>
        <time>2023-08-15T09:54:48Z</time>
      </trkpt>
      <trkpt lat="50.747921029105783" lon="4.95775499381125">
        <ele>78.969999999999999</ele>
        <time>2023-08-15T09:55:03Z</time>
      </trkpt>
      <trkpt lat="50.749791031703353" lon="4.95582296513021">
        <ele>78.480000000000004</ele>
        <time>2023-08-15T09:55:16Z</time>
      </trkpt>
      <trkpt lat="50.751432040706277" lon="4.954107021912932">
        <ele>79.930000000000007</ele>
        <time>2023-08-15T09:55:26Z</time>
      </trkpt>
      <trkpt lat="50.752538032829762" lon="4.952945960685611">
        <ele>80.890000000000001</ele>
        <time>2023-08-15T09:55:34Z</time>
      </trkpt>
      <trkpt lat="50.752960983663797" lon="4.952508006244898">
        <ele>81.849999999999994</ele>
        <time>2023-08-15T09:55:38Z</time>
      </trkpt>
      <trkpt lat="50.753171034157276" lon="4.952289992943406">
        <ele>82.329999999999998</ele>
        <time>2023-08-15T09:55:40Z</time>
      </trkpt>
      <trkpt lat="50.754025988280773" lon="4.951406959444284">
        <ele>84.730000000000004</ele>
        <time>2023-08-15T09:55:46Z</time>
      </trkpt>
      <trkpt lat="50.755383018404245" lon="4.949993016198278">
        <ele>88.099999999999994</ele>
        <time>2023-08-15T09:55:53Z</time>
      </trkpt>
      <trkpt lat="50.757288979366422" lon="4.948028968647122">
        <ele>91.939999999999998</ele>
        <time>2023-08-15T09:56:01Z</time>
      </trkpt>
      <trkpt lat="50.760457003489137" lon="4.944716021418572">
        <ele>97.709999999999994</ele>
        <time>2023-08-15T09:56:14Z</time>
      </trkpt>
      <trkpt lat="50.764584001153708" lon="4.940429013222456">
        <ele>91.939999999999998</ele>
        <time>2023-08-15T09:56:31Z</time>
      </trkpt>
      <trkpt lat="50.7684560213238" lon="4.936395976692438">
        <ele>86.659999999999997</ele>
        <time>2023-08-15T09:56:47Z</time>
      </trkpt>
      <trkpt lat="50.772330975160003" lon="4.932352965697646">
        <ele>81.849999999999994</ele>
        <time>2023-08-15T09:57:03Z</time>
      </trkpt>
      <trkpt lat="50.775448959320784" lon="4.928980004042387">
        <ele>75.599999999999994</ele>
        <time>2023-08-15T09:57:16Z</time>
      </trkpt>
      <trkpt lat="50.779130961745977" lon="4.924493003636599">
        <ele>68.870000000000005</ele>
        <time>2023-08-15T09:57:32Z</time>
      </trkpt>
      <trkpt lat="50.781612005084753" lon="4.920935975387693">
        <ele>62.619999999999997</ele>
        <time>2023-08-15T09:57:44Z</time>
      </trkpt>
      <trkpt lat="50.784346014261246" lon="4.9164819996804">
        <ele>59.740000000000002</ele>
        <time>2023-08-15T09:57:58Z</time>
      </trkpt>
      <trkpt lat="50.786871984601021" lon="4.91173499263823">
        <ele>58.780000000000001</ele>
        <time>2023-08-15T09:58:12Z</time>
      </trkpt>
      <trkpt lat="50.788449961692095" lon="4.908633017912507">
        <ele>60.700000000000003</ele>
        <time>2023-08-15T09:58:21Z</time>
      </trkpt>
      <trkpt lat="50.789658967405558" lon="4.906183993443847">
        <ele>66.469999999999999</ele>
        <time>2023-08-15T09:58:28Z</time>
      </trkpt>
      <trkpt lat="50.791386980563402" lon="4.902685973793268">
        <ele>75.120000000000005</ele>
        <time>2023-08-15T09:58:38Z</time>
      </trkpt>
      <trkpt lat="50.793430991470814" lon="4.89854397252202">
        <ele>82.810000000000002</ele>
        <time>2023-08-15T09:58:50Z</time>
      </trkpt>
      <trkpt lat="50.794952977448702" lon="4.895452978089452">
        <ele>84.730000000000004</ele>
        <time>2023-08-15T09:58:59Z</time>
      </trkpt>
      <trkpt lat="50.797191029414535" lon="4.890905041247606">
        <ele>81.849999999999994</ele>
        <time>2023-08-15T09:59:12Z</time>
      </trkpt>
      <trkpt lat="50.799684980884194" lon="4.885839018970728">
        <ele>74.159999999999997</ele>
        <time>2023-08-15T09:59:26Z</time>
      </trkpt>
      <trkpt lat="50.801289025694132" lon="4.882581979036331">
        <ele>70.790000000000006</ele>
        <time>2023-08-15T09:59:35Z</time>
      </trkpt>
      <trkpt lat="50.803956985473633" lon="4.877161988988519">
        <ele>68.870000000000005</ele>
        <time>2023-08-15T09:59:50Z</time>
      </trkpt>
      <trkpt lat="50.805129026994109" lon="4.87477800808847">
        <ele>70.790000000000006</ele>
        <time>2023-08-15T09:59:57Z</time>
      </trkpt>
      <trkpt lat="50.806683031842113" lon="4.87161903642118">
        <ele>74.640000000000001</ele>
        <time>2023-08-15T10:00:06Z</time>
      </trkpt>
      <trkpt lat="50.809005992487073" lon="4.866892984136939">
        <ele>79.930000000000007</ele>
        <time>2023-08-15T10:00:19Z</time>
      </trkpt>
      <trkpt lat="50.810964005067945" lon="4.862905964255333">
        <ele>81.849999999999994</ele>
        <time>2023-08-15T10:00:30Z</time>
      </trkpt>
      <trkpt lat="50.813273973762989" lon="4.858202962204814">
        <ele>83.290000000000006</ele>
        <time>2023-08-15T10:00:43Z</time>
      </trkpt>
      <trkpt lat="50.814867038279772" lon="4.85492798499763">
        <ele>83.769999999999996</ele>
        <time>2023-08-15T10:00:52Z</time>
      </trkpt>
      <trkpt lat="50.816574012860656" lon="4.851224021986127">
        <ele>82.329999999999998</ele>
        <time>2023-08-15T10:01:02Z</time>
      </trkpt>
      <trkpt lat="50.818627998232841" lon="4.846237963065505">
        <ele>81.370000000000005</ele>
        <time>2023-08-15T10:01:15Z</time>
      </trkpt>
      <trkpt lat="50.819752011448145" lon="4.843027023598552">
        <ele>82.810000000000002</ele>
        <time>2023-08-15T10:01:23Z</time>
      </trkpt>
      <trkpt lat="50.821251031011343" lon="4.838072983548045">
        <ele>78.480000000000004</ele>
        <time>2023-08-15T10:01:35Z</time>
      </trkpt>
      <trkpt lat="50.822520973160863" lon="4.832936972379684">
        <ele>76.079999999999998</ele>
        <time>2023-08-15T10:01:47Z</time>
      </trkpt>
      <trkpt lat="50.823613973334432" lon="4.828180996701121">
        <ele>71.269999999999996</ele>
        <time>2023-08-15T10:01:58Z</time>
      </trkpt>
      <trkpt lat="50.824583005160093" lon="4.823864987120032">
        <ele>70.310000000000002</ele>
        <time>2023-08-15T10:02:08Z</time>
      </trkpt>
      <trkpt lat="50.825454974547029" lon="4.819988021627069">
        <ele>72.239999999999995</ele>
        <time>2023-08-15T10:02:17Z</time>
      </trkpt>
      <trkpt lat="50.826722988858819" lon="4.814359992742539">
        <ele>78.480000000000004</ele>
        <time>2023-08-15T10:02:30Z</time>
      </trkpt>
      <trkpt lat="50.828377995640039" lon="4.807008979842067">
        <ele>84.25</ele>
        <time>2023-08-15T10:02:47Z</time>
      </trkpt>
      <trkpt lat="50.829703006893396" lon="4.801056990399957">
        <ele>87.140000000000001</ele>
        <time>2023-08-15T10:03:01Z</time>
      </trkpt>
      <trkpt lat="50.831209989264607" lon="4.794343002140522">
        <ele>88.579999999999998</ele>
        <time>2023-08-15T10:03:17Z</time>
      </trkpt>
      <trkpt lat="50.832427963614464" lon="4.788918988779187">
        <ele>78.969999999999999</ele>
        <time>2023-08-15T10:03:30Z</time>
      </trkpt>
      <trkpt lat="50.833458015695214" lon="4.784328974783421">
        <ele>71.760000000000005</ele>
        <time>2023-08-15T10:03:41Z</time>
      </trkpt>
      <trkpt lat="50.834705997258425" lon="4.778771018609405">
        <ele>65.989999999999995</ele>
        <time>2023-08-15T10:03:54Z</time>
      </trkpt>
      <trkpt lat="50.835870997980237" lon="4.773581027984619">
        <ele>62.140000000000001</ele>
        <time>2023-08-15T10:04:06Z</time>
      </trkpt>
      <trkpt lat="50.836910018697381" lon="4.768948014825583">
        <ele>58.780000000000001</ele>
        <time>2023-08-15T10:04:17Z</time>
      </trkpt>
      <trkpt lat="50.838035037741065" lon="4.763925997540355">
        <ele>53.009999999999998</ele>
        <time>2023-08-15T10:04:29Z</time>
      </trkpt>
      <trkpt lat="50.839342027902603" lon="4.758090013638139">
        <ele>48.200000000000003</ele>
        <time>2023-08-15T10:04:43Z</time>
      </trkpt>
      <trkpt lat="50.840747002512217" lon="4.751818003132939">
        <ele>50.130000000000003</ele>
        <time>2023-08-15T10:04:58Z</time>
      </trkpt>
      <trkpt lat="50.842128004878759" lon="4.74552302621305">
        <ele>54.93</ele>
        <time>2023-08-15T10:05:13Z</time>
      </trkpt>
      <trkpt lat="50.842916993424296" lon="4.741250015795231">
        <ele>57.82</ele>
        <time>2023-08-15T10:05:23Z</time>
      </trkpt>
      <trkpt lat="50.843598023056984" lon="4.736319025978446">
        <ele>58.780000000000001</ele>
        <time>2023-08-15T10:05:34Z</time>
      </trkpt>
      <trkpt lat="50.844158018007874" lon="4.729484003037214">
        <ele>61.659999999999997</ele>
        <time>2023-08-15T10:05:49Z</time>
      </trkpt>
      <trkpt lat="50.844403021037579" lon="4.72534803673625">
        <ele>63.579999999999998</ele>
        <time>2023-08-15T10:05:58Z</time>
      </trkpt>
      <trkpt lat="50.844779033213854" lon="4.718954991549254">
        <ele>63.100000000000001</ele>
        <time>2023-08-15T10:06:12Z</time>
      </trkpt>
      <trkpt lat="50.845251018181443" lon="4.710265975445509">
        <ele>61.659999999999997</ele>
        <time>2023-08-15T10:06:31Z</time>
      </trkpt>
      <trkpt lat="50.845550000667572" lon="4.705223003402352">
        <ele>59.259999999999998</ele>
        <time>2023-08-15T10:06:42Z</time>
      </trkpt>
      <trkpt lat="50.84593003615737" lon="4.698834987357259">
        <ele>58.299999999999997</ele>
        <time>2023-08-15T10:06:56Z</time>
      </trkpt>
      <trkpt lat="50.846200017258525" lon="4.694264000281692">
        <ele>60.219999999999999</ele>
        <time>2023-08-15T10:07:06Z</time>
      </trkpt>
      <trkpt lat="50.846579968929291" lon="4.688777960836887">
        <ele>59.740000000000002</ele>
        <time>2023-08-15T10:07:18Z</time>
      </trkpt>
      <trkpt lat="50.847268961369991" lon="4.683365011587739">
        <ele>59.259999999999998</ele>
        <time>2023-08-15T10:07:30Z</time>
      </trkpt>
      <trkpt lat="50.848387023434043" lon="4.677657019346952">
        <ele>55.890000000000001</ele>
        <time>2023-08-15T10:07:43Z</time>
      </trkpt>
      <trkpt lat="50.84954003803432" lon="4.673018977046013">
        <ele>49.159999999999997</ele>
        <time>2023-08-15T10:07:54Z</time>
      </trkpt>
      <trkpt lat="50.850264988839626" lon="4.670128980651498">
        <ele>42.439999999999998</ele>
        <time>2023-08-15T10:08:01Z</time>
      </trkpt>
      <trkpt lat="50.851200995966792" lon="4.666422000154853">
        <ele>35.229999999999997</ele>
        <time>2023-08-15T10:08:10Z</time>
      </trkpt>
      <trkpt lat="50.853174012154341" lon="4.658651975914836">
        <ele>27.050000000000001</ele>
        <time>2023-08-15T10:08:29Z</time>
      </trkpt>
      <trkpt lat="50.854726005345583" lon="4.652517009526491">
        <ele>32.82</ele>
        <time>2023-08-15T10:08:44Z</time>
      </trkpt>
      <trkpt lat="50.855897041037679" lon="4.647523993626237">
        <ele>44.840000000000003</ele>
        <time>2023-08-15T10:08:56Z</time>
      </trkpt>
      <trkpt lat="50.857004960998893" lon="4.64157803915441">
        <ele>58.299999999999997</ele>
        <time>2023-08-15T10:09:10Z</time>
      </trkpt>
      <trkpt lat="50.857969969511032" lon="4.634615024551749">
        <ele>64.549999999999997</ele>
        <time>2023-08-15T10:09:26Z</time>
      </trkpt>
      <trkpt lat="50.858876975253224" lon="4.62808501906693">
        <ele>59.740000000000002</ele>
        <time>2023-08-15T10:09:41Z</time>
      </trkpt>
      <trkpt lat="50.8597900159657" lon="4.621349992230535">
        <ele>50.130000000000003</ele>
        <time>2023-08-15T10:09:56Z</time>
      </trkpt>
      <trkpt lat="50.860811015591025" lon="4.613723969087005">
        <ele>46.759999999999998</ele>
        <time>2023-08-15T10:10:13Z</time>
      </trkpt>
      <trkpt lat="50.861343014985323" lon="4.609686993062496">
        <ele>46.280000000000001</ele>
        <time>2023-08-15T10:10:22Z</time>
      </trkpt>
      <trkpt lat="50.862196041271091" lon="4.603895014151931">
        <ele>52.049999999999997</ele>
        <time>2023-08-15T10:10:35Z</time>
      </trkpt>
      <trkpt lat="50.862921997904778" lon="4.599432991817594">
        <ele>57.82</ele>
        <time>2023-08-15T10:10:45Z</time>
      </trkpt>
      <trkpt lat="50.863876026123762" lon="4.59364696405828">
        <ele>66.950000000000003</ele>
        <time>2023-08-15T10:10:58Z</time>
      </trkpt>
      <trkpt lat="50.864908006042242" lon="4.587428011000156">
        <ele>79.450000000000003</ele>
        <time>2023-08-15T10:11:12Z</time>
      </trkpt>
      <trkpt lat="50.866006035357714" lon="4.580748975276947">
        <ele>86.659999999999997</ele>
        <time>2023-08-15T10:11:27Z</time>
      </trkpt>
      <trkpt lat="50.866812039166689" lon="4.575845981016755">
        <ele>88.579999999999998</ele>
        <time>2023-08-15T10:11:38Z</time>
      </trkpt>
      <trkpt lat="50.867549981921911" lon="4.570908034220338">
        <ele>89.060000000000002</ele>
        <time>2023-08-15T10:11:49Z</time>
      </trkpt>
      <trkpt lat="50.868194969370961" lon="4.565952988341451">
        <ele>87.620000000000005</ele>
        <time>2023-08-15T10:12:00Z</time>
      </trkpt>
      <trkpt lat="50.868720011785626" lon="4.560575997456908">
        <ele>84.730000000000004</ele>
        <time>2023-08-15T10:12:12Z</time>
      </trkpt>
      <trkpt lat="50.869127959012985" lon="4.554418986663222">
        <ele>82.810000000000002</ele>
        <time>2023-08-15T10:12:26Z</time>
      </trkpt>
      <trkpt lat="50.869355024769902" lon="4.548235991969705">
        <ele>82.810000000000002</ele>
        <time>2023-08-15T10:12:40Z</time>
      </trkpt>
      <trkpt lat="50.869429036974907" lon="4.542025001719594">
        <ele>86.659999999999997</ele>
        <time>2023-08-15T10:12:54Z</time>
      </trkpt>
      <trkpt lat="50.869445968419313" lon="4.534909017384052">
        <ele>85.689999999999998</ele>
        <time>2023-08-15T10:13:10Z</time>
      </trkpt>
      <trkpt lat="50.869445968419313" lon="4.528252026066184">
        <ele>79.930000000000007</ele>
        <time>2023-08-15T10:13:25Z</time>
      </trkpt>
      <trkpt lat="50.869462983682752" lon="4.52330301515758">
        <ele>75.120000000000005</ele>
        <time>2023-08-15T10:13:36Z</time>
      </trkpt>
      <trkpt lat="50.869468012824655" lon="4.518782990053296">
        <ele>72.239999999999995</ele>
        <time>2023-08-15T10:13:46Z</time>
      </trkpt>
      <trkpt lat="50.869468012824655" lon="4.514284003525972">
        <ele>69.349999999999994</ele>
        <time>2023-08-15T10:13:56Z</time>
      </trkpt>
      <trkpt lat="50.869488967582583" lon="4.507518969476223">
        <ele>62.619999999999997</ele>
        <time>2023-08-15T10:14:11Z</time>
      </trkpt>
      <trkpt lat="50.869488967582583" lon="4.500315980985761">
        <ele>62.619999999999997</ele>
        <time>2023-08-15T10:14:27Z</time>
      </trkpt>
      <trkpt lat="50.869511011987925" lon="4.492488037794828">
        <ele>63.579999999999998</ele>
        <time>2023-08-15T10:14:44Z</time>
      </trkpt>
      <trkpt lat="50.869490979239345" lon="4.487677998840809">
        <ele>60.700000000000003</ele>
        <time>2023-08-15T10:14:55Z</time>
      </trkpt>
      <trkpt lat="50.869511011987925" lon="4.485221011564136">
        <ele>60.700000000000003</ele>
        <time>2023-08-15T10:15:02Z</time>
      </trkpt>
      <trkpt lat="50.869475975632668" lon="4.479569010436535">
        <ele>60.219999999999999</ele>
        <time>2023-08-15T10:15:18Z</time>
      </trkpt>
      <trkpt lat="50.869528027251363" lon="4.476055987179279">
        <ele>55.890000000000001</ele>
        <time>2023-08-15T10:15:28Z</time>
      </trkpt>
      <trkpt lat="50.869971010833979" lon="4.473386015743017">
        <ele>55.409999999999997</ele>
        <time>2023-08-15T10:15:36Z</time>
      </trkpt>
      <trkpt lat="50.870482977479696" lon="4.470845041796565">
        <ele>53.009999999999998</ele>
        <time>2023-08-15T10:15:44Z</time>
      </trkpt>
      <trkpt lat="50.871163001284003" lon="4.468625010922551">
        <ele>49.159999999999997</ele>
        <time>2023-08-15T10:15:51Z</time>
      </trkpt>
      <trkpt lat="50.871744034811854" lon="4.467666959390044">
        <ele>46.280000000000001</ele>
        <time>2023-08-15T10:15:55Z</time>
      </trkpt>
      <trkpt lat="50.872966032475233" lon="4.466491984203458">
        <ele>44.840000000000003</ele>
        <time>2023-08-15T10:16:03Z</time>
      </trkpt>
      <trkpt lat="50.875072991475463" lon="4.46497100405395">
        <ele>44.359999999999999</ele>
        <time>2023-08-15T10:16:15Z</time>
      </trkpt>
      <trkpt lat="50.876968977972865" lon="4.463634006679058">
        <ele>40.509999999999998</ele>
        <time>2023-08-15T10:16:26Z</time>
      </trkpt>
      <trkpt lat="50.879652025178075" lon="4.461737014353275">
        <ele>31.859999999999999</ele>
        <time>2023-08-15T10:16:41Z</time>
      </trkpt>
      <trkpt lat="50.881498977541924" lon="4.460806958377361">
        <ele>27.530000000000001</ele>
        <time>2023-08-15T10:16:51Z</time>
      </trkpt>
      <trkpt lat="50.88333897292614" lon="4.460554998368025">
        <ele>28.02</ele>
        <time>2023-08-15T10:17:00Z</time>
      </trkpt>
      <trkpt lat="50.885024992749095" lon="4.460098017007113">
        <ele>32.340000000000003</ele>
        <time>2023-08-15T10:17:09Z</time>
      </trkpt>
      <trkpt lat="50.886487970128655" lon="4.458966040983796">
        <ele>33.780000000000001</ele>
        <time>2023-08-15T10:17:18Z</time>
      </trkpt>
      <trkpt lat="50.888959961012006" lon="4.456637967377901">
        <ele>34.740000000000002</ele>
        <time>2023-08-15T10:17:34Z</time>
      </trkpt>
      <trkpt lat="50.890595018863678" lon="4.455154035240412">
        <ele>35.710000000000001</ele>
        <time>2023-08-15T10:17:43Z</time>
      </trkpt>
      <trkpt lat="50.89253400452435" lon="4.453272968530655">
        <ele>36.670000000000002</ele>
        <time>2023-08-15T10:17:53Z</time>
      </trkpt>
      <trkpt lat="50.893981978297234" lon="4.451417969539762">
        <ele>39.07</ele>
        <time>2023-08-15T10:18:02Z</time>
      </trkpt>
      <trkpt lat="50.895443027839065" lon="4.44859704002738">
        <ele>42.439999999999998</ele>
        <time>2023-08-15T10:18:13Z</time>
      </trkpt>
      <trkpt lat="50.897031985223293" lon="4.445047974586487">
        <ele>43.399999999999999</ele>
        <time>2023-08-15T10:18:25Z</time>
      </trkpt>
      <trkpt lat="50.898690009489655" lon="4.441291959956288">
        <ele>39.07</ele>
        <time>2023-08-15T10:18:36Z</time>
      </trkpt>
      <trkpt lat="50.900670988485217" lon="4.437188012525439">
        <ele>31.859999999999999</ele>
        <time>2023-08-15T10:18:49Z</time>
      </trkpt>
      <trkpt lat="50.902706030756235" lon="4.433862995356321">
        <ele>25.129999999999999</ele>
        <time>2023-08-15T10:19:00Z</time>
      </trkpt>
      <trkpt lat="50.904090972617269" lon="4.432347966358066">
        <ele>21.77</ele>
        <time>2023-08-15T10:19:07Z</time>
      </trkpt>
      <trkpt lat="50.905814040452242" lon="4.43108799867332">
        <ele>18.399999999999999</ele>
        <time>2023-08-15T10:19:15Z</time>
      </trkpt>
      <trkpt lat="50.908336993306875" lon="4.429826019331813">
        <ele>19.84</ele>
        <time>2023-08-15T10:19:27Z</time>
      </trkpt>
      <trkpt lat="50.910072969272733" lon="4.428447028622031">
        <ele>29.460000000000001</ele>
        <time>2023-08-15T10:19:36Z</time>
      </trkpt>
      <trkpt lat="50.911491019651294" lon="4.426267985254526">
        <ele>38.590000000000003</ele>
        <time>2023-08-15T10:19:45Z</time>
      </trkpt>
      <trkpt lat="50.912970006465912" lon="4.422697965055704">
        <ele>49.649999999999999</ele>
        <time>2023-08-15T10:19:57Z</time>
      </trkpt>
      <trkpt lat="50.913923028856516" lon="4.419503035023809">
        <ele>58.299999999999997</ele>
        <time>2023-08-15T10:20:07Z</time>
      </trkpt>
      <trkpt lat="50.914188986644149" lon="4.416723009198904">
        <ele>62.140000000000001</ele>
        <time>2023-08-15T10:20:15Z</time>
      </trkpt>
      <trkpt lat="50.913964016363025" lon="4.413916999474168">
        <ele>63.100000000000001</ele>
        <time>2023-08-15T10:20:23Z</time>
      </trkpt>
      <trkpt lat="50.913097998127341" lon="4.409938026219606">
        <ele>57.340000000000003</ele>
        <time>2023-08-15T10:20:35Z</time>
      </trkpt>
      <trkpt lat="50.912381010130048" lon="4.406647961586714">
        <ele>50.609999999999999</ele>
        <time>2023-08-15T10:20:45Z</time>
      </trkpt>
      <trkpt lat="50.911877006292343" lon="4.402653984725475">
        <ele>45.32</ele>
        <time>2023-08-15T10:20:56Z</time>
      </trkpt>
      <trkpt lat="50.911756977438927" lon="4.398104958236218">
        <ele>46.280000000000001</ele>
        <time>2023-08-15T10:21:08Z</time>
      </trkpt>
      <trkpt lat="50.912147993221879" lon="4.393991036340594">
        <ele>50.130000000000003</ele>
        <time>2023-08-15T10:21:19Z</time>
      </trkpt>
      <trkpt lat="50.912947040051222" lon="4.389610989019275">
        <ele>53.009999999999998</ele>
        <time>2023-08-15T10:21:31Z</time>
      </trkpt>
      <trkpt lat="50.91455502435565" lon="4.382840003818274">
        <ele>50.130000000000003</ele>
        <time>2023-08-15T10:21:50Z</time>
      </trkpt>
      <trkpt lat="50.91588799841702" lon="4.377110973000526">
        <ele>49.159999999999997</ele>
        <time>2023-08-15T10:22:06Z</time>
      </trkpt>
      <trkpt lat="50.916674975305796" lon="4.373481022194028">
        <ele>47.719999999999999</ele>
        <time>2023-08-15T10:22:16Z</time>
      </trkpt>
      <trkpt lat="50.917391963303089" lon="4.36910399235785">
        <ele>50.130000000000003</ele>
        <time>2023-08-15T10:22:28Z</time>
      </trkpt>
      <trkpt lat="50.917869983240962" lon="4.364272998645902">
        <ele>57.340000000000003</ele>
        <time>2023-08-15T10:22:41Z</time>
      </trkpt>
      <trkpt lat="50.917913988232613" lon="4.360851002857089">
        <ele>61.659999999999997</ele>
        <time>2023-08-15T10:22:51Z</time>
      </trkpt>
      <trkpt lat="50.917789014056325" lon="4.357678033411503">
        <ele>61.659999999999997</ele>
        <time>2023-08-15T10:23:00Z</time>
      </trkpt>
      <trkpt lat="50.917347958311439" lon="4.354260982945561">
        <ele>57.82</ele>
        <time>2023-08-15T10:23:09Z</time>
      </trkpt>
      <trkpt lat="50.916358977556229" lon="4.350075982511044">
        <ele>51.57</ele>
        <time>2023-08-15T10:23:20Z</time>
      </trkpt>
      <trkpt lat="50.915498994290829" lon="4.347354965284467">
        <ele>47.240000000000002</ele>
        <time>2023-08-15T10:23:28Z</time>
      </trkpt>
      <trkpt lat="50.914172977209091" lon="4.344262965023518">
        <ele>44.359999999999999</ele>
        <time>2023-08-15T10:23:38Z</time>
      </trkpt>
      <trkpt lat="50.912584019824862" lon="4.341412028297782">
        <ele>45.799999999999997</ele>
        <time>2023-08-15T10:23:48Z</time>
      </trkpt>
      <trkpt lat="50.910373041406274" lon="4.338018028065562">
        <ele>57.340000000000003</ele>
        <time>2023-08-15T10:24:01Z</time>
      </trkpt>
      <trkpt lat="50.907784961163998" lon="4.334138967096806">
        <ele>68.390000000000001</ele>
        <time>2023-08-15T10:24:16Z</time>
      </trkpt>
      <trkpt lat="50.904966965317726" lon="4.329948015511036">
        <ele>69.349999999999994</ele>
        <time>2023-08-15T10:24:32Z</time>
      </trkpt>
      <trkpt lat="50.90261198580265" lon="4.326716959476471">
        <ele>63.100000000000001</ele>
        <time>2023-08-15T10:24:45Z</time>
      </trkpt>
      <trkpt lat="50.902423979714513" lon="4.326505986973643">
        <ele>63.100000000000001</ele>
        <time>2023-08-15T10:24:46Z</time>
      </trkpt>
      <trkpt lat="50.900464961305261" lon="4.324289979413152">
        <ele>61.659999999999997</ele>
        <time>2023-08-15T10:24:56Z</time>
      </trkpt>
      <trkpt lat="50.898943981155753" lon="4.32241796515882">
        <ele>62.619999999999997</ele>
        <time>2023-08-15T10:25:04Z</time>
      </trkpt>
      <trkpt lat="50.897446973249316" lon="4.320098021999002">
        <ele>71.760000000000005</ele>
        <time>2023-08-15T10:25:13Z</time>
      </trkpt>
      <trkpt lat="50.896150963380933" lon="4.317332999780774">
        <ele>77.519999999999996</ele>
        <time>2023-08-15T10:25:23Z</time>
      </trkpt>
      <trkpt lat="50.895313024520874" lon="4.314848016947508">
        <ele>80.890000000000001</ele>
        <time>2023-08-15T10:25:31Z</time>
      </trkpt>
      <trkpt lat="50.89444600045681" lon="4.311617966741324">
        <ele>78</ele>
        <time>2023-08-15T10:25:41Z</time>
      </trkpt>
      <trkpt lat="50.893301032483578" lon="4.307214030995965">
        <ele>70.310000000000002</ele>
        <time>2023-08-15T10:25:54Z</time>
      </trkpt>
      <trkpt lat="50.892570968717337" lon="4.304366027936339">
        <ele>69.829999999999998</ele>
        <time>2023-08-15T10:26:03Z</time>
      </trkpt>
      <trkpt lat="50.891703022643924" lon="4.300977978855372">
        <ele>74.159999999999997</ele>
        <time>2023-08-15T10:26:14Z</time>
      </trkpt>
      <trkpt lat="50.891478974372149" lon="4.30011497810483">
        <ele>75.120000000000005</ele>
        <time>2023-08-15T10:26:17Z</time>
      </trkpt>
      <trkpt lat="50.890928031876683" lon="4.298007013276219">
        <ele>75.599999999999994</ele>
        <time>2023-08-15T10:26:24Z</time>
      </trkpt>
      <trkpt lat="50.890308022499084" lon="4.296070039272308">
        <ele>75.599999999999994</ele>
        <time>2023-08-15T10:26:30Z</time>
      </trkpt>
      <trkpt lat="50.889078984037042" lon="4.293510960415006">
        <ele>74.159999999999997</ele>
        <time>2023-08-15T10:26:40Z</time>
      </trkpt>
      <trkpt lat="50.887495977804065" lon="4.291308028623462">
        <ele>70.790000000000006</ele>
        <time>2023-08-15T10:26:50Z</time>
      </trkpt>
      <trkpt lat="50.885901991277933" lon="4.288910971954465">
        <ele>65.030000000000001</ele>
        <time>2023-08-15T10:27:00Z</time>
      </trkpt>
      <trkpt lat="50.883651031181216" lon="4.285874962806702">
        <ele>56.369999999999997</ele>
        <time>2023-08-15T10:27:13Z</time>
      </trkpt>
      <trkpt lat="50.880938982591033" lon="4.282134035602212">
        <ele>42.920000000000002</ele>
        <time>2023-08-15T10:27:28Z</time>
      </trkpt>
      <trkpt lat="50.878646029159427" lon="4.278254974633455">
        <ele>44.840000000000003</ele>
        <time>2023-08-15T10:27:42Z</time>
      </trkpt>
      <trkpt lat="50.877206018194556" lon="4.275218965485692">
        <ele>45.799999999999997</ele>
        <time>2023-08-15T10:27:52Z</time>
      </trkpt>
      <trkpt lat="50.877105016261339" lon="4.274892993271351">
        <ele>45.799999999999997</ele>
        <time>2023-08-15T10:27:53Z</time>
      </trkpt>
      <trkpt lat="50.877060005441308" lon="4.274553023278713">
        <ele>45.32</ele>
        <time>2023-08-15T10:27:54Z</time>
      </trkpt>
      <trkpt lat="50.87702002376318" lon="4.274213975295425">
        <ele>44.840000000000003</ele>
        <time>2023-08-15T10:27:55Z</time>
      </trkpt>
      <trkpt lat="50.877008959650993" lon="4.273875011131167">
        <ele>44.359999999999999</ele>
        <time>2023-08-15T10:27:56Z</time>
      </trkpt>
      <trkpt lat="50.876998985186219" lon="4.273552978411317">
        <ele>44.359999999999999</ele>
        <time>2023-08-15T10:27:57Z</time>
      </trkpt>
      <trkpt lat="50.877032009884715" lon="4.27321502007544">
        <ele>43.880000000000003</ele>
        <time>2023-08-15T10:27:58Z</time>
      </trkpt>
      <trkpt lat="50.87706302292645" lon="4.272897010669112">
        <ele>43.880000000000003</ele>
        <time>2023-08-15T10:27:59Z</time>
      </trkpt>
      <trkpt lat="50.877105016261339" lon="4.272586964070797">
        <ele>43.880000000000003</ele>
        <time>2023-08-15T10:28:00Z</time>
      </trkpt>
      <trkpt lat="50.877173999324441" lon="4.272278007119894">
        <ele>44.840000000000003</ele>
        <time>2023-08-15T10:28:01Z</time>
      </trkpt>
      <trkpt lat="50.877242982387543" lon="4.271968966349959">
        <ele>45.799999999999997</ele>
        <time>2023-08-15T10:28:02Z</time>
      </trkpt>
      <trkpt lat="50.877927029505372" lon="4.268885012716055">
        <ele>47.240000000000002</ele>
        <time>2023-08-15T10:28:11Z</time>
      </trkpt>
      <trkpt lat="50.878881979733706" lon="4.263947987928987">
        <ele>53.969999999999999</ele>
        <time>2023-08-15T10:28:24Z</time>
      </trkpt>
      <trkpt lat="50.87959997355938" lon="4.259982006624341">
        <ele>65.510000000000005</ele>
        <time>2023-08-15T10:28:35Z</time>
      </trkpt>
      <trkpt lat="50.880636982619762" lon="4.253812003880739">
        <ele>80.890000000000001</ele>
        <time>2023-08-15T10:28:52Z</time>
      </trkpt>
      <trkpt lat="50.881102010607719" lon="4.249701015651226">
        <ele>84.25</ele>
        <time>2023-08-15T10:29:03Z</time>
      </trkpt>
      <trkpt lat="50.881489003077149" lon="4.246066035702825">
        <ele>85.209999999999994</ele>
        <time>2023-08-15T10:29:12Z</time>
      </trkpt>
      <trkpt lat="50.881952019408345" lon="4.24191196449101">
        <ele>80.409999999999997</ele>
        <time>2023-08-15T10:29:22Z</time>
      </trkpt>
      <trkpt lat="50.88241402991116" lon="4.237758982926607">
        <ele>69.349999999999994</ele>
        <time>2023-08-15T10:29:32Z</time>
      </trkpt>
      <trkpt lat="50.882963966578245" lon="4.232576033100486">
        <ele>63.100000000000001</ele>
        <time>2023-08-15T10:29:44Z</time>
      </trkpt>
      <trkpt lat="50.883453972637653" lon="4.227802958339453">
        <ele>59.259999999999998</ele>
        <time>2023-08-15T10:29:55Z</time>
      </trkpt>
      <trkpt lat="50.883826967328787" lon="4.223446967080236">
        <ele>55.890000000000001</ele>
        <time>2023-08-15T10:30:05Z</time>
      </trkpt>
      <trkpt lat="50.883866026997566" lon="4.219041019678116">
        <ele>51.57</ele>
        <time>2023-08-15T10:30:15Z</time>
      </trkpt>
      <trkpt lat="50.883576013147831" lon="4.215081995353103">
        <ele>49.159999999999997</ele>
        <time>2023-08-15T10:30:24Z</time>
      </trkpt>
      <trkpt lat="50.8828229829669" lon="4.209203012287617">
        <ele>43.880000000000003</ele>
        <time>2023-08-15T10:30:37Z</time>
      </trkpt>
      <trkpt lat="50.882118986919522" lon="4.203813029453158">
        <ele>39.549999999999997</ele>
        <time>2023-08-15T10:30:49Z</time>
      </trkpt>
      <trkpt lat="50.88116898201406" lon="4.196649016812444">
        <ele>40.509999999999998</ele>
        <time>2023-08-15T10:31:05Z</time>
      </trkpt>
      <trkpt lat="50.880678975954652" lon="4.192127985879779">
        <ele>40.990000000000002</ele>
        <time>2023-08-15T10:31:15Z</time>
      </trkpt>
      <trkpt lat="50.880484012886882" lon="4.18753202073276">
        <ele>40.030000000000001</ele>
        <time>2023-08-15T10:31:25Z</time>
      </trkpt>
      <trkpt lat="50.880549978464842" lon="4.183872984722257">
        <ele>34.259999999999998</ele>
        <time>2023-08-15T10:31:33Z</time>
      </trkpt>
      <trkpt lat="50.880776960402727" lon="4.180710995569825">
        <ele>26.09</ele>
        <time>2023-08-15T10:31:40Z</time>
      </trkpt>
      <trkpt lat="50.881453966721892" lon="4.175311960279942">
        <ele>19.359999999999999</ele>
        <time>2023-08-15T10:31:52Z</time>
      </trkpt>
      <trkpt lat="50.882214037701488" lon="4.169485028833151">
        <ele>22.73</ele>
        <time>2023-08-15T10:32:05Z</time>
      </trkpt>
      <trkpt lat="50.882935971021652" lon="4.164103008806706">
        <ele>27.530000000000001</ele>
        <time>2023-08-15T10:32:17Z</time>
      </trkpt>
      <trkpt lat="50.883349031209946" lon="4.160950994119048">
        <ele>27.050000000000001</ele>
        <time>2023-08-15T10:32:24Z</time>
      </trkpt>
      <trkpt lat="50.884071970358491" lon="4.155550030991435">
        <ele>22.25</ele>
        <time>2023-08-15T10:32:36Z</time>
      </trkpt>
      <trkpt lat="50.884828018024564" lon="4.15016901679337">
        <ele>17.920000000000002</ele>
        <time>2023-08-15T10:32:48Z</time>
      </trkpt>
      <trkpt lat="50.885584987699986" lon="4.146313006058335">
        <ele>17.920000000000002</ele>
        <time>2023-08-15T10:32:57Z</time>
      </trkpt>
      <trkpt lat="50.886620990931988" lon="4.142208974808455">
        <ele>17.920000000000002</ele>
        <time>2023-08-15T10:33:07Z</time>
      </trkpt>
      <trkpt lat="50.887563033029437" lon="4.138490008190274">
        <ele>20.809999999999999</ele>
        <time>2023-08-15T10:33:16Z</time>
      </trkpt>
      <trkpt lat="50.888620996847749" lon="4.134362004697323">
        <ele>20.809999999999999</ele>
        <time>2023-08-15T10:33:26Z</time>
      </trkpt>
      <trkpt lat="50.890108030289412" lon="4.128600033000112">
        <ele>21.77</ele>
        <time>2023-08-15T10:33:40Z</time>
      </trkpt>
      <trkpt lat="50.891036996617913" lon="4.124885005876422">
        <ele>23.210000000000001</ele>
        <time>2023-08-15T10:33:49Z</time>
      </trkpt>
      <trkpt lat="50.892441971227527" lon="4.119560988619924">
        <ele>28.02</ele>
        <time>2023-08-15T10:34:02Z</time>
      </trkpt>
      <trkpt lat="50.893879970535636" lon="4.114771988242865">
        <ele>34.259999999999998</ele>
        <time>2023-08-15T10:34:14Z</time>
      </trkpt>
      <trkpt lat="50.895464988425374" lon="4.110066974535584">
        <ele>40.990000000000002</ele>
        <time>2023-08-15T10:34:26Z</time>
      </trkpt>
      <trkpt lat="50.896776001900434" lon="4.106142986565828">
        <ele>48.200000000000003</ele>
        <time>2023-08-15T10:34:36Z</time>
      </trkpt>
      <trkpt lat="50.898757986724377" lon="4.100239025428891">
        <ele>53.490000000000002</ele>
        <time>2023-08-15T10:34:51Z</time>
      </trkpt>
      <trkpt lat="50.900591025128961" lon="4.094776036217809">
        <ele>54.93</ele>
        <time>2023-08-15T10:35:05Z</time>
      </trkpt>
      <trkpt lat="50.902177970856428" lon="4.090084014460445">
        <ele>54.93</ele>
        <time>2023-08-15T10:35:17Z</time>
      </trkpt>
      <trkpt lat="50.904034981504083" lon="4.084556987509131">
        <ele>48.200000000000003</ele>
        <time>2023-08-15T10:35:31Z</time>
      </trkpt>
      <trkpt lat="50.90574799105525" lon="4.079479984939098">
        <ele>34.259999999999998</ele>
        <time>2023-08-15T10:35:44Z</time>
      </trkpt>
      <trkpt lat="50.907112983986735" lon="4.075434962287545">
        <ele>25.129999999999999</ele>
        <time>2023-08-15T10:35:54Z</time>
      </trkpt>
      <trkpt lat="50.908344034105539" lon="4.071782967075706">
        <ele>21.289999999999999</ele>
        <time>2023-08-15T10:36:03Z</time>
      </trkpt>
      <trkpt lat="50.909556979313493" lon="4.068155027925968">
        <ele>21.77</ele>
        <time>2023-08-15T10:36:12Z</time>
      </trkpt>
      <trkpt lat="50.911465035751462" lon="4.061962980777025">
        <ele>24.649999999999999</ele>
        <time>2023-08-15T10:36:27Z</time>
      </trkpt>
      <trkpt lat="50.912397019565105" lon="4.057625010609627">
        <ele>26.57</ele>
        <time>2023-08-15T10:36:37Z</time>
      </trkpt>
      <trkpt lat="50.91326697729528" lon="4.052254976704717">
        <ele>28.5</ele>
        <time>2023-08-15T10:36:49Z</time>
      </trkpt>
      <trkpt lat="50.913981031626463" lon="4.047808963805437">
        <ele>31.379999999999999</ele>
        <time>2023-08-15T10:36:59Z</time>
      </trkpt>
      <trkpt lat="50.914734983816743" lon="4.043374015018344">
        <ele>37.630000000000003</ele>
        <time>2023-08-15T10:37:09Z</time>
      </trkpt>
      <trkpt lat="50.915353987365961" lon="4.040692979469895">
        <ele>38.109999999999999</ele>
        <time>2023-08-15T10:37:16Z</time>
      </trkpt>
      <trkpt lat="50.916202990338206" lon="4.037818992510438">
        <ele>36.670000000000002</ele>
        <time>2023-08-15T10:37:25Z</time>
      </trkpt>
      <trkpt lat="50.917409984394908" lon="4.034578967839479">
        <ele>32.340000000000003</ele>
        <time>2023-08-15T10:37:36Z</time>
      </trkpt>
      <trkpt lat="50.919102039188147" lon="4.031053958460689">
        <ele>31.379999999999999</ele>
        <time>2023-08-15T10:37:49Z</time>
      </trkpt>
      <trkpt lat="50.920569961890578" lon="4.028523964807391">
        <ele>28.5</ele>
        <time>2023-08-15T10:37:59Z</time>
      </trkpt>
      <trkpt lat="50.922543983906507" lon="4.025345966219902">
        <ele>25.609999999999999</ele>
        <time>2023-08-15T10:38:12Z</time>
      </trkpt>
      <trkpt lat="50.923870000988245" lon="4.023063993081451">
        <ele>24.649999999999999</ele>
        <time>2023-08-15T10:38:21Z</time>
      </trkpt>
      <trkpt lat="50.925309006124735" lon="4.020029995590448">
        <ele>25.609999999999999</ele>
        <time>2023-08-15T10:38:32Z</time>
      </trkpt>
      <trkpt lat="50.926646003499627" lon="4.016491994261742">
        <ele>24.170000000000002</ele>
        <time>2023-08-15T10:38:44Z</time>
      </trkpt>
      <trkpt lat="50.927633978426456" lon="4.013068992644548">
        <ele>26.09</ele>
        <time>2023-08-15T10:38:55Z</time>
      </trkpt>
      <trkpt lat="50.928540984168649" lon="4.008849039673805">
        <ele>29.940000000000001</ele>
        <time>2023-08-15T10:39:08Z</time>
      </trkpt>
      <trkpt lat="50.929034007713199" lon="4.0053800214082">
        <ele>31.859999999999999</ele>
        <time>2023-08-15T10:39:19Z</time>
      </trkpt>
      <trkpt lat="50.929278004914522" lon="4.002853967249394">
        <ele>32.340000000000003</ele>
        <time>2023-08-15T10:39:29Z</time>
      </trkpt>
      <trkpt lat="50.929378001019359" lon="3.999914014711976">
        <ele>34.259999999999998</ele>
        <time>2023-08-15T10:39:40Z</time>
      </trkpt>
      <trkpt lat="50.929357968270779" lon="3.996693016961217">
        <ele>36.670000000000002</ele>
        <time>2023-08-15T10:39:52Z</time>
      </trkpt>
      <trkpt lat="50.929240034893155" lon="3.994300989434123">
        <ele>38.590000000000003</ele>
        <time>2023-08-15T10:40:02Z</time>
      </trkpt>
      <trkpt lat="50.928998971357942" lon="3.991906028240919">
        <ele>38.590000000000003</ele>
        <time>2023-08-15T10:40:14Z</time>
      </trkpt>
      <trkpt lat="50.928726978600025" lon="3.989984979853034">
        <ele>39.549999999999997</ele>
        <time>2023-08-15T10:40:25Z</time>
      </trkpt>
      <trkpt lat="50.928583983331919" lon="3.98909498937428">
        <ele>40.030000000000001</ele>
        <time>2023-08-15T10:40:30Z</time>
      </trkpt>
      <trkpt lat="50.928551964461803" lon="3.988915029913187">
        <ele>40.030000000000001</ele>
        <time>2023-08-15T10:40:31Z</time>
      </trkpt>
      <trkpt lat="50.928237978368998" lon="3.987164972350001">
        <ele>39.549999999999997</ele>
        <time>2023-08-15T10:40:40Z</time>
      </trkpt>
      <trkpt lat="50.927862972021103" lon="3.98525096476078">
        <ele>40.030000000000001</ele>
        <time>2023-08-15T10:40:51Z</time>
      </trkpt>
      <trkpt lat="50.927515039220452" lon="3.983449023216963">
        <ele>41.469999999999999</ele>
        <time>2023-08-15T10:41:01Z</time>
      </trkpt>
      <trkpt lat="50.927057974040508" lon="3.981006033718586">
        <ele>40.509999999999998</ele>
        <time>2023-08-15T10:41:15Z</time>
      </trkpt>
      <trkpt lat="50.926915984600782" lon="3.980163987725973">
        <ele>40.509999999999998</ele>
        <time>2023-08-15T10:41:20Z</time>
      </trkpt>
      <trkpt lat="50.926894024014473" lon="3.980003977194428">
        <ele>40.990000000000002</ele>
        <time>2023-08-15T10:41:21Z</time>
      </trkpt>
      <trkpt lat="50.926689002662897" lon="3.978475034236908">
        <ele>40.509999999999998</ele>
        <time>2023-08-15T10:41:29Z</time>
      </trkpt>
      <trkpt lat="50.926436958834529" lon="3.976147966459394">
        <ele>38.109999999999999</ele>
        <time>2023-08-15T10:41:38Z</time>
      </trkpt>
      <trkpt lat="50.926283989101648" lon="3.973847972229123">
        <ele>38.590000000000003</ele>
        <time>2023-08-15T10:41:46Z</time>
      </trkpt>
      <trkpt lat="50.926206037402153" lon="3.971162997186184">
        <ele>36.670000000000002</ele>
        <time>2023-08-15T10:41:53Z</time>
      </trkpt>
      <trkpt lat="50.926405023783445" lon="3.966885041445494">
        <ele>34.740000000000002</ele>
        <time>2023-08-15T10:42:03Z</time>
      </trkpt>
      <trkpt lat="50.927054034546018" lon="3.961746012791991">
        <ele>40.990000000000002</ele>
        <time>2023-08-15T10:42:15Z</time>
      </trkpt>
      <trkpt lat="50.927889961749315" lon="3.956623999401927">
        <ele>49.649999999999999</ele>
        <time>2023-08-15T10:42:27Z</time>
      </trkpt>
      <trkpt lat="50.928706023842096" lon="3.951743971556425">
        <ele>50.609999999999999</ele>
        <time>2023-08-15T10:42:38Z</time>
      </trkpt>
      <trkpt lat="50.929463999345899" lon="3.947297036647797">
        <ele>49.159999999999997</ele>
        <time>2023-08-15T10:42:48Z</time>
      </trkpt>
      <trkpt lat="50.930175958201289" lon="3.943289984017611">
        <ele>44.840000000000003</ele>
        <time>2023-08-15T10:42:57Z</time>
      </trkpt>
      <trkpt lat="50.93140197917819" lon="3.938150033354759">
        <ele>37.149999999999999</ele>
        <time>2023-08-15T10:43:09Z</time>
      </trkpt>
      <trkpt lat="50.932977022603154" lon="3.933778032660484">
        <ele>38.590000000000003</ele>
        <time>2023-08-15T10:43:20Z</time>
      </trkpt>
      <trkpt lat="50.935172997415066" lon="3.928352007642388">
        <ele>48.200000000000003</ele>
        <time>2023-08-15T10:43:34Z</time>
      </trkpt>
      <trkpt lat="50.93707200139761" lon="3.923697033897042">
        <ele>56.859999999999999</ele>
        <time>2023-08-15T10:43:46Z</time>
      </trkpt>
      <trkpt lat="50.939038982614875" lon="3.918875008821487">
        <ele>61.18</ele>
        <time>2023-08-15T10:43:59Z</time>
      </trkpt>
      <trkpt lat="50.941165974363685" lon="3.913633972406387">
        <ele>68.870000000000005</ele>
        <time>2023-08-15T10:44:13Z</time>
      </trkpt>
      <trkpt lat="50.943601001054049" lon="3.907629009336233">
        <ele>68.870000000000005</ele>
        <time>2023-08-15T10:44:29Z</time>
      </trkpt>
      <trkpt lat="50.945121981203556" lon="3.903871988877654">
        <ele>62.619999999999997</ele>
        <time>2023-08-15T10:44:39Z</time>
      </trkpt>
      <trkpt lat="50.946776987984776" lon="3.89978002756834">
        <ele>56.369999999999997</ele>
        <time>2023-08-15T10:44:50Z</time>
      </trkpt>
      <trkpt lat="50.948900962248445" lon="3.894543014466763">
        <ele>53.969999999999999</ele>
        <time>2023-08-15T10:45:04Z</time>
      </trkpt>
      <trkpt lat="50.950420014560223" lon="3.890790017321706">
        <ele>51.090000000000003</ele>
        <time>2023-08-15T10:45:14Z</time>
      </trkpt>
      <trkpt lat="50.952842971310019" lon="3.884803997352719">
        <ele>42.920000000000002</ele>
        <time>2023-08-15T10:45:30Z</time>
      </trkpt>
      <trkpt lat="50.954057006165385" lon="3.881805958226323">
        <ele>39.549999999999997</ele>
        <time>2023-08-15T10:45:38Z</time>
      </trkpt>
      <trkpt lat="50.955723999068141" lon="3.877718020230532">
        <ele>34.259999999999998</ele>
        <time>2023-08-15T10:45:49Z</time>
      </trkpt>
      <trkpt lat="50.958311995491385" lon="3.87137602083385">
        <ele>30.420000000000002</ele>
        <time>2023-08-15T10:46:06Z</time>
      </trkpt>
      <trkpt lat="50.959651004523039" lon="3.868077993392944">
        <ele>30.420000000000002</ele>
        <time>2023-08-15T10:46:15Z</time>
      </trkpt>
      <trkpt lat="50.961487982422113" lon="3.863554028794169">
        <ele>35.229999999999997</ele>
        <time>2023-08-15T10:46:27Z</time>
      </trkpt>
      <trkpt lat="50.963057996705174" lon="3.859686031937599">
        <ele>36.670000000000002</ele>
        <time>2023-08-15T10:46:37Z</time>
      </trkpt>
      <trkpt lat="50.965268975123763" lon="3.854256989434362">
        <ele>29.460000000000001</ele>
        <time>2023-08-15T10:46:51Z</time>
      </trkpt>
      <trkpt lat="50.966848963871598" lon="3.850411036983132">
        <ele>25.609999999999999</ele>
        <time>2023-08-15T10:47:01Z</time>
      </trkpt>
      <trkpt lat="50.968810999765992" lon="3.845836026594043">
        <ele>26.09</ele>
        <time>2023-08-15T10:47:13Z</time>
      </trkpt>
      <trkpt lat="50.971780037507415" lon="3.839567033573985">
        <ele>30.899999999999999</ele>
        <time>2023-08-15T10:47:30Z</time>
      </trkpt>
      <trkpt lat="50.973942987620831" lon="3.835207019001246">
        <ele>31.379999999999999</ele>
        <time>2023-08-15T10:47:42Z</time>
      </trkpt>
      <trkpt lat="50.976118007674813" lon="3.830882962793112">
        <ele>28.02</ele>
        <time>2023-08-15T10:47:54Z</time>
      </trkpt>
      <trkpt lat="50.978471981361508" lon="3.826187001541257">
        <ele>24.649999999999999</ele>
        <time>2023-08-15T10:48:07Z</time>
      </trkpt>
      <trkpt lat="50.980741968378425" lon="3.821653984487057">
        <ele>21.289999999999999</ele>
        <time>2023-08-15T10:48:20Z</time>
      </trkpt>
      <trkpt lat="50.982830990105867" lon="3.817445011809468">
        <ele>19.359999999999999</ele>
        <time>2023-08-15T10:48:32Z</time>
      </trkpt>
      <trkpt lat="50.985323013737798" lon="3.812063997611404">
        <ele>16.48</ele>
        <time>2023-08-15T10:48:47Z</time>
      </trkpt>
      <trkpt lat="50.986741986125708" lon="3.808755995705724">
        <ele>16</ele>
        <time>2023-08-15T10:48:56Z</time>
      </trkpt>
      <trkpt lat="50.988711984828115" lon="3.803822994232178">
        <ele>21.289999999999999</ele>
        <time>2023-08-15T10:49:09Z</time>
      </trkpt>
      <trkpt lat="50.990681983530521" lon="3.798298984766007">
        <ele>29.460000000000001</ele>
        <time>2023-08-15T10:49:23Z</time>
      </trkpt>
      <trkpt lat="50.992719037458301" lon="3.792315982282162">
        <ele>34.259999999999998</ele>
        <time>2023-08-15T10:49:38Z</time>
      </trkpt>
      <trkpt lat="50.994880981743336" lon="3.785920003429055">
        <ele>34.259999999999998</ele>
        <time>2023-08-15T10:49:54Z</time>
      </trkpt>
      <trkpt lat="50.996519979089499" lon="3.780663963407278">
        <ele>34.740000000000002</ele>
        <time>2023-08-15T10:50:07Z</time>
      </trkpt>
      <trkpt lat="50.997301004827023" lon="3.777833981439471">
        <ele>33.780000000000001</ele>
        <time>2023-08-15T10:50:15Z</time>
      </trkpt>
      <trkpt lat="50.99849802441895" lon="3.773440020158887">
        <ele>28.5</ele>
        <time>2023-08-15T10:50:27Z</time>
      </trkpt>
      <trkpt lat="50.999549031257629" lon="3.769500022754073">
        <ele>20.32</ele>
        <time>2023-08-15T10:50:37Z</time>
      </trkpt>
      <trkpt lat="51.000408008694649" lon="3.765994962304831">
        <ele>16.48</ele>
        <time>2023-08-15T10:50:46Z</time>
      </trkpt>
      <trkpt lat="51.000954005867243" lon="3.763578962534666">
        <ele>15.52</ele>
        <time>2023-08-15T10:50:53Z</time>
      </trkpt>
      <trkpt lat="51.001924965530634" lon="3.759311987087131">
        <ele>14.56</ele>
        <time>2023-08-15T10:51:05Z</time>
      </trkpt>
      <trkpt lat="51.002654023468494" lon="3.756117979064584">
        <ele>18.399999999999999</ele>
        <time>2023-08-15T10:51:14Z</time>
      </trkpt>
      <trkpt lat="51.003380985930562" lon="3.753193030133843">
        <ele>22.25</ele>
        <time>2023-08-15T10:51:22Z</time>
      </trkpt>
      <trkpt lat="51.00479400716722" lon="3.748185010626912">
        <ele>20.809999999999999</ele>
        <time>2023-08-15T10:51:36Z</time>
      </trkpt>
      <trkpt lat="51.005956996232271" lon="3.74414099380374">
        <ele>18.879999999999999</ele>
        <time>2023-08-15T10:51:47Z</time>
      </trkpt>
      <trkpt lat="51.007161978632212" lon="3.740136958658695">
        <ele>18.399999999999999</ele>
        <time>2023-08-15T10:51:59Z</time>
      </trkpt>
      <trkpt lat="51.007990026846528" lon="3.737168004736304">
        <ele>20.32</ele>
        <time>2023-08-15T10:52:09Z</time>
      </trkpt>
      <trkpt lat="51.009248988702893" lon="3.732810001820326">
        <ele>22.73</ele>
        <time>2023-08-15T10:52:23Z</time>
      </trkpt>
      <trkpt lat="51.010449025779963" lon="3.728646961972117">
        <ele>20.32</ele>
        <time>2023-08-15T10:52:36Z</time>
      </trkpt>
      <trkpt lat="51.011105999350548" lon="3.726063994690776">
        <ele>16.48</ele>
        <time>2023-08-15T10:52:44Z</time>
      </trkpt>
      <trkpt lat="51.011934969574213" lon="3.722568992525339">
        <ele>13.119999999999999</ele>
        <time>2023-08-15T10:52:55Z</time>
      </trkpt>
      <trkpt lat="51.01268095895648" lon="3.719381019473076">
        <ele>13.119999999999999</ele>
        <time>2023-08-15T10:53:07Z</time>
      </trkpt>
      <trkpt lat="51.013362994417548" lon="3.71633998118341">
        <ele>11.67</ele>
        <time>2023-08-15T10:53:20Z</time>
      </trkpt>
      <trkpt lat="51.013789968565106" lon="3.714576009660959">
        <ele>12.630000000000001</ele>
        <time>2023-08-15T10:53:30Z</time>
      </trkpt>
      <trkpt lat="51.014138991013169" lon="3.713062992319465">
        <ele>11.67</ele>
        <time>2023-08-15T10:53:42Z</time>
      </trkpt>
      <trkpt lat="51.01437603123486" lon="3.712077029049397">
        <ele>10.710000000000001</ele>
        <time>2023-08-15T10:53:53Z</time>
      </trkpt>
      <trkpt lat="51.014749025925994" lon="3.710532998666167">
        <ele>11.19</ele>
        <time>2023-08-15T10:54:05Z</time>
      </trkpt>
      <trkpt lat="51.01512897759676" lon="3.708961978554726">
        <ele>12.630000000000001</ele>
        <time>2023-08-15T10:54:17Z</time>
      </trkpt>
      <trkpt lat="51.015367023646832" lon="3.70798003859818">
        <ele>12.630000000000001</ele>
        <time>2023-08-15T10:54:23Z</time>
      </trkpt>
      <trkpt lat="51.015403987839818" lon="3.707821033895016">
        <ele>12.15</ele>
        <time>2023-08-15T10:54:24Z</time>
      </trkpt>
      <trkpt lat="51.015482023358345" lon="3.70748701505363">
        <ele>11.67</ele>
        <time>2023-08-15T10:54:26Z</time>
      </trkpt>
      <trkpt lat="51.015882007777691" lon="3.70581298135221">
        <ele>12.15</ele>
        <time>2023-08-15T10:54:37Z</time>
      </trkpt>
      <trkpt lat="51.016031038016081" lon="3.705218033865094">
        <ele>12.630000000000001</ele>
        <time>2023-08-15T10:54:41Z</time>
      </trkpt>
      <trkpt lat="51.01648198440671" lon="3.703401004895568">
        <ele>14.08</ele>
        <time>2023-08-15T10:54:51Z</time>
      </trkpt>
      <trkpt lat="51.017039967700839" lon="3.701094975695014">
        <ele>15.52</ele>
        <time>2023-08-15T10:55:03Z</time>
      </trkpt>
      <trkpt lat="51.017572972923517" lon="3.698934959247708">
        <ele>14.08</ele>
        <time>2023-08-15T10:55:12Z</time>
      </trkpt>
      <trkpt lat="51.018321979790926" lon="3.695871038362384">
        <ele>12.630000000000001</ele>
        <time>2023-08-15T10:55:24Z</time>
      </trkpt>
      <trkpt lat="51.019011978060007" lon="3.693048013374209">
        <ele>13.6</ele>
        <time>2023-08-15T10:55:35Z</time>
      </trkpt>
      <trkpt lat="51.019721003249288" lon="3.690102025866509">
        <ele>18.399999999999999</ele>
        <time>2023-08-15T10:55:47Z</time>
      </trkpt>
      <trkpt lat="51.020567994564772" lon="3.686725962907076">
        <ele>21.77</ele>
        <time>2023-08-15T10:56:01Z</time>
      </trkpt>
      <trkpt lat="51.021085996180773" lon="3.684816984459758">
        <ele>21.77</ele>
        <time>2023-08-15T10:56:10Z</time>
      </trkpt>
      <trkpt lat="51.021648002788424" lon="3.682838017120957">
        <ele>21.77</ele>
        <time>2023-08-15T10:56:21Z</time>
      </trkpt>
      <trkpt lat="51.022278992459178" lon="3.680595019832254">
        <ele>20.32</ele>
        <time>2023-08-15T10:56:35Z</time>
      </trkpt>
      <trkpt lat="51.022767992690206" lon="3.678905982524157">
        <ele>19.84</ele>
        <time>2023-08-15T10:56:44Z</time>
      </trkpt>
      <trkpt lat="51.023407028988004" lon="3.67663599550724">
        <ele>16.960000000000001</ele>
        <time>2023-08-15T10:56:55Z</time>
      </trkpt>
      <trkpt lat="51.023995019495487" lon="3.67457396350801">
        <ele>14.56</ele>
        <time>2023-08-15T10:57:03Z</time>
      </trkpt>
      <trkpt lat="51.025068992748857" lon="3.670816021040082">
        <ele>13.6</ele>
        <time>2023-08-15T10:57:16Z</time>
      </trkpt>
      <trkpt lat="51.026020003482699" lon="3.667550012469292">
        <ele>12.630000000000001</ele>
        <time>2023-08-15T10:57:28Z</time>
      </trkpt>
      <trkpt lat="51.026995992287993" lon="3.664131034165621">
        <ele>13.119999999999999</ele>
        <time>2023-08-15T10:57:40Z</time>
      </trkpt>
      <trkpt lat="51.027908027172089" lon="3.660904001444578">
        <ele>15.039999999999999</ele>
        <time>2023-08-15T10:57:50Z</time>
      </trkpt>
      <trkpt lat="51.028983006253839" lon="3.657167013734579">
        <ele>15.52</ele>
        <time>2023-08-15T10:58:02Z</time>
      </trkpt>
      <trkpt lat="51.029956983402371" lon="3.653737977147102">
        <ele>16.960000000000001</ele>
        <time>2023-08-15T10:58:13Z</time>
      </trkpt>
      <trkpt lat="51.031466983258724" lon="3.648426029831171">
        <ele>22.73</ele>
        <time>2023-08-15T10:58:30Z</time>
      </trkpt>
      <trkpt lat="51.032781014218926" lon="3.643831992521882">
        <ele>20.32</ele>
        <time>2023-08-15T10:58:45Z</time>
      </trkpt>
      <trkpt lat="51.03289601393044" lon="3.643460003659129">
        <ele>19.84</ele>
        <time>2023-08-15T10:58:48Z</time>
      </trkpt>
      <trkpt lat="51.033171024173498" lon="3.642503963783383">
        <ele>16.960000000000001</ele>
        <time>2023-08-15T10:58:58Z</time>
      </trkpt>
      <trkpt lat="51.033730013296008" lon="3.640530025586486">
        <ele>13.119999999999999</ele>
        <time>2023-08-15T10:59:09Z</time>
      </trkpt>
      <trkpt lat="51.034066965803504" lon="3.639337029308081">
        <ele>11.67</ele>
        <time>2023-08-15T10:59:17Z</time>
      </trkpt>
      <trkpt lat="51.034133015200496" lon="3.639103006571531">
        <ele>10.710000000000001</ele>
        <time>2023-08-15T10:59:25Z</time>
      </trkpt>
      <trkpt lat="51.034137038514018" lon="3.639089008793235">
        <ele>10.710000000000001</ele>
        <time>2023-08-15T10:59:28Z</time>
      </trkpt>
      <trkpt lat="51.034151036292315" lon="3.63903796300292">
        <ele>11.19</ele>
        <time>2023-08-15T10:59:29Z</time>
      </trkpt>
      <trkpt lat="51.034177020192146" lon="3.638947019353509">
        <ele>11.19</ele>
        <time>2023-08-15T10:59:30Z</time>
      </trkpt>
      <trkpt lat="51.034438032656908" lon="3.638040013611317">
        <ele>11.67</ele>
        <time>2023-08-15T10:59:38Z</time>
      </trkpt>
      <trkpt lat="51.034564012661576" lon="3.637607004493475">
        <ele>12.15</ele>
        <time>2023-08-15T10:59:47Z</time>
      </trkpt>
      <trkpt lat="51.034818990156054" lon="3.63673503510654">
        <ele>11.67</ele>
        <time>2023-08-15T10:59:55Z</time>
      </trkpt>
      <trkpt lat="51.035296004265547" lon="3.635073993355036">
        <ele>11.19</ele>
        <time>2023-08-15T11:00:03Z</time>
      </trkpt>
      <trkpt lat="51.035901010036469" lon="3.632979020476341">
        <ele>10.710000000000001</ele>
        <time>2023-08-15T11:00:12Z</time>
      </trkpt>
      <trkpt lat="51.036510039120913" lon="3.630876000970602">
        <ele>12.15</ele>
        <time>2023-08-15T11:00:19Z</time>
      </trkpt>
      <trkpt lat="51.037138011306524" lon="3.628688994795084">
        <ele>13.6</ele>
        <time>2023-08-15T11:00:28Z</time>
      </trkpt>
      <trkpt lat="51.038058008998632" lon="3.625489035621285">
        <ele>13.119999999999999</ele>
        <time>2023-08-15T11:00:41Z</time>
      </trkpt>
      <trkpt lat="51.038854960352182" lon="3.622656036168337">
        <ele>13.119999999999999</ele>
        <time>2023-08-15T11:00:52Z</time>
      </trkpt>
      <trkpt lat="51.038924027234316" lon="3.622394017875195">
        <ele>13.6</ele>
        <time>2023-08-15T11:00:53Z</time>
      </trkpt>
      <trkpt lat="51.039906973019242" lon="3.618607996031642">
        <ele>15.52</ele>
        <time>2023-08-15T11:01:07Z</time>
      </trkpt>
      <trkpt lat="51.04067400097847" lon="3.615145012736321">
        <ele>14.08</ele>
        <time>2023-08-15T11:01:18Z</time>
      </trkpt>
      <trkpt lat="51.041618976742029" lon="3.610864961519837">
        <ele>14.56</ele>
        <time>2023-08-15T11:01:31Z</time>
      </trkpt>
      <trkpt lat="51.042397990822792" lon="3.607322014868259">
        <ele>14.08</ele>
        <time>2023-08-15T11:01:43Z</time>
      </trkpt>
      <trkpt lat="51.04318798519671" lon="3.603726010769606">
        <ele>15.039999999999999</ele>
        <time>2023-08-15T11:01:56Z</time>
      </trkpt>
      <trkpt lat="51.044020978733897" lon="3.599933031946421">
        <ele>14.56</ele>
        <time>2023-08-15T11:02:10Z</time>
      </trkpt>
      <trkpt lat="51.044811978936195" lon="3.596312971785665">
        <ele>13.6</ele>
        <time>2023-08-15T11:02:22Z</time>
      </trkpt>
      <trkpt lat="51.045585963875055" lon="3.592689977958798">
        <ele>12.630000000000001</ele>
        <time>2023-08-15T11:02:33Z</time>
      </trkpt>
      <trkpt lat="51.046651974320412" lon="3.587782038375735">
        <ele>13.119999999999999</ele>
        <time>2023-08-15T11:02:48Z</time>
      </trkpt>
      <trkpt lat="51.047856034711003" lon="3.582246964797378">
        <ele>13.6</ele>
        <time>2023-08-15T11:03:03Z</time>
      </trkpt>
      <trkpt lat="51.049092030152678" lon="3.576576020568609">
        <ele>14.08</ele>
        <time>2023-08-15T11:03:18Z</time>
      </trkpt>
      <trkpt lat="51.049936003983021" lon="3.572674999013543">
        <ele>13.6</ele>
        <time>2023-08-15T11:03:28Z</time>
      </trkpt>
      <trkpt lat="51.050632959231734" lon="3.569409996271133">
        <ele>16</ele>
        <time>2023-08-15T11:03:37Z</time>
      </trkpt>
      <trkpt lat="51.05163199827075" lon="3.564858036115766">
        <ele>16.960000000000001</ele>
        <time>2023-08-15T11:03:49Z</time>
      </trkpt>
      <trkpt lat="51.052599018439651" lon="3.560388972982764">
        <ele>14.56</ele>
        <time>2023-08-15T11:04:01Z</time>
      </trkpt>
      <trkpt lat="51.053679026663303" lon="3.555416995659471">
        <ele>11.19</ele>
        <time>2023-08-15T11:04:14Z</time>
      </trkpt>
      <trkpt lat="51.054539009928703" lon="3.551231995224953">
        <ele>12.15</ele>
        <time>2023-08-15T11:04:25Z</time>
      </trkpt>
      <trkpt lat="51.055008983239532" lon="3.548807026818395">
        <ele>12.15</ele>
        <time>2023-08-15T11:04:34Z</time>
      </trkpt>
      <trkpt lat="51.055427994579077" lon="3.546639969572425">
        <ele>11.67</ele>
        <time>2023-08-15T11:04:44Z</time>
      </trkpt>
      <trkpt lat="51.055775005370378" lon="3.544829981401563">
        <ele>11.19</ele>
        <time>2023-08-15T11:04:56Z</time>
      </trkpt>
      <trkpt lat="51.055940967053175" lon="3.543966980651021">
        <ele>10.23</ele>
        <time>2023-08-15T11:05:05Z</time>
      </trkpt>
      <trkpt lat="51.056125033646822" lon="3.543013036251068">
        <ele>10.710000000000001</ele>
        <time>2023-08-15T11:05:16Z</time>
      </trkpt>
      <trkpt lat="51.056129978969693" lon="3.542984034866095">
        <ele>10.710000000000001</ele>
        <time>2023-08-15T11:05:26Z</time>
      </trkpt>
      <trkpt lat="51.056132996454835" lon="3.542969031259418">
        <ele>10.710000000000001</ele>
        <time>2023-08-15T11:05:31Z</time>
      </trkpt>
      <trkpt lat="51.056141965091228" lon="3.542923014611006">
        <ele>11.19</ele>
        <time>2023-08-15T11:05:32Z</time>
      </trkpt>
      <trkpt lat="51.056260988116264" lon="3.542304011061788">
        <ele>11.67</ele>
        <time>2023-08-15T11:05:39Z</time>
      </trkpt>
      <trkpt lat="51.056298958137631" lon="3.542105024680495">
        <ele>11.67</ele>
        <time>2023-08-15T11:05:48Z</time>
      </trkpt>
      <trkpt lat="51.056371964514256" lon="3.54172901250422">
        <ele>11.67</ele>
        <time>2023-08-15T11:06:03Z</time>
      </trkpt>
      <trkpt lat="51.056584026664495" lon="3.540626959875226">
        <ele>11.67</ele>
        <time>2023-08-15T11:06:12Z</time>
      </trkpt>
      <trkpt lat="51.056652003899217" lon="3.540275003761053">
        <ele>12.15</ele>
        <time>2023-08-15T11:06:20Z</time>
      </trkpt>
      <trkpt lat="51.056719981133938" lon="3.539918018504977">
        <ele>12.630000000000001</ele>
        <time>2023-08-15T11:06:31Z</time>
      </trkpt>
      <trkpt lat="51.056785024702549" lon="3.539579976350069">
        <ele>13.119999999999999</ele>
        <time>2023-08-15T11:06:35Z</time>
      </trkpt>
      <trkpt lat="51.056888960301876" lon="3.539041019976139">
        <ele>11.67</ele>
        <time>2023-08-15T11:06:45Z</time>
      </trkpt>
      <trkpt lat="51.056986022740602" lon="3.538538021966815">
        <ele>11.67</ele>
        <time>2023-08-15T11:06:54Z</time>
      </trkpt>
      <trkpt lat="51.05711099691689" lon="3.53788398206234">
        <ele>11.67</ele>
        <time>2023-08-15T11:07:03Z</time>
      </trkpt>
      <trkpt lat="51.057218033820391" lon="3.537327004596591">
        <ele>10.710000000000001</ele>
        <time>2023-08-15T11:07:11Z</time>
      </trkpt>
      <trkpt lat="51.05726296082139" lon="3.537092981860042">
        <ele>10.710000000000001</ele>
        <time>2023-08-15T11:07:15Z</time>
      </trkpt>
      <trkpt lat="51.057447027415037" lon="3.536139037460089">
        <ele>10.23</ele>
        <time>2023-08-15T11:07:23Z</time>
      </trkpt>
      <trkpt lat="51.057709967717528" lon="3.534771027043462">
        <ele>11.19</ele>
        <time>2023-08-15T11:07:34Z</time>
      </trkpt>
      <trkpt lat="51.057995958253741" lon="3.533282987773418">
        <ele>10.23</ele>
        <time>2023-08-15T11:07:46Z</time>
      </trkpt>
      <trkpt lat="51.058129984885454" lon="3.532591983675957">
        <ele>9.27</ele>
        <time>2023-08-15T11:07:54Z</time>
      </trkpt>
      <trkpt lat="51.058336012065411" lon="3.531551035121083">
        <ele>8.789999999999999</ele>
        <time>2023-08-15T11:08:04Z</time>
      </trkpt>
      <trkpt lat="51.058484958484769" lon="3.530799010768533">
        <ele>8.789999999999999</ele>
        <time>2023-08-15T11:08:14Z</time>
      </trkpt>
      <trkpt lat="51.058582020923495" lon="3.530307998880744">
        <ele>9.75</ele>
        <time>2023-08-15T11:08:24Z</time>
      </trkpt>
      <trkpt lat="51.058596018701792" lon="3.530238009989262">
        <ele>9.75</ele>
        <time>2023-08-15T11:08:25Z</time>
      </trkpt>
      <trkpt lat="51.058770027011633" lon="3.52935497649014">
        <ele>11.19</ele>
        <time>2023-08-15T11:08:34Z</time>
      </trkpt>
      <trkpt lat="51.058783018961549" lon="3.529288005083799">
        <ele>11.19</ele>
        <time>2023-08-15T11:08:35Z</time>
      </trkpt>
      <trkpt lat="51.058861976489425" lon="3.528880979865789">
        <ele>12.15</ele>
        <time>2023-08-15T11:08:46Z</time>
      </trkpt>
      <trkpt lat="51.058968007564545" lon="3.528330037370324">
        <ele>12.15</ele>
        <time>2023-08-15T11:08:54Z</time>
      </trkpt>
      <trkpt lat="51.059076972305775" lon="3.527761995792389">
        <ele>13.119999999999999</ele>
        <time>2023-08-15T11:09:04Z</time>
      </trkpt>
      <trkpt lat="51.059214016422629" lon="3.527049031108618">
        <ele>13.119999999999999</ele>
        <time>2023-08-15T11:09:13Z</time>
      </trkpt>
      <trkpt lat="51.059465976431966" lon="3.525710022076964">
        <ele>13.119999999999999</ele>
        <time>2023-08-15T11:09:23Z</time>
      </trkpt>
      <trkpt lat="51.059898985549808" lon="3.523455960676074">
        <ele>12.630000000000001</ele>
        <time>2023-08-15T11:09:39Z</time>
      </trkpt>
      <trkpt lat="51.060179024934769" lon="3.522029025480151">
        <ele>12.15</ele>
        <time>2023-08-15T11:09:46Z</time>
      </trkpt>
      <trkpt lat="51.060595018789172" lon="3.51987898349762">
        <ele>11.19</ele>
        <time>2023-08-15T11:09:54Z</time>
      </trkpt>
      <trkpt lat="51.061077984049916" lon="3.517369022592902">
        <ele>10.710000000000001</ele>
        <time>2023-08-15T11:10:05Z</time>
      </trkpt>
      <trkpt lat="51.061247969046235" lon="3.516483977437019">
        <ele>10.710000000000001</ele>
        <time>2023-08-15T11:10:10Z</time>
      </trkpt>
      <trkpt lat="51.061276970431209" lon="3.516334025189281">
        <ele>10.710000000000001</ele>
        <time>2023-08-15T11:10:12Z</time>
      </trkpt>
      <trkpt lat="51.061304965987802" lon="3.516186000779271">
        <ele>10.710000000000001</ele>
        <time>2023-08-15T11:10:19Z</time>
      </trkpt>
      <trkpt lat="51.061422983184457" lon="3.515573032200337">
        <ele>10.710000000000001</ele>
        <time>2023-08-15T11:10:29Z</time>
      </trkpt>
      <trkpt lat="51.061599003151059" lon="3.514660997316241">
        <ele>10.710000000000001</ele>
        <time>2023-08-15T11:10:40Z</time>
      </trkpt>
      <trkpt lat="51.061761025339365" lon="3.51381903514266">
        <ele>10.23</ele>
        <time>2023-08-15T11:10:50Z</time>
      </trkpt>
      <trkpt lat="51.062006028369069" lon="3.512549009174109">
        <ele>9.27</ele>
        <time>2023-08-15T11:11:01Z</time>
      </trkpt>
      <trkpt lat="51.062277015298605" lon="3.511130958795548">
        <ele>9.75</ele>
        <time>2023-08-15T11:11:10Z</time>
      </trkpt>
      <trkpt lat="51.062556970864534" lon="3.509669993072748">
        <ele>10.23</ele>
        <time>2023-08-15T11:11:21Z</time>
      </trkpt>
      <trkpt lat="51.062790993601084" lon="3.508444977924228">
        <ele>10.23</ele>
        <time>2023-08-15T11:11:30Z</time>
      </trkpt>
      <trkpt lat="51.063078995794058" lon="3.506942018866539">
        <ele>10.23</ele>
        <time>2023-08-15T11:11:39Z</time>
      </trkpt>
      <trkpt lat="51.063229031860828" lon="3.506154036149383">
        <ele>10.23</ele>
        <time>2023-08-15T11:11:45Z</time>
      </trkpt>
      <trkpt lat="51.063400022685528" lon="3.505263039842248">
        <ele>9.75</ele>
        <time>2023-08-15T11:11:56Z</time>
      </trkpt>
      <trkpt lat="51.063608983531594" lon="3.504168028011918">
        <ele>8.789999999999999</ele>
        <time>2023-08-15T11:12:07Z</time>
      </trkpt>
      <trkpt lat="51.063858009874821" lon="3.502866989001632">
        <ele>7.83</ele>
        <time>2023-08-15T11:12:17Z</time>
      </trkpt>
      <trkpt lat="51.064270986244082" lon="3.500709990039468">
        <ele>7.83</ele>
        <time>2023-08-15T11:12:26Z</time>
      </trkpt>
      <trkpt lat="51.064840033650398" lon="3.498089974746108">
        <ele>5.91</ele>
        <time>2023-08-15T11:12:35Z</time>
      </trkpt>
      <trkpt lat="51.065630028024316" lon="3.49448399618268">
        <ele>3.02</ele>
        <time>2023-08-15T11:12:45Z</time>
      </trkpt>
      <trkpt lat="51.066604005172849" lon="3.490041000768542">
        <ele>5.42</ele>
        <time>2023-08-15T11:12:56Z</time>
      </trkpt>
      <trkpt lat="51.067632967606187" lon="3.48539499565959">
        <ele>8.789999999999999</ele>
        <time>2023-08-15T11:13:08Z</time>
      </trkpt>
      <trkpt lat="51.068739965558052" lon="3.48045201972127">
        <ele>10.23</ele>
        <time>2023-08-15T11:13:21Z</time>
      </trkpt>
      <trkpt lat="51.069818967953324" lon="3.475529998540878">
        <ele>10.23</ele>
        <time>2023-08-15T11:13:34Z</time>
      </trkpt>
      <trkpt lat="51.071080025285482" lon="3.469851007685065">
        <ele>11.19</ele>
        <time>2023-08-15T11:13:49Z</time>
      </trkpt>
      <trkpt lat="51.072284001857042" lon="3.464405033737421">
        <ele>13.119999999999999</ele>
        <time>2023-08-15T11:14:02Z</time>
      </trkpt>
      <trkpt lat="51.073614964261651" lon="3.458362016826868">
        <ele>13.119999999999999</ele>
        <time>2023-08-15T11:14:16Z</time>
      </trkpt>
      <trkpt lat="51.075192019343376" lon="3.451493969187141">
        <ele>16.48</ele>
        <time>2023-08-15T11:14:32Z</time>
      </trkpt>
      <trkpt lat="51.076887007802725" lon="3.445651028305292">
        <ele>21.77</ele>
        <time>2023-08-15T11:14:46Z</time>
      </trkpt>
      <trkpt lat="51.078747035935521" lon="3.440475035458803">
        <ele>19.359999999999999</ele>
        <time>2023-08-15T11:14:59Z</time>
      </trkpt>
      <trkpt lat="51.079908013343811" lon="3.437577998265624">
        <ele>18.879999999999999</ele>
        <time>2023-08-15T11:15:07Z</time>
      </trkpt>
      <trkpt lat="51.08183903619647" lon="3.43273501843214">
        <ele>19.84</ele>
        <time>2023-08-15T11:15:21Z</time>
      </trkpt>
      <trkpt lat="51.08375002630055" lon="3.427954986691475">
        <ele>19.359999999999999</ele>
        <time>2023-08-15T11:15:34Z</time>
      </trkpt>
      <trkpt lat="51.085182996466756" lon="3.424381026998162">
        <ele>17.920000000000002</ele>
        <time>2023-08-15T11:15:44Z</time>
      </trkpt>
      <trkpt lat="51.086408011615276" lon="3.421330014243722">
        <ele>18.399999999999999</ele>
        <time>2023-08-15T11:15:53Z</time>
      </trkpt>
      <trkpt lat="51.088370969519019" lon="3.416450992226601">
        <ele>18.879999999999999</ele>
        <time>2023-08-15T11:16:07Z</time>
      </trkpt>
      <trkpt lat="51.090049026533961" lon="3.41228099539876">
        <ele>18.879999999999999</ele>
        <time>2023-08-15T11:16:19Z</time>
      </trkpt>
      <trkpt lat="51.091766981408" lon="3.408012008294463">
        <ele>16.48</ele>
        <time>2023-08-15T11:16:31Z</time>
      </trkpt>
      <trkpt lat="51.093049999326468" lon="3.404822023585439">
        <ele>15.52</ele>
        <time>2023-08-15T11:16:40Z</time>
      </trkpt>
      <trkpt lat="51.094887983053923" lon="3.400254976004362">
        <ele>15.039999999999999</ele>
        <time>2023-08-15T11:16:53Z</time>
      </trkpt>
      <trkpt lat="51.096571991220117" lon="3.396067963913083">
        <ele>15.52</ele>
        <time>2023-08-15T11:17:05Z</time>
      </trkpt>
      <trkpt lat="51.098910961300135" lon="3.390243966132402">
        <ele>17.440000000000001</ele>
        <time>2023-08-15T11:17:21Z</time>
      </trkpt>
      <trkpt lat="51.100997971370816" lon="3.385017011314631">
        <ele>16.48</ele>
        <time>2023-08-15T11:17:35Z</time>
      </trkpt>
      <trkpt lat="51.102878032252192" lon="3.38031099177897">
        <ele>18.399999999999999</ele>
        <time>2023-08-15T11:17:48Z</time>
      </trkpt>
      <trkpt lat="51.104459026828408" lon="3.376341992989183">
        <ele>17.920000000000002</ele>
        <time>2023-08-15T11:17:59Z</time>
      </trkpt>
      <trkpt lat="51.106461966410279" lon="3.371289968490601">
        <ele>16.48</ele>
        <time>2023-08-15T11:18:13Z</time>
      </trkpt>
      <trkpt lat="51.10850497148931" lon="3.366102995350957">
        <ele>15.039999999999999</ele>
        <time>2023-08-15T11:18:27Z</time>
      </trkpt>
      <trkpt lat="51.109997034072876" lon="3.362314961850643">
        <ele>14.08</ele>
        <time>2023-08-15T11:18:38Z</time>
      </trkpt>
      <trkpt lat="51.111496975645423" lon="3.358399020507932">
        <ele>13.119999999999999</ele>
        <time>2023-08-15T11:18:49Z</time>
      </trkpt>
      <trkpt lat="51.11288602463901" lon="3.353824010118842">
        <ele>16</ele>
        <time>2023-08-15T11:19:01Z</time>
      </trkpt>
      <trkpt lat="51.11389797180891" lon="3.350215014070272">
        <ele>17.440000000000001</ele>
        <time>2023-08-15T11:19:10Z</time>
      </trkpt>
      <trkpt lat="51.115510985255241" lon="3.344435021281242">
        <ele>17.440000000000001</ele>
        <time>2023-08-15T11:19:24Z</time>
      </trkpt>
      <trkpt lat="51.117150988429785" lon="3.338590990751982">
        <ele>16.960000000000001</ele>
        <time>2023-08-15T11:19:38Z</time>
      </trkpt>
      <trkpt lat="51.119153006002307" lon="3.331479029729962">
        <ele>16.48</ele>
        <time>2023-08-15T11:19:55Z</time>
      </trkpt>
      <trkpt lat="51.120357988402247" lon="3.327175006270409">
        <ele>16</ele>
        <time>2023-08-15T11:20:06Z</time>
      </trkpt>
      <trkpt lat="51.121326014399529" lon="3.323730966076255">
        <ele>15.52</ele>
        <time>2023-08-15T11:20:16Z</time>
      </trkpt>
      <trkpt lat="51.12257500179112" lon="3.31920700147748">
        <ele>17.440000000000001</ele>
        <time>2023-08-15T11:20:29Z</time>
      </trkpt>
      <trkpt lat="51.123891966417432" lon="3.314529983326793">
        <ele>17.920000000000002</ele>
        <time>2023-08-15T11:20:42Z</time>
      </trkpt>
      <trkpt lat="51.125495005398989" lon="3.308840012177825">
        <ele>17.440000000000001</ele>
        <time>2023-08-15T11:20:59Z</time>
      </trkpt>
      <trkpt lat="51.126714991405606" lon="3.304484020918608">
        <ele>17.440000000000001</ele>
        <time>2023-08-15T11:21:11Z</time>
      </trkpt>
      <trkpt lat="51.127526024356484" lon="3.301580026745796">
        <ele>15.52</ele>
        <time>2023-08-15T11:21:19Z</time>
      </trkpt>
      <trkpt lat="51.128861010074615" lon="3.296793038025498">
        <ele>15.039999999999999</ele>
        <time>2023-08-15T11:21:32Z</time>
      </trkpt>
      <trkpt lat="51.12987999804318" lon="3.293138025328517">
        <ele>14.56</ele>
        <time>2023-08-15T11:21:42Z</time>
      </trkpt>
      <trkpt lat="51.131370970979333" lon="3.287789030000567">
        <ele>14.08</ele>
        <time>2023-08-15T11:21:57Z</time>
      </trkpt>
      <trkpt lat="51.13250101916492" lon="3.283735038712621">
        <ele>13.6</ele>
        <time>2023-08-15T11:22:08Z</time>
      </trkpt>
      <trkpt lat="51.133795017376542" lon="3.279076041653752">
        <ele>13.119999999999999</ele>
        <time>2023-08-15T11:22:20Z</time>
      </trkpt>
      <trkpt lat="51.135282972827554" lon="3.273748001083732">
        <ele>10.23</ele>
        <time>2023-08-15T11:22:34Z</time>
      </trkpt>
      <trkpt lat="51.136645032092929" lon="3.268878031522036">
        <ele>9.75</ele>
        <time>2023-08-15T11:22:47Z</time>
      </trkpt>
      <trkpt lat="51.137580033391714" lon="3.26553700491786">
        <ele>10.23</ele>
        <time>2023-08-15T11:22:56Z</time>
      </trkpt>
      <trkpt lat="51.138720978051424" lon="3.261467004194856">
        <ele>9.27</ele>
        <time>2023-08-15T11:23:06Z</time>
      </trkpt>
      <trkpt lat="51.139432014897466" lon="3.258927036076784">
        <ele>9.27</ele>
        <time>2023-08-15T11:23:13Z</time>
      </trkpt>
      <trkpt lat="51.14088200032711" lon="3.253779960796237">
        <ele>10.23</ele>
        <time>2023-08-15T11:23:27Z</time>
      </trkpt>
      <trkpt lat="51.141914986073971" lon="3.250035010278225">
        <ele>10.710000000000001</ele>
        <time>2023-08-15T11:23:37Z</time>
      </trkpt>
      <trkpt lat="51.142896004021168" lon="3.246489968150854">
        <ele>11.19</ele>
        <time>2023-08-15T11:23:46Z</time>
      </trkpt>
      <trkpt lat="51.14421296864748" lon="3.241824014112353">
        <ele>14.56</ele>
        <time>2023-08-15T11:23:58Z</time>
      </trkpt>
      <trkpt lat="51.145201027393341" lon="3.238278971984983">
        <ele>14.56</ele>
        <time>2023-08-15T11:24:07Z</time>
      </trkpt>
      <trkpt lat="51.146147008985281" lon="3.23487801477313">
        <ele>14.08</ele>
        <time>2023-08-15T11:24:16Z</time>
      </trkpt>
      <trkpt lat="51.147381998598576" lon="3.230445999652147">
        <ele>15.52</ele>
        <time>2023-08-15T11:24:27Z</time>
      </trkpt>
      <trkpt lat="51.148875989019871" lon="3.225730005651712">
        <ele>11.19</ele>
        <time>2023-08-15T11:24:39Z</time>
      </trkpt>
      <trkpt lat="51.150056999176741" lon="3.222727021202445">
        <ele>5.91</ele>
        <time>2023-08-15T11:24:48Z</time>
      </trkpt>
      <trkpt lat="51.151627013459802" lon="3.219490014016628">
        <ele>3.02</ele>
        <time>2023-08-15T11:24:58Z</time>
      </trkpt>
      <trkpt lat="51.15409498102963" lon="3.215098986402154">
        <ele>2.54</ele>
        <time>2023-08-15T11:25:12Z</time>
      </trkpt>
      <trkpt lat="51.156052993610501" lon="3.211657041683793">
        <ele>4.46</ele>
        <time>2023-08-15T11:25:23Z</time>
      </trkpt>
      <trkpt lat="51.158658005297184" lon="3.206715993583202">
        <ele>8.789999999999999</ele>
        <time>2023-08-15T11:25:38Z</time>
      </trkpt>
      <trkpt lat="51.160342013463378" lon="3.202673988416791">
        <ele>14.08</ele>
        <time>2023-08-15T11:25:49Z</time>
      </trkpt>
      <trkpt lat="51.161526963114738" lon="3.199028028175235">
        <ele>16.48</ele>
        <time>2023-08-15T11:25:58Z</time>
      </trkpt>
      <trkpt lat="51.162478979676962" lon="3.195257009938359">
        <ele>16.48</ele>
        <time>2023-08-15T11:26:07Z</time>
      </trkpt>
      <trkpt lat="51.163913961499929" lon="3.18827698007226">
        <ele>13.6</ele>
        <time>2023-08-15T11:26:23Z</time>
      </trkpt>
      <trkpt lat="51.16515900939703" lon="3.181801959872246">
        <ele>9.27</ele>
        <time>2023-08-15T11:26:38Z</time>
      </trkpt>
      <trkpt lat="51.166404979303479" lon="3.175491979345679">
        <ele>10.23</ele>
        <time>2023-08-15T11:26:53Z</time>
      </trkpt>
      <trkpt lat="51.167398989200592" lon="3.170413970947266">
        <ele>13.6</ele>
        <time>2023-08-15T11:27:05Z</time>
      </trkpt>
      <trkpt lat="51.168402973562479" lon="3.165347026661038">
        <ele>16.48</ele>
        <time>2023-08-15T11:27:17Z</time>
      </trkpt>
      <trkpt lat="51.169567974284291" lon="3.159425966441631">
        <ele>19.84</ele>
        <time>2023-08-15T11:27:31Z</time>
      </trkpt>
      <trkpt lat="51.17095903493464" lon="3.153173988685012">
        <ele>18.879999999999999</ele>
        <time>2023-08-15T11:27:46Z</time>
      </trkpt>
      <trkpt lat="51.172648994252086" lon="3.147094007581472">
        <ele>15.52</ele>
        <time>2023-08-15T11:28:01Z</time>
      </trkpt>
      <trkpt lat="51.174218002706766" lon="3.142397962510586">
        <ele>15.52</ele>
        <time>2023-08-15T11:28:13Z</time>
      </trkpt>
      <trkpt lat="51.175819030031562" lon="3.137754974886775">
        <ele>15.039999999999999</ele>
        <time>2023-08-15T11:28:25Z</time>
      </trkpt>
      <trkpt lat="51.177557017654181" lon="3.132713008671999">
        <ele>16.48</ele>
        <time>2023-08-15T11:28:38Z</time>
      </trkpt>
      <trkpt lat="51.178773986175656" lon="3.129169978201389">
        <ele>14.08</ele>
        <time>2023-08-15T11:28:47Z</time>
      </trkpt>
      <trkpt lat="51.180622028186917" lon="3.123783012852073">
        <ele>11.19</ele>
        <time>2023-08-15T11:29:01Z</time>
      </trkpt>
      <trkpt lat="51.181378997862339" lon="3.121574968099594">
        <ele>11.19</ele>
        <time>2023-08-15T11:29:08Z</time>
      </trkpt>
      <trkpt lat="51.182944988831878" lon="3.117065001279116">
        <ele>10.23</ele>
        <time>2023-08-15T11:29:21Z</time>
      </trkpt>
      <trkpt lat="51.18432498537004" lon="3.113037999719381">
        <ele>9.27</ele>
        <time>2023-08-15T11:29:33Z</time>
      </trkpt>
      <trkpt lat="51.185358976945281" lon="3.110053958371282">
        <ele>7.35</ele>
        <time>2023-08-15T11:29:43Z</time>
      </trkpt>
      <trkpt lat="51.186170009896159" lon="3.108038026839495">
        <ele>5.91</ele>
        <time>2023-08-15T11:29:52Z</time>
      </trkpt>
      <trkpt lat="51.186266988515854" lon="3.107880027964711">
        <ele>5.91</ele>
        <time>2023-08-15T11:29:53Z</time>
      </trkpt>
      <trkpt lat="51.186367990449071" lon="3.107765028253198">
        <ele>5.91</ele>
        <time>2023-08-15T11:29:54Z</time>
      </trkpt>
      <trkpt lat="51.186534035950899" lon="3.10757601633668">
        <ele>5.91</ele>
        <time>2023-08-15T11:29:56Z</time>
      </trkpt>
      <trkpt lat="51.186904013156891" lon="3.10736102052033">
        <ele>4.46</ele>
        <time>2023-08-15T11:30:03Z</time>
      </trkpt>
      <trkpt lat="51.187151027843356" lon="3.107224982231855">
        <ele>3.98</ele>
        <time>2023-08-15T11:30:07Z</time>
      </trkpt>
      <trkpt lat="51.187196038663387" lon="3.107182988896966">
        <ele>3.98</ele>
        <time>2023-08-15T11:30:08Z</time>
      </trkpt>
      <trkpt lat="51.187641033902764" lon="3.106985008344054">
        <ele>3.02</ele>
        <time>2023-08-15T11:30:19Z</time>
      </trkpt>
      <trkpt lat="51.187664000317454" lon="3.106984002515674">
        <ele>3.02</ele>
        <time>2023-08-15T11:30:20Z</time>
      </trkpt>
      <trkpt lat="51.187677998095751" lon="3.106960030272603">
        <ele>3.5</ele>
        <time>2023-08-15T11:30:30Z</time>
      </trkpt>
      <trkpt lat="51.187677998095751" lon="3.106960030272603">
        <ele>3.5</ele>
        <time>2023-08-15T11:31:14Z</time>
      </trkpt>
      <trkpt lat="51.187728960067034" lon="3.106871014460921">
        <ele>4.46</ele>
        <time>2023-08-15T11:31:28Z</time>
      </trkpt>
      <trkpt lat="51.187746981158853" lon="3.106840001419187">
        <ele>5.42</ele>
        <time>2023-08-15T11:31:29Z</time>
      </trkpt>
      <trkpt lat="51.187767013907433" lon="3.106803959235549">
        <ele>5.42</ele>
        <time>2023-08-15T11:31:30Z</time>
      </trkpt>
      <trkpt lat="51.187840020284057" lon="3.106685020029545">
        <ele>5.91</ele>
        <time>2023-08-15T11:31:31Z</time>
      </trkpt>
      <trkpt lat="51.187900034710765" lon="3.106698011979461">
        <ele>5.91</ele>
        <time>2023-08-15T11:31:32Z</time>
      </trkpt>
      <trkpt lat="51.187943033874035" lon="3.106705974787474">
        <ele>5.91</ele>
        <time>2023-08-15T11:31:33Z</time>
      </trkpt>
      <trkpt lat="51.187943033874035" lon="3.106705974787474">
        <ele>5.91</ele>
        <time>2023-08-15T11:31:34Z</time>
      </trkpt>
      <trkpt lat="51.187943033874035" lon="3.106705974787474">
        <ele>5.91</ele>
        <time>2023-08-15T11:31:35Z</time>
      </trkpt>
      <trkpt lat="51.18804001249373" lon="3.106647972017527">
        <ele>5.91</ele>
        <time>2023-08-15T11:31:36Z</time>
      </trkpt>
      <trkpt lat="51.188049986958504" lon="3.106642020866275">
        <ele>5.91</ele>
        <time>2023-08-15T11:31:37Z</time>
      </trkpt>
      <trkpt lat="51.188114024698734" lon="3.106530038639903">
        <ele>5.91</ele>
        <time>2023-08-15T11:31:38Z</time>
      </trkpt>
      <trkpt lat="51.188435973599553" lon="3.105939030647278">
        <ele>5.91</ele>
        <time>2023-08-15T11:31:44Z</time>
      </trkpt>
      <trkpt lat="51.188564971089363" lon="3.105697967112064">
        <ele>5.91</ele>
        <time>2023-08-15T11:31:45Z</time>
      </trkpt>
      <trkpt lat="51.188564971089363" lon="3.105697967112064">
        <ele>5.91</ele>
        <time>2023-08-15T11:31:46Z</time>
      </trkpt>
      <trkpt lat="51.188564971089363" lon="3.105697967112064">
        <ele>5.91</ele>
        <time>2023-08-15T11:31:47Z</time>
      </trkpt>
      <trkpt lat="51.188564971089363" lon="3.105642981827259">
        <ele>5.42</ele>
        <time>2023-08-15T11:31:48Z</time>
      </trkpt>
      <trkpt lat="51.188564971089363" lon="3.105390015989542">
        <ele>5.42</ele>
        <time>2023-08-15T11:31:50Z</time>
      </trkpt>
      <trkpt lat="51.188564971089363" lon="3.105353973805904">
        <ele>4.94</ele>
        <time>2023-08-15T11:31:51Z</time>
      </trkpt>
      <trkpt lat="51.188616016879678" lon="3.105212990194559">
        <ele>4.94</ele>
        <time>2023-08-15T11:31:52Z</time>
      </trkpt>
      <trkpt lat="51.188650969415903" lon="3.105118023231626">
        <ele>4.94</ele>
        <time>2023-08-15T11:31:53Z</time>
      </trkpt>
      <trkpt lat="51.188666978850961" lon="3.10495600104332">
        <ele>4.94</ele>
        <time>2023-08-15T11:31:54Z</time>
      </trkpt>
      <trkpt lat="51.188679970800877" lon="3.10482700355351">
        <ele>4.94</ele>
        <time>2023-08-15T11:31:55Z</time>
      </trkpt>
      <trkpt lat="51.188693968579173" lon="3.104689037427306">
        <ele>4.94</ele>
        <time>2023-08-15T11:31:56Z</time>
      </trkpt>
      <trkpt lat="51.188693968579173" lon="3.104689037427306">
        <ele>4.46</ele>
        <time>2023-08-15T11:31:59Z</time>
      </trkpt>
      <trkpt lat="51.188946012407541" lon="3.103892002254725">
        <ele>3.98</ele>
        <time>2023-08-15T11:32:04Z</time>
      </trkpt>
      <trkpt lat="51.188564971089363" lon="3.103938018903136">
        <ele>3.98</ele>
        <time>2023-08-15T11:32:05Z</time>
      </trkpt>
      <trkpt lat="51.188544016331434" lon="3.103847997263074">
        <ele>3.5</ele>
        <time>2023-08-15T11:32:06Z</time>
      </trkpt>
      <trkpt lat="51.1885130032897" lon="3.10371003113687">
        <ele>3.02</ele>
        <time>2023-08-15T11:32:07Z</time>
      </trkpt>
      <trkpt lat="51.188478972762823" lon="3.103564018383622">
        <ele>2.54</ele>
        <time>2023-08-15T11:32:08Z</time>
      </trkpt>
      <trkpt lat="51.188441002741456" lon="3.103397972881794">
        <ele>2.54</ele>
        <time>2023-08-15T11:32:09Z</time>
      </trkpt>
      <trkpt lat="51.188399009406567" lon="3.103214995935559">
        <ele>2.54</ele>
        <time>2023-08-15T11:32:10Z</time>
      </trkpt>
      <trkpt lat="51.188353998586535" lon="3.103020032867789">
        <ele>2.54</ele>
        <time>2023-08-15T11:32:11Z</time>
      </trkpt>
      <trkpt lat="51.188308987766504" lon="3.102820962667465">
        <ele>3.02</ele>
        <time>2023-08-15T11:32:12Z</time>
      </trkpt>
      <trkpt lat="51.188263976946473" lon="3.102629017084837">
        <ele>3.02</ele>
        <time>2023-08-15T11:32:13Z</time>
      </trkpt>
      <trkpt lat="51.18827504105866" lon="3.102427013218403">
        <ele>3.02</ele>
        <time>2023-08-15T11:32:14Z</time>
      </trkpt>
      <trkpt lat="51.188286021351814" lon="3.102200031280518">
        <ele>3.02</ele>
        <time>2023-08-15T11:32:15Z</time>
      </trkpt>
      <trkpt lat="51.188336983323097" lon="3.102000961080194">
        <ele>3.5</ele>
        <time>2023-08-15T11:32:16Z</time>
      </trkpt>
      <trkpt lat="51.188398003578186" lon="3.101765010505915">
        <ele>3.5</ele>
        <time>2023-08-15T11:32:17Z</time>
      </trkpt>
      <trkpt lat="51.188467992469668" lon="3.101507015526295">
        <ele>3.98</ele>
        <time>2023-08-15T11:32:18Z</time>
      </trkpt>
      <trkpt lat="51.189240971580148" lon="3.099202997982502">
        <ele>3.98</ele>
        <time>2023-08-15T11:32:26Z</time>
      </trkpt>
      <trkpt lat="51.189802978187799" lon="3.096436969935894">
        <ele>3.5</ele>
        <time>2023-08-15T11:32:34Z</time>
      </trkpt>
      <trkpt lat="51.190884998068213" lon="3.091821977868676">
        <ele>3.98</ele>
        <time>2023-08-15T11:32:46Z</time>
      </trkpt>
      <trkpt lat="51.191711034625769" lon="3.087576040998101">
        <ele>5.42</ele>
        <time>2023-08-15T11:32:56Z</time>
      </trkpt>
      <trkpt lat="51.192635977640748" lon="3.082476994022727">
        <ele>5.91</ele>
        <time>2023-08-15T11:33:08Z</time>
      </trkpt>
      <trkpt lat="51.193277025595307" lon="3.078098958358169">
        <ele>5.91</ele>
        <time>2023-08-15T11:33:18Z</time>
      </trkpt>
      <trkpt lat="51.193377021700144" lon="3.074637986719608">
        <ele>5.91</ele>
        <time>2023-08-15T11:33:26Z</time>
      </trkpt>
      <trkpt lat="51.192989023402333" lon="3.070707963779569">
        <ele>5.91</ele>
        <time>2023-08-15T11:33:35Z</time>
      </trkpt>
      <trkpt lat="51.192262982949615" lon="3.06783196516335">
        <ele>6.39</ele>
        <time>2023-08-15T11:33:42Z</time>
      </trkpt>
      <trkpt lat="51.190803023055196" lon="3.063041958957911">
        <ele>4.94</ele>
        <time>2023-08-15T11:33:54Z</time>
      </trkpt>
      <trkpt lat="51.189498966559768" lon="3.058121027424932">
        <ele>3.5</ele>
        <time>2023-08-15T11:34:06Z</time>
      </trkpt>
      <trkpt lat="51.188237993046641" lon="3.052580002695322">
        <ele>3.5</ele>
        <time>2023-08-15T11:34:19Z</time>
      </trkpt>
      <trkpt lat="51.187158990651369" lon="3.047793013975024">
        <ele>3.02</ele>
        <time>2023-08-15T11:34:30Z</time>
      </trkpt>
      <trkpt lat="51.185608003288507" lon="3.04082396440208">
        <ele>2.06</ele>
        <time>2023-08-15T11:34:46Z</time>
      </trkpt>
      <trkpt lat="51.184529000893235" lon="3.036046028137207">
        <ele>3.5</ele>
        <time>2023-08-15T11:34:57Z</time>
      </trkpt>
      <trkpt lat="51.183599028736353" lon="3.031936967745423">
        <ele>4.46</ele>
        <time>2023-08-15T11:35:07Z</time>
      </trkpt>
      <trkpt lat="51.182735022157431" lon="3.028124962002039">
        <ele>7.83</ele>
        <time>2023-08-15T11:35:17Z</time>
      </trkpt>
      <trkpt lat="51.181464996188879" lon="3.0238719843328">
        <ele>9.75</ele>
        <time>2023-08-15T11:35:28Z</time>
      </trkpt>
      <trkpt lat="51.180121963843703" lon="3.020367007702589">
        <ele>10.23</ele>
        <time>2023-08-15T11:35:37Z</time>
      </trkpt>
      <trkpt lat="51.178391017019749" lon="3.016112018376589">
        <ele>9.27</ele>
        <time>2023-08-15T11:35:48Z</time>
      </trkpt>
      <trkpt lat="51.176124969497323" lon="3.010408971458674">
        <ele>8.789999999999999</ele>
        <time>2023-08-15T11:36:03Z</time>
      </trkpt>
      <trkpt lat="51.17482996545732" lon="3.006400996819139">
        <ele>9.75</ele>
        <time>2023-08-15T11:36:13Z</time>
      </trkpt>
      <trkpt lat="51.17381801828742" lon="3.00174099393189">
        <ele>7.35</ele>
        <time>2023-08-15T11:36:24Z</time>
      </trkpt>
      <trkpt lat="51.17321502417326" lon="2.997951032593846">
        <ele>6.39</ele>
        <time>2023-08-15T11:36:33Z</time>
      </trkpt>
      <trkpt lat="51.172215985134244" lon="2.991192033514381">
        <ele>5.91</ele>
        <time>2023-08-15T11:36:48Z</time>
      </trkpt>
      <trkpt lat="51.171445017680526" lon="2.985794004052877">
        <ele>4.46</ele>
        <time>2023-08-15T11:37:00Z</time>
      </trkpt>
      <trkpt lat="51.170456036925316" lon="2.979029975831509">
        <ele>4.94</ele>
        <time>2023-08-15T11:37:15Z</time>
      </trkpt>
      <trkpt lat="51.169521035626531" lon="2.972664004191756">
        <ele>4.94</ele>
        <time>2023-08-15T11:37:29Z</time>
      </trkpt>
      <trkpt lat="51.168957017362118" lon="2.969065988436341">
        <ele>3.98</ele>
        <time>2023-08-15T11:37:37Z</time>
      </trkpt>
      <trkpt lat="51.168087981641293" lon="2.964196018874645">
        <ele>3.98</ele>
        <time>2023-08-15T11:37:48Z</time>
      </trkpt>
      <trkpt lat="51.166331972926855" lon="2.956874007359147">
        <ele>6.39</ele>
        <time>2023-08-15T11:38:05Z</time>
      </trkpt>
      <trkpt lat="51.164834965020418" lon="2.951847966760397">
        <ele>11.67</ele>
        <time>2023-08-15T11:38:17Z</time>
      </trkpt>
      <trkpt lat="51.163416998460889" lon="2.947811996564269">
        <ele>10.710000000000001</ele>
        <time>2023-08-15T11:38:27Z</time>
      </trkpt>
      <trkpt lat="51.16124901920557" lon="2.942323023453355">
        <ele>3.5</ele>
        <time>2023-08-15T11:38:41Z</time>
      </trkpt>
      <trkpt lat="51.159266028553247" lon="2.937307963147759">
        <ele>3.5</ele>
        <time>2023-08-15T11:38:54Z</time>
      </trkpt>
      <trkpt lat="51.156993024051189" lon="2.931516990065575">
        <ele>5.42</ele>
        <time>2023-08-15T11:39:09Z</time>
      </trkpt>
      <trkpt lat="51.154618011787534" lon="2.925312034785748">
        <ele>4.46</ele>
        <time>2023-08-15T11:39:25Z</time>
      </trkpt>
      <trkpt lat="51.152278035879135" lon="2.918539037927985">
        <ele>4.46</ele>
        <time>2023-08-15T11:39:42Z</time>
      </trkpt>
      <trkpt lat="51.150154983624816" lon="2.911593960598111">
        <ele>3.5</ele>
        <time>2023-08-15T11:39:59Z</time>
      </trkpt>
      <trkpt lat="51.148592010140419" lon="2.905737021937966">
        <ele>3.98</ele>
        <time>2023-08-15T11:40:13Z</time>
      </trkpt>
      <trkpt lat="51.147213019430637" lon="2.899787966161966">
        <ele>4.46</ele>
        <time>2023-08-15T11:40:27Z</time>
      </trkpt>
      <trkpt lat="51.145730009302497" lon="2.892422033473849">
        <ele>3.98</ele>
        <time>2023-08-15T11:40:44Z</time>
      </trkpt>
      <trkpt lat="51.144995000213385" lon="2.888033017516136">
        <ele>4.46</ele>
        <time>2023-08-15T11:40:54Z</time>
      </trkpt>
      <trkpt lat="51.143828993663192" lon="2.879613982513547">
        <ele>4.46</ele>
        <time>2023-08-15T11:41:13Z</time>
      </trkpt>
      <trkpt lat="51.142920982092619" lon="2.871565008535981">
        <ele>7.83</ele>
        <time>2023-08-15T11:41:31Z</time>
      </trkpt>
      <trkpt lat="51.142137022688985" lon="2.864854037761688">
        <ele>7.35</ele>
        <time>2023-08-15T11:41:46Z</time>
      </trkpt>
      <trkpt lat="51.141200009733438" lon="2.858676994219422">
        <ele>5.42</ele>
        <time>2023-08-15T11:42:00Z</time>
      </trkpt>
      <trkpt lat="51.139869969338179" lon="2.850319985300303">
        <ele>5.91</ele>
        <time>2023-08-15T11:42:19Z</time>
      </trkpt>
      <trkpt lat="51.138919964432716" lon="2.84369601868093">
        <ele>5.42</ele>
        <time>2023-08-15T11:42:34Z</time>
      </trkpt>
      <trkpt lat="51.138233989477158" lon="2.838816996663809">
        <ele>5.91</ele>
        <time>2023-08-15T11:42:45Z</time>
      </trkpt>
      <trkpt lat="51.137235034257174" lon="2.831725990399718">
        <ele>5.42</ele>
        <time>2023-08-15T11:43:01Z</time>
      </trkpt>
      <trkpt lat="51.136241024360061" lon="2.825168995186687">
        <ele>4.46</ele>
        <time>2023-08-15T11:43:16Z</time>
      </trkpt>
      <trkpt lat="51.135976994410157" lon="2.823656983673573">
        <ele>5.42</ele>
        <time>2023-08-15T11:43:21Z</time>
      </trkpt>
      <trkpt lat="51.135782031342387" lon="2.822642019018531">
        <ele>5.42</ele>
        <time>2023-08-15T11:43:26Z</time>
      </trkpt>
      <trkpt lat="51.135750012472272" lon="2.822487959638238">
        <ele>4.94</ele>
        <time>2023-08-15T11:43:27Z</time>
      </trkpt>
      <trkpt lat="51.135904993861914" lon="2.822282016277313">
        <ele>4.94</ele>
        <time>2023-08-15T11:43:28Z</time>
      </trkpt>
      <trkpt lat="51.135925026610494" lon="2.82135296612978">
        <ele>3.5</ele>
        <time>2023-08-15T11:43:36Z</time>
      </trkpt>
      <trkpt lat="51.135927038267255" lon="2.821290018036962">
        <ele>3.5</ele>
        <time>2023-08-15T11:43:37Z</time>
      </trkpt>
      <trkpt lat="51.135927960276604" lon="2.821234026923776">
        <ele>3.5</ele>
        <time>2023-08-15T11:43:38Z</time>
      </trkpt>
      <trkpt lat="51.135884961113334" lon="2.82096697948873">
        <ele>3.5</ele>
        <time>2023-08-15T11:43:43Z</time>
      </trkpt>
      <trkpt lat="51.135865012183785" lon="2.820877963677049">
        <ele>3.5</ele>
        <time>2023-08-15T11:43:44Z</time>
      </trkpt>
      <trkpt lat="51.13574699498713" lon="2.820343030616641">
        <ele>1.58</ele>
        <time>2023-08-15T11:43:50Z</time>
      </trkpt>
      <trkpt lat="51.135701984167099" lon="2.820141026750207">
        <ele>-0.34</ele>
        <time>2023-08-15T11:43:56Z</time>
      </trkpt>
      <trkpt lat="51.135701984167099" lon="2.820141026750207">
        <ele>-0.82</ele>
        <time>2023-08-15T11:44:11Z</time>
      </trkpt>
      <trkpt lat="51.135701984167099" lon="2.820141026750207">
        <ele>-0.82</ele>
        <time>2023-08-15T11:44:44Z</time>
      </trkpt>
      <trkpt lat="51.135684968903661" lon="2.820067014545202">
        <ele>-0.82</ele>
        <time>2023-08-15T11:44:45Z</time>
      </trkpt>
      <trkpt lat="51.135665019974113" lon="2.819974981248379">
        <ele>-0.82</ele>
        <time>2023-08-15T11:44:46Z</time>
      </trkpt>
      <trkpt lat="51.135562006384134" lon="2.819508025422692">
        <ele>-1.3</ele>
        <time>2023-08-15T11:44:50Z</time>
      </trkpt>
      <trkpt lat="51.135534010827541" lon="2.819381961598992">
        <ele>-1.79</ele>
        <time>2023-08-15T11:44:51Z</time>
      </trkpt>
      <trkpt lat="51.135137965902686" lon="2.818204974755645">
        <ele>-2.27</ele>
        <time>2023-08-15T11:45:00Z</time>
      </trkpt>
      <trkpt lat="51.135065965354443" lon="2.818103972822428">
        <ele>-2.27</ele>
        <time>2023-08-15T11:45:01Z</time>
      </trkpt>
      <trkpt lat="51.134982984513044" lon="2.817988973110914">
        <ele>-2.27</ele>
        <time>2023-08-15T11:45:02Z</time>
      </trkpt>
      <trkpt lat="51.134761031717062" lon="2.817664006724954">
        <ele>-2.27</ele>
        <time>2023-08-15T11:45:04Z</time>
      </trkpt>
      <trkpt lat="51.134684002026916" lon="2.817439958453178">
        <ele>-2.27</ele>
        <time>2023-08-15T11:45:05Z</time>
      </trkpt>
      <trkpt lat="51.134130964055657" lon="2.815727032721043">
        <ele>-0.82</ele>
        <time>2023-08-15T11:45:11Z</time>
      </trkpt>
      <trkpt lat="51.133171990513802" lon="2.812403021380305">
        <ele>1.58</ele>
        <time>2023-08-15T11:45:20Z</time>
      </trkpt>
      <trkpt lat="51.131637012585998" lon="2.807871010154486">
        <ele>3.98</ele>
        <time>2023-08-15T11:45:31Z</time>
      </trkpt>
      <trkpt lat="51.129692997783422" lon="2.802198976278305">
        <ele>7.83</ele>
        <time>2023-08-15T11:45:45Z</time>
      </trkpt>
      <trkpt lat="51.128078978508711" lon="2.797510977834463">
        <ele>8.789999999999999</ele>
        <time>2023-08-15T11:45:57Z</time>
      </trkpt>
      <trkpt lat="51.126429000869393" lon="2.792737986892462">
        <ele>3.98</ele>
        <time>2023-08-15T11:46:09Z</time>
      </trkpt>
      <trkpt lat="51.125081023201346" lon="2.788859009742737">
        <ele>1.58</ele>
        <time>2023-08-15T11:46:19Z</time>
      </trkpt>
      <trkpt lat="51.123183025047183" lon="2.783379005268216">
        <ele>1.1</ele>
        <time>2023-08-15T11:46:34Z</time>
      </trkpt>
      <trkpt lat="51.121547967195511" lon="2.778645996004343">
        <ele>1.58</ele>
        <time>2023-08-15T11:46:46Z</time>
      </trkpt>
      <trkpt lat="51.119350986555219" lon="2.772287987172604">
        <ele>1.58</ele>
        <time>2023-08-15T11:47:02Z</time>
      </trkpt>
      <trkpt lat="51.116877989843488" lon="2.765126992017031">
        <ele>5.42</ele>
        <time>2023-08-15T11:47:20Z</time>
      </trkpt>
      <trkpt lat="51.114608002826571" lon="2.759334007278085">
        <ele>6.39</ele>
        <time>2023-08-15T11:47:35Z</time>
      </trkpt>
      <trkpt lat="51.112526021897793" lon="2.754993019625545">
        <ele>2.06</ele>
        <time>2023-08-15T11:47:47Z</time>
      </trkpt>
      <trkpt lat="51.111216014251113" lon="2.752583976835012">
        <ele>2.06</ele>
        <time>2023-08-15T11:47:54Z</time>
      </trkpt>
      <trkpt lat="51.108684008941054" lon="2.748439963907003">
        <ele>2.06</ele>
        <time>2023-08-15T11:48:07Z</time>
      </trkpt>
      <trkpt lat="51.105525037273765" lon="2.744104005396366">
        <ele>2.06</ele>
        <time>2023-08-15T11:48:22Z</time>
      </trkpt>
      <trkpt lat="51.101656034588814" lon="2.739781960844994">
        <ele>1.58</ele>
        <time>2023-08-15T11:48:39Z</time>
      </trkpt>
      <trkpt lat="51.098013008013368" lon="2.736513018608093">
        <ele>1.58</ele>
        <time>2023-08-15T11:48:54Z</time>
      </trkpt>
      <trkpt lat="51.09451700001955" lon="2.733768029138446">
        <ele>1.58</ele>
        <time>2023-08-15T11:49:08Z</time>
      </trkpt>
      <trkpt lat="51.091584004461765" lon="2.731229988858104">
        <ele>2.06</ele>
        <time>2023-08-15T11:49:20Z</time>
      </trkpt>
      <trkpt lat="51.08910296112299" lon="2.728390032425523">
        <ele>3.02</ele>
        <time>2023-08-15T11:49:31Z</time>
      </trkpt>
      <trkpt lat="51.086710011586547" lon="2.724736025556922">
        <ele>2.06</ele>
        <time>2023-08-15T11:49:43Z</time>
      </trkpt>
      <trkpt lat="51.085309982299805" lon="2.722150962799788">
        <ele>1.58</ele>
        <time>2023-08-15T11:49:51Z</time>
      </trkpt>
      <trkpt lat="51.083507034927607" lon="2.718724021688104">
        <ele>1.1</ele>
        <time>2023-08-15T11:50:01Z</time>
      </trkpt>
      <trkpt lat="51.08048896305263" lon="2.712970012798905">
        <ele>0.14</ele>
        <time>2023-08-15T11:50:18Z</time>
      </trkpt>
      <trkpt lat="51.079252967610955" lon="2.710600029677153">
        <ele>1.58</ele>
        <time>2023-08-15T11:50:25Z</time>
      </trkpt>
      <trkpt lat="51.076757004484534" lon="2.705844976007938">
        <ele>1.1</ele>
        <time>2023-08-15T11:50:39Z</time>
      </trkpt>
      <trkpt lat="51.074139000847936" lon="2.701276000589132">
        <ele>2.54</ele>
        <time>2023-08-15T11:50:53Z</time>
      </trkpt>
      <trkpt lat="51.071480009704828" lon="2.697368022054434">
        <ele>5.42</ele>
        <time>2023-08-15T11:51:06Z</time>
      </trkpt>
      <trkpt lat="51.068083997815847" lon="2.692766021937132">
        <ele>4.46</ele>
        <time>2023-08-15T11:51:22Z</time>
      </trkpt>
      <trkpt lat="51.066321032121778" lon="2.690398972481489">
        <ele>2.06</ele>
        <time>2023-08-15T11:51:31Z</time>
      </trkpt>
      <trkpt lat="51.064652027562261" lon="2.688156981021166">
        <ele>0.14</ele>
        <time>2023-08-15T11:51:40Z</time>
      </trkpt>
      <trkpt lat="51.062487987801433" lon="2.685069004073739">
        <ele>-0.34</ele>
        <time>2023-08-15T11:51:51Z</time>
      </trkpt>
      <trkpt lat="51.06080699712038" lon="2.681957976892591">
        <ele>0.14</ele>
        <time>2023-08-15T11:52:02Z</time>
      </trkpt>
      <trkpt lat="51.059554992243648" lon="2.679084995761514">
        <ele>1.58</ele>
        <time>2023-08-15T11:52:13Z</time>
      </trkpt>
      <trkpt lat="51.058518989011645" lon="2.676169015467167">
        <ele>5.91</ele>
        <time>2023-08-15T11:52:23Z</time>
      </trkpt>
      <trkpt lat="51.057689012959599" lon="2.673217998817563">
        <ele>5.91</ele>
        <time>2023-08-15T11:52:33Z</time>
      </trkpt>
      <trkpt lat="51.056987028568983" lon="2.66986096277833">
        <ele>5.91</ele>
        <time>2023-08-15T11:52:44Z</time>
      </trkpt>
      <trkpt lat="51.056971019133925" lon="2.667568009346724">
        <ele>3.98</ele>
        <time>2023-08-15T11:52:52Z</time>
      </trkpt>
      <trkpt lat="51.056944029405713" lon="2.666945988312364">
        <ele>3.02</ele>
        <time>2023-08-15T11:52:55Z</time>
      </trkpt>
      <trkpt lat="51.05698199942708" lon="2.666816990822554">
        <ele>3.02</ele>
        <time>2023-08-15T11:52:56Z</time>
      </trkpt>
      <trkpt lat="51.057022986933589" lon="2.666691010817885">
        <ele>3.5</ele>
        <time>2023-08-15T11:52:57Z</time>
      </trkpt>
      <trkpt lat="51.057050982490182" lon="2.666609035804868">
        <ele>3.5</ele>
        <time>2023-08-15T11:52:58Z</time>
      </trkpt>
      <trkpt lat="51.057126000523567" lon="2.666544998064637">
        <ele>3.5</ele>
        <time>2023-08-15T11:52:59Z</time>
      </trkpt>
      <trkpt lat="51.057206969708204" lon="2.666475009173155">
        <ele>3.5</ele>
        <time>2023-08-15T11:53:00Z</time>
      </trkpt>
      <trkpt lat="51.05749698355794" lon="2.666212990880013">
        <ele>3.5</ele>
        <time>2023-08-15T11:53:03Z</time>
      </trkpt>
      <trkpt lat="51.057598991319537" lon="2.666129004210234">
        <ele>3.5</ele>
        <time>2023-08-15T11:53:04Z</time>
      </trkpt>
      <trkpt lat="51.057697981595993" lon="2.666048035025597">
        <ele>3.5</ele>
        <time>2023-08-15T11:53:05Z</time>
      </trkpt>
      <trkpt lat="51.058227969333529" lon="2.665601028129458">
        <ele>3.98</ele>
        <time>2023-08-15T11:53:11Z</time>
      </trkpt>
      <trkpt lat="51.058341963216662" lon="2.665660958737135">
        <ele>4.46</ele>
        <time>2023-08-15T11:53:12Z</time>
      </trkpt>
      <trkpt lat="51.058439025655389" lon="2.665630029514432">
        <ele>4.94</ele>
        <time>2023-08-15T11:53:13Z</time>
      </trkpt>
      <trkpt lat="51.058545978739858" lon="2.665612008422613">
        <ele>5.42</ele>
        <time>2023-08-15T11:53:14Z</time>
      </trkpt>
      <trkpt lat="51.05863600037992" lon="2.665679985657334">
        <ele>5.91</ele>
        <time>2023-08-15T11:53:15Z</time>
      </trkpt>
      <trkpt lat="51.058727027848363" lon="2.665749974548817">
        <ele>6.39</ele>
        <time>2023-08-15T11:53:16Z</time>
      </trkpt>
      <trkpt lat="51.058853007853031" lon="2.665784005075693">
        <ele>6.39</ele>
        <time>2023-08-15T11:53:17Z</time>
      </trkpt>
      <trkpt lat="51.05891402810812" lon="2.665914008393884">
        <ele>6.39</ele>
        <time>2023-08-15T11:53:18Z</time>
      </trkpt>
      <trkpt lat="51.058977982029319" lon="2.666048035025597">
        <ele>6.39</ele>
        <time>2023-08-15T11:53:19Z</time>
      </trkpt>
      <trkpt lat="51.059039002284408" lon="2.666183989495039">
        <ele>6.39</ele>
        <time>2023-08-15T11:53:20Z</time>
      </trkpt>
      <trkpt lat="51.059293979778886" lon="2.666825037449598">
        <ele>6.39</ele>
        <time>2023-08-15T11:53:25Z</time>
      </trkpt>
      <trkpt lat="51.059309989213943" lon="2.666983036324382">
        <ele>6.39</ele>
        <time>2023-08-15T11:53:26Z</time>
      </trkpt>
      <trkpt lat="51.059292973950505" lon="2.667082026600838">
        <ele>6.39</ele>
        <time>2023-08-15T11:53:27Z</time>
      </trkpt>
      <trkpt lat="51.059333039447665" lon="2.667170958593488">
        <ele>6.39</ele>
        <time>2023-08-15T11:53:28Z</time>
      </trkpt>
      <trkpt lat="51.059424988925457" lon="2.667267015203834">
        <ele>5.91</ele>
        <time>2023-08-15T11:53:29Z</time>
      </trkpt>
      <trkpt lat="51.059460025280714" lon="2.667403975501657">
        <ele>5.91</ele>
        <time>2023-08-15T11:53:30Z</time>
      </trkpt>
      <trkpt lat="51.059544011950493" lon="2.667723996564746">
        <ele>5.42</ele>
        <time>2023-08-15T11:53:32Z</time>
      </trkpt>
      <trkpt lat="51.060100989416242" lon="2.670006975531578">
        <ele>6.39</ele>
        <time>2023-08-15T11:53:43Z</time>
      </trkpt>
      <trkpt lat="51.06059099547565" lon="2.67192299477756">
        <ele>6.87</ele>
        <time>2023-08-15T11:53:53Z</time>
      </trkpt>
      <trkpt lat="51.061116959899664" lon="2.67379098571837">
        <ele>8.310000000000001</ele>
        <time>2023-08-15T11:54:04Z</time>
      </trkpt>
      <trkpt lat="51.061396999284625" lon="2.674664966762066">
        <ele>5.91</ele>
        <time>2023-08-15T11:54:14Z</time>
      </trkpt>
      <trkpt lat="51.061446033418179" lon="2.674798993393779">
        <ele>4.94</ele>
        <time>2023-08-15T11:54:21Z</time>
      </trkpt>
      <trkpt lat="51.061634961515665" lon="2.675318000838161">
        <ele>3.02</ele>
        <time>2023-08-15T11:54:28Z</time>
      </trkpt>
      <trkpt lat="51.061543012037873" lon="2.675334010273218">
        <ele>2.06</ele>
        <time>2023-08-15T11:54:32Z</time>
      </trkpt>
      <trkpt lat="51.061664968729019" lon="2.675409028306603">
        <ele>1.1</ele>
        <time>2023-08-15T11:54:34Z</time>
      </trkpt>
      <trkpt lat="51.061669997870922" lon="2.6754230260849">
        <ele>0.62</ele>
        <time>2023-08-15T11:54:35Z</time>
      </trkpt>
      <trkpt lat="51.061669997870922" lon="2.6754230260849">
        <ele>0.62</ele>
        <time>2023-08-15T11:54:50Z</time>
      </trkpt>
      <trkpt lat="51.061503030359745" lon="2.675640033558011">
        <ele>-20.050000000000001</ele>
        <time>2023-08-15T11:57:46Z</time>
      </trkpt>
      <trkpt lat="51.061508981510997" lon="2.675635004416108">
        <ele>1.58</ele>
        <time>2023-08-15T11:58:10Z</time>
      </trkpt>
      <trkpt lat="51.061467994004488" lon="2.675645984709263">
        <ele>-8.51</ele>
        <time>2023-08-15T11:58:57Z</time>
      </trkpt>
      <trkpt lat="51.061513004824519" lon="2.675668029114604">
        <ele>-15.720000000000001</ele>
        <time>2023-08-15T11:59:38Z</time>
      </trkpt>
      <trkpt lat="51.061513004824519" lon="2.675668029114604">
        <ele>-15.720000000000001</ele>
        <time>2023-08-15T11:59:59Z</time>
      </trkpt>
      <trkpt lat="51.061715008690953" lon="2.675559986382723">
        <ele>-14.279999999999999</ele>
        <time>2023-08-15T12:00:02Z</time>
      </trkpt>
      <trkpt lat="51.061723977327347" lon="2.675586976110935">
        <ele>-13.32</ele>
        <time>2023-08-15T12:00:03Z</time>
      </trkpt>
      <trkpt lat="51.06173001229763" lon="2.675603991374373">
        <ele>-12.359999999999999</ele>
        <time>2023-08-15T12:00:04Z</time>
      </trkpt>
      <trkpt lat="51.06173001229763" lon="2.675603991374373">
        <ele>-9.48</ele>
        <time>2023-08-15T12:00:08Z</time>
      </trkpt>
      <trkpt lat="51.061733029782772" lon="2.675613965839148">
        <ele>-8.51</ele>
        <time>2023-08-15T12:00:10Z</time>
      </trkpt>
      <trkpt lat="51.061721965670586" lon="2.675579013302922">
        <ele>-8.029999999999999</ele>
        <time>2023-08-15T12:00:11Z</time>
      </trkpt>
      <trkpt lat="51.061698999255896" lon="2.675512041896582">
        <ele>-8.029999999999999</ele>
        <time>2023-08-15T12:00:12Z</time>
      </trkpt>
      <trkpt lat="51.06166698038578" lon="2.675413973629475">
        <ele>-8.029999999999999</ele>
        <time>2023-08-15T12:00:13Z</time>
      </trkpt>
      <trkpt lat="51.061626998707652" lon="2.675296040251851">
        <ele>-8.029999999999999</ele>
        <time>2023-08-15T12:00:14Z</time>
      </trkpt>
      <trkpt lat="51.06157997623086" lon="2.675166036933661">
        <ele>-8.029999999999999</ele>
        <time>2023-08-15T12:00:15Z</time>
      </trkpt>
      <trkpt lat="51.060968013480306" lon="2.673286981880665">
        <ele>-1.79</ele>
        <time>2023-08-15T12:00:27Z</time>
      </trkpt>
      <trkpt lat="51.060403995215893" lon="2.671155966818333">
        <ele>-1.3</ele>
        <time>2023-08-15T12:00:38Z</time>
      </trkpt>
      <trkpt lat="51.059876019135118" lon="2.669071974232793">
        <ele>-3.71</ele>
        <time>2023-08-15T12:00:48Z</time>
      </trkpt>
      <trkpt lat="51.059476034715772" lon="2.667468013241887">
        <ele>-5.63</ele>
        <time>2023-08-15T12:00:58Z</time>
      </trkpt>
      <trkpt lat="51.059420965611935" lon="2.667248994112015">
        <ele>-5.63</ele>
        <time>2023-08-15T12:01:00Z</time>
      </trkpt>
      <trkpt lat="51.059496989473701" lon="2.667059982195497">
        <ele>-5.63</ele>
        <time>2023-08-15T12:01:01Z</time>
      </trkpt>
      <trkpt lat="51.059472011402249" lon="2.666983036324382">
        <ele>-5.63</ele>
        <time>2023-08-15T12:01:02Z</time>
      </trkpt>
      <trkpt lat="51.059446027502418" lon="2.666905000805855">
        <ele>-5.15</ele>
        <time>2023-08-15T12:01:03Z</time>
      </trkpt>
      <trkpt lat="51.059324992820621" lon="2.666887985542417">
        <ele>-5.15</ele>
        <time>2023-08-15T12:01:04Z</time>
      </trkpt>
      <trkpt lat="51.059244023635983" lon="2.666715988889337">
        <ele>-5.63</ele>
        <time>2023-08-15T12:01:06Z</time>
      </trkpt>
      <trkpt lat="51.05915199033916" lon="2.666476015001535">
        <ele>-6.11</ele>
        <time>2023-08-15T12:01:08Z</time>
      </trkpt>
      <trkpt lat="51.05904595926404" lon="2.666202010586858">
        <ele>-5.63</ele>
        <time>2023-08-15T12:01:11Z</time>
      </trkpt>
      <trkpt lat="51.058853007853031" lon="2.665784005075693">
        <ele>-3.23</ele>
        <time>2023-08-15T12:01:15Z</time>
      </trkpt>
      <trkpt lat="51.058829035609961" lon="2.665731031447649">
        <ele>-2.27</ele>
        <time>2023-08-15T12:01:16Z</time>
      </trkpt>
      <trkpt lat="51.058810008689761" lon="2.66568903811276">
        <ele>-1.3</ele>
        <time>2023-08-15T12:01:17Z</time>
      </trkpt>
      <trkpt lat="51.058789975941181" lon="2.665644027292728">
        <ele>-0.34</ele>
        <time>2023-08-15T12:01:18Z</time>
      </trkpt>
      <trkpt lat="51.058766003698111" lon="2.665590969845653">
        <ele>0.14</ele>
        <time>2023-08-15T12:01:19Z</time>
      </trkpt>
      <trkpt lat="51.058739013969898" lon="2.665530033409596">
        <ele>1.1</ele>
        <time>2023-08-15T12:01:20Z</time>
      </trkpt>
      <trkpt lat="51.058767009526491" lon="2.665321994572878">
        <ele>1.58</ele>
        <time>2023-08-15T12:01:21Z</time>
      </trkpt>
      <trkpt lat="51.058770027011633" lon="2.665299028158188">
        <ele>2.06</ele>
        <time>2023-08-15T12:01:22Z</time>
      </trkpt>
      <trkpt lat="51.058784024789929" lon="2.665187967941165">
        <ele>3.02</ele>
        <time>2023-08-15T12:01:23Z</time>
      </trkpt>
      <trkpt lat="51.058775978162885" lon="2.665059976279736">
        <ele>3.5</ele>
        <time>2023-08-15T12:01:24Z</time>
      </trkpt>
      <trkpt lat="51.058735996484756" lon="2.664947994053364">
        <ele>3.98</ele>
        <time>2023-08-15T12:01:25Z</time>
      </trkpt>
      <trkpt lat="51.058671036735177" lon="2.664872976019979">
        <ele>4.46</ele>
        <time>2023-08-15T12:01:26Z</time>
      </trkpt>
      <trkpt lat="51.058600964024663" lon="2.66483198851347">
        <ele>4.46</ele>
        <time>2023-08-15T12:01:27Z</time>
      </trkpt>
      <trkpt lat="51.058532986789942" lon="2.664855038747191">
        <ele>4.46</ele>
        <time>2023-08-15T12:01:28Z</time>
      </trkpt>
      <trkpt lat="51.05846400372684" lon="2.664884962141514">
        <ele>4.94</ele>
        <time>2023-08-15T12:01:29Z</time>
      </trkpt>
      <trkpt lat="51.058438019827008" lon="2.664927961304784">
        <ele>4.94</ele>
        <time>2023-08-15T12:01:30Z</time>
      </trkpt>
      <trkpt lat="51.058424022048712" lon="2.664991999045014">
        <ele>4.46</ele>
        <time>2023-08-15T12:01:31Z</time>
      </trkpt>
      <trkpt lat="51.058409018442035" lon="2.665061987936497">
        <ele>4.46</ele>
        <time>2023-08-15T12:01:32Z</time>
      </trkpt>
      <trkpt lat="51.05835503898561" lon="2.665214035660029">
        <ele>4.46</ele>
        <time>2023-08-15T12:01:33Z</time>
      </trkpt>
      <trkpt lat="51.058293012902141" lon="2.665264997631311">
        <ele>3.98</ele>
        <time>2023-08-15T12:01:34Z</time>
      </trkpt>
      <trkpt lat="51.058222018182278" lon="2.665324006229639">
        <ele>3.98</ele>
        <time>2023-08-15T12:01:35Z</time>
      </trkpt>
      <trkpt lat="51.058139959350228" lon="2.66539097763598">
        <ele>3.5</ele>
        <time>2023-08-15T12:01:36Z</time>
      </trkpt>
      <trkpt lat="51.057211998850107" lon="2.666146019473672">
        <ele>0.62</ele>
        <time>2023-08-15T12:01:45Z</time>
      </trkpt>
      <trkpt lat="51.057124994695187" lon="2.66616496257484">
        <ele>0.62</ele>
        <time>2023-08-15T12:01:46Z</time>
      </trkpt>
      <trkpt lat="51.057051988318563" lon="2.666172003373504">
        <ele>-0.34</ele>
        <time>2023-08-15T12:01:47Z</time>
      </trkpt>
      <trkpt lat="51.056971019133925" lon="2.666139984503388">
        <ele>-0.82</ele>
        <time>2023-08-15T12:01:48Z</time>
      </trkpt>
      <trkpt lat="51.056913016363978" lon="2.666053986176848">
        <ele>-1.3</ele>
        <time>2023-08-15T12:01:49Z</time>
      </trkpt>
      <trkpt lat="51.056855013594031" lon="2.665953990072012">
        <ele>-1.79</ele>
        <time>2023-08-15T12:01:50Z</time>
      </trkpt>
      <trkpt lat="51.056819977238774" lon="2.665813006460667">
        <ele>-2.27</ele>
        <time>2023-08-15T12:01:51Z</time>
      </trkpt>
      <trkpt lat="51.056799022480845" lon="2.665655007585883">
        <ele>-2.75</ele>
        <time>2023-08-15T12:01:52Z</time>
      </trkpt>
      <trkpt lat="51.056778989732265" lon="2.665479993447661">
        <ele>-2.75</ele>
        <time>2023-08-15T12:01:53Z</time>
      </trkpt>
      <trkpt lat="51.05659500695765" lon="2.66388600692153">
        <ele>-2.27</ele>
        <time>2023-08-15T12:02:00Z</time>
      </trkpt>
      <trkpt lat="51.056347992271185" lon="2.660828037187457">
        <ele>2.06</ele>
        <time>2023-08-15T12:02:11Z</time>
      </trkpt>
      <trkpt lat="51.056498028337955" lon="2.657904010266066">
        <ele>2.06</ele>
        <time>2023-08-15T12:02:19Z</time>
      </trkpt>
      <trkpt lat="51.057105967774987" lon="2.654529958963394">
        <ele>-0.34</ele>
        <time>2023-08-15T12:02:27Z</time>
      </trkpt>
      <trkpt lat="51.058210032060742" lon="2.650806969031692">
        <ele>-1.3</ele>
        <time>2023-08-15T12:02:36Z</time>
      </trkpt>
      <trkpt lat="51.059715002775192" lon="2.647443981841207">
        <ele>1.58</ele>
        <time>2023-08-15T12:02:45Z</time>
      </trkpt>
      <trkpt lat="51.061616018414497" lon="2.644023997709155">
        <ele>1.58</ele>
        <time>2023-08-15T12:02:55Z</time>
      </trkpt>
      <trkpt lat="51.062809014692903" lon="2.641604980453849">
        <ele>-0.82</ele>
        <time>2023-08-15T12:03:02Z</time>
      </trkpt>
      <trkpt lat="51.064392020925879" lon="2.637400031089783">
        <ele>-1.3</ele>
        <time>2023-08-15T12:03:13Z</time>
      </trkpt>
      <trkpt lat="51.065614018589258" lon="2.632900960743427">
        <ele>-0.82</ele>
        <time>2023-08-15T12:03:24Z</time>
      </trkpt>
      <trkpt lat="51.066661002114415" lon="2.627357002347708">
        <ele>-1.79</ele>
        <time>2023-08-15T12:03:37Z</time>
      </trkpt>
      <trkpt lat="51.067415038123727" lon="2.62261301279068">
        <ele>-2.27</ele>
        <time>2023-08-15T12:03:48Z</time>
      </trkpt>
      <trkpt lat="51.068133031949401" lon="2.617398966103792">
        <ele>-2.27</ele>
        <time>2023-08-15T12:04:00Z</time>
      </trkpt>
      <trkpt lat="51.068465039134026" lon="2.613428961485624">
        <ele>-1.79</ele>
        <time>2023-08-15T12:04:09Z</time>
      </trkpt>
      <trkpt lat="51.068523963913321" lon="2.608528984710574">
        <ele>-0.82</ele>
        <time>2023-08-15T12:04:20Z</time>
      </trkpt>
      <trkpt lat="51.068350039422512" lon="2.604094035923481">
        <ele>-1.3</ele>
        <time>2023-08-15T12:04:30Z</time>
      </trkpt>
      <trkpt lat="51.068307962268591" lon="2.60366203263402">
        <ele>-1.3</ele>
        <time>2023-08-15T12:04:31Z</time>
      </trkpt>
      <trkpt lat="51.067686025053263" lon="2.59840196929872">
        <ele>-1.79</ele>
        <time>2023-08-15T12:04:43Z</time>
      </trkpt>
      <trkpt lat="51.066759992390871" lon="2.593535017222166">
        <ele>-2.75</ele>
        <time>2023-08-15T12:04:54Z</time>
      </trkpt>
      <trkpt lat="51.065520979464054" lon="2.588868979364634">
        <ele>-3.23</ele>
        <time>2023-08-15T12:05:05Z</time>
      </trkpt>
      <trkpt lat="51.063933027908206" lon="2.584458002820611">
        <ele>0.14</ele>
        <time>2023-08-15T12:05:16Z</time>
      </trkpt>
      <trkpt lat="51.061596991494298" lon="2.578623024746776">
        <ele>0.14</ele>
        <time>2023-08-15T12:05:31Z</time>
      </trkpt>
      <trkpt lat="51.059578964486718" lon="2.573027014732361">
        <ele>-1.3</ele>
        <time>2023-08-15T12:05:45Z</time>
      </trkpt>
      <trkpt lat="51.05831497348845" lon="2.567883962765336">
        <ele>-1.79</ele>
        <time>2023-08-15T12:05:57Z</time>
      </trkpt>
      <trkpt lat="51.057278970256448" lon="2.563085993751884">
        <ele>-2.75</ele>
        <time>2023-08-15T12:06:08Z</time>
      </trkpt>
      <trkpt lat="51.056489981710911" lon="2.559412959963083">
        <ele>-3.23</ele>
        <time>2023-08-15T12:06:17Z</time>
      </trkpt>
      <trkpt lat="51.055590016767383" lon="2.555132992565632">
        <ele>-4.19</ele>
        <time>2023-08-15T12:06:27Z</time>
      </trkpt>
      <trkpt lat="51.05440397746861" lon="2.550769960507751">
        <ele>-5.15</ele>
        <time>2023-08-15T12:06:37Z</time>
      </trkpt>
      <trkpt lat="51.053463025018573" lon="2.548108035698533">
        <ele>-5.63</ele>
        <time>2023-08-15T12:06:45Z</time>
      </trkpt>
      <trkpt lat="51.052416963502765" lon="2.545537976548076">
        <ele>-5.63</ele>
        <time>2023-08-15T12:06:52Z</time>
      </trkpt>
      <trkpt lat="51.050809985026717" lon="2.542019002139568">
        <ele>-6.59</ele>
        <time>2023-08-15T12:07:01Z</time>
      </trkpt>
      <trkpt lat="51.04879598133266" lon="2.537709027528763">
        <ele>-6.11</ele>
        <time>2023-08-15T12:07:12Z</time>
      </trkpt>
      <trkpt lat="51.046549966558814" lon="2.532499004155397">
        <ele>0.14</ele>
        <time>2023-08-15T12:07:25Z</time>
      </trkpt>
      <trkpt lat="51.045171981677413" lon="2.528306962922216">
        <ele>-1.3</ele>
        <time>2023-08-15T12:07:35Z</time>
      </trkpt>
      <trkpt lat="51.043625017628074" lon="2.522998033091426">
        <ele>-4.19</ele>
        <time>2023-08-15T12:07:47Z</time>
      </trkpt>
      <trkpt lat="51.042610974982381" lon="2.518234010785818">
        <ele>-5.63</ele>
        <time>2023-08-15T12:07:57Z</time>
      </trkpt>
      <trkpt lat="51.042275028303266" lon="2.514502974227071">
        <ele>-5.15</ele>
        <time>2023-08-15T12:08:05Z</time>
      </trkpt>
      <trkpt lat="51.04226497001946" lon="2.510476978495717">
        <ele>-2.75</ele>
        <time>2023-08-15T12:08:14Z</time>
      </trkpt>
      <trkpt lat="51.042530005797744" lon="2.507241982966662">
        <ele>0.14</ele>
        <time>2023-08-15T12:08:21Z</time>
      </trkpt>
      <trkpt lat="51.043002996593714" lon="2.502090968191624">
        <ele>1.58</ele>
        <time>2023-08-15T12:08:32Z</time>
      </trkpt>
      <trkpt lat="51.043462995439768" lon="2.497072974219918">
        <ele>2.54</ele>
        <time>2023-08-15T12:08:43Z</time>
      </trkpt>
      <trkpt lat="51.043890975415707" lon="2.492496035993099">
        <ele>1.1</ele>
        <time>2023-08-15T12:08:53Z</time>
      </trkpt>
      <trkpt lat="51.044227005913854" lon="2.487327000126243">
        <ele>1.1</ele>
        <time>2023-08-15T12:09:04Z</time>
      </trkpt>
      <trkpt lat="51.044210996478796" lon="2.482116976752877">
        <ele>1.1</ele>
        <time>2023-08-15T12:09:15Z</time>
      </trkpt>
      <trkpt lat="51.043777987360954" lon="2.477045003324747">
        <ele>-0.34</ele>
        <time>2023-08-15T12:09:26Z</time>
      </trkpt>
      <trkpt lat="51.042919009923935" lon="2.471628030762076">
        <ele>-0.34</ele>
        <time>2023-08-15T12:09:38Z</time>
      </trkpt>
      <trkpt lat="51.042105965316296" lon="2.467636987566948">
        <ele>0.14</ele>
        <time>2023-08-15T12:09:47Z</time>
      </trkpt>
      <trkpt lat="51.041262997314334" lon="2.463430026546121">
        <ele>1.1</ele>
        <time>2023-08-15T12:09:57Z</time>
      </trkpt>
      <trkpt lat="51.040583979338408" lon="2.460026973858476">
        <ele>0.14</ele>
        <time>2023-08-15T12:10:06Z</time>
      </trkpt>
      <trkpt lat="51.03966498747468" lon="2.455506026744843">
        <ele>0.14</ele>
        <time>2023-08-15T12:10:18Z</time>
      </trkpt>
      <trkpt lat="51.038895025849342" lon="2.451961990445852">
        <ele>-0.82</ele>
        <time>2023-08-15T12:10:27Z</time>
      </trkpt>
      <trkpt lat="51.037784004583955" lon="2.448171023279429">
        <ele>-3.71</ele>
        <time>2023-08-15T12:10:37Z</time>
      </trkpt>
      <trkpt lat="51.036008968949318" lon="2.443991973996162">
        <ele>-4.67</ele>
        <time>2023-08-15T12:10:49Z</time>
      </trkpt>
      <trkpt lat="51.033227015286684" lon="2.437824988737702">
        <ele>-6.11</ele>
        <time>2023-08-15T12:11:07Z</time>
      </trkpt>
      <trkpt lat="51.031989008188248" lon="2.435072036460042">
        <ele>-5.15</ele>
        <time>2023-08-15T12:11:15Z</time>
      </trkpt>
      <trkpt lat="51.030610017478466" lon="2.431982969865203">
        <ele>-3.23</ele>
        <time>2023-08-15T12:11:24Z</time>
      </trkpt>
      <trkpt lat="51.02829996496439" lon="2.426832960918546">
        <ele>-2.27</ele>
        <time>2023-08-15T12:11:39Z</time>
      </trkpt>
      <trkpt lat="51.025825040414929" lon="2.421347005292773">
        <ele>-1.79</ele>
        <time>2023-08-15T12:11:55Z</time>
      </trkpt>
      <trkpt lat="51.024479996412992" lon="2.418349971994758">
        <ele>-1.79</ele>
        <time>2023-08-15T12:12:04Z</time>
      </trkpt>
      <trkpt lat="51.023115003481507" lon="2.41532301530242">
        <ele>-1.3</ele>
        <time>2023-08-15T12:12:15Z</time>
      </trkpt>
      <trkpt lat="51.021890994161367" lon="2.412430001422763">
        <ele>-2.27</ele>
        <time>2023-08-15T12:12:25Z</time>
      </trkpt>
      <trkpt lat="51.021301997825503" lon="2.410941040143371">
        <ele>-2.75</ele>
        <time>2023-08-15T12:12:30Z</time>
      </trkpt>
      <trkpt lat="51.021178029477596" lon="2.410602997988462">
        <ele>-3.71</ele>
        <time>2023-08-15T12:12:31Z</time>
      </trkpt>
      <trkpt lat="51.020201034843922" lon="2.407853985205293">
        <ele>-6.11</ele>
        <time>2023-08-15T12:12:40Z</time>
      </trkpt>
      <trkpt lat="51.018762029707432" lon="2.403659010306001">
        <ele>-5.63</ele>
        <time>2023-08-15T12:12:54Z</time>
      </trkpt>
      <trkpt lat="51.017309026792645" lon="2.399465963244438">
        <ele>-5.63</ele>
        <time>2023-08-15T12:13:08Z</time>
      </trkpt>
      <trkpt lat="51.016303030773997" lon="2.396080009639263">
        <ele>-5.63</ele>
        <time>2023-08-15T12:13:19Z</time>
      </trkpt>
      <trkpt lat="51.015484035015106" lon="2.392180999740958">
        <ele>-7.55</ele>
        <time>2023-08-15T12:13:31Z</time>
      </trkpt>
      <trkpt lat="51.014579962939024" lon="2.387268031015992">
        <ele>-6.11</ele>
        <time>2023-08-15T12:13:46Z</time>
      </trkpt>
      <trkpt lat="51.013773959130049" lon="2.382655972614884">
        <ele>-4.19</ele>
        <time>2023-08-15T12:14:00Z</time>
      </trkpt>
      <trkpt lat="51.013185968622565" lon="2.378644980490208">
        <ele>-0.82</ele>
        <time>2023-08-15T12:14:12Z</time>
      </trkpt>
      <trkpt lat="51.012943983078003" lon="2.373862015083432">
        <ele>2.06</ele>
        <time>2023-08-15T12:14:26Z</time>
      </trkpt>
      <trkpt lat="51.01272395811975" lon="2.369091035798192">
        <ele>1.58</ele>
        <time>2023-08-15T12:14:40Z</time>
      </trkpt>
      <trkpt lat="51.012591021135449" lon="2.36395301297307">
        <ele>-0.82</ele>
        <time>2023-08-15T12:14:55Z</time>
      </trkpt>
      <trkpt lat="51.012591021135449" lon="2.358492035418749">
        <ele>-3.23</ele>
        <time>2023-08-15T12:15:11Z</time>
      </trkpt>
      <trkpt lat="51.012607030570507" lon="2.354049040004611">
        <ele>-2.75</ele>
        <time>2023-08-15T12:15:24Z</time>
      </trkpt>
      <trkpt lat="51.012583980336785" lon="2.35166396945715">
        <ele>-0.82</ele>
        <time>2023-08-15T12:15:31Z</time>
      </trkpt>
      <trkpt lat="51.012310981750488" lon="2.346542961895466">
        <ele>0.62</ele>
        <time>2023-08-15T12:15:46Z</time>
      </trkpt>
      <trkpt lat="51.011836985126138" lon="2.342151012271643">
        <ele>-0.34</ele>
        <time>2023-08-15T12:15:59Z</time>
      </trkpt>
      <trkpt lat="51.011340022087097" lon="2.337788986042142">
        <ele>-0.34</ele>
        <time>2023-08-15T12:16:12Z</time>
      </trkpt>
      <trkpt lat="51.010841969400644" lon="2.334118969738483">
        <ele>3.98</ele>
        <time>2023-08-15T12:16:23Z</time>
      </trkpt>
      <trkpt lat="51.009964970871806" lon="2.330254996195436">
        <ele>4.94</ele>
        <time>2023-08-15T12:16:35Z</time>
      </trkpt>
      <trkpt lat="51.008666027337313" lon="2.326701991260052">
        <ele>-1.79</ele>
        <time>2023-08-15T12:16:47Z</time>
      </trkpt>
      <trkpt lat="51.007560035213828" lon="2.323803026229143">
        <ele>-3.23</ele>
        <time>2023-08-15T12:16:57Z</time>
      </trkpt>
      <trkpt lat="51.006071995943785" lon="2.319246958941221">
        <ele>-2.27</ele>
        <time>2023-08-15T12:17:12Z</time>
      </trkpt>
      <trkpt lat="51.005162978544831" lon="2.315404023975134">
        <ele>-1.3</ele>
        <time>2023-08-15T12:17:24Z</time>
      </trkpt>
      <trkpt lat="51.004410032182932" lon="2.3103909753263">
        <ele>1.1</ele>
        <time>2023-08-15T12:17:39Z</time>
      </trkpt>
      <trkpt lat="51.00395598448813" lon="2.306979959830642">
        <ele>-5.63</ele>
        <time>2023-08-15T12:17:49Z</time>
      </trkpt>
      <trkpt lat="51.003323988988996" lon="2.303222017362714">
        <ele>-8.029999999999999</ele>
        <time>2023-08-15T12:18:00Z</time>
      </trkpt>
      <trkpt lat="51.002486972138286" lon="2.300025997683406">
        <ele>-7.55</ele>
        <time>2023-08-15T12:18:10Z</time>
      </trkpt>
      <trkpt lat="51.001553982496262" lon="2.297257035970688">
        <ele>-7.55</ele>
        <time>2023-08-15T12:18:19Z</time>
      </trkpt>
      <trkpt lat="51.000214973464608" lon="2.293317038565874">
        <ele>-8.029999999999999</ele>
        <time>2023-08-15T12:18:32Z</time>
      </trkpt>
      <trkpt lat="50.99864998832345" lon="2.288761977106333">
        <ele>-0.34</ele>
        <time>2023-08-15T12:18:47Z</time>
      </trkpt>
      <trkpt lat="50.996713014319539" lon="2.283313991501927">
        <ele>-2.75</ele>
        <time>2023-08-15T12:19:05Z</time>
      </trkpt>
      <trkpt lat="50.995311979204416" lon="2.279425961896777">
        <ele>-5.63</ele>
        <time>2023-08-15T12:19:18Z</time>
      </trkpt>
      <trkpt lat="50.994507987052202" lon="2.276176968589425">
        <ele>-7.07</ele>
        <time>2023-08-15T12:19:28Z</time>
      </trkpt>
      <trkpt lat="50.993798961862922" lon="2.274032961577177">
        <ele>-2.75</ele>
        <time>2023-08-15T12:19:35Z</time>
      </trkpt>
      <trkpt lat="50.992297008633614" lon="2.269802028313279">
        <ele>0.62</ele>
        <time>2023-08-15T12:19:49Z</time>
      </trkpt>
      <trkpt lat="50.991351027041674" lon="2.265538992360234">
        <ele>-3.71</ele>
        <time>2023-08-15T12:20:02Z</time>
      </trkpt>
      <trkpt lat="50.991117004305124" lon="2.262830967083573">
        <ele>-8.51</ele>
        <time>2023-08-15T12:20:10Z</time>
      </trkpt>
      <trkpt lat="50.991324037313461" lon="2.260092012584209">
        <ele>-9.48</ele>
        <time>2023-08-15T12:20:18Z</time>
      </trkpt>
      <trkpt lat="50.991538027301431" lon="2.257396979257464">
        <ele>-8.51</ele>
        <time>2023-08-15T12:20:25Z</time>
      </trkpt>
      <trkpt lat="50.99138698540628" lon="2.254255022853613">
        <ele>-9</ele>
        <time>2023-08-15T12:20:32Z</time>
      </trkpt>
      <trkpt lat="50.991094037890434" lon="2.249662997201085">
        <ele>-9.48</ele>
        <time>2023-08-15T12:20:43Z</time>
      </trkpt>
      <trkpt lat="50.990712996572256" lon="2.245165016502142">
        <ele>-7.07</ele>
        <time>2023-08-15T12:20:54Z</time>
      </trkpt>
      <trkpt lat="50.989896012470126" lon="2.240779018029571">
        <ele>-6.11</ele>
        <time>2023-08-15T12:21:05Z</time>
      </trkpt>
      <trkpt lat="50.98859497345984" lon="2.236710023134947">
        <ele>-5.15</ele>
        <time>2023-08-15T12:21:16Z</time>
      </trkpt>
      <trkpt lat="50.986872995272279" lon="2.233075965195894">
        <ele>-6.59</ele>
        <time>2023-08-15T12:21:27Z</time>
      </trkpt>
      <trkpt lat="50.984461018815637" lon="2.22930402494967">
        <ele>-6.59</ele>
        <time>2023-08-15T12:21:40Z</time>
      </trkpt>
      <trkpt lat="50.982076032087207" lon="2.226787023246288">
        <ele>-5.15</ele>
        <time>2023-08-15T12:21:51Z</time>
      </trkpt>
      <trkpt lat="50.979417040944099" lon="2.224953984841704">
        <ele>-2.75</ele>
        <time>2023-08-15T12:22:02Z</time>
      </trkpt>
      <trkpt lat="50.975849032402039" lon="2.223306018859148">
        <ele>-1.3</ele>
        <time>2023-08-15T12:22:16Z</time>
      </trkpt>
      <trkpt lat="50.971996961161494" lon="2.221625028178096">
        <ele>0.62</ele>
        <time>2023-08-15T12:22:31Z</time>
      </trkpt>
      <trkpt lat="50.969448024407029" lon="2.220519036054611">
        <ele>5.91</ele>
        <time>2023-08-15T12:22:41Z</time>
      </trkpt>
      <trkpt lat="50.966434981673956" lon="2.218883978202939">
        <ele>6.87</ele>
        <time>2023-08-15T12:22:53Z</time>
      </trkpt>
      <trkpt lat="50.964345959946513" lon="2.216839967295528">
        <ele>7.35</ele>
        <time>2023-08-15T12:23:02Z</time>
      </trkpt>
      <trkpt lat="50.962760020047426" lon="2.214514994993806">
        <ele>6.39</ele>
        <time>2023-08-15T12:23:09Z</time>
      </trkpt>
      <trkpt lat="50.961312968283892" lon="2.211226020008326">
        <ele>2.54</ele>
        <time>2023-08-15T12:23:17Z</time>
      </trkpt>
      <trkpt lat="50.96040696837008" lon="2.208049027249217">
        <ele>0.62</ele>
        <time>2023-08-15T12:23:24Z</time>
      </trkpt>
      <trkpt lat="50.959895001724362" lon="2.20414599403739">
        <ele>-0.82</ele>
        <time>2023-08-15T12:23:32Z</time>
      </trkpt>
      <trkpt lat="50.959651004523039" lon="2.199799977242947">
        <ele>-3.71</ele>
        <time>2023-08-15T12:23:41Z</time>
      </trkpt>
      <trkpt lat="50.959378005936742" lon="2.194567993283272">
        <ele>-3.23</ele>
        <time>2023-08-15T12:23:52Z</time>
      </trkpt>
      <trkpt lat="50.959042981266975" lon="2.187942015007138">
        <ele>-4.67</ele>
        <time>2023-08-15T12:24:06Z</time>
      </trkpt>
      <trkpt lat="50.958949020132422" lon="2.185591980814934">
        <ele>-6.11</ele>
        <time>2023-08-15T12:24:11Z</time>
      </trkpt>
      <trkpt lat="50.958946002647281" lon="2.185127958655357">
        <ele>-6.11</ele>
        <time>2023-08-15T12:24:12Z</time>
      </trkpt>
      <trkpt lat="50.95892496407032" lon="2.180848997086287">
        <ele>-8.029999999999999</ele>
        <time>2023-08-15T12:24:21Z</time>
      </trkpt>
      <trkpt lat="50.958895040675998" lon="2.174213966354728">
        <ele>-6.59</ele>
        <time>2023-08-15T12:24:35Z</time>
      </trkpt>
      <trkpt lat="50.958868972957134" lon="2.168949963524938">
        <ele>-5.63</ele>
        <time>2023-08-15T12:24:46Z</time>
      </trkpt>
      <trkpt lat="50.958826979622245" lon="2.162775015458465">
        <ele>-12.359999999999999</ele>
        <time>2023-08-15T12:24:59Z</time>
      </trkpt>
      <trkpt lat="50.95857703126967" lon="2.158046029508114">
        <ele>-13.800000000000001</ele>
        <time>2023-08-15T12:25:09Z</time>
      </trkpt>
      <trkpt lat="50.958001026883721" lon="2.153384014964104">
        <ele>-15.24</ele>
        <time>2023-08-15T12:25:19Z</time>
      </trkpt>
      <trkpt lat="50.95699000172317" lon="2.148400973528624">
        <ele>-15.720000000000001</ele>
        <time>2023-08-15T12:25:30Z</time>
      </trkpt>
      <trkpt lat="50.955734979361296" lon="2.144079012796283">
        <ele>-17.649999999999999</ele>
        <time>2023-08-15T12:25:40Z</time>
      </trkpt>
      <trkpt lat="50.953793982043862" lon="2.138704033568502">
        <ele>-11.4</ele>
        <time>2023-08-15T12:25:53Z</time>
      </trkpt>
      <trkpt lat="50.952511969953775" lon="2.134410990402103">
        <ele>-9.960000000000001</ele>
        <time>2023-08-15T12:26:03Z</time>
      </trkpt>
      <trkpt lat="50.951868994161487" lon="2.130281981080771">
        <ele>-11.4</ele>
        <time>2023-08-15T12:26:12Z</time>
      </trkpt>
      <trkpt lat="50.951738990843296" lon="2.1274449583143">
        <ele>-11.880000000000001</ele>
        <time>2023-08-15T12:26:18Z</time>
      </trkpt>
      <trkpt lat="50.951736979186535" lon="2.126973979175091">
        <ele>-11.880000000000001</ele>
        <time>2023-08-15T12:26:19Z</time>
      </trkpt>
      <trkpt lat="50.951677970588207" lon="2.121280990540981">
        <ele>-11.4</ele>
        <time>2023-08-15T12:26:31Z</time>
      </trkpt>
      <trkpt lat="50.951190982013941" lon="2.117076041176915">
        <ele>-10.44</ele>
        <time>2023-08-15T12:26:40Z</time>
      </trkpt>
      <trkpt lat="50.950100999325514" lon="2.112655006349087">
        <ele>-9.48</ele>
        <time>2023-08-15T12:26:50Z</time>
      </trkpt>
      <trkpt lat="50.948802977800369" lon="2.108898991718888">
        <ele>-8.029999999999999</ele>
        <time>2023-08-15T12:26:59Z</time>
      </trkpt>
      <trkpt lat="50.946872960776091" lon="2.104644002392888">
        <ele>-5.15</ele>
        <time>2023-08-15T12:27:10Z</time>
      </trkpt>
      <trkpt lat="50.945101026445627" lon="2.100236965343356">
        <ele>-5.15</ele>
        <time>2023-08-15T12:27:21Z</time>
      </trkpt>
      <trkpt lat="50.943644000217319" lon="2.095509991049767">
        <ele>-5.15</ele>
        <time>2023-08-15T12:27:32Z</time>
      </trkpt>
      <trkpt lat="50.941836023703218" lon="2.089490024372935">
        <ele>-4.19</ele>
        <time>2023-08-15T12:27:46Z</time>
      </trkpt>
      <trkpt lat="50.940167019143701" lon="2.083825031295419">
        <ele>-3.71</ele>
        <time>2023-08-15T12:27:59Z</time>
      </trkpt>
      <trkpt lat="50.938510000705719" lon="2.077368032187223">
        <ele>-4.19</ele>
        <time>2023-08-15T12:28:13Z</time>
      </trkpt>
      <trkpt lat="50.93752303160727" lon="2.072623958811164">
        <ele>-4.19</ele>
        <time>2023-08-15T12:28:23Z</time>
      </trkpt>
      <trkpt lat="50.936524998396635" lon="2.06633904017508">
        <ele>-5.63</ele>
        <time>2023-08-15T12:28:36Z</time>
      </trkpt>
      <trkpt lat="50.9358049929142" lon="2.060545971617103">
        <ele>-7.07</ele>
        <time>2023-08-15T12:28:48Z</time>
      </trkpt>
      <trkpt lat="50.935370977967978" lon="2.056846031919122">
        <ele>-3.23</ele>
        <time>2023-08-15T12:28:57Z</time>
      </trkpt>
      <trkpt lat="50.934808971360326" lon="2.052260041236877">
        <ele>1.1</ele>
        <time>2023-08-15T12:29:08Z</time>
      </trkpt>
      <trkpt lat="50.934191979467869" lon="2.046958990395069">
        <ele>-1.79</ele>
        <time>2023-08-15T12:29:19Z</time>
      </trkpt>
      <trkpt lat="50.93346300534904" lon="2.040770966559649">
        <ele>-3.71</ele>
        <time>2023-08-15T12:29:31Z</time>
      </trkpt>
      <trkpt lat="50.932850958779454" lon="2.035504030063748">
        <ele>-1.3</ele>
        <time>2023-08-15T12:29:42Z</time>
      </trkpt>
      <trkpt lat="50.932408981025219" lon="2.031022980809212">
        <ele>0.62</ele>
        <time>2023-08-15T12:29:51Z</time>
      </trkpt>
      <trkpt lat="50.931994998827577" lon="2.024113023653626">
        <ele>0.14</ele>
        <time>2023-08-15T12:30:05Z</time>
      </trkpt>
      <trkpt lat="50.931916041299701" lon="2.020345022901893">
        <ele>0.14</ele>
        <time>2023-08-15T12:30:13Z</time>
      </trkpt>
      <trkpt lat="50.931947976350784" lon="2.016447018831968">
        <ele>-1.3</ele>
        <time>2023-08-15T12:30:21Z</time>
      </trkpt>
      <trkpt lat="50.932189961895347" lon="2.010874981060624">
        <ele>-2.27</ele>
        <time>2023-08-15T12:30:32Z</time>
      </trkpt>
      <trkpt lat="50.932755991816521" lon="2.004537004977465">
        <ele>-0.34</ele>
        <time>2023-08-15T12:30:45Z</time>
      </trkpt>
      <trkpt lat="50.933432998135686" lon="1.997835002839565">
        <ele>3.02</ele>
        <time>2023-08-15T12:30:59Z</time>
      </trkpt>
      <trkpt lat="50.934173036366701" lon="1.990506034344435">
        <ele>2.54</ele>
        <time>2023-08-15T12:31:14Z</time>
      </trkpt>
      <trkpt lat="50.934796985238791" lon="1.984399985522032">
        <ele>2.06</ele>
        <time>2023-08-15T12:31:27Z</time>
      </trkpt>
      <trkpt lat="50.935373995453119" lon="1.978743961080909">
        <ele>0.62</ele>
        <time>2023-08-15T12:31:39Z</time>
      </trkpt>
      <trkpt lat="50.93595502898097" lon="1.972861038520932">
        <ele>-0.82</ele>
        <time>2023-08-15T12:31:51Z</time>
      </trkpt>
      <trkpt lat="50.936189973726869" lon="1.967909010127187">
        <ele>0.14</ele>
        <time>2023-08-15T12:32:01Z</time>
      </trkpt>
      <trkpt lat="50.936502031981945" lon="1.962023992091417">
        <ele>-0.34</ele>
        <time>2023-08-15T12:32:13Z</time>
      </trkpt>
      <trkpt lat="50.936978962272406" lon="1.955834962427616">
        <ele>2.54</ele>
        <time>2023-08-15T12:32:26Z</time>
      </trkpt>
      <trkpt lat="50.937421023845673" lon="1.949994033202529">
        <ele>2.54</ele>
        <time>2023-08-15T12:32:38Z</time>
      </trkpt>
      <trkpt lat="50.937666026875377" lon="1.944849975407124">
        <ele>1.58</ele>
        <time>2023-08-15T12:32:49Z</time>
      </trkpt>
      <trkpt lat="50.937659991905093" lon="1.939573986455798">
        <ele>0.62</ele>
        <time>2023-08-15T12:33:00Z</time>
      </trkpt>
      <trkpt lat="50.937542980536819" lon="1.934781968593597">
        <ele>0.14</ele>
        <time>2023-08-15T12:33:10Z</time>
      </trkpt>
      <trkpt lat="50.937296971678734" lon="1.929171038791537">
        <ele>-1.3</ele>
        <time>2023-08-15T12:33:22Z</time>
      </trkpt>
      <trkpt lat="50.93677100725472" lon="1.921021984890103">
        <ele>-4.19</ele>
        <time>2023-08-15T12:33:39Z</time>
      </trkpt>
      <trkpt lat="50.936532961204648" lon="1.917593032121658">
        <ele>-6.11</ele>
        <time>2023-08-15T12:33:47Z</time>
      </trkpt>
      <trkpt lat="50.936246970668435" lon="1.91302296705544">
        <ele>-7.07</ele>
        <time>2023-08-15T12:33:58Z</time>
      </trkpt>
      <trkpt lat="50.936081008985639" lon="1.908848024904728">
        <ele>-5.63</ele>
        <time>2023-08-15T12:34:08Z</time>
      </trkpt>
      <trkpt lat="50.935915969312191" lon="1.9046859908849">
        <ele>-4.67</ele>
        <time>2023-08-15T12:34:18Z</time>
      </trkpt>
      <trkpt lat="50.935563007369637" lon="1.900154985487461">
        <ele>-4.67</ele>
        <time>2023-08-15T12:34:29Z</time>
      </trkpt>
      <trkpt lat="50.934991026297212" lon="1.896583959460259">
        <ele>-4.67</ele>
        <time>2023-08-15T12:34:39Z</time>
      </trkpt>
      <trkpt lat="50.934317037463188" lon="1.892867004498839">
        <ele>-1.79</ele>
        <time>2023-08-15T12:34:50Z</time>
      </trkpt>
      <trkpt lat="50.933699961751699" lon="1.889220038428903">
        <ele>2.54</ele>
        <time>2023-08-15T12:35:01Z</time>
      </trkpt>
      <trkpt lat="50.93359200283885" lon="1.886737989261746">
        <ele>3.5</ele>
        <time>2023-08-15T12:35:09Z</time>
      </trkpt>
      <trkpt lat="50.934004979208112" lon="1.883854027837515">
        <ele>2.54</ele>
        <time>2023-08-15T12:35:18Z</time>
      </trkpt>
      <trkpt lat="50.934782987460494" lon="1.881386982277036">
        <ele>1.1</ele>
        <time>2023-08-15T12:35:27Z</time>
      </trkpt>
      <trkpt lat="50.935753025114536" lon="1.878077974542975">
        <ele>0.14</ele>
        <time>2023-08-15T12:35:39Z</time>
      </trkpt>
      <trkpt lat="50.936115039512515" lon="1.875270958989859">
        <ele>2.54</ele>
        <time>2023-08-15T12:35:48Z</time>
      </trkpt>
      <trkpt lat="50.936004985123873" lon="1.872642980888486">
        <ele>4.94</ele>
        <time>2023-08-15T12:35:56Z</time>
      </trkpt>
      <trkpt lat="50.935583040118217" lon="1.867990018799901">
        <ele>6.87</ele>
        <time>2023-08-15T12:36:09Z</time>
      </trkpt>
      <trkpt lat="50.935602989047766" lon="1.864775978028774">
        <ele>8.310000000000001</ele>
        <time>2023-08-15T12:36:18Z</time>
      </trkpt>
      <trkpt lat="50.936160972341895" lon="1.86132900416851">
        <ele>7.83</ele>
        <time>2023-08-15T12:36:28Z</time>
      </trkpt>
      <trkpt lat="50.936759021133184" lon="1.85786996036768">
        <ele>5.91</ele>
        <time>2023-08-15T12:36:38Z</time>
      </trkpt>
      <trkpt lat="50.936809983104467" lon="1.855007037520409">
        <ele>6.87</ele>
        <time>2023-08-15T12:36:46Z</time>
      </trkpt>
      <trkpt lat="50.93670797534287" lon="1.850783983245492">
        <ele>8.310000000000001</ele>
        <time>2023-08-15T12:36:58Z</time>
      </trkpt>
      <trkpt lat="50.936789028346539" lon="1.847316976636648">
        <ele>8.789999999999999</ele>
        <time>2023-08-15T12:37:08Z</time>
      </trkpt>
      <trkpt lat="50.937303006649017" lon="1.843991037458181">
        <ele>4.46</ele>
        <time>2023-08-15T12:37:18Z</time>
      </trkpt>
      <trkpt lat="50.938286036252975" lon="1.840059002861381">
        <ele>1.58</ele>
        <time>2023-08-15T12:37:31Z</time>
      </trkpt>
      <trkpt lat="50.939642982557416" lon="1.835022987797856">
        <ele>3.02</ele>
        <time>2023-08-15T12:37:48Z</time>
      </trkpt>
      <trkpt lat="50.940546970814466" lon="1.831439975649118">
        <ele>0.62</ele>
        <time>2023-08-15T12:38:00Z</time>
      </trkpt>
      <trkpt lat="50.941202016547322" lon="1.827899040654302">
        <ele>-0.34</ele>
        <time>2023-08-15T12:38:11Z</time>
      </trkpt>
      <trkpt lat="50.941632008180022" lon="1.823431989178062">
        <ele>-0.34</ele>
        <time>2023-08-15T12:38:25Z</time>
      </trkpt>
      <trkpt lat="50.941935013979673" lon="1.820991011336446">
        <ele>-0.34</ele>
        <time>2023-08-15T12:38:33Z</time>
      </trkpt>
      <trkpt lat="50.942001985386014" lon="1.820731004700065">
        <ele>-0.34</ele>
        <time>2023-08-15T12:38:34Z</time>
      </trkpt>
      <trkpt lat="50.942567009478807" lon="1.819029981270433">
        <ele>2.54</ele>
        <time>2023-08-15T12:38:42Z</time>
      </trkpt>
      <trkpt lat="50.94270296394825" lon="1.818439979106188">
        <ele>3.98</ele>
        <time>2023-08-15T12:38:45Z</time>
      </trkpt>
      <trkpt lat="50.942730037495494" lon="1.81824803352356">
        <ele>4.46</ele>
        <time>2023-08-15T12:38:46Z</time>
      </trkpt>
      <trkpt lat="50.94274596311152" lon="1.817874033004046">
        <ele>5.42</ele>
        <time>2023-08-15T12:38:48Z</time>
      </trkpt>
      <trkpt lat="50.94274596311152" lon="1.817701030522585">
        <ele>5.42</ele>
        <time>2023-08-15T12:38:49Z</time>
      </trkpt>
      <trkpt lat="50.942733976989985" lon="1.817496009171009">
        <ele>5.42</ele>
        <time>2023-08-15T12:38:50Z</time>
      </trkpt>
      <trkpt lat="50.942695001140237" lon="1.817306997254491">
        <ele>5.42</ele>
        <time>2023-08-15T12:38:51Z</time>
      </trkpt>
      <trkpt lat="50.94265996478498" lon="1.817142963409424">
        <ele>5.42</ele>
        <time>2023-08-15T12:38:52Z</time>
      </trkpt>
      <trkpt lat="50.942572960630059" lon="1.81694196537137">
        <ele>4.94</ele>
        <time>2023-08-15T12:38:53Z</time>
      </trkpt>
      <trkpt lat="50.942498026415706" lon="1.81676996871829">
        <ele>4.94</ele>
        <time>2023-08-15T12:38:54Z</time>
      </trkpt>
      <trkpt lat="50.942412028089166" lon="1.816605012863874">
        <ele>4.94</ele>
        <time>2023-08-15T12:38:55Z</time>
      </trkpt>
      <trkpt lat="50.942305997014046" lon="1.81646796874702">
        <ele>5.42</ele>
        <time>2023-08-15T12:38:56Z</time>
      </trkpt>
      <trkpt lat="50.942196026444435" lon="1.816341988742352">
        <ele>5.42</ele>
        <time>2023-08-15T12:38:57Z</time>
      </trkpt>
      <trkpt lat="50.942072980105877" lon="1.816238975152373">
        <ele>5.91</ele>
        <time>2023-08-15T12:38:58Z</time>
      </trkpt>
      <trkpt lat="50.94195001758635" lon="1.816148031502962">
        <ele>5.91</ele>
        <time>2023-08-15T12:38:59Z</time>
      </trkpt>
      <trkpt lat="50.941810961812735" lon="1.81610201485455">
        <ele>6.39</ele>
        <time>2023-08-15T12:39:00Z</time>
      </trkpt>
      <trkpt lat="50.941667966544628" lon="1.816053986549377">
        <ele>6.39</ele>
        <time>2023-08-15T12:39:01Z</time>
      </trkpt>
      <trkpt lat="50.941525977104902" lon="1.816017022356391">
        <ele>6.39</ele>
        <time>2023-08-15T12:39:02Z</time>
      </trkpt>
      <trkpt lat="50.939817996695638" lon="1.815613014623523">
        <ele>5.42</ele>
        <time>2023-08-15T12:39:15Z</time>
      </trkpt>
      <trkpt lat="50.938353007659316" lon="1.815315959975123">
        <ele>3.98</ele>
        <time>2023-08-15T12:39:27Z</time>
      </trkpt>
      <trkpt lat="50.937362015247345" lon="1.815187968313694">
        <ele>3.98</ele>
        <time>2023-08-15T12:39:37Z</time>
      </trkpt>
      <trkpt lat="50.93728800304234" lon="1.815172964707017">
        <ele>3.98</ele>
        <time>2023-08-15T12:39:38Z</time>
      </trkpt>
      <trkpt lat="50.937145007774234" lon="1.815018989145756">
        <ele>4.46</ele>
        <time>2023-08-15T12:39:39Z</time>
      </trkpt>
      <trkpt lat="50.937145007774234" lon="1.815018989145756">
        <ele>4.46</ele>
        <time>2023-08-15T12:39:40Z</time>
      </trkpt>
      <trkpt lat="50.9370949678123" lon="1.814974984154105">
        <ele>4.46</ele>
        <time>2023-08-15T12:39:41Z</time>
      </trkpt>
      <trkpt lat="50.937035037204623" lon="1.814924022182822">
        <ele>4.46</ele>
        <time>2023-08-15T12:39:42Z</time>
      </trkpt>
      <trkpt lat="50.936994971707463" lon="1.814889991655946">
        <ele>4.94</ele>
        <time>2023-08-15T12:39:43Z</time>
      </trkpt>
      <trkpt lat="50.936928000301123" lon="1.814907006919384">
        <ele>4.94</ele>
        <time>2023-08-15T12:39:44Z</time>
      </trkpt>
      <trkpt lat="50.936908973380923" lon="1.814911030232906">
        <ele>4.94</ele>
        <time>2023-08-15T12:39:45Z</time>
      </trkpt>
      <trkpt lat="50.936908973380923" lon="1.814911030232906">
        <ele>4.94</ele>
        <time>2023-08-15T12:39:46Z</time>
      </trkpt>
      <trkpt lat="50.936717027798295" lon="1.815119991078973">
        <ele>4.94</ele>
        <time>2023-08-15T12:39:47Z</time>
      </trkpt>
      <trkpt lat="50.936667993664742" lon="1.815108004957438">
        <ele>4.94</ele>
        <time>2023-08-15T12:39:48Z</time>
      </trkpt>
      <trkpt lat="50.93662298284471" lon="1.815096018835902">
        <ele>5.42</ele>
        <time>2023-08-15T12:39:49Z</time>
      </trkpt>
      <trkpt lat="50.936575960367918" lon="1.815084032714367">
        <ele>5.42</ele>
        <time>2023-08-15T12:39:50Z</time>
      </trkpt>
      <trkpt lat="50.936528015881777" lon="1.8150719627738">
        <ele>5.42</ele>
        <time>2023-08-15T12:39:51Z</time>
      </trkpt>
      <trkpt lat="50.93617295846343" lon="1.814981019124389">
        <ele>6.39</ele>
        <time>2023-08-15T12:40:01Z</time>
      </trkpt>
      <trkpt lat="50.936034992337227" lon="1.814945982769132">
        <ele>5.91</ele>
        <time>2023-08-15T12:40:15Z</time>
      </trkpt>
      <trkpt lat="50.936034992337227" lon="1.814945982769132">
        <ele>5.42</ele>
        <time>2023-08-15T12:41:05Z</time>
      </trkpt>
      <trkpt lat="50.936034992337227" lon="1.814945982769132">
        <ele>4.46</ele>
        <time>2023-08-15T12:41:55Z</time>
      </trkpt>
      <trkpt lat="50.936034992337227" lon="1.814945982769132">
        <ele>3.98</ele>
        <time>2023-08-15T12:42:56Z</time>
      </trkpt>
      <trkpt lat="50.936034992337227" lon="1.814945982769132">
        <ele>3.02</ele>
        <time>2023-08-15T12:43:42Z</time>
      </trkpt>
      <trkpt lat="50.936034992337227" lon="1.814945982769132">
        <ele>3.02</ele>
        <time>2023-08-15T12:44:29Z</time>
      </trkpt>
      <trkpt lat="50.936034992337227" lon="1.814945982769132">
        <ele>3.02</ele>
        <time>2023-08-15T12:45:00Z</time>
      </trkpt>
      <trkpt lat="50.936034992337227" lon="1.814945982769132">
        <ele>3.02</ele>
        <time>2023-08-15T12:45:45Z</time>
      </trkpt>
      <trkpt lat="50.936034992337227" lon="1.814945982769132">
        <ele>2.54</ele>
        <time>2023-08-15T12:46:38Z</time>
      </trkpt>
      <trkpt lat="50.936034992337227" lon="1.814945982769132">
        <ele>2.54</ele>
        <time>2023-08-15T12:47:24Z</time>
      </trkpt>
      <trkpt lat="50.935958968475461" lon="1.814927039667964">
        <ele>2.54</ele>
        <time>2023-08-15T12:48:12Z</time>
      </trkpt>
      <trkpt lat="50.935929967090487" lon="1.8149199988693">
        <ele>3.5</ele>
        <time>2023-08-15T12:48:13Z</time>
      </trkpt>
      <trkpt lat="50.935894008725882" lon="1.814910024404526">
        <ele>4.46</ele>
        <time>2023-08-15T12:48:14Z</time>
      </trkpt>
      <trkpt lat="50.935814967378974" lon="1.814889991655946">
        <ele>4.46</ele>
        <time>2023-08-15T12:48:15Z</time>
      </trkpt>
      <trkpt lat="50.935802981257439" lon="1.814886974170804">
        <ele>3.98</ele>
        <time>2023-08-15T12:48:16Z</time>
      </trkpt>
      <trkpt lat="50.935298977419734" lon="1.814769040793181">
        <ele>-1.79</ele>
        <time>2023-08-15T12:48:25Z</time>
      </trkpt>
      <trkpt lat="50.935249021276832" lon="1.814758982509375">
        <ele>-2.27</ele>
        <time>2023-08-15T12:48:26Z</time>
      </trkpt>
      <trkpt lat="50.935228988528252" lon="1.814548010006547">
        <ele>-3.23</ele>
        <time>2023-08-15T12:48:27Z</time>
      </trkpt>
      <trkpt lat="50.935219014063478" lon="1.814471986144781">
        <ele>-4.19</ele>
        <time>2023-08-15T12:48:28Z</time>
      </trkpt>
      <trkpt lat="50.935209039598703" lon="1.814395962283015">
        <ele>-4.67</ele>
        <time>2023-08-15T12:48:29Z</time>
      </trkpt>
      <trkpt lat="50.935193030163646" lon="1.814267970621586">
        <ele>-5.63</ele>
        <time>2023-08-15T12:48:30Z</time>
      </trkpt>
      <trkpt lat="50.935197975486517" lon="1.814208040013909">
        <ele>-6.59</ele>
        <time>2023-08-15T12:48:31Z</time>
      </trkpt>
      <trkpt lat="50.935236029326916" lon="1.813817024230957">
        <ele>-9.960000000000001</ele>
        <time>2023-08-15T12:48:36Z</time>
      </trkpt>
      <trkpt lat="50.935236029326916" lon="1.813817024230957">
        <ele>-10.44</ele>
        <time>2023-08-15T12:48:37Z</time>
      </trkpt>
      <trkpt lat="50.93535496853292" lon="1.813514018431306">
        <ele>-10.92</ele>
        <time>2023-08-15T12:48:38Z</time>
      </trkpt>
      <trkpt lat="50.935314986854792" lon="1.813419973477721">
        <ele>-10.92</ele>
        <time>2023-08-15T12:48:39Z</time>
      </trkpt>
      <trkpt lat="50.935283973813057" lon="1.813364988192916">
        <ele>-11.4</ele>
        <time>2023-08-15T12:48:40Z</time>
      </trkpt>
      <trkpt lat="50.935135027393699" lon="1.813110010698438">
        <ele>-13.32</ele>
        <time>2023-08-15T12:48:48Z</time>
      </trkpt>
      <trkpt lat="50.93513703905046" lon="1.8130739685148">
        <ele>-13.32</ele>
        <time>2023-08-15T12:48:49Z</time>
      </trkpt>
      <trkpt lat="50.93513703905046" lon="1.8130739685148">
        <ele>-14.279999999999999</ele>
        <time>2023-08-15T12:48:51Z</time>
      </trkpt>
      <trkpt lat="50.93513703905046" lon="1.8130739685148">
        <ele>-14.76</ele>
        <time>2023-08-15T12:49:07Z</time>
      </trkpt>
      <trkpt lat="50.93513703905046" lon="1.8130739685148">
        <ele>-14.279999999999999</ele>
        <time>2023-08-15T12:49:53Z</time>
      </trkpt>
      <trkpt lat="50.93513703905046" lon="1.8130739685148">
        <ele>-13.32</ele>
        <time>2023-08-15T12:50:50Z</time>
      </trkpt>
      <trkpt lat="50.93514097854495" lon="1.81298696435988">
        <ele>-11.4</ele>
        <time>2023-08-15T12:50:56Z</time>
      </trkpt>
    </trkseg>
  </trk>

  <trk>
    <name>Track vom: 2023-08-15 14:27</name>
    <extensions>
      <gpxx:TrackExtension>
        <gpxx:DisplayColor>DarkGray</gpxx:DisplayColor>
      </gpxx:TrackExtension>
    </extensions>
    <trkseg>
      <trkpt lat="50.93514097854495" lon="1.812799964100123">
        <ele>69.829999999999998</ele>
        <time>2023-08-15T13:27:47Z</time>
      </trkpt>
      <trkpt lat="50.935171991586685" lon="1.81283600628376">
        <ele>7.83</ele>
        <time>2023-08-15T13:28:03Z</time>
      </trkpt>
      <trkpt lat="50.935149025171995" lon="1.812776997685432">
        <ele>7.35</ele>
        <time>2023-08-15T13:28:05Z</time>
      </trkpt>
      <trkpt lat="50.935133015736938" lon="1.812740033492446">
        <ele>6.87</ele>
        <time>2023-08-15T13:28:06Z</time>
      </trkpt>
      <trkpt lat="50.93509797938168" lon="1.812683958560228">
        <ele>6.39</ele>
        <time>2023-08-15T13:28:07Z</time>
      </trkpt>
      <trkpt lat="50.935064032673836" lon="1.812629979103804">
        <ele>5.91</ele>
        <time>2023-08-15T13:28:08Z</time>
      </trkpt>
      <trkpt lat="50.934868985787034" lon="1.812186995521188">
        <ele>5.91</ele>
        <time>2023-08-15T13:28:15Z</time>
      </trkpt>
      <trkpt lat="50.934789022430778" lon="1.812001001089811">
        <ele>5.91</ele>
        <time>2023-08-15T13:28:18Z</time>
      </trkpt>
      <trkpt lat="50.934762032702565" lon="1.811946015805006">
        <ele>5.42</ele>
        <time>2023-08-15T13:28:19Z</time>
      </trkpt>
      <trkpt lat="50.934739988297224" lon="1.811880972236395">
        <ele>4.94</ele>
        <time>2023-08-15T13:28:20Z</time>
      </trkpt>
      <trkpt lat="50.934717021882534" lon="1.811810983344913">
        <ele>4.94</ele>
        <time>2023-08-15T13:28:21Z</time>
      </trkpt>
      <trkpt lat="50.934691959992051" lon="1.811736971139908">
        <ele>4.94</ele>
        <time>2023-08-15T13:28:22Z</time>
      </trkpt>
      <trkpt lat="50.934608979150653" lon="1.811681985855103">
        <ele>4.46</ele>
        <time>2023-08-15T13:28:23Z</time>
      </trkpt>
      <trkpt lat="50.934554999694228" lon="1.811673017218709">
        <ele>4.46</ele>
        <time>2023-08-15T13:28:24Z</time>
      </trkpt>
      <trkpt lat="50.934504959732294" lon="1.811664970591664">
        <ele>4.46</ele>
        <time>2023-08-15T13:28:25Z</time>
      </trkpt>
      <trkpt lat="50.934453997761011" lon="1.811657007783651">
        <ele>4.46</ele>
        <time>2023-08-15T13:28:26Z</time>
      </trkpt>
      <trkpt lat="50.934400018304586" lon="1.811648039147258">
        <ele>4.46</ele>
        <time>2023-08-15T13:28:27Z</time>
      </trkpt>
      <trkpt lat="50.934346038848162" lon="1.811639992520213">
        <ele>3.98</ele>
        <time>2023-08-15T13:28:28Z</time>
      </trkpt>
      <trkpt lat="50.934180999174714" lon="1.811613002792001">
        <ele>3.5</ele>
        <time>2023-08-15T13:28:31Z</time>
      </trkpt>
      <trkpt lat="50.934106986969709" lon="1.811640998348594">
        <ele>3.98</ele>
        <time>2023-08-15T13:28:32Z</time>
      </trkpt>
      <trkpt lat="50.934083014726639" lon="1.811758009716868">
        <ele>3.5</ele>
        <time>2023-08-15T13:28:33Z</time>
      </trkpt>
      <trkpt lat="50.934070022776723" lon="1.811858005821705">
        <ele>3.5</ele>
        <time>2023-08-15T13:28:34Z</time>
      </trkpt>
      <trkpt lat="50.934055019170046" lon="1.811964958906174">
        <ele>3.02</ele>
        <time>2023-08-15T13:28:35Z</time>
      </trkpt>
      <trkpt lat="50.934026017785072" lon="1.812171991914511">
        <ele>2.54</ele>
        <time>2023-08-15T13:28:37Z</time>
      </trkpt>
      <trkpt lat="50.933970026671886" lon="1.813238002359867">
        <ele>2.06</ele>
        <time>2023-08-15T13:28:49Z</time>
      </trkpt>
      <trkpt lat="50.933989975601435" lon="1.813247976824641">
        <ele>2.06</ele>
        <time>2023-08-15T13:28:50Z</time>
      </trkpt>
      <trkpt lat="50.934013025835156" lon="1.813259040936828">
        <ele>2.06</ele>
        <time>2023-08-15T13:28:51Z</time>
      </trkpt>
      <trkpt lat="50.934073040261865" lon="1.813269015401602">
        <ele>1.58</ele>
        <time>2023-08-15T13:28:52Z</time>
      </trkpt>
      <trkpt lat="50.934102963656187" lon="1.813273960724473">
        <ele>1.58</ele>
        <time>2023-08-15T13:28:53Z</time>
      </trkpt>
      <trkpt lat="50.934102963656187" lon="1.813273960724473">
        <ele>2.54</ele>
        <time>2023-08-15T13:29:04Z</time>
      </trkpt>
      <trkpt lat="50.934485010802746" lon="1.813331041485071">
        <ele>2.06</ele>
        <time>2023-08-15T13:29:10Z</time>
      </trkpt>
      <trkpt lat="50.934956995770335" lon="1.813455009832978">
        <ele>3.5</ele>
        <time>2023-08-15T13:29:18Z</time>
      </trkpt>
      <trkpt lat="50.934994965791702" lon="1.813472025096417">
        <ele>3.5</ele>
        <time>2023-08-15T13:29:19Z</time>
      </trkpt>
      <trkpt lat="50.935017010197043" lon="1.813543019816279">
        <ele>3.98</ele>
        <time>2023-08-15T13:29:20Z</time>
      </trkpt>
      <trkpt lat="50.935034025460482" lon="1.81360999122262">
        <ele>4.46</ele>
        <time>2023-08-15T13:29:21Z</time>
      </trkpt>
      <trkpt lat="50.935051962733269" lon="1.813684003427625">
        <ele>4.46</ele>
        <time>2023-08-15T13:29:22Z</time>
      </trkpt>
      <trkpt lat="50.935060009360313" lon="1.813772013410926">
        <ele>3.98</ele>
        <time>2023-08-15T13:29:23Z</time>
      </trkpt>
      <trkpt lat="50.935052968561649" lon="1.813849965110421">
        <ele>3.98</ele>
        <time>2023-08-15T13:29:24Z</time>
      </trkpt>
      <trkpt lat="50.935047017410398" lon="1.813924983143807">
        <ele>3.98</ele>
        <time>2023-08-15T13:29:25Z</time>
      </trkpt>
      <trkpt lat="50.935039976611733" lon="1.813995977863669">
        <ele>3.98</ele>
        <time>2023-08-15T13:29:26Z</time>
      </trkpt>
      <trkpt lat="50.935034025460482" lon="1.814064038917422">
        <ele>3.5</ele>
        <time>2023-08-15T13:29:27Z</time>
      </trkpt>
      <trkpt lat="50.935022961348295" lon="1.814194964244962">
        <ele>3.5</ele>
        <time>2023-08-15T13:29:29Z</time>
      </trkpt>
      <trkpt lat="50.935017010197043" lon="1.814264031127095">
        <ele>3.5</ele>
        <time>2023-08-15T13:29:30Z</time>
      </trkpt>
      <trkpt lat="50.935009969398379" lon="1.81434097699821">
        <ele>3.5</ele>
        <time>2023-08-15T13:29:31Z</time>
      </trkpt>
      <trkpt lat="50.935003012418747" lon="1.814419012516737">
        <ele>3.5</ele>
        <time>2023-08-15T13:29:32Z</time>
      </trkpt>
      <trkpt lat="50.934996977448463" lon="1.8144900072366">
        <ele>3.5</ele>
        <time>2023-08-15T13:29:33Z</time>
      </trkpt>
      <trkpt lat="50.934991026297212" lon="1.814553961157799">
        <ele>3.5</ele>
        <time>2023-08-15T13:29:34Z</time>
      </trkpt>
      <trkpt lat="50.934985997155309" lon="1.814607018604875">
        <ele>3.5</ele>
        <time>2023-08-15T13:29:35Z</time>
      </trkpt>
      <trkpt lat="50.934981973841786" lon="1.814655968919396">
        <ele>3.5</ele>
        <time>2023-08-15T13:29:36Z</time>
      </trkpt>
      <trkpt lat="50.935207027941942" lon="1.814810028299689">
        <ele>3.02</ele>
        <time>2023-08-15T13:29:38Z</time>
      </trkpt>
      <trkpt lat="50.935273999348283" lon="1.814843975007534">
        <ele>3.02</ele>
        <time>2023-08-15T13:29:39Z</time>
      </trkpt>
      <trkpt lat="50.935405008494854" lon="1.814884962514043">
        <ele>3.5</ele>
        <time>2023-08-15T13:29:41Z</time>
      </trkpt>
      <trkpt lat="50.935540040954947" lon="1.815145974978805">
        <ele>3.5</ele>
        <time>2023-08-15T13:29:47Z</time>
      </trkpt>
      <trkpt lat="50.935439961031079" lon="1.814795024693012">
        <ele>3.02</ele>
        <time>2023-08-15T13:29:57Z</time>
      </trkpt>
      <trkpt lat="50.93531196936965" lon="1.81477096863091">
        <ele>3.5</ele>
        <time>2023-08-15T13:30:12Z</time>
      </trkpt>
      <trkpt lat="50.93531196936965" lon="1.81477096863091">
        <ele>3.5</ele>
        <time>2023-08-15T13:30:30Z</time>
      </trkpt>
      <trkpt lat="50.935090016573668" lon="1.814723024144769">
        <ele>3.5</ele>
        <time>2023-08-15T13:30:50Z</time>
      </trkpt>
      <trkpt lat="50.935090016573668" lon="1.814723024144769">
        <ele>3.5</ele>
        <time>2023-08-15T13:31:03Z</time>
      </trkpt>
      <trkpt lat="50.934991026297212" lon="1.814699973911047">
        <ele>6.39</ele>
        <time>2023-08-15T13:31:21Z</time>
      </trkpt>
      <trkpt lat="50.934888012707233" lon="1.814679019153118">
        <ele>3.5</ele>
        <time>2023-08-15T13:31:48Z</time>
      </trkpt>
      <trkpt lat="50.934888012707233" lon="1.814679019153118">
        <ele>2.54</ele>
        <time>2023-08-15T13:32:04Z</time>
      </trkpt>
      <trkpt lat="50.934846019372344" lon="1.814669966697693">
        <ele>1.1</ele>
        <time>2023-08-15T13:32:30Z</time>
      </trkpt>
      <trkpt lat="50.934798996895552" lon="1.814660998061299">
        <ele>-0.82</ele>
        <time>2023-08-15T13:32:57Z</time>
      </trkpt>
      <trkpt lat="50.934778964146972" lon="1.814656974747777">
        <ele>-3.23</ele>
        <time>2023-08-15T13:33:17Z</time>
      </trkpt>
      <trkpt lat="50.934738982468843" lon="1.814649011939764">
        <ele>-4.19</ele>
        <time>2023-08-15T13:33:39Z</time>
      </trkpt>
      <trkpt lat="50.934662958607078" lon="1.814633002504706">
        <ele>-5.15</ele>
        <time>2023-08-15T13:34:02Z</time>
      </trkpt>
      <trkpt lat="50.934662958607078" lon="1.814633002504706">
        <ele>-5.15</ele>
        <time>2023-08-15T13:34:44Z</time>
      </trkpt>
      <trkpt lat="50.934662958607078" lon="1.814633002504706">
        <ele>-5.15</ele>
        <time>2023-08-15T13:35:37Z</time>
      </trkpt>
      <trkpt lat="50.934662958607078" lon="1.814633002504706">
        <ele>-4.67</ele>
        <time>2023-08-15T13:36:21Z</time>
      </trkpt>
      <trkpt lat="50.934662958607078" lon="1.814633002504706">
        <ele>-2.27</ele>
        <time>2023-08-15T13:37:03Z</time>
      </trkpt>
      <trkpt lat="50.934662958607078" lon="1.814633002504706">
        <ele>-1.3</ele>
        <time>2023-08-15T13:37:52Z</time>
      </trkpt>
      <trkpt lat="50.934662958607078" lon="1.814633002504706">
        <ele>2.06</ele>
        <time>2023-08-15T13:38:41Z</time>
      </trkpt>
      <trkpt lat="50.934662958607078" lon="1.814633002504706">
        <ele>2.06</ele>
        <time>2023-08-15T13:39:25Z</time>
      </trkpt>
      <trkpt lat="50.934570003300905" lon="1.814613975584507">
        <ele>3.98</ele>
        <time>2023-08-15T13:39:59Z</time>
      </trkpt>
      <trkpt lat="50.934570003300905" lon="1.814613975584507">
        <ele>3.98</ele>
        <time>2023-08-15T13:40:47Z</time>
      </trkpt>
      <trkpt lat="50.934570003300905" lon="1.814613975584507">
        <ele>4.94</ele>
        <time>2023-08-15T13:41:29Z</time>
      </trkpt>
      <trkpt lat="50.934570003300905" lon="1.814613975584507">
        <ele>4.94</ele>
        <time>2023-08-15T13:42:14Z</time>
      </trkpt>
      <trkpt lat="50.934570003300905" lon="1.814613975584507">
        <ele>5.42</ele>
        <time>2023-08-15T13:42:57Z</time>
      </trkpt>
      <trkpt lat="50.934570003300905" lon="1.814613975584507">
        <ele>5.42</ele>
        <time>2023-08-15T13:43:45Z</time>
      </trkpt>
      <trkpt lat="50.934570003300905" lon="1.814613975584507">
        <ele>6.39</ele>
        <time>2023-08-15T13:44:36Z</time>
      </trkpt>
      <trkpt lat="50.934570003300905" lon="1.814613975584507">
        <ele>6.87</ele>
        <time>2023-08-15T13:45:25Z</time>
      </trkpt>
      <trkpt lat="50.934570003300905" lon="1.814613975584507">
        <ele>7.35</ele>
        <time>2023-08-15T13:46:18Z</time>
      </trkpt>
      <trkpt lat="50.934570003300905" lon="1.814613975584507">
        <ele>7.83</ele>
        <time>2023-08-15T13:47:06Z</time>
      </trkpt>
      <trkpt lat="50.934570003300905" lon="1.814613975584507">
        <ele>8.310000000000001</ele>
        <time>2023-08-15T13:47:50Z</time>
      </trkpt>
      <trkpt lat="50.934570003300905" lon="1.814613975584507">
        <ele>8.310000000000001</ele>
        <time>2023-08-15T13:48:41Z</time>
      </trkpt>
      <trkpt lat="50.934570003300905" lon="1.814613975584507">
        <ele>8.789999999999999</ele>
        <time>2023-08-15T13:49:29Z</time>
      </trkpt>
      <trkpt lat="50.934570003300905" lon="1.814613975584507">
        <ele>8.789999999999999</ele>
        <time>2023-08-15T13:50:14Z</time>
      </trkpt>
      <trkpt lat="50.934570003300905" lon="1.814613975584507">
        <ele>9.27</ele>
        <time>2023-08-15T13:51:00Z</time>
      </trkpt>
      <trkpt lat="50.934570003300905" lon="1.814613975584507">
        <ele>9.27</ele>
        <time>2023-08-15T13:51:49Z</time>
      </trkpt>
      <trkpt lat="50.934570003300905" lon="1.814613975584507">
        <ele>10.23</ele>
        <time>2023-08-15T13:52:33Z</time>
      </trkpt>
      <trkpt lat="50.934570003300905" lon="1.814613975584507">
        <ele>11.67</ele>
        <time>2023-08-15T13:53:13Z</time>
      </trkpt>
      <trkpt lat="50.934570003300905" lon="1.814613975584507">
        <ele>11.67</ele>
        <time>2023-08-15T13:53:53Z</time>
      </trkpt>
      <trkpt lat="50.934570003300905" lon="1.814613975584507">
        <ele>11.67</ele>
        <time>2023-08-15T13:54:44Z</time>
      </trkpt>
      <trkpt lat="50.934570003300905" lon="1.814613975584507">
        <ele>12.630000000000001</ele>
        <time>2023-08-15T13:55:06Z</time>
      </trkpt>
      <trkpt lat="50.934570003300905" lon="1.814613975584507">
        <ele>12.630000000000001</ele>
        <time>2023-08-15T13:55:41Z</time>
      </trkpt>
      <trkpt lat="50.934570003300905" lon="1.814613975584507">
        <ele>12.630000000000001</ele>
        <time>2023-08-15T13:56:25Z</time>
      </trkpt>
      <trkpt lat="50.934570003300905" lon="1.814613975584507">
        <ele>13.119999999999999</ele>
        <time>2023-08-15T13:56:41Z</time>
      </trkpt>
      <trkpt lat="50.934570003300905" lon="1.814613975584507">
        <ele>13.119999999999999</ele>
        <time>2023-08-15T13:57:14Z</time>
      </trkpt>
      <trkpt lat="50.934471013024449" lon="1.814594026654959">
        <ele>13.119999999999999</ele>
        <time>2023-08-15T13:57:33Z</time>
      </trkpt>
      <trkpt lat="50.934040015563369" lon="1.814507022500038">
        <ele>10.23</ele>
        <time>2023-08-15T13:57:45Z</time>
      </trkpt>
      <trkpt lat="50.933993998914957" lon="1.814496964216232">
        <ele>10.23</ele>
        <time>2023-08-15T13:58:00Z</time>
      </trkpt>
      <trkpt lat="50.933921998366714" lon="1.814482966437936">
        <ele>9.75</ele>
        <time>2023-08-15T13:58:11Z</time>
      </trkpt>
      <trkpt lat="50.933777997270226" lon="1.814453965052962">
        <ele>9.27</ele>
        <time>2023-08-15T13:58:47Z</time>
      </trkpt>
      <trkpt lat="50.933777997270226" lon="1.814453965052962">
        <ele>9.27</ele>
        <time>2023-08-15T13:58:59Z</time>
      </trkpt>
      <trkpt lat="50.933723011985421" lon="1.814442984759808">
        <ele>8.310000000000001</ele>
        <time>2023-08-15T13:59:28Z</time>
      </trkpt>
      <trkpt lat="50.933699039742351" lon="1.814438039436936">
        <ele>8.310000000000001</ele>
        <time>2023-08-15T13:59:41Z</time>
      </trkpt>
      <trkpt lat="50.933636007830501" lon="1.814424963667989">
        <ele>8.789999999999999</ele>
        <time>2023-08-15T13:59:53Z</time>
      </trkpt>
      <trkpt lat="50.933636007830501" lon="1.814424963667989">
        <ele>8.789999999999999</ele>
        <time>2023-08-15T14:00:19Z</time>
      </trkpt>
      <trkpt lat="50.933636007830501" lon="1.814424963667989">
        <ele>8.310000000000001</ele>
        <time>2023-08-15T14:00:52Z</time>
      </trkpt>
      <trkpt lat="50.933636007830501" lon="1.814424963667989">
        <ele>8.789999999999999</ele>
        <time>2023-08-15T14:01:08Z</time>
      </trkpt>
      <trkpt lat="50.933422017842531" lon="1.814381964504719">
        <ele>9.75</ele>
        <time>2023-08-15T14:01:48Z</time>
      </trkpt>
      <trkpt lat="50.933422017842531" lon="1.814381964504719">
        <ele>9.27</ele>
        <time>2023-08-15T14:02:04Z</time>
      </trkpt>
      <trkpt lat="50.933422017842531" lon="1.814381964504719">
        <ele>9.27</ele>
        <time>2023-08-15T14:02:54Z</time>
      </trkpt>
      <trkpt lat="50.933422017842531" lon="1.814381964504719">
        <ele>8.789999999999999</ele>
        <time>2023-08-15T14:03:47Z</time>
      </trkpt>
      <trkpt lat="50.933422017842531" lon="1.814381964504719">
        <ele>8.789999999999999</ele>
        <time>2023-08-15T14:04:41Z</time>
      </trkpt>
      <trkpt lat="50.933219008147717" lon="1.814343994483352">
        <ele>9.27</ele>
        <time>2023-08-15T14:04:54Z</time>
      </trkpt>
      <trkpt lat="50.933219008147717" lon="1.814343994483352">
        <ele>8.310000000000001</ele>
        <time>2023-08-15T14:05:20Z</time>
      </trkpt>
      <trkpt lat="50.933163017034531" lon="1.814336031675339">
        <ele>8.310000000000001</ele>
        <time>2023-08-15T14:06:06Z</time>
      </trkpt>
      <trkpt lat="50.933147007599473" lon="1.814333014190197">
        <ele>7.83</ele>
        <time>2023-08-15T14:06:22Z</time>
      </trkpt>
      <trkpt lat="50.933095039799809" lon="1.814325973391533">
        <ele>6.87</ele>
        <time>2023-08-15T14:06:59Z</time>
      </trkpt>
      <trkpt lat="50.933095039799809" lon="1.814325973391533">
        <ele>6.87</ele>
        <time>2023-08-15T14:07:15Z</time>
      </trkpt>
      <trkpt lat="50.933095039799809" lon="1.814325973391533">
        <ele>7.35</ele>
        <time>2023-08-15T14:08:05Z</time>
      </trkpt>
      <trkpt lat="50.933095039799809" lon="1.814325973391533">
        <ele>8.310000000000001</ele>
        <time>2023-08-15T14:08:22Z</time>
      </trkpt>
      <trkpt lat="50.932894963771105" lon="1.814295966178179">
        <ele>8.789999999999999</ele>
        <time>2023-08-15T14:09:00Z</time>
      </trkpt>
      <trkpt lat="50.932864034548402" lon="1.814291020855308">
        <ele>8.789999999999999</ele>
        <time>2023-08-15T14:09:08Z</time>
      </trkpt>
      <trkpt lat="50.932864034548402" lon="1.814291020855308">
        <ele>9.27</ele>
        <time>2023-08-15T14:09:50Z</time>
      </trkpt>
      <trkpt lat="50.932864034548402" lon="1.814291020855308">
        <ele>9.27</ele>
        <time>2023-08-15T14:10:07Z</time>
      </trkpt>
      <trkpt lat="50.932864034548402" lon="1.814291020855308">
        <ele>9.27</ele>
        <time>2023-08-15T14:10:28Z</time>
      </trkpt>
      <trkpt lat="50.932591035962105" lon="1.814250033348799">
        <ele>9.75</ele>
        <time>2023-08-15T14:10:54Z</time>
      </trkpt>
      <trkpt lat="50.931718982756138" lon="1.814111983403564">
        <ele>7.83</ele>
        <time>2023-08-15T14:11:03Z</time>
      </trkpt>
      <trkpt lat="50.931343976408243" lon="1.814001007005572">
        <ele>7.35</ele>
        <time>2023-08-15T14:11:08Z</time>
      </trkpt>
      <trkpt lat="50.931297037750483" lon="1.813975023105741">
        <ele>7.35</ele>
        <time>2023-08-15T14:11:09Z</time>
      </trkpt>
      <trkpt lat="50.931222019717097" lon="1.813891958445311">
        <ele>7.35</ele>
        <time>2023-08-15T14:11:10Z</time>
      </trkpt>
      <trkpt lat="50.931191006675363" lon="1.813820041716099">
        <ele>6.87</ele>
        <time>2023-08-15T14:11:11Z</time>
      </trkpt>
      <trkpt lat="50.931201986968517" lon="1.813645027577877">
        <ele>6.87</ele>
        <time>2023-08-15T14:11:12Z</time>
      </trkpt>
      <trkpt lat="50.931190000846982" lon="1.813575038686395">
        <ele>6.87</ele>
        <time>2023-08-15T14:11:13Z</time>
      </trkpt>
      <trkpt lat="50.931153958663344" lon="1.813473030924797">
        <ele>6.87</ele>
        <time>2023-08-15T14:11:14Z</time>
      </trkpt>
      <trkpt lat="50.931115988641977" lon="1.813408993184567">
        <ele>6.87</ele>
        <time>2023-08-15T14:11:15Z</time>
      </trkpt>
      <trkpt lat="50.931033007800579" lon="1.813408993184567">
        <ele>6.87</ele>
        <time>2023-08-15T14:11:16Z</time>
      </trkpt>
      <trkpt lat="50.93097098171711" lon="1.813408993184567">
        <ele>7.35</ele>
        <time>2023-08-15T14:11:17Z</time>
      </trkpt>
      <trkpt lat="50.930908033624291" lon="1.813448974862695">
        <ele>7.35</ele>
        <time>2023-08-15T14:11:18Z</time>
      </trkpt>
      <trkpt lat="50.930877020582557" lon="1.813534973189235">
        <ele>7.35</ele>
        <time>2023-08-15T14:11:19Z</time>
      </trkpt>
      <trkpt lat="50.930848019197583" lon="1.813616026192904">
        <ele>7.35</ele>
        <time>2023-08-15T14:11:20Z</time>
      </trkpt>
      <trkpt lat="50.930774006992579" lon="1.813645027577877">
        <ele>6.87</ele>
        <time>2023-08-15T14:11:21Z</time>
      </trkpt>
      <trkpt lat="50.930719021707773" lon="1.813645027577877">
        <ele>6.87</ele>
        <time>2023-08-15T14:11:22Z</time>
      </trkpt>
      <trkpt lat="50.93064802698791" lon="1.813633041456342">
        <ele>6.87</ele>
        <time>2023-08-15T14:11:23Z</time>
      </trkpt>
      <trkpt lat="50.930572003126144" lon="1.813576966524124">
        <ele>6.87</ele>
        <time>2023-08-15T14:11:24Z</time>
      </trkpt>
      <trkpt lat="50.930489022284746" lon="1.813516030088067">
        <ele>6.87</ele>
        <time>2023-08-15T14:11:25Z</time>
      </trkpt>
      <trkpt lat="50.930402018129826" lon="1.813451992347837">
        <ele>6.87</ele>
        <time>2023-08-15T14:11:26Z</time>
      </trkpt>
      <trkpt lat="50.929272975772619" lon="1.81259703822434">
        <ele>10.710000000000001</ele>
        <time>2023-08-15T14:11:38Z</time>
      </trkpt>
      <trkpt lat="50.928048966452479" lon="1.811372023075819">
        <ele>12.630000000000001</ele>
        <time>2023-08-15T14:11:50Z</time>
      </trkpt>
      <trkpt lat="50.927873030304909" lon="1.811196003109217">
        <ele>13.119999999999999</ele>
        <time>2023-08-15T14:11:52Z</time>
      </trkpt>
      <trkpt lat="50.927796000614762" lon="1.811119979247451">
        <ele>13.6</ele>
        <time>2023-08-15T14:11:53Z</time>
      </trkpt>
      <trkpt lat="50.927569018676877" lon="1.810891991481185">
        <ele>14.56</ele>
        <time>2023-08-15T14:11:56Z</time>
      </trkpt>
      <trkpt lat="50.926967030391097" lon="1.810326967388392">
        <ele>16.48</ele>
        <time>2023-08-15T14:12:05Z</time>
      </trkpt>
      <trkpt lat="50.926847001537681" lon="1.810269970446825">
        <ele>17.920000000000002</ele>
        <time>2023-08-15T14:12:14Z</time>
      </trkpt>
      <trkpt lat="50.926783969625831" lon="1.810240969061852">
        <ele>18.879999999999999</ele>
        <time>2023-08-15T14:12:25Z</time>
      </trkpt>
      <trkpt lat="50.926699982956052" lon="1.810200987383723">
        <ele>18.399999999999999</ele>
        <time>2023-08-15T14:12:34Z</time>
      </trkpt>
      <trkpt lat="50.92658800072968" lon="1.810148013755679">
        <ele>18.399999999999999</ele>
        <time>2023-08-15T14:12:35Z</time>
      </trkpt>
      <trkpt lat="50.926551958546042" lon="1.810154970735312">
        <ele>18.399999999999999</ele>
        <time>2023-08-15T14:12:36Z</time>
      </trkpt>
      <trkpt lat="50.926489010453224" lon="1.810168968513608">
        <ele>17.920000000000002</ele>
        <time>2023-08-15T14:12:37Z</time>
      </trkpt>
      <trkpt lat="50.926288012415171" lon="1.810211967676878">
        <ele>17.920000000000002</ele>
        <time>2023-08-15T14:12:38Z</time>
      </trkpt>
      <trkpt lat="50.926251970231533" lon="1.810253961011767">
        <ele>17.440000000000001</ele>
        <time>2023-08-15T14:12:39Z</time>
      </trkpt>
      <trkpt lat="50.926124984398484" lon="1.810468034818769">
        <ele>16.960000000000001</ele>
        <time>2023-08-15T14:12:40Z</time>
      </trkpt>
      <trkpt lat="50.926086008548737" lon="1.810589991509914">
        <ele>16.960000000000001</ele>
        <time>2023-08-15T14:12:41Z</time>
      </trkpt>
      <trkpt lat="50.926043009385467" lon="1.810723012313247">
        <ele>16.960000000000001</ele>
        <time>2023-08-15T14:12:42Z</time>
      </trkpt>
      <trkpt lat="50.92581300996244" lon="1.811434971168637">
        <ele>16</ele>
        <time>2023-08-15T14:12:50Z</time>
      </trkpt>
      <trkpt lat="50.92579398304224" lon="1.811495991423726">
        <ele>16</ele>
        <time>2023-08-15T14:13:00Z</time>
      </trkpt>
      <trkpt lat="50.92579398304224" lon="1.811495991423726">
        <ele>15.52</ele>
        <time>2023-08-15T14:13:49Z</time>
      </trkpt>
      <trkpt lat="50.92579398304224" lon="1.811495991423726">
        <ele>15.52</ele>
        <time>2023-08-15T14:14:35Z</time>
      </trkpt>
      <trkpt lat="50.92579398304224" lon="1.811495991423726">
        <ele>15.039999999999999</ele>
        <time>2023-08-15T14:15:12Z</time>
      </trkpt>
      <trkpt lat="50.92579398304224" lon="1.811495991423726">
        <ele>15.039999999999999</ele>
        <time>2023-08-15T14:15:57Z</time>
      </trkpt>
      <trkpt lat="50.92579398304224" lon="1.811495991423726">
        <ele>14.56</ele>
        <time>2023-08-15T14:16:45Z</time>
      </trkpt>
    </trkseg>
  </trk>

  <trk>
    <name>Track vom: 2023-08-15 16:14</name>
    <extensions>
      <gpxx:TrackExtension>
        <gpxx:DisplayColor>DarkGray</gpxx:DisplayColor>
      </gpxx:TrackExtension>
    </extensions>
    <trkseg>
      <trkpt lat="51.096375016495585" lon="1.138035971671343">
        <ele>72.239999999999995</ele>
        <time>2023-08-15T15:14:40Z</time>
      </trkpt>
      <trkpt lat="51.095962040126324" lon="1.13914699293673">
        <ele>65.510000000000005</ele>
        <time>2023-08-15T15:14:48Z</time>
      </trkpt>
      <trkpt lat="51.096048038452864" lon="1.140031032264233">
        <ele>72.239999999999995</ele>
        <time>2023-08-15T15:14:56Z</time>
      </trkpt>
      <trkpt lat="51.096057007089257" lon="1.140121975913644">
        <ele>73.200000000000003</ele>
        <time>2023-08-15T15:14:57Z</time>
      </trkpt>
      <trkpt lat="51.096065975725651" lon="1.140215015038848">
        <ele>74.159999999999997</ele>
        <time>2023-08-15T15:14:58Z</time>
      </trkpt>
      <trkpt lat="51.09610402956605" lon="1.140604019165039">
        <ele>75.120000000000005</ele>
        <time>2023-08-15T15:14:59Z</time>
      </trkpt>
      <trkpt lat="51.09610402956605" lon="1.140604019165039">
        <ele>76.079999999999998</ele>
        <time>2023-08-15T15:15:00Z</time>
      </trkpt>
      <trkpt lat="51.09610402956605" lon="1.140604019165039">
        <ele>76.560000000000002</ele>
        <time>2023-08-15T15:15:01Z</time>
      </trkpt>
      <trkpt lat="51.096054995432496" lon="1.14069202914834">
        <ele>77.519999999999996</ele>
        <time>2023-08-15T15:15:02Z</time>
      </trkpt>
      <trkpt lat="51.095850979909301" lon="1.140814991667867">
        <ele>79.450000000000003</ele>
        <time>2023-08-15T15:15:05Z</time>
      </trkpt>
      <trkpt lat="51.095824996009469" lon="1.140819014981389">
        <ele>79.930000000000007</ele>
        <time>2023-08-15T15:15:06Z</time>
      </trkpt>
      <trkpt lat="51.095824996009469" lon="1.140819014981389">
        <ele>79.930000000000007</ele>
        <time>2023-08-15T15:15:07Z</time>
      </trkpt>
      <trkpt lat="51.095717959105968" lon="1.140733016654849">
        <ele>79.930000000000007</ele>
        <time>2023-08-15T15:15:08Z</time>
      </trkpt>
      <trkpt lat="51.095717959105968" lon="1.140733016654849">
        <ele>79.930000000000007</ele>
        <time>2023-08-15T15:15:09Z</time>
      </trkpt>
      <trkpt lat="51.095700021833181" lon="1.140675013884902">
        <ele>79.930000000000007</ele>
        <time>2023-08-15T15:15:10Z</time>
      </trkpt>
      <trkpt lat="51.095664985477924" lon="1.140561020001769">
        <ele>79.930000000000007</ele>
        <time>2023-08-15T15:15:11Z</time>
      </trkpt>
      <trkpt lat="51.095631960779428" lon="1.140453983098269">
        <ele>79.930000000000007</ele>
        <time>2023-08-15T15:15:12Z</time>
      </trkpt>
      <trkpt lat="51.095622992143035" lon="1.140376031398773">
        <ele>79.930000000000007</ele>
        <time>2023-08-15T15:15:13Z</time>
      </trkpt>
      <trkpt lat="51.095605976879597" lon="1.140222977846861">
        <ele>79.930000000000007</ele>
        <time>2023-08-15T15:15:14Z</time>
      </trkpt>
      <trkpt lat="51.095431968569756" lon="1.138627985492349">
        <ele>74.159999999999997</ele>
        <time>2023-08-15T15:15:23Z</time>
      </trkpt>
      <trkpt lat="51.095416964963078" lon="1.138441991060972">
        <ele>73.680000000000007</ele>
        <time>2023-08-15T15:15:24Z</time>
      </trkpt>
      <trkpt lat="51.095215966925025" lon="1.135905040428042">
        <ele>71.269999999999996</ele>
        <time>2023-08-15T15:15:37Z</time>
      </trkpt>
      <trkpt lat="51.095076994970441" lon="1.134151965379715">
        <ele>66.950000000000003</ele>
        <time>2023-08-15T15:15:46Z</time>
      </trkpt>
      <trkpt lat="51.094714980572462" lon="1.131145963445306">
        <ele>64.549999999999997</ele>
        <time>2023-08-15T15:15:58Z</time>
      </trkpt>
      <trkpt lat="51.094338968396187" lon="1.128428969532251">
        <ele>64.069999999999993</ele>
        <time>2023-08-15T15:16:11Z</time>
      </trkpt>
      <trkpt lat="51.093867989256978" lon="1.125358007848263">
        <ele>66.950000000000003</ele>
        <time>2023-08-15T15:16:25Z</time>
      </trkpt>
      <trkpt lat="51.093322997912765" lon="1.121968030929565">
        <ele>69.829999999999998</ele>
        <time>2023-08-15T15:16:39Z</time>
      </trkpt>
      <trkpt lat="51.092826034873724" lon="1.118569001555443">
        <ele>69.349999999999994</ele>
        <time>2023-08-15T15:16:53Z</time>
      </trkpt>
      <trkpt lat="51.092501990497112" lon="1.11491097137332">
        <ele>66.469999999999999</ele>
        <time>2023-08-15T15:17:07Z</time>
      </trkpt>
      <trkpt lat="51.092308033257723" lon="1.110970973968506">
        <ele>62.619999999999997</ele>
        <time>2023-08-15T15:17:21Z</time>
      </trkpt>
      <trkpt lat="51.092588994652033" lon="1.10863896086812">
        <ele>61.18</ele>
        <time>2023-08-15T15:17:29Z</time>
      </trkpt>
      <trkpt lat="51.093235993757844" lon="1.105460040271282">
        <ele>61.18</ele>
        <time>2023-08-15T15:17:40Z</time>
      </trkpt>
      <trkpt lat="51.09346398152411" lon="1.102902973070741">
        <ele>61.18</ele>
        <time>2023-08-15T15:17:48Z</time>
      </trkpt>
      <trkpt lat="51.093362979590893" lon="1.100081037729979">
        <ele>65.989999999999995</ele>
        <time>2023-08-15T15:17:57Z</time>
      </trkpt>
      <trkpt lat="51.092909015715122" lon="1.096408003941178">
        <ele>72.719999999999999</ele>
        <time>2023-08-15T15:18:08Z</time>
      </trkpt>
      <trkpt lat="51.09256200492382" lon="1.093519013375044">
        <ele>79.930000000000007</ele>
        <time>2023-08-15T15:18:17Z</time>
      </trkpt>
      <trkpt lat="51.09206504188478" lon="1.08897996135056">
        <ele>91.459999999999994</ele>
        <time>2023-08-15T15:18:31Z</time>
      </trkpt>
      <trkpt lat="51.091728005558252" lon="1.084843995049596">
        <ele>101.56</ele>
        <time>2023-08-15T15:18:43Z</time>
      </trkpt>
      <trkpt lat="51.091619040817022" lon="1.080264039337635">
        <ele>109.73</ele>
        <time>2023-08-15T15:18:56Z</time>
      </trkpt>
      <trkpt lat="51.091754995286465" lon="1.076445998623967">
        <ele>114.05</ele>
        <time>2023-08-15T15:19:06Z</time>
      </trkpt>
      <trkpt lat="51.092191021889448" lon="1.071583991870284">
        <ele>112.13</ele>
        <time>2023-08-15T15:19:19Z</time>
      </trkpt>
      <trkpt lat="51.093028960749507" lon="1.066454015672207">
        <ele>106.36</ele>
        <time>2023-08-15T15:19:34Z</time>
      </trkpt>
      <trkpt lat="51.093867989256978" lon="1.062067011371255">
        <ele>100.59999999999999</ele>
        <time>2023-08-15T15:19:47Z</time>
      </trkpt>
      <trkpt lat="51.0944729950279" lon="1.058332035318017">
        <ele>95.310000000000002</ele>
        <time>2023-08-15T15:19:57Z</time>
      </trkpt>
      <trkpt lat="51.0950100235641" lon="1.053798012435436">
        <ele>90.019999999999996</ele>
        <time>2023-08-15T15:20:08Z</time>
      </trkpt>
      <trkpt lat="51.095428029075265" lon="1.049889028072357">
        <ele>88.579999999999998</ele>
        <time>2023-08-15T15:20:18Z</time>
      </trkpt>
      <trkpt lat="51.0958700068295" lon="1.046119015663862">
        <ele>90.5</ele>
        <time>2023-08-15T15:20:28Z</time>
      </trkpt>
      <trkpt lat="51.096546007320285" lon="1.040827017277479">
        <ele>86.659999999999997</ele>
        <time>2023-08-15T15:20:42Z</time>
      </trkpt>
      <trkpt lat="51.097430968657136" lon="1.035209968686104">
        <ele>83.769999999999996</ele>
        <time>2023-08-15T15:20:57Z</time>
      </trkpt>
      <trkpt lat="51.098129013553262" lon="1.031215991824865">
        <ele>82.329999999999998</ele>
        <time>2023-08-15T15:21:08Z</time>
      </trkpt>
      <trkpt lat="51.098870979622006" lon="1.026967959478498">
        <ele>81.370000000000005</ele>
        <time>2023-08-15T15:21:19Z</time>
      </trkpt>
      <trkpt lat="51.099586961790919" lon="1.021332973614335">
        <ele>79.930000000000007</ele>
        <time>2023-08-15T15:21:33Z</time>
      </trkpt>
      <trkpt lat="51.099941013380885" lon="1.015791026875377">
        <ele>80.890000000000001</ele>
        <time>2023-08-15T15:21:46Z</time>
      </trkpt>
      <trkpt lat="51.100136982277036" lon="1.010658033192158">
        <ele>82.810000000000002</ele>
        <time>2023-08-15T15:21:58Z</time>
      </trkpt>
      <trkpt lat="51.100675016641617" lon="1.004279991611838">
        <ele>80.409999999999997</ele>
        <time>2023-08-15T15:22:13Z</time>
      </trkpt>
      <trkpt lat="51.101785032078624" lon="0.996336964890361">
        <ele>77.519999999999996</ele>
        <time>2023-08-15T15:22:32Z</time>
      </trkpt>
      <trkpt lat="51.102977022528648" lon="0.990180959925056">
        <ele>76.079999999999998</ele>
        <time>2023-08-15T15:22:47Z</time>
      </trkpt>
      <trkpt lat="51.104344027116895" lon="0.985059030354023">
        <ele>72.239999999999995</ele>
        <time>2023-08-15T15:23:00Z</time>
      </trkpt>
      <trkpt lat="51.106074973940849" lon="0.980217978358269">
        <ele>70.790000000000006</ele>
        <time>2023-08-15T15:23:13Z</time>
      </trkpt>
      <trkpt lat="51.108323000371456" lon="0.9748509619385">
        <ele>67.909999999999997</ele>
        <time>2023-08-15T15:23:28Z</time>
      </trkpt>
      <trkpt lat="51.11080102622509" lon="0.968218026682734">
        <ele>66.469999999999999</ele>
        <time>2023-08-15T15:23:46Z</time>
      </trkpt>
      <trkpt lat="51.11286599189043" lon="0.961746023967862">
        <ele>69.829999999999998</ele>
        <time>2023-08-15T15:24:03Z</time>
      </trkpt>
      <trkpt lat="51.114430977031589" lon="0.955990003421903">
        <ele>75.120000000000005</ele>
        <time>2023-08-15T15:24:18Z</time>
      </trkpt>
      <trkpt lat="51.11565800383687" lon="0.952297020703554">
        <ele>78.969999999999999</ele>
        <time>2023-08-15T15:24:28Z</time>
      </trkpt>
      <trkpt lat="51.11724603921175" lon="0.948931016027927">
        <ele>80.890000000000001</ele>
        <time>2023-08-15T15:24:38Z</time>
      </trkpt>
      <trkpt lat="51.119518037885427" lon="0.945325959473848">
        <ele>77.040000000000006</ele>
        <time>2023-08-15T15:24:50Z</time>
      </trkpt>
      <trkpt lat="51.12195398658514" lon="0.941196028143168">
        <ele>72.719999999999999</ele>
        <time>2023-08-15T15:25:03Z</time>
      </trkpt>
      <trkpt lat="51.124139986932278" lon="0.936736017465591">
        <ele>71.269999999999996</ele>
        <time>2023-08-15T15:25:16Z</time>
      </trkpt>
      <trkpt lat="51.126046031713486" lon="0.933036999776959">
        <ele>68.390000000000001</ele>
        <time>2023-08-15T15:25:27Z</time>
      </trkpt>
      <trkpt lat="51.128165982663631" lon="0.929638976231217">
        <ele>65.989999999999995</ele>
        <time>2023-08-15T15:25:38Z</time>
      </trkpt>
      <trkpt lat="51.129855019971728" lon="0.927081992849708">
        <ele>63.100000000000001</ele>
        <time>2023-08-15T15:25:47Z</time>
      </trkpt>
      <trkpt lat="51.131569035351276" lon="0.923951016739011">
        <ele>59.740000000000002</ele>
        <time>2023-08-15T15:25:57Z</time>
      </trkpt>
      <trkpt lat="51.133161010220647" lon="0.920041026547551">
        <ele>56.859999999999999</ele>
        <time>2023-08-15T15:26:08Z</time>
      </trkpt>
      <trkpt lat="51.134375967085361" lon="0.916721038520336">
        <ele>53.969999999999999</ele>
        <time>2023-08-15T15:26:17Z</time>
      </trkpt>
      <trkpt lat="51.136249992996454" lon="0.912570990622044">
        <ele>56.369999999999997</ele>
        <time>2023-08-15T15:26:29Z</time>
      </trkpt>
      <trkpt lat="51.137792011722922" lon="0.910162031650543">
        <ele>57.340000000000003</ele>
        <time>2023-08-15T15:26:37Z</time>
      </trkpt>
      <trkpt lat="51.139741977676749" lon="0.907747959718108">
        <ele>63.100000000000001</ele>
        <time>2023-08-15T15:26:46Z</time>
      </trkpt>
      <trkpt lat="51.142838001251221" lon="0.904123960062861">
        <ele>60.219999999999999</ele>
        <time>2023-08-15T15:27:00Z</time>
      </trkpt>
      <trkpt lat="51.145978029817343" lon="0.899943988770247">
        <ele>50.609999999999999</ele>
        <time>2023-08-15T15:27:15Z</time>
      </trkpt>
      <trkpt lat="51.148515986278653" lon="0.896057970821857">
        <ele>49.649999999999999</ele>
        <time>2023-08-15T15:27:28Z</time>
      </trkpt>
      <trkpt lat="51.150337038561702" lon="0.892317965626717">
        <ele>53.490000000000002</ele>
        <time>2023-08-15T15:27:39Z</time>
      </trkpt>
      <trkpt lat="51.153173977509141" lon="0.885548992082477">
        <ele>47.240000000000002</ele>
        <time>2023-08-15T15:27:58Z</time>
      </trkpt>
      <trkpt lat="51.154536958783865" lon="0.882307961583138">
        <ele>44.840000000000003</ele>
        <time>2023-08-15T15:28:08Z</time>
      </trkpt>
      <trkpt lat="51.155704976990819" lon="0.87951896712184">
        <ele>44.840000000000003</ele>
        <time>2023-08-15T15:28:18Z</time>
      </trkpt>
      <trkpt lat="51.157035017386079" lon="0.876293024048209">
        <ele>43.880000000000003</ele>
        <time>2023-08-15T15:28:30Z</time>
      </trkpt>
      <trkpt lat="51.158910971134901" lon="0.871822033077478">
        <ele>50.130000000000003</ele>
        <time>2023-08-15T15:28:47Z</time>
      </trkpt>
      <trkpt lat="51.159673975780606" lon="0.87008798494935">
        <ele>56.369999999999997</ele>
        <time>2023-08-15T15:28:55Z</time>
      </trkpt>
      <trkpt lat="51.16060302592814" lon="0.868054032325745">
        <ele>60.700000000000003</ele>
        <time>2023-08-15T15:29:06Z</time>
      </trkpt>
      <trkpt lat="51.161843966692686" lon="0.86565999314189">
        <ele>64.549999999999997</ele>
        <time>2023-08-15T15:29:16Z</time>
      </trkpt>
      <trkpt lat="51.163597963750362" lon="0.862690033391118">
        <ele>65.989999999999995</ele>
        <time>2023-08-15T15:29:29Z</time>
      </trkpt>
      <trkpt lat="51.166208004578948" lon="0.858751963824034">
        <ele>65.989999999999995</ele>
        <time>2023-08-15T15:29:47Z</time>
      </trkpt>
      <trkpt lat="51.168023021891713" lon="0.855905972421169">
        <ele>64.549999999999997</ele>
        <time>2023-08-15T15:30:00Z</time>
      </trkpt>
      <trkpt lat="51.169719016179442" lon="0.853081019595265">
        <ele>65.510000000000005</ele>
        <time>2023-08-15T15:30:14Z</time>
      </trkpt>
      <trkpt lat="51.171051990240812" lon="0.850894013419747">
        <ele>64.549999999999997</ele>
        <time>2023-08-15T15:30:24Z</time>
      </trkpt>
      <trkpt lat="51.17317596450448" lon="0.847594980150461">
        <ele>64.549999999999997</ele>
        <time>2023-08-15T15:30:39Z</time>
      </trkpt>
      <trkpt lat="51.175432959571481" lon="0.844523012638092">
        <ele>65.989999999999995</ele>
        <time>2023-08-15T15:30:54Z</time>
      </trkpt>
      <trkpt lat="51.177627006545663" lon="0.841856980696321">
        <ele>71.269999999999996</ele>
        <time>2023-08-15T15:31:08Z</time>
      </trkpt>
      <trkpt lat="51.179568003863096" lon="0.839740969240665">
        <ele>74.640000000000001</ele>
        <time>2023-08-15T15:31:20Z</time>
      </trkpt>
      <trkpt lat="51.18172399699688" lon="0.83753602579236">
        <ele>77.519999999999996</ele>
        <time>2023-08-15T15:31:33Z</time>
      </trkpt>
      <trkpt lat="51.183799020946026" lon="0.835426971316338">
        <ele>78.969999999999999</ele>
        <time>2023-08-15T15:31:46Z</time>
      </trkpt>
      <trkpt lat="51.185403987765312" lon="0.833066962659359">
        <ele>80.409999999999997</ele>
        <time>2023-08-15T15:31:57Z</time>
      </trkpt>
      <trkpt lat="51.186851039528847" lon="0.829911008477211">
        <ele>79.930000000000007</ele>
        <time>2023-08-15T15:32:09Z</time>
      </trkpt>
      <trkpt lat="51.187787968665361" lon="0.826608035713434">
        <ele>79.930000000000007</ele>
        <time>2023-08-15T15:32:20Z</time>
      </trkpt>
      <trkpt lat="51.188271017745137" lon="0.823390977457166">
        <ele>80.890000000000001</ele>
        <time>2023-08-15T15:32:30Z</time>
      </trkpt>
      <trkpt lat="51.188463969156146" lon="0.820149024948478">
        <ele>79.930000000000007</ele>
        <time>2023-08-15T15:32:40Z</time>
      </trkpt>
      <trkpt lat="51.18853697553277" lon="0.816909000277519">
        <ele>82.810000000000002</ele>
        <time>2023-08-15T15:32:50Z</time>
      </trkpt>
      <trkpt lat="51.18868600577116" lon="0.812518978491426">
        <ele>81.849999999999994</ele>
        <time>2023-08-15T15:33:04Z</time>
      </trkpt>
      <trkpt lat="51.188922040164471" lon="0.807579020038247">
        <ele>80.409999999999997</ele>
        <time>2023-08-15T15:33:20Z</time>
      </trkpt>
      <trkpt lat="51.189224040135741" lon="0.803536009043455">
        <ele>79.930000000000007</ele>
        <time>2023-08-15T15:33:33Z</time>
      </trkpt>
      <trkpt lat="51.189529979601502" lon="0.799830034375191">
        <ele>79.930000000000007</ele>
        <time>2023-08-15T15:33:45Z</time>
      </trkpt>
      <trkpt lat="51.189956031739712" lon="0.796073013916612">
        <ele>82.810000000000002</ele>
        <time>2023-08-15T15:33:57Z</time>
      </trkpt>
      <trkpt lat="51.190736973658204" lon="0.792217003181577">
        <ele>82.329999999999998</ele>
        <time>2023-08-15T15:34:10Z</time>
      </trkpt>
      <trkpt lat="51.191669041290879" lon="0.788991982117295">
        <ele>85.209999999999994</ele>
        <time>2023-08-15T15:34:21Z</time>
      </trkpt>
      <trkpt lat="51.193011989817023" lon="0.785142006352544">
        <ele>90.019999999999996</ele>
        <time>2023-08-15T15:34:35Z</time>
      </trkpt>
      <trkpt lat="51.194457029923797" lon="0.780530031770468">
        <ele>95.310000000000002</ele>
        <time>2023-08-15T15:34:52Z</time>
      </trkpt>
      <trkpt lat="51.19523897767067" lon="0.777628971263766">
        <ele>95.790000000000006</ele>
        <time>2023-08-15T15:35:02Z</time>
      </trkpt>
      <trkpt lat="51.196470027789474" lon="0.773248001933098">
        <ele>92.420000000000002</ele>
        <time>2023-08-15T15:35:17Z</time>
      </trkpt>
      <trkpt lat="51.197857987135649" lon="0.769172972068191">
        <ele>87.620000000000005</ele>
        <time>2023-08-15T15:35:32Z</time>
      </trkpt>
      <trkpt lat="51.199190961197019" lon="0.765831023454666">
        <ele>83.290000000000006</ele>
        <time>2023-08-15T15:35:45Z</time>
      </trkpt>
      <trkpt lat="51.200636001303792" lon="0.762679008767009">
        <ele>83.769999999999996</ele>
        <time>2023-08-15T15:35:58Z</time>
      </trkpt>
      <trkpt lat="51.202241973951459" lon="0.759316021576524">
        <ele>84.730000000000004</ele>
        <time>2023-08-15T15:36:12Z</time>
      </trkpt>
      <trkpt lat="51.203194996342063" lon="0.757051985710859">
        <ele>84.730000000000004</ele>
        <time>2023-08-15T15:36:21Z</time>
      </trkpt>
      <trkpt lat="51.204367959871888" lon="0.75391598045826">
        <ele>86.659999999999997</ele>
        <time>2023-08-15T15:36:33Z</time>
      </trkpt>
      <trkpt lat="51.205649971961975" lon="0.750570008531213">
        <ele>89.540000000000006</ele>
        <time>2023-08-15T15:36:46Z</time>
      </trkpt>
      <trkpt lat="51.206658985465765" lon="0.748192984610796">
        <ele>91.459999999999994</ele>
        <time>2023-08-15T15:36:55Z</time>
      </trkpt>
      <trkpt lat="51.20776497758925" lon="0.745829958468676">
        <ele>93.390000000000001</ele>
        <time>2023-08-15T15:37:05Z</time>
      </trkpt>
      <trkpt lat="51.209529032930732" lon="0.741936983540654">
        <ele>91.939999999999998</ele>
        <time>2023-08-15T15:37:21Z</time>
      </trkpt>
      <trkpt lat="51.211142968386412" lon="0.738004026934505">
        <ele>91.939999999999998</ele>
        <time>2023-08-15T15:37:37Z</time>
      </trkpt>
      <trkpt lat="51.212559007108212" lon="0.734120020642877">
        <ele>96.269999999999996</ele>
        <time>2023-08-15T15:37:53Z</time>
      </trkpt>
      <trkpt lat="51.21332997456193" lon="0.731866965070367">
        <ele>98.189999999999998</ele>
        <time>2023-08-15T15:38:02Z</time>
      </trkpt>
      <trkpt lat="51.213409015908837" lon="0.731616010889411">
        <ele>98.189999999999998</ele>
        <time>2023-08-15T15:38:03Z</time>
      </trkpt>
      <trkpt lat="51.214371006935835" lon="0.7285410258919">
        <ele>102.04000000000001</ele>
        <time>2023-08-15T15:38:15Z</time>
      </trkpt>
      <trkpt lat="51.215659976005554" lon="0.725363027304411">
        <ele>108.29000000000001</ele>
        <time>2023-08-15T15:38:28Z</time>
      </trkpt>
      <trkpt lat="51.217207023873925" lon="0.722692972049117">
        <ele>106.84</ele>
        <time>2023-08-15T15:38:40Z</time>
      </trkpt>
      <trkpt lat="51.219054982066154" lon="0.720300022512674">
        <ele>103</ele>
        <time>2023-08-15T15:38:52Z</time>
      </trkpt>
      <trkpt lat="51.220587026327848" lon="0.717960968613625">
        <ele>98.189999999999998</ele>
        <time>2023-08-15T15:39:03Z</time>
      </trkpt>
      <trkpt lat="51.222023013979197" lon="0.714780958369374">
        <ele>100.59999999999999</ele>
        <time>2023-08-15T15:39:16Z</time>
      </trkpt>
      <trkpt lat="51.222964972257614" lon="0.711759030818939">
        <ele>104.92</ele>
        <time>2023-08-15T15:39:28Z</time>
      </trkpt>
      <trkpt lat="51.223581964150071" lon="0.708718998357654">
        <ele>109.25</ele>
        <time>2023-08-15T15:39:39Z</time>
      </trkpt>
      <trkpt lat="51.223884969949722" lon="0.705733029171824">
        <ele>115.01000000000001</ele>
        <time>2023-08-15T15:39:50Z</time>
      </trkpt>
      <trkpt lat="51.223926041275263" lon="0.705182002857327">
        <ele>115.98</ele>
        <time>2023-08-15T15:39:52Z</time>
      </trkpt>
      <trkpt lat="51.22394397854805" lon="0.704892994835973">
        <ele>116.45999999999999</ele>
        <time>2023-08-15T15:39:53Z</time>
      </trkpt>
      <trkpt lat="51.223961999639869" lon="0.704603986814618">
        <ele>116.94</ele>
        <time>2023-08-15T15:39:54Z</time>
      </trkpt>
      <trkpt lat="51.224314039573073" lon="0.700595006346703">
        <ele>119.81999999999999</ele>
        <time>2023-08-15T15:40:07Z</time>
      </trkpt>
      <trkpt lat="51.225044019520283" lon="0.697009982541204">
        <ele>118.38</ele>
        <time>2023-08-15T15:40:18Z</time>
      </trkpt>
      <trkpt lat="51.225940966978669" lon="0.6941850297153">
        <ele>117.42</ele>
        <time>2023-08-15T15:40:28Z</time>
      </trkpt>
      <trkpt lat="51.2271239887923" lon="0.691528972238302">
        <ele>116.45999999999999</ele>
        <time>2023-08-15T15:40:38Z</time>
      </trkpt>
      <trkpt lat="51.228537010028958" lon="0.689200982451439">
        <ele>109.73</ele>
        <time>2023-08-15T15:40:49Z</time>
      </trkpt>
      <trkpt lat="51.230386979877949" lon="0.686926972121">
        <ele>104.92</ele>
        <time>2023-08-15T15:41:01Z</time>
      </trkpt>
      <trkpt lat="51.23234499245882" lon="0.684609962627292">
        <ele>99.629999999999995</ele>
        <time>2023-08-15T15:41:13Z</time>
      </trkpt>
      <trkpt lat="51.234361007809639" lon="0.681500025093555">
        <ele>96.75</ele>
        <time>2023-08-15T15:41:27Z</time>
      </trkpt>
      <trkpt lat="51.235744021832943" lon="0.679055023938417">
        <ele>95.310000000000002</ele>
        <time>2023-08-15T15:41:38Z</time>
      </trkpt>
      <trkpt lat="51.237130975350738" lon="0.67643903195858">
        <ele>92.900000000000006</ele>
        <time>2023-08-15T15:41:50Z</time>
      </trkpt>
      <trkpt lat="51.238304022699594" lon="0.674004005268216">
        <ele>91.939999999999998</ele>
        <time>2023-08-15T15:42:01Z</time>
      </trkpt>
      <trkpt lat="51.239514034241438" lon="0.671226996928453">
        <ele>89.540000000000006</ele>
        <time>2023-08-15T15:42:12Z</time>
      </trkpt>
      <trkpt lat="51.240703007206321" lon="0.668154023587704">
        <ele>86.180000000000007</ele>
        <time>2023-08-15T15:42:24Z</time>
      </trkpt>
      <trkpt lat="51.241804976016283" lon="0.664943000301719">
        <ele>83.290000000000006</ele>
        <time>2023-08-15T15:42:36Z</time>
      </trkpt>
      <trkpt lat="51.242599999532104" lon="0.662170015275478">
        <ele>81.370000000000005</ele>
        <time>2023-08-15T15:42:47Z</time>
      </trkpt>
      <trkpt lat="51.243461994454265" lon="0.659099975600839">
        <ele>80.890000000000001</ele>
        <time>2023-08-15T15:43:00Z</time>
      </trkpt>
      <trkpt lat="51.244381992146373" lon="0.655831033363938">
        <ele>81.370000000000005</ele>
        <time>2023-08-15T15:43:14Z</time>
      </trkpt>
      <trkpt lat="51.245311964303255" lon="0.652563013136387">
        <ele>83.769999999999996</ele>
        <time>2023-08-15T15:43:26Z</time>
      </trkpt>
      <trkpt lat="51.246474031358957" lon="0.648625027388334">
        <ele>87.140000000000001</ele>
        <time>2023-08-15T15:43:41Z</time>
      </trkpt>
      <trkpt lat="51.247760988771915" lon="0.645104041323066">
        <ele>90.019999999999996</ele>
        <time>2023-08-15T15:43:55Z</time>
      </trkpt>
      <trkpt lat="51.248957002535462" lon="0.642401967197657">
        <ele>91.939999999999998</ele>
        <time>2023-08-15T15:44:06Z</time>
      </trkpt>
      <trkpt lat="51.250266004353762" lon="0.639953026548028">
        <ele>93.390000000000001</ele>
        <time>2023-08-15T15:44:17Z</time>
      </trkpt>
      <trkpt lat="51.251825960353017" lon="0.637517999857664">
        <ele>93.870000000000005</ele>
        <time>2023-08-15T15:44:29Z</time>
      </trkpt>
      <trkpt lat="51.253415001556277" lon="0.635378016158938">
        <ele>89.540000000000006</ele>
        <time>2023-08-15T15:44:41Z</time>
      </trkpt>
      <trkpt lat="51.254984010010958" lon="0.63316997140646">
        <ele>81.849999999999994</ele>
        <time>2023-08-15T15:44:52Z</time>
      </trkpt>
      <trkpt lat="51.256284965202212" lon="0.630822032690048">
        <ele>73.680000000000007</ele>
        <time>2023-08-15T15:45:03Z</time>
      </trkpt>
      <trkpt lat="51.25731099396944" lon="0.628621028736234">
        <ele>67.909999999999997</ele>
        <time>2023-08-15T15:45:12Z</time>
      </trkpt>
      <trkpt lat="51.258422015234828" lon="0.6255420204252">
        <ele>62.140000000000001</ele>
        <time>2023-08-15T15:45:24Z</time>
      </trkpt>
      <trkpt lat="51.259260959923267" lon="0.622899038717151">
        <ele>58.780000000000001</ele>
        <time>2023-08-15T15:45:35Z</time>
      </trkpt>
      <trkpt lat="51.260070987045765" lon="0.620602983981371">
        <ele>58.299999999999997</ele>
        <time>2023-08-15T15:45:43Z</time>
      </trkpt>
      <trkpt lat="51.261404966935515" lon="0.617710975930095">
        <ele>59.259999999999998</ele>
        <time>2023-08-15T15:45:52Z</time>
      </trkpt>
      <trkpt lat="51.263026027008891" lon="0.614938996732235">
        <ele>60.219999999999999</ele>
        <time>2023-08-15T15:46:01Z</time>
      </trkpt>
      <trkpt lat="51.26472101546824" lon="0.61250296421349">
        <ele>57.82</ele>
        <time>2023-08-15T15:46:10Z</time>
      </trkpt>
      <trkpt lat="51.267357040196657" lon="0.608428018167615">
        <ele>61.659999999999997</ele>
        <time>2023-08-15T15:46:24Z</time>
      </trkpt>
      <trkpt lat="51.2697499897331" lon="0.604404034093022">
        <ele>71.760000000000005</ele>
        <time>2023-08-15T15:46:38Z</time>
      </trkpt>
      <trkpt lat="51.271902965381742" lon="0.600563026964664">
        <ele>74.159999999999997</ele>
        <time>2023-08-15T15:46:51Z</time>
      </trkpt>
      <trkpt lat="51.274448968470097" lon="0.596096981316805">
        <ele>68.390000000000001</ele>
        <time>2023-08-15T15:47:06Z</time>
      </trkpt>
      <trkpt lat="51.276089977473021" lon="0.59324998408556">
        <ele>66.469999999999999</ele>
        <time>2023-08-15T15:47:16Z</time>
      </trkpt>
      <trkpt lat="51.278255023062229" lon="0.589490029960871">
        <ele>65.510000000000005</ele>
        <time>2023-08-15T15:47:28Z</time>
      </trkpt>
      <trkpt lat="51.280228961259127" lon="0.586040960624814">
        <ele>71.269999999999996</ele>
        <time>2023-08-15T15:47:39Z</time>
      </trkpt>
      <trkpt lat="51.282337009906769" lon="0.582362981513143">
        <ele>81.849999999999994</ele>
        <time>2023-08-15T15:47:51Z</time>
      </trkpt>
      <trkpt lat="51.284226039424539" lon="0.578410997986794">
        <ele>87.140000000000001</ele>
        <time>2023-08-15T15:48:03Z</time>
      </trkpt>
      <trkpt lat="51.285727992653847" lon="0.574241001158953">
        <ele>88.099999999999994</ele>
        <time>2023-08-15T15:48:14Z</time>
      </trkpt>
      <trkpt lat="51.286969017237425" lon="0.569329960271716">
        <ele>85.689999999999998</ele>
        <time>2023-08-15T15:48:26Z</time>
      </trkpt>
      <trkpt lat="51.287759011611342" lon="0.564311966300011">
        <ele>83.290000000000006</ele>
        <time>2023-08-15T15:48:38Z</time>
      </trkpt>
      <trkpt lat="51.288121026009321" lon="0.559179978445172">
        <ele>80.890000000000001</ele>
        <time>2023-08-15T15:48:50Z</time>
      </trkpt>
      <trkpt lat="51.288088001310825" lon="0.555566037073731">
        <ele>79.930000000000007</ele>
        <time>2023-08-15T15:48:59Z</time>
      </trkpt>
      <trkpt lat="51.287782983854413" lon="0.551608018577099">
        <ele>78.969999999999999</ele>
        <time>2023-08-15T15:49:09Z</time>
      </trkpt>
      <trkpt lat="51.287865964695811" lon="0.548361036926508">
        <ele>80.890000000000001</ele>
        <time>2023-08-15T15:49:17Z</time>
      </trkpt>
      <trkpt lat="51.288464013487101" lon="0.545498030260205">
        <ele>79.930000000000007</ele>
        <time>2023-08-15T15:49:24Z</time>
      </trkpt>
      <trkpt lat="51.289582997560501" lon="0.542529998347163">
        <ele>73.200000000000003</ele>
        <time>2023-08-15T15:49:32Z</time>
      </trkpt>
      <trkpt lat="51.29043803550303" lon="0.539448978379369">
        <ele>65.030000000000001</ele>
        <time>2023-08-15T15:49:40Z</time>
      </trkpt>
      <trkpt lat="51.291489964351058" lon="0.535610988736153">
        <ele>54.93</ele>
        <time>2023-08-15T15:49:50Z</time>
      </trkpt>
      <trkpt lat="51.292768036946654" lon="0.532956020906568">
        <ele>47.719999999999999</ele>
        <time>2023-08-15T15:49:58Z</time>
      </trkpt>
      <trkpt lat="51.294975997880101" lon="0.528595000505447">
        <ele>41.469999999999999</ele>
        <time>2023-08-15T15:50:11Z</time>
      </trkpt>
      <trkpt lat="51.297204997390509" lon="0.524813001975417">
        <ele>40.990000000000002</ele>
        <time>2023-08-15T15:50:23Z</time>
      </trkpt>
      <trkpt lat="51.298276958987117" lon="0.522315027192235">
        <ele>38.109999999999999</ele>
        <time>2023-08-15T15:50:30Z</time>
      </trkpt>
      <trkpt lat="51.29886101000011" lon="0.519442968070507">
        <ele>36.670000000000002</ele>
        <time>2023-08-15T15:50:37Z</time>
      </trkpt>
      <trkpt lat="51.298932004719973" lon="0.517166024073958">
        <ele>37.630000000000003</ele>
        <time>2023-08-15T15:50:43Z</time>
      </trkpt>
      <trkpt lat="51.298694964498281" lon="0.513070039451122">
        <ele>40.030000000000001</ele>
        <time>2023-08-15T15:50:53Z</time>
      </trkpt>
      <trkpt lat="51.298376033082604" lon="0.507838977500796">
        <ele>31.859999999999999</ele>
        <time>2023-08-15T15:51:05Z</time>
      </trkpt>
      <trkpt lat="51.297847973182797" lon="0.50198296085">
        <ele>26.57</ele>
        <time>2023-08-15T15:51:19Z</time>
      </trkpt>
      <trkpt lat="51.297062002122402" lon="0.498860031366348">
        <ele>28.98</ele>
        <time>2023-08-15T15:51:27Z</time>
      </trkpt>
      <trkpt lat="51.29609003663063" lon="0.494930008426309">
        <ele>31.859999999999999</ele>
        <time>2023-08-15T15:51:37Z</time>
      </trkpt>
      <trkpt lat="51.295832041651011" lon="0.491705993190408">
        <ele>31.859999999999999</ele>
        <time>2023-08-15T15:51:45Z</time>
      </trkpt>
      <trkpt lat="51.295952992513776" lon="0.486407959833741">
        <ele>27.050000000000001</ele>
        <time>2023-08-15T15:51:58Z</time>
      </trkpt>
      <trkpt lat="51.296424977481365" lon="0.48322300426662">
        <ele>25.129999999999999</ele>
        <time>2023-08-15T15:52:06Z</time>
      </trkpt>
      <trkpt lat="51.297335000708699" lon="0.480727963149548">
        <ele>22.25</ele>
        <time>2023-08-15T15:52:13Z</time>
      </trkpt>
      <trkpt lat="51.299005011096597" lon="0.476565007120371">
        <ele>22.25</ele>
        <time>2023-08-15T15:52:25Z</time>
      </trkpt>
      <trkpt lat="51.299516977742314" lon="0.473810965195298">
        <ele>21.77</ele>
        <time>2023-08-15T15:52:32Z</time>
      </trkpt>
      <trkpt lat="51.300035985186696" lon="0.468933032825589">
        <ele>20.32</ele>
        <time>2023-08-15T15:52:44Z</time>
      </trkpt>
      <trkpt lat="51.300880964845419" lon="0.465029999613762">
        <ele>19.359999999999999</ele>
        <time>2023-08-15T15:52:54Z</time>
      </trkpt>
      <trkpt lat="51.301989974454045" lon="0.460824966430664">
        <ele>17.440000000000001</ele>
        <time>2023-08-15T15:53:05Z</time>
      </trkpt>
      <trkpt lat="51.302488027140498" lon="0.456830989569426">
        <ele>18.399999999999999</ele>
        <time>2023-08-15T15:53:15Z</time>
      </trkpt>
      <trkpt lat="51.303081968799233" lon="0.450627962127328">
        <ele>22.25</ele>
        <time>2023-08-15T15:53:30Z</time>
      </trkpt>
      <trkpt lat="51.304005989804864" lon="0.445251977071166">
        <ele>26.57</ele>
        <time>2023-08-15T15:53:43Z</time>
      </trkpt>
      <trkpt lat="51.304781986400485" lon="0.441117016598582">
        <ele>30.420000000000002</ele>
        <time>2023-08-15T15:53:53Z</time>
      </trkpt>
      <trkpt lat="51.305397972464561" lon="0.437842039391398">
        <ele>34.259999999999998</ele>
        <time>2023-08-15T15:54:01Z</time>
      </trkpt>
      <trkpt lat="51.306244963780046" lon="0.433783018961549">
        <ele>31.859999999999999</ele>
        <time>2023-08-15T15:54:11Z</time>
      </trkpt>
      <trkpt lat="51.307519013062119" lon="0.429539009928703">
        <ele>29.460000000000001</ele>
        <time>2023-08-15T15:54:22Z</time>
      </trkpt>
      <trkpt lat="51.309238979592919" lon="0.424681026488543">
        <ele>26.09</ele>
        <time>2023-08-15T15:54:35Z</time>
      </trkpt>
      <trkpt lat="51.310534989461303" lon="0.419530011713505">
        <ele>24.170000000000002</ele>
        <time>2023-08-15T15:54:48Z</time>
      </trkpt>
      <trkpt lat="51.311166984960437" lon="0.415305029600859">
        <ele>24.649999999999999</ele>
        <time>2023-08-15T15:54:58Z</time>
      </trkpt>
      <trkpt lat="51.311425985768437" lon="0.411421023309231">
        <ele>26.57</ele>
        <time>2023-08-15T15:55:07Z</time>
      </trkpt>
      <trkpt lat="51.311334036290646" lon="0.406203037127852">
        <ele>31.859999999999999</ele>
        <time>2023-08-15T15:55:19Z</time>
      </trkpt>
      <trkpt lat="51.310789966955781" lon="0.401497017592192">
        <ele>36.189999999999998</ele>
        <time>2023-08-15T15:55:30Z</time>
      </trkpt>
      <trkpt lat="51.310252016410232" lon="0.398607021197677">
        <ele>40.030000000000001</ele>
        <time>2023-08-15T15:55:37Z</time>
      </trkpt>
      <trkpt lat="51.309701995924115" lon="0.395690035074949">
        <ele>41.950000000000003</ele>
        <time>2023-08-15T15:55:44Z</time>
      </trkpt>
      <trkpt lat="51.309114005416632" lon="0.391011005267501">
        <ele>43.880000000000003</ele>
        <time>2023-08-15T15:55:55Z</time>
      </trkpt>
      <trkpt lat="51.308907978236675" lon="0.386661970987916">
        <ele>48.200000000000003</ele>
        <time>2023-08-15T15:56:05Z</time>
      </trkpt>
      <trkpt lat="51.308814017102122" lon="0.380188040435314">
        <ele>59.740000000000002</ele>
        <time>2023-08-15T15:56:20Z</time>
      </trkpt>
      <trkpt lat="51.308705974370241" lon="0.373038025572896">
        <ele>65.030000000000001</ele>
        <time>2023-08-15T15:56:37Z</time>
      </trkpt>
      <trkpt lat="51.308497013524175" lon="0.368437031283975">
        <ele>66.469999999999999</ele>
        <time>2023-08-15T15:56:48Z</time>
      </trkpt>
      <trkpt lat="51.308216974139214" lon="0.36531301215291">
        <ele>69.829999999999998</ele>
        <time>2023-08-15T15:56:56Z</time>
      </trkpt>
      <trkpt lat="51.307615991681814" lon="0.361067997291684">
        <ele>70.310000000000002</ele>
        <time>2023-08-15T15:57:09Z</time>
      </trkpt>
      <trkpt lat="51.307130008935928" lon="0.357166975736618">
        <ele>70.790000000000006</ele>
        <time>2023-08-15T15:57:20Z</time>
      </trkpt>
      <trkpt lat="51.306844018399715" lon="0.353500982746482">
        <ele>71.269999999999996</ele>
        <time>2023-08-15T15:57:30Z</time>
      </trkpt>
      <trkpt lat="51.306820968165994" lon="0.35311097279191">
        <ele>71.269999999999996</ele>
        <time>2023-08-15T15:57:31Z</time>
      </trkpt>
      <trkpt lat="51.306689037010074" lon="0.348910968750715">
        <ele>71.760000000000005</ele>
        <time>2023-08-15T15:57:41Z</time>
      </trkpt>
      <trkpt lat="51.306764977052808" lon="0.343887023627758">
        <ele>76.079999999999998</ele>
        <time>2023-08-15T15:57:53Z</time>
      </trkpt>
      <trkpt lat="51.307074017822742" lon="0.338025977835059">
        <ele>87.620000000000005</ele>
        <time>2023-08-15T15:58:07Z</time>
      </trkpt>
      <trkpt lat="51.307592019438744" lon="0.332624008879066">
        <ele>99.150000000000006</ele>
        <time>2023-08-15T15:58:20Z</time>
      </trkpt>
      <trkpt lat="51.308444961905479" lon="0.326484013348818">
        <ele>114.53</ele>
        <time>2023-08-15T15:58:35Z</time>
      </trkpt>
      <trkpt lat="51.30960401147604" lon="0.320331025868654">
        <ele>133.75999999999999</ele>
        <time>2023-08-15T15:58:50Z</time>
      </trkpt>
      <trkpt lat="51.310861967504025" lon="0.315150003880262">
        <ele>149.62</ele>
        <time>2023-08-15T15:59:03Z</time>
      </trkpt>
      <trkpt lat="51.312154959887266" lon="0.310910018160939">
        <ele>162.12</ele>
        <time>2023-08-15T15:59:14Z</time>
      </trkpt>
      <trkpt lat="51.313779959455132" lon="0.305981962010264">
        <ele>175.58000000000001</ele>
        <time>2023-08-15T15:59:27Z</time>
      </trkpt>
      <trkpt lat="51.314658969640732" lon="0.301968036219478">
        <ele>188.56</ele>
        <time>2023-08-15T15:59:37Z</time>
      </trkpt>
      <trkpt lat="51.315772002562881" lon="0.296676959842443">
        <ele>203.94</ele>
        <time>2023-08-15T15:59:50Z</time>
      </trkpt>
      <trkpt lat="51.317457016557455" lon="0.289871022105217">
        <ele>224.61000000000001</ele>
        <time>2023-08-15T16:00:07Z</time>
      </trkpt>
      <trkpt lat="51.318708015605807" lon="0.285446969792247">
        <ele>239.50999999999999</ele>
        <time>2023-08-15T16:00:18Z</time>
      </trkpt>
      <trkpt lat="51.318827038630843" lon="0.285040028393269">
        <ele>240.47</ele>
        <time>2023-08-15T16:00:19Z</time>
      </trkpt>
      <trkpt lat="51.320480033755302" lon="0.280513968318701">
        <ele>241.91</ele>
        <time>2023-08-15T16:00:31Z</time>
      </trkpt>
      <trkpt lat="51.322159012779593" lon="0.277727991342545">
        <ele>238.53999999999999</ele>
        <time>2023-08-15T16:00:40Z</time>
      </trkpt>
      <trkpt lat="51.324161030352116" lon="0.275568980723619">
        <ele>235.66</ele>
        <time>2023-08-15T16:00:49Z</time>
      </trkpt>
      <trkpt lat="51.326171010732651" lon="0.274276994168758">
        <ele>230.84999999999999</ele>
        <time>2023-08-15T16:00:57Z</time>
      </trkpt>
      <trkpt lat="51.328557003289461" lon="0.273540979251266">
        <ele>223.63999999999999</ele>
        <time>2023-08-15T16:01:06Z</time>
      </trkpt>
      <trkpt lat="51.332100033760071" lon="0.273289019241929">
        <ele>209.22</ele>
        <time>2023-08-15T16:01:19Z</time>
      </trkpt>
      <trkpt lat="51.335630994290113" lon="0.273722028359771">
        <ele>192.40000000000001</ele>
        <time>2023-08-15T16:01:32Z</time>
      </trkpt>
      <trkpt lat="51.339639974758029" lon="0.275017032399774">
        <ele>174.62</ele>
        <time>2023-08-15T16:01:47Z</time>
      </trkpt>
      <trkpt lat="51.343147968873382" lon="0.275894030928612">
        <ele>160.68000000000001</ele>
        <time>2023-08-15T16:02:00Z</time>
      </trkpt>
      <trkpt lat="51.3461500313133" lon="0.275834016501904">
        <ele>151.53999999999999</ele>
        <time>2023-08-15T16:02:11Z</time>
      </trkpt>
      <trkpt lat="51.349399024620652" lon="0.275020971894264">
        <ele>145.78</ele>
        <time>2023-08-15T16:02:23Z</time>
      </trkpt>
      <trkpt lat="51.352577023208141" lon="0.273719010874629">
        <ele>141.44999999999999</ele>
        <time>2023-08-15T16:02:35Z</time>
      </trkpt>
      <trkpt lat="51.356434039771557" lon="0.271479031071067">
        <ele>135.19999999999999</ele>
        <time>2023-08-15T16:02:50Z</time>
      </trkpt>
      <trkpt lat="51.359169976785779" lon="0.269491011276841">
        <ele>128.94999999999999</ele>
        <time>2023-08-15T16:03:01Z</time>
      </trkpt>
      <trkpt lat="51.361511964350939" lon="0.267270980402827">
        <ele>124.15000000000001</ele>
        <time>2023-08-15T16:03:11Z</time>
      </trkpt>
      <trkpt lat="51.364070037379861" lon="0.264016035944223">
        <ele>127.51000000000001</ele>
        <time>2023-08-15T16:03:23Z</time>
      </trkpt>
      <trkpt lat="51.366672031581402" lon="0.260116020217538">
        <ele>132.31999999999999</ele>
        <time>2023-08-15T16:03:36Z</time>
      </trkpt>
      <trkpt lat="51.370460987091064" lon="0.254366034641862">
        <ele>130.88</ele>
        <time>2023-08-15T16:03:55Z</time>
      </trkpt>
      <trkpt lat="51.373219974339008" lon="0.250104004517198">
        <ele>118.38</ele>
        <time>2023-08-15T16:04:09Z</time>
      </trkpt>
      <trkpt lat="51.375707974657416" lon="0.245959991589189">
        <ele>103.95999999999999</ele>
        <time>2023-08-15T16:04:22Z</time>
      </trkpt>
      <trkpt lat="51.378540974110365" lon="0.240538995712996">
        <ele>84.730000000000004</ele>
        <time>2023-08-15T16:04:38Z</time>
      </trkpt>
      <trkpt lat="51.381253022700548" lon="0.234420038759708">
        <ele>64.549999999999997</ele>
        <time>2023-08-15T16:04:55Z</time>
      </trkpt>
      <trkpt lat="51.382574010640383" lon="0.230565033853054">
        <ele>54.93</ele>
        <time>2023-08-15T16:05:05Z</time>
      </trkpt>
      <trkpt lat="51.383481016382575" lon="0.226423032581806">
        <ele>52.049999999999997</ele>
        <time>2023-08-15T16:05:15Z</time>
      </trkpt>
      <trkpt lat="51.383617976680398" lon="0.2255720179528">
        <ele>52.049999999999997</ele>
        <time>2023-08-15T16:05:17Z</time>
      </trkpt>
      <trkpt lat="51.383951995521784" lon="0.2228660043329">
        <ele>55.409999999999997</ele>
        <time>2023-08-15T16:05:24Z</time>
      </trkpt>
      <trkpt lat="51.384148970246315" lon="0.218749986961484">
        <ele>65.510000000000005</ele>
        <time>2023-08-15T16:05:36Z</time>
      </trkpt>
      <trkpt lat="51.384203033521771" lon="0.213616993278265">
        <ele>80.890000000000001</ele>
        <time>2023-08-15T16:05:50Z</time>
      </trkpt>
      <trkpt lat="51.384543003514409" lon="0.209981007501483">
        <ele>86.659999999999997</ele>
        <time>2023-08-15T16:06:00Z</time>
      </trkpt>
      <trkpt lat="51.385265020653605" lon="0.206084009259939">
        <ele>90.980000000000004</ele>
        <time>2023-08-15T16:06:10Z</time>
      </trkpt>
      <trkpt lat="51.385804982855916" lon="0.203245980665088">
        <ele>93.870000000000005</ele>
        <time>2023-08-15T16:06:18Z</time>
      </trkpt>
      <trkpt lat="51.386367995291948" lon="0.200470983982086">
        <ele>96.269999999999996</ele>
        <time>2023-08-15T16:06:27Z</time>
      </trkpt>
      <trkpt lat="51.387203000485897" lon="0.198663007467985">
        <ele>103.48</ele>
        <time>2023-08-15T16:06:34Z</time>
      </trkpt>
      <trkpt lat="51.388415023684502" lon="0.197268007323146">
        <ele>105.40000000000001</ele>
        <time>2023-08-15T16:06:41Z</time>
      </trkpt>
      <trkpt lat="51.390056032687426" lon="0.196300987154245">
        <ele>104.92</ele>
        <time>2023-08-15T16:06:49Z</time>
      </trkpt>
      <trkpt lat="51.391266966238618" lon="0.195821961387992">
        <ele>103.48</ele>
        <time>2023-08-15T16:06:55Z</time>
      </trkpt>
      <trkpt lat="51.391452960669994" lon="0.195748033002019">
        <ele>103</ele>
        <time>2023-08-15T16:06:56Z</time>
      </trkpt>
      <trkpt lat="51.392670013010502" lon="0.195998987182975">
        <ele>102.52</ele>
        <time>2023-08-15T16:07:02Z</time>
      </trkpt>
      <trkpt lat="51.393129006028175" lon="0.19622303545475">
        <ele>102.52</ele>
        <time>2023-08-15T16:07:04Z</time>
      </trkpt>
      <trkpt lat="51.393313994631171" lon="0.196315990760922">
        <ele>103</ele>
        <time>2023-08-15T16:07:05Z</time>
      </trkpt>
      <trkpt lat="51.393551034852862" lon="0.196522017940879">
        <ele>103</ele>
        <time>2023-08-15T16:07:06Z</time>
      </trkpt>
      <trkpt lat="51.393753960728645" lon="0.196698037907481">
        <ele>102.52</ele>
        <time>2023-08-15T16:07:07Z</time>
      </trkpt>
      <trkpt lat="51.393966022878885" lon="0.196882020682096">
        <ele>102.04000000000001</ele>
        <time>2023-08-15T16:07:08Z</time>
      </trkpt>
      <trkpt lat="51.395387006923556" lon="0.198825029656291">
        <ele>97.709999999999994</ele>
        <time>2023-08-15T16:07:16Z</time>
      </trkpt>
      <trkpt lat="51.397407967597246" lon="0.202060025185347">
        <ele>82.810000000000002</ele>
        <time>2023-08-15T16:07:28Z</time>
      </trkpt>
      <trkpt lat="51.399016035720706" lon="0.204382985830307">
        <ele>76.079999999999998</ele>
        <time>2023-08-15T16:07:38Z</time>
      </trkpt>
      <trkpt lat="51.400589989498258" lon="0.206338986754417">
        <ele>75.120000000000005</ele>
        <time>2023-08-15T16:07:48Z</time>
      </trkpt>
      <trkpt lat="51.402622014284134" lon="0.208456004038453">
        <ele>81.849999999999994</ele>
        <time>2023-08-15T16:08:00Z</time>
      </trkpt>
      <trkpt lat="51.405219985172153" lon="0.210700007155538">
        <ele>75.120000000000005</ele>
        <time>2023-08-15T16:08:15Z</time>
      </trkpt>
      <trkpt lat="51.406604005023837" lon="0.211926028132439">
        <ele>68.390000000000001</ele>
        <time>2023-08-15T16:08:24Z</time>
      </trkpt>
      <trkpt lat="51.407934967428446" lon="0.21324198693037">
        <ele>63.579999999999998</ele>
        <time>2023-08-15T16:08:33Z</time>
      </trkpt>
      <trkpt lat="51.40996397472918" lon="0.215439973399043">
        <ele>51.090000000000003</ele>
        <time>2023-08-15T16:08:47Z</time>
      </trkpt>
      <trkpt lat="51.41142301261425" lon="0.217191036790609">
        <ele>42.920000000000002</ele>
        <time>2023-08-15T16:08:58Z</time>
      </trkpt>
      <trkpt lat="51.413079025223851" lon="0.2194519713521">
        <ele>39.07</ele>
        <time>2023-08-15T16:09:10Z</time>
      </trkpt>
      <trkpt lat="51.414287025108933" lon="0.221301019191742">
        <ele>32.340000000000003</ele>
        <time>2023-08-15T16:09:20Z</time>
      </trkpt>
      <trkpt lat="51.415172992274165" lon="0.222709011286497">
        <ele>28.5</ele>
        <time>2023-08-15T16:09:29Z</time>
      </trkpt>
      <trkpt lat="51.416312009096146" lon="0.224730977788568">
        <ele>26.09</ele>
        <time>2023-08-15T16:09:42Z</time>
      </trkpt>
      <trkpt lat="51.417529983446002" lon="0.22701496258378">
        <ele>24.170000000000002</ele>
        <time>2023-08-15T16:09:55Z</time>
      </trkpt>
      <trkpt lat="51.418775031343102" lon="0.229407995939255">
        <ele>22.73</ele>
        <time>2023-08-15T16:10:07Z</time>
      </trkpt>
      <trkpt lat="51.420363988727331" lon="0.232392037287354">
        <ele>24.649999999999999</ele>
        <time>2023-08-15T16:10:21Z</time>
      </trkpt>
      <trkpt lat="51.421526977792382" lon="0.234151985496283">
        <ele>27.050000000000001</ele>
        <time>2023-08-15T16:10:30Z</time>
      </trkpt>
      <trkpt lat="51.422437001019716" lon="0.235251020640135">
        <ele>29.460000000000001</ele>
        <time>2023-08-15T16:10:39Z</time>
      </trkpt>
      <trkpt lat="51.423849016427994" lon="0.236458014696836">
        <ele>33.780000000000001</ele>
        <time>2023-08-15T16:10:51Z</time>
      </trkpt>
      <trkpt lat="51.42478896304965" lon="0.237087998539209">
        <ele>32.82</ele>
        <time>2023-08-15T16:10:59Z</time>
      </trkpt>
      <trkpt lat="51.424940004944801" lon="0.236889012157917">
        <ele>32.340000000000003</ele>
        <time>2023-08-15T16:11:00Z</time>
      </trkpt>
      <trkpt lat="51.425085011869669" lon="0.23708900436759">
        <ele>31.859999999999999</ele>
        <time>2023-08-15T16:11:01Z</time>
      </trkpt>
      <trkpt lat="51.425170004367828" lon="0.236809970811009">
        <ele>31.379999999999999</ele>
        <time>2023-08-15T16:11:02Z</time>
      </trkpt>
      <trkpt lat="51.425286009907722" lon="0.236741993576288">
        <ele>31.379999999999999</ele>
        <time>2023-08-15T16:11:03Z</time>
      </trkpt>
      <trkpt lat="51.425372008234262" lon="0.236614001914859">
        <ele>31.379999999999999</ele>
        <time>2023-08-15T16:11:04Z</time>
      </trkpt>
      <trkpt lat="51.425454989075661" lon="0.236448040232062">
        <ele>31.379999999999999</ele>
        <time>2023-08-15T16:11:05Z</time>
      </trkpt>
      <trkpt lat="51.425542999058962" lon="0.236270008608699">
        <ele>31.379999999999999</ele>
        <time>2023-08-15T16:11:06Z</time>
      </trkpt>
      <trkpt lat="51.425585998222232" lon="0.23605702444911">
        <ele>31.379999999999999</ele>
        <time>2023-08-15T16:11:07Z</time>
      </trkpt>
      <trkpt lat="51.425594966858625" lon="0.235819984227419">
        <ele>31.379999999999999</ele>
        <time>2023-08-15T16:11:08Z</time>
      </trkpt>
      <trkpt lat="51.425605025142431" lon="0.235567018389702">
        <ele>31.379999999999999</ele>
        <time>2023-08-15T16:11:09Z</time>
      </trkpt>
      <trkpt lat="51.425628997385502" lon="0.234440993517637">
        <ele>27.050000000000001</ele>
        <time>2023-08-15T16:11:19Z</time>
      </trkpt>
      <trkpt lat="51.425735028460622" lon="0.228508030995727">
        <ele>26.57</ele>
        <time>2023-08-15T16:11:30Z</time>
      </trkpt>
      <trkpt lat="51.426065023988485" lon="0.223873006179929">
        <ele>29.940000000000001</ele>
        <time>2023-08-15T16:11:42Z</time>
      </trkpt>
      <trkpt lat="51.426786035299301" lon="0.218944028019905">
        <ele>35.229999999999997</ele>
        <time>2023-08-15T16:11:54Z</time>
      </trkpt>
      <trkpt lat="51.42775003798306" lon="0.214618965983391">
        <ele>37.149999999999999</ele>
        <time>2023-08-15T16:12:05Z</time>
      </trkpt>
      <trkpt lat="51.428274996578693" lon="0.212469007819891">
        <ele>35.229999999999997</ele>
        <time>2023-08-15T16:12:12Z</time>
      </trkpt>
      <trkpt lat="51.429104972630739" lon="0.209056986495852">
        <ele>34.740000000000002</ele>
        <time>2023-08-15T16:12:22Z</time>
      </trkpt>
      <trkpt lat="51.430133013054729" lon="0.204814989119768">
        <ele>34.259999999999998</ele>
        <time>2023-08-15T16:12:33Z</time>
      </trkpt>
      <trkpt lat="51.431227019056678" lon="0.200335029512644">
        <ele>36.670000000000002</ele>
        <time>2023-08-15T16:12:45Z</time>
      </trkpt>
      <trkpt lat="51.431908970698714" lon="0.197543017566204">
        <ele>39.07</ele>
        <time>2023-08-15T16:12:53Z</time>
      </trkpt>
      <trkpt lat="51.432494027540088" lon="0.194570040330291">
        <ele>39.549999999999997</ele>
        <time>2023-08-15T16:13:01Z</time>
      </trkpt>
      <trkpt lat="51.433023009449244" lon="0.190217988565564">
        <ele>42.920000000000002</ele>
        <time>2023-08-15T16:13:13Z</time>
      </trkpt>
      <trkpt lat="51.433667996898293" lon="0.185752026736736">
        <ele>44.840000000000003</ele>
        <time>2023-08-15T16:13:26Z</time>
      </trkpt>
      <trkpt lat="51.434655971825123" lon="0.18204303458333">
        <ele>46.280000000000001</ele>
        <time>2023-08-15T16:13:37Z</time>
      </trkpt>
      <trkpt lat="51.435985006392002" lon="0.178504027426243">
        <ele>49.159999999999997</ele>
        <time>2023-08-15T16:13:48Z</time>
      </trkpt>
      <trkpt lat="51.437323009595275" lon="0.175957018509507">
        <ele>50.130000000000003</ele>
        <time>2023-08-15T16:13:57Z</time>
      </trkpt>
      <trkpt lat="51.439166022464633" lon="0.17325896769762">
        <ele>47.719999999999999</ele>
        <time>2023-08-15T16:14:07Z</time>
      </trkpt>
      <trkpt lat="51.440907027572393" lon="0.171124013140798">
        <ele>42.439999999999998</ele>
        <time>2023-08-15T16:14:17Z</time>
      </trkpt>
      <trkpt lat="51.44223203882575" lon="0.16893700696528">
        <ele>36.670000000000002</ele>
        <time>2023-08-15T16:14:26Z</time>
      </trkpt>
      <trkpt lat="51.443106019869447" lon="0.166728962212801">
        <ele>32.82</ele>
        <time>2023-08-15T16:14:35Z</time>
      </trkpt>
      <trkpt lat="51.443924009799957" lon="0.163689013570547">
        <ele>28.98</ele>
        <time>2023-08-15T16:14:47Z</time>
      </trkpt>
      <trkpt lat="51.444333968684077" lon="0.16210600733757">
        <ele>24.649999999999999</ele>
        <time>2023-08-15T16:15:01Z</time>
      </trkpt>
      <trkpt lat="51.445266958326101" lon="0.158919040113688">
        <ele>21.289999999999999</ele>
        <time>2023-08-15T16:15:08Z</time>
      </trkpt>
      <trkpt lat="51.446030968800187" lon="0.157279036939144">
        <ele>18.879999999999999</ele>
        <time>2023-08-15T16:15:18Z</time>
      </trkpt>
      <trkpt lat="51.446534972637892" lon="0.156291984021664">
        <ele>19.359999999999999</ele>
        <time>2023-08-15T16:15:25Z</time>
      </trkpt>
      <trkpt lat="51.446704035624862" lon="0.155926030129194">
        <ele>20.809999999999999</ele>
        <time>2023-08-15T16:15:29Z</time>
      </trkpt>
      <trkpt lat="51.447261013090611" lon="0.15471400693059">
        <ele>21.77</ele>
        <time>2023-08-15T16:15:38Z</time>
      </trkpt>
      <trkpt lat="51.447822013869882" lon="0.152893038466573">
        <ele>22.25</ele>
        <time>2023-08-15T16:15:47Z</time>
      </trkpt>
      <trkpt lat="51.448225015774369" lon="0.150609975680709">
        <ele>23.210000000000001</ele>
        <time>2023-08-15T16:15:57Z</time>
      </trkpt>
      <trkpt lat="51.448330963030457" lon="0.14781704172492">
        <ele>24.170000000000002</ele>
        <time>2023-08-15T16:16:08Z</time>
      </trkpt>
      <trkpt lat="51.448252005502582" lon="0.145547976717353">
        <ele>27.530000000000001</ele>
        <time>2023-08-15T16:16:16Z</time>
      </trkpt>
      <trkpt lat="51.448262985795736" lon="0.142543986439705">
        <ele>34.259999999999998</ele>
        <time>2023-08-15T16:16:26Z</time>
      </trkpt>
      <trkpt lat="51.448415033519268" lon="0.138955023139715">
        <ele>41.950000000000003</ele>
        <time>2023-08-15T16:16:38Z</time>
      </trkpt>
      <trkpt lat="51.448301961645484" lon="0.135731007903814">
        <ele>44.840000000000003</ele>
        <time>2023-08-15T16:16:49Z</time>
      </trkpt>
      <trkpt lat="51.448191991075873" lon="0.132083036005497">
        <ele>42.920000000000002</ele>
        <time>2023-08-15T16:17:02Z</time>
      </trkpt>
      <trkpt lat="51.44833599217236" lon="0.129166971892118">
        <ele>39.549999999999997</ele>
        <time>2023-08-15T16:17:12Z</time>
      </trkpt>
      <trkpt lat="51.448666993528605" lon="0.125818988308311">
        <ele>40.509999999999998</ele>
        <time>2023-08-15T16:17:24Z</time>
      </trkpt>
      <trkpt lat="51.44893404096365" lon="0.123136024922132">
        <ele>45.32</ele>
        <time>2023-08-15T16:17:35Z</time>
      </trkpt>
      <trkpt lat="51.44921500235796" lon="0.120604019612074">
        <ele>46.759999999999998</ele>
        <time>2023-08-15T16:17:46Z</time>
      </trkpt>
      <trkpt lat="51.449443995952606" lon="0.119043979793787">
        <ele>47.719999999999999</ele>
        <time>2023-08-15T16:17:57Z</time>
      </trkpt>
      <trkpt lat="51.449952023103833" lon="0.116791008040309">
        <ele>48.68</ele>
        <time>2023-08-15T16:18:05Z</time>
      </trkpt>
      <trkpt lat="51.450904961675406" lon="0.111335981637239">
        <ele>51.090000000000003</ele>
        <time>2023-08-15T16:18:15Z</time>
      </trkpt>
      <trkpt lat="51.451151976361871" lon="0.108046000823379">
        <ele>52.530000000000001</ele>
        <time>2023-08-15T16:18:25Z</time>
      </trkpt>
      <trkpt lat="51.451691016554832" lon="0.105030024424195">
        <ele>55.890000000000001</ele>
        <time>2023-08-15T16:18:35Z</time>
      </trkpt>
      <trkpt lat="51.452736994251609" lon="0.100696999579668">
        <ele>55.890000000000001</ele>
        <time>2023-08-15T16:18:50Z</time>
      </trkpt>
      <trkpt lat="51.453811973333359" lon="0.096330028027296">
        <ele>54.93</ele>
        <time>2023-08-15T16:19:05Z</time>
      </trkpt>
      <trkpt lat="51.454497026279569" lon="0.093483030796051">
        <ele>58.299999999999997</ele>
        <time>2023-08-15T16:19:16Z</time>
      </trkpt>
      <trkpt lat="51.455270005390048" lon="0.090377032756805">
        <ele>64.549999999999997</ele>
        <time>2023-08-15T16:19:28Z</time>
      </trkpt>
      <trkpt lat="51.455867970362306" lon="0.087898001074791">
        <ele>70.790000000000006</ele>
        <time>2023-08-15T16:19:37Z</time>
      </trkpt>
      <trkpt lat="51.456759972497821" lon="0.084325969219208">
        <ele>77.519999999999996</ele>
        <time>2023-08-15T16:19:50Z</time>
      </trkpt>
      <trkpt lat="51.457436978816986" lon="0.081525994464755">
        <ele>78.969999999999999</ele>
        <time>2023-08-15T16:20:00Z</time>
      </trkpt>
      <trkpt lat="51.45813100039959" lon="0.078554023057222">
        <ele>78.480000000000004</ele>
        <time>2023-08-15T16:20:10Z</time>
      </trkpt>
      <trkpt lat="51.458351025357842" lon="0.076298033818603">
        <ele>78.969999999999999</ele>
        <time>2023-08-15T16:20:17Z</time>
      </trkpt>
      <trkpt lat="51.458169976249337" lon="0.073370989412069">
        <ele>79.450000000000003</ele>
        <time>2023-08-15T16:20:26Z</time>
      </trkpt>
      <trkpt lat="51.458115996792912" lon="0.073020039126277">
        <ele>79.450000000000003</ele>
        <time>2023-08-15T16:20:27Z</time>
      </trkpt>
      <trkpt lat="51.458075009286404" lon="0.072732036933303">
        <ele>79.450000000000003</ele>
        <time>2023-08-15T16:20:28Z</time>
      </trkpt>
      <trkpt lat="51.457404959946871" lon="0.067997016012669">
        <ele>76.079999999999998</ele>
        <time>2023-08-15T16:20:43Z</time>
      </trkpt>
      <trkpt lat="51.456812024116516" lon="0.064348038285971">
        <ele>70.310000000000002</ele>
        <time>2023-08-15T16:20:55Z</time>
      </trkpt>
      <trkpt lat="51.456224033609033" lon="0.060427989810705">
        <ele>62.619999999999997</ele>
        <time>2023-08-15T16:21:08Z</time>
      </trkpt>
      <trkpt lat="51.456142980605364" lon="0.059833964332938">
        <ele>61.659999999999997</ele>
        <time>2023-08-15T16:21:10Z</time>
      </trkpt>
      <trkpt lat="51.456105010583997" lon="0.059550991281867">
        <ele>60.700000000000003</ele>
        <time>2023-08-15T16:21:11Z</time>
      </trkpt>
      <trkpt lat="51.45576898008585" lon="0.056884959340096">
        <ele>54.450000000000003</ele>
        <time>2023-08-15T16:21:21Z</time>
      </trkpt>
      <trkpt lat="51.455417023971677" lon="0.054236026480794">
        <ele>52.530000000000001</ele>
        <time>2023-08-15T16:21:31Z</time>
      </trkpt>
      <trkpt lat="51.455284003168344" lon="0.0532600376755">
        <ele>51.57</ele>
        <time>2023-08-15T16:21:35Z</time>
      </trkpt>
      <trkpt lat="51.45525399595499" lon="0.052998019382358">
        <ele>51.090000000000003</ele>
        <time>2023-08-15T16:21:36Z</time>
      </trkpt>
      <trkpt lat="51.455013016238809" lon="0.050417985767126">
        <ele>49.649999999999999</ele>
        <time>2023-08-15T16:21:45Z</time>
      </trkpt>
      <trkpt lat="51.45501603372395" lon="0.049882968887687">
        <ele>49.649999999999999</ele>
        <time>2023-08-15T16:21:47Z</time>
      </trkpt>
      <trkpt lat="51.455261958763003" lon="0.047550033777952">
        <ele>47.240000000000002</ele>
        <time>2023-08-15T16:21:55Z</time>
      </trkpt>
      <trkpt lat="51.455882973968983" lon="0.045342994853854">
        <ele>45.799999999999997</ele>
        <time>2023-08-15T16:22:04Z</time>
      </trkpt>
      <trkpt lat="51.45669300109148" lon="0.043406020849943">
        <ele>45.32</ele>
        <time>2023-08-15T16:22:14Z</time>
      </trkpt>
      <trkpt lat="51.456834990531206" lon="0.043020034208894">
        <ele>43.880000000000003</ele>
        <time>2023-08-15T16:22:20Z</time>
      </trkpt>
      <trkpt lat="51.456860974431038" lon="0.04295096732676">
        <ele>43.880000000000003</ele>
        <time>2023-08-15T16:22:21Z</time>
      </trkpt>
      <trkpt lat="51.457044035196304" lon="0.042475964874029">
        <ele>41.950000000000003</ele>
        <time>2023-08-15T16:22:26Z</time>
      </trkpt>
      <trkpt lat="51.457106983289123" lon="0.042341016232967">
        <ele>41.469999999999999</ele>
        <time>2023-08-15T16:22:28Z</time>
      </trkpt>
      <trkpt lat="51.457129027694464" lon="0.042292987927794">
        <ele>40.990000000000002</ele>
        <time>2023-08-15T16:22:29Z</time>
      </trkpt>
      <trkpt lat="51.457129027694464" lon="0.042292987927794">
        <ele>40.509999999999998</ele>
        <time>2023-08-15T16:22:30Z</time>
      </trkpt>
      <trkpt lat="51.457175966352224" lon="0.042362976819277">
        <ele>40.030000000000001</ele>
        <time>2023-08-15T16:22:31Z</time>
      </trkpt>
      <trkpt lat="51.457235980778933" lon="0.042443023994565">
        <ele>39.549999999999997</ele>
        <time>2023-08-15T16:22:32Z</time>
      </trkpt>
      <trkpt lat="51.45729398354888" lon="0.04251996986568">
        <ele>39.07</ele>
        <time>2023-08-15T16:22:33Z</time>
      </trkpt>
      <trkpt lat="51.457978030666709" lon="0.043754037469625">
        <ele>40.509999999999998</ele>
        <time>2023-08-15T16:22:42Z</time>
      </trkpt>
      <trkpt lat="51.458879001438618" lon="0.045867031440139">
        <ele>43.880000000000003</ele>
        <time>2023-08-15T16:22:56Z</time>
      </trkpt>
      <trkpt lat="51.459495993331075" lon="0.047302013263106">
        <ele>48.200000000000003</ele>
        <time>2023-08-15T16:23:07Z</time>
      </trkpt>
      <trkpt lat="51.459691040217876" lon="0.047636032104492">
        <ele>49.159999999999997</ele>
        <time>2023-08-15T16:23:10Z</time>
      </trkpt>
      <trkpt lat="51.459759017452598" lon="0.047692023217678">
        <ele>49.649999999999999</ele>
        <time>2023-08-15T16:23:11Z</time>
      </trkpt>
      <trkpt lat="51.459814002737403" lon="0.04773803986609">
        <ele>50.130000000000003</ele>
        <time>2023-08-15T16:23:12Z</time>
      </trkpt>
      <trkpt lat="51.459854990243912" lon="0.047771986573935">
        <ele>50.130000000000003</ele>
        <time>2023-08-15T16:23:13Z</time>
      </trkpt>
      <trkpt lat="51.459886003285646" lon="0.047797970473766">
        <ele>50.609999999999999</ele>
        <time>2023-08-15T16:23:14Z</time>
      </trkpt>
      <trkpt lat="51.459906036034226" lon="0.047808028757572">
        <ele>50.609999999999999</ele>
        <time>2023-08-15T16:23:23Z</time>
      </trkpt>
      <trkpt lat="51.460123965516686" lon="0.047808028757572">
        <ele>51.57</ele>
        <time>2023-08-15T16:23:42Z</time>
      </trkpt>
      <trkpt lat="51.460154978558421" lon="0.047808028757572">
        <ele>52.049999999999997</ele>
        <time>2023-08-15T16:23:43Z</time>
      </trkpt>
      <trkpt lat="51.460180962458253" lon="0.047952029854059">
        <ele>52.049999999999997</ele>
        <time>2023-08-15T16:23:44Z</time>
      </trkpt>
      <trkpt lat="51.460203006863594" lon="0.048066023737192">
        <ele>52.530000000000001</ele>
        <time>2023-08-15T16:23:45Z</time>
      </trkpt>
      <trkpt lat="51.460231002420187" lon="0.048172976821661">
        <ele>52.530000000000001</ele>
        <time>2023-08-15T16:23:46Z</time>
      </trkpt>
      <trkpt lat="51.460254974663258" lon="0.048266015946865">
        <ele>52.530000000000001</ele>
        <time>2023-08-15T16:23:47Z</time>
      </trkpt>
      <trkpt lat="51.460461001843214" lon="0.048944028094411">
        <ele>53.009999999999998</ele>
        <time>2023-08-15T16:23:58Z</time>
      </trkpt>
      <trkpt lat="51.460511041805148" lon="0.049075037240982">
        <ele>53.009999999999998</ele>
        <time>2023-08-15T16:24:00Z</time>
      </trkpt>
      <trkpt lat="51.460578013211489" lon="0.049132034182549">
        <ele>53.009999999999998</ele>
        <time>2023-08-15T16:24:01Z</time>
      </trkpt>
      <trkpt lat="51.460921000689268" lon="0.049507962539792">
        <ele>54.450000000000003</ele>
        <time>2023-08-15T16:24:10Z</time>
      </trkpt>
      <trkpt lat="51.461018985137343" lon="0.049539981409907">
        <ele>55.409999999999997</ele>
        <time>2023-08-15T16:24:20Z</time>
      </trkpt>
      <trkpt lat="51.461018985137343" lon="0.049539981409907">
        <ele>55.409999999999997</ele>
        <time>2023-08-15T16:25:02Z</time>
      </trkpt>
      <trkpt lat="51.46120497956872" lon="0.049616005271673">
        <ele>55.409999999999997</ele>
        <time>2023-08-15T16:25:19Z</time>
      </trkpt>
      <trkpt lat="51.461632959544659" lon="0.049819014966488">
        <ele>53.009999999999998</ele>
        <time>2023-08-15T16:25:28Z</time>
      </trkpt>
      <trkpt lat="51.46228096447885" lon="0.050133001059294">
        <ele>49.649999999999999</ele>
        <time>2023-08-15T16:25:38Z</time>
      </trkpt>
      <trkpt lat="51.462337961420417" lon="0.050159990787506">
        <ele>49.649999999999999</ele>
        <time>2023-08-15T16:25:39Z</time>
      </trkpt>
      <trkpt lat="51.462380960583687" lon="0.050181029364467">
        <ele>49.159999999999997</ele>
        <time>2023-08-15T16:25:40Z</time>
      </trkpt>
      <trkpt lat="51.462414991110563" lon="0.050197960808873">
        <ele>49.159999999999997</ele>
        <time>2023-08-15T16:25:41Z</time>
      </trkpt>
      <trkpt lat="51.462440975010395" lon="0.05021003074944">
        <ele>49.159999999999997</ele>
        <time>2023-08-15T16:25:42Z</time>
      </trkpt>
      <trkpt lat="51.462466036900878" lon="0.050222016870975">
        <ele>49.159999999999997</ele>
        <time>2023-08-15T16:25:43Z</time>
      </trkpt>
      <trkpt lat="51.462486991658807" lon="0.05023199133575">
        <ele>48.68</ele>
        <time>2023-08-15T16:25:44Z</time>
      </trkpt>
      <trkpt lat="51.462486991658807" lon="0.05023199133575">
        <ele>49.159999999999997</ele>
        <time>2023-08-15T16:25:56Z</time>
      </trkpt>
      <trkpt lat="51.462486991658807" lon="0.05023199133575">
        <ele>49.159999999999997</ele>
        <time>2023-08-15T16:26:40Z</time>
      </trkpt>
      <trkpt lat="51.462507024407387" lon="0.050241965800524">
        <ele>49.159999999999997</ele>
        <time>2023-08-15T16:27:07Z</time>
      </trkpt>
      <trkpt lat="51.462817993015051" lon="0.050386972725391">
        <ele>51.090000000000003</ele>
        <time>2023-08-15T16:27:12Z</time>
      </trkpt>
      <trkpt lat="51.4640639629215" lon="0.050994995981455">
        <ele>52.049999999999997</ele>
        <time>2023-08-15T16:27:24Z</time>
      </trkpt>
      <trkpt lat="51.465141037479043" lon="0.051560020074248">
        <ele>54.450000000000003</ele>
        <time>2023-08-15T16:27:34Z</time>
      </trkpt>
      <trkpt lat="51.466349037364125" lon="0.052200984209776">
        <ele>60.219999999999999</ele>
        <time>2023-08-15T16:27:45Z</time>
      </trkpt>
      <trkpt lat="51.467422004789114" lon="0.052906991913915">
        <ele>65.510000000000005</ele>
        <time>2023-08-15T16:27:55Z</time>
      </trkpt>
      <trkpt lat="51.467744037508965" lon="0.053129028528929">
        <ele>65.989999999999995</ele>
        <time>2023-08-15T16:27:58Z</time>
      </trkpt>
      <trkpt lat="51.467855013906956" lon="0.053201029077172">
        <ele>66.469999999999999</ele>
        <time>2023-08-15T16:27:59Z</time>
      </trkpt>
      <trkpt lat="51.468880036845803" lon="0.054009966552258">
        <ele>69.349999999999994</ele>
        <time>2023-08-15T16:28:09Z</time>
      </trkpt>
      <trkpt lat="51.469381023198366" lon="0.054412968456745">
        <ele>71.269999999999996</ele>
        <time>2023-08-15T16:28:16Z</time>
      </trkpt>
      <trkpt lat="51.469814032316208" lon="0.054630981758237">
        <ele>71.269999999999996</ele>
        <time>2023-08-15T16:28:25Z</time>
      </trkpt>
      <trkpt lat="51.469870023429394" lon="0.054652020335197">
        <ele>71.269999999999996</ele>
        <time>2023-08-15T16:28:26Z</time>
      </trkpt>
      <trkpt lat="51.469925008714199" lon="0.054672975093126">
        <ele>71.269999999999996</ele>
        <time>2023-08-15T16:28:27Z</time>
      </trkpt>
      <trkpt lat="51.469982005655766" lon="0.054695019498467">
        <ele>70.790000000000006</ele>
        <time>2023-08-15T16:28:28Z</time>
      </trkpt>
      <trkpt lat="51.470036990940571" lon="0.054714968428016">
        <ele>70.790000000000006</ele>
        <time>2023-08-15T16:28:29Z</time>
      </trkpt>
      <trkpt lat="51.470192978158593" lon="0.054769031703472">
        <ele>69.829999999999998</ele>
        <time>2023-08-15T16:28:37Z</time>
      </trkpt>
      <trkpt lat="51.470220973715186" lon="0.054775988683105">
        <ele>69.349999999999994</ele>
        <time>2023-08-15T16:28:49Z</time>
      </trkpt>
      <trkpt lat="51.470220973715186" lon="0.054775988683105">
        <ele>69.349999999999994</ele>
        <time>2023-08-15T16:29:28Z</time>
      </trkpt>
      <trkpt lat="51.470579970628023" lon="0.054860981181264">
        <ele>74.640000000000001</ele>
        <time>2023-08-15T16:29:35Z</time>
      </trkpt>
      <trkpt lat="51.471389997750521" lon="0.055062985047698">
        <ele>78</ele>
        <time>2023-08-15T16:29:45Z</time>
      </trkpt>
      <trkpt lat="51.472576959058642" lon="0.055275969207287">
        <ele>78.969999999999999</ele>
        <time>2023-08-15T16:29:55Z</time>
      </trkpt>
      <trkpt lat="51.474046977236867" lon="0.055933026596904">
        <ele>75.599999999999994</ele>
        <time>2023-08-15T16:30:06Z</time>
      </trkpt>
      <trkpt lat="51.474748961627483" lon="0.056341979652643">
        <ele>71.269999999999996</ele>
        <time>2023-08-15T16:30:12Z</time>
      </trkpt>
      <trkpt lat="51.474857004359365" lon="0.056405011564493">
        <ele>70.310000000000002</ele>
        <time>2023-08-15T16:30:13Z</time>
      </trkpt>
      <trkpt lat="51.475407024845481" lon="0.056640962138772">
        <ele>66.469999999999999</ele>
        <time>2023-08-15T16:30:18Z</time>
      </trkpt>
      <trkpt lat="51.475512972101569" lon="0.056687984615564">
        <ele>65.989999999999995</ele>
        <time>2023-08-15T16:30:19Z</time>
      </trkpt>
      <trkpt lat="51.476485021412373" lon="0.057162987068295">
        <ele>61.18</ele>
        <time>2023-08-15T16:30:28Z</time>
      </trkpt>
      <trkpt lat="51.476590968668461" lon="0.057229958474636">
        <ele>60.700000000000003</ele>
        <time>2023-08-15T16:30:29Z</time>
      </trkpt>
      <trkpt lat="51.477781031280756" lon="0.058083990588784">
        <ele>55.890000000000001</ele>
        <time>2023-08-15T16:30:41Z</time>
      </trkpt>
      <trkpt lat="51.478685019537807" lon="0.059028966352344">
        <ele>54.450000000000003</ele>
        <time>2023-08-15T16:30:52Z</time>
      </trkpt>
      <trkpt lat="51.479672994464636" lon="0.059939995408058">
        <ele>55.409999999999997</ele>
        <time>2023-08-15T16:31:03Z</time>
      </trkpt>
      <trkpt lat="51.480463994666934" lon="0.060513988137245">
        <ele>55.409999999999997</ele>
        <time>2023-08-15T16:31:13Z</time>
      </trkpt>
      <trkpt lat="51.480578994378448" lon="0.060605015605688">
        <ele>55.890000000000001</ele>
        <time>2023-08-15T16:31:22Z</time>
      </trkpt>
      <trkpt lat="51.480632973834872" lon="0.060648014768958">
        <ele>56.369999999999997</ele>
        <time>2023-08-15T16:32:00Z</time>
      </trkpt>
      <trkpt lat="51.481145024299622" lon="0.061044981703162">
        <ele>58.299999999999997</ele>
        <time>2023-08-15T16:32:07Z</time>
      </trkpt>
      <trkpt lat="51.481626983731985" lon="0.061375983059406">
        <ele>58.299999999999997</ele>
        <time>2023-08-15T16:32:15Z</time>
      </trkpt>
      <trkpt lat="51.481860000640154" lon="0.061528030782938">
        <ele>58.299999999999997</ele>
        <time>2023-08-15T16:32:26Z</time>
      </trkpt>
      <trkpt lat="51.481860000640154" lon="0.061528030782938">
        <ele>58.299999999999997</ele>
        <time>2023-08-15T16:33:01Z</time>
      </trkpt>
      <trkpt lat="51.482058987021446" lon="0.06164101883769">
        <ele>58.299999999999997</ele>
        <time>2023-08-15T16:33:28Z</time>
      </trkpt>
      <trkpt lat="51.482792990282178" lon="0.062076961621642">
        <ele>57.82</ele>
        <time>2023-08-15T16:33:38Z</time>
      </trkpt>
      <trkpt lat="51.483463039621711" lon="0.062182992696762">
        <ele>56.859999999999999</ele>
        <time>2023-08-15T16:33:46Z</time>
      </trkpt>
      <trkpt lat="51.483867969363928" lon="0.062158014625311">
        <ele>55.890000000000001</ele>
        <time>2023-08-15T16:33:51Z</time>
      </trkpt>
      <trkpt lat="51.483974000439048" lon="0.062177963554859">
        <ele>55.409999999999997</ele>
        <time>2023-08-15T16:33:52Z</time>
      </trkpt>
      <trkpt lat="51.485067000612617" lon="0.06256403401494">
        <ele>49.649999999999999</ele>
        <time>2023-08-15T16:34:03Z</time>
      </trkpt>
      <trkpt lat="51.486225966364145" lon="0.063042975962162">
        <ele>43.880000000000003</ele>
        <time>2023-08-15T16:34:14Z</time>
      </trkpt>
      <trkpt lat="51.486416989937425" lon="0.063149007037282">
        <ele>42.439999999999998</ele>
        <time>2023-08-15T16:34:16Z</time>
      </trkpt>
      <trkpt lat="51.486999029293656" lon="0.06333701312542">
        <ele>37.630000000000003</ele>
        <time>2023-08-15T16:34:21Z</time>
      </trkpt>
      <trkpt lat="51.487128026783466" lon="0.063373977318406">
        <ele>36.670000000000002</ele>
        <time>2023-08-15T16:34:22Z</time>
      </trkpt>
      <trkpt lat="51.487260963767767" lon="0.063378000631928">
        <ele>35.710000000000001</ele>
        <time>2023-08-15T16:34:23Z</time>
      </trkpt>
      <trkpt lat="51.487403959035873" lon="0.063365008682013">
        <ele>34.740000000000002</ele>
        <time>2023-08-15T16:34:24Z</time>
      </trkpt>
      <trkpt lat="51.487541003152728" lon="0.063297031447291">
        <ele>33.299999999999997</ele>
        <time>2023-08-15T16:34:25Z</time>
      </trkpt>
      <trkpt lat="51.487679975107312" lon="0.063226958736777">
        <ele>32.340000000000003</ele>
        <time>2023-08-15T16:34:26Z</time>
      </trkpt>
      <trkpt lat="51.487806038931012" lon="0.063161998987198">
        <ele>31.379999999999999</ele>
        <time>2023-08-15T16:34:27Z</time>
      </trkpt>
      <trkpt lat="51.48823200725019" lon="0.062928982079029">
        <ele>28.5</ele>
        <time>2023-08-15T16:34:33Z</time>
      </trkpt>
      <trkpt lat="51.488776998594403" lon="0.062648020684719">
        <ele>26.09</ele>
        <time>2023-08-15T16:34:40Z</time>
      </trkpt>
      <trkpt lat="51.489701019600034" lon="0.06239203736186">
        <ele>23.210000000000001</ele>
        <time>2023-08-15T16:34:48Z</time>
      </trkpt>
      <trkpt lat="51.490989988669753" lon="0.061947964131832">
        <ele>22.73</ele>
        <time>2023-08-15T16:34:59Z</time>
      </trkpt>
      <trkpt lat="51.491703959181905" lon="0.061528030782938">
        <ele>20.32</ele>
        <time>2023-08-15T16:35:07Z</time>
      </trkpt>
      <trkpt lat="51.492511974647641" lon="0.060999970883131">
        <ele>18.879999999999999</ele>
        <time>2023-08-15T16:35:14Z</time>
      </trkpt>
      <trkpt lat="51.492624962702394" lon="0.060979016125202">
        <ele>18.399999999999999</ele>
        <time>2023-08-15T16:35:15Z</time>
      </trkpt>
      <trkpt lat="51.492726970463991" lon="0.060959989205003">
        <ele>17.920000000000002</ele>
        <time>2023-08-15T16:35:16Z</time>
      </trkpt>
      <trkpt lat="51.492835013195872" lon="0.060940040275455">
        <ele>16.960000000000001</ele>
        <time>2023-08-15T16:35:17Z</time>
      </trkpt>
      <trkpt lat="51.492902990430593" lon="0.060957977548242">
        <ele>16</ele>
        <time>2023-08-15T16:35:18Z</time>
      </trkpt>
      <trkpt lat="51.493186969310045" lon="0.061037018895149">
        <ele>13.6</ele>
        <time>2023-08-15T16:35:22Z</time>
      </trkpt>
      <trkpt lat="51.493351003155112" lon="0.061083035543561">
        <ele>12.15</ele>
        <time>2023-08-15T16:35:25Z</time>
      </trkpt>
      <trkpt lat="51.493402970954776" lon="0.061065014451742">
        <ele>11.67</ele>
        <time>2023-08-15T16:35:26Z</time>
      </trkpt>
      <trkpt lat="51.493460973724723" lon="0.061045987531543">
        <ele>11.19</ele>
        <time>2023-08-15T16:35:27Z</time>
      </trkpt>
      <trkpt lat="51.493530040606856" lon="0.061009023338556">
        <ele>10.710000000000001</ele>
        <time>2023-08-15T16:35:28Z</time>
      </trkpt>
      <trkpt lat="51.493586031720042" lon="0.060897041112185">
        <ele>10.710000000000001</ele>
        <time>2023-08-15T16:35:29Z</time>
      </trkpt>
      <trkpt lat="51.493630958721042" lon="0.060860998928547">
        <ele>10.23</ele>
        <time>2023-08-15T16:35:30Z</time>
      </trkpt>
      <trkpt lat="51.49366800673306" lon="0.060830991715193">
        <ele>9.75</ele>
        <time>2023-08-15T16:35:31Z</time>
      </trkpt>
      <trkpt lat="51.493713017553091" lon="0.060813976451755">
        <ele>9.27</ele>
        <time>2023-08-15T16:35:32Z</time>
      </trkpt>
      <trkpt lat="51.493749981746078" lon="0.060820011422038">
        <ele>9.27</ele>
        <time>2023-08-15T16:35:33Z</time>
      </trkpt>
      <trkpt lat="51.493780994787812" lon="0.06082596257329">
        <ele>8.789999999999999</ele>
        <time>2023-08-15T16:35:34Z</time>
      </trkpt>
      <trkpt lat="51.493807984516025" lon="0.060829985886812">
        <ele>8.789999999999999</ele>
        <time>2023-08-15T16:35:35Z</time>
      </trkpt>
      <trkpt lat="51.493821982294321" lon="0.060833003371954">
        <ele>8.310000000000001</ele>
        <time>2023-08-15T16:35:36Z</time>
      </trkpt>
      <trkpt lat="51.493846960365772" lon="0.060870973393321">
        <ele>8.310000000000001</ele>
        <time>2023-08-15T16:35:37Z</time>
      </trkpt>
      <trkpt lat="51.493859030306339" lon="0.060887988656759">
        <ele>7.35</ele>
        <time>2023-08-15T16:35:48Z</time>
      </trkpt>
      <trkpt lat="51.493897000327706" lon="0.060944985598326">
        <ele>6.39</ele>
        <time>2023-08-15T16:36:10Z</time>
      </trkpt>
      <trkpt lat="51.493900017812848" lon="0.061337007209659">
        <ele>8.310000000000001</ele>
        <time>2023-08-15T16:36:19Z</time>
      </trkpt>
      <trkpt lat="51.493900017812848" lon="0.061337007209659">
        <ele>8.310000000000001</ele>
        <time>2023-08-15T16:36:32Z</time>
      </trkpt>
      <trkpt lat="51.493871016427875" lon="0.061417976394296">
        <ele>6.87</ele>
        <time>2023-08-15T16:36:47Z</time>
      </trkpt>
      <trkpt lat="51.493746964260936" lon="0.061602964997292">
        <ele>5.91</ele>
        <time>2023-08-15T16:36:53Z</time>
      </trkpt>
      <trkpt lat="51.493672030046582" lon="0.061647975817323">
        <ele>5.42</ele>
        <time>2023-08-15T16:36:54Z</time>
      </trkpt>
      <trkpt lat="51.493627019226551" lon="0.061617968603969">
        <ele>5.42</ele>
        <time>2023-08-15T16:36:55Z</time>
      </trkpt>
      <trkpt lat="51.493567004799843" lon="0.06157798692584">
        <ele>4.94</ele>
        <time>2023-08-15T16:36:56Z</time>
      </trkpt>
      <trkpt lat="51.493499027565122" lon="0.06149098277092">
        <ele>4.46</ele>
        <time>2023-08-15T16:36:57Z</time>
      </trkpt>
      <trkpt lat="51.493478994816542" lon="0.061394004151225">
        <ele>3.98</ele>
        <time>2023-08-15T16:36:58Z</time>
      </trkpt>
      <trkpt lat="51.493462985381484" lon="0.061259977519512">
        <ele>3.5</ele>
        <time>2023-08-15T16:36:59Z</time>
      </trkpt>
      <trkpt lat="51.493486035615206" lon="0.061166016384959">
        <ele>3.02</ele>
        <time>2023-08-15T16:37:00Z</time>
      </trkpt>
      <trkpt lat="51.493511013686657" lon="0.061066020280123">
        <ele>3.02</ele>
        <time>2023-08-15T16:37:01Z</time>
      </trkpt>
      <trkpt lat="51.493546972051263" lon="0.06097499281168">
        <ele>2.54</ele>
        <time>2023-08-15T16:37:02Z</time>
      </trkpt>
      <trkpt lat="51.493601035326719" lon="0.060776006430387">
        <ele>1.58</ele>
        <time>2023-08-15T16:37:04Z</time>
      </trkpt>
      <trkpt lat="51.493614027276635" lon="0.060681961476803">
        <ele>1.1</ele>
        <time>2023-08-15T16:37:05Z</time>
      </trkpt>
      <trkpt lat="51.493628025054932" lon="0.060574002563953">
        <ele>0.62</ele>
        <time>2023-08-15T16:37:06Z</time>
      </trkpt>
      <trkpt lat="51.493643028661609" lon="0.060455985367298">
        <ele>0.62</ele>
        <time>2023-08-15T16:37:07Z</time>
      </trkpt>
      <trkpt lat="51.493649985641241" lon="0.060325982049108">
        <ele>0.14</ele>
        <time>2023-08-15T16:37:08Z</time>
      </trkpt>
      <trkpt lat="51.49364504031837" lon="0.060183992609382">
        <ele>-0.34</ele>
        <time>2023-08-15T16:37:09Z</time>
      </trkpt>
      <trkpt lat="51.493558958172798" lon="0.058692013844848">
        <ele>-3.23</ele>
        <time>2023-08-15T16:37:17Z</time>
      </trkpt>
      <trkpt lat="51.493489975109696" lon="0.058141993358731">
        <ele>-4.19</ele>
        <time>2023-08-15T16:37:20Z</time>
      </trkpt>
      <trkpt lat="51.493440018966794" lon="0.057971002534032">
        <ele>-4.19</ele>
        <time>2023-08-15T16:37:21Z</time>
      </trkpt>
      <trkpt lat="51.493375981226563" lon="0.057818032801151">
        <ele>-4.19</ele>
        <time>2023-08-15T16:37:22Z</time>
      </trkpt>
      <trkpt lat="51.493312027305365" lon="0.057662967592478">
        <ele>-3.71</ele>
        <time>2023-08-15T16:37:23Z</time>
      </trkpt>
      <trkpt lat="51.493248995393515" lon="0.057508992031217">
        <ele>-3.23</ele>
        <time>2023-08-15T16:37:24Z</time>
      </trkpt>
      <trkpt lat="51.493080016225576" lon="0.057055028155446">
        <ele>-1.79</ele>
        <time>2023-08-15T16:37:27Z</time>
      </trkpt>
      <trkpt lat="51.493039028719068" lon="0.056895017623901">
        <ele>-1.3</ele>
        <time>2023-08-15T16:37:28Z</time>
      </trkpt>
      <trkpt lat="51.493015978485346" lon="0.056712040677667">
        <ele>-0.82</ele>
        <time>2023-08-15T16:37:29Z</time>
      </trkpt>
      <trkpt lat="51.492819003760815" lon="0.055030966177583">
        <ele>4.46</ele>
        <time>2023-08-15T16:37:39Z</time>
      </trkpt>
      <trkpt lat="51.492792014032602" lon="0.053664967417717">
        <ele>4.94</ele>
        <time>2023-08-15T16:37:48Z</time>
      </trkpt>
      <trkpt lat="51.492792014032602" lon="0.053568994626403">
        <ele>4.94</ele>
        <time>2023-08-15T16:37:50Z</time>
      </trkpt>
      <trkpt lat="51.492792014032602" lon="0.053568994626403">
        <ele>5.42</ele>
        <time>2023-08-15T16:38:06Z</time>
      </trkpt>
      <trkpt lat="51.492773992940784" lon="0.053110001608729">
        <ele>5.91</ele>
        <time>2023-08-15T16:38:15Z</time>
      </trkpt>
      <trkpt lat="51.492742979899049" lon="0.052968012169003">
        <ele>5.91</ele>
        <time>2023-08-15T16:38:16Z</time>
      </trkpt>
      <trkpt lat="51.492708027362823" lon="0.052809007465839">
        <ele>5.42</ele>
        <time>2023-08-15T16:38:17Z</time>
      </trkpt>
      <trkpt lat="51.492664022371173" lon="0.052642039954662">
        <ele>5.42</ele>
        <time>2023-08-15T16:38:18Z</time>
      </trkpt>
      <trkpt lat="51.492273006588221" lon="0.051507968455553">
        <ele>5.91</ele>
        <time>2023-08-15T16:38:25Z</time>
      </trkpt>
      <trkpt lat="51.492180973291397" lon="0.050986027345061">
        <ele>6.39</ele>
        <time>2023-08-15T16:38:28Z</time>
      </trkpt>
      <trkpt lat="51.492134034633636" lon="0.050629964098334">
        <ele>5.91</ele>
        <time>2023-08-15T16:38:30Z</time>
      </trkpt>
      <trkpt lat="51.492133028805256" lon="0.050429971888661">
        <ele>5.91</ele>
        <time>2023-08-15T16:38:31Z</time>
      </trkpt>
      <trkpt lat="51.492140991613269" lon="0.050245989114046">
        <ele>5.91</ele>
        <time>2023-08-15T16:38:32Z</time>
      </trkpt>
      <trkpt lat="51.492305025458336" lon="0.048294011503458">
        <ele>-1.3</ele>
        <time>2023-08-15T16:38:43Z</time>
      </trkpt>
      <trkpt lat="51.492383982986212" lon="0.047378959134221">
        <ele>-5.15</ele>
        <time>2023-08-15T16:38:49Z</time>
      </trkpt>
      <trkpt lat="51.492431005463004" lon="0.046937987208366">
        <ele>-6.11</ele>
        <time>2023-08-15T16:38:52Z</time>
      </trkpt>
      <trkpt lat="51.492522032931447" lon="0.046268021687865">
        <ele>-6.11</ele>
        <time>2023-08-15T16:38:56Z</time>
      </trkpt>
      <trkpt lat="51.492538964375854" lon="0.046143969520926">
        <ele>-6.11</ele>
        <time>2023-08-15T16:38:57Z</time>
      </trkpt>
      <trkpt lat="51.492567965760827" lon="0.045939031988382">
        <ele>-7.07</ele>
        <time>2023-08-15T16:39:02Z</time>
      </trkpt>
      <trkpt lat="51.492579029873013" lon="0.045863008126616">
        <ele>-7.07</ele>
        <time>2023-08-15T16:39:03Z</time>
      </trkpt>
      <trkpt lat="51.492580035701394" lon="0.045668967068195">
        <ele>-7.07</ele>
        <time>2023-08-15T16:39:04Z</time>
      </trkpt>
      <trkpt lat="51.492552040144801" lon="0.045571988448501">
        <ele>-7.07</ele>
        <time>2023-08-15T16:39:05Z</time>
      </trkpt>
      <trkpt lat="51.492284992709756" lon="0.044767996296287">
        <ele>-7.07</ele>
        <time>2023-08-15T16:39:12Z</time>
      </trkpt>
      <trkpt lat="51.492071002721786" lon="0.044176988303661">
        <ele>-5.15</ele>
        <time>2023-08-15T16:39:23Z</time>
      </trkpt>
      <trkpt lat="51.492005037143826" lon="0.043996023014188">
        <ele>-4.19</ele>
        <time>2023-08-15T16:39:27Z</time>
      </trkpt>
      <trkpt lat="51.491981986910105" lon="0.043935002759099">
        <ele>-4.19</ele>
        <time>2023-08-15T16:39:28Z</time>
      </trkpt>
      <trkpt lat="51.491626007482409" lon="0.042877038940787">
        <ele>-2.27</ele>
        <time>2023-08-15T16:39:40Z</time>
      </trkpt>
      <trkpt lat="51.491502039134502" lon="0.042392984032631">
        <ele>-1.79</ele>
        <time>2023-08-15T16:39:45Z</time>
      </trkpt>
      <trkpt lat="51.491257036104798" lon="0.041699968278408">
        <ele>-2.75</ele>
        <time>2023-08-15T16:39:54Z</time>
      </trkpt>
      <trkpt lat="51.491223005577922" lon="0.041618999093771">
        <ele>-2.27</ele>
        <time>2023-08-15T16:39:55Z</time>
      </trkpt>
      <trkpt lat="51.49081002920866" lon="0.040711993351579">
        <ele>-0.82</ele>
        <time>2023-08-15T16:40:04Z</time>
      </trkpt>
      <trkpt lat="51.490536024793983" lon="0.040218969807029">
        <ele>0.62</ele>
        <time>2023-08-15T16:40:10Z</time>
      </trkpt>
      <trkpt lat="51.490484979003668" lon="0.040142023935914">
        <ele>0.62</ele>
        <time>2023-08-15T16:40:11Z</time>
      </trkpt>
      <trkpt lat="51.490430999547243" lon="0.040060970932245">
        <ele>0.62</ele>
        <time>2023-08-15T16:40:12Z</time>
      </trkpt>
      <trkpt lat="51.490375008434057" lon="0.039976984262466">
        <ele>1.1</ele>
        <time>2023-08-15T16:40:13Z</time>
      </trkpt>
      <trkpt lat="51.490346007049084" lon="0.039932979270816">
        <ele>1.1</ele>
        <time>2023-08-15T16:40:14Z</time>
      </trkpt>
      <trkpt lat="51.490260008722544" lon="0.039825020357966">
        <ele>1.1</ele>
        <time>2023-08-15T16:40:15Z</time>
      </trkpt>
      <trkpt lat="51.490218015387654" lon="0.03972502425313">
        <ele>1.58</ele>
        <time>2023-08-15T16:40:16Z</time>
      </trkpt>
      <trkpt lat="51.490171998739243" lon="0.039614969864488">
        <ele>1.58</ele>
        <time>2023-08-15T16:40:17Z</time>
      </trkpt>
      <trkpt lat="51.48994904011488" lon="0.038977023214102">
        <ele>2.54</ele>
        <time>2023-08-15T16:40:25Z</time>
      </trkpt>
      <trkpt lat="51.489939987659454" lon="0.038942992687225">
        <ele>2.54</ele>
        <time>2023-08-15T16:40:35Z</time>
      </trkpt>
      <trkpt lat="51.489816019311547" lon="0.038528004661202">
        <ele>2.54</ele>
        <time>2023-08-15T16:40:44Z</time>
      </trkpt>
      <trkpt lat="51.489362977445126" lon="0.03725303336978">
        <ele>2.54</ele>
        <time>2023-08-15T16:40:53Z</time>
      </trkpt>
      <trkpt lat="51.488896021619439" lon="0.035767005756497">
        <ele>3.5</ele>
        <time>2023-08-15T16:41:05Z</time>
      </trkpt>
      <trkpt lat="51.488800970837474" lon="0.03527901135385">
        <ele>1.58</ele>
        <time>2023-08-15T16:41:09Z</time>
      </trkpt>
      <trkpt lat="51.48877096362412" lon="0.035143978893757">
        <ele>1.1</ele>
        <time>2023-08-15T16:41:10Z</time>
      </trkpt>
      <trkpt lat="51.488730981945992" lon="0.035025961697102">
        <ele>0.62</ele>
        <time>2023-08-15T16:41:11Z</time>
      </trkpt>
      <trkpt lat="51.488669039681554" lon="0.034902999177575">
        <ele>0.14</ele>
        <time>2023-08-15T16:41:12Z</time>
      </trkpt>
      <trkpt lat="51.488608019426465" lon="0.034739971160889">
        <ele>-0.34</ele>
        <time>2023-08-15T16:41:13Z</time>
      </trkpt>
      <trkpt lat="51.488583963364363" lon="0.03465598449111">
        <ele>-0.82</ele>
        <time>2023-08-15T16:41:14Z</time>
      </trkpt>
      <trkpt lat="51.488542975857854" lon="0.034515000879765">
        <ele>-0.82</ele>
        <time>2023-08-15T16:41:15Z</time>
      </trkpt>
      <trkpt lat="51.488412972539663" lon="0.033948970958591">
        <ele>-1.79</ele>
        <time>2023-08-15T16:41:19Z</time>
      </trkpt>
      <trkpt lat="51.488386988639832" lon="0.033813016489148">
        <ele>-2.27</ele>
        <time>2023-08-15T16:41:20Z</time>
      </trkpt>
      <trkpt lat="51.488367039710283" lon="0.033668009564281">
        <ele>-2.27</ele>
        <time>2023-08-15T16:41:21Z</time>
      </trkpt>
      <trkpt lat="51.488346001133323" lon="0.0335150398314">
        <ele>-2.75</ele>
        <time>2023-08-15T16:41:22Z</time>
      </trkpt>
      <trkpt lat="51.48831901140511" lon="0.033361986279488">
        <ele>-2.75</ele>
        <time>2023-08-15T16:41:23Z</time>
      </trkpt>
      <trkpt lat="51.488077025860548" lon="0.031988024711609">
        <ele>-3.71</ele>
        <time>2023-08-15T16:41:33Z</time>
      </trkpt>
      <trkpt lat="51.488035032525659" lon="0.031901020556688">
        <ele>-3.23</ele>
        <time>2023-08-15T16:41:34Z</time>
      </trkpt>
      <trkpt lat="51.487929001450539" lon="0.031491983681917">
        <ele>-2.75</ele>
        <time>2023-08-15T16:41:42Z</time>
      </trkpt>
      <trkpt lat="51.487929001450539" lon="0.031491983681917">
        <ele>-2.75</ele>
        <time>2023-08-15T16:42:18Z</time>
      </trkpt>
      <trkpt lat="51.487964037805796" lon="0.031199036166072">
        <ele>-2.75</ele>
        <time>2023-08-15T16:42:42Z</time>
      </trkpt>
      <trkpt lat="51.487968983128667" lon="0.031144972890615">
        <ele>-2.75</ele>
        <time>2023-08-15T16:42:43Z</time>
      </trkpt>
      <trkpt lat="51.487979041412473" lon="0.031043970957398">
        <ele>-2.75</ele>
        <time>2023-08-15T16:42:44Z</time>
      </trkpt>
      <trkpt lat="51.488007958978415" lon="0.030973982065916">
        <ele>-2.75</ele>
        <time>2023-08-15T16:42:45Z</time>
      </trkpt>
      <trkpt lat="51.488079959526658" lon="0.03093802370131">
        <ele>-2.75</ele>
        <time>2023-08-15T16:42:46Z</time>
      </trkpt>
      <trkpt lat="51.488165035843849" lon="0.03089502453804">
        <ele>-2.75</ele>
        <time>2023-08-15T16:42:47Z</time>
      </trkpt>
      <trkpt lat="51.488258996978402" lon="0.030840961262584">
        <ele>-2.75</ele>
        <time>2023-08-15T16:42:48Z</time>
      </trkpt>
      <trkpt lat="51.489362977445126" lon="0.030284989625216">
        <ele>-1.79</ele>
        <time>2023-08-15T16:42:58Z</time>
      </trkpt>
      <trkpt lat="51.489722980186343" lon="0.030105030164123">
        <ele>-0.82</ele>
        <time>2023-08-15T16:43:02Z</time>
      </trkpt>
      <trkpt lat="51.48980101570487" lon="0.030065970495343">
        <ele>-0.34</ele>
        <time>2023-08-15T16:43:03Z</time>
      </trkpt>
      <trkpt lat="51.489864969626069" lon="0.03003403544426">
        <ele>0.14</ele>
        <time>2023-08-15T16:43:04Z</time>
      </trkpt>
      <trkpt lat="51.489980975165963" lon="0.029860027134418">
        <ele>0.62</ele>
        <time>2023-08-15T16:43:05Z</time>
      </trkpt>
      <trkpt lat="51.489981980994344" lon="0.029720971360803">
        <ele>0.62</ele>
        <time>2023-08-15T16:43:06Z</time>
      </trkpt>
      <trkpt lat="51.489986004307866" lon="0.029549980536103">
        <ele>1.1</ele>
        <time>2023-08-15T16:43:07Z</time>
      </trkpt>
      <trkpt lat="51.489990027621388" lon="0.029365997761488">
        <ele>1.58</ele>
        <time>2023-08-15T16:43:08Z</time>
      </trkpt>
      <trkpt lat="51.489992961287498" lon="0.029173968359828">
        <ele>2.06</ele>
        <time>2023-08-15T16:43:09Z</time>
      </trkpt>
      <trkpt lat="51.489902017638087" lon="0.027160970494151">
        <ele>3.02</ele>
        <time>2023-08-15T16:43:19Z</time>
      </trkpt>
      <trkpt lat="51.489833034574986" lon="0.025961017236114">
        <ele>3.02</ele>
        <time>2023-08-15T16:43:27Z</time>
      </trkpt>
      <trkpt lat="51.489879973232746" lon="0.025408985093236">
        <ele>2.06</ele>
        <time>2023-08-15T16:43:37Z</time>
      </trkpt>
      <trkpt lat="51.489883996546268" lon="0.025357017293572">
        <ele>1.58</ele>
        <time>2023-08-15T16:43:50Z</time>
      </trkpt>
      <trkpt lat="51.489916015416384" lon="0.024915961548686">
        <ele>1.1</ele>
        <time>2023-08-15T16:44:00Z</time>
      </trkpt>
      <trkpt lat="51.489916015416384" lon="0.024259993806481">
        <ele>1.1</ele>
        <time>2023-08-15T16:44:07Z</time>
      </trkpt>
      <trkpt lat="51.489916015416384" lon="0.022910004481673">
        <ele>0.14</ele>
        <time>2023-08-15T16:44:15Z</time>
      </trkpt>
      <trkpt lat="51.489980975165963" lon="0.021029021590948">
        <ele>-1.79</ele>
        <time>2023-08-15T16:44:27Z</time>
      </trkpt>
      <trkpt lat="51.49016403593123" lon="0.01950703561306">
        <ele>-6.11</ele>
        <time>2023-08-15T16:44:36Z</time>
      </trkpt>
      <trkpt lat="51.49025003425777" lon="0.018963972106576">
        <ele>-5.63</ele>
        <time>2023-08-15T16:44:42Z</time>
      </trkpt>
      <trkpt lat="51.490320023149252" lon="0.018573962152004">
        <ele>-5.63</ele>
        <time>2023-08-15T16:44:46Z</time>
      </trkpt>
      <trkpt lat="51.490391017869115" lon="0.018328037112951">
        <ele>-5.15</ele>
        <time>2023-08-15T16:44:49Z</time>
      </trkpt>
      <trkpt lat="51.490398980677128" lon="0.01821999438107">
        <ele>-5.15</ele>
        <time>2023-08-15T16:44:50Z</time>
      </trkpt>
      <trkpt lat="51.490409960970283" lon="0.01806702464819">
        <ele>-4.67</ele>
        <time>2023-08-15T16:44:51Z</time>
      </trkpt>
      <trkpt lat="51.490409960970283" lon="0.01798203215003">
        <ele>-4.67</ele>
        <time>2023-08-15T16:44:52Z</time>
      </trkpt>
      <trkpt lat="51.49042496457696" lon="0.017864014953375">
        <ele>-4.67</ele>
        <time>2023-08-15T16:44:53Z</time>
      </trkpt>
      <trkpt lat="51.49044600315392" lon="0.017753038555384">
        <ele>-4.67</ele>
        <time>2023-08-15T16:44:54Z</time>
      </trkpt>
      <trkpt lat="51.490500988438725" lon="0.017664022743702">
        <ele>-4.19</ele>
        <time>2023-08-15T16:44:55Z</time>
      </trkpt>
      <trkpt lat="51.490558991208673" lon="0.01755497418344">
        <ele>-4.19</ele>
        <time>2023-08-15T16:44:56Z</time>
      </trkpt>
      <trkpt lat="51.490602996200323" lon="0.017422959208488">
        <ele>-4.19</ele>
        <time>2023-08-15T16:44:57Z</time>
      </trkpt>
      <trkpt lat="51.490634009242058" lon="0.017265966162086">
        <ele>-3.71</ele>
        <time>2023-08-15T16:44:58Z</time>
      </trkpt>
      <trkpt lat="51.490650018677115" lon="0.017105033621192">
        <ele>-3.71</ele>
        <time>2023-08-15T16:44:59Z</time>
      </trkpt>
      <trkpt lat="51.490738028660417" lon="0.015754960477352">
        <ele>-4.19</ele>
        <time>2023-08-15T16:45:08Z</time>
      </trkpt>
      <trkpt lat="51.49076703004539" lon="0.014922972768545">
        <ele>-4.67</ele>
        <time>2023-08-15T16:45:19Z</time>
      </trkpt>
      <trkpt lat="51.490779016166925" lon="0.014657014980912">
        <ele>-5.63</ele>
        <time>2023-08-15T16:45:28Z</time>
      </trkpt>
      <trkpt lat="51.49080902338028" lon="0.014359960332513">
        <ele>-6.11</ele>
        <time>2023-08-15T16:45:41Z</time>
      </trkpt>
      <trkpt lat="51.490863002836704" lon="0.013830978423357">
        <ele>-8.51</ele>
        <time>2023-08-15T16:45:54Z</time>
      </trkpt>
      <trkpt lat="51.490863002836704" lon="0.013830978423357">
        <ele>-8.51</ele>
        <time>2023-08-15T16:46:10Z</time>
      </trkpt>
      <trkpt lat="51.490863002836704" lon="0.013830978423357">
        <ele>-9</ele>
        <time>2023-08-15T16:46:56Z</time>
      </trkpt>
      <trkpt lat="51.490970039740205" lon="0.013425964862108">
        <ele>-10.44</ele>
        <time>2023-08-15T16:47:08Z</time>
      </trkpt>
      <trkpt lat="51.491059977561235" lon="0.013154977932572">
        <ele>-11.4</ele>
        <time>2023-08-15T16:47:16Z</time>
      </trkpt>
      <trkpt lat="51.491059977561235" lon="0.013154977932572">
        <ele>-12.359999999999999</ele>
        <time>2023-08-15T16:48:01Z</time>
      </trkpt>
      <trkpt lat="51.491059977561235" lon="0.013154977932572">
        <ele>-12.359999999999999</ele>
        <time>2023-08-15T16:48:27Z</time>
      </trkpt>
      <trkpt lat="51.491245971992612" lon="0.012726997956634">
        <ele>-13.800000000000001</ele>
        <time>2023-08-15T16:48:36Z</time>
      </trkpt>
      <trkpt lat="51.492024986073375" lon="0.011302996426821">
        <ele>-13.32</ele>
        <time>2023-08-15T16:48:46Z</time>
      </trkpt>
      <trkpt lat="51.492739040404558" lon="0.010374030098319">
        <ele>-10.92</ele>
        <time>2023-08-15T16:48:55Z</time>
      </trkpt>
      <trkpt lat="51.492965016514063" lon="0.010117962956429">
        <ele>-10.44</ele>
        <time>2023-08-15T16:49:00Z</time>
      </trkpt>
      <trkpt lat="51.493008015677333" lon="0.01005501486361">
        <ele>-9.960000000000001</ele>
        <time>2023-08-15T16:49:01Z</time>
      </trkpt>
      <trkpt lat="51.493052020668983" lon="0.00999097712338">
        <ele>-9.960000000000001</ele>
        <time>2023-08-15T16:49:02Z</time>
      </trkpt>
      <trkpt lat="51.493135001510382" lon="0.009871032088995">
        <ele>-9.960000000000001</ele>
        <time>2023-08-15T16:49:03Z</time>
      </trkpt>
      <trkpt lat="51.493135001510382" lon="0.009780004620552">
        <ele>-9.48</ele>
        <time>2023-08-15T16:49:04Z</time>
      </trkpt>
      <trkpt lat="51.493069035932422" lon="0.0096479896456">
        <ele>-9.48</ele>
        <time>2023-08-15T16:49:05Z</time>
      </trkpt>
      <trkpt lat="51.493012038990855" lon="0.009566014632583">
        <ele>-9.48</ele>
        <time>2023-08-15T16:49:06Z</time>
      </trkpt>
      <trkpt lat="51.492940960451961" lon="0.009492002427578">
        <ele>-9</ele>
        <time>2023-08-15T16:49:07Z</time>
      </trkpt>
      <trkpt lat="51.492857979610562" lon="0.009425031021237">
        <ele>-8.51</ele>
        <time>2023-08-15T16:49:08Z</time>
      </trkpt>
      <trkpt lat="51.492768963798881" lon="0.009354958310723">
        <ele>-9</ele>
        <time>2023-08-15T16:49:09Z</time>
      </trkpt>
      <trkpt lat="51.492148032411933" lon="0.009162006899714">
        <ele>-9</ele>
        <time>2023-08-15T16:49:16Z</time>
      </trkpt>
      <trkpt lat="51.492060022428632" lon="0.009104004129767">
        <ele>-9</ele>
        <time>2023-08-15T16:49:23Z</time>
      </trkpt>
      <trkpt lat="51.492060022428632" lon="0.009104004129767">
        <ele>-8.029999999999999</ele>
        <time>2023-08-15T16:50:09Z</time>
      </trkpt>
      <trkpt lat="51.491804961115122" lon="0.008925972506404">
        <ele>-7.07</ele>
        <time>2023-08-15T16:50:25Z</time>
      </trkpt>
      <trkpt lat="51.491790963336825" lon="0.008899988606572">
        <ele>-7.07</ele>
        <time>2023-08-15T16:50:26Z</time>
      </trkpt>
      <trkpt lat="51.491848966106772" lon="0.008719023317099">
        <ele>-6.11</ele>
        <time>2023-08-15T16:50:27Z</time>
      </trkpt>
      <trkpt lat="51.491948962211609" lon="0.008578961715102">
        <ele>-6.11</ele>
        <time>2023-08-15T16:50:29Z</time>
      </trkpt>
      <trkpt lat="51.492006964981556" lon="0.008498998358846">
        <ele>-6.11</ele>
        <time>2023-08-15T16:50:30Z</time>
      </trkpt>
      <trkpt lat="51.492549022659659" lon="0.007816962897778">
        <ele>-6.59</ele>
        <time>2023-08-15T16:50:40Z</time>
      </trkpt>
      <trkpt lat="51.492731999605894" lon="0.007634991779923">
        <ele>-6.59</ele>
        <time>2023-08-15T16:50:50Z</time>
      </trkpt>
      <trkpt lat="51.492998041212559" lon="0.007346989586949">
        <ele>-7.07</ele>
        <time>2023-08-15T16:51:01Z</time>
      </trkpt>
      <trkpt lat="51.493270033970475" lon="0.006973994895816">
        <ele>-4.67</ele>
        <time>2023-08-15T16:51:16Z</time>
      </trkpt>
      <trkpt lat="51.493409005925059" lon="0.006792023777962">
        <ele>-4.67</ele>
        <time>2023-08-15T16:51:20Z</time>
      </trkpt>
      <trkpt lat="51.493456028401852" lon="0.006731003522873">
        <ele>-4.19</ele>
        <time>2023-08-15T16:51:21Z</time>
      </trkpt>
      <trkpt lat="51.493650991469622" lon="0.006478037685156">
        <ele>-3.23</ele>
        <time>2023-08-15T16:51:30Z</time>
      </trkpt>
      <trkpt lat="51.49379700422287" lon="0.006287014111876">
        <ele>-2.27</ele>
        <time>2023-08-15T16:51:41Z</time>
      </trkpt>
      <trkpt lat="51.494002025574446" lon="0.006016027182341">
        <ele>-3.71</ele>
        <time>2023-08-15T16:51:46Z</time>
      </trkpt>
      <trkpt lat="51.49450896307826" lon="0.005322005599737">
        <ele>-5.15</ele>
        <time>2023-08-15T16:51:56Z</time>
      </trkpt>
      <trkpt lat="51.494680037721992" lon="0.00509100034833">
        <ele>-4.67</ele>
        <time>2023-08-15T16:52:01Z</time>
      </trkpt>
      <trkpt lat="51.494710966944695" lon="0.00504800118506">
        <ele>-4.19</ele>
        <time>2023-08-15T16:52:02Z</time>
      </trkpt>
      <trkpt lat="51.495014978572726" lon="0.004588002339005">
        <ele>-3.23</ele>
        <time>2023-08-15T16:52:13Z</time>
      </trkpt>
      <trkpt lat="51.495056971907616" lon="0.004505021497607">
        <ele>-2.75</ele>
        <time>2023-08-15T16:52:22Z</time>
      </trkpt>
      <trkpt lat="51.495217988267541" lon="0.004191035404801">
        <ele>-1.79</ele>
        <time>2023-08-15T16:52:34Z</time>
      </trkpt>
      <trkpt lat="51.495447987690568" lon="0.003742016851902">
        <ele>-2.27</ele>
        <time>2023-08-15T16:52:49Z</time>
      </trkpt>
      <trkpt lat="51.495610009878874" lon="0.003431970253587">
        <ele>-2.75</ele>
        <time>2023-08-15T16:53:02Z</time>
      </trkpt>
      <trkpt lat="51.495750993490219" lon="0.003155032172799">
        <ele>-2.75</ele>
        <time>2023-08-15T16:53:11Z</time>
      </trkpt>
      <trkpt lat="51.49592500180006" lon="0.002788994461298">
        <ele>-3.71</ele>
        <time>2023-08-15T16:53:24Z</time>
      </trkpt>
      <trkpt lat="51.496040001511574" lon="0.002622026950121">
        <ele>-2.75</ele>
        <time>2023-08-15T16:53:36Z</time>
      </trkpt>
      <trkpt lat="51.496262038126588" lon="0.002367971464992">
        <ele>-1.79</ele>
        <time>2023-08-15T16:53:51Z</time>
      </trkpt>
      <trkpt lat="51.496303025633097" lon="0.002336958423257">
        <ele>-1.79</ele>
        <time>2023-08-15T16:53:52Z</time>
      </trkpt>
      <trkpt lat="51.496342001482844" lon="0.002307035028934">
        <ele>-1.79</ele>
        <time>2023-08-15T16:53:53Z</time>
      </trkpt>
      <trkpt lat="51.496593961492181" lon="0.002162028104067">
        <ele>-2.75</ele>
        <time>2023-08-15T16:54:00Z</time>
      </trkpt>
      <trkpt lat="51.497055971994996" lon="0.001959018409252">
        <ele>-2.75</ele>
        <time>2023-08-15T16:54:11Z</time>
      </trkpt>
      <trkpt lat="51.49764203466475" lon="0.001818034797907">
        <ele>-3.71</ele>
        <time>2023-08-15T16:54:22Z</time>
      </trkpt>
      <trkpt lat="51.498192977160215" lon="0.001678979024291">
        <ele>-4.67</ele>
        <time>2023-08-15T16:54:31Z</time>
      </trkpt>
      <trkpt lat="51.498761018738151" lon="0.001507988199592">
        <ele>-1.3</ele>
        <time>2023-08-15T16:54:39Z</time>
      </trkpt>
      <trkpt lat="51.498929997906089" lon="0.00143900513649">
        <ele>1.1</ele>
        <time>2023-08-15T16:54:43Z</time>
      </trkpt>
      <trkpt lat="51.498971991240978" lon="0.001421989873052">
        <ele>2.06</ele>
        <time>2023-08-15T16:54:44Z</time>
      </trkpt>
      <trkpt lat="51.499009039252996" lon="0.001406986266375">
        <ele>2.54</ele>
        <time>2023-08-15T16:54:45Z</time>
      </trkpt>
      <trkpt lat="51.499142982065678" lon="0.001352000981569">
        <ele>3.5</ele>
        <time>2023-08-15T16:54:46Z</time>
      </trkpt>
      <trkpt lat="51.499142982065678" lon="0.001352000981569">
        <ele>3.98</ele>
        <time>2023-08-15T16:54:47Z</time>
      </trkpt>
      <trkpt lat="51.499142982065678" lon="0.001352000981569">
        <ele>4.94</ele>
        <time>2023-08-15T16:54:48Z</time>
      </trkpt>
      <trkpt lat="51.500519961118698" lon="0.000723022967577">
        <ele>5.42</ele>
        <time>2023-08-15T16:55:20Z</time>
      </trkpt>
      <trkpt lat="51.500580981373787" lon="0.000686980783939">
        <ele>5.42</ele>
        <time>2023-08-15T16:55:22Z</time>
      </trkpt>
      <trkpt lat="51.501508019864559" lon="0.000269981101155">
        <ele>5.42</ele>
        <time>2023-08-15T16:55:42Z</time>
      </trkpt>
      <trkpt lat="51.501650009304285" lon="0.000089015811682">
        <ele>5.42</ele>
        <time>2023-08-15T16:55:46Z</time>
      </trkpt>
      <trkpt lat="51.502871001139283" lon="-0.001860028132796">
        <ele>5.42</ele>
        <time>2023-08-15T16:56:24Z</time>
      </trkpt>
      <trkpt lat="51.504835970699787" lon="-0.006042011082172">
        <ele>5.42</ele>
        <time>2023-08-15T16:57:36Z</time>
      </trkpt>
      <trkpt lat="51.505716992542148" lon="-0.007050018757582">
        <ele>5.42</ele>
        <time>2023-08-15T16:58:00Z</time>
      </trkpt>
      <trkpt lat="51.510280016809702" lon="-0.007107015699148">
        <ele>7.35</ele>
        <time>2023-08-15T16:58:53Z</time>
      </trkpt>
      <trkpt lat="51.511406041681767" lon="-0.00764898955822">
        <ele>3.5</ele>
        <time>2023-08-15T16:59:02Z</time>
      </trkpt>
      <trkpt lat="51.511840978637338" lon="-0.007990971207619">
        <ele>2.54</ele>
        <time>2023-08-15T16:59:06Z</time>
      </trkpt>
      <trkpt lat="51.511938963085413" lon="-0.008046962320805">
        <ele>3.02</ele>
        <time>2023-08-15T16:59:07Z</time>
      </trkpt>
      <trkpt lat="51.512051029130816" lon="-0.008112005889416">
        <ele>3.02</ele>
        <time>2023-08-15T16:59:08Z</time>
      </trkpt>
      <trkpt lat="51.512271976098418" lon="-0.008203033357859">
        <ele>3.5</ele>
        <time>2023-08-15T16:59:10Z</time>
      </trkpt>
      <trkpt lat="51.513404035940766" lon="-0.008261036127806">
        <ele>6.39</ele>
        <time>2023-08-15T16:59:19Z</time>
      </trkpt>
      <trkpt lat="51.513526998460293" lon="-0.008255001157522">
        <ele>6.39</ele>
        <time>2023-08-15T16:59:20Z</time>
      </trkpt>
      <trkpt lat="51.514138039201498" lon="-0.008298000320792">
        <ele>4.94</ele>
        <time>2023-08-15T16:59:25Z</time>
      </trkpt>
      <trkpt lat="51.514556966722012" lon="-0.00846597366035">
        <ele>4.94</ele>
        <time>2023-08-15T16:59:29Z</time>
      </trkpt>
      <trkpt lat="51.515634041279554" lon="-0.008899988606572">
        <ele>6.87</ele>
        <time>2023-08-15T16:59:40Z</time>
      </trkpt>
      <trkpt lat="51.516711032018065" lon="-0.00930399633944">
        <ele>9.27</ele>
        <time>2023-08-15T16:59:52Z</time>
      </trkpt>
      <trkpt lat="51.517119985073805" lon="-0.009456966072321">
        <ele>10.23</ele>
        <time>2023-08-15T17:00:01Z</time>
      </trkpt>
      <trkpt lat="51.517149992287159" lon="-0.009469036012888">
        <ele>11.19</ele>
        <time>2023-08-15T17:00:09Z</time>
      </trkpt>
      <trkpt lat="51.517407987266779" lon="-0.009573977440596">
        <ele>12.15</ele>
        <time>2023-08-15T17:00:20Z</time>
      </trkpt>
      <trkpt lat="51.518196975812316" lon="-0.009881006553769">
        <ele>10.710000000000001</ele>
        <time>2023-08-15T17:00:29Z</time>
      </trkpt>
      <trkpt lat="51.519177993759513" lon="-0.010220976546407">
        <ele>12.630000000000001</ele>
        <time>2023-08-15T17:00:38Z</time>
      </trkpt>
      <trkpt lat="51.52031097561121" lon="-0.01042197458446">
        <ele>13.6</ele>
        <time>2023-08-15T17:00:49Z</time>
      </trkpt>
      <trkpt lat="51.521435994654894" lon="-0.010501015931368">
        <ele>16</ele>
        <time>2023-08-15T17:00:59Z</time>
      </trkpt>
      <trkpt lat="51.521677980199456" lon="-0.01048400066793">
        <ele>16.48</ele>
        <time>2023-08-15T17:01:01Z</time>
      </trkpt>
      <trkpt lat="51.521801026538014" lon="-0.01046204008162">
        <ele>16.960000000000001</ele>
        <time>2023-08-15T17:01:02Z</time>
      </trkpt>
      <trkpt lat="51.521920971572399" lon="-0.010439995676279">
        <ele>16.960000000000001</ele>
        <time>2023-08-15T17:01:03Z</time>
      </trkpt>
      <trkpt lat="51.522835018113256" lon="-0.010522976517677">
        <ele>16.48</ele>
        <time>2023-08-15T17:01:12Z</time>
      </trkpt>
      <trkpt lat="51.523932963609695" lon="-0.010920027270913">
        <ele>17.920000000000002</ele>
        <time>2023-08-15T17:01:22Z</time>
      </trkpt>
      <trkpt lat="51.524927979335189" lon="-0.011363010853529">
        <ele>19.84</ele>
        <time>2023-08-15T17:01:31Z</time>
      </trkpt>
      <trkpt lat="51.525376997888088" lon="-0.011512963101268">
        <ele>19.84</ele>
        <time>2023-08-15T17:01:35Z</time>
      </trkpt>
      <trkpt lat="51.525619989261031" lon="-0.011543976143003">
        <ele>18.879999999999999</ele>
        <time>2023-08-15T17:01:37Z</time>
      </trkpt>
      <trkpt lat="51.525743035599589" lon="-0.011543976143003">
        <ele>18.399999999999999</ele>
        <time>2023-08-15T17:01:38Z</time>
      </trkpt>
      <trkpt lat="51.526744002476335" lon="-0.011277012526989">
        <ele>16.48</ele>
        <time>2023-08-15T17:01:46Z</time>
      </trkpt>
      <trkpt lat="51.526870988309383" lon="-0.011259997263551">
        <ele>16.48</ele>
        <time>2023-08-15T17:01:47Z</time>
      </trkpt>
      <trkpt lat="51.526995040476322" lon="-0.011243987828493">
        <ele>16.48</ele>
        <time>2023-08-15T17:01:48Z</time>
      </trkpt>
      <trkpt lat="51.527104005217552" lon="-0.011297967284918">
        <ele>16.48</ele>
        <time>2023-08-15T17:01:49Z</time>
      </trkpt>
      <trkpt lat="51.527227973565459" lon="-0.011359993368387">
        <ele>16</ele>
        <time>2023-08-15T17:01:50Z</time>
      </trkpt>
      <trkpt lat="51.527354959398508" lon="-0.011424031108618">
        <ele>16</ele>
        <time>2023-08-15T17:01:51Z</time>
      </trkpt>
      <trkpt lat="51.527469037100673" lon="-0.011510029435158">
        <ele>15.52</ele>
        <time>2023-08-15T17:01:52Z</time>
      </trkpt>
      <trkpt lat="51.527583030983806" lon="-0.011604996398091">
        <ele>15.039999999999999</ele>
        <time>2023-08-15T17:01:53Z</time>
      </trkpt>
      <trkpt lat="51.528986999765038" lon="-0.013003014028072">
        <ele>8.310000000000001</ele>
        <time>2023-08-15T17:02:05Z</time>
      </trkpt>
      <trkpt lat="51.529840026050806" lon="-0.014421986415982">
        <ele>0.14</ele>
        <time>2023-08-15T17:02:12Z</time>
      </trkpt>
      <trkpt lat="51.529949996620417" lon="-0.01465399749577">
        <ele>0.14</ele>
        <time>2023-08-15T17:02:13Z</time>
      </trkpt>
      <trkpt lat="51.530499011278152" lon="-0.016010021790862">
        <ele>-0.82</ele>
        <time>2023-08-15T17:02:21Z</time>
      </trkpt>
      <trkpt lat="51.531565021723509" lon="-0.018473966047168">
        <ele>0.14</ele>
        <time>2023-08-15T17:02:34Z</time>
      </trkpt>
      <trkpt lat="51.531648002564907" lon="-0.018640011548996">
        <ele>0.14</ele>
        <time>2023-08-15T17:02:35Z</time>
      </trkpt>
      <trkpt lat="51.531904991716146" lon="-0.019134962931275">
        <ele>0.62</ele>
        <time>2023-08-15T17:02:38Z</time>
      </trkpt>
      <trkpt lat="51.532897995784879" lon="-0.020855013281107">
        <ele>3.5</ele>
        <time>2023-08-15T17:02:47Z</time>
      </trkpt>
      <trkpt lat="51.533602997660637" lon="-0.022145994007587">
        <ele>1.1</ele>
        <time>2023-08-15T17:02:54Z</time>
      </trkpt>
      <trkpt lat="51.533733000978827" lon="-0.022380016744137">
        <ele>0.62</ele>
        <time>2023-08-15T17:02:55Z</time>
      </trkpt>
      <trkpt lat="51.53380298987031" lon="-0.022504990920424">
        <ele>0.14</ele>
        <time>2023-08-15T17:02:56Z</time>
      </trkpt>
      <trkpt lat="51.535197990015149" lon="-0.02468696795404">
        <ele>1.1</ele>
        <time>2023-08-15T17:03:09Z</time>
      </trkpt>
      <trkpt lat="51.536434991285205" lon="-0.025562960654497">
        <ele>3.98</ele>
        <time>2023-08-15T17:03:18Z</time>
      </trkpt>
      <trkpt lat="51.538120005279779" lon="-0.025991024449468">
        <ele>9.27</ele>
        <time>2023-08-15T17:03:29Z</time>
      </trkpt>
      <trkpt lat="51.540297036990523" lon="-0.026515983045101">
        <ele>13.119999999999999</ele>
        <time>2023-08-15T17:03:43Z</time>
      </trkpt>
      <trkpt lat="51.541776023805141" lon="-0.027344031259418">
        <ele>11.19</ele>
        <time>2023-08-15T17:03:53Z</time>
      </trkpt>
      <trkpt lat="51.542900037020445" lon="-0.028759986162186">
        <ele>9.27</ele>
        <time>2023-08-15T17:04:02Z</time>
      </trkpt>
      <trkpt lat="51.544200992211699" lon="-0.030965013429523">
        <ele>10.710000000000001</ele>
        <time>2023-08-15T17:04:14Z</time>
      </trkpt>
      <trkpt lat="51.545189972966909" lon="-0.032690009102225">
        <ele>13.6</ele>
        <time>2023-08-15T17:04:24Z</time>
      </trkpt>
      <trkpt lat="51.545376973226666" lon="-0.033020004630089">
        <ele>13.119999999999999</ele>
        <time>2023-08-15T17:04:26Z</time>
      </trkpt>
      <trkpt lat="51.545490967109799" lon="-0.033158976584673">
        <ele>13.119999999999999</ele>
        <time>2023-08-15T17:04:27Z</time>
      </trkpt>
      <trkpt lat="51.545619964599609" lon="-0.033260984346271">
        <ele>12.15</ele>
        <time>2023-08-15T17:04:28Z</time>
      </trkpt>
      <trkpt lat="51.545753991231322" lon="-0.033351005986333">
        <ele>11.67</ele>
        <time>2023-08-15T17:04:29Z</time>
      </trkpt>
      <trkpt lat="51.545902015641332" lon="-0.033385036513209">
        <ele>10.710000000000001</ele>
        <time>2023-08-15T17:04:30Z</time>
      </trkpt>
      <trkpt lat="51.546007040888071" lon="-0.033410014584661">
        <ele>9.75</ele>
        <time>2023-08-15T17:04:31Z</time>
      </trkpt>
      <trkpt lat="51.5461350325495" lon="-0.033377995714545">
        <ele>9.27</ele>
        <time>2023-08-15T17:04:32Z</time>
      </trkpt>
      <trkpt lat="51.54626403003931" lon="-0.033344971016049">
        <ele>8.310000000000001</ele>
        <time>2023-08-15T17:04:33Z</time>
      </trkpt>
      <trkpt lat="51.546394033357501" lon="-0.033204993233085">
        <ele>7.83</ele>
        <time>2023-08-15T17:04:34Z</time>
      </trkpt>
      <trkpt lat="51.546534011140466" lon="-0.033053029328585">
        <ele>7.35</ele>
        <time>2023-08-15T17:04:35Z</time>
      </trkpt>
      <trkpt lat="51.54677901417017" lon="-0.03278698772192">
        <ele>7.83</ele>
        <time>2023-08-15T17:04:36Z</time>
      </trkpt>
      <trkpt lat="51.546781025826931" lon="-0.032784976065159">
        <ele>7.83</ele>
        <time>2023-08-15T17:04:37Z</time>
      </trkpt>
      <trkpt lat="51.546835005283356" lon="-0.032704006880522">
        <ele>8.310000000000001</ele>
        <time>2023-08-15T17:04:38Z</time>
      </trkpt>
      <trkpt lat="51.546883033588529" lon="-0.032632006332278">
        <ele>8.310000000000001</ele>
        <time>2023-08-15T17:04:39Z</time>
      </trkpt>
      <trkpt lat="51.546965008601546" lon="-0.03250895999372">
        <ele>8.310000000000001</ele>
        <time>2023-08-15T17:04:40Z</time>
      </trkpt>
      <trkpt lat="51.547063998878002" lon="-0.032361019402742">
        <ele>8.310000000000001</ele>
        <time>2023-08-15T17:04:41Z</time>
      </trkpt>
      <trkpt lat="51.547169024124742" lon="-0.032203020527959">
        <ele>7.83</ele>
        <time>2023-08-15T17:04:42Z</time>
      </trkpt>
      <trkpt lat="51.547280000522733" lon="-0.032036975026131">
        <ele>7.35</ele>
        <time>2023-08-15T17:04:43Z</time>
      </trkpt>
      <trkpt lat="51.547422995790839" lon="-0.031821979209781">
        <ele>6.87</ele>
        <time>2023-08-15T17:04:44Z</time>
      </trkpt>
      <trkpt lat="51.54821801930666" lon="-0.0295639783144">
        <ele>7.35</ele>
        <time>2023-08-15T17:04:54Z</time>
      </trkpt>
      <trkpt lat="51.548613980412483" lon="-0.027088969945908">
        <ele>13.119999999999999</ele>
        <time>2023-08-15T17:05:04Z</time>
      </trkpt>
      <trkpt lat="51.549346977844834" lon="-0.025107990950346">
        <ele>10.23</ele>
        <time>2023-08-15T17:05:13Z</time>
      </trkpt>
      <trkpt lat="51.550627984106541" lon="-0.022874968126416">
        <ele>10.23</ele>
        <time>2023-08-15T17:05:25Z</time>
      </trkpt>
      <trkpt lat="51.551262997090816" lon="-0.02114100381732">
        <ele>15.52</ele>
        <time>2023-08-15T17:05:32Z</time>
      </trkpt>
      <trkpt lat="51.551521997898817" lon="-0.018745036795735">
        <ele>14.08</ele>
        <time>2023-08-15T17:05:40Z</time>
      </trkpt>
      <trkpt lat="51.551716038957238" lon="-0.015809023752809">
        <ele>7.35</ele>
        <time>2023-08-15T17:05:50Z</time>
      </trkpt>
      <trkpt lat="51.552252983674407" lon="-0.012307986617088">
        <ele>8.789999999999999</ele>
        <time>2023-08-15T17:06:02Z</time>
      </trkpt>
      <trkpt lat="51.553027974441648" lon="-0.010129027068615">
        <ele>15.039999999999999</ele>
        <time>2023-08-15T17:06:10Z</time>
      </trkpt>
      <trkpt lat="51.554164979606867" lon="-0.008588014170527">
        <ele>13.6</ele>
        <time>2023-08-15T17:06:18Z</time>
      </trkpt>
      <trkpt lat="51.555743040516973" lon="-0.007195025682449">
        <ele>7.83</ele>
        <time>2023-08-15T17:06:28Z</time>
      </trkpt>
      <trkpt lat="51.557324035093188" lon="-0.0051339995116">
        <ele>8.789999999999999</ele>
        <time>2023-08-15T17:06:39Z</time>
      </trkpt>
      <trkpt lat="51.558783994987607" lon="-0.002694027498364">
        <ele>10.23</ele>
        <time>2023-08-15T17:06:50Z</time>
      </trkpt>
      <trkpt lat="51.560584008693695" lon="0.000080969184637">
        <ele>13.6</ele>
        <time>2023-08-15T17:07:03Z</time>
      </trkpt>
      <trkpt lat="51.56160500831902" lon="0.00158803537488">
        <ele>13.119999999999999</ele>
        <time>2023-08-15T17:07:10Z</time>
      </trkpt>
      <trkpt lat="51.563675003126264" lon="0.00403999350965">
        <ele>17.920000000000002</ele>
        <time>2023-08-15T17:07:23Z</time>
      </trkpt>
      <trkpt lat="51.564143970608711" lon="0.004483982920647">
        <ele>18.399999999999999</ele>
        <time>2023-08-15T17:07:26Z</time>
      </trkpt>
      <trkpt lat="51.565581969916821" lon="0.005668010562658">
        <ele>16.48</ele>
        <time>2023-08-15T17:07:35Z</time>
      </trkpt>
      <trkpt lat="51.567610977217555" lon="0.007012970745564">
        <ele>13.6</ele>
        <time>2023-08-15T17:07:47Z</time>
      </trkpt>
      <trkpt lat="51.568441037088633" lon="0.007557040080428">
        <ele>10.23</ele>
        <time>2023-08-15T17:07:52Z</time>
      </trkpt>
      <trkpt lat="51.569583993405104" lon="0.008501010015607">
        <ele>7.35</ele>
        <time>2023-08-15T17:07:59Z</time>
      </trkpt>
      <trkpt lat="51.56974601559341" lon="0.008673006668687">
        <ele>7.35</ele>
        <time>2023-08-15T17:08:00Z</time>
      </trkpt>
      <trkpt lat="51.571280993521214" lon="0.01046103425324">
        <ele>14.08</ele>
        <time>2023-08-15T17:08:10Z</time>
      </trkpt>
      <trkpt lat="51.572510031983256" lon="0.012596994638443">
        <ele>29.460000000000001</ele>
        <time>2023-08-15T17:08:20Z</time>
      </trkpt>
      <trkpt lat="51.572723016142845" lon="0.013487990945578">
        <ele>31.379999999999999</ele>
        <time>2023-08-15T17:08:24Z</time>
      </trkpt>
      <trkpt lat="51.572727961465716" lon="0.013727964833379">
        <ele>31.859999999999999</ele>
        <time>2023-08-15T17:08:25Z</time>
      </trkpt>
      <trkpt lat="51.572732990607619" lon="0.013963999226689">
        <ele>31.379999999999999</ele>
        <time>2023-08-15T17:08:26Z</time>
      </trkpt>
      <trkpt lat="51.572697032243013" lon="0.014623990282416">
        <ele>29.460000000000001</ele>
        <time>2023-08-15T17:08:29Z</time>
      </trkpt>
      <trkpt lat="51.572643974795938" lon="0.014854995533824">
        <ele>28.98</ele>
        <time>2023-08-15T17:08:30Z</time>
      </trkpt>
      <trkpt lat="51.572591001167893" lon="0.015090024098754">
        <ele>28.5</ele>
        <time>2023-08-15T17:08:31Z</time>
      </trkpt>
      <trkpt lat="51.572527969256043" lon="0.015364028513432">
        <ele>27.530000000000001</ele>
        <time>2023-08-15T17:08:32Z</time>
      </trkpt>
      <trkpt lat="51.572421016171575" lon="0.01564297825098">
        <ele>26.57</ele>
        <time>2023-08-15T17:08:33Z</time>
      </trkpt>
      <trkpt lat="51.572374999523163" lon="0.015765018761158">
        <ele>25.609999999999999</ele>
        <time>2023-08-15T17:08:34Z</time>
      </trkpt>
      <trkpt lat="51.572282966226339" lon="0.016011027619243">
        <ele>24.649999999999999</ele>
        <time>2023-08-15T17:08:35Z</time>
      </trkpt>
      <trkpt lat="51.571854986250401" lon="0.018095020204782">
        <ele>24.649999999999999</ele>
        <time>2023-08-15T17:08:42Z</time>
      </trkpt>
      <trkpt lat="51.571863032877445" lon="0.01836801879108">
        <ele>23.690000000000001</ele>
        <time>2023-08-15T17:08:45Z</time>
      </trkpt>
      <trkpt lat="51.571932015940547" lon="0.018697008490562">
        <ele>24.649999999999999</ele>
        <time>2023-08-15T17:08:46Z</time>
      </trkpt>
      <trkpt lat="51.571990018710494" lon="0.018944023177028">
        <ele>25.129999999999999</ele>
        <time>2023-08-15T17:08:47Z</time>
      </trkpt>
      <trkpt lat="51.572071993723512" lon="0.019202018156648">
        <ele>25.609999999999999</ele>
        <time>2023-08-15T17:08:48Z</time>
      </trkpt>
      <trkpt lat="51.573062986135483" lon="0.021897973492742">
        <ele>29.460000000000001</ele>
        <time>2023-08-15T17:08:59Z</time>
      </trkpt>
      <trkpt lat="51.573824984952807" lon="0.023842994123697">
        <ele>24.170000000000002</ele>
        <time>2023-08-15T17:09:07Z</time>
      </trkpt>
      <trkpt lat="51.57473299652338" lon="0.026148017495871">
        <ele>21.77</ele>
        <time>2023-08-15T17:09:17Z</time>
      </trkpt>
      <trkpt lat="51.57619396224618" lon="0.029685012996197">
        <ele>22.73</ele>
        <time>2023-08-15T17:09:35Z</time>
      </trkpt>
      <trkpt lat="51.576604004949331" lon="0.032263034954667">
        <ele>25.609999999999999</ele>
        <time>2023-08-15T17:09:43Z</time>
      </trkpt>
      <trkpt lat="51.576868034899235" lon="0.033685024827719">
        <ele>23.690000000000001</ele>
        <time>2023-08-15T17:09:49Z</time>
      </trkpt>
      <trkpt lat="51.577281011268497" lon="0.035197958350182">
        <ele>18.399999999999999</ele>
        <time>2023-08-15T17:09:57Z</time>
      </trkpt>
      <trkpt lat="51.577342031523585" lon="0.036258017644286">
        <ele>15.039999999999999</ele>
        <time>2023-08-15T17:10:02Z</time>
      </trkpt>
      <trkpt lat="51.577062997967005" lon="0.037669027224183">
        <ele>15.039999999999999</ele>
        <time>2023-08-15T17:10:10Z</time>
      </trkpt>
      <trkpt lat="51.576481964439154" lon="0.039005018770695">
        <ele>13.6</ele>
        <time>2023-08-15T17:10:19Z</time>
      </trkpt>
      <trkpt lat="51.57617099583149" lon="0.040515018627048">
        <ele>13.6</ele>
        <time>2023-08-15T17:10:27Z</time>
      </trkpt>
      <trkpt lat="51.576031018048525" lon="0.042102970182896">
        <ele>13.119999999999999</ele>
        <time>2023-08-15T17:10:36Z</time>
      </trkpt>
      <trkpt lat="51.576090026646852" lon="0.042257029563189">
        <ele>13.119999999999999</ele>
        <time>2023-08-15T17:10:37Z</time>
      </trkpt>
      <trkpt lat="51.576093966141343" lon="0.04239197820425">
        <ele>13.119999999999999</ele>
        <time>2023-08-15T17:10:38Z</time>
      </trkpt>
      <trkpt lat="51.57610896974802" lon="0.042526004835963">
        <ele>12.630000000000001</ele>
        <time>2023-08-15T17:10:39Z</time>
      </trkpt>
      <trkpt lat="51.576160015538335" lon="0.042631030082703">
        <ele>12.630000000000001</ele>
        <time>2023-08-15T17:10:40Z</time>
      </trkpt>
      <trkpt lat="51.576221035793424" lon="0.04273203201592">
        <ele>12.630000000000001</ele>
        <time>2023-08-15T17:10:41Z</time>
      </trkpt>
      <trkpt lat="51.576293958351016" lon="0.042805038392544">
        <ele>13.119999999999999</ele>
        <time>2023-08-15T17:10:42Z</time>
      </trkpt>
      <trkpt lat="51.576377023011446" lon="0.042866980656981">
        <ele>13.119999999999999</ele>
        <time>2023-08-15T17:10:43Z</time>
      </trkpt>
      <trkpt lat="51.576463021337986" lon="0.042931018397212">
        <ele>13.119999999999999</ele>
        <time>2023-08-15T17:10:44Z</time>
      </trkpt>
      <trkpt lat="51.576550025492907" lon="0.042996983975172">
        <ele>13.119999999999999</ele>
        <time>2023-08-15T17:10:45Z</time>
      </trkpt>
      <trkpt lat="51.57664398662746" lon="0.043044006451964">
        <ele>13.6</ele>
        <time>2023-08-15T17:10:46Z</time>
      </trkpt>
      <trkpt lat="51.576744988560677" lon="0.043080970644951">
        <ele>13.6</ele>
        <time>2023-08-15T17:10:47Z</time>
      </trkpt>
      <trkpt lat="51.576851019635797" lon="0.043094968423247">
        <ele>13.6</ele>
        <time>2023-08-15T17:10:48Z</time>
      </trkpt>
      <trkpt lat="51.576961996033788" lon="0.043045012280345">
        <ele>14.08</ele>
        <time>2023-08-15T17:10:55Z</time>
      </trkpt>
      <trkpt lat="51.579078007489443" lon="0.041755037382245">
        <ele>16</ele>
        <time>2023-08-15T17:11:03Z</time>
      </trkpt>
      <trkpt lat="51.581610012799501" lon="0.040208995342255">
        <ele>16.48</ele>
        <time>2023-08-15T17:11:17Z</time>
      </trkpt>
      <trkpt lat="51.583503987640142" lon="0.039629973471165">
        <ele>16.48</ele>
        <time>2023-08-15T17:11:27Z</time>
      </trkpt>
      <trkpt lat="51.585831977427006" lon="0.039417995139956">
        <ele>17.920000000000002</ele>
        <time>2023-08-15T17:11:39Z</time>
      </trkpt>
      <trkpt lat="51.587142990902066" lon="0.038864035159349">
        <ele>22.25</ele>
        <time>2023-08-15T17:11:46Z</time>
      </trkpt>
      <trkpt lat="51.588445035740733" lon="0.037453025579453">
        <ele>25.129999999999999</ele>
        <time>2023-08-15T17:11:54Z</time>
      </trkpt>
      <trkpt lat="51.589477015659213" lon="0.036605028435588">
        <ele>25.129999999999999</ele>
        <time>2023-08-15T17:12:00Z</time>
      </trkpt>
      <trkpt lat="51.589658986777067" lon="0.0365249812603">
        <ele>25.129999999999999</ele>
        <time>2023-08-15T17:12:01Z</time>
      </trkpt>
      <trkpt lat="51.589855961501598" lon="0.036477958783507">
        <ele>25.129999999999999</ele>
        <time>2023-08-15T17:12:02Z</time>
      </trkpt>
      <trkpt lat="51.590053020045161" lon="0.036430014297366">
        <ele>25.129999999999999</ele>
        <time>2023-08-15T17:12:03Z</time>
      </trkpt>
      <trkpt lat="51.590248988941312" lon="0.03639698959887">
        <ele>25.129999999999999</ele>
        <time>2023-08-15T17:12:04Z</time>
      </trkpt>
      <trkpt lat="51.590450992807746" lon="0.036423979327083">
        <ele>25.129999999999999</ele>
        <time>2023-08-15T17:12:05Z</time>
      </trkpt>
      <trkpt lat="51.590641010552645" lon="0.03648298792541">
        <ele>25.129999999999999</ele>
        <time>2023-08-15T17:12:06Z</time>
      </trkpt>
      <trkpt lat="51.590834967792034" lon="0.036566974595189">
        <ele>25.129999999999999</ele>
        <time>2023-08-15T17:12:07Z</time>
      </trkpt>
      <trkpt lat="51.591035965830088" lon="0.036652972921729">
        <ele>25.129999999999999</ele>
        <time>2023-08-15T17:12:08Z</time>
      </trkpt>
      <trkpt lat="51.591216009110212" lon="0.036724973469973">
        <ele>25.129999999999999</ele>
        <time>2023-08-15T17:12:09Z</time>
      </trkpt>
      <trkpt lat="51.592412022873759" lon="0.037697022780776">
        <ele>25.609999999999999</ele>
        <time>2023-08-15T17:12:16Z</time>
      </trkpt>
      <trkpt lat="51.594044985249639" lon="0.038747023791075">
        <ele>30.899999999999999</ele>
        <time>2023-08-15T17:12:25Z</time>
      </trkpt>
      <trkpt lat="51.596042979508638" lon="0.040117967873812">
        <ele>26.09</ele>
        <time>2023-08-15T17:12:36Z</time>
      </trkpt>
      <trkpt lat="51.597594972699881" lon="0.041992999613285">
        <ele>20.809999999999999</ele>
        <time>2023-08-15T17:12:46Z</time>
      </trkpt>
      <trkpt lat="51.599077982828021" lon="0.044513018801808">
        <ele>18.399999999999999</ele>
        <time>2023-08-15T17:12:57Z</time>
      </trkpt>
      <trkpt lat="51.60038698464632" lon="0.046400036662817">
        <ele>16.48</ele>
        <time>2023-08-15T17:13:06Z</time>
      </trkpt>
      <trkpt lat="51.602203007787466" lon="0.048187980428338">
        <ele>15.039999999999999</ele>
        <time>2023-08-15T17:13:17Z</time>
      </trkpt>
      <trkpt lat="51.604065969586372" lon="0.049092974513769">
        <ele>16.960000000000001</ele>
        <time>2023-08-15T17:13:27Z</time>
      </trkpt>
      <trkpt lat="51.605350999161601" lon="0.04898501560092">
        <ele>19.359999999999999</ele>
        <time>2023-08-15T17:13:33Z</time>
      </trkpt>
      <trkpt lat="51.607352010905743" lon="0.048112962394953">
        <ele>18.879999999999999</ele>
        <time>2023-08-15T17:13:42Z</time>
      </trkpt>
      <trkpt lat="51.608717003837228" lon="0.048031993210316">
        <ele>17.920000000000002</ele>
        <time>2023-08-15T17:13:48Z</time>
      </trkpt>
      <trkpt lat="51.610161038115621" lon="0.048765996471047">
        <ele>17.440000000000001</ele>
        <time>2023-08-15T17:13:55Z</time>
      </trkpt>
      <trkpt lat="51.611331989988685" lon="0.05025202408433">
        <ele>18.399999999999999</ele>
        <time>2023-08-15T17:14:02Z</time>
      </trkpt>
      <trkpt lat="51.612510988488793" lon="0.052868016064167">
        <ele>19.359999999999999</ele>
        <time>2023-08-15T17:14:11Z</time>
      </trkpt>
      <trkpt lat="51.613955022767186" lon="0.056447004899383">
        <ele>23.690000000000001</ele>
        <time>2023-08-15T17:14:23Z</time>
      </trkpt>
      <trkpt lat="51.615330995991826" lon="0.059142960235476">
        <ele>25.129999999999999</ele>
        <time>2023-08-15T17:14:33Z</time>
      </trkpt>
      <trkpt lat="51.616719039157033" lon="0.060969041660428">
        <ele>26.09</ele>
        <time>2023-08-15T17:14:41Z</time>
      </trkpt>
      <trkpt lat="51.618209006264806" lon="0.062289023771882">
        <ele>25.129999999999999</ele>
        <time>2023-08-15T17:14:48Z</time>
      </trkpt>
      <trkpt lat="51.619927966967225" lon="0.063212038949132">
        <ele>26.09</ele>
        <time>2023-08-15T17:14:56Z</time>
      </trkpt>
      <trkpt lat="51.622260985895991" lon="0.063738003373146">
        <ele>25.129999999999999</ele>
        <time>2023-08-15T17:15:05Z</time>
      </trkpt>
      <trkpt lat="51.624886030331254" lon="0.064512994140387">
        <ele>23.210000000000001</ele>
        <time>2023-08-15T17:15:15Z</time>
      </trkpt>
      <trkpt lat="51.627139002084732" lon="0.065946970134974">
        <ele>24.170000000000002</ele>
        <time>2023-08-15T17:15:24Z</time>
      </trkpt>
      <trkpt lat="51.629405971616507" lon="0.068289041519165">
        <ele>28.5</ele>
        <time>2023-08-15T17:15:34Z</time>
      </trkpt>
      <trkpt lat="51.63218499161303" lon="0.071859983727336">
        <ele>30.420000000000002</ele>
        <time>2023-08-15T17:15:47Z</time>
      </trkpt>
      <trkpt lat="51.635503973811865" lon="0.076471036300063">
        <ele>22.25</ele>
        <time>2023-08-15T17:16:03Z</time>
      </trkpt>
      <trkpt lat="51.637917961925268" lon="0.080027980729938">
        <ele>21.77</ele>
        <time>2023-08-15T17:16:15Z</time>
      </trkpt>
      <trkpt lat="51.640838971361518" lon="0.084644984453917">
        <ele>28.5</ele>
        <time>2023-08-15T17:16:30Z</time>
      </trkpt>
      <trkpt lat="51.644212016835809" lon="0.090394970029593">
        <ele>27.530000000000001</ele>
        <time>2023-08-15T17:16:48Z</time>
      </trkpt>
      <trkpt lat="51.646934039890766" lon="0.094717014580965">
        <ele>24.170000000000002</ele>
        <time>2023-08-15T17:17:02Z</time>
      </trkpt>
      <trkpt lat="51.649825964123011" lon="0.098548969253898">
        <ele>25.609999999999999</ele>
        <time>2023-08-15T17:17:16Z</time>
      </trkpt>
      <trkpt lat="51.653147963806987" lon="0.10220498777926">
        <ele>28.5</ele>
        <time>2023-08-15T17:17:31Z</time>
      </trkpt>
      <trkpt lat="51.655841991305351" lon="0.105035975575447">
        <ele>33.299999999999997</ele>
        <time>2023-08-15T17:17:43Z</time>
      </trkpt>
      <trkpt lat="51.659715017303824" lon="0.108881006017327">
        <ele>45.799999999999997</ele>
        <time>2023-08-15T17:18:00Z</time>
      </trkpt>
      <trkpt lat="51.663071969524026" lon="0.112082976847887">
        <ele>63.100000000000001</ele>
        <time>2023-08-15T17:18:15Z</time>
      </trkpt>
      <trkpt lat="51.664780033752322" lon="0.113660031929612">
        <ele>69.829999999999998</ele>
        <time>2023-08-15T17:18:23Z</time>
      </trkpt>
      <trkpt lat="51.668152995407581" lon="0.116432011127472">
        <ele>74.640000000000001</ele>
        <time>2023-08-15T17:18:37Z</time>
      </trkpt>
      <trkpt lat="51.671377010643482" lon="0.118738962337375">
        <ele>71.760000000000005</ele>
        <time>2023-08-15T17:18:50Z</time>
      </trkpt>
      <trkpt lat="51.675438964739442" lon="0.121266022324562">
        <ele>58.299999999999997</ele>
        <time>2023-08-15T17:19:06Z</time>
      </trkpt>
      <trkpt lat="51.677853036671877" lon="0.123182963579893">
        <ele>48.68</ele>
        <time>2023-08-15T17:19:16Z</time>
      </trkpt>
      <trkpt lat="51.67940896935761" lon="0.124840987846255">
        <ele>41.950000000000003</ele>
        <time>2023-08-15T17:19:23Z</time>
      </trkpt>
      <trkpt lat="51.680662985891104" lon="0.126518961042166">
        <ele>41.950000000000003</ele>
        <time>2023-08-15T17:19:29Z</time>
      </trkpt>
      <trkpt lat="51.68086901307106" lon="0.126791037619114">
        <ele>41.950000000000003</ele>
        <time>2023-08-15T17:19:30Z</time>
      </trkpt>
      <trkpt lat="51.683622971177101" lon="0.130286039784551">
        <ele>47.719999999999999</ele>
        <time>2023-08-15T17:19:43Z</time>
      </trkpt>
      <trkpt lat="51.686093034222722" lon="0.132976965978742">
        <ele>51.090000000000003</ele>
        <time>2023-08-15T17:19:54Z</time>
      </trkpt>
      <trkpt lat="51.687538996338844" lon="0.134353023022413">
        <ele>52.530000000000001</ele>
        <time>2023-08-15T17:20:01Z</time>
      </trkpt>
      <trkpt lat="51.690483978018165" lon="0.136797018349171">
        <ele>58.780000000000001</ele>
        <time>2023-08-15T17:20:15Z</time>
      </trkpt>
      <trkpt lat="51.693427031859756" lon="0.138618992641568">
        <ele>69.349999999999994</ele>
        <time>2023-08-15T17:20:28Z</time>
      </trkpt>
      <trkpt lat="51.696084011346102" lon="0.139809977263212">
        <ele>81.370000000000005</ele>
        <time>2023-08-15T17:20:39Z</time>
      </trkpt>
      <trkpt lat="51.698535969480872" lon="0.140948994085193">
        <ele>92.420000000000002</ele>
        <time>2023-08-15T17:20:50Z</time>
      </trkpt>
      <trkpt lat="51.700972001999617" lon="0.142654040828347">
        <ele>105.40000000000001</ele>
        <time>2023-08-15T17:21:01Z</time>
      </trkpt>
      <trkpt lat="51.703297980129719" lon="0.14440200291574">
        <ele>111.17</ele>
        <time>2023-08-15T17:21:13Z</time>
      </trkpt>
      <trkpt lat="51.705493032932281" lon="0.145431971177459">
        <ele>113.09</ele>
        <time>2023-08-15T17:21:24Z</time>
      </trkpt>
      <trkpt lat="51.708125034347177" lon="0.14595097862184">
        <ele>113.56999999999999</ele>
        <time>2023-08-15T17:21:35Z</time>
      </trkpt>
      <trkpt lat="51.71053902246058" lon="0.145701030269265">
        <ele>112.13</ele>
        <time>2023-08-15T17:21:44Z</time>
      </trkpt>
      <trkpt lat="51.713264985010028" lon="0.144754964858294">
        <ele>103.48</ele>
        <time>2023-08-15T17:21:54Z</time>
      </trkpt>
      <trkpt lat="51.71720297075808" lon="0.143189979717135">
        <ele>90.019999999999996</ele>
        <time>2023-08-15T17:22:09Z</time>
      </trkpt>
      <trkpt lat="51.720547014847398" lon="0.142136039212346">
        <ele>79.450000000000003</ele>
        <time>2023-08-15T17:22:22Z</time>
      </trkpt>
      <trkpt lat="51.723315976560116" lon="0.141421984881163">
        <ele>76.560000000000002</ele>
        <time>2023-08-15T17:22:33Z</time>
      </trkpt>
      <trkpt lat="51.725610019639134" lon="0.140887973830104">
        <ele>73.680000000000007</ele>
        <time>2023-08-15T17:22:42Z</time>
      </trkpt>
      <trkpt lat="51.728944005444646" lon="0.13986898586154">
        <ele>73.680000000000007</ele>
        <time>2023-08-15T17:22:55Z</time>
      </trkpt>
      <trkpt lat="51.732268016785383" lon="0.138595020398498">
        <ele>77.519999999999996</ele>
        <time>2023-08-15T17:23:08Z</time>
      </trkpt>
      <trkpt lat="51.735937027260661" lon="0.137030035257339">
        <ele>82.329999999999998</ele>
        <time>2023-08-15T17:23:22Z</time>
      </trkpt>
      <trkpt lat="51.738630970939994" lon="0.13653701171279">
        <ele>87.620000000000005</ele>
        <time>2023-08-15T17:23:32Z</time>
      </trkpt>
      <trkpt lat="51.7413280159235" lon="0.136897014454007">
        <ele>92.900000000000006</ele>
        <time>2023-08-15T17:23:42Z</time>
      </trkpt>
      <trkpt lat="51.743910983204842" lon="0.138015998527408">
        <ele>96.75</ele>
        <time>2023-08-15T17:23:52Z</time>
      </trkpt>
      <trkpt lat="51.74614098854363" lon="0.139738982543349">
        <ele>94.349999999999994</ele>
        <time>2023-08-15T17:24:01Z</time>
      </trkpt>
      <trkpt lat="51.749915024265647" lon="0.143246976658702">
        <ele>99.629999999999995</ele>
        <time>2023-08-15T17:24:17Z</time>
      </trkpt>
      <trkpt lat="51.752416016533971" lon="0.144912041723728">
        <ele>99.150000000000006</ele>
        <time>2023-08-15T17:24:27Z</time>
      </trkpt>
      <trkpt lat="51.755281034857035" lon="0.14625197276473">
        <ele>96.75</ele>
        <time>2023-08-15T17:24:38Z</time>
      </trkpt>
      <trkpt lat="51.75892498344183" lon="0.147894993424416">
        <ele>93.870000000000005</ele>
        <time>2023-08-15T17:24:52Z</time>
      </trkpt>
      <trkpt lat="51.762185040861368" lon="0.150002958253026">
        <ele>97.230000000000004</ele>
        <time>2023-08-15T17:25:05Z</time>
      </trkpt>
      <trkpt lat="51.764605985954404" lon="0.151993995532393">
        <ele>94.349999999999994</ele>
        <time>2023-08-15T17:25:15Z</time>
      </trkpt>
      <trkpt lat="51.767350975424051" lon="0.154847027733922">
        <ele>91.459999999999994</ele>
        <time>2023-08-15T17:25:27Z</time>
      </trkpt>
      <trkpt lat="51.77024801261723" lon="0.158056961372495">
        <ele>84.25</ele>
        <time>2023-08-15T17:25:40Z</time>
      </trkpt>
      <trkpt lat="51.772991996258497" lon="0.160831036046147">
        <ele>80.890000000000001</ele>
        <time>2023-08-15T17:25:52Z</time>
      </trkpt>
      <trkpt lat="51.776589006185532" lon="0.163870984688401">
        <ele>83.769999999999996</ele>
        <time>2023-08-15T17:26:07Z</time>
      </trkpt>
      <trkpt lat="51.77851801738143" lon="0.165227008983493">
        <ele>87.620000000000005</ele>
        <time>2023-08-15T17:26:15Z</time>
      </trkpt>
      <trkpt lat="51.781541034579277" lon="0.167139004915953">
        <ele>87.140000000000001</ele>
        <time>2023-08-15T17:26:28Z</time>
      </trkpt>
      <trkpt lat="51.78361396305263" lon="0.168266035616398">
        <ele>84.730000000000004</ele>
        <time>2023-08-15T17:26:37Z</time>
      </trkpt>
      <trkpt lat="51.785668032243848" lon="0.168914962559938">
        <ele>82.810000000000002</ele>
        <time>2023-08-15T17:26:47Z</time>
      </trkpt>
      <trkpt lat="51.787484977394342" lon="0.169356018304825">
        <ele>82.329999999999998</ele>
        <time>2023-08-15T17:26:57Z</time>
      </trkpt>
      <trkpt lat="51.787734003737569" lon="0.169318970292807">
        <ele>82.329999999999998</ele>
        <time>2023-08-15T17:26:59Z</time>
      </trkpt>
      <trkpt lat="51.787833999842405" lon="0.16928200609982">
        <ele>82.329999999999998</ele>
        <time>2023-08-15T17:27:00Z</time>
      </trkpt>
      <trkpt lat="51.787913963198662" lon="0.169208999723196">
        <ele>81.849999999999994</ele>
        <time>2023-08-15T17:27:01Z</time>
      </trkpt>
      <trkpt lat="51.787986969575286" lon="0.169142028316855">
        <ele>81.849999999999994</ele>
        <time>2023-08-15T17:27:02Z</time>
      </trkpt>
      <trkpt lat="51.788060981780291" lon="0.169073967263103">
        <ele>81.370000000000005</ele>
        <time>2023-08-15T17:27:03Z</time>
      </trkpt>
      <trkpt lat="51.788114039227366" lon="0.168893001973629">
        <ele>80.890000000000001</ele>
        <time>2023-08-15T17:27:04Z</time>
      </trkpt>
      <trkpt lat="51.788212023675442" lon="0.168843967840075">
        <ele>80.409999999999997</ele>
        <time>2023-08-15T17:27:05Z</time>
      </trkpt>
      <trkpt lat="51.788331968709826" lon="0.168738020583987">
        <ele>80.409999999999997</ele>
        <time>2023-08-15T17:27:06Z</time>
      </trkpt>
      <trkpt lat="51.788427019491792" lon="0.168595025315881">
        <ele>79.930000000000007</ele>
        <time>2023-08-15T17:27:07Z</time>
      </trkpt>
      <trkpt lat="51.788533972576261" lon="0.168435014784336">
        <ele>79.930000000000007</ele>
        <time>2023-08-15T17:27:08Z</time>
      </trkpt>
      <trkpt lat="51.789405019953847" lon="0.166855026036501">
        <ele>75.599999999999994</ele>
        <time>2023-08-15T17:27:15Z</time>
      </trkpt>
      <trkpt lat="51.790329040959477" lon="0.16472602263093">
        <ele>68.870000000000005</ele>
        <time>2023-08-15T17:27:23Z</time>
      </trkpt>
      <trkpt lat="51.790618970990181" lon="0.1630939822644">
        <ele>63.579999999999998</ele>
        <time>2023-08-15T17:27:30Z</time>
      </trkpt>
      <trkpt lat="51.79059499874711" lon="0.161318024620414">
        <ele>56.859999999999999</ele>
        <time>2023-08-15T17:27:38Z</time>
      </trkpt>
      <trkpt lat="51.790544958785176" lon="0.160989034920931">
        <ele>55.409999999999997</ele>
        <time>2023-08-15T17:27:40Z</time>
      </trkpt>
      <trkpt lat="51.790516963228583" lon="0.160803962498903">
        <ele>54.93</ele>
        <time>2023-08-15T17:27:41Z</time>
      </trkpt>
      <trkpt lat="51.790478993207216" lon="0.160702038556337">
        <ele>54.450000000000003</ele>
        <time>2023-08-15T17:27:42Z</time>
      </trkpt>
      <trkpt lat="51.790386959910393" lon="0.160592989996076">
        <ele>53.969999999999999</ele>
        <time>2023-08-15T17:27:43Z</time>
      </trkpt>
      <trkpt lat="51.790318982675672" lon="0.160530041903257">
        <ele>53.969999999999999</ele>
        <time>2023-08-15T17:27:44Z</time>
      </trkpt>
      <trkpt lat="51.790253017097712" lon="0.160439014434814">
        <ele>53.969999999999999</ele>
        <time>2023-08-15T17:27:45Z</time>
      </trkpt>
      <trkpt lat="51.790228961035609" lon="0.160324014723301">
        <ele>53.969999999999999</ele>
        <time>2023-08-15T17:27:46Z</time>
      </trkpt>
      <trkpt lat="51.790214041247964" lon="0.16017397865653">
        <ele>53.969999999999999</ele>
        <time>2023-08-15T17:27:47Z</time>
      </trkpt>
      <trkpt lat="51.790133994072676" lon="0.159934004768729">
        <ele>53.969999999999999</ele>
        <time>2023-08-15T17:27:48Z</time>
      </trkpt>
      <trkpt lat="51.790038021281362" lon="0.159847000613809">
        <ele>53.969999999999999</ele>
        <time>2023-08-15T17:27:49Z</time>
      </trkpt>
      <trkpt lat="51.789930984377861" lon="0.159749016165733">
        <ele>54.450000000000003</ele>
        <time>2023-08-15T17:27:50Z</time>
      </trkpt>
      <trkpt lat="51.789813973009586" lon="0.159639967605472">
        <ele>54.450000000000003</ele>
        <time>2023-08-15T17:27:51Z</time>
      </trkpt>
      <trkpt lat="51.788934962823987" lon="0.158694991841912">
        <ele>58.780000000000001</ele>
        <time>2023-08-15T17:27:59Z</time>
      </trkpt>
      <trkpt lat="51.788068022578955" lon="0.157210975885391">
        <ele>63.100000000000001</ele>
        <time>2023-08-15T17:28:09Z</time>
      </trkpt>
      <trkpt lat="51.787663009017706" lon="0.156217971816659">
        <ele>64.069999999999993</ele>
        <time>2023-08-15T17:28:16Z</time>
      </trkpt>
      <trkpt lat="51.787644987925887" lon="0.156162986531854">
        <ele>64.069999999999993</ele>
        <time>2023-08-15T17:28:17Z</time>
      </trkpt>
      <trkpt lat="51.787577010691166" lon="0.156140020117164">
        <ele>64.549999999999997</ele>
        <time>2023-08-15T17:28:18Z</time>
      </trkpt>
      <trkpt lat="51.787553038448095" lon="0.156172960996628">
        <ele>64.549999999999997</ele>
        <time>2023-08-15T17:28:19Z</time>
      </trkpt>
      <trkpt lat="51.787526970729232" lon="0.156206991523504">
        <ele>65.030000000000001</ele>
        <time>2023-08-15T17:28:20Z</time>
      </trkpt>
      <trkpt lat="51.787491012364626" lon="0.156296007335186">
        <ele>65.030000000000001</ele>
        <time>2023-08-15T17:28:21Z</time>
      </trkpt>
      <trkpt lat="51.787511967122555" lon="0.156423998996615">
        <ele>65.510000000000005</ele>
        <time>2023-08-15T17:28:22Z</time>
      </trkpt>
      <trkpt lat="51.787544991821051" lon="0.156490970402956">
        <ele>65.989999999999995</ele>
        <time>2023-08-15T17:28:23Z</time>
      </trkpt>
      <trkpt lat="51.787579022347927" lon="0.156558025628328">
        <ele>65.989999999999995</ele>
        <time>2023-08-15T17:28:24Z</time>
      </trkpt>
      <trkpt lat="51.787604000419378" lon="0.156608987599611">
        <ele>66.469999999999999</ele>
        <time>2023-08-15T17:28:25Z</time>
      </trkpt>
      <trkpt lat="51.787623027339578" lon="0.156646035611629">
        <ele>66.469999999999999</ele>
        <time>2023-08-15T17:28:26Z</time>
      </trkpt>
      <trkpt lat="51.787636019289494" lon="0.156673025339842">
        <ele>66.469999999999999</ele>
        <time>2023-08-15T17:28:27Z</time>
      </trkpt>
      <trkpt lat="51.787641970440745" lon="0.156684005632997">
        <ele>66.469999999999999</ele>
        <time>2023-08-15T17:28:38Z</time>
      </trkpt>
      <trkpt lat="51.787640964612365" lon="0.156718958169222">
        <ele>66.469999999999999</ele>
        <time>2023-08-15T17:28:41Z</time>
      </trkpt>
      <trkpt lat="51.787640964612365" lon="0.156721975654364">
        <ele>66.469999999999999</ele>
        <time>2023-08-15T17:28:52Z</time>
      </trkpt>
      <trkpt lat="51.787582039833069" lon="0.156758017838001">
        <ele>66.469999999999999</ele>
        <time>2023-08-15T17:29:07Z</time>
      </trkpt>
      <trkpt lat="51.787573993206024" lon="0.156762963160872">
        <ele>66.469999999999999</ele>
        <time>2023-08-15T17:29:59Z</time>
      </trkpt>
      <trkpt lat="51.787571981549263" lon="0.156766986474395">
        <ele>66.469999999999999</ele>
        <time>2023-08-15T17:30:44Z</time>
      </trkpt>
      <trkpt lat="51.787551026791334" lon="0.156641006469727">
        <ele>76.560000000000002</ele>
        <time>2023-08-15T17:31:22Z</time>
      </trkpt>
      <trkpt lat="51.787524037063122" lon="0.15673303976655">
        <ele>74.640000000000001</ele>
        <time>2023-08-15T17:32:03Z</time>
      </trkpt>
      <trkpt lat="51.787583967670798" lon="0.156763968989253">
        <ele>69.829999999999998</ele>
        <time>2023-08-15T17:32:47Z</time>
      </trkpt>
      <trkpt lat="51.787572987377644" lon="0.156770003959537">
        <ele>69.349999999999994</ele>
        <time>2023-08-15T17:33:46Z</time>
      </trkpt>
      <trkpt lat="51.787545997649431" lon="0.156973013654351">
        <ele>61.659999999999997</ele>
        <time>2023-08-15T17:49:39Z</time>
      </trkpt>
      <trkpt lat="51.787583967670798" lon="0.156694985926151">
        <ele>68.870000000000005</ele>
        <time>2023-08-15T17:49:50Z</time>
      </trkpt>
      <trkpt lat="51.787587990984321" lon="0.156695991754532">
        <ele>68.870000000000005</ele>
        <time>2023-08-15T17:49:51Z</time>
      </trkpt>
      <trkpt lat="51.787621015682817" lon="0.156643018126488">
        <ele>69.349999999999994</ele>
        <time>2023-08-15T17:49:53Z</time>
      </trkpt>
      <trkpt lat="51.787610035389662" lon="0.156619967892766">
        <ele>69.349999999999994</ele>
        <time>2023-08-15T17:49:54Z</time>
      </trkpt>
      <trkpt lat="51.787585979327559" lon="0.156573029235005">
        <ele>69.349999999999994</ele>
        <time>2023-08-15T17:49:55Z</time>
      </trkpt>
      <trkpt lat="51.787553960457444" lon="0.156507985666394">
        <ele>69.349999999999994</ele>
        <time>2023-08-15T17:49:56Z</time>
      </trkpt>
      <trkpt lat="51.787511967122555" lon="0.156426010653377">
        <ele>68.390000000000001</ele>
        <time>2023-08-15T17:49:57Z</time>
      </trkpt>
      <trkpt lat="51.787491012364626" lon="0.156276980414987">
        <ele>67.909999999999997</ele>
        <time>2023-08-15T17:49:58Z</time>
      </trkpt>
      <trkpt lat="51.787491012364626" lon="0.156255019828677">
        <ele>67.430000000000007</ele>
        <time>2023-08-15T17:49:59Z</time>
      </trkpt>
      <trkpt lat="51.787595031782985" lon="0.155999036505818">
        <ele>67.430000000000007</ele>
        <time>2023-08-15T17:50:00Z</time>
      </trkpt>
      <trkpt lat="51.787582039833069" lon="0.155956959351897">
        <ele>66.950000000000003</ele>
        <time>2023-08-15T17:50:01Z</time>
      </trkpt>
      <trkpt lat="51.787524959072471" lon="0.155769037082791">
        <ele>65.510000000000005</ele>
        <time>2023-08-15T17:50:06Z</time>
      </trkpt>
      <trkpt lat="51.787485983222723" lon="0.155640039592981">
        <ele>65.030000000000001</ele>
        <time>2023-08-15T17:50:07Z</time>
      </trkpt>
      <trkpt lat="51.78711399435997" lon="0.154329026117921">
        <ele>62.619999999999997</ele>
        <time>2023-08-15T17:50:14Z</time>
      </trkpt>
      <trkpt lat="51.786420978605747" lon="0.151919983327389">
        <ele>59.259999999999998</ele>
        <time>2023-08-15T17:50:24Z</time>
      </trkpt>
      <trkpt lat="51.785793006420135" lon="0.149768013507128">
        <ele>56.369999999999997</ele>
        <time>2023-08-15T17:50:34Z</time>
      </trkpt>
      <trkpt lat="51.785666020587087" lon="0.149335004389286">
        <ele>54.450000000000003</ele>
        <time>2023-08-15T17:50:40Z</time>
      </trkpt>
      <trkpt lat="51.785560995340347" lon="0.148981958627701">
        <ele>52.049999999999997</ele>
        <time>2023-08-15T17:50:50Z</time>
      </trkpt>
      <trkpt lat="51.785488994792104" lon="0.148976007476449">
        <ele>50.609999999999999</ele>
        <time>2023-08-15T17:51:05Z</time>
      </trkpt>
      <trkpt lat="51.7852439917624" lon="0.148797975853086">
        <ele>50.609999999999999</ele>
        <time>2023-08-15T17:51:10Z</time>
      </trkpt>
      <trkpt lat="51.78517903201282" lon="0.148728992789984">
        <ele>50.609999999999999</ele>
        <time>2023-08-15T17:51:11Z</time>
      </trkpt>
      <trkpt lat="51.785126980394125" lon="0.14861298725009">
        <ele>50.609999999999999</ele>
        <time>2023-08-15T17:51:12Z</time>
      </trkpt>
      <trkpt lat="51.785109965130687" lon="0.148497987538576">
        <ele>50.609999999999999</ele>
        <time>2023-08-15T17:51:13Z</time>
      </trkpt>
      <trkpt lat="51.785109965130687" lon="0.14837603084743">
        <ele>50.609999999999999</ele>
        <time>2023-08-15T17:51:14Z</time>
      </trkpt>
      <trkpt lat="51.785109965130687" lon="0.148250972852111">
        <ele>50.609999999999999</ele>
        <time>2023-08-15T17:51:15Z</time>
      </trkpt>
      <trkpt lat="51.78511600010097" lon="0.148175032809377">
        <ele>50.609999999999999</ele>
        <time>2023-08-15T17:51:16Z</time>
      </trkpt>
      <trkpt lat="51.785121029242873" lon="0.14811803586781">
        <ele>50.609999999999999</ele>
        <time>2023-08-15T17:51:17Z</time>
      </trkpt>
      <trkpt lat="51.785123962908983" lon="0.14807696454227">
        <ele>50.609999999999999</ele>
        <time>2023-08-15T17:51:18Z</time>
      </trkpt>
      <trkpt lat="51.785126980394125" lon="0.148044023662806">
        <ele>50.609999999999999</ele>
        <time>2023-08-15T17:51:19Z</time>
      </trkpt>
      <trkpt lat="51.785128992050886" lon="0.148014016449451">
        <ele>50.130000000000003</ele>
        <time>2023-08-15T17:51:31Z</time>
      </trkpt>
      <trkpt lat="51.785107031464577" lon="0.147612020373344">
        <ele>50.609999999999999</ele>
        <time>2023-08-15T17:52:03Z</time>
      </trkpt>
      <trkpt lat="51.785055985674262" lon="0.14747497625649">
        <ele>50.609999999999999</ele>
        <time>2023-08-15T17:52:04Z</time>
      </trkpt>
      <trkpt lat="51.784997982904315" lon="0.147317983210087">
        <ele>50.609999999999999</ele>
        <time>2023-08-15T17:52:05Z</time>
      </trkpt>
      <trkpt lat="51.784935034811497" lon="0.147147998213768">
        <ele>50.609999999999999</ele>
        <time>2023-08-15T17:52:06Z</time>
      </trkpt>
      <trkpt lat="51.784867979586124" lon="0.146968038752675">
        <ele>50.609999999999999</ele>
        <time>2023-08-15T17:52:07Z</time>
      </trkpt>
      <trkpt lat="51.784058958292007" lon="0.145280007272959">
        <ele>50.130000000000003</ele>
        <time>2023-08-15T17:52:16Z</time>
      </trkpt>
      <trkpt lat="51.783185983076692" lon="0.143973017111421">
        <ele>50.609999999999999</ele>
        <time>2023-08-15T17:52:25Z</time>
      </trkpt>
      <trkpt lat="51.781964991241693" lon="0.142288003116846">
        <ele>52.049999999999997</ele>
        <time>2023-08-15T17:52:36Z</time>
      </trkpt>
      <trkpt lat="51.781044993549585" lon="0.140587985515594">
        <ele>53.009999999999998</ele>
        <time>2023-08-15T17:52:45Z</time>
      </trkpt>
      <trkpt lat="51.780505031347275" lon="0.138457976281643">
        <ele>54.450000000000003</ele>
        <time>2023-08-15T17:52:54Z</time>
      </trkpt>
      <trkpt lat="51.78023798391223" lon="0.135556999593973">
        <ele>59.740000000000002</ele>
        <time>2023-08-15T17:53:05Z</time>
      </trkpt>
      <trkpt lat="51.78006699308753" lon="0.133647015318275">
        <ele>62.619999999999997</ele>
        <time>2023-08-15T17:53:13Z</time>
      </trkpt>
      <trkpt lat="51.780052995309234" lon="0.133484993129969">
        <ele>63.100000000000001</ele>
        <time>2023-08-15T17:53:14Z</time>
      </trkpt>
      <trkpt lat="51.780013013631105" lon="0.133351972326636">
        <ele>63.579999999999998</ele>
        <time>2023-08-15T17:53:15Z</time>
      </trkpt>
      <trkpt lat="51.779965991154313" lon="0.133279971778393">
        <ele>63.579999999999998</ele>
        <time>2023-08-15T17:53:16Z</time>
      </trkpt>
      <trkpt lat="51.779921986162663" lon="0.133210988715291">
        <ele>64.069999999999993</ele>
        <time>2023-08-15T17:53:17Z</time>
      </trkpt>
      <trkpt lat="51.779869012534618" lon="0.133130019530654">
        <ele>64.549999999999997</ele>
        <time>2023-08-15T17:53:18Z</time>
      </trkpt>
      <trkpt lat="51.779804974794388" lon="0.133032035082579">
        <ele>64.549999999999997</ele>
        <time>2023-08-15T17:53:19Z</time>
      </trkpt>
      <trkpt lat="51.779675977304578" lon="0.132802035659552">
        <ele>65.510000000000005</ele>
        <time>2023-08-15T17:53:21Z</time>
      </trkpt>
      <trkpt lat="51.779660973697901" lon="0.132668009027839">
        <ele>65.510000000000005</ele>
        <time>2023-08-15T17:53:22Z</time>
      </trkpt>
      <trkpt lat="51.779683018103242" lon="0.132515961304307">
        <ele>65.030000000000001</ele>
        <time>2023-08-15T17:53:23Z</time>
      </trkpt>
      <trkpt lat="51.779709002003074" lon="0.13237196020782">
        <ele>65.030000000000001</ele>
        <time>2023-08-15T17:53:24Z</time>
      </trkpt>
      <trkpt lat="51.779759963974357" lon="0.132251009345055">
        <ele>65.030000000000001</ele>
        <time>2023-08-15T17:53:25Z</time>
      </trkpt>
      <trkpt lat="51.779830036684871" lon="0.132180014625192">
        <ele>65.030000000000001</ele>
        <time>2023-08-15T17:53:26Z</time>
      </trkpt>
      <trkpt lat="51.779926009476185" lon="0.132175991311669">
        <ele>65.030000000000001</ele>
        <time>2023-08-15T17:53:27Z</time>
      </trkpt>
      <trkpt lat="51.780017958953977" lon="0.132199041545391">
        <ele>65.030000000000001</ele>
        <time>2023-08-15T17:53:28Z</time>
      </trkpt>
      <trkpt lat="51.780091971158981" lon="0.132295014336705">
        <ele>65.030000000000001</ele>
        <time>2023-08-15T17:53:29Z</time>
      </trkpt>
      <trkpt lat="51.780131030827761" lon="0.132351005449891">
        <ele>65.030000000000001</ele>
        <time>2023-08-15T17:53:30Z</time>
      </trkpt>
      <trkpt lat="51.780296992510557" lon="0.132529959082603">
        <ele>65.510000000000005</ele>
        <time>2023-08-15T17:53:31Z</time>
      </trkpt>
      <trkpt lat="51.780385002493858" lon="0.132519984617829">
        <ele>65.030000000000001</ele>
        <time>2023-08-15T17:53:32Z</time>
      </trkpt>
      <trkpt lat="51.780468989163637" lon="0.132510010153055">
        <ele>65.030000000000001</ele>
        <time>2023-08-15T17:53:33Z</time>
      </trkpt>
      <trkpt lat="51.780543001368642" lon="0.132501041516662">
        <ele>64.549999999999997</ele>
        <time>2023-08-15T17:53:34Z</time>
      </trkpt>
      <trkpt lat="51.7807109747082" lon="0.132482014596462">
        <ele>63.579999999999998</ele>
        <time>2023-08-15T17:53:36Z</time>
      </trkpt>
      <trkpt lat="51.781317992135882" lon="0.13245795853436">
        <ele>60.700000000000003</ele>
        <time>2023-08-15T17:53:42Z</time>
      </trkpt>
      <trkpt lat="51.781417988240719" lon="0.132467010989785">
        <ele>60.700000000000003</ele>
        <time>2023-08-15T17:53:43Z</time>
      </trkpt>
      <trkpt lat="51.782438987866044" lon="0.132599025964737">
        <ele>60.700000000000003</ele>
        <time>2023-08-15T17:53:54Z</time>
      </trkpt>
      <trkpt lat="51.782917007803917" lon="0.132502969354391">
        <ele>63.100000000000001</ele>
        <time>2023-08-15T17:54:00Z</time>
      </trkpt>
      <trkpt lat="51.782951038330793" lon="0.132547980174422">
        <ele>63.100000000000001</ele>
        <time>2023-08-15T17:54:01Z</time>
      </trkpt>
      <trkpt lat="51.782964030280709" lon="0.13256499543786">
        <ele>63.100000000000001</ele>
        <time>2023-08-15T17:54:02Z</time>
      </trkpt>
      <trkpt lat="51.78290301002562" lon="0.132691981270909">
        <ele>63.100000000000001</ele>
        <time>2023-08-15T17:54:03Z</time>
      </trkpt>
      <trkpt lat="51.782909967005253" lon="0.132776973769069">
        <ele>63.100000000000001</ele>
        <time>2023-08-15T17:54:04Z</time>
      </trkpt>
      <trkpt lat="51.782918013632298" lon="0.132874036207795">
        <ele>63.579999999999998</ele>
        <time>2023-08-15T17:54:05Z</time>
      </trkpt>
      <trkpt lat="51.782955983653665" lon="0.133548025041819">
        <ele>63.579999999999998</ele>
        <time>2023-08-15T17:54:11Z</time>
      </trkpt>
      <trkpt lat="51.782949026674032" lon="0.133669981732965">
        <ele>63.579999999999998</ele>
        <time>2023-08-15T17:54:12Z</time>
      </trkpt>
      <trkpt lat="51.782940980046988" lon="0.133792022243142">
        <ele>63.100000000000001</ele>
        <time>2023-08-15T17:54:13Z</time>
      </trkpt>
      <trkpt lat="51.782923964783549" lon="0.134165016934276">
        <ele>62.619999999999997</ele>
        <time>2023-08-15T17:54:16Z</time>
      </trkpt>
      <trkpt lat="51.782929999753833" lon="0.134288985282183">
        <ele>62.619999999999997</ele>
        <time>2023-08-15T17:54:17Z</time>
      </trkpt>
      <trkpt lat="51.782937040552497" lon="0.134421000257134">
        <ele>62.619999999999997</ele>
        <time>2023-08-15T17:54:18Z</time>
      </trkpt>
      <trkpt lat="51.7829679697752" lon="0.13456198386848">
        <ele>62.619999999999997</ele>
        <time>2023-08-15T17:54:19Z</time>
      </trkpt>
      <trkpt lat="51.783021027222276" lon="0.134653011336923">
        <ele>63.100000000000001</ele>
        <time>2023-08-15T17:54:20Z</time>
      </trkpt>
      <trkpt lat="51.78307400085032" lon="0.134743032976985">
        <ele>63.100000000000001</ele>
        <time>2023-08-15T17:54:21Z</time>
      </trkpt>
      <trkpt lat="51.783143989741802" lon="0.134818973019719">
        <ele>63.100000000000001</ele>
        <time>2023-08-15T17:54:22Z</time>
      </trkpt>
      <trkpt lat="51.783242980018258" lon="0.134903965517879">
        <ele>63.100000000000001</ele>
        <time>2023-08-15T17:54:23Z</time>
      </trkpt>
      <trkpt lat="51.783299976959825" lon="0.134931039065123">
        <ele>63.100000000000001</ele>
        <time>2023-08-15T17:54:24Z</time>
      </trkpt>
      <trkpt lat="51.783371977508068" lon="0.134964985772967">
        <ele>63.100000000000001</ele>
        <time>2023-08-15T17:54:25Z</time>
      </trkpt>
      <trkpt lat="51.783427968621254" lon="0.134990969672799">
        <ele>63.100000000000001</ele>
        <time>2023-08-15T17:54:26Z</time>
      </trkpt>
      <trkpt lat="51.783475996926427" lon="0.135014019906521">
        <ele>63.579999999999998</ele>
        <time>2023-08-15T17:54:27Z</time>
      </trkpt>
      <trkpt lat="51.783522013574839" lon="0.13503598049283">
        <ele>64.069999999999993</ele>
        <time>2023-08-15T17:54:28Z</time>
      </trkpt>
      <trkpt lat="51.783651011064649" lon="0.13496900908649">
        <ele>64.069999999999993</ele>
        <time>2023-08-15T17:54:29Z</time>
      </trkpt>
      <trkpt lat="51.783651011064649" lon="0.13496900908649">
        <ele>64.069999999999993</ele>
        <time>2023-08-15T17:54:30Z</time>
      </trkpt>
      <trkpt lat="51.783670959994197" lon="0.134954005479813">
        <ele>64.549999999999997</ele>
        <time>2023-08-15T17:54:31Z</time>
      </trkpt>
      <trkpt lat="51.783714964985847" lon="0.134921986609697">
        <ele>64.549999999999997</ele>
        <time>2023-08-15T17:54:32Z</time>
      </trkpt>
      <trkpt lat="51.78376198746264" lon="0.134887034073472">
        <ele>64.549999999999997</ele>
        <time>2023-08-15T17:54:33Z</time>
      </trkpt>
      <trkpt lat="51.78380599245429" lon="0.134855015203357">
        <ele>65.030000000000001</ele>
        <time>2023-08-15T17:54:34Z</time>
      </trkpt>
      <trkpt lat="51.783924009650946" lon="0.134768011048436">
        <ele>65.989999999999995</ele>
        <time>2023-08-15T17:54:42Z</time>
      </trkpt>
      <trkpt lat="51.783924009650946" lon="0.134768011048436">
        <ele>66.950000000000003</ele>
        <time>2023-08-15T17:55:05Z</time>
      </trkpt>
      <trkpt lat="51.783924009650946" lon="0.134768011048436">
        <ele>67.430000000000007</ele>
        <time>2023-08-15T17:55:24Z</time>
      </trkpt>
      <trkpt lat="51.784222992137074" lon="0.134632978588343">
        <ele>66.469999999999999</ele>
        <time>2023-08-15T17:55:35Z</time>
      </trkpt>
      <trkpt lat="51.784269008785486" lon="0.134614035487175">
        <ele>65.989999999999995</ele>
        <time>2023-08-15T17:55:37Z</time>
      </trkpt>
      <trkpt lat="51.784286024048924" lon="0.134606994688511">
        <ele>65.510000000000005</ele>
        <time>2023-08-15T17:55:38Z</time>
      </trkpt>
      <trkpt lat="51.784293986856937" lon="0.134603977203369">
        <ele>65.510000000000005</ele>
        <time>2023-08-15T17:55:39Z</time>
      </trkpt>
      <trkpt lat="51.784303039312363" lon="0.134637001901865">
        <ele>65.030000000000001</ele>
        <time>2023-08-15T17:55:40Z</time>
      </trkpt>
      <trkpt lat="51.784293986856937" lon="0.134603977203369">
        <ele>65.030000000000001</ele>
        <time>2023-08-15T17:55:41Z</time>
      </trkpt>
      <trkpt lat="51.784248976036906" lon="0.134621998295188">
        <ele>65.030000000000001</ele>
        <time>2023-08-15T17:55:42Z</time>
      </trkpt>
      <trkpt lat="51.784203965216875" lon="0.134640019387007">
        <ele>65.030000000000001</ele>
        <time>2023-08-15T17:55:43Z</time>
      </trkpt>
      <trkpt lat="51.784129031002522" lon="0.134670026600361">
        <ele>65.030000000000001</ele>
        <time>2023-08-15T17:55:44Z</time>
      </trkpt>
      <trkpt lat="51.784048983827233" lon="0.134701961651444">
        <ele>65.030000000000001</ele>
        <time>2023-08-15T17:55:45Z</time>
      </trkpt>
      <trkpt lat="51.783768022432923" lon="0.134882004931569">
        <ele>64.549999999999997</ele>
        <time>2023-08-15T17:55:49Z</time>
      </trkpt>
      <trkpt lat="51.783726029098034" lon="0.134913017973304">
        <ele>64.069999999999993</ele>
        <time>2023-08-15T17:55:50Z</time>
      </trkpt>
      <trkpt lat="51.783651011064649" lon="0.13496900908649">
        <ele>64.069999999999993</ele>
        <time>2023-08-15T17:55:51Z</time>
      </trkpt>
      <trkpt lat="51.783651011064649" lon="0.13496900908649">
        <ele>63.579999999999998</ele>
        <time>2023-08-15T17:55:52Z</time>
      </trkpt>
      <trkpt lat="51.783646987751126" lon="0.134977977722883">
        <ele>63.100000000000001</ele>
        <time>2023-08-15T17:55:53Z</time>
      </trkpt>
      <trkpt lat="51.783651011064649" lon="0.13496900908649">
        <ele>62.619999999999997</ele>
        <time>2023-08-15T17:55:54Z</time>
      </trkpt>
      <trkpt lat="51.783574987202883" lon="0.135060958564281">
        <ele>62.140000000000001</ele>
        <time>2023-08-15T17:55:55Z</time>
      </trkpt>
      <trkpt lat="51.783520001918077" lon="0.13503497466445">
        <ele>62.140000000000001</ele>
        <time>2023-08-15T17:55:56Z</time>
      </trkpt>
      <trkpt lat="51.783454036340117" lon="0.135003961622715">
        <ele>61.659999999999997</ele>
        <time>2023-08-15T17:55:57Z</time>
      </trkpt>
      <trkpt lat="51.783382035791874" lon="0.13497001491487">
        <ele>61.659999999999997</ele>
        <time>2023-08-15T17:55:58Z</time>
      </trkpt>
      <trkpt lat="51.783302994444966" lon="0.134932966902852">
        <ele>61.18</ele>
        <time>2023-08-15T17:55:59Z</time>
      </trkpt>
      <trkpt lat="51.783141978085041" lon="0.134817967191339">
        <ele>60.219999999999999</ele>
        <time>2023-08-15T17:56:01Z</time>
      </trkpt>
      <trkpt lat="51.783070983365178" lon="0.134739009663463">
        <ele>60.219999999999999</ele>
        <time>2023-08-15T17:56:02Z</time>
      </trkpt>
      <trkpt lat="51.783007029443979" lon="0.134629039093852">
        <ele>60.219999999999999</ele>
        <time>2023-08-15T17:56:03Z</time>
      </trkpt>
      <trkpt lat="51.78294500336051" lon="0.134522002190351">
        <ele>60.219999999999999</ele>
        <time>2023-08-15T17:56:04Z</time>
      </trkpt>
      <trkpt lat="51.782936034724116" lon="0.134386969730258">
        <ele>59.740000000000002</ele>
        <time>2023-08-15T17:56:05Z</time>
      </trkpt>
      <trkpt lat="51.782927988097072" lon="0.134241040796041">
        <ele>60.219999999999999</ele>
        <time>2023-08-15T17:56:06Z</time>
      </trkpt>
      <trkpt lat="51.782921031117439" lon="0.134103996679187">
        <ele>60.219999999999999</ele>
        <time>2023-08-15T17:56:07Z</time>
      </trkpt>
      <trkpt lat="51.782929999753833" lon="0.1339599955827">
        <ele>60.219999999999999</ele>
        <time>2023-08-15T17:56:08Z</time>
      </trkpt>
      <trkpt lat="51.782937962561846" lon="0.133836027234793">
        <ele>60.700000000000003</ele>
        <time>2023-08-15T17:56:09Z</time>
      </trkpt>
      <trkpt lat="51.782952966168523" lon="0.13359596952796">
        <ele>61.18</ele>
        <time>2023-08-15T17:56:11Z</time>
      </trkpt>
      <trkpt lat="51.782961012795568" lon="0.133469989523292">
        <ele>61.18</ele>
        <time>2023-08-15T17:56:12Z</time>
      </trkpt>
      <trkpt lat="51.782955983653665" lon="0.133328000083566">
        <ele>61.659999999999997</ele>
        <time>2023-08-15T17:56:13Z</time>
      </trkpt>
      <trkpt lat="51.78292497061193" lon="0.13295198790729">
        <ele>62.619999999999997</ele>
        <time>2023-08-15T17:56:16Z</time>
      </trkpt>
      <trkpt lat="51.782875014469028" lon="0.132512021809816">
        <ele>63.579999999999998</ele>
        <time>2023-08-15T17:56:22Z</time>
      </trkpt>
      <trkpt lat="51.782899992540479" lon="0.132480002939701">
        <ele>63.579999999999998</ele>
        <time>2023-08-15T17:56:23Z</time>
      </trkpt>
      <trkpt lat="51.782994959503412" lon="0.132575975731015">
        <ele>64.069999999999993</ele>
        <time>2023-08-15T17:56:24Z</time>
      </trkpt>
      <trkpt lat="51.783064026385546" lon="0.132599025964737">
        <ele>64.549999999999997</ele>
        <time>2023-08-15T17:56:25Z</time>
      </trkpt>
      <trkpt lat="51.783134015277028" lon="0.132621992379427">
        <ele>64.549999999999997</ele>
        <time>2023-08-15T17:56:26Z</time>
      </trkpt>
      <trkpt lat="51.7833530344069" lon="0.132694998756051">
        <ele>65.510000000000005</ele>
        <time>2023-08-15T17:56:30Z</time>
      </trkpt>
      <trkpt lat="51.783453030511737" lon="0.132729029282928">
        <ele>65.510000000000005</ele>
        <time>2023-08-15T17:56:32Z</time>
      </trkpt>
      <trkpt lat="51.783495023846626" lon="0.132742021232843">
        <ele>65.989999999999995</ele>
        <time>2023-08-15T17:56:33Z</time>
      </trkpt>
      <trkpt lat="51.78352796472609" lon="0.132753001525998">
        <ele>65.989999999999995</ele>
        <time>2023-08-15T17:56:34Z</time>
      </trkpt>
      <trkpt lat="51.783793000504375" lon="0.132830031216145">
        <ele>67.909999999999997</ele>
        <time>2023-08-15T17:56:41Z</time>
      </trkpt>
      <trkpt lat="51.784130958840251" lon="0.132895996794105">
        <ele>68.390000000000001</ele>
        <time>2023-08-15T17:56:50Z</time>
      </trkpt>
      <trkpt lat="51.784476963803172" lon="0.132917035371065">
        <ele>67.909999999999997</ele>
        <time>2023-08-15T17:56:57Z</time>
      </trkpt>
      <trkpt lat="51.784532032907009" lon="0.132920974865556">
        <ele>67.909999999999997</ele>
        <time>2023-08-15T17:56:58Z</time>
      </trkpt>
      <trkpt lat="51.784870997071266" lon="0.132919969037175">
        <ele>66.469999999999999</ele>
        <time>2023-08-15T17:57:04Z</time>
      </trkpt>
      <trkpt lat="51.784931011497974" lon="0.132916029542685">
        <ele>66.469999999999999</ele>
        <time>2023-08-15T17:57:05Z</time>
      </trkpt>
      <trkpt lat="51.784984990954399" lon="0.132913012057543">
        <ele>65.989999999999995</ele>
        <time>2023-08-15T17:57:06Z</time>
      </trkpt>
      <trkpt lat="51.785025978460908" lon="0.132911000400782">
        <ele>65.510000000000005</ele>
        <time>2023-08-15T17:57:07Z</time>
      </trkpt>
      <trkpt lat="51.785062020644546" lon="0.13290898874402">
        <ele>65.030000000000001</ele>
        <time>2023-08-15T17:57:08Z</time>
      </trkpt>
      <trkpt lat="51.785090016201138" lon="0.13288602232933">
        <ele>65.030000000000001</ele>
        <time>2023-08-15T17:57:09Z</time>
      </trkpt>
      <trkpt lat="51.785125974565744" lon="0.132849980145693">
        <ele>64.549999999999997</ele>
        <time>2023-08-15T17:57:10Z</time>
      </trkpt>
      <trkpt lat="51.785129997879267" lon="0.132782002910972">
        <ele>64.549999999999997</ele>
        <time>2023-08-15T17:57:11Z</time>
      </trkpt>
      <trkpt lat="51.785127986222506" lon="0.132717965170741">
        <ele>64.069999999999993</ele>
        <time>2023-08-15T17:57:12Z</time>
      </trkpt>
      <trkpt lat="51.78511600010097" lon="0.132237011566758">
        <ele>59.259999999999998</ele>
        <time>2023-08-15T17:57:23Z</time>
      </trkpt>
      <trkpt lat="51.78511499427259" lon="0.132200969383121">
        <ele>58.780000000000001</ele>
        <time>2023-08-15T17:57:24Z</time>
      </trkpt>
      <trkpt lat="51.785113988444209" lon="0.132135003805161">
        <ele>58.299999999999997</ele>
        <time>2023-08-15T17:57:26Z</time>
      </trkpt>
      <trkpt lat="51.785112982615829" lon="0.132106002420187">
        <ele>58.299999999999997</ele>
        <time>2023-08-15T17:57:27Z</time>
      </trkpt>
      <trkpt lat="51.785111976787448" lon="0.132075995206833">
        <ele>57.82</ele>
        <time>2023-08-15T17:57:28Z</time>
      </trkpt>
      <trkpt lat="51.785111976787448" lon="0.132044982165098">
        <ele>57.82</ele>
        <time>2023-08-15T17:57:29Z</time>
      </trkpt>
      <trkpt lat="51.785110970959067" lon="0.132010029628873">
        <ele>57.82</ele>
        <time>2023-08-15T17:57:30Z</time>
      </trkpt>
      <trkpt lat="51.785109965130687" lon="0.131965018808842">
        <ele>57.340000000000003</ele>
        <time>2023-08-15T17:57:31Z</time>
      </trkpt>
      <trkpt lat="51.785109965130687" lon="0.131948003545403">
        <ele>57.340000000000003</ele>
        <time>2023-08-15T17:57:32Z</time>
      </trkpt>
      <trkpt lat="51.785127986222506" lon="0.131969964131713">
        <ele>56.859999999999999</ele>
        <time>2023-08-15T17:57:33Z</time>
      </trkpt>
      <trkpt lat="51.785148018971086" lon="0.131977004930377">
        <ele>56.859999999999999</ele>
        <time>2023-08-15T17:57:34Z</time>
      </trkpt>
      <trkpt lat="51.785148018971086" lon="0.131977004930377">
        <ele>56.859999999999999</ele>
        <time>2023-08-15T17:57:35Z</time>
      </trkpt>
      <trkpt lat="51.785110970959067" lon="0.132030984386802">
        <ele>55.890000000000001</ele>
        <time>2023-08-15T17:57:40Z</time>
      </trkpt>
      <trkpt lat="51.785111976787448" lon="0.132055040448904">
        <ele>55.409999999999997</ele>
        <time>2023-08-15T17:57:41Z</time>
      </trkpt>
      <trkpt lat="51.785112982615829" lon="0.132096027955413">
        <ele>55.409999999999997</ele>
        <time>2023-08-15T17:57:42Z</time>
      </trkpt>
      <trkpt lat="51.785127986222506" lon="0.132708996534348">
        <ele>53.969999999999999</ele>
        <time>2023-08-15T17:57:53Z</time>
      </trkpt>
      <trkpt lat="51.785131003707647" lon="0.132844028994441">
        <ele>53.969999999999999</ele>
        <time>2023-08-15T17:57:57Z</time>
      </trkpt>
      <trkpt lat="51.78513502702117" lon="0.132946958765388">
        <ele>53.969999999999999</ele>
        <time>2023-08-15T17:57:58Z</time>
      </trkpt>
      <trkpt lat="51.785131003707647" lon="0.13295198790729">
        <ele>53.969999999999999</ele>
        <time>2023-08-15T17:57:59Z</time>
      </trkpt>
      <trkpt lat="51.785065960139036" lon="0.13290898874402">
        <ele>53.490000000000002</ele>
        <time>2023-08-15T17:58:00Z</time>
      </trkpt>
      <trkpt lat="51.785013992339373" lon="0.132912006229162">
        <ele>53.490000000000002</ele>
        <time>2023-08-15T17:58:01Z</time>
      </trkpt>
      <trkpt lat="51.784951966255903" lon="0.132915023714304">
        <ele>53.490000000000002</ele>
        <time>2023-08-15T17:58:02Z</time>
      </trkpt>
      <trkpt lat="51.784882983192801" lon="0.132918963208795">
        <ele>53.969999999999999</ele>
        <time>2023-08-15T17:58:03Z</time>
      </trkpt>
      <trkpt lat="51.784395994618535" lon="0.132913012057543">
        <ele>53.969999999999999</ele>
        <time>2023-08-15T17:58:10Z</time>
      </trkpt>
      <trkpt lat="51.784326005727053" lon="0.13290798291564">
        <ele>53.969999999999999</ele>
        <time>2023-08-15T17:58:11Z</time>
      </trkpt>
      <trkpt lat="51.784251993522048" lon="0.132903037592769">
        <ele>53.969999999999999</ele>
        <time>2023-08-15T17:58:12Z</time>
      </trkpt>
      <trkpt lat="51.783271981403232" lon="0.132669014856219">
        <ele>58.299999999999997</ele>
        <time>2023-08-15T17:58:24Z</time>
      </trkpt>
      <trkpt lat="51.783079029992223" lon="0.132603971287608">
        <ele>58.780000000000001</ele>
        <time>2023-08-15T17:58:27Z</time>
      </trkpt>
      <trkpt lat="51.783026978373528" lon="0.132587039843202">
        <ele>59.259999999999998</ele>
        <time>2023-08-15T17:58:28Z</time>
      </trkpt>
      <trkpt lat="51.78296897560358" lon="0.132567007094622">
        <ele>59.259999999999998</ele>
        <time>2023-08-15T17:58:29Z</time>
      </trkpt>
      <trkpt lat="51.782964030280709" lon="0.13256499543786">
        <ele>59.259999999999998</ele>
        <time>2023-08-15T17:58:30Z</time>
      </trkpt>
      <trkpt lat="51.782835032790899" lon="0.13256499543786">
        <ele>59.259999999999998</ele>
        <time>2023-08-15T17:58:31Z</time>
      </trkpt>
      <trkpt lat="51.782785998657346" lon="0.132570024579763">
        <ele>59.740000000000002</ele>
        <time>2023-08-15T17:58:32Z</time>
      </trkpt>
      <trkpt lat="51.782659012824297" lon="0.132579999044538">
        <ele>61.18</ele>
        <time>2023-08-15T17:58:37Z</time>
      </trkpt>
      <trkpt lat="51.782290041446686" lon="0.132602965459228">
        <ele>62.140000000000001</ele>
        <time>2023-08-15T17:58:43Z</time>
      </trkpt>
      <trkpt lat="51.782211000099778" lon="0.132589973509312">
        <ele>62.140000000000001</ele>
        <time>2023-08-15T17:58:44Z</time>
      </trkpt>
      <trkpt lat="51.782129025086761" lon="0.132576981559396">
        <ele>62.140000000000001</ele>
        <time>2023-08-15T17:58:45Z</time>
      </trkpt>
      <trkpt lat="51.781108025461435" lon="0.132438009604812">
        <ele>66.469999999999999</ele>
        <time>2023-08-15T17:58:56Z</time>
      </trkpt>
      <trkpt lat="51.780900992453098" lon="0.132458964362741">
        <ele>65.989999999999995</ele>
        <time>2023-08-15T17:58:58Z</time>
      </trkpt>
      <trkpt lat="51.780405035242438" lon="0.132516967132688">
        <ele>64.549999999999997</ele>
        <time>2023-08-15T17:59:03Z</time>
      </trkpt>
      <trkpt lat="51.780329011380672" lon="0.132526019588113">
        <ele>64.069999999999993</ele>
        <time>2023-08-15T17:59:04Z</time>
      </trkpt>
      <trkpt lat="51.780162965878844" lon="0.132622998207808">
        <ele>64.069999999999993</ele>
        <time>2023-08-15T17:59:05Z</time>
      </trkpt>
      <trkpt lat="51.780148968100548" lon="0.132718970999122">
        <ele>63.579999999999998</ele>
        <time>2023-08-15T17:59:06Z</time>
      </trkpt>
      <trkpt lat="51.780131030827761" lon="0.132844028994441">
        <ele>63.579999999999998</ele>
        <time>2023-08-15T17:59:07Z</time>
      </trkpt>
      <trkpt lat="51.780093982815742" lon="0.132891973480582">
        <ele>63.579999999999998</ele>
        <time>2023-08-15T17:59:09Z</time>
      </trkpt>
      <trkpt lat="51.780055006965995" lon="0.132943019270897">
        <ele>64.069999999999993</ele>
        <time>2023-08-15T17:59:10Z</time>
      </trkpt>
      <trkpt lat="51.77998099476099" lon="0.13303798623383">
        <ele>64.069999999999993</ele>
        <time>2023-08-15T17:59:11Z</time>
      </trkpt>
      <trkpt lat="51.779930032789707" lon="0.133021976798773">
        <ele>64.549999999999997</ele>
        <time>2023-08-15T17:59:12Z</time>
      </trkpt>
      <trkpt lat="51.779839005321264" lon="0.13299498707056">
        <ele>64.549999999999997</ele>
        <time>2023-08-15T17:59:13Z</time>
      </trkpt>
      <trkpt lat="51.77974303252995" lon="0.132937990128994">
        <ele>65.030000000000001</ele>
        <time>2023-08-15T17:59:14Z</time>
      </trkpt>
      <trkpt lat="51.779681006446481" lon="0.132844028994441">
        <ele>65.030000000000001</ele>
        <time>2023-08-15T17:59:15Z</time>
      </trkpt>
      <trkpt lat="51.779489982873201" lon="0.132663985714316">
        <ele>65.510000000000005</ele>
        <time>2023-08-15T17:59:17Z</time>
      </trkpt>
      <trkpt lat="51.779409013688564" lon="0.1326700206846">
        <ele>65.989999999999995</ele>
        <time>2023-08-15T17:59:18Z</time>
      </trkpt>
      <trkpt lat="51.779330978170037" lon="0.132679995149374">
        <ele>65.989999999999995</ele>
        <time>2023-08-15T17:59:19Z</time>
      </trkpt>
      <trkpt lat="51.778861004859209" lon="0.132753001525998">
        <ele>65.989999999999995</ele>
        <time>2023-08-15T17:59:24Z</time>
      </trkpt>
      <trkpt lat="51.777708996087313" lon="0.132931033149362">
        <ele>65.989999999999995</ele>
        <time>2023-08-15T17:59:34Z</time>
      </trkpt>
      <trkpt lat="51.776545001193881" lon="0.133023988455534">
        <ele>60.219999999999999</ele>
        <time>2023-08-15T17:59:45Z</time>
      </trkpt>
      <trkpt lat="51.77581200376153" lon="0.133088026195765">
        <ele>59.259999999999998</ele>
        <time>2023-08-15T17:59:53Z</time>
      </trkpt>
      <trkpt lat="51.775205992162228" lon="0.133145023137331">
        <ele>62.140000000000001</ele>
        <time>2023-08-15T18:00:02Z</time>
      </trkpt>
      <trkpt lat="51.774665024131536" lon="0.133201014250517">
        <ele>65.030000000000001</ele>
        <time>2023-08-15T18:00:11Z</time>
      </trkpt>
      <trkpt lat="51.773891961202025" lon="0.133285000920296">
        <ele>66.469999999999999</ele>
        <time>2023-08-15T18:00:20Z</time>
      </trkpt>
      <trkpt lat="51.77383597008884" lon="0.133291035890579">
        <ele>66.950000000000003</ele>
        <time>2023-08-15T18:00:21Z</time>
      </trkpt>
      <trkpt lat="51.773683000355959" lon="0.133306961506605">
        <ele>67.430000000000007</ele>
        <time>2023-08-15T18:00:26Z</time>
      </trkpt>
      <trkpt lat="51.773660033941269" lon="0.133309978991747">
        <ele>67.430000000000007</ele>
        <time>2023-08-15T18:00:27Z</time>
      </trkpt>
      <trkpt lat="51.773632038384676" lon="0.133312996476889">
        <ele>67.909999999999997</ele>
        <time>2023-08-15T18:00:28Z</time>
      </trkpt>
      <trkpt lat="51.773602031171322" lon="0.13331601396203">
        <ele>67.909999999999997</ele>
        <time>2023-08-15T18:00:29Z</time>
      </trkpt>
      <trkpt lat="51.773530030623078" lon="0.133915990591049">
        <ele>66.950000000000003</ele>
        <time>2023-08-15T18:00:32Z</time>
      </trkpt>
      <trkpt lat="51.773330038413405" lon="0.133820017799735">
        <ele>64.069999999999993</ele>
        <time>2023-08-15T18:00:39Z</time>
      </trkpt>
      <trkpt lat="51.773305982351303" lon="0.133778024464846">
        <ele>63.579999999999998</ele>
        <time>2023-08-15T18:00:52Z</time>
      </trkpt>
      <trkpt lat="51.773202968761325" lon="0.133419027552009">
        <ele>65.510000000000005</ele>
        <time>2023-08-15T18:01:08Z</time>
      </trkpt>
      <trkpt lat="51.773218978196383" lon="0.133384997025132">
        <ele>68.390000000000001</ele>
        <time>2023-08-15T18:01:37Z</time>
      </trkpt>
      <trkpt lat="51.773250997066498" lon="0.133353983983397">
        <ele>69.829999999999998</ele>
        <time>2023-08-15T18:01:39Z</time>
      </trkpt>
      <trkpt lat="51.773290978744626" lon="0.133349960669875">
        <ele>70.790000000000006</ele>
        <time>2023-08-15T18:01:40Z</time>
      </trkpt>
      <trkpt lat="51.773346969857812" lon="0.133344009518623">
        <ele>70.790000000000006</ele>
        <time>2023-08-15T18:01:41Z</time>
      </trkpt>
      <trkpt lat="51.773415030911565" lon="0.133336968719959">
        <ele>71.269999999999996</ele>
        <time>2023-08-15T18:01:42Z</time>
      </trkpt>
      <trkpt lat="51.773489965125918" lon="0.133329005911946">
        <ele>71.269999999999996</ele>
        <time>2023-08-15T18:01:43Z</time>
      </trkpt>
      <trkpt lat="51.773724993690848" lon="0.133303022012115">
        <ele>71.760000000000005</ele>
        <time>2023-08-15T18:01:46Z</time>
      </trkpt>
      <trkpt lat="51.773775033652782" lon="0.133296987041831">
        <ele>72.239999999999995</ele>
        <time>2023-08-15T18:01:47Z</time>
      </trkpt>
      <trkpt lat="51.773801017552614" lon="0.13329497538507">
        <ele>72.239999999999995</ele>
        <time>2023-08-15T18:01:48Z</time>
      </trkpt>
      <trkpt lat="51.773819038644433" lon="0.133292963728309">
        <ele>72.239999999999995</ele>
        <time>2023-08-15T18:01:49Z</time>
      </trkpt>
      <trkpt lat="51.773833958432078" lon="0.133291035890579">
        <ele>72.719999999999999</ele>
        <time>2023-08-15T18:01:50Z</time>
      </trkpt>
      <trkpt lat="51.773849967867136" lon="0.133289024233818">
        <ele>72.719999999999999</ele>
        <time>2023-08-15T18:01:51Z</time>
      </trkpt>
      <trkpt lat="51.773874023929238" lon="0.133287012577057">
        <ele>72.719999999999999</ele>
        <time>2023-08-15T18:01:52Z</time>
      </trkpt>
      <trkpt lat="51.773912999778986" lon="0.133281983435154">
        <ele>73.200000000000003</ele>
        <time>2023-08-15T18:01:53Z</time>
      </trkpt>
      <trkpt lat="51.77396597340703" lon="0.133277038112283">
        <ele>73.200000000000003</ele>
        <time>2023-08-15T18:01:54Z</time>
      </trkpt>
      <trkpt lat="51.774031016975641" lon="0.133269997313619">
        <ele>73.200000000000003</ele>
        <time>2023-08-15T18:01:55Z</time>
      </trkpt>
      <trkpt lat="51.774105029180646" lon="0.133262034505606">
        <ele>73.200000000000003</ele>
        <time>2023-08-15T18:01:56Z</time>
      </trkpt>
      <trkpt lat="51.774179963395" lon="0.13325298205018">
        <ele>73.200000000000003</ele>
        <time>2023-08-15T18:01:57Z</time>
      </trkpt>
      <trkpt lat="51.774251963943243" lon="0.133246025070548">
        <ele>73.200000000000003</ele>
        <time>2023-08-15T18:01:58Z</time>
      </trkpt>
      <trkpt lat="51.774321030825377" lon="0.133237978443503">
        <ele>73.200000000000003</ele>
        <time>2023-08-15T18:01:59Z</time>
      </trkpt>
      <trkpt lat="51.774783963337541" lon="0.133188022300601">
        <ele>72.239999999999995</ele>
        <time>2023-08-15T18:02:06Z</time>
      </trkpt>
      <trkpt lat="51.774830985814333" lon="0.133182993158698">
        <ele>71.760000000000005</ele>
        <time>2023-08-15T18:02:07Z</time>
      </trkpt>
      <trkpt lat="51.774982027709484" lon="0.13316597789526">
        <ele>70.790000000000006</ele>
        <time>2023-08-15T18:02:15Z</time>
      </trkpt>
      <trkpt lat="51.775420987978578" lon="0.133124990388751">
        <ele>70.790000000000006</ele>
        <time>2023-08-15T18:02:20Z</time>
      </trkpt>
      <trkpt lat="51.776524968445301" lon="0.133026000112295">
        <ele>69.829999999999998</ele>
        <time>2023-08-15T18:02:31Z</time>
      </trkpt>
      <trkpt lat="51.776810036972165" lon="0.133005967363715">
        <ele>69.829999999999998</ele>
        <time>2023-08-15T18:02:34Z</time>
      </trkpt>
      <trkpt lat="51.776903998106718" lon="0.132999010384083">
        <ele>69.349999999999994</ele>
        <time>2023-08-15T18:02:35Z</time>
      </trkpt>
      <trkpt lat="51.777098039165139" lon="0.132985012605786">
        <ele>69.349999999999994</ele>
        <time>2023-08-15T18:02:37Z</time>
      </trkpt>
      <trkpt lat="51.777300965040922" lon="0.13297101482749">
        <ele>69.349999999999994</ele>
        <time>2023-08-15T18:02:39Z</time>
      </trkpt>
      <trkpt lat="51.77740297280252" lon="0.132963974028826">
        <ele>69.349999999999994</ele>
        <time>2023-08-15T18:02:40Z</time>
      </trkpt>
      <trkpt lat="51.778526986017823" lon="0.132804969325662">
        <ele>68.390000000000001</ele>
        <time>2023-08-15T18:02:50Z</time>
      </trkpt>
      <trkpt lat="51.779416976496577" lon="0.1326700206846">
        <ele>68.390000000000001</ele>
        <time>2023-08-15T18:02:59Z</time>
      </trkpt>
      <trkpt lat="51.779462993144989" lon="0.132667003199458">
        <ele>68.390000000000001</ele>
        <time>2023-08-15T18:03:00Z</time>
      </trkpt>
      <trkpt lat="51.779494006186724" lon="0.132663985714316">
        <ele>68.390000000000001</ele>
        <time>2023-08-15T18:03:01Z</time>
      </trkpt>
      <trkpt lat="51.779517978429794" lon="0.132661974057555">
        <ele>68.390000000000001</ele>
        <time>2023-08-15T18:03:02Z</time>
      </trkpt>
      <trkpt lat="51.779535999521613" lon="0.132660968229175">
        <ele>68.390000000000001</ele>
        <time>2023-08-15T18:03:03Z</time>
      </trkpt>
      <trkpt lat="51.779670026153326" lon="0.132590979337692">
        <ele>68.870000000000005</ele>
        <time>2023-08-15T18:03:08Z</time>
      </trkpt>
      <trkpt lat="51.779685029760003" lon="0.132504981011152">
        <ele>68.870000000000005</ele>
        <time>2023-08-15T18:03:09Z</time>
      </trkpt>
      <trkpt lat="51.779760969802737" lon="0.132248997688293">
        <ele>68.390000000000001</ele>
        <time>2023-08-15T18:03:11Z</time>
      </trkpt>
      <trkpt lat="51.779868006706238" lon="0.132161993533373">
        <ele>67.909999999999997</ele>
        <time>2023-08-15T18:03:12Z</time>
      </trkpt>
      <trkpt lat="51.779965991154313" lon="0.132185965776443">
        <ele>67.909999999999997</ele>
        <time>2023-08-15T18:03:13Z</time>
      </trkpt>
      <trkpt lat="51.780064981430769" lon="0.132257966324687">
        <ele>67.430000000000007</ele>
        <time>2023-08-15T18:03:14Z</time>
      </trkpt>
      <trkpt lat="51.780141005292535" lon="0.1323919929564">
        <ele>67.430000000000007</ele>
        <time>2023-08-15T18:03:15Z</time>
      </trkpt>
      <trkpt lat="51.780174029991031" lon="0.132544040679932">
        <ele>66.950000000000003</ele>
        <time>2023-08-15T18:03:16Z</time>
      </trkpt>
      <trkpt lat="51.780148968100548" lon="0.132720982655883">
        <ele>66.950000000000003</ele>
        <time>2023-08-15T18:03:17Z</time>
      </trkpt>
      <trkpt lat="51.780123990029097" lon="0.132890967652202">
        <ele>66.950000000000003</ele>
        <time>2023-08-15T18:03:18Z</time>
      </trkpt>
      <trkpt lat="51.780097000300884" lon="0.133065981790423">
        <ele>66.950000000000003</ele>
        <time>2023-08-15T18:03:19Z</time>
      </trkpt>
      <trkpt lat="51.780069004744291" lon="0.133249964565039">
        <ele>66.950000000000003</ele>
        <time>2023-08-15T18:03:20Z</time>
      </trkpt>
      <trkpt lat="51.780052995309234" lon="0.133479963988066">
        <ele>66.950000000000003</ele>
        <time>2023-08-15T18:03:21Z</time>
      </trkpt>
      <trkpt lat="51.780231026932597" lon="0.135477958247066">
        <ele>66.469999999999999</ele>
        <time>2023-08-15T18:03:30Z</time>
      </trkpt>
      <trkpt lat="51.780544007197022" lon="0.138779003173113">
        <ele>62.140000000000001</ele>
        <time>2023-08-15T18:03:43Z</time>
      </trkpt>
      <trkpt lat="51.780768977478147" lon="0.139750968664885">
        <ele>59.740000000000002</ele>
        <time>2023-08-15T18:03:49Z</time>
      </trkpt>
      <trkpt lat="51.780827986076474" lon="0.139983985573053">
        <ele>57.82</ele>
        <time>2023-08-15T18:03:55Z</time>
      </trkpt>
      <trkpt lat="51.780991014093161" lon="0.140442978590727">
        <ele>56.369999999999997</ele>
        <time>2023-08-15T18:04:03Z</time>
      </trkpt>
      <trkpt lat="51.781674977391958" lon="0.141863962635398">
        <ele>54.93</ele>
        <time>2023-08-15T18:04:12Z</time>
      </trkpt>
      <trkpt lat="51.782990014180541" lon="0.143704963847995">
        <ele>51.090000000000003</ele>
        <time>2023-08-15T18:04:25Z</time>
      </trkpt>
      <trkpt lat="51.783903976902366" lon="0.145028969272971">
        <ele>49.649999999999999</ele>
        <time>2023-08-15T18:04:34Z</time>
      </trkpt>
      <trkpt lat="51.784812994301319" lon="0.146819008514285">
        <ele>50.609999999999999</ele>
        <time>2023-08-15T18:04:45Z</time>
      </trkpt>
      <trkpt lat="51.785223037004471" lon="0.147965988144279">
        <ele>52.049999999999997</ele>
        <time>2023-08-15T18:04:55Z</time>
      </trkpt>
      <trkpt lat="51.785568036139011" lon="0.149002997204661">
        <ele>53.009999999999998</ele>
        <time>2023-08-15T18:05:04Z</time>
      </trkpt>
      <trkpt lat="51.786098023876548" lon="0.150816002860665">
        <ele>54.450000000000003</ele>
        <time>2023-08-15T18:05:12Z</time>
      </trkpt>
      <trkpt lat="51.786664975807071" lon="0.152733027935028">
        <ele>57.340000000000003</ele>
        <time>2023-08-15T18:05:20Z</time>
      </trkpt>
      <trkpt lat="51.787522025406361" lon="0.155757972970605">
        <ele>61.659999999999997</ele>
        <time>2023-08-15T18:05:34Z</time>
      </trkpt>
      <trkpt lat="51.788285030052066" lon="0.157672986388206">
        <ele>62.619999999999997</ele>
        <time>2023-08-15T18:05:43Z</time>
      </trkpt>
      <trkpt lat="51.78937098942697" lon="0.159217016771436">
        <ele>59.259999999999998</ele>
        <time>2023-08-15T18:05:52Z</time>
      </trkpt>
      <trkpt lat="51.790054030716419" lon="0.159860998392105">
        <ele>55.409999999999997</ele>
        <time>2023-08-15T18:05:58Z</time>
      </trkpt>
      <trkpt lat="51.790281012654305" lon="0.159795032814145">
        <ele>53.969999999999999</ele>
        <time>2023-08-15T18:06:02Z</time>
      </trkpt>
      <trkpt lat="51.790281012654305" lon="0.159795032814145">
        <ele>53.969999999999999</ele>
        <time>2023-08-15T18:06:03Z</time>
      </trkpt>
      <trkpt lat="51.790457032620907" lon="0.159661006182432">
        <ele>53.009999999999998</ele>
        <time>2023-08-15T18:06:05Z</time>
      </trkpt>
      <trkpt lat="51.790560968220234" lon="0.159648014232516">
        <ele>53.009999999999998</ele>
        <time>2023-08-15T18:06:06Z</time>
      </trkpt>
      <trkpt lat="51.790683008730412" lon="0.159712973982096">
        <ele>52.530000000000001</ele>
        <time>2023-08-15T18:06:07Z</time>
      </trkpt>
      <trkpt lat="51.790761966258287" lon="0.159834008663893">
        <ele>52.049999999999997</ele>
        <time>2023-08-15T18:06:08Z</time>
      </trkpt>
      <trkpt lat="51.790795996785164" lon="0.159902991726995">
        <ele>51.57</ele>
        <time>2023-08-15T18:06:09Z</time>
      </trkpt>
      <trkpt lat="51.79080898873508" lon="0.160070965066552">
        <ele>51.090000000000003</ele>
        <time>2023-08-15T18:06:10Z</time>
      </trkpt>
      <trkpt lat="51.790817035362124" lon="0.160182025283575">
        <ele>51.090000000000003</ele>
        <time>2023-08-15T18:06:11Z</time>
      </trkpt>
      <trkpt lat="51.790774036198854" lon="0.160356033593416">
        <ele>50.609999999999999</ele>
        <time>2023-08-15T18:06:12Z</time>
      </trkpt>
      <trkpt lat="51.790752997621894" lon="0.160439014434814">
        <ele>50.609999999999999</ele>
        <time>2023-08-15T18:06:13Z</time>
      </trkpt>
      <trkpt lat="51.790684014558792" lon="0.160828018561006">
        <ele>50.130000000000003</ele>
        <time>2023-08-15T18:06:14Z</time>
      </trkpt>
      <trkpt lat="51.79070002399385" lon="0.161063969135284">
        <ele>50.609999999999999</ele>
        <time>2023-08-15T18:06:15Z</time>
      </trkpt>
      <trkpt lat="51.790717039257288" lon="0.16131198965013">
        <ele>50.609999999999999</ele>
        <time>2023-08-15T18:06:16Z</time>
      </trkpt>
      <trkpt lat="51.790712010115385" lon="0.163338985294104">
        <ele>53.009999999999998</ele>
        <time>2023-08-15T18:06:23Z</time>
      </trkpt>
      <trkpt lat="51.790342032909393" lon="0.164987035095692">
        <ele>57.340000000000003</ele>
        <time>2023-08-15T18:06:29Z</time>
      </trkpt>
      <trkpt lat="51.789308963343501" lon="0.167274037376046">
        <ele>66.469999999999999</ele>
        <time>2023-08-15T18:06:39Z</time>
      </trkpt>
      <trkpt lat="51.788607984781265" lon="0.168606005609035">
        <ele>72.719999999999999</ele>
        <time>2023-08-15T18:06:47Z</time>
      </trkpt>
      <trkpt lat="51.788560962304473" lon="0.168741038069129">
        <ele>73.200000000000003</ele>
        <time>2023-08-15T18:06:48Z</time>
      </trkpt>
      <trkpt lat="51.788519974797964" lon="0.168859977275133">
        <ele>74.159999999999997</ele>
        <time>2023-08-15T18:06:49Z</time>
      </trkpt>
      <trkpt lat="51.788478987291455" lon="0.168989980593324">
        <ele>74.640000000000001</ele>
        <time>2023-08-15T18:06:50Z</time>
      </trkpt>
      <trkpt lat="51.788490973412991" lon="0.169138005003333">
        <ele>75.120000000000005</ele>
        <time>2023-08-15T18:06:51Z</time>
      </trkpt>
      <trkpt lat="51.788500025868416" lon="0.16925803385675">
        <ele>75.120000000000005</ele>
        <time>2023-08-15T18:06:52Z</time>
      </trkpt>
      <trkpt lat="51.788547970354557" lon="0.169415026903152">
        <ele>75.599999999999994</ele>
        <time>2023-08-15T18:06:53Z</time>
      </trkpt>
      <trkpt lat="51.788592981174588" lon="0.16956296749413">
        <ele>75.599999999999994</ele>
        <time>2023-08-15T18:06:54Z</time>
      </trkpt>
      <trkpt lat="51.788649978116155" lon="0.169751979410648">
        <ele>75.599999999999994</ele>
        <time>2023-08-15T18:06:55Z</time>
      </trkpt>
      <trkpt lat="51.788730025291443" lon="0.169854993000627">
        <ele>75.599999999999994</ele>
        <time>2023-08-15T18:06:56Z</time>
      </trkpt>
      <trkpt lat="51.788834966719151" lon="0.169992037117481">
        <ele>75.120000000000005</ele>
        <time>2023-08-15T18:06:57Z</time>
      </trkpt>
      <trkpt lat="51.788959018886089" lon="0.170112987980247">
        <ele>75.120000000000005</ele>
        <time>2023-08-15T18:06:58Z</time>
      </trkpt>
      <trkpt lat="51.789096985012293" lon="0.170233016833663">
        <ele>74.640000000000001</ele>
        <time>2023-08-15T18:06:59Z</time>
      </trkpt>
      <trkpt lat="51.790481004863977" lon="0.171270025894046">
        <ele>66.950000000000003</ele>
        <time>2023-08-15T18:07:07Z</time>
      </trkpt>
      <trkpt lat="51.792425019666553" lon="0.172506021335721">
        <ele>63.100000000000001</ele>
        <time>2023-08-15T18:07:16Z</time>
      </trkpt>
      <trkpt lat="51.795475026592612" lon="0.17398601397872">
        <ele>61.659999999999997</ele>
        <time>2023-08-15T18:07:28Z</time>
      </trkpt>
      <trkpt lat="51.799302035942674" lon="0.17523298971355">
        <ele>69.829999999999998</ele>
        <time>2023-08-15T18:07:42Z</time>
      </trkpt>
      <trkpt lat="51.802703998982906" lon="0.17585501074791">
        <ele>74.159999999999997</ele>
        <time>2023-08-15T18:07:54Z</time>
      </trkpt>
      <trkpt lat="51.806302014738321" lon="0.176366977393627">
        <ele>73.200000000000003</ele>
        <time>2023-08-15T18:08:07Z</time>
      </trkpt>
      <trkpt lat="51.808580970391631" lon="0.177385965362191">
        <ele>71.760000000000005</ele>
        <time>2023-08-15T18:08:16Z</time>
      </trkpt>
      <trkpt lat="51.810348965227604" lon="0.178702007979155">
        <ele>72.719999999999999</ele>
        <time>2023-08-15T18:08:24Z</time>
      </trkpt>
      <trkpt lat="51.812110003083944" lon="0.180526999756694">
        <ele>75.599999999999994</ele>
        <time>2023-08-15T18:08:33Z</time>
      </trkpt>
      <trkpt lat="51.814333973452449" lon="0.182726997882128">
        <ele>79.930000000000007</ele>
        <time>2023-08-15T18:08:43Z</time>
      </trkpt>
      <trkpt lat="51.816577976569533" lon="0.184121998026967">
        <ele>84.25</ele>
        <time>2023-08-15T18:08:52Z</time>
      </trkpt>
      <trkpt lat="51.819235039874911" lon="0.184778971597552">
        <ele>85.689999999999998</ele>
        <time>2023-08-15T18:09:02Z</time>
      </trkpt>
      <trkpt lat="51.822726018726826" lon="0.185273000970483">
        <ele>81.849999999999994</ele>
        <time>2023-08-15T18:09:15Z</time>
      </trkpt>
      <trkpt lat="51.825042022392154" lon="0.186372036114335">
        <ele>78.969999999999999</ele>
        <time>2023-08-15T18:09:24Z</time>
      </trkpt>
      <trkpt lat="51.827428014948964" lon="0.18836198374629">
        <ele>76.560000000000002</ele>
        <time>2023-08-15T18:09:34Z</time>
      </trkpt>
      <trkpt lat="51.830698968842626" lon="0.191544005647302">
        <ele>73.200000000000003</ele>
        <time>2023-08-15T18:09:48Z</time>
      </trkpt>
      <trkpt lat="51.833012960851192" lon="0.192849989980459">
        <ele>72.239999999999995</ele>
        <time>2023-08-15T18:09:57Z</time>
      </trkpt>
      <trkpt lat="51.835724003612995" lon="0.193393975496292">
        <ele>72.239999999999995</ele>
        <time>2023-08-15T18:10:07Z</time>
      </trkpt>
      <trkpt lat="51.838165987282991" lon="0.193045036867261">
        <ele>74.640000000000001</ele>
        <time>2023-08-15T18:10:16Z</time>
      </trkpt>
      <trkpt lat="51.840528007596731" lon="0.19192898645997">
        <ele>77.040000000000006</ele>
        <time>2023-08-15T18:10:25Z</time>
      </trkpt>
      <trkpt lat="51.842690035700798" lon="0.190057978034019">
        <ele>78.969999999999999</ele>
        <time>2023-08-15T18:10:34Z</time>
      </trkpt>
      <trkpt lat="51.844933032989502" lon="0.18752203322947">
        <ele>80.890000000000001</ele>
        <time>2023-08-15T18:10:44Z</time>
      </trkpt>
      <trkpt lat="51.847158009186387" lon="0.185809023678303">
        <ele>81.370000000000005</ele>
        <time>2023-08-15T18:10:53Z</time>
      </trkpt>
      <trkpt lat="51.849804008379579" lon="0.184715017676353">
        <ele>79.930000000000007</ele>
        <time>2023-08-15T18:11:03Z</time>
      </trkpt>
      <trkpt lat="51.851985985413194" lon="0.184519970789552">
        <ele>78.480000000000004</ele>
        <time>2023-08-15T18:11:11Z</time>
      </trkpt>
      <trkpt lat="51.854032007977366" lon="0.184848960489035">
        <ele>78</ele>
        <time>2023-08-15T18:11:19Z</time>
      </trkpt>
      <trkpt lat="51.856030002236366" lon="0.185754960402846">
        <ele>78</ele>
        <time>2023-08-15T18:11:28Z</time>
      </trkpt>
      <trkpt lat="51.85816696844995" lon="0.187406027689576">
        <ele>78.969999999999999</ele>
        <time>2023-08-15T18:11:39Z</time>
      </trkpt>
      <trkpt lat="51.860101008787751" lon="0.189351970329881">
        <ele>80.890000000000001</ele>
        <time>2023-08-15T18:11:50Z</time>
      </trkpt>
      <trkpt lat="51.86263401992619" lon="0.191901996731758">
        <ele>80.890000000000001</ele>
        <time>2023-08-15T18:12:05Z</time>
      </trkpt>
      <trkpt lat="51.864521959796548" lon="0.193612994626164">
        <ele>77.519999999999996</ele>
        <time>2023-08-15T18:12:16Z</time>
      </trkpt>
      <trkpt lat="51.866554990410805" lon="0.195059962570667">
        <ele>74.159999999999997</ele>
        <time>2023-08-15T18:12:28Z</time>
      </trkpt>
      <trkpt lat="51.86809197999537" lon="0.196157991886139">
        <ele>74.159999999999997</ele>
        <time>2023-08-15T18:12:38Z</time>
      </trkpt>
      <trkpt lat="51.868924973532557" lon="0.196753023192286">
        <ele>78</ele>
        <time>2023-08-15T18:12:46Z</time>
      </trkpt>
      <trkpt lat="51.870015962049365" lon="0.197529019787908">
        <ele>81.849999999999994</ele>
        <time>2023-08-15T18:12:55Z</time>
      </trkpt>
      <trkpt lat="51.870460035279393" lon="0.197765976190567">
        <ele>83.290000000000006</ele>
        <time>2023-08-15T18:13:02Z</time>
      </trkpt>
      <trkpt lat="51.870855996385217" lon="0.19794300198555">
        <ele>84.730000000000004</ele>
        <time>2023-08-15T18:13:08Z</time>
      </trkpt>
      <trkpt lat="51.870910981670022" lon="0.197964962571859">
        <ele>84.730000000000004</ele>
        <time>2023-08-15T18:13:09Z</time>
      </trkpt>
      <trkpt lat="51.870944006368518" lon="0.197978038340807">
        <ele>85.209999999999994</ele>
        <time>2023-08-15T18:13:10Z</time>
      </trkpt>
      <trkpt lat="51.870964961126447" lon="0.197987006977201">
        <ele>85.209999999999994</ele>
        <time>2023-08-15T18:13:11Z</time>
      </trkpt>
      <trkpt lat="51.870964961126447" lon="0.197987006977201">
        <ele>85.689999999999998</ele>
        <time>2023-08-15T18:13:22Z</time>
      </trkpt>
      <trkpt lat="51.871087001636624" lon="0.19798600114882">
        <ele>87.140000000000001</ele>
        <time>2023-08-15T18:13:54Z</time>
      </trkpt>
      <trkpt lat="51.871148021891713" lon="0.197959011420608">
        <ele>87.620000000000005</ele>
        <time>2023-08-15T18:13:55Z</time>
      </trkpt>
      <trkpt lat="51.871215999126434" lon="0.197930010035634">
        <ele>87.620000000000005</ele>
        <time>2023-08-15T18:13:56Z</time>
      </trkpt>
      <trkpt lat="51.87129101715982" lon="0.197897991165519">
        <ele>87.620000000000005</ele>
        <time>2023-08-15T18:13:57Z</time>
      </trkpt>
      <trkpt lat="51.871366035193205" lon="0.197854992002249">
        <ele>88.099999999999994</ele>
        <time>2023-08-15T18:13:58Z</time>
      </trkpt>
      <trkpt lat="51.871435018256307" lon="0.197805035859346">
        <ele>88.099999999999994</ele>
        <time>2023-08-15T18:13:59Z</time>
      </trkpt>
      <trkpt lat="51.871523028239608" lon="0.197661034762859">
        <ele>88.579999999999998</ele>
        <time>2023-08-15T18:14:01Z</time>
      </trkpt>
      <trkpt lat="51.871579019352794" lon="0.197518961504102">
        <ele>88.579999999999998</ele>
        <time>2023-08-15T18:14:03Z</time>
      </trkpt>
      <trkpt lat="51.871606009081006" lon="0.197454001754522">
        <ele>89.060000000000002</ele>
        <time>2023-08-15T18:14:04Z</time>
      </trkpt>
      <trkpt lat="51.8716149777174" lon="0.197364985942841">
        <ele>89.060000000000002</ele>
        <time>2023-08-15T18:14:05Z</time>
      </trkpt>
      <trkpt lat="51.871625036001205" lon="0.197263984009624">
        <ele>89.060000000000002</ele>
        <time>2023-08-15T18:14:06Z</time>
      </trkpt>
      <trkpt lat="51.871637022122741" lon="0.197158958762884">
        <ele>89.540000000000006</ele>
        <time>2023-08-15T18:14:07Z</time>
      </trkpt>
      <trkpt lat="51.871648002415895" lon="0.197045970708132">
        <ele>89.540000000000006</ele>
        <time>2023-08-15T18:14:08Z</time>
      </trkpt>
      <trkpt lat="51.871611960232258" lon="0.196990985423326">
        <ele>89.540000000000006</ele>
        <time>2023-08-15T18:14:09Z</time>
      </trkpt>
      <trkpt lat="51.871564015746117" lon="0.196918984875083">
        <ele>89.540000000000006</ele>
        <time>2023-08-15T18:14:10Z</time>
      </trkpt>
      <trkpt lat="51.871509030461311" lon="0.196836004033685">
        <ele>90.019999999999996</ele>
        <time>2023-08-15T18:14:11Z</time>
      </trkpt>
      <trkpt lat="51.871434012427926" lon="0.196773977950215">
        <ele>90.5</ele>
        <time>2023-08-15T18:14:12Z</time>
      </trkpt>
      <trkpt lat="51.871348014101386" lon="0.196744976565242">
        <ele>90.5</ele>
        <time>2023-08-15T18:14:13Z</time>
      </trkpt>
      <trkpt lat="51.871247012168169" lon="0.196774983778596">
        <ele>90.980000000000004</ele>
        <time>2023-08-15T18:14:14Z</time>
      </trkpt>
      <trkpt lat="51.871151961386204" lon="0.196801973506808">
        <ele>90.980000000000004</ele>
        <time>2023-08-15T18:14:15Z</time>
      </trkpt>
      <trkpt lat="51.87047503888607" lon="0.196939017623663">
        <ele>91.939999999999998</ele>
        <time>2023-08-15T18:14:23Z</time>
      </trkpt>
      <trkpt lat="51.8703059758991" lon="0.196920996531844">
        <ele>91.939999999999998</ele>
        <time>2023-08-15T18:14:25Z</time>
      </trkpt>
      <trkpt lat="51.870018979534507" lon="0.196767020970583">
        <ele>91.939999999999998</ele>
        <time>2023-08-15T18:14:29Z</time>
      </trkpt>
      <trkpt lat="51.869770959019661" lon="0.196484969928861">
        <ele>91.459999999999994</ele>
        <time>2023-08-15T18:14:33Z</time>
      </trkpt>
      <trkpt lat="51.869543977081776" lon="0.195891028270125">
        <ele>90.980000000000004</ele>
        <time>2023-08-15T18:14:42Z</time>
      </trkpt>
      <trkpt lat="51.869524028152227" lon="0.195585004985332">
        <ele>91.459999999999994</ele>
        <time>2023-08-15T18:14:52Z</time>
      </trkpt>
      <trkpt lat="51.869524028152227" lon="0.195585004985332">
        <ele>91.459999999999994</ele>
        <time>2023-08-15T18:15:03Z</time>
      </trkpt>
      <trkpt lat="51.869567027315497" lon="0.195426000282168">
        <ele>114.05</ele>
        <time>2023-08-15T18:23:47Z</time>
      </trkpt>
      <trkpt lat="51.86940198764205" lon="0.195492971688509">
        <ele>93.390000000000001</ele>
        <time>2023-08-15T18:24:11Z</time>
      </trkpt>
      <trkpt lat="51.869555041193962" lon="0.19553697668016">
        <ele>94.349999999999994</ele>
        <time>2023-08-15T18:24:55Z</time>
      </trkpt>
      <trkpt lat="51.869549006223679" lon="0.195561032742262">
        <ele>91.459999999999994</ele>
        <time>2023-08-15T18:25:26Z</time>
      </trkpt>
      <trkpt lat="51.869535008445382" lon="0.195527002215385">
        <ele>90.5</ele>
        <time>2023-08-15T18:25:30Z</time>
      </trkpt>
      <trkpt lat="51.869537020102143" lon="0.19540797919035">
        <ele>90.980000000000004</ele>
        <time>2023-08-15T18:25:33Z</time>
      </trkpt>
      <trkpt lat="51.869630981236696" lon="0.195029033347964">
        <ele>92.420000000000002</ele>
        <time>2023-08-15T18:25:39Z</time>
      </trkpt>
      <trkpt lat="51.869630981236696" lon="0.195029033347964">
        <ele>92.420000000000002</ele>
        <time>2023-08-15T18:25:40Z</time>
      </trkpt>
      <trkpt lat="51.86963802203536" lon="0.195015035569668">
        <ele>92.900000000000006</ele>
        <time>2023-08-15T18:25:41Z</time>
      </trkpt>
      <trkpt lat="51.869663000106812" lon="0.194964995607734">
        <ele>92.900000000000006</ele>
        <time>2023-08-15T18:25:42Z</time>
      </trkpt>
      <trkpt lat="51.869739023968577" lon="0.194814037531614">
        <ele>92.900000000000006</ele>
        <time>2023-08-15T18:25:43Z</time>
      </trkpt>
      <trkpt lat="51.869739023968577" lon="0.194814037531614">
        <ele>93.390000000000001</ele>
        <time>2023-08-15T18:25:44Z</time>
      </trkpt>
      <trkpt lat="51.869793003425002" lon="0.194756034761667">
        <ele>93.390000000000001</ele>
        <time>2023-08-15T18:25:46Z</time>
      </trkpt>
      <trkpt lat="51.869848994538188" lon="0.194695014506578">
        <ele>93.390000000000001</ele>
        <time>2023-08-15T18:25:47Z</time>
      </trkpt>
      <trkpt lat="51.869914038106799" lon="0.194625025615096">
        <ele>93.390000000000001</ele>
        <time>2023-08-15T18:25:48Z</time>
      </trkpt>
      <trkpt lat="51.87036800198257" lon="0.19429000094533">
        <ele>93.870000000000005</ele>
        <time>2023-08-15T18:25:53Z</time>
      </trkpt>
      <trkpt lat="51.870458023622632" lon="0.194231998175383">
        <ele>93.870000000000005</ele>
        <time>2023-08-15T18:25:54Z</time>
      </trkpt>
      <trkpt lat="51.870662039145827" lon="0.194151028990746">
        <ele>93.870000000000005</ele>
        <time>2023-08-15T18:25:57Z</time>
      </trkpt>
      <trkpt lat="51.870725993067026" lon="0.194138959050179">
        <ele>93.870000000000005</ele>
        <time>2023-08-15T18:25:58Z</time>
      </trkpt>
      <trkpt lat="51.871256986632943" lon="0.194042986258864">
        <ele>94.349999999999994</ele>
        <time>2023-08-15T18:26:07Z</time>
      </trkpt>
      <trkpt lat="51.871311971917748" lon="0.19403301179409">
        <ele>94.349999999999994</ele>
        <time>2023-08-15T18:26:08Z</time>
      </trkpt>
      <trkpt lat="51.87144298106432" lon="0.19400903955102">
        <ele>93.870000000000005</ele>
        <time>2023-08-15T18:26:10Z</time>
      </trkpt>
      <trkpt lat="51.871975986286998" lon="0.194285977631807">
        <ele>94.829999999999998</ele>
        <time>2023-08-15T18:26:18Z</time>
      </trkpt>
      <trkpt lat="51.871991995722055" lon="0.194298969581723">
        <ele>95.310000000000002</ele>
        <time>2023-08-15T18:26:19Z</time>
      </trkpt>
      <trkpt lat="51.872057039290667" lon="0.194401983171701">
        <ele>95.310000000000002</ele>
        <time>2023-08-15T18:26:20Z</time>
      </trkpt>
      <trkpt lat="51.872102972120047" lon="0.194473983719945">
        <ele>95.310000000000002</ele>
        <time>2023-08-15T18:26:21Z</time>
      </trkpt>
      <trkpt lat="51.872153012081981" lon="0.194553025066853">
        <ele>95.310000000000002</ele>
        <time>2023-08-15T18:26:22Z</time>
      </trkpt>
      <trkpt lat="51.872207997366786" lon="0.194639023393393">
        <ele>95.310000000000002</ele>
        <time>2023-08-15T18:26:23Z</time>
      </trkpt>
      <trkpt lat="51.872269017621875" lon="0.194734996184707">
        <ele>94.829999999999998</ele>
        <time>2023-08-15T18:26:24Z</time>
      </trkpt>
      <trkpt lat="51.872315034270287" lon="0.194843038916588">
        <ele>94.829999999999998</ele>
        <time>2023-08-15T18:26:25Z</time>
      </trkpt>
      <trkpt lat="51.872358033433557" lon="0.194979999214411">
        <ele>94.829999999999998</ele>
        <time>2023-08-15T18:26:26Z</time>
      </trkpt>
      <trkpt lat="51.872402038425207" lon="0.195119976997375">
        <ele>94.349999999999994</ele>
        <time>2023-08-15T18:26:27Z</time>
      </trkpt>
      <trkpt lat="51.872422993183136" lon="0.195254003629088">
        <ele>93.870000000000005</ele>
        <time>2023-08-15T18:26:28Z</time>
      </trkpt>
      <trkpt lat="51.872427016496658" lon="0.195392975583673">
        <ele>93.870000000000005</ele>
        <time>2023-08-15T18:26:29Z</time>
      </trkpt>
      <trkpt lat="51.8724300339818" lon="0.195513004437089">
        <ele>93.390000000000001</ele>
        <time>2023-08-15T18:26:30Z</time>
      </trkpt>
      <trkpt lat="51.872437996789813" lon="0.195984989404678">
        <ele>92.420000000000002</ele>
        <time>2023-08-15T18:26:35Z</time>
      </trkpt>
      <trkpt lat="51.872426010668278" lon="0.196080962195992">
        <ele>92.420000000000002</ele>
        <time>2023-08-15T18:26:36Z</time>
      </trkpt>
      <trkpt lat="51.872415030375123" lon="0.196172995492816">
        <ele>92.420000000000002</ele>
        <time>2023-08-15T18:26:37Z</time>
      </trkpt>
      <trkpt lat="51.872399020940065" lon="0.196295036002994">
        <ele>91.939999999999998</ele>
        <time>2023-08-15T18:26:38Z</time>
      </trkpt>
      <trkpt lat="51.872371025383472" lon="0.19635203294456">
        <ele>91.939999999999998</ele>
        <time>2023-08-15T18:26:39Z</time>
      </trkpt>
      <trkpt lat="51.872335989028215" lon="0.196421016007662">
        <ele>91.939999999999998</ele>
        <time>2023-08-15T18:26:40Z</time>
      </trkpt>
      <trkpt lat="51.872314028441906" lon="0.196466026827693">
        <ele>91.939999999999998</ele>
        <time>2023-08-15T18:26:41Z</time>
      </trkpt>
      <trkpt lat="51.87225996516645" lon="0.196493016555905">
        <ele>91.939999999999998</ele>
        <time>2023-08-15T18:26:42Z</time>
      </trkpt>
      <trkpt lat="51.872220989316702" lon="0.196512965485454">
        <ele>91.939999999999998</ele>
        <time>2023-08-15T18:26:43Z</time>
      </trkpt>
      <trkpt lat="51.872177990153432" lon="0.196534004062414">
        <ele>91.939999999999998</ele>
        <time>2023-08-15T18:26:44Z</time>
      </trkpt>
      <trkpt lat="51.872142031788826" lon="0.196552025154233">
        <ele>91.459999999999994</ele>
        <time>2023-08-15T18:26:45Z</time>
      </trkpt>
      <trkpt lat="51.872076988220215" lon="0.196588989347219">
        <ele>91.459999999999994</ele>
        <time>2023-08-15T18:26:46Z</time>
      </trkpt>
      <trkpt lat="51.871968023478985" lon="0.196665013208985">
        <ele>90.980000000000004</ele>
        <time>2023-08-15T18:26:48Z</time>
      </trkpt>
      <trkpt lat="51.871882025152445" lon="0.196760986000299">
        <ele>90.5</ele>
        <time>2023-08-15T18:26:51Z</time>
      </trkpt>
      <trkpt lat="51.871862998232245" lon="0.196783030405641">
        <ele>90.5</ele>
        <time>2023-08-15T18:26:52Z</time>
      </trkpt>
      <trkpt lat="51.871780017390847" lon="0.197074972093105">
        <ele>88.579999999999998</ele>
        <time>2023-08-15T18:27:00Z</time>
      </trkpt>
      <trkpt lat="51.871798960492015" lon="0.197259960696101">
        <ele>88.579999999999998</ele>
        <time>2023-08-15T18:27:03Z</time>
      </trkpt>
      <trkpt lat="51.871812036260962" lon="0.197364985942841">
        <ele>88.579999999999998</ele>
        <time>2023-08-15T18:27:04Z</time>
      </trkpt>
      <trkpt lat="51.871832991018891" lon="0.197462970390916">
        <ele>88.579999999999998</ele>
        <time>2023-08-15T18:27:05Z</time>
      </trkpt>
      <trkpt lat="51.871874984353781" lon="0.197562966495752">
        <ele>88.579999999999998</ele>
        <time>2023-08-15T18:27:06Z</time>
      </trkpt>
      <trkpt lat="51.871914966031909" lon="0.197661034762859">
        <ele>88.579999999999998</ele>
        <time>2023-08-15T18:27:07Z</time>
      </trkpt>
      <trkpt lat="51.872056033462286" lon="0.197710990905762">
        <ele>88.579999999999998</ele>
        <time>2023-08-15T18:27:08Z</time>
      </trkpt>
      <trkpt lat="51.872071959078312" lon="0.197731023654342">
        <ele>88.579999999999998</ele>
        <time>2023-08-15T18:27:09Z</time>
      </trkpt>
      <trkpt lat="51.872114036232233" lon="0.197783997282386">
        <ele>88.579999999999998</ele>
        <time>2023-08-15T18:27:10Z</time>
      </trkpt>
      <trkpt lat="51.872249990701675" lon="0.197956999763846">
        <ele>89.060000000000002</ele>
        <time>2023-08-15T18:27:14Z</time>
      </trkpt>
      <trkpt lat="51.872286032885313" lon="0.198002010583878">
        <ele>89.060000000000002</ele>
        <time>2023-08-15T18:27:15Z</time>
      </trkpt>
      <trkpt lat="51.872331965714693" lon="0.198061019182205">
        <ele>89.060000000000002</ele>
        <time>2023-08-15T18:27:16Z</time>
      </trkpt>
      <trkpt lat="51.872377982363105" lon="0.198119021952152">
        <ele>89.060000000000002</ele>
        <time>2023-08-15T18:27:17Z</time>
      </trkpt>
      <trkpt lat="51.872415030375123" lon="0.198216000571847">
        <ele>89.060000000000002</ele>
        <time>2023-08-15T18:27:18Z</time>
      </trkpt>
      <trkpt lat="51.87245300039649" lon="0.198319014161825">
        <ele>89.540000000000006</ele>
        <time>2023-08-15T18:27:19Z</time>
      </trkpt>
      <trkpt lat="51.872659027576447" lon="0.198928965255618">
        <ele>89.540000000000006</ele>
        <time>2023-08-15T18:27:24Z</time>
      </trkpt>
      <trkpt lat="51.872713007032871" lon="0.199065003544092">
        <ele>89.540000000000006</ele>
        <time>2023-08-15T18:27:25Z</time>
      </trkpt>
      <trkpt lat="51.872787019237876" lon="0.199194001033902">
        <ele>89.540000000000006</ele>
        <time>2023-08-15T18:27:26Z</time>
      </trkpt>
      <trkpt lat="51.872862037271261" lon="0.199325010180473">
        <ele>89.540000000000006</ele>
        <time>2023-08-15T18:27:27Z</time>
      </trkpt>
      <trkpt lat="51.872963961213827" lon="0.199410002678633">
        <ele>89.540000000000006</ele>
        <time>2023-08-15T18:27:28Z</time>
      </trkpt>
      <trkpt lat="51.873076027259231" lon="0.19949197769165">
        <ele>89.540000000000006</ele>
        <time>2023-08-15T18:27:29Z</time>
      </trkpt>
      <trkpt lat="51.873193038627505" lon="0.19957797601819">
        <ele>89.540000000000006</ele>
        <time>2023-08-15T18:27:30Z</time>
      </trkpt>
      <trkpt lat="51.874312022700906" lon="0.200164960697293">
        <ele>88.099999999999994</ele>
        <time>2023-08-15T18:27:37Z</time>
      </trkpt>
      <trkpt lat="51.875694030895829" lon="0.201127035543323">
        <ele>88.099999999999994</ele>
        <time>2023-08-15T18:27:44Z</time>
      </trkpt>
      <trkpt lat="51.877642991021276" lon="0.202579032629728">
        <ele>90.019999999999996</ele>
        <time>2023-08-15T18:27:53Z</time>
      </trkpt>
      <trkpt lat="51.879938961938024" lon="0.203779991716146">
        <ele>92.420000000000002</ele>
        <time>2023-08-15T18:28:03Z</time>
      </trkpt>
      <trkpt lat="51.882934989407659" lon="0.205029984936118">
        <ele>95.790000000000006</ele>
        <time>2023-08-15T18:28:15Z</time>
      </trkpt>
      <trkpt lat="51.886168979108334" lon="0.206410987302661">
        <ele>98.670000000000002</ele>
        <time>2023-08-15T18:28:28Z</time>
      </trkpt>
      <trkpt lat="51.889290986582637" lon="0.208475030958653">
        <ele>101.08</ele>
        <time>2023-08-15T18:28:41Z</time>
      </trkpt>
      <trkpt lat="51.89187697134912" lon="0.210836967453361">
        <ele>103</ele>
        <time>2023-08-15T18:28:52Z</time>
      </trkpt>
      <trkpt lat="51.894020978361368" lon="0.213379031047225">
        <ele>102.52</ele>
        <time>2023-08-15T18:29:02Z</time>
      </trkpt>
      <trkpt lat="51.89681701362133" lon="0.217364961281419">
        <ele>99.629999999999995</ele>
        <time>2023-08-15T18:29:16Z</time>
      </trkpt>
      <trkpt lat="51.898804027587175" lon="0.219759000465274">
        <ele>96.75</ele>
        <time>2023-08-15T18:29:25Z</time>
      </trkpt>
      <trkpt lat="51.901026992127299" lon="0.221475027501583">
        <ele>92.900000000000006</ele>
        <time>2023-08-15T18:29:34Z</time>
      </trkpt>
      <trkpt lat="51.903416002169251" lon="0.222492003813386">
        <ele>90.980000000000004</ele>
        <time>2023-08-15T18:29:43Z</time>
      </trkpt>
      <trkpt lat="51.905797971412539" lon="0.222730971872807">
        <ele>89.060000000000002</ele>
        <time>2023-08-15T18:29:52Z</time>
      </trkpt>
      <trkpt lat="51.907666968181729" lon="0.222428971901536">
        <ele>88.579999999999998</ele>
        <time>2023-08-15T18:30:00Z</time>
      </trkpt>
      <trkpt lat="51.909931004047394" lon="0.221416018903255">
        <ele>90.5</ele>
        <time>2023-08-15T18:30:10Z</time>
      </trkpt>
      <trkpt lat="51.912857964634895" lon="0.219899984076619">
        <ele>95.790000000000006</ele>
        <time>2023-08-15T18:30:22Z</time>
      </trkpt>
      <trkpt lat="51.9157450273633" lon="0.219115018844604">
        <ele>101.08</ele>
        <time>2023-08-15T18:30:33Z</time>
      </trkpt>
      <trkpt lat="51.918389014899731" lon="0.219040000811219">
        <ele>107.31999999999999</ele>
        <time>2023-08-15T18:30:43Z</time>
      </trkpt>
      <trkpt lat="51.9213090185076" lon="0.219683982431889">
        <ele>110.20999999999999</ele>
        <time>2023-08-15T18:30:54Z</time>
      </trkpt>
      <trkpt lat="51.924131037667394" lon="0.22114503197372">
        <ele>106.36</ele>
        <time>2023-08-15T18:31:05Z</time>
      </trkpt>
      <trkpt lat="51.926977029070258" lon="0.22316699847579">
        <ele>100.11</ele>
        <time>2023-08-15T18:31:17Z</time>
      </trkpt>
      <trkpt lat="51.929268976673484" lon="0.224228985607624">
        <ele>97.709999999999994</ele>
        <time>2023-08-15T18:31:26Z</time>
      </trkpt>
      <trkpt lat="51.93160098977387" lon="0.224569961428642">
        <ele>96.269999999999996</ele>
        <time>2023-08-15T18:31:35Z</time>
      </trkpt>
      <trkpt lat="51.933937026187778" lon="0.224109040573239">
        <ele>98.189999999999998</ele>
        <time>2023-08-15T18:31:44Z</time>
      </trkpt>
      <trkpt lat="51.936222016811371" lon="0.222917972132564">
        <ele>99.629999999999995</ele>
        <time>2023-08-15T18:31:53Z</time>
      </trkpt>
      <trkpt lat="51.938023958355188" lon="0.221364973112941">
        <ele>100.11</ele>
        <time>2023-08-15T18:32:01Z</time>
      </trkpt>
      <trkpt lat="51.940225968137383" lon="0.21891200914979">
        <ele>95.790000000000006</ele>
        <time>2023-08-15T18:32:11Z</time>
      </trkpt>
      <trkpt lat="51.94236796349287" lon="0.217191958799958">
        <ele>87.140000000000001</ele>
        <time>2023-08-15T18:32:20Z</time>
      </trkpt>
      <trkpt lat="51.944651026278734" lon="0.216175988316536">
        <ele>82.329999999999998</ele>
        <time>2023-08-15T18:32:29Z</time>
      </trkpt>
      <trkpt lat="51.946954037994146" lon="0.215900978073478">
        <ele>83.769999999999996</ele>
        <time>2023-08-15T18:32:38Z</time>
      </trkpt>
      <trkpt lat="51.950919013470411" lon="0.215756976976991">
        <ele>88.099999999999994</ele>
        <time>2023-08-15T18:32:53Z</time>
      </trkpt>
      <trkpt lat="51.953802974894643" lon="0.215075025334954">
        <ele>88.579999999999998</ele>
        <time>2023-08-15T18:33:04Z</time>
      </trkpt>
      <trkpt lat="51.957343993708491" lon="0.213622022420168">
        <ele>81.849999999999994</ele>
        <time>2023-08-15T18:33:18Z</time>
      </trkpt>
      <trkpt lat="51.959534017369151" lon="0.213209968060255">
        <ele>78.480000000000004</ele>
        <time>2023-08-15T18:33:26Z</time>
      </trkpt>
      <trkpt lat="51.961433021351695" lon="0.213357992470264">
        <ele>78.969999999999999</ele>
        <time>2023-08-15T18:33:33Z</time>
      </trkpt>
      <trkpt lat="51.964299967512488" lon="0.214191991835833">
        <ele>85.209999999999994</ele>
        <time>2023-08-15T18:33:44Z</time>
      </trkpt>
      <trkpt lat="51.966656958684325" lon="0.214404975995421">
        <ele>86.180000000000007</ele>
        <time>2023-08-15T18:33:53Z</time>
      </trkpt>
      <trkpt lat="51.969556007534266" lon="0.213706009089947">
        <ele>83.290000000000006</ele>
        <time>2023-08-15T18:34:04Z</time>
      </trkpt>
      <trkpt lat="51.971785007044673" lon="0.212392983958125">
        <ele>81.370000000000005</ele>
        <time>2023-08-15T18:34:13Z</time>
      </trkpt>
      <trkpt lat="51.973818959668279" lon="0.210501020774245">
        <ele>83.769999999999996</ele>
        <time>2023-08-15T18:34:22Z</time>
      </trkpt>
      <trkpt lat="51.97564797475934" lon="0.207974966615438">
        <ele>83.769999999999996</ele>
        <time>2023-08-15T18:34:31Z</time>
      </trkpt>
      <trkpt lat="51.97755703702569" lon="0.204478958621621">
        <ele>79.450000000000003</ele>
        <time>2023-08-15T18:34:42Z</time>
      </trkpt>
      <trkpt lat="51.979253031313419" lon="0.201899008825421">
        <ele>75.120000000000005</ele>
        <time>2023-08-15T18:34:51Z</time>
      </trkpt>
      <trkpt lat="51.981075005605817" lon="0.199934961274266">
        <ele>72.239999999999995</ele>
        <time>2023-08-15T18:35:00Z</time>
      </trkpt>
      <trkpt lat="51.983609022572637" lon="0.198095971718431">
        <ele>74.640000000000001</ele>
        <time>2023-08-15T18:35:11Z</time>
      </trkpt>
      <trkpt lat="51.986919958144426" lon="0.196727039292455">
        <ele>81.370000000000005</ele>
        <time>2023-08-15T18:35:24Z</time>
      </trkpt>
      <trkpt lat="51.990499030798674" lon="0.195679971948266">
        <ele>90.5</ele>
        <time>2023-08-15T18:35:38Z</time>
      </trkpt>
      <trkpt lat="51.993650961667299" lon="0.195073960348964">
        <ele>92.420000000000002</ele>
        <time>2023-08-15T18:35:50Z</time>
      </trkpt>
      <trkpt lat="51.996645983308554" lon="0.194781012833118">
        <ele>90.980000000000004</ele>
        <time>2023-08-15T18:36:01Z</time>
      </trkpt>
      <trkpt lat="52.000222960487008" lon="0.19480699673295">
        <ele>78.969999999999999</ele>
        <time>2023-08-15T18:36:14Z</time>
      </trkpt>
      <trkpt lat="52.00308496132493" lon="0.195091981440783">
        <ele>70.310000000000002</ele>
        <time>2023-08-15T18:36:25Z</time>
      </trkpt>
      <trkpt lat="52.006745003163815" lon="0.195834031328559">
        <ele>73.200000000000003</ele>
        <time>2023-08-15T18:36:39Z</time>
      </trkpt>
      <trkpt lat="52.010676031932235" lon="0.197008000686765">
        <ele>85.209999999999994</ele>
        <time>2023-08-15T18:36:54Z</time>
      </trkpt>
      <trkpt lat="52.013541972264647" lon="0.197493983432651">
        <ele>91.459999999999994</ele>
        <time>2023-08-15T18:37:05Z</time>
      </trkpt>
      <trkpt lat="52.016456024721265" lon="0.197475040331483">
        <ele>94.349999999999994</ele>
        <time>2023-08-15T18:37:16Z</time>
      </trkpt>
      <trkpt lat="52.019565962255001" lon="0.1967419590801">
        <ele>88.099999999999994</ele>
        <time>2023-08-15T18:37:28Z</time>
      </trkpt>
      <trkpt lat="52.022628039121628" lon="0.195317035540938">
        <ele>81.370000000000005</ele>
        <time>2023-08-15T18:37:40Z</time>
      </trkpt>
      <trkpt lat="52.025873009115458" lon="0.193107984960079">
        <ele>86.659999999999997</ele>
        <time>2023-08-15T18:37:53Z</time>
      </trkpt>
      <trkpt lat="52.029087971895933" lon="0.191073026508093">
        <ele>94.829999999999998</ele>
        <time>2023-08-15T18:38:06Z</time>
      </trkpt>
      <trkpt lat="52.031640009954572" lon="0.189997041597962">
        <ele>100.59999999999999</ele>
        <time>2023-08-15T18:38:16Z</time>
      </trkpt>
      <trkpt lat="52.034746007993817" lon="0.189318023622036">
        <ele>106.84</ele>
        <time>2023-08-15T18:38:28Z</time>
      </trkpt>
      <trkpt lat="52.03720198944211" lon="0.189252980053425">
        <ele>107.31999999999999</ele>
        <time>2023-08-15T18:38:37Z</time>
      </trkpt>
      <trkpt lat="52.040384011343122" lon="0.189707027748227">
        <ele>104.92</ele>
        <time>2023-08-15T18:38:49Z</time>
      </trkpt>
      <trkpt lat="52.043524961918592" lon="0.190836992114782">
        <ele>98.670000000000002</ele>
        <time>2023-08-15T18:39:01Z</time>
      </trkpt>
      <trkpt lat="52.04613802023232" lon="0.191778028383851">
        <ele>91.459999999999994</ele>
        <time>2023-08-15T18:39:11Z</time>
      </trkpt>
      <trkpt lat="52.049045031890273" lon="0.192280020564795">
        <ele>81.370000000000005</ele>
        <time>2023-08-15T18:39:22Z</time>
      </trkpt>
      <trkpt lat="52.052224036306143" lon="0.192063013091683">
        <ele>68.870000000000005</ele>
        <time>2023-08-15T18:39:34Z</time>
      </trkpt>
      <trkpt lat="52.054492011666298" lon="0.191435040906072">
        <ele>63.100000000000001</ele>
        <time>2023-08-15T18:39:43Z</time>
      </trkpt>
      <trkpt lat="52.057003984227777" lon="0.189968040212989">
        <ele>58.299999999999997</ele>
        <time>2023-08-15T18:39:54Z</time>
      </trkpt>
      <trkpt lat="52.058497974649072" lon="0.188354020938277">
        <ele>55.890000000000001</ele>
        <time>2023-08-15T18:40:01Z</time>
      </trkpt>
      <trkpt lat="52.058683969080448" lon="0.188056966289878">
        <ele>54.93</ele>
        <time>2023-08-15T18:40:02Z</time>
      </trkpt>
      <trkpt lat="52.060417011380196" lon="0.184953985735774">
        <ele>50.130000000000003</ele>
        <time>2023-08-15T18:40:12Z</time>
      </trkpt>
      <trkpt lat="52.061708997935057" lon="0.183872971683741">
        <ele>47.719999999999999</ele>
        <time>2023-08-15T18:40:18Z</time>
      </trkpt>
      <trkpt lat="52.061946960166097" lon="0.183782028034329">
        <ele>47.719999999999999</ele>
        <time>2023-08-15T18:40:19Z</time>
      </trkpt>
      <trkpt lat="52.062194980680943" lon="0.183755038306117">
        <ele>47.240000000000002</ele>
        <time>2023-08-15T18:40:20Z</time>
      </trkpt>
      <trkpt lat="52.06244601868093" lon="0.183728970587254">
        <ele>47.240000000000002</ele>
        <time>2023-08-15T18:40:21Z</time>
      </trkpt>
      <trkpt lat="52.062694039195776" lon="0.183702986687422">
        <ele>46.759999999999998</ele>
        <time>2023-08-15T18:40:22Z</time>
      </trkpt>
      <trkpt lat="52.062942981719971" lon="0.183755038306117">
        <ele>46.759999999999998</ele>
        <time>2023-08-15T18:40:23Z</time>
      </trkpt>
      <trkpt lat="52.064335970208049" lon="0.184464985504746">
        <ele>47.240000000000002</ele>
        <time>2023-08-15T18:40:29Z</time>
      </trkpt>
      <trkpt lat="52.06665800884366" lon="0.185821009799838">
        <ele>46.759999999999998</ele>
        <time>2023-08-15T18:40:39Z</time>
      </trkpt>
      <trkpt lat="52.068486018106341" lon="0.186785012483597">
        <ele>45.32</ele>
        <time>2023-08-15T18:40:47Z</time>
      </trkpt>
      <trkpt lat="52.070856001228094" lon="0.188506990671158">
        <ele>41.469999999999999</ele>
        <time>2023-08-15T18:40:58Z</time>
      </trkpt>
      <trkpt lat="52.073553968220949" lon="0.190618978813291">
        <ele>42.439999999999998</ele>
        <time>2023-08-15T18:41:11Z</time>
      </trkpt>
      <trkpt lat="52.074690973386168" lon="0.191305037587881">
        <ele>45.32</ele>
        <time>2023-08-15T18:41:18Z</time>
      </trkpt>
      <trkpt lat="52.075910959392786" lon="0.192020013928413">
        <ele>46.759999999999998</ele>
        <time>2023-08-15T18:41:28Z</time>
      </trkpt>
      <trkpt lat="52.076022019609809" lon="0.192083967849612">
        <ele>46.759999999999998</ele>
        <time>2023-08-15T18:41:30Z</time>
      </trkpt>
      <trkpt lat="52.07606996409595" lon="0.192111963406205">
        <ele>46.759999999999998</ele>
        <time>2023-08-15T18:41:31Z</time>
      </trkpt>
      <trkpt lat="52.07615596242249" lon="0.19214297644794">
        <ele>46.759999999999998</ele>
        <time>2023-08-15T18:41:32Z</time>
      </trkpt>
      <trkpt lat="52.076227040961385" lon="0.192096037790179">
        <ele>46.759999999999998</ele>
        <time>2023-08-15T18:41:33Z</time>
      </trkpt>
      <trkpt lat="52.076312033459544" lon="0.191981960088015">
        <ele>46.759999999999998</ele>
        <time>2023-08-15T18:41:34Z</time>
      </trkpt>
      <trkpt lat="52.076372969895601" lon="0.191858997568488">
        <ele>46.280000000000001</ele>
        <time>2023-08-15T18:41:35Z</time>
      </trkpt>
      <trkpt lat="52.076447987928987" lon="0.191723965108395">
        <ele>46.759999999999998</ele>
        <time>2023-08-15T18:41:36Z</time>
      </trkpt>
      <trkpt lat="52.077200012281537" lon="0.190551001578569">
        <ele>44.840000000000003</ele>
        <time>2023-08-15T18:41:43Z</time>
      </trkpt>
      <trkpt lat="52.078270968049765" lon="0.189467975869775">
        <ele>43.399999999999999</ele>
        <time>2023-08-15T18:41:51Z</time>
      </trkpt>
      <trkpt lat="52.078834986314178" lon="0.189019041135907">
        <ele>41.950000000000003</ele>
        <time>2023-08-15T18:41:57Z</time>
      </trkpt>
      <trkpt lat="52.078887037932873" lon="0.188926002010703">
        <ele>41.469999999999999</ele>
        <time>2023-08-15T18:41:58Z</time>
      </trkpt>
      <trkpt lat="52.078935988247395" lon="0.188836986199021">
        <ele>41.469999999999999</ele>
        <time>2023-08-15T18:41:59Z</time>
      </trkpt>
      <trkpt lat="52.078983010724187" lon="0.188751993700862">
        <ele>40.990000000000002</ele>
        <time>2023-08-15T18:42:00Z</time>
      </trkpt>
      <trkpt lat="52.079028021544218" lon="0.188671024516225">
        <ele>40.990000000000002</ele>
        <time>2023-08-15T18:42:01Z</time>
      </trkpt>
      <trkpt lat="52.079079989343882" lon="0.188484024256468">
        <ele>40.030000000000001</ele>
        <time>2023-08-15T18:42:03Z</time>
      </trkpt>
      <trkpt lat="52.079144027084112" lon="0.188419986516237">
        <ele>40.030000000000001</ele>
        <time>2023-08-15T18:42:04Z</time>
      </trkpt>
      <trkpt lat="52.079204963520169" lon="0.188419986516237">
        <ele>40.030000000000001</ele>
        <time>2023-08-15T18:42:05Z</time>
      </trkpt>
      <trkpt lat="52.079462958499789" lon="0.188519982621074">
        <ele>39.07</ele>
        <time>2023-08-15T18:42:08Z</time>
      </trkpt>
      <trkpt lat="52.079551974311471" lon="0.188505984842777">
        <ele>39.07</ele>
        <time>2023-08-15T18:42:09Z</time>
      </trkpt>
      <trkpt lat="52.079669991508126" lon="0.188445970416069">
        <ele>39.07</ele>
        <time>2023-08-15T18:42:10Z</time>
      </trkpt>
      <trkpt lat="52.079779040068388" lon="0.188391990959644">
        <ele>38.590000000000003</ele>
        <time>2023-08-15T18:42:11Z</time>
      </trkpt>
      <trkpt lat="52.079889010637999" lon="0.188337005674839">
        <ele>38.590000000000003</ele>
        <time>2023-08-15T18:42:12Z</time>
      </trkpt>
      <trkpt lat="52.081143027171493" lon="0.187426982447505">
        <ele>36.189999999999998</ele>
        <time>2023-08-15T18:42:23Z</time>
      </trkpt>
      <trkpt lat="52.081817016005516" lon="0.186864975839853">
        <ele>35.229999999999997</ele>
        <time>2023-08-15T18:42:28Z</time>
      </trkpt>
      <trkpt lat="52.081959005445242" lon="0.186746958643198">
        <ele>34.259999999999998</ele>
        <time>2023-08-15T18:42:29Z</time>
      </trkpt>
      <trkpt lat="52.083238000050187" lon="0.185961993411183">
        <ele>28.98</ele>
        <time>2023-08-15T18:42:37Z</time>
      </trkpt>
      <trkpt lat="52.085660034790635" lon="0.184754999354482">
        <ele>30.899999999999999</ele>
        <time>2023-08-15T18:42:50Z</time>
      </trkpt>
      <trkpt lat="52.08803697489202" lon="0.18357097171247">
        <ele>32.340000000000003</ele>
        <time>2023-08-15T18:43:02Z</time>
      </trkpt>
      <trkpt lat="52.089455025270581" lon="0.183289004489779">
        <ele>32.340000000000003</ele>
        <time>2023-08-15T18:43:10Z</time>
      </trkpt>
      <trkpt lat="52.090605022385716" lon="0.182849038392305">
        <ele>32.82</ele>
        <time>2023-08-15T18:43:17Z</time>
      </trkpt>
      <trkpt lat="52.092535039409995" lon="0.1812709774822">
        <ele>31.859999999999999</ele>
        <time>2023-08-15T18:43:29Z</time>
      </trkpt>
      <trkpt lat="52.094078985974193" lon="0.180443013086915">
        <ele>30.420000000000002</ele>
        <time>2023-08-15T18:43:38Z</time>
      </trkpt>
      <trkpt lat="52.096291976049542" lon="0.180020984262228">
        <ele>30.899999999999999</ele>
        <time>2023-08-15T18:43:50Z</time>
      </trkpt>
      <trkpt lat="52.09843598306179" lon="0.179587975144386">
        <ele>30.420000000000002</ele>
        <time>2023-08-15T18:44:01Z</time>
      </trkpt>
      <trkpt lat="52.099942965433002" lon="0.178707037121058">
        <ele>30.420000000000002</ele>
        <time>2023-08-15T18:44:09Z</time>
      </trkpt>
      <trkpt lat="52.10251796990633" lon="0.177815034985542">
        <ele>32.82</ele>
        <time>2023-08-15T18:44:22Z</time>
      </trkpt>
      <trkpt lat="52.103856978937984" lon="0.177441034466028">
        <ele>32.82</ele>
        <time>2023-08-15T18:44:31Z</time>
      </trkpt>
      <trkpt lat="52.104125032201409" lon="0.177344977855682">
        <ele>32.340000000000003</ele>
        <time>2023-08-15T18:44:34Z</time>
      </trkpt>
      <trkpt lat="52.104188986122608" lon="0.177298961207271">
        <ele>32.340000000000003</ele>
        <time>2023-08-15T18:44:35Z</time>
      </trkpt>
      <trkpt lat="52.104233996942639" lon="0.177238024771214">
        <ele>31.859999999999999</ele>
        <time>2023-08-15T18:44:36Z</time>
      </trkpt>
      <trkpt lat="52.104283031076193" lon="0.177169963717461">
        <ele>31.859999999999999</ele>
        <time>2023-08-15T18:44:37Z</time>
      </trkpt>
      <trkpt lat="52.104356959462166" lon="0.177068961784244">
        <ele>31.859999999999999</ele>
        <time>2023-08-15T18:44:38Z</time>
      </trkpt>
      <trkpt lat="52.104389984160662" lon="0.176958991214633">
        <ele>31.859999999999999</ele>
        <time>2023-08-15T18:44:39Z</time>
      </trkpt>
      <trkpt lat="52.104420997202396" lon="0.176853965967894">
        <ele>31.379999999999999</ele>
        <time>2023-08-15T18:44:41Z</time>
      </trkpt>
      <trkpt lat="52.104561980813742" lon="0.176452975720167">
        <ele>30.899999999999999</ele>
        <time>2023-08-15T18:44:42Z</time>
      </trkpt>
      <trkpt lat="52.104541026055813" lon="0.176273016259074">
        <ele>30.899999999999999</ele>
        <time>2023-08-15T18:44:43Z</time>
      </trkpt>
      <trkpt lat="52.104520993307233" lon="0.176069000735879">
        <ele>30.899999999999999</ele>
        <time>2023-08-15T18:44:44Z</time>
      </trkpt>
      <trkpt lat="52.104498026892543" lon="0.175858028233051">
        <ele>30.899999999999999</ele>
        <time>2023-08-15T18:44:45Z</time>
      </trkpt>
      <trkpt lat="52.104212958365679" lon="0.173487961292267">
        <ele>29.460000000000001</ele>
        <time>2023-08-15T18:44:55Z</time>
      </trkpt>
      <trkpt lat="52.103821020573378" lon="0.170320020988584">
        <ele>27.050000000000001</ele>
        <time>2023-08-15T18:45:05Z</time>
      </trkpt>
      <trkpt lat="52.103229006752372" lon="0.166981006041169">
        <ele>27.530000000000001</ele>
        <time>2023-08-15T18:45:15Z</time>
      </trkpt>
      <trkpt lat="52.102498020976782" lon="0.163430012762547">
        <ele>29.940000000000001</ele>
        <time>2023-08-15T18:45:25Z</time>
      </trkpt>
      <trkpt lat="52.102142041549087" lon="0.16081603243947">
        <ele>27.530000000000001</ele>
        <time>2023-08-15T18:45:33Z</time>
      </trkpt>
      <trkpt lat="52.102211024612188" lon="0.157832996919751">
        <ele>25.609999999999999</ele>
        <time>2023-08-15T18:45:42Z</time>
      </trkpt>
      <trkpt lat="52.102512018755078" lon="0.15490997582674">
        <ele>26.57</ele>
        <time>2023-08-15T18:45:51Z</time>
      </trkpt>
      <trkpt lat="52.102659959346056" lon="0.151950996369123">
        <ele>28.5</ele>
        <time>2023-08-15T18:46:00Z</time>
      </trkpt>
      <trkpt lat="52.102401964366436" lon="0.149031998589635">
        <ele>32.340000000000003</ele>
        <time>2023-08-15T18:46:09Z</time>
      </trkpt>
      <trkpt lat="52.101555978879333" lon="0.145298028364778">
        <ele>36.670000000000002</ele>
        <time>2023-08-15T18:46:21Z</time>
      </trkpt>
      <trkpt lat="52.101173009723425" lon="0.144236041232944">
        <ele>38.590000000000003</ele>
        <time>2023-08-15T18:46:26Z</time>
      </trkpt>
      <trkpt lat="52.101112995296717" lon="0.14412104152143">
        <ele>39.07</ele>
        <time>2023-08-15T18:46:27Z</time>
      </trkpt>
      <trkpt lat="52.101048035547137" lon="0.144019033759832">
        <ele>39.07</ele>
        <time>2023-08-15T18:46:28Z</time>
      </trkpt>
      <trkpt lat="52.100974023342133" lon="0.143910991027951">
        <ele>38.590000000000003</ele>
        <time>2023-08-15T18:46:29Z</time>
      </trkpt>
      <trkpt lat="52.100934041664004" lon="0.143756009638309">
        <ele>38.590000000000003</ele>
        <time>2023-08-15T18:46:30Z</time>
      </trkpt>
      <trkpt lat="52.100896993651986" lon="0.143579989671707">
        <ele>38.590000000000003</ele>
        <time>2023-08-15T18:46:31Z</time>
      </trkpt>
      <trkpt lat="52.100859023630619" lon="0.143402041867375">
        <ele>38.590000000000003</ele>
        <time>2023-08-15T18:46:32Z</time>
      </trkpt>
      <trkpt lat="52.100787023082376" lon="0.143188973888755">
        <ele>38.109999999999999</ele>
        <time>2023-08-15T18:46:33Z</time>
      </trkpt>
      <trkpt lat="52.10071099922061" lon="0.142968026921153">
        <ele>38.109999999999999</ele>
        <time>2023-08-15T18:46:34Z</time>
      </trkpt>
      <trkpt lat="52.100627012550831" lon="0.14272503554821">
        <ele>37.630000000000003</ele>
        <time>2023-08-15T18:46:35Z</time>
      </trkpt>
      <trkpt lat="52.100523998960853" lon="0.142477015033364">
        <ele>37.630000000000003</ele>
        <time>2023-08-15T18:46:36Z</time>
      </trkpt>
      <trkpt lat="52.099524037912488" lon="0.140372989699245">
        <ele>37.630000000000003</ele>
        <time>2023-08-15T18:46:44Z</time>
      </trkpt>
      <trkpt lat="52.099122041836381" lon="0.139595987275243">
        <ele>38.109999999999999</ele>
        <time>2023-08-15T18:46:49Z</time>
      </trkpt>
      <trkpt lat="52.09905699826777" lon="0.139518035575747">
        <ele>38.590000000000003</ele>
        <time>2023-08-15T18:46:50Z</time>
      </trkpt>
      <trkpt lat="52.0989949721843" lon="0.139480987563729">
        <ele>38.590000000000003</ele>
        <time>2023-08-15T18:46:51Z</time>
      </trkpt>
      <trkpt lat="52.098891036584973" lon="0.13941996730864">
        <ele>39.07</ele>
        <time>2023-08-15T18:46:53Z</time>
      </trkpt>
      <trkpt lat="52.098727002739906" lon="0.139323994517326">
        <ele>39.549999999999997</ele>
        <time>2023-08-15T18:46:56Z</time>
      </trkpt>
      <trkpt lat="52.098550982773304" lon="0.139239002019167">
        <ele>40.030000000000001</ele>
        <time>2023-08-15T18:46:58Z</time>
      </trkpt>
      <trkpt lat="52.098447969183326" lon="0.13915903866291">
        <ele>40.509999999999998</ele>
        <time>2023-08-15T18:46:59Z</time>
      </trkpt>
      <trkpt lat="52.098357025533915" lon="0.139018977060914">
        <ele>40.509999999999998</ele>
        <time>2023-08-15T18:47:00Z</time>
      </trkpt>
      <trkpt lat="52.098271027207375" lon="0.138846980407834">
        <ele>40.509999999999998</ele>
        <time>2023-08-15T18:47:01Z</time>
      </trkpt>
      <trkpt lat="52.09817798808217" lon="0.138660985976458">
        <ele>40.030000000000001</ele>
        <time>2023-08-15T18:47:02Z</time>
      </trkpt>
      <trkpt lat="52.09809098392725" lon="0.138455964624882">
        <ele>40.030000000000001</ele>
        <time>2023-08-15T18:47:03Z</time>
      </trkpt>
      <trkpt lat="52.097925022244453" lon="0.137883983552456">
        <ele>40.030000000000001</ele>
        <time>2023-08-15T18:47:06Z</time>
      </trkpt>
      <trkpt lat="52.097900966182351" lon="0.137713998556137">
        <ele>40.030000000000001</ele>
        <time>2023-08-15T18:47:07Z</time>
      </trkpt>
      <trkpt lat="52.097876993939281" lon="0.137521969154477">
        <ele>39.549999999999997</ele>
        <time>2023-08-15T18:47:08Z</time>
      </trkpt>
      <trkpt lat="52.097893003374338" lon="0.137371011078358">
        <ele>39.549999999999997</ele>
        <time>2023-08-15T18:47:09Z</time>
      </trkpt>
      <trkpt lat="52.09793902002275" lon="0.137234972789884">
        <ele>39.549999999999997</ele>
        <time>2023-08-15T18:47:10Z</time>
      </trkpt>
      <trkpt lat="52.097995011135936" lon="0.137106981128454">
        <ele>39.549999999999997</ele>
        <time>2023-08-15T18:47:11Z</time>
      </trkpt>
      <trkpt lat="52.098059970885515" lon="0.136972032487392">
        <ele>39.07</ele>
        <time>2023-08-15T18:47:12Z</time>
      </trkpt>
      <trkpt lat="52.098144963383675" lon="0.136870024725795">
        <ele>39.07</ele>
        <time>2023-08-15T18:47:13Z</time>
      </trkpt>
      <trkpt lat="52.098255017772317" lon="0.136829037219286">
        <ele>39.07</ele>
        <time>2023-08-15T18:47:14Z</time>
      </trkpt>
      <trkpt lat="52.098363982513547" lon="0.136798024177551">
        <ele>39.07</ele>
        <time>2023-08-15T18:47:15Z</time>
      </trkpt>
      <trkpt lat="52.098475964739919" lon="0.136773968115449">
        <ele>39.07</ele>
        <time>2023-08-15T18:47:16Z</time>
      </trkpt>
      <trkpt lat="52.09858501330018" lon="0.136792995035648">
        <ele>39.07</ele>
        <time>2023-08-15T18:47:17Z</time>
      </trkpt>
      <trkpt lat="52.098691966384649" lon="0.136763993650675">
        <ele>39.07</ele>
        <time>2023-08-15T18:47:18Z</time>
      </trkpt>
      <trkpt lat="52.098810989409685" lon="0.136730968952179">
        <ele>39.07</ele>
        <time>2023-08-15T18:47:19Z</time>
      </trkpt>
      <trkpt lat="52.098933029919863" lon="0.136686963960528">
        <ele>38.590000000000003</ele>
        <time>2023-08-15T18:47:20Z</time>
      </trkpt>
      <trkpt lat="52.099065966904163" lon="0.136639019474387">
        <ele>38.590000000000003</ele>
        <time>2023-08-15T18:47:21Z</time>
      </trkpt>
      <trkpt lat="52.09920896217227" lon="0.136585962027311">
        <ele>39.07</ele>
        <time>2023-08-15T18:47:22Z</time>
      </trkpt>
      <trkpt lat="52.10045300424099" lon="0.135917002335191">
        <ele>36.670000000000002</ele>
        <time>2023-08-15T18:47:29Z</time>
      </trkpt>
      <trkpt lat="52.102394001558423" lon="0.134549997746944">
        <ele>37.149999999999999</ele>
        <time>2023-08-15T18:47:38Z</time>
      </trkpt>
      <trkpt lat="52.104269033297896" lon="0.132873030379415">
        <ele>38.109999999999999</ele>
        <time>2023-08-15T18:47:46Z</time>
      </trkpt>
      <trkpt lat="52.10713597945869" lon="0.13041403144598">
        <ele>35.710000000000001</ele>
        <time>2023-08-15T18:47:58Z</time>
      </trkpt>
      <trkpt lat="52.109872000291944" lon="0.128793977200985">
        <ele>33.299999999999997</ele>
        <time>2023-08-15T18:48:09Z</time>
      </trkpt>
      <trkpt lat="52.112745987251401" lon="0.127830980345607">
        <ele>30.420000000000002</ele>
        <time>2023-08-15T18:48:20Z</time>
      </trkpt>
      <trkpt lat="52.116166977211833" lon="0.127255981788039">
        <ele>27.050000000000001</ele>
        <time>2023-08-15T18:48:33Z</time>
      </trkpt>
      <trkpt lat="52.119027972221375" lon="0.126348976045847">
        <ele>26.09</ele>
        <time>2023-08-15T18:48:44Z</time>
      </trkpt>
      <trkpt lat="52.121761981397867" lon="0.124723976477981">
        <ele>24.170000000000002</ele>
        <time>2023-08-15T18:48:55Z</time>
      </trkpt>
      <trkpt lat="52.123913029208779" lon="0.122976014390588">
        <ele>24.170000000000002</ele>
        <time>2023-08-15T18:49:04Z</time>
      </trkpt>
      <trkpt lat="52.127673989161849" lon="0.119747975841165">
        <ele>24.170000000000002</ele>
        <time>2023-08-15T18:49:20Z</time>
      </trkpt>
      <trkpt lat="52.129276022315025" lon="0.118374014273286">
        <ele>21.289999999999999</ele>
        <time>2023-08-15T18:49:27Z</time>
      </trkpt>
      <trkpt lat="52.130711004137993" lon="0.117119997739792">
        <ele>18.879999999999999</ele>
        <time>2023-08-15T18:49:35Z</time>
      </trkpt>
      <trkpt lat="52.132927011698484" lon="0.115210013464093">
        <ele>17.920000000000002</ele>
        <time>2023-08-15T18:49:48Z</time>
      </trkpt>
      <trkpt lat="52.135544009506702" lon="0.112980008125305">
        <ele>19.84</ele>
        <time>2023-08-15T18:50:04Z</time>
      </trkpt>
      <trkpt lat="52.137674018740654" lon="0.111504960805178">
        <ele>21.289999999999999</ele>
        <time>2023-08-15T18:50:16Z</time>
      </trkpt>
      <trkpt lat="52.139852978289127" lon="0.110448002815247">
        <ele>23.210000000000001</ele>
        <time>2023-08-15T18:50:28Z</time>
      </trkpt>
      <trkpt lat="52.141414023935795" lon="0.109965959563851">
        <ele>26.09</ele>
        <time>2023-08-15T18:50:36Z</time>
      </trkpt>
      <trkpt lat="52.143688034266233" lon="0.109674017876387">
        <ele>26.09</ele>
        <time>2023-08-15T18:50:46Z</time>
      </trkpt>
      <trkpt lat="52.145859031006694" lon="0.10983101092279">
        <ele>26.57</ele>
        <time>2023-08-15T18:50:56Z</time>
      </trkpt>
      <trkpt lat="52.148304032161832" lon="0.110244993120432">
        <ele>26.09</ele>
        <time>2023-08-15T18:51:07Z</time>
      </trkpt>
      <trkpt lat="52.150793960317969" lon="0.110355969518423">
        <ele>24.170000000000002</ele>
        <time>2023-08-15T18:51:18Z</time>
      </trkpt>
      <trkpt lat="52.152422983199358" lon="0.110020022839308">
        <ele>22.73</ele>
        <time>2023-08-15T18:51:26Z</time>
      </trkpt>
      <trkpt lat="52.1544239949435" lon="0.109184011816978">
        <ele>20.32</ele>
        <time>2023-08-15T18:51:37Z</time>
      </trkpt>
      <trkpt lat="52.15631403028965" lon="0.1079429872334">
        <ele>20.32</ele>
        <time>2023-08-15T18:51:47Z</time>
      </trkpt>
      <trkpt lat="52.157731996849179" lon="0.106413960456848">
        <ele>20.32</ele>
        <time>2023-08-15T18:51:56Z</time>
      </trkpt>
      <trkpt lat="52.159045021981001" lon="0.104572037234902">
        <ele>22.73</ele>
        <time>2023-08-15T18:52:05Z</time>
      </trkpt>
      <trkpt lat="52.159394966438413" lon="0.103744994848967">
        <ele>23.690000000000001</ele>
        <time>2023-08-15T18:52:11Z</time>
      </trkpt>
      <trkpt lat="52.159481970593333" lon="0.103511977940798">
        <ele>23.210000000000001</ele>
        <time>2023-08-15T18:52:13Z</time>
      </trkpt>
      <trkpt lat="52.159499991685152" lon="0.103411981835961">
        <ele>23.210000000000001</ele>
        <time>2023-08-15T18:52:14Z</time>
      </trkpt>
      <trkpt lat="52.159524969756603" lon="0.103275021538138">
        <ele>23.210000000000001</ele>
        <time>2023-08-15T18:52:15Z</time>
      </trkpt>
      <trkpt lat="52.159549025818706" lon="0.103143006563187">
        <ele>23.210000000000001</ele>
        <time>2023-08-15T18:52:16Z</time>
      </trkpt>
      <trkpt lat="52.159570986405015" lon="0.103002022951841">
        <ele>22.73</ele>
        <time>2023-08-15T18:52:17Z</time>
      </trkpt>
      <trkpt lat="52.159542990848422" lon="0.102671021595597">
        <ele>22.25</ele>
        <time>2023-08-15T18:52:19Z</time>
      </trkpt>
      <trkpt lat="52.159497980028391" lon="0.102522997185588">
        <ele>22.25</ele>
        <time>2023-08-15T18:52:20Z</time>
      </trkpt>
      <trkpt lat="52.159448023885489" lon="0.10235502384603">
        <ele>21.77</ele>
        <time>2023-08-15T18:52:21Z</time>
      </trkpt>
      <trkpt lat="52.159393960610032" lon="0.102176992222667">
        <ele>21.77</ele>
        <time>2023-08-15T18:52:22Z</time>
      </trkpt>
      <trkpt lat="52.159309973940253" lon="0.10201002471149">
        <ele>21.77</ele>
        <time>2023-08-15T18:52:23Z</time>
      </trkpt>
      <trkpt lat="52.159230010583997" lon="0.101850014179945">
        <ele>21.77</ele>
        <time>2023-08-15T18:52:24Z</time>
      </trkpt>
      <trkpt lat="52.159163961187005" lon="0.101717999204993">
        <ele>21.289999999999999</ele>
        <time>2023-08-15T18:52:25Z</time>
      </trkpt>
      <trkpt lat="52.159081986173987" lon="0.101553965359926">
        <ele>21.77</ele>
        <time>2023-08-15T18:52:27Z</time>
      </trkpt>
      <trkpt lat="52.159060025587678" lon="0.101509038358927">
        <ele>21.77</ele>
        <time>2023-08-15T18:52:28Z</time>
      </trkpt>
      <trkpt lat="52.159052984789014" lon="0.10149504058063">
        <ele>21.77</ele>
        <time>2023-08-15T18:52:29Z</time>
      </trkpt>
      <trkpt lat="52.159052984789014" lon="0.10149504058063">
        <ele>21.77</ele>
        <time>2023-08-15T18:52:42Z</time>
      </trkpt>
      <trkpt lat="52.159052984789014" lon="0.10149504058063">
        <ele>21.77</ele>
        <time>2023-08-15T18:53:32Z</time>
      </trkpt>
      <trkpt lat="52.159052984789014" lon="0.10149504058063">
        <ele>21.77</ele>
        <time>2023-08-15T18:54:37Z</time>
      </trkpt>
      <trkpt lat="52.159052984789014" lon="0.10149504058063">
        <ele>21.289999999999999</ele>
        <time>2023-08-15T18:55:33Z</time>
      </trkpt>
      <trkpt lat="52.159052984789014" lon="0.10149504058063">
        <ele>21.289999999999999</ele>
        <time>2023-08-15T18:56:24Z</time>
      </trkpt>
      <trkpt lat="52.159052984789014" lon="0.10149504058063">
        <ele>21.289999999999999</ele>
        <time>2023-08-15T18:57:21Z</time>
      </trkpt>
      <trkpt lat="52.159052984789014" lon="0.10149504058063">
        <ele>20.809999999999999</ele>
        <time>2023-08-15T18:58:18Z</time>
      </trkpt>
      <trkpt lat="52.159052984789014" lon="0.10149504058063">
        <ele>20.32</ele>
        <time>2023-08-15T18:59:20Z</time>
      </trkpt>
      <trkpt lat="52.159052984789014" lon="0.10149504058063">
        <ele>20.32</ele>
        <time>2023-08-15T19:00:23Z</time>
      </trkpt>
      <trkpt lat="52.159052984789014" lon="0.10149504058063">
        <ele>19.84</ele>
        <time>2023-08-15T19:01:22Z</time>
      </trkpt>
      <trkpt lat="52.159052984789014" lon="0.10149504058063">
        <ele>20.32</ele>
        <time>2023-08-15T19:02:25Z</time>
      </trkpt>
      <trkpt lat="52.159052984789014" lon="0.10149504058063">
        <ele>19.84</ele>
        <time>2023-08-15T19:03:23Z</time>
      </trkpt>
      <trkpt lat="52.159052984789014" lon="0.10149504058063">
        <ele>19.84</ele>
        <time>2023-08-15T19:04:21Z</time>
      </trkpt>
      <trkpt lat="52.159052984789014" lon="0.10149504058063">
        <ele>19.84</ele>
        <time>2023-08-15T19:05:20Z</time>
      </trkpt>
      <trkpt lat="52.159052984789014" lon="0.10149504058063">
        <ele>19.84</ele>
        <time>2023-08-15T19:06:12Z</time>
      </trkpt>
      <trkpt lat="52.159052984789014" lon="0.10149504058063">
        <ele>19.84</ele>
        <time>2023-08-15T19:07:06Z</time>
      </trkpt>
    </trkseg>
  </trk>

  <trk>
    <name>Track vom: 2023-08-15 20:07</name>
    <extensions>
      <gpxx:TrackExtension>
        <gpxx:DisplayColor>DarkGray</gpxx:DisplayColor>
      </gpxx:TrackExtension>
    </extensions>
    <trkseg>
      <trkpt lat="52.159052984789014" lon="0.10149504058063">
        <ele>19.359999999999999</ele>
        <time>2023-08-15T19:07:39Z</time>
      </trkpt>
      <trkpt lat="52.159052984789014" lon="0.10149504058063">
        <ele>19.359999999999999</ele>
        <time>2023-08-15T19:08:25Z</time>
      </trkpt>
      <trkpt lat="52.159019960090518" lon="0.10140803642571">
        <ele>19.359999999999999</ele>
        <time>2023-08-15T19:08:58Z</time>
      </trkpt>
      <trkpt lat="52.159005962312222" lon="0.101369982585311">
        <ele>18.879999999999999</ele>
        <time>2023-08-15T19:08:59Z</time>
      </trkpt>
      <trkpt lat="52.15897997841239" lon="0.101298987865448">
        <ele>18.879999999999999</ele>
        <time>2023-08-15T19:09:00Z</time>
      </trkpt>
      <trkpt lat="52.158627016469836" lon="0.100348982959986">
        <ele>17.920000000000002</ele>
        <time>2023-08-15T19:09:07Z</time>
      </trkpt>
      <trkpt lat="52.157860994338989" lon="0.098293991759419">
        <ele>17.440000000000001</ele>
        <time>2023-08-15T19:09:18Z</time>
      </trkpt>
      <trkpt lat="52.156767994165421" lon="0.095871035009623">
        <ele>17.440000000000001</ele>
        <time>2023-08-15T19:09:29Z</time>
      </trkpt>
      <trkpt lat="52.155777001753449" lon="0.093020014464855">
        <ele>15.52</ele>
        <time>2023-08-15T19:09:40Z</time>
      </trkpt>
      <trkpt lat="52.155296970158815" lon="0.091933971270919">
        <ele>14.08</ele>
        <time>2023-08-15T19:09:45Z</time>
      </trkpt>
      <trkpt lat="52.155179958790541" lon="0.091773960739374">
        <ele>13.6</ele>
        <time>2023-08-15T19:09:46Z</time>
      </trkpt>
      <trkpt lat="52.154285022988915" lon="0.091062001883984">
        <ele>13.119999999999999</ele>
        <time>2023-08-15T19:09:53Z</time>
      </trkpt>
      <trkpt lat="52.154011018574238" lon="0.091019002720714">
        <ele>13.6</ele>
        <time>2023-08-15T19:09:55Z</time>
      </trkpt>
      <trkpt lat="52.153869029134512" lon="0.091006010770798">
        <ele>13.6</ele>
        <time>2023-08-15T19:09:56Z</time>
      </trkpt>
      <trkpt lat="52.152840988710523" lon="0.091255037114024">
        <ele>16</ele>
        <time>2023-08-15T19:10:04Z</time>
      </trkpt>
      <trkpt lat="52.15227797627449" lon="0.091479001566768">
        <ele>17.440000000000001</ele>
        <time>2023-08-15T19:10:11Z</time>
      </trkpt>
      <trkpt lat="52.152235982939601" lon="0.091498028486967">
        <ele>17.920000000000002</ele>
        <time>2023-08-15T19:10:12Z</time>
      </trkpt>
      <trkpt lat="52.152139004319906" lon="0.091772032901645">
        <ele>17.920000000000002</ele>
        <time>2023-08-15T19:10:13Z</time>
      </trkpt>
      <trkpt lat="52.152151996269822" lon="0.091844033449888">
        <ele>18.399999999999999</ele>
        <time>2023-08-15T19:10:14Z</time>
      </trkpt>
      <trkpt lat="52.152166999876499" lon="0.091925002634525">
        <ele>18.879999999999999</ele>
        <time>2023-08-15T19:10:15Z</time>
      </trkpt>
      <trkpt lat="52.152186026796699" lon="0.092032039538026">
        <ele>18.879999999999999</ele>
        <time>2023-08-15T19:10:16Z</time>
      </trkpt>
      <trkpt lat="52.152229025959969" lon="0.092332027852535">
        <ele>20.32</ele>
        <time>2023-08-15T19:10:21Z</time>
      </trkpt>
      <trkpt lat="52.152229025959969" lon="0.092332027852535">
        <ele>20.809999999999999</ele>
        <time>2023-08-15T19:10:22Z</time>
      </trkpt>
      <trkpt lat="52.152229025959969" lon="0.092332027852535">
        <ele>21.289999999999999</ele>
        <time>2023-08-15T19:10:23Z</time>
      </trkpt>
      <trkpt lat="52.152229025959969" lon="0.092332027852535">
        <ele>21.289999999999999</ele>
        <time>2023-08-15T19:10:24Z</time>
      </trkpt>
      <trkpt lat="52.152223996818066" lon="0.09230000898242">
        <ele>21.77</ele>
        <time>2023-08-15T19:10:25Z</time>
      </trkpt>
      <trkpt lat="52.152217961847782" lon="0.092258015647531">
        <ele>21.77</ele>
        <time>2023-08-15T19:10:26Z</time>
      </trkpt>
      <trkpt lat="52.152207987383008" lon="0.092186015099287">
        <ele>21.77</ele>
        <time>2023-08-15T19:10:27Z</time>
      </trkpt>
      <trkpt lat="52.152194995433092" lon="0.092095993459225">
        <ele>21.77</ele>
        <time>2023-08-15T19:10:28Z</time>
      </trkpt>
      <trkpt lat="52.152160964906216" lon="0.091894995421171">
        <ele>20.809999999999999</ele>
        <time>2023-08-15T19:10:35Z</time>
      </trkpt>
      <trkpt lat="52.152156019583344" lon="0.091863982379436">
        <ele>20.809999999999999</ele>
        <time>2023-08-15T19:10:36Z</time>
      </trkpt>
      <trkpt lat="52.152146967127919" lon="0.091816037893295">
        <ele>20.32</ele>
        <time>2023-08-15T19:10:37Z</time>
      </trkpt>
      <trkpt lat="52.152119977399707" lon="0.091671030968428">
        <ele>19.84</ele>
        <time>2023-08-15T19:10:39Z</time>
      </trkpt>
      <trkpt lat="52.152176974341273" lon="0.091525018215179">
        <ele>19.84</ele>
        <time>2023-08-15T19:10:40Z</time>
      </trkpt>
      <trkpt lat="52.152228020131588" lon="0.091501967981458">
        <ele>19.359999999999999</ele>
        <time>2023-08-15T19:10:41Z</time>
      </trkpt>
      <trkpt lat="52.152294991537929" lon="0.091471038758755">
        <ele>18.879999999999999</ele>
        <time>2023-08-15T19:10:42Z</time>
      </trkpt>
      <trkpt lat="52.152386019006371" lon="0.091433990746737">
        <ele>18.399999999999999</ele>
        <time>2023-08-15T19:10:43Z</time>
      </trkpt>
      <trkpt lat="52.152499007061124" lon="0.091391997411847">
        <ele>17.920000000000002</ele>
        <time>2023-08-15T19:10:44Z</time>
      </trkpt>
      <trkpt lat="52.153883026912808" lon="0.091003999114037">
        <ele>15.039999999999999</ele>
        <time>2023-08-15T19:10:54Z</time>
      </trkpt>
      <trkpt lat="52.154045971110463" lon="0.091024031862617">
        <ele>15.52</ele>
        <time>2023-08-15T19:10:55Z</time>
      </trkpt>
      <trkpt lat="52.154216039925814" lon="0.091051021590829">
        <ele>15.52</ele>
        <time>2023-08-15T19:10:56Z</time>
      </trkpt>
      <trkpt lat="52.154385019093752" lon="0.091112041845918">
        <ele>15.52</ele>
        <time>2023-08-15T19:10:57Z</time>
      </trkpt>
      <trkpt lat="52.154546035453677" lon="0.091212037950754">
        <ele>15.039999999999999</ele>
        <time>2023-08-15T19:10:58Z</time>
      </trkpt>
      <trkpt lat="52.15470596216619" lon="0.091310022398829">
        <ele>15.039999999999999</ele>
        <time>2023-08-15T19:10:59Z</time>
      </trkpt>
      <trkpt lat="52.154863039031625" lon="0.091405995190144">
        <ele>15.039999999999999</ele>
        <time>2023-08-15T19:11:00Z</time>
      </trkpt>
      <trkpt lat="52.154997987672687" lon="0.091560976579785">
        <ele>15.039999999999999</ele>
        <time>2023-08-15T19:11:01Z</time>
      </trkpt>
      <trkpt lat="52.155126985162497" lon="0.091712018474936">
        <ele>15.039999999999999</ele>
        <time>2023-08-15T19:11:02Z</time>
      </trkpt>
      <trkpt lat="52.155251037329435" lon="0.091856019571424">
        <ele>14.56</ele>
        <time>2023-08-15T19:11:03Z</time>
      </trkpt>
      <trkpt lat="52.155353967100382" lon="0.092032039538026">
        <ele>14.56</ele>
        <time>2023-08-15T19:11:04Z</time>
      </trkpt>
      <trkpt lat="52.155458992347121" lon="0.092213004827499">
        <ele>14.56</ele>
        <time>2023-08-15T19:11:05Z</time>
      </trkpt>
      <trkpt lat="52.155553037300706" lon="0.092404028400779">
        <ele>14.56</ele>
        <time>2023-08-15T19:11:06Z</time>
      </trkpt>
      <trkpt lat="52.155639035627246" lon="0.092607038095593">
        <ele>15.039999999999999</ele>
        <time>2023-08-15T19:11:07Z</time>
      </trkpt>
      <trkpt lat="52.156546963378787" lon="0.095268040895462">
        <ele>18.879999999999999</ele>
        <time>2023-08-15T19:11:19Z</time>
      </trkpt>
      <trkpt lat="52.157795028761029" lon="0.098156025633216">
        <ele>20.32</ele>
        <time>2023-08-15T19:11:33Z</time>
      </trkpt>
      <trkpt lat="52.158928010612726" lon="0.100853992626071">
        <ele>22.73</ele>
        <time>2023-08-15T19:11:46Z</time>
      </trkpt>
      <trkpt lat="52.159483982250094" lon="0.102059980854392">
        <ele>22.73</ele>
        <time>2023-08-15T19:11:53Z</time>
      </trkpt>
      <trkpt lat="52.159551037475467" lon="0.1021199952811">
        <ele>23.210000000000001</ele>
        <time>2023-08-15T19:11:54Z</time>
      </trkpt>
      <trkpt lat="52.159613985568285" lon="0.102151008322835">
        <ele>23.210000000000001</ele>
        <time>2023-08-15T19:11:55Z</time>
      </trkpt>
      <trkpt lat="52.15966603718698" lon="0.102176992222667">
        <ele>23.210000000000001</ele>
        <time>2023-08-15T19:11:56Z</time>
      </trkpt>
      <trkpt lat="52.15970803052187" lon="0.102197024971247">
        <ele>23.210000000000001</ele>
        <time>2023-08-15T19:11:57Z</time>
      </trkpt>
      <trkpt lat="52.159766033291817" lon="0.102223008871078">
        <ele>23.210000000000001</ele>
        <time>2023-08-15T19:12:05Z</time>
      </trkpt>
      <trkpt lat="52.160131987184286" lon="0.102309007197618">
        <ele>22.25</ele>
        <time>2023-08-15T19:12:11Z</time>
      </trkpt>
      <trkpt lat="52.160239024087787" lon="0.102373966947198">
        <ele>22.25</ele>
        <time>2023-08-15T19:12:12Z</time>
      </trkpt>
      <trkpt lat="52.160350000485778" lon="0.102449990808964">
        <ele>22.25</ele>
        <time>2023-08-15T19:12:13Z</time>
      </trkpt>
      <trkpt lat="52.160460976883769" lon="0.102554010227323">
        <ele>22.25</ele>
        <time>2023-08-15T19:12:14Z</time>
      </trkpt>
      <trkpt lat="52.160558961331844" lon="0.102695999667048">
        <ele>22.25</ele>
        <time>2023-08-15T19:12:15Z</time>
      </trkpt>
      <trkpt lat="52.160659963265061" lon="0.102837989106774">
        <ele>22.25</ele>
        <time>2023-08-15T19:12:16Z</time>
      </trkpt>
      <trkpt lat="52.160898009315133" lon="0.103253982961178">
        <ele>22.25</ele>
        <time>2023-08-15T19:12:19Z</time>
      </trkpt>
      <trkpt lat="52.160959029570222" lon="0.103467972949147">
        <ele>22.25</ele>
        <time>2023-08-15T19:12:20Z</time>
      </trkpt>
      <trkpt lat="52.160984007641673" lon="0.103617003187537">
        <ele>22.25</ele>
        <time>2023-08-15T19:12:21Z</time>
      </trkpt>
      <trkpt lat="52.160984007641673" lon="0.10379696264863">
        <ele>22.25</ele>
        <time>2023-08-15T19:12:22Z</time>
      </trkpt>
      <trkpt lat="52.161008985713124" lon="0.104010030627251">
        <ele>22.25</ele>
        <time>2023-08-15T19:12:23Z</time>
      </trkpt>
      <trkpt lat="52.161073023453355" lon="0.104408003389835">
        <ele>22.25</ele>
        <time>2023-08-15T19:12:25Z</time>
      </trkpt>
      <trkpt lat="52.161137983202934" lon="0.104603972285986">
        <ele>22.73</ele>
        <time>2023-08-15T19:12:26Z</time>
      </trkpt>
      <trkpt lat="52.161223981529474" lon="0.104759959504008">
        <ele>22.73</ele>
        <time>2023-08-15T19:12:27Z</time>
      </trkpt>
      <trkpt lat="52.161314003169537" lon="0.104917036369443">
        <ele>22.25</ele>
        <time>2023-08-15T19:12:28Z</time>
      </trkpt>
      <trkpt lat="52.161419028416276" lon="0.105051985010505">
        <ele>22.73</ele>
        <time>2023-08-15T19:12:29Z</time>
      </trkpt>
      <trkpt lat="52.161525981500745" lon="0.10519003495574">
        <ele>22.73</ele>
        <time>2023-08-15T19:12:30Z</time>
      </trkpt>
      <trkpt lat="52.162853004410863" lon="0.106184966862202">
        <ele>21.77</ele>
        <time>2023-08-15T19:12:40Z</time>
      </trkpt>
      <trkpt lat="52.16392102651298" lon="0.106660975143313">
        <ele>20.809999999999999</ele>
        <time>2023-08-15T19:12:49Z</time>
      </trkpt>
      <trkpt lat="52.164561990648508" lon="0.10693397372961">
        <ele>20.809999999999999</ele>
        <time>2023-08-15T19:12:58Z</time>
      </trkpt>
      <trkpt lat="52.165693966671824" lon="0.107429008930922">
        <ele>20.32</ele>
        <time>2023-08-15T19:13:07Z</time>
      </trkpt>
      <trkpt lat="52.166381031274796" lon="0.107836034148932">
        <ele>19.359999999999999</ele>
        <time>2023-08-15T19:13:12Z</time>
      </trkpt>
      <trkpt lat="52.167495992034674" lon="0.109284007921815">
        <ele>22.73</ele>
        <time>2023-08-15T19:13:23Z</time>
      </trkpt>
      <trkpt lat="52.168617993593216" lon="0.110553028061986">
        <ele>23.210000000000001</ele>
        <time>2023-08-15T19:13:34Z</time>
      </trkpt>
      <trkpt lat="52.169147981330752" lon="0.111041022464633">
        <ele>21.289999999999999</ele>
        <time>2023-08-15T19:13:41Z</time>
      </trkpt>
      <trkpt lat="52.169190980494022" lon="0.111081004142761">
        <ele>20.809999999999999</ele>
        <time>2023-08-15T19:13:42Z</time>
      </trkpt>
      <trkpt lat="52.16922702267766" lon="0.111115034669638">
        <ele>20.809999999999999</ele>
        <time>2023-08-15T19:13:43Z</time>
      </trkpt>
      <trkpt lat="52.169320983812213" lon="0.111194998025894">
        <ele>19.84</ele>
        <time>2023-08-15T19:13:47Z</time>
      </trkpt>
      <trkpt lat="52.169341016560793" lon="0.111210001632571">
        <ele>19.359999999999999</ele>
        <time>2023-08-15T19:14:01Z</time>
      </trkpt>
      <trkpt lat="52.169656008481979" lon="0.111462967470288">
        <ele>18.879999999999999</ele>
        <time>2023-08-15T19:14:07Z</time>
      </trkpt>
      <trkpt lat="52.170541975647211" lon="0.11210803873837">
        <ele>17.440000000000001</ele>
        <time>2023-08-15T19:14:16Z</time>
      </trkpt>
      <trkpt lat="52.171551994979382" lon="0.112644983455539">
        <ele>15.52</ele>
        <time>2023-08-15T19:14:26Z</time>
      </trkpt>
      <trkpt lat="52.17165500856936" lon="0.112655041739345">
        <ele>15.52</ele>
        <time>2023-08-15T19:14:27Z</time>
      </trkpt>
      <trkpt lat="52.172488002106547" lon="0.112677002325654">
        <ele>17.920000000000002</ele>
        <time>2023-08-15T19:14:35Z</time>
      </trkpt>
      <trkpt lat="52.173001980409026" lon="0.112699968740344">
        <ele>19.84</ele>
        <time>2023-08-15T19:14:40Z</time>
      </trkpt>
      <trkpt lat="52.173161990940571" lon="0.11271002702415">
        <ele>20.32</ele>
        <time>2023-08-15T19:14:42Z</time>
      </trkpt>
      <trkpt lat="52.17339500784874" lon="0.112725030630827">
        <ele>20.809999999999999</ele>
        <time>2023-08-15T19:14:45Z</time>
      </trkpt>
      <trkpt lat="52.174177961423993" lon="0.112721007317305">
        <ele>21.289999999999999</ele>
        <time>2023-08-15T19:14:54Z</time>
      </trkpt>
      <trkpt lat="52.174938032403588" lon="0.112698040902615">
        <ele>21.77</ele>
        <time>2023-08-15T19:15:04Z</time>
      </trkpt>
      <trkpt lat="52.174969967454672" lon="0.112699968740344">
        <ele>21.77</ele>
        <time>2023-08-15T19:15:05Z</time>
      </trkpt>
      <trkpt lat="52.174993017688394" lon="0.112700974568725">
        <ele>21.77</ele>
        <time>2023-08-15T19:15:06Z</time>
      </trkpt>
      <trkpt lat="52.175010032951832" lon="0.112701980397105">
        <ele>21.77</ele>
        <time>2023-08-15T19:15:07Z</time>
      </trkpt>
      <trkpt lat="52.175020007416606" lon="0.112701980397105">
        <ele>22.25</ele>
        <time>2023-08-15T19:15:16Z</time>
      </trkpt>
      <trkpt lat="52.175048002973199" lon="0.112703992053866">
        <ele>22.25</ele>
        <time>2023-08-15T19:15:17Z</time>
      </trkpt>
      <trkpt lat="52.175095025449991" lon="0.112706003710628">
        <ele>22.25</ele>
        <time>2023-08-15T19:15:18Z</time>
      </trkpt>
      <trkpt lat="52.175585031509399" lon="0.112743973731995">
        <ele>22.73</ele>
        <time>2023-08-15T19:15:25Z</time>
      </trkpt>
      <trkpt lat="52.175928018987179" lon="0.112788984552026">
        <ele>24.170000000000002</ele>
        <time>2023-08-15T19:15:29Z</time>
      </trkpt>
      <trkpt lat="52.176969973370433" lon="0.113039016723633">
        <ele>24.170000000000002</ele>
        <time>2023-08-15T19:15:40Z</time>
      </trkpt>
      <trkpt lat="52.177846971899271" lon="0.113787017762661">
        <ele>24.649999999999999</ele>
        <time>2023-08-15T19:15:49Z</time>
      </trkpt>
      <trkpt lat="52.179073998704553" lon="0.114872977137566">
        <ele>23.690000000000001</ele>
        <time>2023-08-15T19:16:00Z</time>
      </trkpt>
      <trkpt lat="52.17986298725009" lon="0.115557024255395">
        <ele>24.649999999999999</ele>
        <time>2023-08-15T19:16:08Z</time>
      </trkpt>
      <trkpt lat="52.180417031049728" lon="0.116009982302785">
        <ele>23.210000000000001</ele>
        <time>2023-08-15T19:16:15Z</time>
      </trkpt>
      <trkpt lat="52.180538987740874" lon="0.116096986457706">
        <ele>21.289999999999999</ele>
        <time>2023-08-15T19:16:22Z</time>
      </trkpt>
      <trkpt lat="52.180648958310485" lon="0.116176027804613">
        <ele>19.84</ele>
        <time>2023-08-15T19:16:34Z</time>
      </trkpt>
      <trkpt lat="52.180694974958897" lon="0.116207962855697">
        <ele>19.359999999999999</ele>
        <time>2023-08-15T19:16:35Z</time>
      </trkpt>
      <trkpt lat="52.180695980787277" lon="0.116287004202604">
        <ele>18.879999999999999</ele>
        <time>2023-08-15T19:16:36Z</time>
      </trkpt>
      <trkpt lat="52.180688017979264" lon="0.116365039721131">
        <ele>17.920000000000002</ele>
        <time>2023-08-15T19:16:37Z</time>
      </trkpt>
      <trkpt lat="52.18067703768611" lon="0.116463024169207">
        <ele>17.440000000000001</ele>
        <time>2023-08-15T19:16:38Z</time>
      </trkpt>
      <trkpt lat="52.180659016594291" lon="0.116585986688733">
        <ele>16.960000000000001</ele>
        <time>2023-08-15T19:16:39Z</time>
      </trkpt>
      <trkpt lat="52.180537981912494" lon="0.118206962943077">
        <ele>14.08</ele>
        <time>2023-08-15T19:16:49Z</time>
      </trkpt>
      <trkpt lat="52.180476039648056" lon="0.11913500726223">
        <ele>14.08</ele>
        <time>2023-08-15T19:16:54Z</time>
      </trkpt>
      <trkpt lat="52.180462963879108" lon="0.119313960894942">
        <ele>13.6</ele>
        <time>2023-08-15T19:16:55Z</time>
      </trkpt>
      <trkpt lat="52.180435974150896" lon="0.119658960029483">
        <ele>13.119999999999999</ele>
        <time>2023-08-15T19:16:57Z</time>
      </trkpt>
      <trkpt lat="52.180408984422684" lon="0.120003037154675">
        <ele>13.119999999999999</ele>
        <time>2023-08-15T19:16:59Z</time>
      </trkpt>
      <trkpt lat="52.180266994982958" lon="0.122060040012002">
        <ele>10.23</ele>
        <time>2023-08-15T19:17:11Z</time>
      </trkpt>
      <trkpt lat="52.180256014689803" lon="0.122199011966586">
        <ele>10.23</ele>
        <time>2023-08-15T19:17:12Z</time>
      </trkpt>
      <trkpt lat="52.180247968062758" lon="0.122301019728184">
        <ele>10.23</ele>
        <time>2023-08-15T19:17:13Z</time>
      </trkpt>
      <trkpt lat="52.180242016911507" lon="0.122367991134524">
        <ele>10.23</ele>
        <time>2023-08-15T19:17:14Z</time>
      </trkpt>
      <trkpt lat="52.180237993597984" lon="0.122414007782936">
        <ele>10.23</ele>
        <time>2023-08-15T19:17:15Z</time>
      </trkpt>
      <trkpt lat="52.180235981941223" lon="0.122449966147542">
        <ele>10.23</ele>
        <time>2023-08-15T19:17:16Z</time>
      </trkpt>
      <trkpt lat="52.180235981941223" lon="0.122449966147542">
        <ele>10.23</ele>
        <time>2023-08-15T19:17:29Z</time>
      </trkpt>
      <trkpt lat="52.180235981941223" lon="0.122449966147542">
        <ele>10.23</ele>
        <time>2023-08-15T19:18:14Z</time>
      </trkpt>
      <trkpt lat="52.180235981941223" lon="0.122449966147542">
        <ele>10.710000000000001</ele>
        <time>2023-08-15T19:18:59Z</time>
      </trkpt>
      <trkpt lat="52.180235981941223" lon="0.122449966147542">
        <ele>11.19</ele>
        <time>2023-08-15T19:19:41Z</time>
      </trkpt>
      <trkpt lat="52.180235981941223" lon="0.122449966147542">
        <ele>11.19</ele>
        <time>2023-08-15T19:20:28Z</time>
      </trkpt>
      <trkpt lat="52.180235981941223" lon="0.122449966147542">
        <ele>12.15</ele>
        <time>2023-08-15T19:21:17Z</time>
      </trkpt>
    </trkseg>
  </trk>

  <trk>
    <name>Track vom: 2023-08-15 20:27</name>
    <extensions>
      <gpxx:TrackExtension>
        <gpxx:DisplayColor>DarkGray</gpxx:DisplayColor>
      </gpxx:TrackExtension>
    </extensions>
    <trkseg>
      <trkpt lat="52.180212009698153" lon="0.122419958934188">
        <ele>30.899999999999999</ele>
        <time>2023-08-15T19:27:27Z</time>
      </trkpt>
      <trkpt lat="52.180170016363263" lon="0.122440997511148">
        <ele>30.420000000000002</ele>
        <time>2023-08-15T19:27:52Z</time>
      </trkpt>
      <trkpt lat="52.18024997971952" lon="0.12227201834321">
        <ele>26.57</ele>
        <time>2023-08-15T19:27:56Z</time>
      </trkpt>
      <trkpt lat="52.180259032174945" lon="0.122163975611329">
        <ele>25.609999999999999</ele>
        <time>2023-08-15T19:27:57Z</time>
      </trkpt>
      <trkpt lat="52.180268000811338" lon="0.122048975899816">
        <ele>25.129999999999999</ele>
        <time>2023-08-15T19:27:58Z</time>
      </trkpt>
      <trkpt lat="52.180277975276113" lon="0.12192802503705">
        <ele>24.649999999999999</ele>
        <time>2023-08-15T19:27:59Z</time>
      </trkpt>
      <trkpt lat="52.18039900995791" lon="0.120151983574033">
        <ele>21.289999999999999</ele>
        <time>2023-08-15T19:28:11Z</time>
      </trkpt>
      <trkpt lat="52.180537981912494" lon="0.118204029276967">
        <ele>20.32</ele>
        <time>2023-08-15T19:28:21Z</time>
      </trkpt>
      <trkpt lat="52.180638983845711" lon="0.11672998778522">
        <ele>20.809999999999999</ele>
        <time>2023-08-15T19:28:30Z</time>
      </trkpt>
      <trkpt lat="52.180650969967246" lon="0.116646001115441">
        <ele>21.289999999999999</ele>
        <time>2023-08-15T19:28:31Z</time>
      </trkpt>
      <trkpt lat="52.180659016594291" lon="0.116585986688733">
        <ele>21.289999999999999</ele>
        <time>2023-08-15T19:28:32Z</time>
      </trkpt>
      <trkpt lat="52.180663961917162" lon="0.116550028324127">
        <ele>22.73</ele>
        <time>2023-08-15T19:28:42Z</time>
      </trkpt>
      <trkpt lat="52.180683994665742" lon="0.116409966722131">
        <ele>23.210000000000001</ele>
        <time>2023-08-15T19:28:48Z</time>
      </trkpt>
      <trkpt lat="52.180691035464406" lon="0.11634198948741">
        <ele>23.210000000000001</ele>
        <time>2023-08-15T19:28:49Z</time>
      </trkpt>
      <trkpt lat="52.180695980787277" lon="0.116284992545843">
        <ele>23.210000000000001</ele>
        <time>2023-08-15T19:28:50Z</time>
      </trkpt>
      <trkpt lat="52.180776027962565" lon="0.116274012252688">
        <ele>23.210000000000001</ele>
        <time>2023-08-15T19:28:51Z</time>
      </trkpt>
      <trkpt lat="52.180827995762229" lon="0.116316005587578">
        <ele>23.210000000000001</ele>
        <time>2023-08-15T19:28:52Z</time>
      </trkpt>
      <trkpt lat="52.180905025452375" lon="0.116378031671047">
        <ele>22.73</ele>
        <time>2023-08-15T19:28:53Z</time>
      </trkpt>
      <trkpt lat="52.180997980758548" lon="0.116453971713781">
        <ele>22.25</ele>
        <time>2023-08-15T19:28:54Z</time>
      </trkpt>
      <trkpt lat="52.181096971035004" lon="0.116529995575547">
        <ele>21.77</ele>
        <time>2023-08-15T19:28:55Z</time>
      </trkpt>
      <trkpt lat="52.182111013680696" lon="0.117366006597877">
        <ele>17.920000000000002</ele>
        <time>2023-08-15T19:29:04Z</time>
      </trkpt>
      <trkpt lat="52.182998992502689" lon="0.118266977369785">
        <ele>11.67</ele>
        <time>2023-08-15T19:29:12Z</time>
      </trkpt>
      <trkpt lat="52.183640040457249" lon="0.118891010060906">
        <ele>8.789999999999999</ele>
        <time>2023-08-15T19:29:18Z</time>
      </trkpt>
      <trkpt lat="52.183745987713337" lon="0.118982037529349">
        <ele>8.789999999999999</ele>
        <time>2023-08-15T19:29:19Z</time>
      </trkpt>
      <trkpt lat="52.183857969939709" lon="0.119067030027509">
        <ele>8.789999999999999</ele>
        <time>2023-08-15T19:29:20Z</time>
      </trkpt>
      <trkpt lat="52.184894979000092" lon="0.119761973619461">
        <ele>7.83</ele>
        <time>2023-08-15T19:29:29Z</time>
      </trkpt>
      <trkpt lat="52.186109013855457" lon="0.120469992980361">
        <ele>9.75</ele>
        <time>2023-08-15T19:29:39Z</time>
      </trkpt>
      <trkpt lat="52.187093971297145" lon="0.120850028470159">
        <ele>9.27</ele>
        <time>2023-08-15T19:29:47Z</time>
      </trkpt>
      <trkpt lat="52.187216011807323" lon="0.120896967127919">
        <ele>9.75</ele>
        <time>2023-08-15T19:29:48Z</time>
      </trkpt>
      <trkpt lat="52.188410013914108" lon="0.12154396623373">
        <ele>14.08</ele>
        <time>2023-08-15T19:29:58Z</time>
      </trkpt>
      <trkpt lat="52.189779030159116" lon="0.122424988076091">
        <ele>15.52</ele>
        <time>2023-08-15T19:30:10Z</time>
      </trkpt>
      <trkpt lat="52.190962973982096" lon="0.123427966609597">
        <ele>14.56</ele>
        <time>2023-08-15T19:30:22Z</time>
      </trkpt>
      <trkpt lat="52.191212000325322" lon="0.123673975467682">
        <ele>16</ele>
        <time>2023-08-15T19:30:26Z</time>
      </trkpt>
      <trkpt lat="52.191290035843849" lon="0.123737007379532">
        <ele>16.48</ele>
        <time>2023-08-15T19:30:28Z</time>
      </trkpt>
      <trkpt lat="52.191328005865216" lon="0.123769026249647">
        <ele>16.960000000000001</ele>
        <time>2023-08-15T19:30:29Z</time>
      </trkpt>
      <trkpt lat="52.191418027505279" lon="0.123843038454652">
        <ele>19.84</ele>
        <time>2023-08-15T19:30:33Z</time>
      </trkpt>
      <trkpt lat="52.191430013626814" lon="0.123853012919426">
        <ele>20.32</ele>
        <time>2023-08-15T19:30:34Z</time>
      </trkpt>
      <trkpt lat="52.191454991698265" lon="0.123872961848974">
        <ele>20.809999999999999</ele>
        <time>2023-08-15T19:30:35Z</time>
      </trkpt>
      <trkpt lat="52.191491033881903" lon="0.123903974890709">
        <ele>21.289999999999999</ele>
        <time>2023-08-15T19:30:36Z</time>
      </trkpt>
      <trkpt lat="52.191541995853186" lon="0.123944962397218">
        <ele>21.289999999999999</ele>
        <time>2023-08-15T19:30:37Z</time>
      </trkpt>
      <trkpt lat="52.191596981137991" lon="0.123978992924094">
        <ele>21.77</ele>
        <time>2023-08-15T19:30:38Z</time>
      </trkpt>
      <trkpt lat="52.191652972251177" lon="0.124005982652307">
        <ele>21.77</ele>
        <time>2023-08-15T19:30:39Z</time>
      </trkpt>
      <trkpt lat="52.191718015819788" lon="0.124030038714409">
        <ele>22.25</ele>
        <time>2023-08-15T19:30:40Z</time>
      </trkpt>
      <trkpt lat="52.19178699888289" lon="0.124056022614241">
        <ele>22.25</ele>
        <time>2023-08-15T19:30:41Z</time>
      </trkpt>
      <trkpt lat="52.19185103662312" lon="0.124063985422254">
        <ele>22.25</ele>
        <time>2023-08-15T19:30:42Z</time>
      </trkpt>
      <trkpt lat="52.191941980272532" lon="0.124050993472338">
        <ele>21.77</ele>
        <time>2023-08-15T19:30:43Z</time>
      </trkpt>
      <trkpt lat="52.192036025226116" lon="0.124036995694041">
        <ele>21.77</ele>
        <time>2023-08-15T19:30:44Z</time>
      </trkpt>
      <trkpt lat="52.192119006067514" lon="0.124025009572506">
        <ele>20.809999999999999</ele>
        <time>2023-08-15T19:30:45Z</time>
      </trkpt>
      <trkpt lat="52.192210033535957" lon="0.123979998752475">
        <ele>20.32</ele>
        <time>2023-08-15T19:30:46Z</time>
      </trkpt>
      <trkpt lat="52.19230298884213" lon="0.123932976275682">
        <ele>20.32</ele>
        <time>2023-08-15T19:30:47Z</time>
      </trkpt>
      <trkpt lat="52.193503025919199" lon="0.123177012428641">
        <ele>17.920000000000002</ele>
        <time>2023-08-15T19:30:59Z</time>
      </trkpt>
      <trkpt lat="52.194136027246714" lon="0.122791025787592">
        <ele>17.920000000000002</ele>
        <time>2023-08-15T19:31:07Z</time>
      </trkpt>
      <trkpt lat="52.195027023553848" lon="0.122421970590949">
        <ele>17.440000000000001</ele>
        <time>2023-08-15T19:31:18Z</time>
      </trkpt>
      <trkpt lat="52.195833027362823" lon="0.122323986142874">
        <ele>16.960000000000001</ele>
        <time>2023-08-15T19:31:27Z</time>
      </trkpt>
      <trkpt lat="52.196825025603175" lon="0.122290039435029">
        <ele>15.039999999999999</ele>
        <time>2023-08-15T19:31:38Z</time>
      </trkpt>
      <trkpt lat="52.197339003905654" lon="0.122241005301476">
        <ele>15.52</ele>
        <time>2023-08-15T19:31:45Z</time>
      </trkpt>
      <trkpt lat="52.197379991412163" lon="0.122216027230024">
        <ele>15.039999999999999</ele>
        <time>2023-08-15T19:31:46Z</time>
      </trkpt>
      <trkpt lat="52.197440005838871" lon="0.122179985046387">
        <ele>15.039999999999999</ele>
        <time>2023-08-15T19:31:47Z</time>
      </trkpt>
      <trkpt lat="52.197473030537367" lon="0.122136985883117">
        <ele>15.52</ele>
        <time>2023-08-15T19:31:48Z</time>
      </trkpt>
      <trkpt lat="52.19750496558845" lon="0.121985021978617">
        <ele>15.52</ele>
        <time>2023-08-15T19:31:49Z</time>
      </trkpt>
      <trkpt lat="52.19750496558845" lon="0.121861975640059">
        <ele>15.52</ele>
        <time>2023-08-15T19:31:50Z</time>
      </trkpt>
      <trkpt lat="52.19750496558845" lon="0.121723003685474">
        <ele>15.52</ele>
        <time>2023-08-15T19:31:51Z</time>
      </trkpt>
      <trkpt lat="52.197503037750721" lon="0.121576990932226">
        <ele>15.039999999999999</ele>
        <time>2023-08-15T19:31:52Z</time>
      </trkpt>
      <trkpt lat="52.197397006675601" lon="0.119980992749333">
        <ele>13.119999999999999</ele>
        <time>2023-08-15T19:32:02Z</time>
      </trkpt>
      <trkpt lat="52.19737596809864" lon="0.119122015312314">
        <ele>12.630000000000001</ele>
        <time>2023-08-15T19:32:07Z</time>
      </trkpt>
      <trkpt lat="52.197377979755402" lon="0.118938032537699">
        <ele>12.630000000000001</ele>
        <time>2023-08-15T19:32:08Z</time>
      </trkpt>
      <trkpt lat="52.197441011667252" lon="0.118349036201835">
        <ele>12.630000000000001</ele>
        <time>2023-08-15T19:32:11Z</time>
      </trkpt>
      <trkpt lat="52.197729013860226" lon="0.116200000047684">
        <ele>10.710000000000001</ele>
        <time>2023-08-15T19:32:22Z</time>
      </trkpt>
      <trkpt lat="52.197983991354704" lon="0.114303007721901">
        <ele>8.789999999999999</ele>
        <time>2023-08-15T19:32:32Z</time>
      </trkpt>
      <trkpt lat="52.198092034086585" lon="0.113652991130948">
        <ele>9.27</ele>
        <time>2023-08-15T19:32:36Z</time>
      </trkpt>
      <trkpt lat="52.198115000501275" lon="0.113519970327616">
        <ele>9.75</ele>
        <time>2023-08-15T19:32:37Z</time>
      </trkpt>
      <trkpt lat="52.198136039078236" lon="0.113392984494567">
        <ele>10.23</ele>
        <time>2023-08-15T19:32:38Z</time>
      </trkpt>
      <trkpt lat="52.198152970522642" lon="0.11327002197504">
        <ele>10.23</ele>
        <time>2023-08-15T19:32:39Z</time>
      </trkpt>
      <trkpt lat="52.198165040463209" lon="0.113148987293243">
        <ele>10.23</ele>
        <time>2023-08-15T19:32:40Z</time>
      </trkpt>
      <trkpt lat="52.19816998578608" lon="0.113038010895252">
        <ele>10.23</ele>
        <time>2023-08-15T19:32:41Z</time>
      </trkpt>
      <trkpt lat="52.198202004656196" lon="0.112696029245853">
        <ele>10.710000000000001</ele>
        <time>2023-08-15T19:32:44Z</time>
      </trkpt>
      <trkpt lat="52.198235029354692" lon="0.112629979848862">
        <ele>10.710000000000001</ele>
        <time>2023-08-15T19:32:45Z</time>
      </trkpt>
      <trkpt lat="52.198299989104271" lon="0.112578012049198">
        <ele>10.710000000000001</ele>
        <time>2023-08-15T19:32:46Z</time>
      </trkpt>
      <trkpt lat="52.198370983824134" lon="0.112597038969398">
        <ele>10.710000000000001</ele>
        <time>2023-08-15T19:32:47Z</time>
      </trkpt>
      <trkpt lat="52.198425969108939" lon="0.112657975405455">
        <ele>10.710000000000001</ele>
        <time>2023-08-15T19:32:48Z</time>
      </trkpt>
      <trkpt lat="52.198480032384396" lon="0.112729975953698">
        <ele>10.710000000000001</ele>
        <time>2023-08-15T19:32:49Z</time>
      </trkpt>
      <trkpt lat="52.19853300601244" lon="0.112800970673561">
        <ele>10.23</ele>
        <time>2023-08-15T19:32:50Z</time>
      </trkpt>
      <trkpt lat="52.199229961261153" lon="0.113670006394386">
        <ele>9.27</ele>
        <time>2023-08-15T19:33:00Z</time>
      </trkpt>
      <trkpt lat="52.1993069909513" lon="0.113704036921263">
        <ele>8.789999999999999</ele>
        <time>2023-08-15T19:33:01Z</time>
      </trkpt>
      <trkpt lat="52.199397012591362" lon="0.113704036921263">
        <ele>8.789999999999999</ele>
        <time>2023-08-15T19:33:02Z</time>
      </trkpt>
      <trkpt lat="52.19945702701807" lon="0.113704036921263">
        <ele>8.310000000000001</ele>
        <time>2023-08-15T19:33:03Z</time>
      </trkpt>
      <trkpt lat="52.199540007859468" lon="0.113652991130948">
        <ele>8.310000000000001</ele>
        <time>2023-08-15T19:33:04Z</time>
      </trkpt>
      <trkpt lat="52.199611002579331" lon="0.113608986139297">
        <ele>7.35</ele>
        <time>2023-08-15T19:33:05Z</time>
      </trkpt>
      <trkpt lat="52.199681997299194" lon="0.113564981147647">
        <ele>6.87</ele>
        <time>2023-08-15T19:33:06Z</time>
      </trkpt>
      <trkpt lat="52.200250960886478" lon="0.113211013376713">
        <ele>2.54</ele>
        <time>2023-08-15T19:33:13Z</time>
      </trkpt>
      <trkpt lat="52.200346011668444" lon="0.11316298507154">
        <ele>1.58</ele>
        <time>2023-08-15T19:33:14Z</time>
      </trkpt>
      <trkpt lat="52.200438966974616" lon="0.113116968423128">
        <ele>1.1</ele>
        <time>2023-08-15T19:33:15Z</time>
      </trkpt>
      <trkpt lat="52.200527982786298" lon="0.113072041422129">
        <ele>0.14</ele>
        <time>2023-08-15T19:33:16Z</time>
      </trkpt>
      <trkpt lat="52.200611969456077" lon="0.113031975924969">
        <ele>-0.34</ele>
        <time>2023-08-15T19:33:17Z</time>
      </trkpt>
      <trkpt lat="52.201530961319804" lon="0.112631991505623">
        <ele>-4.19</ele>
        <time>2023-08-15T19:33:27Z</time>
      </trkpt>
      <trkpt lat="52.202465040609241" lon="0.112269977107644">
        <ele>-4.19</ele>
        <time>2023-08-15T19:33:37Z</time>
      </trkpt>
      <trkpt lat="52.202562019228935" lon="0.112231001257896">
        <ele>-4.19</ele>
        <time>2023-08-15T19:33:38Z</time>
      </trkpt>
      <trkpt lat="52.203760966658592" lon="0.111748035997152">
        <ele>-0.34</ele>
        <time>2023-08-15T19:33:49Z</time>
      </trkpt>
      <trkpt lat="52.204430010169744" lon="0.111481994390488">
        <ele>1.58</ele>
        <time>2023-08-15T19:33:55Z</time>
      </trkpt>
      <trkpt lat="52.204546015709639" lon="0.111459027975798">
        <ele>1.58</ele>
        <time>2023-08-15T19:33:56Z</time>
      </trkpt>
      <trkpt lat="52.204659003764391" lon="0.111436983570457">
        <ele>2.06</ele>
        <time>2023-08-15T19:33:57Z</time>
      </trkpt>
      <trkpt lat="52.205807995051146" lon="0.111290970817208">
        <ele>5.42</ele>
        <time>2023-08-15T19:34:07Z</time>
      </trkpt>
      <trkpt lat="52.206410989165306" lon="0.111148981377482">
        <ele>6.87</ele>
        <time>2023-08-15T19:34:12Z</time>
      </trkpt>
      <trkpt lat="52.206529006361961" lon="0.111120985820889">
        <ele>7.35</ele>
        <time>2023-08-15T19:34:13Z</time>
      </trkpt>
      <trkpt lat="52.207507006824017" lon="0.110761988908052">
        <ele>9.27</ele>
        <time>2023-08-15T19:34:22Z</time>
      </trkpt>
      <trkpt lat="52.207613037899137" lon="0.110750002786517">
        <ele>9.75</ele>
        <time>2023-08-15T19:34:23Z</time>
      </trkpt>
      <trkpt lat="52.207728959619999" lon="0.110758971422911">
        <ele>9.75</ele>
        <time>2023-08-15T19:34:24Z</time>
      </trkpt>
      <trkpt lat="52.208504034206271" lon="0.111031970009208">
        <ele>11.19</ele>
        <time>2023-08-15T19:34:32Z</time>
      </trkpt>
      <trkpt lat="52.209325041621923" lon="0.111192986369133">
        <ele>11.67</ele>
        <time>2023-08-15T19:34:40Z</time>
      </trkpt>
      <trkpt lat="52.209496032446623" lon="0.111249983310699">
        <ele>12.15</ele>
        <time>2023-08-15T19:34:42Z</time>
      </trkpt>
      <trkpt lat="52.209575995802879" lon="0.111288959160447">
        <ele>12.630000000000001</ele>
        <time>2023-08-15T19:34:43Z</time>
      </trkpt>
      <trkpt lat="52.209981009364128" lon="0.111692966893315">
        <ele>13.119999999999999</ele>
        <time>2023-08-15T19:34:50Z</time>
      </trkpt>
      <trkpt lat="52.210078993812203" lon="0.111714005470276">
        <ele>13.119999999999999</ele>
        <time>2023-08-15T19:34:51Z</time>
      </trkpt>
      <trkpt lat="52.210100032389164" lon="0.111708976328373">
        <ele>13.119999999999999</ele>
        <time>2023-08-15T19:34:52Z</time>
      </trkpt>
      <trkpt lat="52.210162980481982" lon="0.111582996323705">
        <ele>13.119999999999999</ele>
        <time>2023-08-15T19:34:53Z</time>
      </trkpt>
      <trkpt lat="52.210200028494" lon="0.111509989947081">
        <ele>13.119999999999999</ele>
        <time>2023-08-15T19:34:54Z</time>
      </trkpt>
      <trkpt lat="52.210250990465283" lon="0.111407982185483">
        <ele>13.6</ele>
        <time>2023-08-15T19:34:55Z</time>
      </trkpt>
      <trkpt lat="52.210269011557102" lon="0.111350985243917">
        <ele>13.6</ele>
        <time>2023-08-15T19:34:56Z</time>
      </trkpt>
      <trkpt lat="52.210300024598837" lon="0.111260963603854">
        <ele>13.6</ele>
        <time>2023-08-15T19:34:57Z</time>
      </trkpt>
      <trkpt lat="52.210330031812191" lon="0.111168008297682">
        <ele>13.6</ele>
        <time>2023-08-15T19:34:58Z</time>
      </trkpt>
      <trkpt lat="52.210493981838226" lon="0.110630979761481">
        <ele>13.6</ele>
        <time>2023-08-15T19:35:04Z</time>
      </trkpt>
      <trkpt lat="52.210509991273284" lon="0.110579011961818">
        <ele>13.6</ele>
        <time>2023-08-15T19:35:05Z</time>
      </trkpt>
      <trkpt lat="52.210594983771443" lon="0.110480021685362">
        <ele>13.6</ele>
        <time>2023-08-15T19:35:06Z</time>
      </trkpt>
      <trkpt lat="52.210628008469939" lon="0.110508017241955">
        <ele>13.6</ele>
        <time>2023-08-15T19:35:07Z</time>
      </trkpt>
      <trkpt lat="52.210678970441222" lon="0.110553028061986">
        <ele>13.6</ele>
        <time>2023-08-15T19:35:08Z</time>
      </trkpt>
      <trkpt lat="52.210746025666595" lon="0.110610025003552">
        <ele>14.08</ele>
        <time>2023-08-15T19:35:09Z</time>
      </trkpt>
      <trkpt lat="52.210825989022851" lon="0.110678002238274">
        <ele>14.56</ele>
        <time>2023-08-15T19:35:10Z</time>
      </trkpt>
      <trkpt lat="52.210906958207488" lon="0.110742961987853">
        <ele>15.039999999999999</ele>
        <time>2023-08-15T19:35:11Z</time>
      </trkpt>
      <trkpt lat="52.210984993726015" lon="0.110803982242942">
        <ele>15.52</ele>
        <time>2023-08-15T19:35:12Z</time>
      </trkpt>
      <trkpt lat="52.21105900593102" lon="0.11086399666965">
        <ele>16</ele>
        <time>2023-08-15T19:35:13Z</time>
      </trkpt>
      <trkpt lat="52.211185991764069" lon="0.110978996381164">
        <ele>16.960000000000001</ele>
        <time>2023-08-15T19:35:15Z</time>
      </trkpt>
      <trkpt lat="52.211534008383751" lon="0.1113570202142">
        <ele>20.32</ele>
        <time>2023-08-15T19:35:22Z</time>
      </trkpt>
      <trkpt lat="52.21159603446722" lon="0.111331036314368">
        <ele>20.809999999999999</ele>
        <time>2023-08-15T19:35:23Z</time>
      </trkpt>
      <trkpt lat="52.211634004488587" lon="0.111272027716041">
        <ele>21.289999999999999</ele>
        <time>2023-08-15T19:35:24Z</time>
      </trkpt>
      <trkpt lat="52.211680021136999" lon="0.111200027167797">
        <ele>21.77</ele>
        <time>2023-08-15T19:35:25Z</time>
      </trkpt>
      <trkpt lat="52.211728971451521" lon="0.111124003306031">
        <ele>22.25</ele>
        <time>2023-08-15T19:35:26Z</time>
      </trkpt>
      <trkpt lat="52.211778005585074" lon="0.111048985272646">
        <ele>22.73</ele>
        <time>2023-08-15T19:35:27Z</time>
      </trkpt>
      <trkpt lat="52.211830979213119" lon="0.110967010259628">
        <ele>23.210000000000001</ele>
        <time>2023-08-15T19:35:28Z</time>
      </trkpt>
      <trkpt lat="52.211886970326304" lon="0.110881011933088">
        <ele>23.690000000000001</ele>
        <time>2023-08-15T19:35:29Z</time>
      </trkpt>
      <trkpt lat="52.211942039430141" lon="0.110796019434929">
        <ele>24.170000000000002</ele>
        <time>2023-08-15T19:35:30Z</time>
      </trkpt>
      <trkpt lat="52.212094003334641" lon="0.110555961728096">
        <ele>25.609999999999999</ele>
        <time>2023-08-15T19:35:33Z</time>
      </trkpt>
      <trkpt lat="52.212142031639814" lon="0.11047599837184">
        <ele>25.609999999999999</ele>
        <time>2023-08-15T19:35:34Z</time>
      </trkpt>
      <trkpt lat="52.212250996381044" lon="0.110297966748476">
        <ele>26.09</ele>
        <time>2023-08-15T19:35:36Z</time>
      </trkpt>
      <trkpt lat="52.212311010807753" lon="0.110227977856994">
        <ele>26.09</ele>
        <time>2023-08-15T19:35:37Z</time>
      </trkpt>
      <trkpt lat="52.212368007749319" lon="0.110169975087047">
        <ele>26.57</ele>
        <time>2023-08-15T19:35:38Z</time>
      </trkpt>
      <trkpt lat="52.212491976097226" lon="0.110125970095396">
        <ele>27.050000000000001</ele>
        <time>2023-08-15T19:35:40Z</time>
      </trkpt>
      <trkpt lat="52.212545033544302" lon="0.110135022550821">
        <ele>27.530000000000001</ele>
        <time>2023-08-15T19:35:41Z</time>
      </trkpt>
      <trkpt lat="52.212622985243797" lon="0.110191013664007">
        <ele>27.530000000000001</ele>
        <time>2023-08-15T19:35:42Z</time>
      </trkpt>
      <trkpt lat="52.212710995227098" lon="0.110254967585206">
        <ele>28.02</ele>
        <time>2023-08-15T19:35:43Z</time>
      </trkpt>
      <trkpt lat="52.212794981896877" lon="0.110315987840295">
        <ele>28.02</ele>
        <time>2023-08-15T19:35:44Z</time>
      </trkpt>
      <trkpt lat="52.21286497078836" lon="0.11036703363061">
        <ele>28.5</ele>
        <time>2023-08-15T19:35:45Z</time>
      </trkpt>
      <trkpt lat="52.212924985215068" lon="0.110414978116751">
        <ele>28.5</ele>
        <time>2023-08-15T19:35:46Z</time>
      </trkpt>
      <trkpt lat="52.212981982156634" lon="0.110481027513742">
        <ele>28.98</ele>
        <time>2023-08-15T19:35:47Z</time>
      </trkpt>
      <trkpt lat="52.213499983772635" lon="0.111060971394181">
        <ele>30.899999999999999</ele>
        <time>2023-08-15T19:35:56Z</time>
      </trkpt>
      <trkpt lat="52.21355396322906" lon="0.111128026619554">
        <ele>30.899999999999999</ele>
        <time>2023-08-15T19:35:57Z</time>
      </trkpt>
      <trkpt lat="52.213597968220711" lon="0.111183011904359">
        <ele>30.899999999999999</ele>
        <time>2023-08-15T19:35:58Z</time>
      </trkpt>
      <trkpt lat="52.21368296071887" lon="0.111149987205863">
        <ele>30.899999999999999</ele>
        <time>2023-08-15T19:35:59Z</time>
      </trkpt>
      <trkpt lat="52.213691007345915" lon="0.111132971942425">
        <ele>30.899999999999999</ele>
        <time>2023-08-15T19:36:00Z</time>
      </trkpt>
      <trkpt lat="52.213691007345915" lon="0.111132971942425">
        <ele>30.899999999999999</ele>
        <time>2023-08-15T19:36:13Z</time>
      </trkpt>
      <trkpt lat="52.213771976530552" lon="0.110964998602867">
        <ele>32.340000000000003</ele>
        <time>2023-08-15T19:36:33Z</time>
      </trkpt>
      <trkpt lat="52.213963000103831" lon="0.110580017790198">
        <ele>32.82</ele>
        <time>2023-08-15T19:36:40Z</time>
      </trkpt>
      <trkpt lat="52.214040029793978" lon="0.110740028321743">
        <ele>32.340000000000003</ele>
        <time>2023-08-15T19:36:41Z</time>
      </trkpt>
      <trkpt lat="52.214076993986964" lon="0.110783027485013">
        <ele>32.340000000000003</ele>
        <time>2023-08-15T19:36:42Z</time>
      </trkpt>
      <trkpt lat="52.214118987321854" lon="0.110831977799535">
        <ele>32.340000000000003</ele>
        <time>2023-08-15T19:36:43Z</time>
      </trkpt>
      <trkpt lat="52.214159974828362" lon="0.110880006104708">
        <ele>32.340000000000003</ele>
        <time>2023-08-15T19:36:44Z</time>
      </trkpt>
      <trkpt lat="52.214265000075102" lon="0.110999029129744">
        <ele>30.899999999999999</ele>
        <time>2023-08-15T19:36:53Z</time>
      </trkpt>
      <trkpt lat="52.214265000075102" lon="0.110999029129744">
        <ele>30.899999999999999</ele>
        <time>2023-08-15T19:37:05Z</time>
      </trkpt>
      <trkpt lat="52.21430397592485" lon="0.110859973356128">
        <ele>30.899999999999999</ele>
        <time>2023-08-15T19:37:06Z</time>
      </trkpt>
      <trkpt lat="52.214326020330191" lon="0.110860979184508">
        <ele>31.379999999999999</ele>
        <time>2023-08-15T19:37:07Z</time>
      </trkpt>
      <trkpt lat="52.214355021715164" lon="0.110861985012889">
        <ele>31.379999999999999</ele>
        <time>2023-08-15T19:37:08Z</time>
      </trkpt>
      <trkpt lat="52.214401038363576" lon="0.110865002498031">
        <ele>30.899999999999999</ele>
        <time>2023-08-15T19:37:09Z</time>
      </trkpt>
      <trkpt lat="52.214470021426678" lon="0.110869025811553">
        <ele>30.899999999999999</ele>
        <time>2023-08-15T19:37:10Z</time>
      </trkpt>
      <trkpt lat="52.214555013924837" lon="0.110877994447947">
        <ele>30.420000000000002</ele>
        <time>2023-08-15T19:37:11Z</time>
      </trkpt>
      <trkpt lat="52.215397981926799" lon="0.110964998602867">
        <ele>30.420000000000002</ele>
        <time>2023-08-15T19:37:20Z</time>
      </trkpt>
      <trkpt lat="52.216607993468642" lon="0.111058037728071">
        <ele>27.530000000000001</ele>
        <time>2023-08-15T19:37:34Z</time>
      </trkpt>
      <trkpt lat="52.217567972838879" lon="0.111145041882992">
        <ele>26.09</ele>
        <time>2023-08-15T19:37:45Z</time>
      </trkpt>
      <trkpt lat="52.218487970530987" lon="0.111286025494337">
        <ele>24.649999999999999</ele>
        <time>2023-08-15T19:37:56Z</time>
      </trkpt>
      <trkpt lat="52.219421966001391" lon="0.111580984666944">
        <ele>24.649999999999999</ele>
        <time>2023-08-15T19:38:09Z</time>
      </trkpt>
      <trkpt lat="52.219626987352967" lon="0.111630018800497">
        <ele>26.09</ele>
        <time>2023-08-15T19:38:20Z</time>
      </trkpt>
      <trkpt lat="52.220011968165636" lon="0.111745018512011">
        <ele>26.57</ele>
        <time>2023-08-15T19:38:26Z</time>
      </trkpt>
      <trkpt lat="52.220954010263085" lon="0.111969988793135">
        <ele>26.57</ele>
        <time>2023-08-15T19:38:38Z</time>
      </trkpt>
      <trkpt lat="52.221567984670401" lon="0.112074008211493">
        <ele>26.09</ele>
        <time>2023-08-15T19:38:48Z</time>
      </trkpt>
      <trkpt lat="52.221853975206614" lon="0.112122036516666">
        <ele>25.609999999999999</ele>
        <time>2023-08-15T19:38:58Z</time>
      </trkpt>
      <trkpt lat="52.222518995404243" lon="0.112183978781104">
        <ele>23.210000000000001</ele>
        <time>2023-08-15T19:39:05Z</time>
      </trkpt>
      <trkpt lat="52.223615013062954" lon="0.112150032073259">
        <ele>19.84</ele>
        <time>2023-08-15T19:39:15Z</time>
      </trkpt>
      <trkpt lat="52.225189972668886" lon="0.111947022378445">
        <ele>16.960000000000001</ele>
        <time>2023-08-15T19:39:29Z</time>
      </trkpt>
      <trkpt lat="52.22667901776731" lon="0.111840991303325">
        <ele>16</ele>
        <time>2023-08-15T19:39:41Z</time>
      </trkpt>
      <trkpt lat="52.22775399684906" lon="0.111859012395144">
        <ele>15.039999999999999</ele>
        <time>2023-08-15T19:39:50Z</time>
      </trkpt>
      <trkpt lat="52.228840040042996" lon="0.111789023503661">
        <ele>14.56</ele>
        <time>2023-08-15T19:40:00Z</time>
      </trkpt>
      <trkpt lat="52.230092966929078" lon="0.111555000767112">
        <ele>14.08</ele>
        <time>2023-08-15T19:40:11Z</time>
      </trkpt>
      <trkpt lat="52.231346983462572" lon="0.111488029360771">
        <ele>14.08</ele>
        <time>2023-08-15T19:40:22Z</time>
      </trkpt>
      <trkpt lat="52.232105964794755" lon="0.111678969115019">
        <ele>13.119999999999999</ele>
        <time>2023-08-15T19:40:29Z</time>
      </trkpt>
      <trkpt lat="52.232666965574026" lon="0.112019022926688">
        <ele>14.56</ele>
        <time>2023-08-15T19:40:38Z</time>
      </trkpt>
      <trkpt lat="52.23271700553596" lon="0.112051963806152">
        <ele>14.56</ele>
        <time>2023-08-15T19:40:39Z</time>
      </trkpt>
      <trkpt lat="52.232753969728947" lon="0.112079959362745">
        <ele>14.56</ele>
        <time>2023-08-15T19:40:40Z</time>
      </trkpt>
      <trkpt lat="52.232789006084204" lon="0.112106027081609">
        <ele>14.56</ele>
        <time>2023-08-15T19:40:41Z</time>
      </trkpt>
      <trkpt lat="52.232780959457159" lon="0.112244999036193">
        <ele>14.56</ele>
        <time>2023-08-15T19:40:42Z</time>
      </trkpt>
      <trkpt lat="52.232763022184372" lon="0.112312976270914">
        <ele>14.56</ele>
        <time>2023-08-15T19:40:43Z</time>
      </trkpt>
      <trkpt lat="52.232742989435792" lon="0.112387994304299">
        <ele>14.56</ele>
        <time>2023-08-15T19:40:44Z</time>
      </trkpt>
      <trkpt lat="52.232719017192721" lon="0.112479021772742">
        <ele>14.08</ele>
        <time>2023-08-15T19:40:45Z</time>
      </trkpt>
      <trkpt lat="52.232540985569358" lon="0.112999035045505">
        <ele>13.119999999999999</ele>
        <time>2023-08-15T19:40:50Z</time>
      </trkpt>
      <trkpt lat="52.232181988656521" lon="0.114597966894507">
        <ele>12.15</ele>
        <time>2023-08-15T19:41:03Z</time>
      </trkpt>
      <trkpt lat="52.231901027262211" lon="0.115865981206298">
        <ele>12.630000000000001</ele>
        <time>2023-08-15T19:41:12Z</time>
      </trkpt>
      <trkpt lat="52.231832966208458" lon="0.116176027804613">
        <ele>12.15</ele>
        <time>2023-08-15T19:41:14Z</time>
      </trkpt>
      <trkpt lat="52.231690976768732" lon="0.11814896017313">
        <ele>11.67</ele>
        <time>2023-08-15T19:41:26Z</time>
      </trkpt>
      <trkpt lat="52.231763983145356" lon="0.119219999760389">
        <ele>11.67</ele>
        <time>2023-08-15T19:41:32Z</time>
      </trkpt>
      <trkpt lat="52.232164973393083" lon="0.120685994625092">
        <ele>13.6</ele>
        <time>2023-08-15T19:41:41Z</time>
      </trkpt>
      <trkpt lat="52.23286896944046" lon="0.122301019728184">
        <ele>15.52</ele>
        <time>2023-08-15T19:41:53Z</time>
      </trkpt>
      <trkpt lat="52.23331798799336" lon="0.123162008821964">
        <ele>16</ele>
        <time>2023-08-15T19:42:00Z</time>
      </trkpt>
      <trkpt lat="52.233617976307869" lon="0.123714962974191">
        <ele>16.48</ele>
        <time>2023-08-15T19:42:06Z</time>
      </trkpt>
      <trkpt lat="52.233655024319887" lon="0.123782018199563">
        <ele>16.960000000000001</ele>
        <time>2023-08-15T19:42:07Z</time>
      </trkpt>
      <trkpt lat="52.233782010152936" lon="0.12373298406601">
        <ele>16.960000000000001</ele>
        <time>2023-08-15T19:42:08Z</time>
      </trkpt>
      <trkpt lat="52.233832972124219" lon="0.123683027923107">
        <ele>17.440000000000001</ele>
        <time>2023-08-15T19:42:09Z</time>
      </trkpt>
      <trkpt lat="52.233890974894166" lon="0.123627036809921">
        <ele>17.440000000000001</ele>
        <time>2023-08-15T19:42:10Z</time>
      </trkpt>
      <trkpt lat="52.233947971835732" lon="0.123572973534465">
        <ele>17.920000000000002</ele>
        <time>2023-08-15T19:42:11Z</time>
      </trkpt>
      <trkpt lat="52.234097002074122" lon="0.12343198992312">
        <ele>18.399999999999999</ele>
        <time>2023-08-15T19:42:14Z</time>
      </trkpt>
      <trkpt lat="52.234305962920189" lon="0.123229986056685">
        <ele>19.84</ele>
        <time>2023-08-15T19:42:20Z</time>
      </trkpt>
      <trkpt lat="52.234348962083459" lon="0.123186986893415">
        <ele>19.84</ele>
        <time>2023-08-15T19:42:21Z</time>
      </trkpt>
      <trkpt lat="52.234505033120513" lon="0.122859003022313">
        <ele>19.359999999999999</ele>
        <time>2023-08-15T19:42:28Z</time>
      </trkpt>
      <trkpt lat="52.234540991485119" lon="0.122759006917477">
        <ele>18.879999999999999</ele>
        <time>2023-08-15T19:42:29Z</time>
      </trkpt>
      <trkpt lat="52.234540991485119" lon="0.122759006917477">
        <ele>18.399999999999999</ele>
        <time>2023-08-15T19:42:30Z</time>
      </trkpt>
      <trkpt lat="52.234540991485119" lon="0.122759006917477">
        <ele>17.920000000000002</ele>
        <time>2023-08-15T19:42:31Z</time>
      </trkpt>
      <trkpt lat="52.234540991485119" lon="0.122759006917477">
        <ele>17.440000000000001</ele>
        <time>2023-08-15T19:42:32Z</time>
      </trkpt>
      <trkpt lat="52.234525987878442" lon="0.122799994423985">
        <ele>16.960000000000001</ele>
        <time>2023-08-15T19:42:33Z</time>
      </trkpt>
      <trkpt lat="52.234525987878442" lon="0.122799994423985">
        <ele>16.48</ele>
        <time>2023-08-15T19:42:34Z</time>
      </trkpt>
      <trkpt lat="52.234525987878442" lon="0.122799994423985">
        <ele>15.52</ele>
        <time>2023-08-15T19:42:54Z</time>
      </trkpt>
      <trkpt lat="52.234525987878442" lon="0.122799994423985">
        <ele>15.52</ele>
        <time>2023-08-15T19:43:38Z</time>
      </trkpt>
      <trkpt lat="52.234525987878442" lon="0.122799994423985">
        <ele>15.039999999999999</ele>
        <time>2023-08-15T19:44:17Z</time>
      </trkpt>
      <trkpt lat="52.234540991485119" lon="0.122759006917477">
        <ele>15.039999999999999</ele>
        <time>2023-08-15T19:44:26Z</time>
      </trkpt>
      <trkpt lat="52.234552977606654" lon="0.122605031356215">
        <ele>15.039999999999999</ele>
        <time>2023-08-15T19:44:28Z</time>
      </trkpt>
      <trkpt lat="52.234561024233699" lon="0.122514003887773">
        <ele>14.56</ele>
        <time>2023-08-15T19:44:29Z</time>
      </trkpt>
      <trkpt lat="52.234532022848725" lon="0.122438985854387">
        <ele>14.56</ele>
        <time>2023-08-15T19:44:30Z</time>
      </trkpt>
      <trkpt lat="52.234492963179946" lon="0.12235701084137">
        <ele>14.08</ele>
        <time>2023-08-15T19:44:31Z</time>
      </trkpt>
      <trkpt lat="52.234451975673437" lon="0.122269000858068">
        <ele>13.6</ele>
        <time>2023-08-15T19:44:32Z</time>
      </trkpt>
      <trkpt lat="52.234405959025025" lon="0.122173028066754">
        <ele>12.630000000000001</ele>
        <time>2023-08-15T19:44:33Z</time>
      </trkpt>
      <trkpt lat="52.234239997342229" lon="0.121825011447072">
        <ele>12.15</ele>
        <time>2023-08-15T19:44:37Z</time>
      </trkpt>
      <trkpt lat="52.234207978472114" lon="0.12175602838397">
        <ele>12.15</ele>
        <time>2023-08-15T19:44:38Z</time>
      </trkpt>
      <trkpt lat="52.234180988743901" lon="0.121700959280133">
        <ele>12.15</ele>
        <time>2023-08-15T19:44:39Z</time>
      </trkpt>
      <trkpt lat="52.234183000400662" lon="0.1216059923172">
        <ele>12.15</ele>
        <time>2023-08-15T19:44:40Z</time>
      </trkpt>
      <trkpt lat="52.234218036755919" lon="0.12156299315393">
        <ele>12.15</ele>
        <time>2023-08-15T19:44:41Z</time>
      </trkpt>
      <trkpt lat="52.234259024262428" lon="0.121510019525886">
        <ele>12.15</ele>
        <time>2023-08-15T19:44:42Z</time>
      </trkpt>
      <trkpt lat="52.234304035082459" lon="0.121453022584319">
        <ele>12.15</ele>
        <time>2023-08-15T19:44:43Z</time>
      </trkpt>
      <trkpt lat="52.234351979568601" lon="0.12139200232923">
        <ele>12.15</ele>
        <time>2023-08-15T19:44:44Z</time>
      </trkpt>
      <trkpt lat="52.234448036178946" lon="0.121270967647433">
        <ele>12.15</ele>
        <time>2023-08-15T19:44:46Z</time>
      </trkpt>
      <trkpt lat="52.23450000397861" lon="0.121206007897854">
        <ele>12.15</ele>
        <time>2023-08-15T19:44:47Z</time>
      </trkpt>
      <trkpt lat="52.234862018376589" lon="0.120753971859813">
        <ele>13.119999999999999</ele>
        <time>2023-08-15T19:44:54Z</time>
      </trkpt>
      <trkpt lat="52.23503896035254" lon="0.120533024892211">
        <ele>15.039999999999999</ele>
        <time>2023-08-15T19:45:01Z</time>
      </trkpt>
      <trkpt lat="52.235123030841351" lon="0.120577029883862">
        <ele>16.960000000000001</ele>
        <time>2023-08-15T19:45:08Z</time>
      </trkpt>
      <trkpt lat="52.235141973942518" lon="0.120614999905229">
        <ele>16.960000000000001</ele>
        <time>2023-08-15T19:45:09Z</time>
      </trkpt>
      <trkpt lat="52.235164018347859" lon="0.120659004896879">
        <ele>17.440000000000001</ele>
        <time>2023-08-15T19:45:10Z</time>
      </trkpt>
      <trkpt lat="52.235190002247691" lon="0.120711978524923">
        <ele>17.440000000000001</ele>
        <time>2023-08-15T19:45:11Z</time>
      </trkpt>
      <trkpt lat="52.235206011682749" lon="0.120741985738277">
        <ele>17.440000000000001</ele>
        <time>2023-08-15T19:45:12Z</time>
      </trkpt>
      <trkpt lat="52.235243981704116" lon="0.120893027633429">
        <ele>17.440000000000001</ele>
        <time>2023-08-15T19:45:14Z</time>
      </trkpt>
      <trkpt lat="52.235262002795935" lon="0.120967039838433">
        <ele>17.440000000000001</ele>
        <time>2023-08-15T19:45:15Z</time>
      </trkpt>
      <trkpt lat="52.235285975039005" lon="0.121209025382996">
        <ele>16.960000000000001</ele>
        <time>2023-08-15T19:45:18Z</time>
      </trkpt>
      <trkpt lat="52.23529402166605" lon="0.121312960982323">
        <ele>16.48</ele>
        <time>2023-08-15T19:45:19Z</time>
      </trkpt>
      <trkpt lat="52.235302990302444" lon="0.121423015370965">
        <ele>16.48</ele>
        <time>2023-08-15T19:45:20Z</time>
      </trkpt>
      <trkpt lat="52.235326962545514" lon="0.121740018948913">
        <ele>15.52</ele>
        <time>2023-08-15T19:45:23Z</time>
      </trkpt>
      <trkpt lat="52.235335009172559" lon="0.121836997568607">
        <ele>15.039999999999999</ele>
        <time>2023-08-15T19:45:24Z</time>
      </trkpt>
      <trkpt lat="52.235324028879404" lon="0.121868010610342">
        <ele>14.56</ele>
        <time>2023-08-15T19:45:25Z</time>
      </trkpt>
      <trkpt lat="52.235307013615966" lon="0.121918972581625">
        <ele>14.56</ele>
        <time>2023-08-15T19:45:26Z</time>
      </trkpt>
      <trkpt lat="52.235292010009289" lon="0.121964989230037">
        <ele>14.56</ele>
        <time>2023-08-15T19:45:27Z</time>
      </trkpt>
      <trkpt lat="52.23527398891747" lon="0.122002037242055">
        <ele>14.56</ele>
        <time>2023-08-15T19:45:28Z</time>
      </trkpt>
      <trkpt lat="52.235259991139174" lon="0.122030032798648">
        <ele>14.56</ele>
        <time>2023-08-15T19:45:29Z</time>
      </trkpt>
      <trkpt lat="52.235226966440678" lon="0.122093986719847">
        <ele>14.56</ele>
        <time>2023-08-15T19:45:30Z</time>
      </trkpt>
      <trkpt lat="52.235224032774568" lon="0.122093986719847">
        <ele>14.56</ele>
        <time>2023-08-15T19:45:31Z</time>
      </trkpt>
      <trkpt lat="52.235196037217975" lon="0.122098010033369">
        <ele>14.56</ele>
        <time>2023-08-15T19:45:32Z</time>
      </trkpt>
      <trkpt lat="52.235150020569563" lon="0.122103039175272">
        <ele>14.08</ele>
        <time>2023-08-15T19:45:33Z</time>
      </trkpt>
      <trkpt lat="52.235086988657713" lon="0.122111001983285">
        <ele>14.08</ele>
        <time>2023-08-15T19:45:34Z</time>
      </trkpt>
      <trkpt lat="52.235018005594611" lon="0.122118964791298">
        <ele>13.6</ele>
        <time>2023-08-15T19:45:35Z</time>
      </trkpt>
      <trkpt lat="52.234870987012982" lon="0.122135980054736">
        <ele>13.6</ele>
        <time>2023-08-15T19:45:37Z</time>
      </trkpt>
      <trkpt lat="52.234810972586274" lon="0.122200017794967">
        <ele>13.119999999999999</ele>
        <time>2023-08-15T19:45:38Z</time>
      </trkpt>
      <trkpt lat="52.234756993129849" lon="0.122264977544546">
        <ele>12.630000000000001</ele>
        <time>2023-08-15T19:45:39Z</time>
      </trkpt>
      <trkpt lat="52.234705025330186" lon="0.122328009456396">
        <ele>12.630000000000001</ele>
        <time>2023-08-15T19:45:40Z</time>
      </trkpt>
      <trkpt lat="52.234661020338535" lon="0.122381988912821">
        <ele>12.630000000000001</ele>
        <time>2023-08-15T19:45:41Z</time>
      </trkpt>
      <trkpt lat="52.234621960669756" lon="0.122429011389613">
        <ele>12.15</ele>
        <time>2023-08-15T19:45:42Z</time>
      </trkpt>
      <trkpt lat="52.234590025618672" lon="0.122467987239361">
        <ele>12.15</ele>
        <time>2023-08-15T19:45:43Z</time>
      </trkpt>
      <trkpt lat="52.234562030062079" lon="0.122502017766237">
        <ele>11.67</ele>
        <time>2023-08-15T19:45:44Z</time>
      </trkpt>
      <trkpt lat="52.234485000371933" lon="0.122338989749551">
        <ele>11.19</ele>
        <time>2023-08-15T19:45:45Z</time>
      </trkpt>
      <trkpt lat="52.234453987330198" lon="0.122274029999971">
        <ele>10.710000000000001</ele>
        <time>2023-08-15T19:45:46Z</time>
      </trkpt>
      <trkpt lat="52.234417023137212" lon="0.122197000309825">
        <ele>9.75</ele>
        <time>2023-08-15T19:45:47Z</time>
      </trkpt>
      <trkpt lat="52.234377963468432" lon="0.122115025296807">
        <ele>9.27</ele>
        <time>2023-08-15T19:45:48Z</time>
      </trkpt>
      <trkpt lat="52.234335970133543" lon="0.122025003656745">
        <ele>8.789999999999999</ele>
        <time>2023-08-15T19:45:49Z</time>
      </trkpt>
      <trkpt lat="52.234245026484132" lon="0.121833980083466">
        <ele>7.83</ele>
        <time>2023-08-15T19:45:51Z</time>
      </trkpt>
      <trkpt lat="52.234202027320862" lon="0.121743958443403">
        <ele>7.83</ele>
        <time>2023-08-15T19:45:52Z</time>
      </trkpt>
      <trkpt lat="52.234172020107508" lon="0.121680004522204">
        <ele>7.35</ele>
        <time>2023-08-15T19:45:53Z</time>
      </trkpt>
      <trkpt lat="52.234153999015689" lon="0.121643962338567">
        <ele>6.87</ele>
        <time>2023-08-15T19:45:54Z</time>
      </trkpt>
      <trkpt lat="52.234175037592649" lon="0.121616972610354">
        <ele>6.39</ele>
        <time>2023-08-15T19:45:55Z</time>
      </trkpt>
      <trkpt lat="52.234218036755919" lon="0.12156299315393">
        <ele>5.91</ele>
        <time>2023-08-15T19:45:56Z</time>
      </trkpt>
      <trkpt lat="52.234265981242061" lon="0.12150096707046">
        <ele>5.91</ele>
        <time>2023-08-15T19:45:57Z</time>
      </trkpt>
      <trkpt lat="52.234673006460071" lon="0.120990006253123">
        <ele>4.46</ele>
        <time>2023-08-15T19:46:05Z</time>
      </trkpt>
      <trkpt lat="52.235025968402624" lon="0.120548028498888">
        <ele>4.46</ele>
        <time>2023-08-15T19:46:15Z</time>
      </trkpt>
      <trkpt lat="52.235056981444359" lon="0.120429005473852">
        <ele>4.94</ele>
        <time>2023-08-15T19:46:17Z</time>
      </trkpt>
      <trkpt lat="52.23503896035254" lon="0.120379971340299">
        <ele>5.42</ele>
        <time>2023-08-15T19:46:18Z</time>
      </trkpt>
      <trkpt lat="52.235019011422992" lon="0.120323980227113">
        <ele>5.42</ele>
        <time>2023-08-15T19:46:19Z</time>
      </trkpt>
      <trkpt lat="52.234996967017651" lon="0.120263965800405">
        <ele>5.91</ele>
        <time>2023-08-15T19:46:20Z</time>
      </trkpt>
      <trkpt lat="52.235006019473076" lon="0.12023102492094">
        <ele>5.91</ele>
        <time>2023-08-15T19:46:21Z</time>
      </trkpt>
      <trkpt lat="52.235033009201288" lon="0.120196994394064">
        <ele>5.91</ele>
        <time>2023-08-15T19:46:22Z</time>
      </trkpt>
      <trkpt lat="52.235063016414642" lon="0.120159024372697">
        <ele>6.39</ele>
        <time>2023-08-15T19:46:23Z</time>
      </trkpt>
      <trkpt lat="52.235094029456377" lon="0.120119964703918">
        <ele>6.87</ele>
        <time>2023-08-15T19:46:24Z</time>
      </trkpt>
      <trkpt lat="52.235260996967554" lon="0.11990899220109">
        <ele>7.83</ele>
        <time>2023-08-15T19:46:30Z</time>
      </trkpt>
      <trkpt lat="52.235277006402612" lon="0.119888037443161">
        <ele>8.310000000000001</ele>
        <time>2023-08-15T19:46:31Z</time>
      </trkpt>
      <trkpt lat="52.235291004180908" lon="0.119871022179723">
        <ele>8.789999999999999</ele>
        <time>2023-08-15T19:46:32Z</time>
      </trkpt>
      <trkpt lat="52.235375996679068" lon="0.119976969435811">
        <ele>9.27</ele>
        <time>2023-08-15T19:46:34Z</time>
      </trkpt>
      <trkpt lat="52.235493008047342" lon="0.120462030172348">
        <ele>9.27</ele>
        <time>2023-08-15T19:46:44Z</time>
      </trkpt>
      <trkpt lat="52.235473981127143" lon="0.120908031240106">
        <ele>7.35</ele>
        <time>2023-08-15T19:47:00Z</time>
      </trkpt>
      <trkpt lat="52.235473981127143" lon="0.120908031240106">
        <ele>7.35</ele>
        <time>2023-08-15T19:47:21Z</time>
      </trkpt>
      <trkpt lat="52.235467024147511" lon="0.120905013754964">
        <ele>7.83</ele>
        <time>2023-08-15T19:48:01Z</time>
      </trkpt>
      <trkpt lat="52.235456965863705" lon="0.120911970734596">
        <ele>8.310000000000001</ele>
        <time>2023-08-15T19:48:40Z</time>
      </trkpt>
      <trkpt lat="52.235447997227311" lon="0.120920017361641">
        <ele>8.789999999999999</ele>
        <time>2023-08-15T19:49:19Z</time>
      </trkpt>
    </trkseg>
  </trk>

</gpx>